<?xml version="1.0" encoding="UTF-8"?>
<gpx version="1.1" creator="https://www.youtrack.es" xsi:schemaLocation="http://www.topografix.com/GPX/1/1 http://www.topografix.com/GPX/1/1/gpx.xsd http://www.garmin.com/xmlschemas/GpxExtensions/v3 http://www.garmin.com/xmlschemas/GpxExtensionsv3.xsd http://www.garmin.com/xmlschemas/TrackPointExtension/v1 http://www.garmin.com/xmlschemas/TrackPointExtensionv1.xsd" xmlns:gpxtpx="http://www.garmin.com/xmlschemas/TrackPointExtension/v1" xmlns:gpxx="http://www.garmin.com/xmlschemas/GpxExtensions/v3" xmlns:xsi="http://www.w3.org/2001/XMLSchema-instance">
  <metadata>
    <link href="https://www.youtrack.es">
      <text>YouTrack.es</text>
    </link>
    <time>2026-05-08T16:44:52Z</time>
  </metadata>
  <trk>
    <src>https://www.youtrack.es</src>
    <link href="https://www.youtrack.es/ruta/2066-sangai-cochahuaico">
      <text>YouTrack.es</text>
    </link>
    <trkseg>
      <trkpt lat="-2.729787" lon="-78.826630">
        <ele>2752.00</ele>
        <time>2018-09-08T19:30:38Z</time>
      </trkpt>
      <trkpt lat="-2.729785" lon="-78.826622">
        <ele>2751.00</ele>
        <time>2018-09-08T19:30:39Z</time>
      </trkpt>
      <trkpt lat="-2.729788" lon="-78.826614">
        <ele>2751.00</ele>
        <time>2018-09-08T19:30:40Z</time>
      </trkpt>
      <trkpt lat="-2.729793" lon="-78.826607">
        <ele>2751.00</ele>
        <time>2018-09-08T19:30:41Z</time>
      </trkpt>
      <trkpt lat="-2.729794" lon="-78.826607">
        <ele>2751.00</ele>
        <time>2018-09-08T19:30:42Z</time>
      </trkpt>
      <trkpt lat="-2.729793" lon="-78.826607">
        <ele>2752.00</ele>
        <time>2018-09-08T19:30:43Z</time>
      </trkpt>
      <trkpt lat="-2.729792" lon="-78.826607">
        <ele>2752.00</ele>
        <time>2018-09-08T19:30:44Z</time>
      </trkpt>
      <trkpt lat="-2.729790" lon="-78.826599">
        <ele>2751.00</ele>
        <time>2018-09-08T19:30:45Z</time>
      </trkpt>
      <trkpt lat="-2.729789" lon="-78.826607">
        <ele>2751.00</ele>
        <time>2018-09-08T19:30:46Z</time>
      </trkpt>
      <trkpt lat="-2.729788" lon="-78.826599">
        <ele>2751.00</ele>
        <time>2018-09-08T19:30:47Z</time>
      </trkpt>
      <trkpt lat="-2.729788" lon="-78.826599">
        <ele>2751.00</ele>
        <time>2018-09-08T19:30:48Z</time>
      </trkpt>
      <trkpt lat="-2.729789" lon="-78.826607">
        <ele>2751.00</ele>
        <time>2018-09-08T19:30:49Z</time>
      </trkpt>
      <trkpt lat="-2.729788" lon="-78.826599">
        <ele>2752.00</ele>
        <time>2018-09-08T19:30:50Z</time>
      </trkpt>
      <trkpt lat="-2.729787" lon="-78.826607">
        <ele>2752.00</ele>
        <time>2018-09-08T19:30:51Z</time>
      </trkpt>
      <trkpt lat="-2.729788" lon="-78.826607">
        <ele>2752.00</ele>
        <time>2018-09-08T19:30:52Z</time>
      </trkpt>
      <trkpt lat="-2.729789" lon="-78.826607">
        <ele>2752.00</ele>
        <time>2018-09-08T19:30:53Z</time>
      </trkpt>
      <trkpt lat="-2.729789" lon="-78.826607">
        <ele>2752.00</ele>
        <time>2018-09-08T19:30:54Z</time>
      </trkpt>
      <trkpt lat="-2.729789" lon="-78.826607">
        <ele>2752.00</ele>
        <time>2018-09-08T19:30:55Z</time>
      </trkpt>
      <trkpt lat="-2.729787" lon="-78.826614">
        <ele>2753.00</ele>
        <time>2018-09-08T19:30:56Z</time>
      </trkpt>
      <trkpt lat="-2.729785" lon="-78.826614">
        <ele>2753.00</ele>
        <time>2018-09-08T19:30:57Z</time>
      </trkpt>
      <trkpt lat="-2.729784" lon="-78.826614">
        <ele>2753.00</ele>
        <time>2018-09-08T19:30:58Z</time>
      </trkpt>
      <trkpt lat="-2.729781" lon="-78.826614">
        <ele>2753.00</ele>
        <time>2018-09-08T19:30:59Z</time>
      </trkpt>
      <trkpt lat="-2.729779" lon="-78.826614">
        <ele>2753.00</ele>
        <time>2018-09-08T19:31:00Z</time>
      </trkpt>
      <trkpt lat="-2.729779" lon="-78.826614">
        <ele>2753.00</ele>
        <time>2018-09-08T19:31:01Z</time>
      </trkpt>
      <trkpt lat="-2.729779" lon="-78.826614">
        <ele>2753.00</ele>
        <time>2018-09-08T19:31:02Z</time>
      </trkpt>
      <trkpt lat="-2.729779" lon="-78.826614">
        <ele>2754.00</ele>
        <time>2018-09-08T19:31:03Z</time>
      </trkpt>
      <trkpt lat="-2.729779" lon="-78.826614">
        <ele>2754.00</ele>
        <time>2018-09-08T19:31:04Z</time>
      </trkpt>
      <trkpt lat="-2.729779" lon="-78.826614">
        <ele>2754.00</ele>
        <time>2018-09-08T19:31:05Z</time>
      </trkpt>
      <trkpt lat="-2.729779" lon="-78.826614">
        <ele>2754.00</ele>
        <time>2018-09-08T19:31:06Z</time>
      </trkpt>
      <trkpt lat="-2.729779" lon="-78.826614">
        <ele>2754.00</ele>
        <time>2018-09-08T19:31:07Z</time>
      </trkpt>
      <trkpt lat="-2.729779" lon="-78.826614">
        <ele>2754.00</ele>
        <time>2018-09-08T19:31:08Z</time>
      </trkpt>
      <trkpt lat="-2.729779" lon="-78.826614">
        <ele>2754.00</ele>
        <time>2018-09-08T19:31:09Z</time>
      </trkpt>
      <trkpt lat="-2.729779" lon="-78.826614">
        <ele>2754.00</ele>
        <time>2018-09-08T19:31:10Z</time>
      </trkpt>
      <trkpt lat="-2.729779" lon="-78.826614">
        <ele>2754.00</ele>
        <time>2018-09-08T19:31:11Z</time>
      </trkpt>
      <trkpt lat="-2.729779" lon="-78.826614">
        <ele>2754.00</ele>
        <time>2018-09-08T19:31:12Z</time>
      </trkpt>
      <trkpt lat="-2.729779" lon="-78.826614">
        <ele>2754.00</ele>
        <time>2018-09-08T19:31:13Z</time>
      </trkpt>
      <trkpt lat="-2.729779" lon="-78.826614">
        <ele>2754.00</ele>
        <time>2018-09-08T19:31:14Z</time>
      </trkpt>
      <trkpt lat="-2.729779" lon="-78.826614">
        <ele>2754.00</ele>
        <time>2018-09-08T19:31:15Z</time>
      </trkpt>
      <trkpt lat="-2.729779" lon="-78.826614">
        <ele>2754.00</ele>
        <time>2018-09-08T19:31:16Z</time>
      </trkpt>
      <trkpt lat="-2.729779" lon="-78.826614">
        <ele>2754.00</ele>
        <time>2018-09-08T19:31:17Z</time>
      </trkpt>
      <trkpt lat="-2.729779" lon="-78.826614">
        <ele>2754.00</ele>
        <time>2018-09-08T19:31:18Z</time>
      </trkpt>
      <trkpt lat="-2.729779" lon="-78.826614">
        <ele>2754.00</ele>
        <time>2018-09-08T19:31:19Z</time>
      </trkpt>
      <trkpt lat="-2.729779" lon="-78.826614">
        <ele>2754.00</ele>
        <time>2018-09-08T19:31:20Z</time>
      </trkpt>
      <trkpt lat="-2.729779" lon="-78.826614">
        <ele>2754.00</ele>
        <time>2018-09-08T19:31:21Z</time>
      </trkpt>
      <trkpt lat="-2.729779" lon="-78.826614">
        <ele>2754.00</ele>
        <time>2018-09-08T19:31:22Z</time>
      </trkpt>
      <trkpt lat="-2.729779" lon="-78.826614">
        <ele>2754.00</ele>
        <time>2018-09-08T19:31:23Z</time>
      </trkpt>
      <trkpt lat="-2.729779" lon="-78.826614">
        <ele>2754.00</ele>
        <time>2018-09-08T19:31:24Z</time>
      </trkpt>
      <trkpt lat="-2.729779" lon="-78.826614">
        <ele>2754.00</ele>
        <time>2018-09-08T19:31:25Z</time>
      </trkpt>
      <trkpt lat="-2.729779" lon="-78.826614">
        <ele>2754.00</ele>
        <time>2018-09-08T19:31:26Z</time>
      </trkpt>
      <trkpt lat="-2.729779" lon="-78.826614">
        <ele>2754.00</ele>
        <time>2018-09-08T19:31:27Z</time>
      </trkpt>
      <trkpt lat="-2.729779" lon="-78.826614">
        <ele>2754.00</ele>
        <time>2018-09-08T19:31:28Z</time>
      </trkpt>
      <trkpt lat="-2.729779" lon="-78.826614">
        <ele>2754.00</ele>
        <time>2018-09-08T19:31:29Z</time>
      </trkpt>
      <trkpt lat="-2.729779" lon="-78.826614">
        <ele>2754.00</ele>
        <time>2018-09-08T19:31:30Z</time>
      </trkpt>
      <trkpt lat="-2.729779" lon="-78.826614">
        <ele>2754.00</ele>
        <time>2018-09-08T19:31:31Z</time>
      </trkpt>
      <trkpt lat="-2.729779" lon="-78.826614">
        <ele>2754.00</ele>
        <time>2018-09-08T19:31:32Z</time>
      </trkpt>
      <trkpt lat="-2.729779" lon="-78.826614">
        <ele>2754.00</ele>
        <time>2018-09-08T19:31:33Z</time>
      </trkpt>
      <trkpt lat="-2.729779" lon="-78.826614">
        <ele>2754.00</ele>
        <time>2018-09-08T19:31:34Z</time>
      </trkpt>
      <trkpt lat="-2.729779" lon="-78.826614">
        <ele>2754.00</ele>
        <time>2018-09-08T19:31:35Z</time>
      </trkpt>
      <trkpt lat="-2.729779" lon="-78.826614">
        <ele>2754.00</ele>
        <time>2018-09-08T19:31:36Z</time>
      </trkpt>
      <trkpt lat="-2.729779" lon="-78.826614">
        <ele>2754.00</ele>
        <time>2018-09-08T19:31:37Z</time>
      </trkpt>
      <trkpt lat="-2.729779" lon="-78.826614">
        <ele>2754.00</ele>
        <time>2018-09-08T19:31:38Z</time>
      </trkpt>
      <trkpt lat="-2.729779" lon="-78.826614">
        <ele>2754.00</ele>
        <time>2018-09-08T19:31:39Z</time>
      </trkpt>
      <trkpt lat="-2.729779" lon="-78.826614">
        <ele>2754.00</ele>
        <time>2018-09-08T19:31:40Z</time>
      </trkpt>
      <trkpt lat="-2.729779" lon="-78.826614">
        <ele>2754.00</ele>
        <time>2018-09-08T19:31:41Z</time>
      </trkpt>
      <trkpt lat="-2.729779" lon="-78.826614">
        <ele>2754.00</ele>
        <time>2018-09-08T19:31:42Z</time>
      </trkpt>
      <trkpt lat="-2.729779" lon="-78.826614">
        <ele>2754.00</ele>
        <time>2018-09-08T19:31:43Z</time>
      </trkpt>
      <trkpt lat="-2.729779" lon="-78.826614">
        <ele>2754.00</ele>
        <time>2018-09-08T19:31:44Z</time>
      </trkpt>
      <trkpt lat="-2.729779" lon="-78.826614">
        <ele>2754.00</ele>
        <time>2018-09-08T19:31:45Z</time>
      </trkpt>
      <trkpt lat="-2.729779" lon="-78.826614">
        <ele>2754.00</ele>
        <time>2018-09-08T19:31:46Z</time>
      </trkpt>
      <trkpt lat="-2.729779" lon="-78.826614">
        <ele>2754.00</ele>
        <time>2018-09-08T19:31:47Z</time>
      </trkpt>
      <trkpt lat="-2.729779" lon="-78.826614">
        <ele>2754.00</ele>
        <time>2018-09-08T19:31:48Z</time>
      </trkpt>
      <trkpt lat="-2.729779" lon="-78.826614">
        <ele>2754.00</ele>
        <time>2018-09-08T19:31:49Z</time>
      </trkpt>
      <trkpt lat="-2.729779" lon="-78.826614">
        <ele>2754.00</ele>
        <time>2018-09-08T19:31:50Z</time>
      </trkpt>
      <trkpt lat="-2.729779" lon="-78.826614">
        <ele>2754.00</ele>
        <time>2018-09-08T19:31:51Z</time>
      </trkpt>
      <trkpt lat="-2.729779" lon="-78.826614">
        <ele>2754.00</ele>
        <time>2018-09-08T19:31:52Z</time>
      </trkpt>
      <trkpt lat="-2.729779" lon="-78.826614">
        <ele>2754.00</ele>
        <time>2018-09-08T19:31:53Z</time>
      </trkpt>
      <trkpt lat="-2.729779" lon="-78.826614">
        <ele>2754.00</ele>
        <time>2018-09-08T19:31:54Z</time>
      </trkpt>
      <trkpt lat="-2.729779" lon="-78.826614">
        <ele>2754.00</ele>
        <time>2018-09-08T19:31:55Z</time>
      </trkpt>
      <trkpt lat="-2.729779" lon="-78.826614">
        <ele>2754.00</ele>
        <time>2018-09-08T19:31:56Z</time>
      </trkpt>
      <trkpt lat="-2.729779" lon="-78.826614">
        <ele>2754.00</ele>
        <time>2018-09-08T19:31:57Z</time>
      </trkpt>
      <trkpt lat="-2.729779" lon="-78.826614">
        <ele>2754.00</ele>
        <time>2018-09-08T19:31:58Z</time>
      </trkpt>
      <trkpt lat="-2.729777" lon="-78.826584">
        <ele>2754.00</ele>
        <time>2018-09-08T19:31:59Z</time>
      </trkpt>
      <trkpt lat="-2.729777" lon="-78.826584">
        <ele>2754.00</ele>
        <time>2018-09-08T19:32:00Z</time>
      </trkpt>
      <trkpt lat="-2.729776" lon="-78.826584">
        <ele>2754.00</ele>
        <time>2018-09-08T19:32:01Z</time>
      </trkpt>
      <trkpt lat="-2.729775" lon="-78.826584">
        <ele>2754.00</ele>
        <time>2018-09-08T19:32:02Z</time>
      </trkpt>
      <trkpt lat="-2.729775" lon="-78.826584">
        <ele>2754.00</ele>
        <time>2018-09-08T19:32:03Z</time>
      </trkpt>
      <trkpt lat="-2.729774" lon="-78.826584">
        <ele>2754.00</ele>
        <time>2018-09-08T19:32:04Z</time>
      </trkpt>
      <trkpt lat="-2.729773" lon="-78.826584">
        <ele>2753.00</ele>
        <time>2018-09-08T19:32:05Z</time>
      </trkpt>
      <trkpt lat="-2.729771" lon="-78.826584">
        <ele>2753.00</ele>
        <time>2018-09-08T19:32:06Z</time>
      </trkpt>
      <trkpt lat="-2.729770" lon="-78.826584">
        <ele>2753.00</ele>
        <time>2018-09-08T19:32:07Z</time>
      </trkpt>
      <trkpt lat="-2.729769" lon="-78.826584">
        <ele>2753.00</ele>
        <time>2018-09-08T19:32:08Z</time>
      </trkpt>
      <trkpt lat="-2.729768" lon="-78.826584">
        <ele>2753.00</ele>
        <time>2018-09-08T19:32:09Z</time>
      </trkpt>
      <trkpt lat="-2.729768" lon="-78.826584">
        <ele>2753.00</ele>
        <time>2018-09-08T19:32:10Z</time>
      </trkpt>
      <trkpt lat="-2.729769" lon="-78.826584">
        <ele>2753.00</ele>
        <time>2018-09-08T19:32:11Z</time>
      </trkpt>
      <trkpt lat="-2.729769" lon="-78.826576">
        <ele>2753.00</ele>
        <time>2018-09-08T19:32:12Z</time>
      </trkpt>
      <trkpt lat="-2.729769" lon="-78.826576">
        <ele>2753.00</ele>
        <time>2018-09-08T19:32:13Z</time>
      </trkpt>
      <trkpt lat="-2.729770" lon="-78.826576">
        <ele>2753.00</ele>
        <time>2018-09-08T19:32:14Z</time>
      </trkpt>
      <trkpt lat="-2.729770" lon="-78.826576">
        <ele>2753.00</ele>
        <time>2018-09-08T19:32:15Z</time>
      </trkpt>
      <trkpt lat="-2.729770" lon="-78.826576">
        <ele>2753.00</ele>
        <time>2018-09-08T19:32:16Z</time>
      </trkpt>
      <trkpt lat="-2.729769" lon="-78.826576">
        <ele>2753.00</ele>
        <time>2018-09-08T19:32:17Z</time>
      </trkpt>
      <trkpt lat="-2.729767" lon="-78.826576">
        <ele>2753.00</ele>
        <time>2018-09-08T19:32:18Z</time>
      </trkpt>
      <trkpt lat="-2.729765" lon="-78.826576">
        <ele>2753.00</ele>
        <time>2018-09-08T19:32:19Z</time>
      </trkpt>
      <trkpt lat="-2.729765" lon="-78.826576">
        <ele>2753.00</ele>
        <time>2018-09-08T19:32:20Z</time>
      </trkpt>
      <trkpt lat="-2.729765" lon="-78.826569">
        <ele>2753.00</ele>
        <time>2018-09-08T19:32:21Z</time>
      </trkpt>
      <trkpt lat="-2.729765" lon="-78.826569">
        <ele>2753.00</ele>
        <time>2018-09-08T19:32:22Z</time>
      </trkpt>
      <trkpt lat="-2.729768" lon="-78.826569">
        <ele>2753.00</ele>
        <time>2018-09-08T19:32:23Z</time>
      </trkpt>
      <trkpt lat="-2.729764" lon="-78.826561">
        <ele>2753.00</ele>
        <time>2018-09-08T19:32:24Z</time>
      </trkpt>
      <trkpt lat="-2.729763" lon="-78.826546">
        <ele>2753.00</ele>
        <time>2018-09-08T19:32:25Z</time>
      </trkpt>
      <trkpt lat="-2.729745" lon="-78.826523">
        <ele>2753.00</ele>
        <time>2018-09-08T19:32:26Z</time>
      </trkpt>
      <trkpt lat="-2.729697" lon="-78.826477">
        <ele>2752.00</ele>
        <time>2018-09-08T19:32:27Z</time>
      </trkpt>
      <trkpt lat="-2.729642" lon="-78.826424">
        <ele>2752.00</ele>
        <time>2018-09-08T19:32:28Z</time>
      </trkpt>
      <trkpt lat="-2.729593" lon="-78.826385">
        <ele>2752.00</ele>
        <time>2018-09-08T19:32:29Z</time>
      </trkpt>
      <trkpt lat="-2.729559" lon="-78.826363">
        <ele>2752.00</ele>
        <time>2018-09-08T19:32:30Z</time>
      </trkpt>
      <trkpt lat="-2.729537" lon="-78.826385">
        <ele>2752.00</ele>
        <time>2018-09-08T19:32:31Z</time>
      </trkpt>
      <trkpt lat="-2.729526" lon="-78.826401">
        <ele>2752.00</ele>
        <time>2018-09-08T19:32:32Z</time>
      </trkpt>
      <trkpt lat="-2.729517" lon="-78.826408">
        <ele>2752.00</ele>
        <time>2018-09-08T19:32:33Z</time>
      </trkpt>
      <trkpt lat="-2.729514" lon="-78.826416">
        <ele>2752.00</ele>
        <time>2018-09-08T19:32:34Z</time>
      </trkpt>
      <trkpt lat="-2.729510" lon="-78.826416">
        <ele>2752.00</ele>
        <time>2018-09-08T19:32:35Z</time>
      </trkpt>
      <trkpt lat="-2.729506" lon="-78.826416">
        <ele>2752.00</ele>
        <time>2018-09-08T19:32:36Z</time>
      </trkpt>
      <trkpt lat="-2.729504" lon="-78.826416">
        <ele>2752.00</ele>
        <time>2018-09-08T19:32:37Z</time>
      </trkpt>
      <trkpt lat="-2.729504" lon="-78.826416">
        <ele>2752.00</ele>
        <time>2018-09-08T19:32:38Z</time>
      </trkpt>
      <trkpt lat="-2.729502" lon="-78.826416">
        <ele>2752.00</ele>
        <time>2018-09-08T19:32:39Z</time>
      </trkpt>
      <trkpt lat="-2.729501" lon="-78.826416">
        <ele>2752.00</ele>
        <time>2018-09-08T19:32:40Z</time>
      </trkpt>
      <trkpt lat="-2.729501" lon="-78.826416">
        <ele>2751.00</ele>
        <time>2018-09-08T19:32:41Z</time>
      </trkpt>
      <trkpt lat="-2.729500" lon="-78.826416">
        <ele>2751.00</ele>
        <time>2018-09-08T19:32:42Z</time>
      </trkpt>
      <trkpt lat="-2.729501" lon="-78.826416">
        <ele>2751.00</ele>
        <time>2018-09-08T19:32:43Z</time>
      </trkpt>
      <trkpt lat="-2.729502" lon="-78.826408">
        <ele>2751.00</ele>
        <time>2018-09-08T19:32:44Z</time>
      </trkpt>
      <trkpt lat="-2.729500" lon="-78.826408">
        <ele>2751.00</ele>
        <time>2018-09-08T19:32:45Z</time>
      </trkpt>
      <trkpt lat="-2.729501" lon="-78.826401">
        <ele>2751.00</ele>
        <time>2018-09-08T19:32:46Z</time>
      </trkpt>
      <trkpt lat="-2.729506" lon="-78.826401">
        <ele>2751.00</ele>
        <time>2018-09-08T19:32:47Z</time>
      </trkpt>
      <trkpt lat="-2.729509" lon="-78.826401">
        <ele>2751.00</ele>
        <time>2018-09-08T19:32:48Z</time>
      </trkpt>
      <trkpt lat="-2.729508" lon="-78.826401">
        <ele>2751.00</ele>
        <time>2018-09-08T19:32:49Z</time>
      </trkpt>
      <trkpt lat="-2.729509" lon="-78.826408">
        <ele>2751.00</ele>
        <time>2018-09-08T19:32:50Z</time>
      </trkpt>
      <trkpt lat="-2.729509" lon="-78.826416">
        <ele>2751.00</ele>
        <time>2018-09-08T19:32:51Z</time>
      </trkpt>
      <trkpt lat="-2.729509" lon="-78.826416">
        <ele>2751.00</ele>
        <time>2018-09-08T19:32:52Z</time>
      </trkpt>
      <trkpt lat="-2.729509" lon="-78.826416">
        <ele>2751.00</ele>
        <time>2018-09-08T19:32:53Z</time>
      </trkpt>
      <trkpt lat="-2.729509" lon="-78.826416">
        <ele>2751.00</ele>
        <time>2018-09-08T19:32:54Z</time>
      </trkpt>
      <trkpt lat="-2.729509" lon="-78.826416">
        <ele>2751.00</ele>
        <time>2018-09-08T19:32:55Z</time>
      </trkpt>
      <trkpt lat="-2.729509" lon="-78.826416">
        <ele>2751.00</ele>
        <time>2018-09-08T19:32:56Z</time>
      </trkpt>
      <trkpt lat="-2.729509" lon="-78.826416">
        <ele>2751.00</ele>
        <time>2018-09-08T19:32:57Z</time>
      </trkpt>
      <trkpt lat="-2.729509" lon="-78.826416">
        <ele>2751.00</ele>
        <time>2018-09-08T19:32:58Z</time>
      </trkpt>
      <trkpt lat="-2.729509" lon="-78.826408">
        <ele>2751.00</ele>
        <time>2018-09-08T19:32:59Z</time>
      </trkpt>
      <trkpt lat="-2.729509" lon="-78.826408">
        <ele>2751.00</ele>
        <time>2018-09-08T19:33:00Z</time>
      </trkpt>
      <trkpt lat="-2.729510" lon="-78.826408">
        <ele>2751.00</ele>
        <time>2018-09-08T19:33:01Z</time>
      </trkpt>
      <trkpt lat="-2.729510" lon="-78.826408">
        <ele>2751.00</ele>
        <time>2018-09-08T19:33:02Z</time>
      </trkpt>
      <trkpt lat="-2.729510" lon="-78.826408">
        <ele>2751.00</ele>
        <time>2018-09-08T19:33:03Z</time>
      </trkpt>
      <trkpt lat="-2.729510" lon="-78.826408">
        <ele>2751.00</ele>
        <time>2018-09-08T19:33:04Z</time>
      </trkpt>
      <trkpt lat="-2.729510" lon="-78.826408">
        <ele>2751.00</ele>
        <time>2018-09-08T19:33:05Z</time>
      </trkpt>
      <trkpt lat="-2.729510" lon="-78.826408">
        <ele>2751.00</ele>
        <time>2018-09-08T19:33:06Z</time>
      </trkpt>
      <trkpt lat="-2.729511" lon="-78.826408">
        <ele>2751.00</ele>
        <time>2018-09-08T19:33:07Z</time>
      </trkpt>
      <trkpt lat="-2.729511" lon="-78.826408">
        <ele>2751.00</ele>
        <time>2018-09-08T19:33:08Z</time>
      </trkpt>
      <trkpt lat="-2.729511" lon="-78.826408">
        <ele>2751.00</ele>
        <time>2018-09-08T19:33:09Z</time>
      </trkpt>
      <trkpt lat="-2.729511" lon="-78.826408">
        <ele>2751.00</ele>
        <time>2018-09-08T19:33:10Z</time>
      </trkpt>
      <trkpt lat="-2.729511" lon="-78.826408">
        <ele>2751.00</ele>
        <time>2018-09-08T19:33:11Z</time>
      </trkpt>
      <trkpt lat="-2.729511" lon="-78.826408">
        <ele>2751.00</ele>
        <time>2018-09-08T19:33:12Z</time>
      </trkpt>
      <trkpt lat="-2.729512" lon="-78.826408">
        <ele>2751.00</ele>
        <time>2018-09-08T19:33:13Z</time>
      </trkpt>
      <trkpt lat="-2.729512" lon="-78.826408">
        <ele>2751.00</ele>
        <time>2018-09-08T19:33:14Z</time>
      </trkpt>
      <trkpt lat="-2.729512" lon="-78.826408">
        <ele>2751.00</ele>
        <time>2018-09-08T19:33:15Z</time>
      </trkpt>
      <trkpt lat="-2.729512" lon="-78.826401">
        <ele>2751.00</ele>
        <time>2018-09-08T19:33:16Z</time>
      </trkpt>
      <trkpt lat="-2.729512" lon="-78.826401">
        <ele>2751.00</ele>
        <time>2018-09-08T19:33:17Z</time>
      </trkpt>
      <trkpt lat="-2.729512" lon="-78.826401">
        <ele>2751.00</ele>
        <time>2018-09-08T19:33:18Z</time>
      </trkpt>
      <trkpt lat="-2.729513" lon="-78.826401">
        <ele>2751.00</ele>
        <time>2018-09-08T19:33:19Z</time>
      </trkpt>
      <trkpt lat="-2.729513" lon="-78.826401">
        <ele>2751.00</ele>
        <time>2018-09-08T19:33:20Z</time>
      </trkpt>
      <trkpt lat="-2.729513" lon="-78.826401">
        <ele>2751.00</ele>
        <time>2018-09-08T19:33:21Z</time>
      </trkpt>
      <trkpt lat="-2.729513" lon="-78.826401">
        <ele>2751.00</ele>
        <time>2018-09-08T19:33:22Z</time>
      </trkpt>
      <trkpt lat="-2.729513" lon="-78.826401">
        <ele>2751.00</ele>
        <time>2018-09-08T19:33:23Z</time>
      </trkpt>
      <trkpt lat="-2.729513" lon="-78.826401">
        <ele>2751.00</ele>
        <time>2018-09-08T19:33:24Z</time>
      </trkpt>
      <trkpt lat="-2.729513" lon="-78.826401">
        <ele>2751.00</ele>
        <time>2018-09-08T19:33:25Z</time>
      </trkpt>
      <trkpt lat="-2.729514" lon="-78.826401">
        <ele>2751.00</ele>
        <time>2018-09-08T19:33:26Z</time>
      </trkpt>
      <trkpt lat="-2.729514" lon="-78.826401">
        <ele>2751.00</ele>
        <time>2018-09-08T19:33:27Z</time>
      </trkpt>
      <trkpt lat="-2.729513" lon="-78.826401">
        <ele>2751.00</ele>
        <time>2018-09-08T19:33:28Z</time>
      </trkpt>
      <trkpt lat="-2.729513" lon="-78.826401">
        <ele>2751.00</ele>
        <time>2018-09-08T19:33:29Z</time>
      </trkpt>
      <trkpt lat="-2.729513" lon="-78.826401">
        <ele>2751.00</ele>
        <time>2018-09-08T19:33:30Z</time>
      </trkpt>
      <trkpt lat="-2.729513" lon="-78.826401">
        <ele>2751.00</ele>
        <time>2018-09-08T19:33:31Z</time>
      </trkpt>
      <trkpt lat="-2.729513" lon="-78.826401">
        <ele>2751.00</ele>
        <time>2018-09-08T19:33:32Z</time>
      </trkpt>
      <trkpt lat="-2.729513" lon="-78.826401">
        <ele>2751.00</ele>
        <time>2018-09-08T19:33:33Z</time>
      </trkpt>
      <trkpt lat="-2.729513" lon="-78.826401">
        <ele>2751.00</ele>
        <time>2018-09-08T19:33:34Z</time>
      </trkpt>
      <trkpt lat="-2.729513" lon="-78.826401">
        <ele>2751.00</ele>
        <time>2018-09-08T19:33:35Z</time>
      </trkpt>
      <trkpt lat="-2.729513" lon="-78.826401">
        <ele>2751.00</ele>
        <time>2018-09-08T19:33:36Z</time>
      </trkpt>
      <trkpt lat="-2.729514" lon="-78.826401">
        <ele>2751.00</ele>
        <time>2018-09-08T19:33:37Z</time>
      </trkpt>
      <trkpt lat="-2.729514" lon="-78.826401">
        <ele>2751.00</ele>
        <time>2018-09-08T19:33:38Z</time>
      </trkpt>
      <trkpt lat="-2.729514" lon="-78.826401">
        <ele>2751.00</ele>
        <time>2018-09-08T19:33:39Z</time>
      </trkpt>
      <trkpt lat="-2.729514" lon="-78.826401">
        <ele>2751.00</ele>
        <time>2018-09-08T19:33:40Z</time>
      </trkpt>
      <trkpt lat="-2.729514" lon="-78.826401">
        <ele>2751.00</ele>
        <time>2018-09-08T19:33:41Z</time>
      </trkpt>
      <trkpt lat="-2.729514" lon="-78.826401">
        <ele>2751.00</ele>
        <time>2018-09-08T19:33:42Z</time>
      </trkpt>
      <trkpt lat="-2.729515" lon="-78.826401">
        <ele>2751.00</ele>
        <time>2018-09-08T19:33:43Z</time>
      </trkpt>
      <trkpt lat="-2.729516" lon="-78.826401">
        <ele>2751.00</ele>
        <time>2018-09-08T19:33:44Z</time>
      </trkpt>
      <trkpt lat="-2.729515" lon="-78.826401">
        <ele>2751.00</ele>
        <time>2018-09-08T19:33:45Z</time>
      </trkpt>
      <trkpt lat="-2.729515" lon="-78.826401">
        <ele>2751.00</ele>
        <time>2018-09-08T19:33:46Z</time>
      </trkpt>
      <trkpt lat="-2.729514" lon="-78.826401">
        <ele>2751.00</ele>
        <time>2018-09-08T19:33:47Z</time>
      </trkpt>
      <trkpt lat="-2.729515" lon="-78.826401">
        <ele>2751.00</ele>
        <time>2018-09-08T19:33:48Z</time>
      </trkpt>
      <trkpt lat="-2.729514" lon="-78.826401">
        <ele>2751.00</ele>
        <time>2018-09-08T19:33:49Z</time>
      </trkpt>
      <trkpt lat="-2.729515" lon="-78.826401">
        <ele>2751.00</ele>
        <time>2018-09-08T19:33:50Z</time>
      </trkpt>
      <trkpt lat="-2.729515" lon="-78.826401">
        <ele>2751.00</ele>
        <time>2018-09-08T19:33:51Z</time>
      </trkpt>
      <trkpt lat="-2.729514" lon="-78.826401">
        <ele>2751.00</ele>
        <time>2018-09-08T19:33:52Z</time>
      </trkpt>
      <trkpt lat="-2.729515" lon="-78.826401">
        <ele>2751.00</ele>
        <time>2018-09-08T19:33:53Z</time>
      </trkpt>
      <trkpt lat="-2.729515" lon="-78.826401">
        <ele>2751.00</ele>
        <time>2018-09-08T19:33:54Z</time>
      </trkpt>
      <trkpt lat="-2.729515" lon="-78.826401">
        <ele>2751.00</ele>
        <time>2018-09-08T19:33:55Z</time>
      </trkpt>
      <trkpt lat="-2.729514" lon="-78.826401">
        <ele>2751.00</ele>
        <time>2018-09-08T19:33:56Z</time>
      </trkpt>
      <trkpt lat="-2.729515" lon="-78.826401">
        <ele>2751.00</ele>
        <time>2018-09-08T19:33:57Z</time>
      </trkpt>
      <trkpt lat="-2.729515" lon="-78.826401">
        <ele>2751.00</ele>
        <time>2018-09-08T19:33:58Z</time>
      </trkpt>
      <trkpt lat="-2.729515" lon="-78.826401">
        <ele>2751.00</ele>
        <time>2018-09-08T19:33:59Z</time>
      </trkpt>
      <trkpt lat="-2.729515" lon="-78.826401">
        <ele>2751.00</ele>
        <time>2018-09-08T19:34:00Z</time>
      </trkpt>
      <trkpt lat="-2.729515" lon="-78.826401">
        <ele>2751.00</ele>
        <time>2018-09-08T19:34:01Z</time>
      </trkpt>
      <trkpt lat="-2.729515" lon="-78.826401">
        <ele>2750.00</ele>
        <time>2018-09-08T19:34:02Z</time>
      </trkpt>
      <trkpt lat="-2.729515" lon="-78.826401">
        <ele>2750.00</ele>
        <time>2018-09-08T19:34:03Z</time>
      </trkpt>
      <trkpt lat="-2.729515" lon="-78.826401">
        <ele>2750.00</ele>
        <time>2018-09-08T19:34:04Z</time>
      </trkpt>
      <trkpt lat="-2.729515" lon="-78.826401">
        <ele>2750.00</ele>
        <time>2018-09-08T19:34:05Z</time>
      </trkpt>
      <trkpt lat="-2.729515" lon="-78.826401">
        <ele>2750.00</ele>
        <time>2018-09-08T19:34:06Z</time>
      </trkpt>
      <trkpt lat="-2.729515" lon="-78.826401">
        <ele>2750.00</ele>
        <time>2018-09-08T19:34:07Z</time>
      </trkpt>
      <trkpt lat="-2.729515" lon="-78.826401">
        <ele>2750.00</ele>
        <time>2018-09-08T19:34:08Z</time>
      </trkpt>
      <trkpt lat="-2.729515" lon="-78.826401">
        <ele>2750.00</ele>
        <time>2018-09-08T19:34:09Z</time>
      </trkpt>
      <trkpt lat="-2.729514" lon="-78.826401">
        <ele>2750.00</ele>
        <time>2018-09-08T19:34:10Z</time>
      </trkpt>
      <trkpt lat="-2.729514" lon="-78.826401">
        <ele>2750.00</ele>
        <time>2018-09-08T19:34:11Z</time>
      </trkpt>
      <trkpt lat="-2.729514" lon="-78.826401">
        <ele>2750.00</ele>
        <time>2018-09-08T19:34:12Z</time>
      </trkpt>
      <trkpt lat="-2.729514" lon="-78.826401">
        <ele>2750.00</ele>
        <time>2018-09-08T19:34:13Z</time>
      </trkpt>
      <trkpt lat="-2.729514" lon="-78.826401">
        <ele>2750.00</ele>
        <time>2018-09-08T19:34:14Z</time>
      </trkpt>
      <trkpt lat="-2.729514" lon="-78.826401">
        <ele>2750.00</ele>
        <time>2018-09-08T19:34:15Z</time>
      </trkpt>
      <trkpt lat="-2.729514" lon="-78.826401">
        <ele>2750.00</ele>
        <time>2018-09-08T19:34:16Z</time>
      </trkpt>
      <trkpt lat="-2.729515" lon="-78.826401">
        <ele>2750.00</ele>
        <time>2018-09-08T19:34:17Z</time>
      </trkpt>
      <trkpt lat="-2.729515" lon="-78.826401">
        <ele>2750.00</ele>
        <time>2018-09-08T19:34:18Z</time>
      </trkpt>
      <trkpt lat="-2.729515" lon="-78.826401">
        <ele>2750.00</ele>
        <time>2018-09-08T19:34:19Z</time>
      </trkpt>
      <trkpt lat="-2.729515" lon="-78.826401">
        <ele>2750.00</ele>
        <time>2018-09-08T19:34:20Z</time>
      </trkpt>
      <trkpt lat="-2.729515" lon="-78.826401">
        <ele>2750.00</ele>
        <time>2018-09-08T19:34:21Z</time>
      </trkpt>
      <trkpt lat="-2.729516" lon="-78.826401">
        <ele>2750.00</ele>
        <time>2018-09-08T19:34:22Z</time>
      </trkpt>
      <trkpt lat="-2.729516" lon="-78.826401">
        <ele>2750.00</ele>
        <time>2018-09-08T19:34:23Z</time>
      </trkpt>
      <trkpt lat="-2.729516" lon="-78.826401">
        <ele>2750.00</ele>
        <time>2018-09-08T19:34:24Z</time>
      </trkpt>
      <trkpt lat="-2.729516" lon="-78.826401">
        <ele>2750.00</ele>
        <time>2018-09-08T19:34:25Z</time>
      </trkpt>
      <trkpt lat="-2.729516" lon="-78.826401">
        <ele>2750.00</ele>
        <time>2018-09-08T19:34:26Z</time>
      </trkpt>
      <trkpt lat="-2.729516" lon="-78.826401">
        <ele>2750.00</ele>
        <time>2018-09-08T19:34:27Z</time>
      </trkpt>
      <trkpt lat="-2.729516" lon="-78.826401">
        <ele>2750.00</ele>
        <time>2018-09-08T19:34:28Z</time>
      </trkpt>
      <trkpt lat="-2.729517" lon="-78.826401">
        <ele>2750.00</ele>
        <time>2018-09-08T19:34:29Z</time>
      </trkpt>
      <trkpt lat="-2.729517" lon="-78.826401">
        <ele>2750.00</ele>
        <time>2018-09-08T19:34:30Z</time>
      </trkpt>
      <trkpt lat="-2.729517" lon="-78.826401">
        <ele>2750.00</ele>
        <time>2018-09-08T19:34:31Z</time>
      </trkpt>
      <trkpt lat="-2.729518" lon="-78.826401">
        <ele>2750.00</ele>
        <time>2018-09-08T19:34:32Z</time>
      </trkpt>
      <trkpt lat="-2.729519" lon="-78.826401">
        <ele>2750.00</ele>
        <time>2018-09-08T19:34:33Z</time>
      </trkpt>
      <trkpt lat="-2.729519" lon="-78.826401">
        <ele>2750.00</ele>
        <time>2018-09-08T19:34:34Z</time>
      </trkpt>
      <trkpt lat="-2.729519" lon="-78.826401">
        <ele>2750.00</ele>
        <time>2018-09-08T19:34:35Z</time>
      </trkpt>
      <trkpt lat="-2.729520" lon="-78.826401">
        <ele>2750.00</ele>
        <time>2018-09-08T19:34:36Z</time>
      </trkpt>
      <trkpt lat="-2.729520" lon="-78.826401">
        <ele>2750.00</ele>
        <time>2018-09-08T19:34:37Z</time>
      </trkpt>
      <trkpt lat="-2.729520" lon="-78.826401">
        <ele>2750.00</ele>
        <time>2018-09-08T19:34:38Z</time>
      </trkpt>
      <trkpt lat="-2.729520" lon="-78.826401">
        <ele>2750.00</ele>
        <time>2018-09-08T19:34:39Z</time>
      </trkpt>
      <trkpt lat="-2.729520" lon="-78.826401">
        <ele>2750.00</ele>
        <time>2018-09-08T19:34:40Z</time>
      </trkpt>
      <trkpt lat="-2.729520" lon="-78.826401">
        <ele>2750.00</ele>
        <time>2018-09-08T19:34:41Z</time>
      </trkpt>
      <trkpt lat="-2.729520" lon="-78.826401">
        <ele>2750.00</ele>
        <time>2018-09-08T19:34:42Z</time>
      </trkpt>
      <trkpt lat="-2.729520" lon="-78.826401">
        <ele>2750.00</ele>
        <time>2018-09-08T19:34:43Z</time>
      </trkpt>
      <trkpt lat="-2.729520" lon="-78.826401">
        <ele>2750.00</ele>
        <time>2018-09-08T19:34:44Z</time>
      </trkpt>
      <trkpt lat="-2.729520" lon="-78.826401">
        <ele>2750.00</ele>
        <time>2018-09-08T19:34:45Z</time>
      </trkpt>
      <trkpt lat="-2.729520" lon="-78.826401">
        <ele>2750.00</ele>
        <time>2018-09-08T19:34:46Z</time>
      </trkpt>
      <trkpt lat="-2.729520" lon="-78.826401">
        <ele>2750.00</ele>
        <time>2018-09-08T19:34:47Z</time>
      </trkpt>
      <trkpt lat="-2.729519" lon="-78.826401">
        <ele>2750.00</ele>
        <time>2018-09-08T19:34:48Z</time>
      </trkpt>
      <trkpt lat="-2.729517" lon="-78.826401">
        <ele>2750.00</ele>
        <time>2018-09-08T19:34:49Z</time>
      </trkpt>
      <trkpt lat="-2.729512" lon="-78.826401">
        <ele>2750.00</ele>
        <time>2018-09-08T19:34:50Z</time>
      </trkpt>
      <trkpt lat="-2.729512" lon="-78.826401">
        <ele>2750.00</ele>
        <time>2018-09-08T19:34:51Z</time>
      </trkpt>
      <trkpt lat="-2.729513" lon="-78.826393">
        <ele>2750.00</ele>
        <time>2018-09-08T19:34:52Z</time>
      </trkpt>
      <trkpt lat="-2.729515" lon="-78.826401">
        <ele>2750.00</ele>
        <time>2018-09-08T19:34:53Z</time>
      </trkpt>
      <trkpt lat="-2.729514" lon="-78.826401">
        <ele>2750.00</ele>
        <time>2018-09-08T19:34:54Z</time>
      </trkpt>
      <trkpt lat="-2.729514" lon="-78.826393">
        <ele>2750.00</ele>
        <time>2018-09-08T19:34:55Z</time>
      </trkpt>
      <trkpt lat="-2.729514" lon="-78.826393">
        <ele>2750.00</ele>
        <time>2018-09-08T19:34:56Z</time>
      </trkpt>
      <trkpt lat="-2.729514" lon="-78.826393">
        <ele>2750.00</ele>
        <time>2018-09-08T19:34:57Z</time>
      </trkpt>
      <trkpt lat="-2.729517" lon="-78.826393">
        <ele>2750.00</ele>
        <time>2018-09-08T19:34:58Z</time>
      </trkpt>
      <trkpt lat="-2.729519" lon="-78.826393">
        <ele>2750.00</ele>
        <time>2018-09-08T19:34:59Z</time>
      </trkpt>
      <trkpt lat="-2.729519" lon="-78.826393">
        <ele>2750.00</ele>
        <time>2018-09-08T19:35:00Z</time>
      </trkpt>
      <trkpt lat="-2.729520" lon="-78.826393">
        <ele>2750.00</ele>
        <time>2018-09-08T19:35:01Z</time>
      </trkpt>
      <trkpt lat="-2.729521" lon="-78.826393">
        <ele>2750.00</ele>
        <time>2018-09-08T19:35:02Z</time>
      </trkpt>
      <trkpt lat="-2.729521" lon="-78.826393">
        <ele>2750.00</ele>
        <time>2018-09-08T19:35:03Z</time>
      </trkpt>
      <trkpt lat="-2.729522" lon="-78.826393">
        <ele>2750.00</ele>
        <time>2018-09-08T19:35:04Z</time>
      </trkpt>
      <trkpt lat="-2.729532" lon="-78.826385">
        <ele>2750.00</ele>
        <time>2018-09-08T19:35:05Z</time>
      </trkpt>
      <trkpt lat="-2.729539" lon="-78.826385">
        <ele>2750.00</ele>
        <time>2018-09-08T19:35:06Z</time>
      </trkpt>
      <trkpt lat="-2.729544" lon="-78.826370">
        <ele>2750.00</ele>
        <time>2018-09-08T19:35:07Z</time>
      </trkpt>
      <trkpt lat="-2.729544" lon="-78.826370">
        <ele>2750.00</ele>
        <time>2018-09-08T19:35:08Z</time>
      </trkpt>
      <trkpt lat="-2.729545" lon="-78.826370">
        <ele>2750.00</ele>
        <time>2018-09-08T19:35:09Z</time>
      </trkpt>
      <trkpt lat="-2.729545" lon="-78.826370">
        <ele>2750.00</ele>
        <time>2018-09-08T19:35:10Z</time>
      </trkpt>
      <trkpt lat="-2.729543" lon="-78.826370">
        <ele>2750.00</ele>
        <time>2018-09-08T19:35:11Z</time>
      </trkpt>
      <trkpt lat="-2.729547" lon="-78.826385">
        <ele>2750.00</ele>
        <time>2018-09-08T19:35:12Z</time>
      </trkpt>
      <trkpt lat="-2.729553" lon="-78.826385">
        <ele>2750.00</ele>
        <time>2018-09-08T19:35:13Z</time>
      </trkpt>
      <trkpt lat="-2.729558" lon="-78.826385">
        <ele>2750.00</ele>
        <time>2018-09-08T19:35:14Z</time>
      </trkpt>
      <trkpt lat="-2.729561" lon="-78.826393">
        <ele>2750.00</ele>
        <time>2018-09-08T19:35:15Z</time>
      </trkpt>
      <trkpt lat="-2.729564" lon="-78.826393">
        <ele>2750.00</ele>
        <time>2018-09-08T19:35:16Z</time>
      </trkpt>
      <trkpt lat="-2.729566" lon="-78.826393">
        <ele>2750.00</ele>
        <time>2018-09-08T19:35:17Z</time>
      </trkpt>
      <trkpt lat="-2.729566" lon="-78.826393">
        <ele>2750.00</ele>
        <time>2018-09-08T19:35:18Z</time>
      </trkpt>
      <trkpt lat="-2.729565" lon="-78.826385">
        <ele>2750.00</ele>
        <time>2018-09-08T19:35:19Z</time>
      </trkpt>
      <trkpt lat="-2.729562" lon="-78.826370">
        <ele>2750.00</ele>
        <time>2018-09-08T19:35:20Z</time>
      </trkpt>
      <trkpt lat="-2.729559" lon="-78.826370">
        <ele>2750.00</ele>
        <time>2018-09-08T19:35:21Z</time>
      </trkpt>
      <trkpt lat="-2.729558" lon="-78.826370">
        <ele>2750.00</ele>
        <time>2018-09-08T19:35:22Z</time>
      </trkpt>
      <trkpt lat="-2.729562" lon="-78.826370">
        <ele>2750.00</ele>
        <time>2018-09-08T19:35:23Z</time>
      </trkpt>
      <trkpt lat="-2.729555" lon="-78.826385">
        <ele>2750.00</ele>
        <time>2018-09-08T19:35:24Z</time>
      </trkpt>
      <trkpt lat="-2.729543" lon="-78.826385">
        <ele>2750.00</ele>
        <time>2018-09-08T19:35:25Z</time>
      </trkpt>
      <trkpt lat="-2.729531" lon="-78.826370">
        <ele>2750.00</ele>
        <time>2018-09-08T19:35:26Z</time>
      </trkpt>
      <trkpt lat="-2.729527" lon="-78.826370">
        <ele>2750.00</ele>
        <time>2018-09-08T19:35:27Z</time>
      </trkpt>
      <trkpt lat="-2.729530" lon="-78.826385">
        <ele>2750.00</ele>
        <time>2018-09-08T19:35:28Z</time>
      </trkpt>
      <trkpt lat="-2.729530" lon="-78.826370">
        <ele>2750.00</ele>
        <time>2018-09-08T19:35:29Z</time>
      </trkpt>
      <trkpt lat="-2.729533" lon="-78.826370">
        <ele>2750.00</ele>
        <time>2018-09-08T19:35:30Z</time>
      </trkpt>
      <trkpt lat="-2.729532" lon="-78.826370">
        <ele>2750.00</ele>
        <time>2018-09-08T19:35:31Z</time>
      </trkpt>
      <trkpt lat="-2.729532" lon="-78.826370">
        <ele>2750.00</ele>
        <time>2018-09-08T19:35:32Z</time>
      </trkpt>
      <trkpt lat="-2.729532" lon="-78.826370">
        <ele>2750.00</ele>
        <time>2018-09-08T19:35:33Z</time>
      </trkpt>
      <trkpt lat="-2.729532" lon="-78.826370">
        <ele>2750.00</ele>
        <time>2018-09-08T19:35:34Z</time>
      </trkpt>
      <trkpt lat="-2.729531" lon="-78.826370">
        <ele>2750.00</ele>
        <time>2018-09-08T19:35:35Z</time>
      </trkpt>
      <trkpt lat="-2.729531" lon="-78.826370">
        <ele>2750.00</ele>
        <time>2018-09-08T19:35:36Z</time>
      </trkpt>
      <trkpt lat="-2.729530" lon="-78.826370">
        <ele>2750.00</ele>
        <time>2018-09-08T19:35:37Z</time>
      </trkpt>
      <trkpt lat="-2.729527" lon="-78.826385">
        <ele>2750.00</ele>
        <time>2018-09-08T19:35:38Z</time>
      </trkpt>
      <trkpt lat="-2.729526" lon="-78.826385">
        <ele>2750.00</ele>
        <time>2018-09-08T19:35:39Z</time>
      </trkpt>
      <trkpt lat="-2.729528" lon="-78.826385">
        <ele>2750.00</ele>
        <time>2018-09-08T19:35:40Z</time>
      </trkpt>
      <trkpt lat="-2.729532" lon="-78.826385">
        <ele>2750.00</ele>
        <time>2018-09-08T19:35:41Z</time>
      </trkpt>
      <trkpt lat="-2.729533" lon="-78.826393">
        <ele>2750.00</ele>
        <time>2018-09-08T19:35:42Z</time>
      </trkpt>
      <trkpt lat="-2.729534" lon="-78.826393">
        <ele>2750.00</ele>
        <time>2018-09-08T19:35:43Z</time>
      </trkpt>
      <trkpt lat="-2.729534" lon="-78.826393">
        <ele>2750.00</ele>
        <time>2018-09-08T19:35:44Z</time>
      </trkpt>
      <trkpt lat="-2.729534" lon="-78.826393">
        <ele>2750.00</ele>
        <time>2018-09-08T19:35:45Z</time>
      </trkpt>
      <trkpt lat="-2.729534" lon="-78.826393">
        <ele>2750.00</ele>
        <time>2018-09-08T19:35:46Z</time>
      </trkpt>
      <trkpt lat="-2.729534" lon="-78.826393">
        <ele>2750.00</ele>
        <time>2018-09-08T19:35:47Z</time>
      </trkpt>
      <trkpt lat="-2.729534" lon="-78.826393">
        <ele>2750.00</ele>
        <time>2018-09-08T19:35:48Z</time>
      </trkpt>
      <trkpt lat="-2.729534" lon="-78.826393">
        <ele>2750.00</ele>
        <time>2018-09-08T19:35:49Z</time>
      </trkpt>
      <trkpt lat="-2.729534" lon="-78.826393">
        <ele>2750.00</ele>
        <time>2018-09-08T19:35:50Z</time>
      </trkpt>
      <trkpt lat="-2.729534" lon="-78.826393">
        <ele>2750.00</ele>
        <time>2018-09-08T19:35:51Z</time>
      </trkpt>
      <trkpt lat="-2.729534" lon="-78.826393">
        <ele>2750.00</ele>
        <time>2018-09-08T19:35:52Z</time>
      </trkpt>
      <trkpt lat="-2.729533" lon="-78.826393">
        <ele>2750.00</ele>
        <time>2018-09-08T19:35:53Z</time>
      </trkpt>
      <trkpt lat="-2.729533" lon="-78.826393">
        <ele>2750.00</ele>
        <time>2018-09-08T19:35:54Z</time>
      </trkpt>
      <trkpt lat="-2.729534" lon="-78.826393">
        <ele>2750.00</ele>
        <time>2018-09-08T19:35:55Z</time>
      </trkpt>
      <trkpt lat="-2.729533" lon="-78.826393">
        <ele>2750.00</ele>
        <time>2018-09-08T19:35:56Z</time>
      </trkpt>
      <trkpt lat="-2.729533" lon="-78.826393">
        <ele>2750.00</ele>
        <time>2018-09-08T19:35:57Z</time>
      </trkpt>
      <trkpt lat="-2.729534" lon="-78.826393">
        <ele>2750.00</ele>
        <time>2018-09-08T19:35:58Z</time>
      </trkpt>
      <trkpt lat="-2.729534" lon="-78.826393">
        <ele>2750.00</ele>
        <time>2018-09-08T19:35:59Z</time>
      </trkpt>
      <trkpt lat="-2.729534" lon="-78.826393">
        <ele>2750.00</ele>
        <time>2018-09-08T19:36:00Z</time>
      </trkpt>
      <trkpt lat="-2.729534" lon="-78.826393">
        <ele>2750.00</ele>
        <time>2018-09-08T19:36:01Z</time>
      </trkpt>
      <trkpt lat="-2.729534" lon="-78.826393">
        <ele>2750.00</ele>
        <time>2018-09-08T19:36:02Z</time>
      </trkpt>
      <trkpt lat="-2.729534" lon="-78.826393">
        <ele>2750.00</ele>
        <time>2018-09-08T19:36:03Z</time>
      </trkpt>
      <trkpt lat="-2.729534" lon="-78.826393">
        <ele>2750.00</ele>
        <time>2018-09-08T19:36:04Z</time>
      </trkpt>
      <trkpt lat="-2.729535" lon="-78.826393">
        <ele>2750.00</ele>
        <time>2018-09-08T19:36:05Z</time>
      </trkpt>
      <trkpt lat="-2.729533" lon="-78.826393">
        <ele>2750.00</ele>
        <time>2018-09-08T19:36:06Z</time>
      </trkpt>
      <trkpt lat="-2.729534" lon="-78.826401">
        <ele>2750.00</ele>
        <time>2018-09-08T19:36:07Z</time>
      </trkpt>
      <trkpt lat="-2.729537" lon="-78.826401">
        <ele>2750.00</ele>
        <time>2018-09-08T19:36:08Z</time>
      </trkpt>
      <trkpt lat="-2.729538" lon="-78.826401">
        <ele>2750.00</ele>
        <time>2018-09-08T19:36:09Z</time>
      </trkpt>
      <trkpt lat="-2.729539" lon="-78.826401">
        <ele>2750.00</ele>
        <time>2018-09-08T19:36:10Z</time>
      </trkpt>
      <trkpt lat="-2.729537" lon="-78.826401">
        <ele>2750.00</ele>
        <time>2018-09-08T19:36:11Z</time>
      </trkpt>
      <trkpt lat="-2.729538" lon="-78.826401">
        <ele>2750.00</ele>
        <time>2018-09-08T19:36:12Z</time>
      </trkpt>
      <trkpt lat="-2.729537" lon="-78.826401">
        <ele>2750.00</ele>
        <time>2018-09-08T19:36:13Z</time>
      </trkpt>
      <trkpt lat="-2.729537" lon="-78.826401">
        <ele>2750.00</ele>
        <time>2018-09-08T19:36:14Z</time>
      </trkpt>
      <trkpt lat="-2.729537" lon="-78.826401">
        <ele>2750.00</ele>
        <time>2018-09-08T19:36:15Z</time>
      </trkpt>
      <trkpt lat="-2.729537" lon="-78.826401">
        <ele>2750.00</ele>
        <time>2018-09-08T19:36:16Z</time>
      </trkpt>
      <trkpt lat="-2.729537" lon="-78.826393">
        <ele>2750.00</ele>
        <time>2018-09-08T19:36:17Z</time>
      </trkpt>
      <trkpt lat="-2.729532" lon="-78.826393">
        <ele>2750.00</ele>
        <time>2018-09-08T19:36:18Z</time>
      </trkpt>
      <trkpt lat="-2.729528" lon="-78.826393">
        <ele>2750.00</ele>
        <time>2018-09-08T19:36:19Z</time>
      </trkpt>
      <trkpt lat="-2.729526" lon="-78.826393">
        <ele>2750.00</ele>
        <time>2018-09-08T19:36:20Z</time>
      </trkpt>
      <trkpt lat="-2.729526" lon="-78.826401">
        <ele>2750.00</ele>
        <time>2018-09-08T19:36:21Z</time>
      </trkpt>
      <trkpt lat="-2.729525" lon="-78.826401">
        <ele>2750.00</ele>
        <time>2018-09-08T19:36:22Z</time>
      </trkpt>
      <trkpt lat="-2.729525" lon="-78.826401">
        <ele>2750.00</ele>
        <time>2018-09-08T19:36:23Z</time>
      </trkpt>
      <trkpt lat="-2.729525" lon="-78.826401">
        <ele>2750.00</ele>
        <time>2018-09-08T19:36:24Z</time>
      </trkpt>
      <trkpt lat="-2.729528" lon="-78.826401">
        <ele>2750.00</ele>
        <time>2018-09-08T19:36:25Z</time>
      </trkpt>
      <trkpt lat="-2.729533" lon="-78.826408">
        <ele>2750.00</ele>
        <time>2018-09-08T19:36:26Z</time>
      </trkpt>
      <trkpt lat="-2.729540" lon="-78.826408">
        <ele>2750.00</ele>
        <time>2018-09-08T19:36:27Z</time>
      </trkpt>
      <trkpt lat="-2.729550" lon="-78.826408">
        <ele>2750.00</ele>
        <time>2018-09-08T19:36:28Z</time>
      </trkpt>
      <trkpt lat="-2.729556" lon="-78.826408">
        <ele>2750.00</ele>
        <time>2018-09-08T19:36:29Z</time>
      </trkpt>
      <trkpt lat="-2.729554" lon="-78.826408">
        <ele>2750.00</ele>
        <time>2018-09-08T19:36:30Z</time>
      </trkpt>
      <trkpt lat="-2.729558" lon="-78.826416">
        <ele>2750.00</ele>
        <time>2018-09-08T19:36:31Z</time>
      </trkpt>
      <trkpt lat="-2.729569" lon="-78.826416">
        <ele>2750.00</ele>
        <time>2018-09-08T19:36:32Z</time>
      </trkpt>
      <trkpt lat="-2.729583" lon="-78.826416">
        <ele>2750.00</ele>
        <time>2018-09-08T19:36:33Z</time>
      </trkpt>
      <trkpt lat="-2.729597" lon="-78.826424">
        <ele>2750.00</ele>
        <time>2018-09-08T19:36:34Z</time>
      </trkpt>
      <trkpt lat="-2.729608" lon="-78.826424">
        <ele>2750.00</ele>
        <time>2018-09-08T19:36:35Z</time>
      </trkpt>
      <trkpt lat="-2.729616" lon="-78.826439">
        <ele>2750.00</ele>
        <time>2018-09-08T19:36:36Z</time>
      </trkpt>
      <trkpt lat="-2.729623" lon="-78.826439">
        <ele>2750.00</ele>
        <time>2018-09-08T19:36:37Z</time>
      </trkpt>
      <trkpt lat="-2.729612" lon="-78.826439">
        <ele>2750.00</ele>
        <time>2018-09-08T19:36:38Z</time>
      </trkpt>
      <trkpt lat="-2.729613" lon="-78.826439">
        <ele>2750.00</ele>
        <time>2018-09-08T19:36:39Z</time>
      </trkpt>
      <trkpt lat="-2.729612" lon="-78.826439">
        <ele>2750.00</ele>
        <time>2018-09-08T19:36:40Z</time>
      </trkpt>
      <trkpt lat="-2.729606" lon="-78.826424">
        <ele>2750.00</ele>
        <time>2018-09-08T19:36:41Z</time>
      </trkpt>
      <trkpt lat="-2.729592" lon="-78.826424">
        <ele>2750.00</ele>
        <time>2018-09-08T19:36:42Z</time>
      </trkpt>
      <trkpt lat="-2.729579" lon="-78.826424">
        <ele>2750.00</ele>
        <time>2018-09-08T19:36:43Z</time>
      </trkpt>
      <trkpt lat="-2.729572" lon="-78.826424">
        <ele>2750.00</ele>
        <time>2018-09-08T19:36:44Z</time>
      </trkpt>
      <trkpt lat="-2.729558" lon="-78.826416">
        <ele>2750.00</ele>
        <time>2018-09-08T19:36:45Z</time>
      </trkpt>
      <trkpt lat="-2.729547" lon="-78.826416">
        <ele>2750.00</ele>
        <time>2018-09-08T19:36:46Z</time>
      </trkpt>
      <trkpt lat="-2.729537" lon="-78.826408">
        <ele>2750.00</ele>
        <time>2018-09-08T19:36:47Z</time>
      </trkpt>
      <trkpt lat="-2.729531" lon="-78.826401">
        <ele>2750.00</ele>
        <time>2018-09-08T19:36:48Z</time>
      </trkpt>
      <trkpt lat="-2.729527" lon="-78.826393">
        <ele>2750.00</ele>
        <time>2018-09-08T19:36:49Z</time>
      </trkpt>
      <trkpt lat="-2.729526" lon="-78.826385">
        <ele>2750.00</ele>
        <time>2018-09-08T19:36:50Z</time>
      </trkpt>
      <trkpt lat="-2.729523" lon="-78.826385">
        <ele>2750.00</ele>
        <time>2018-09-08T19:36:51Z</time>
      </trkpt>
      <trkpt lat="-2.729521" lon="-78.826385">
        <ele>2750.00</ele>
        <time>2018-09-08T19:36:52Z</time>
      </trkpt>
      <trkpt lat="-2.729518" lon="-78.826385">
        <ele>2750.00</ele>
        <time>2018-09-08T19:36:53Z</time>
      </trkpt>
      <trkpt lat="-2.729519" lon="-78.826385">
        <ele>2750.00</ele>
        <time>2018-09-08T19:36:54Z</time>
      </trkpt>
      <trkpt lat="-2.729520" lon="-78.826385">
        <ele>2750.00</ele>
        <time>2018-09-08T19:36:55Z</time>
      </trkpt>
      <trkpt lat="-2.729520" lon="-78.826385">
        <ele>2750.00</ele>
        <time>2018-09-08T19:36:56Z</time>
      </trkpt>
      <trkpt lat="-2.729520" lon="-78.826385">
        <ele>2750.00</ele>
        <time>2018-09-08T19:36:57Z</time>
      </trkpt>
      <trkpt lat="-2.729521" lon="-78.826385">
        <ele>2750.00</ele>
        <time>2018-09-08T19:36:58Z</time>
      </trkpt>
      <trkpt lat="-2.729521" lon="-78.826385">
        <ele>2750.00</ele>
        <time>2018-09-08T19:36:59Z</time>
      </trkpt>
      <trkpt lat="-2.729521" lon="-78.826385">
        <ele>2750.00</ele>
        <time>2018-09-08T19:37:00Z</time>
      </trkpt>
      <trkpt lat="-2.729521" lon="-78.826385">
        <ele>2750.00</ele>
        <time>2018-09-08T19:37:01Z</time>
      </trkpt>
      <trkpt lat="-2.729521" lon="-78.826385">
        <ele>2750.00</ele>
        <time>2018-09-08T19:37:02Z</time>
      </trkpt>
      <trkpt lat="-2.729520" lon="-78.826385">
        <ele>2750.00</ele>
        <time>2018-09-08T19:37:03Z</time>
      </trkpt>
      <trkpt lat="-2.729520" lon="-78.826385">
        <ele>2750.00</ele>
        <time>2018-09-08T19:37:04Z</time>
      </trkpt>
      <trkpt lat="-2.729521" lon="-78.826385">
        <ele>2750.00</ele>
        <time>2018-09-08T19:37:05Z</time>
      </trkpt>
      <trkpt lat="-2.729521" lon="-78.826385">
        <ele>2750.00</ele>
        <time>2018-09-08T19:37:06Z</time>
      </trkpt>
      <trkpt lat="-2.729521" lon="-78.826385">
        <ele>2750.00</ele>
        <time>2018-09-08T19:37:07Z</time>
      </trkpt>
      <trkpt lat="-2.729521" lon="-78.826385">
        <ele>2750.00</ele>
        <time>2018-09-08T19:37:08Z</time>
      </trkpt>
      <trkpt lat="-2.729521" lon="-78.826385">
        <ele>2750.00</ele>
        <time>2018-09-08T19:37:09Z</time>
      </trkpt>
      <trkpt lat="-2.729521" lon="-78.826385">
        <ele>2750.00</ele>
        <time>2018-09-08T19:37:10Z</time>
      </trkpt>
      <trkpt lat="-2.729521" lon="-78.826385">
        <ele>2750.00</ele>
        <time>2018-09-08T19:37:11Z</time>
      </trkpt>
      <trkpt lat="-2.729521" lon="-78.826385">
        <ele>2750.00</ele>
        <time>2018-09-08T19:37:12Z</time>
      </trkpt>
      <trkpt lat="-2.729522" lon="-78.826370">
        <ele>2750.00</ele>
        <time>2018-09-08T19:37:13Z</time>
      </trkpt>
      <trkpt lat="-2.729522" lon="-78.826370">
        <ele>2750.00</ele>
        <time>2018-09-08T19:37:14Z</time>
      </trkpt>
      <trkpt lat="-2.729522" lon="-78.826370">
        <ele>2750.00</ele>
        <time>2018-09-08T19:37:15Z</time>
      </trkpt>
      <trkpt lat="-2.729522" lon="-78.826370">
        <ele>2750.00</ele>
        <time>2018-09-08T19:37:16Z</time>
      </trkpt>
      <trkpt lat="-2.729522" lon="-78.826370">
        <ele>2750.00</ele>
        <time>2018-09-08T19:37:17Z</time>
      </trkpt>
      <trkpt lat="-2.729522" lon="-78.826370">
        <ele>2750.00</ele>
        <time>2018-09-08T19:37:18Z</time>
      </trkpt>
      <trkpt lat="-2.729523" lon="-78.826370">
        <ele>2750.00</ele>
        <time>2018-09-08T19:37:19Z</time>
      </trkpt>
      <trkpt lat="-2.729527" lon="-78.826385">
        <ele>2750.00</ele>
        <time>2018-09-08T19:37:20Z</time>
      </trkpt>
      <trkpt lat="-2.729526" lon="-78.826385">
        <ele>2750.00</ele>
        <time>2018-09-08T19:37:21Z</time>
      </trkpt>
      <trkpt lat="-2.729526" lon="-78.826385">
        <ele>2750.00</ele>
        <time>2018-09-08T19:37:22Z</time>
      </trkpt>
      <trkpt lat="-2.729526" lon="-78.826385">
        <ele>2750.00</ele>
        <time>2018-09-08T19:37:23Z</time>
      </trkpt>
      <trkpt lat="-2.729526" lon="-78.826385">
        <ele>2750.00</ele>
        <time>2018-09-08T19:37:24Z</time>
      </trkpt>
      <trkpt lat="-2.729526" lon="-78.826385">
        <ele>2750.00</ele>
        <time>2018-09-08T19:37:25Z</time>
      </trkpt>
      <trkpt lat="-2.729526" lon="-78.826385">
        <ele>2750.00</ele>
        <time>2018-09-08T19:37:26Z</time>
      </trkpt>
      <trkpt lat="-2.729526" lon="-78.826385">
        <ele>2750.00</ele>
        <time>2018-09-08T19:37:27Z</time>
      </trkpt>
      <trkpt lat="-2.729527" lon="-78.826385">
        <ele>2750.00</ele>
        <time>2018-09-08T19:37:28Z</time>
      </trkpt>
      <trkpt lat="-2.729527" lon="-78.826385">
        <ele>2750.00</ele>
        <time>2018-09-08T19:37:29Z</time>
      </trkpt>
      <trkpt lat="-2.729527" lon="-78.826385">
        <ele>2750.00</ele>
        <time>2018-09-08T19:37:30Z</time>
      </trkpt>
      <trkpt lat="-2.729526" lon="-78.826385">
        <ele>2750.00</ele>
        <time>2018-09-08T19:37:31Z</time>
      </trkpt>
      <trkpt lat="-2.729527" lon="-78.826385">
        <ele>2750.00</ele>
        <time>2018-09-08T19:37:32Z</time>
      </trkpt>
      <trkpt lat="-2.729527" lon="-78.826385">
        <ele>2750.00</ele>
        <time>2018-09-08T19:37:33Z</time>
      </trkpt>
      <trkpt lat="-2.729527" lon="-78.826370">
        <ele>2750.00</ele>
        <time>2018-09-08T19:37:34Z</time>
      </trkpt>
      <trkpt lat="-2.729527" lon="-78.826370">
        <ele>2750.00</ele>
        <time>2018-09-08T19:37:35Z</time>
      </trkpt>
      <trkpt lat="-2.729528" lon="-78.826370">
        <ele>2750.00</ele>
        <time>2018-09-08T19:37:36Z</time>
      </trkpt>
      <trkpt lat="-2.729527" lon="-78.826370">
        <ele>2750.00</ele>
        <time>2018-09-08T19:37:37Z</time>
      </trkpt>
      <trkpt lat="-2.729528" lon="-78.826370">
        <ele>2750.00</ele>
        <time>2018-09-08T19:37:38Z</time>
      </trkpt>
      <trkpt lat="-2.729528" lon="-78.826370">
        <ele>2750.00</ele>
        <time>2018-09-08T19:37:39Z</time>
      </trkpt>
      <trkpt lat="-2.729528" lon="-78.826370">
        <ele>2750.00</ele>
        <time>2018-09-08T19:37:40Z</time>
      </trkpt>
      <trkpt lat="-2.729528" lon="-78.826370">
        <ele>2750.00</ele>
        <time>2018-09-08T19:37:41Z</time>
      </trkpt>
      <trkpt lat="-2.729528" lon="-78.826370">
        <ele>2750.00</ele>
        <time>2018-09-08T19:37:42Z</time>
      </trkpt>
      <trkpt lat="-2.729528" lon="-78.826370">
        <ele>2750.00</ele>
        <time>2018-09-08T19:37:43Z</time>
      </trkpt>
      <trkpt lat="-2.729528" lon="-78.826370">
        <ele>2750.00</ele>
        <time>2018-09-08T19:37:44Z</time>
      </trkpt>
      <trkpt lat="-2.729528" lon="-78.826370">
        <ele>2750.00</ele>
        <time>2018-09-08T19:37:45Z</time>
      </trkpt>
      <trkpt lat="-2.729528" lon="-78.826370">
        <ele>2750.00</ele>
        <time>2018-09-08T19:37:46Z</time>
      </trkpt>
      <trkpt lat="-2.729528" lon="-78.826370">
        <ele>2750.00</ele>
        <time>2018-09-08T19:37:47Z</time>
      </trkpt>
      <trkpt lat="-2.729529" lon="-78.826370">
        <ele>2750.00</ele>
        <time>2018-09-08T19:37:48Z</time>
      </trkpt>
      <trkpt lat="-2.729529" lon="-78.826370">
        <ele>2750.00</ele>
        <time>2018-09-08T19:37:49Z</time>
      </trkpt>
      <trkpt lat="-2.729529" lon="-78.826370">
        <ele>2750.00</ele>
        <time>2018-09-08T19:37:50Z</time>
      </trkpt>
      <trkpt lat="-2.729530" lon="-78.826370">
        <ele>2750.00</ele>
        <time>2018-09-08T19:37:51Z</time>
      </trkpt>
      <trkpt lat="-2.729530" lon="-78.826370">
        <ele>2750.00</ele>
        <time>2018-09-08T19:37:52Z</time>
      </trkpt>
      <trkpt lat="-2.729530" lon="-78.826370">
        <ele>2750.00</ele>
        <time>2018-09-08T19:37:53Z</time>
      </trkpt>
      <trkpt lat="-2.729529" lon="-78.826370">
        <ele>2750.00</ele>
        <time>2018-09-08T19:37:54Z</time>
      </trkpt>
      <trkpt lat="-2.729529" lon="-78.826370">
        <ele>2750.00</ele>
        <time>2018-09-08T19:37:55Z</time>
      </trkpt>
      <trkpt lat="-2.729529" lon="-78.826370">
        <ele>2750.00</ele>
        <time>2018-09-08T19:37:56Z</time>
      </trkpt>
      <trkpt lat="-2.729529" lon="-78.826370">
        <ele>2750.00</ele>
        <time>2018-09-08T19:37:57Z</time>
      </trkpt>
      <trkpt lat="-2.729529" lon="-78.826370">
        <ele>2750.00</ele>
        <time>2018-09-08T19:37:58Z</time>
      </trkpt>
      <trkpt lat="-2.729530" lon="-78.826370">
        <ele>2750.00</ele>
        <time>2018-09-08T19:37:59Z</time>
      </trkpt>
      <trkpt lat="-2.729530" lon="-78.826370">
        <ele>2750.00</ele>
        <time>2018-09-08T19:38:00Z</time>
      </trkpt>
      <trkpt lat="-2.729530" lon="-78.826370">
        <ele>2750.00</ele>
        <time>2018-09-08T19:38:01Z</time>
      </trkpt>
      <trkpt lat="-2.729531" lon="-78.826370">
        <ele>2750.00</ele>
        <time>2018-09-08T19:38:02Z</time>
      </trkpt>
      <trkpt lat="-2.729531" lon="-78.826370">
        <ele>2750.00</ele>
        <time>2018-09-08T19:38:03Z</time>
      </trkpt>
      <trkpt lat="-2.729531" lon="-78.826370">
        <ele>2750.00</ele>
        <time>2018-09-08T19:38:04Z</time>
      </trkpt>
      <trkpt lat="-2.729531" lon="-78.826370">
        <ele>2750.00</ele>
        <time>2018-09-08T19:38:05Z</time>
      </trkpt>
      <trkpt lat="-2.729531" lon="-78.826370">
        <ele>2750.00</ele>
        <time>2018-09-08T19:38:06Z</time>
      </trkpt>
      <trkpt lat="-2.729531" lon="-78.826370">
        <ele>2750.00</ele>
        <time>2018-09-08T19:38:07Z</time>
      </trkpt>
      <trkpt lat="-2.729531" lon="-78.826370">
        <ele>2750.00</ele>
        <time>2018-09-08T19:38:08Z</time>
      </trkpt>
      <trkpt lat="-2.729532" lon="-78.826370">
        <ele>2750.00</ele>
        <time>2018-09-08T19:38:09Z</time>
      </trkpt>
      <trkpt lat="-2.729532" lon="-78.826370">
        <ele>2750.00</ele>
        <time>2018-09-08T19:38:10Z</time>
      </trkpt>
      <trkpt lat="-2.729532" lon="-78.826370">
        <ele>2750.00</ele>
        <time>2018-09-08T19:38:11Z</time>
      </trkpt>
      <trkpt lat="-2.729532" lon="-78.826370">
        <ele>2750.00</ele>
        <time>2018-09-08T19:38:12Z</time>
      </trkpt>
      <trkpt lat="-2.729532" lon="-78.826370">
        <ele>2750.00</ele>
        <time>2018-09-08T19:38:13Z</time>
      </trkpt>
      <trkpt lat="-2.729532" lon="-78.826385">
        <ele>2750.00</ele>
        <time>2018-09-08T19:38:14Z</time>
      </trkpt>
      <trkpt lat="-2.729532" lon="-78.826385">
        <ele>2750.00</ele>
        <time>2018-09-08T19:38:15Z</time>
      </trkpt>
      <trkpt lat="-2.729532" lon="-78.826385">
        <ele>2750.00</ele>
        <time>2018-09-08T19:38:16Z</time>
      </trkpt>
      <trkpt lat="-2.729532" lon="-78.826385">
        <ele>2750.00</ele>
        <time>2018-09-08T19:38:17Z</time>
      </trkpt>
      <trkpt lat="-2.729532" lon="-78.826385">
        <ele>2750.00</ele>
        <time>2018-09-08T19:38:18Z</time>
      </trkpt>
      <trkpt lat="-2.729532" lon="-78.826385">
        <ele>2750.00</ele>
        <time>2018-09-08T19:38:19Z</time>
      </trkpt>
      <trkpt lat="-2.729532" lon="-78.826385">
        <ele>2750.00</ele>
        <time>2018-09-08T19:38:20Z</time>
      </trkpt>
      <trkpt lat="-2.729532" lon="-78.826385">
        <ele>2750.00</ele>
        <time>2018-09-08T19:38:21Z</time>
      </trkpt>
      <trkpt lat="-2.729533" lon="-78.826385">
        <ele>2750.00</ele>
        <time>2018-09-08T19:38:22Z</time>
      </trkpt>
      <trkpt lat="-2.729533" lon="-78.826385">
        <ele>2750.00</ele>
        <time>2018-09-08T19:38:23Z</time>
      </trkpt>
      <trkpt lat="-2.729533" lon="-78.826385">
        <ele>2750.00</ele>
        <time>2018-09-08T19:38:24Z</time>
      </trkpt>
      <trkpt lat="-2.729533" lon="-78.826385">
        <ele>2750.00</ele>
        <time>2018-09-08T19:38:25Z</time>
      </trkpt>
      <trkpt lat="-2.729533" lon="-78.826385">
        <ele>2750.00</ele>
        <time>2018-09-08T19:38:26Z</time>
      </trkpt>
      <trkpt lat="-2.729533" lon="-78.826385">
        <ele>2750.00</ele>
        <time>2018-09-08T19:38:27Z</time>
      </trkpt>
      <trkpt lat="-2.729533" lon="-78.826385">
        <ele>2750.00</ele>
        <time>2018-09-08T19:38:28Z</time>
      </trkpt>
      <trkpt lat="-2.729533" lon="-78.826385">
        <ele>2750.00</ele>
        <time>2018-09-08T19:38:29Z</time>
      </trkpt>
      <trkpt lat="-2.729532" lon="-78.826385">
        <ele>2750.00</ele>
        <time>2018-09-08T19:38:30Z</time>
      </trkpt>
      <trkpt lat="-2.729532" lon="-78.826385">
        <ele>2750.00</ele>
        <time>2018-09-08T19:38:31Z</time>
      </trkpt>
      <trkpt lat="-2.729532" lon="-78.826385">
        <ele>2750.00</ele>
        <time>2018-09-08T19:38:32Z</time>
      </trkpt>
      <trkpt lat="-2.729532" lon="-78.826385">
        <ele>2750.00</ele>
        <time>2018-09-08T19:38:33Z</time>
      </trkpt>
      <trkpt lat="-2.729532" lon="-78.826385">
        <ele>2750.00</ele>
        <time>2018-09-08T19:38:34Z</time>
      </trkpt>
      <trkpt lat="-2.729532" lon="-78.826385">
        <ele>2750.00</ele>
        <time>2018-09-08T19:38:35Z</time>
      </trkpt>
      <trkpt lat="-2.729532" lon="-78.826385">
        <ele>2750.00</ele>
        <time>2018-09-08T19:38:36Z</time>
      </trkpt>
      <trkpt lat="-2.729532" lon="-78.826385">
        <ele>2750.00</ele>
        <time>2018-09-08T19:38:37Z</time>
      </trkpt>
      <trkpt lat="-2.729532" lon="-78.826385">
        <ele>2750.00</ele>
        <time>2018-09-08T19:38:38Z</time>
      </trkpt>
      <trkpt lat="-2.729532" lon="-78.826385">
        <ele>2750.00</ele>
        <time>2018-09-08T19:38:39Z</time>
      </trkpt>
      <trkpt lat="-2.729533" lon="-78.826385">
        <ele>2750.00</ele>
        <time>2018-09-08T19:38:40Z</time>
      </trkpt>
      <trkpt lat="-2.729533" lon="-78.826385">
        <ele>2750.00</ele>
        <time>2018-09-08T19:38:41Z</time>
      </trkpt>
      <trkpt lat="-2.729533" lon="-78.826385">
        <ele>2750.00</ele>
        <time>2018-09-08T19:38:42Z</time>
      </trkpt>
      <trkpt lat="-2.729533" lon="-78.826385">
        <ele>2750.00</ele>
        <time>2018-09-08T19:38:43Z</time>
      </trkpt>
      <trkpt lat="-2.729533" lon="-78.826385">
        <ele>2750.00</ele>
        <time>2018-09-08T19:38:44Z</time>
      </trkpt>
      <trkpt lat="-2.729533" lon="-78.826385">
        <ele>2750.00</ele>
        <time>2018-09-08T19:38:45Z</time>
      </trkpt>
      <trkpt lat="-2.729533" lon="-78.826385">
        <ele>2750.00</ele>
        <time>2018-09-08T19:38:46Z</time>
      </trkpt>
      <trkpt lat="-2.729533" lon="-78.826385">
        <ele>2750.00</ele>
        <time>2018-09-08T19:38:47Z</time>
      </trkpt>
      <trkpt lat="-2.729534" lon="-78.826385">
        <ele>2750.00</ele>
        <time>2018-09-08T19:38:48Z</time>
      </trkpt>
      <trkpt lat="-2.729534" lon="-78.826385">
        <ele>2750.00</ele>
        <time>2018-09-08T19:38:49Z</time>
      </trkpt>
      <trkpt lat="-2.729534" lon="-78.826385">
        <ele>2750.00</ele>
        <time>2018-09-08T19:38:50Z</time>
      </trkpt>
      <trkpt lat="-2.729534" lon="-78.826385">
        <ele>2750.00</ele>
        <time>2018-09-08T19:38:51Z</time>
      </trkpt>
      <trkpt lat="-2.729534" lon="-78.826385">
        <ele>2750.00</ele>
        <time>2018-09-08T19:38:52Z</time>
      </trkpt>
      <trkpt lat="-2.729533" lon="-78.826385">
        <ele>2750.00</ele>
        <time>2018-09-08T19:38:53Z</time>
      </trkpt>
      <trkpt lat="-2.729533" lon="-78.826385">
        <ele>2750.00</ele>
        <time>2018-09-08T19:38:54Z</time>
      </trkpt>
      <trkpt lat="-2.729533" lon="-78.826385">
        <ele>2750.00</ele>
        <time>2018-09-08T19:38:55Z</time>
      </trkpt>
      <trkpt lat="-2.729533" lon="-78.826385">
        <ele>2750.00</ele>
        <time>2018-09-08T19:38:56Z</time>
      </trkpt>
      <trkpt lat="-2.729533" lon="-78.826385">
        <ele>2750.00</ele>
        <time>2018-09-08T19:38:57Z</time>
      </trkpt>
      <trkpt lat="-2.729534" lon="-78.826385">
        <ele>2750.00</ele>
        <time>2018-09-08T19:38:58Z</time>
      </trkpt>
      <trkpt lat="-2.729534" lon="-78.826385">
        <ele>2750.00</ele>
        <time>2018-09-08T19:38:59Z</time>
      </trkpt>
      <trkpt lat="-2.729533" lon="-78.826385">
        <ele>2750.00</ele>
        <time>2018-09-08T19:39:00Z</time>
      </trkpt>
      <trkpt lat="-2.729533" lon="-78.826385">
        <ele>2750.00</ele>
        <time>2018-09-08T19:39:01Z</time>
      </trkpt>
      <trkpt lat="-2.729533" lon="-78.826385">
        <ele>2750.00</ele>
        <time>2018-09-08T19:39:02Z</time>
      </trkpt>
      <trkpt lat="-2.729533" lon="-78.826385">
        <ele>2750.00</ele>
        <time>2018-09-08T19:39:03Z</time>
      </trkpt>
      <trkpt lat="-2.729533" lon="-78.826385">
        <ele>2750.00</ele>
        <time>2018-09-08T19:39:04Z</time>
      </trkpt>
      <trkpt lat="-2.729533" lon="-78.826385">
        <ele>2750.00</ele>
        <time>2018-09-08T19:39:05Z</time>
      </trkpt>
      <trkpt lat="-2.729533" lon="-78.826385">
        <ele>2750.00</ele>
        <time>2018-09-08T19:39:06Z</time>
      </trkpt>
      <trkpt lat="-2.729534" lon="-78.826385">
        <ele>2750.00</ele>
        <time>2018-09-08T19:39:07Z</time>
      </trkpt>
      <trkpt lat="-2.729534" lon="-78.826385">
        <ele>2750.00</ele>
        <time>2018-09-08T19:39:08Z</time>
      </trkpt>
      <trkpt lat="-2.729534" lon="-78.826385">
        <ele>2750.00</ele>
        <time>2018-09-08T19:39:09Z</time>
      </trkpt>
      <trkpt lat="-2.729534" lon="-78.826385">
        <ele>2750.00</ele>
        <time>2018-09-08T19:39:10Z</time>
      </trkpt>
      <trkpt lat="-2.729534" lon="-78.826385">
        <ele>2750.00</ele>
        <time>2018-09-08T19:39:11Z</time>
      </trkpt>
      <trkpt lat="-2.729534" lon="-78.826385">
        <ele>2750.00</ele>
        <time>2018-09-08T19:39:12Z</time>
      </trkpt>
      <trkpt lat="-2.729534" lon="-78.826385">
        <ele>2750.00</ele>
        <time>2018-09-08T19:39:13Z</time>
      </trkpt>
      <trkpt lat="-2.729534" lon="-78.826385">
        <ele>2750.00</ele>
        <time>2018-09-08T19:39:14Z</time>
      </trkpt>
      <trkpt lat="-2.729534" lon="-78.826385">
        <ele>2750.00</ele>
        <time>2018-09-08T19:39:15Z</time>
      </trkpt>
      <trkpt lat="-2.729533" lon="-78.826385">
        <ele>2750.00</ele>
        <time>2018-09-08T19:39:16Z</time>
      </trkpt>
      <trkpt lat="-2.729533" lon="-78.826385">
        <ele>2750.00</ele>
        <time>2018-09-08T19:39:17Z</time>
      </trkpt>
      <trkpt lat="-2.729533" lon="-78.826385">
        <ele>2750.00</ele>
        <time>2018-09-08T19:39:18Z</time>
      </trkpt>
      <trkpt lat="-2.729533" lon="-78.826385">
        <ele>2750.00</ele>
        <time>2018-09-08T19:39:19Z</time>
      </trkpt>
      <trkpt lat="-2.729533" lon="-78.826385">
        <ele>2750.00</ele>
        <time>2018-09-08T19:39:20Z</time>
      </trkpt>
      <trkpt lat="-2.729533" lon="-78.826385">
        <ele>2750.00</ele>
        <time>2018-09-08T19:39:21Z</time>
      </trkpt>
      <trkpt lat="-2.729533" lon="-78.826385">
        <ele>2750.00</ele>
        <time>2018-09-08T19:39:22Z</time>
      </trkpt>
      <trkpt lat="-2.729533" lon="-78.826385">
        <ele>2750.00</ele>
        <time>2018-09-08T19:39:23Z</time>
      </trkpt>
      <trkpt lat="-2.729533" lon="-78.826385">
        <ele>2750.00</ele>
        <time>2018-09-08T19:39:24Z</time>
      </trkpt>
      <trkpt lat="-2.729533" lon="-78.826385">
        <ele>2750.00</ele>
        <time>2018-09-08T19:39:25Z</time>
      </trkpt>
      <trkpt lat="-2.729533" lon="-78.826385">
        <ele>2750.00</ele>
        <time>2018-09-08T19:39:26Z</time>
      </trkpt>
      <trkpt lat="-2.729533" lon="-78.826385">
        <ele>2750.00</ele>
        <time>2018-09-08T19:39:27Z</time>
      </trkpt>
      <trkpt lat="-2.729534" lon="-78.826370">
        <ele>2750.00</ele>
        <time>2018-09-08T19:39:28Z</time>
      </trkpt>
      <trkpt lat="-2.729534" lon="-78.826370">
        <ele>2750.00</ele>
        <time>2018-09-08T19:39:29Z</time>
      </trkpt>
      <trkpt lat="-2.729534" lon="-78.826370">
        <ele>2750.00</ele>
        <time>2018-09-08T19:39:30Z</time>
      </trkpt>
      <trkpt lat="-2.729533" lon="-78.826370">
        <ele>2750.00</ele>
        <time>2018-09-08T19:39:31Z</time>
      </trkpt>
      <trkpt lat="-2.729533" lon="-78.826370">
        <ele>2750.00</ele>
        <time>2018-09-08T19:39:32Z</time>
      </trkpt>
      <trkpt lat="-2.729533" lon="-78.826370">
        <ele>2750.00</ele>
        <time>2018-09-08T19:39:33Z</time>
      </trkpt>
      <trkpt lat="-2.729533" lon="-78.826370">
        <ele>2750.00</ele>
        <time>2018-09-08T19:39:34Z</time>
      </trkpt>
      <trkpt lat="-2.729533" lon="-78.826370">
        <ele>2750.00</ele>
        <time>2018-09-08T19:39:35Z</time>
      </trkpt>
      <trkpt lat="-2.729533" lon="-78.826370">
        <ele>2750.00</ele>
        <time>2018-09-08T19:39:36Z</time>
      </trkpt>
      <trkpt lat="-2.729533" lon="-78.826370">
        <ele>2750.00</ele>
        <time>2018-09-08T19:39:37Z</time>
      </trkpt>
      <trkpt lat="-2.729534" lon="-78.826370">
        <ele>2750.00</ele>
        <time>2018-09-08T19:39:38Z</time>
      </trkpt>
      <trkpt lat="-2.729533" lon="-78.826370">
        <ele>2750.00</ele>
        <time>2018-09-08T19:39:39Z</time>
      </trkpt>
      <trkpt lat="-2.729533" lon="-78.826370">
        <ele>2750.00</ele>
        <time>2018-09-08T19:39:40Z</time>
      </trkpt>
      <trkpt lat="-2.729533" lon="-78.826370">
        <ele>2750.00</ele>
        <time>2018-09-08T19:39:41Z</time>
      </trkpt>
      <trkpt lat="-2.729533" lon="-78.826370">
        <ele>2750.00</ele>
        <time>2018-09-08T19:39:42Z</time>
      </trkpt>
      <trkpt lat="-2.729534" lon="-78.826370">
        <ele>2750.00</ele>
        <time>2018-09-08T19:39:43Z</time>
      </trkpt>
      <trkpt lat="-2.729534" lon="-78.826370">
        <ele>2750.00</ele>
        <time>2018-09-08T19:39:44Z</time>
      </trkpt>
      <trkpt lat="-2.729534" lon="-78.826370">
        <ele>2750.00</ele>
        <time>2018-09-08T19:39:45Z</time>
      </trkpt>
      <trkpt lat="-2.729534" lon="-78.826370">
        <ele>2750.00</ele>
        <time>2018-09-08T19:39:46Z</time>
      </trkpt>
      <trkpt lat="-2.729534" lon="-78.826370">
        <ele>2750.00</ele>
        <time>2018-09-08T19:39:47Z</time>
      </trkpt>
      <trkpt lat="-2.729534" lon="-78.826370">
        <ele>2750.00</ele>
        <time>2018-09-08T19:39:48Z</time>
      </trkpt>
      <trkpt lat="-2.729534" lon="-78.826370">
        <ele>2750.00</ele>
        <time>2018-09-08T19:39:49Z</time>
      </trkpt>
      <trkpt lat="-2.729534" lon="-78.826370">
        <ele>2750.00</ele>
        <time>2018-09-08T19:39:50Z</time>
      </trkpt>
      <trkpt lat="-2.729535" lon="-78.826370">
        <ele>2750.00</ele>
        <time>2018-09-08T19:39:51Z</time>
      </trkpt>
      <trkpt lat="-2.729535" lon="-78.826370">
        <ele>2750.00</ele>
        <time>2018-09-08T19:39:52Z</time>
      </trkpt>
      <trkpt lat="-2.729535" lon="-78.826370">
        <ele>2750.00</ele>
        <time>2018-09-08T19:39:53Z</time>
      </trkpt>
      <trkpt lat="-2.729535" lon="-78.826370">
        <ele>2750.00</ele>
        <time>2018-09-08T19:39:54Z</time>
      </trkpt>
      <trkpt lat="-2.729535" lon="-78.826370">
        <ele>2750.00</ele>
        <time>2018-09-08T19:39:55Z</time>
      </trkpt>
      <trkpt lat="-2.729536" lon="-78.826370">
        <ele>2750.00</ele>
        <time>2018-09-08T19:39:56Z</time>
      </trkpt>
      <trkpt lat="-2.729536" lon="-78.826370">
        <ele>2750.00</ele>
        <time>2018-09-08T19:39:57Z</time>
      </trkpt>
      <trkpt lat="-2.729536" lon="-78.826370">
        <ele>2750.00</ele>
        <time>2018-09-08T19:39:58Z</time>
      </trkpt>
      <trkpt lat="-2.729535" lon="-78.826370">
        <ele>2750.00</ele>
        <time>2018-09-08T19:39:59Z</time>
      </trkpt>
      <trkpt lat="-2.729535" lon="-78.826370">
        <ele>2750.00</ele>
        <time>2018-09-08T19:40:00Z</time>
      </trkpt>
      <trkpt lat="-2.729540" lon="-78.826370">
        <ele>2750.00</ele>
        <time>2018-09-08T19:40:01Z</time>
      </trkpt>
      <trkpt lat="-2.729550" lon="-78.826385">
        <ele>2750.00</ele>
        <time>2018-09-08T19:40:02Z</time>
      </trkpt>
      <trkpt lat="-2.729566" lon="-78.826393">
        <ele>2750.00</ele>
        <time>2018-09-08T19:40:03Z</time>
      </trkpt>
      <trkpt lat="-2.729581" lon="-78.826401">
        <ele>2750.00</ele>
        <time>2018-09-08T19:40:04Z</time>
      </trkpt>
      <trkpt lat="-2.729601" lon="-78.826408">
        <ele>2750.00</ele>
        <time>2018-09-08T19:40:05Z</time>
      </trkpt>
      <trkpt lat="-2.729618" lon="-78.826416">
        <ele>2750.00</ele>
        <time>2018-09-08T19:40:06Z</time>
      </trkpt>
      <trkpt lat="-2.729634" lon="-78.826424">
        <ele>2750.00</ele>
        <time>2018-09-08T19:40:07Z</time>
      </trkpt>
      <trkpt lat="-2.729646" lon="-78.826424">
        <ele>2750.00</ele>
        <time>2018-09-08T19:40:08Z</time>
      </trkpt>
      <trkpt lat="-2.729657" lon="-78.826439">
        <ele>2750.00</ele>
        <time>2018-09-08T19:40:09Z</time>
      </trkpt>
      <trkpt lat="-2.729667" lon="-78.826447">
        <ele>2750.00</ele>
        <time>2018-09-08T19:40:10Z</time>
      </trkpt>
      <trkpt lat="-2.729677" lon="-78.826454">
        <ele>2750.00</ele>
        <time>2018-09-08T19:40:11Z</time>
      </trkpt>
      <trkpt lat="-2.729688" lon="-78.826462">
        <ele>2750.00</ele>
        <time>2018-09-08T19:40:12Z</time>
      </trkpt>
      <trkpt lat="-2.729695" lon="-78.826462">
        <ele>2750.00</ele>
        <time>2018-09-08T19:40:13Z</time>
      </trkpt>
      <trkpt lat="-2.729703" lon="-78.826469">
        <ele>2750.00</ele>
        <time>2018-09-08T19:40:14Z</time>
      </trkpt>
      <trkpt lat="-2.729709" lon="-78.826469">
        <ele>2750.00</ele>
        <time>2018-09-08T19:40:15Z</time>
      </trkpt>
      <trkpt lat="-2.729714" lon="-78.826477">
        <ele>2750.00</ele>
        <time>2018-09-08T19:40:16Z</time>
      </trkpt>
      <trkpt lat="-2.729719" lon="-78.826477">
        <ele>2750.00</ele>
        <time>2018-09-08T19:40:17Z</time>
      </trkpt>
      <trkpt lat="-2.729722" lon="-78.826492">
        <ele>2750.00</ele>
        <time>2018-09-08T19:40:18Z</time>
      </trkpt>
      <trkpt lat="-2.729728" lon="-78.826500">
        <ele>2750.00</ele>
        <time>2018-09-08T19:40:19Z</time>
      </trkpt>
      <trkpt lat="-2.729731" lon="-78.826500">
        <ele>2750.00</ele>
        <time>2018-09-08T19:40:20Z</time>
      </trkpt>
      <trkpt lat="-2.729731" lon="-78.826508">
        <ele>2750.00</ele>
        <time>2018-09-08T19:40:21Z</time>
      </trkpt>
      <trkpt lat="-2.729734" lon="-78.826508">
        <ele>2750.00</ele>
        <time>2018-09-08T19:40:22Z</time>
      </trkpt>
      <trkpt lat="-2.729735" lon="-78.826515">
        <ele>2750.00</ele>
        <time>2018-09-08T19:40:23Z</time>
      </trkpt>
      <trkpt lat="-2.729735" lon="-78.826515">
        <ele>2750.00</ele>
        <time>2018-09-08T19:40:24Z</time>
      </trkpt>
      <trkpt lat="-2.729735" lon="-78.826515">
        <ele>2750.00</ele>
        <time>2018-09-08T19:40:25Z</time>
      </trkpt>
      <trkpt lat="-2.729736" lon="-78.826515">
        <ele>2750.00</ele>
        <time>2018-09-08T19:40:26Z</time>
      </trkpt>
      <trkpt lat="-2.729736" lon="-78.826515">
        <ele>2750.00</ele>
        <time>2018-09-08T19:40:27Z</time>
      </trkpt>
      <trkpt lat="-2.729736" lon="-78.826515">
        <ele>2750.00</ele>
        <time>2018-09-08T19:40:28Z</time>
      </trkpt>
      <trkpt lat="-2.729736" lon="-78.826515">
        <ele>2750.00</ele>
        <time>2018-09-08T19:40:29Z</time>
      </trkpt>
      <trkpt lat="-2.729736" lon="-78.826515">
        <ele>2750.00</ele>
        <time>2018-09-08T19:40:30Z</time>
      </trkpt>
      <trkpt lat="-2.729736" lon="-78.826515">
        <ele>2750.00</ele>
        <time>2018-09-08T19:40:31Z</time>
      </trkpt>
      <trkpt lat="-2.729736" lon="-78.826515">
        <ele>2750.00</ele>
        <time>2018-09-08T19:40:32Z</time>
      </trkpt>
      <trkpt lat="-2.729736" lon="-78.826515">
        <ele>2750.00</ele>
        <time>2018-09-08T19:40:33Z</time>
      </trkpt>
      <trkpt lat="-2.729736" lon="-78.826515">
        <ele>2750.00</ele>
        <time>2018-09-08T19:40:34Z</time>
      </trkpt>
      <trkpt lat="-2.729736" lon="-78.826515">
        <ele>2750.00</ele>
        <time>2018-09-08T19:40:35Z</time>
      </trkpt>
      <trkpt lat="-2.729736" lon="-78.826515">
        <ele>2750.00</ele>
        <time>2018-09-08T19:40:36Z</time>
      </trkpt>
      <trkpt lat="-2.729736" lon="-78.826515">
        <ele>2750.00</ele>
        <time>2018-09-08T19:40:37Z</time>
      </trkpt>
      <trkpt lat="-2.729736" lon="-78.826515">
        <ele>2750.00</ele>
        <time>2018-09-08T19:40:38Z</time>
      </trkpt>
      <trkpt lat="-2.729736" lon="-78.826515">
        <ele>2750.00</ele>
        <time>2018-09-08T19:40:39Z</time>
      </trkpt>
      <trkpt lat="-2.729736" lon="-78.826515">
        <ele>2750.00</ele>
        <time>2018-09-08T19:40:40Z</time>
      </trkpt>
      <trkpt lat="-2.729736" lon="-78.826515">
        <ele>2750.00</ele>
        <time>2018-09-08T19:40:41Z</time>
      </trkpt>
      <trkpt lat="-2.729737" lon="-78.826515">
        <ele>2750.00</ele>
        <time>2018-09-08T19:40:42Z</time>
      </trkpt>
      <trkpt lat="-2.729737" lon="-78.826515">
        <ele>2750.00</ele>
        <time>2018-09-08T19:40:43Z</time>
      </trkpt>
      <trkpt lat="-2.729737" lon="-78.826515">
        <ele>2750.00</ele>
        <time>2018-09-08T19:40:44Z</time>
      </trkpt>
      <trkpt lat="-2.729737" lon="-78.826515">
        <ele>2750.00</ele>
        <time>2018-09-08T19:40:45Z</time>
      </trkpt>
      <trkpt lat="-2.729737" lon="-78.826515">
        <ele>2750.00</ele>
        <time>2018-09-08T19:40:46Z</time>
      </trkpt>
      <trkpt lat="-2.729737" lon="-78.826515">
        <ele>2750.00</ele>
        <time>2018-09-08T19:40:47Z</time>
      </trkpt>
      <trkpt lat="-2.729737" lon="-78.826515">
        <ele>2750.00</ele>
        <time>2018-09-08T19:40:48Z</time>
      </trkpt>
      <trkpt lat="-2.729737" lon="-78.826515">
        <ele>2750.00</ele>
        <time>2018-09-08T19:40:49Z</time>
      </trkpt>
      <trkpt lat="-2.729737" lon="-78.826515">
        <ele>2750.00</ele>
        <time>2018-09-08T19:40:50Z</time>
      </trkpt>
      <trkpt lat="-2.729737" lon="-78.826515">
        <ele>2750.00</ele>
        <time>2018-09-08T19:40:51Z</time>
      </trkpt>
      <trkpt lat="-2.729737" lon="-78.826515">
        <ele>2750.00</ele>
        <time>2018-09-08T19:40:52Z</time>
      </trkpt>
      <trkpt lat="-2.729737" lon="-78.826515">
        <ele>2750.00</ele>
        <time>2018-09-08T19:40:53Z</time>
      </trkpt>
      <trkpt lat="-2.729737" lon="-78.826515">
        <ele>2750.00</ele>
        <time>2018-09-08T19:40:54Z</time>
      </trkpt>
      <trkpt lat="-2.729737" lon="-78.826515">
        <ele>2750.00</ele>
        <time>2018-09-08T19:40:55Z</time>
      </trkpt>
      <trkpt lat="-2.729738" lon="-78.826523">
        <ele>2750.00</ele>
        <time>2018-09-08T19:40:56Z</time>
      </trkpt>
      <trkpt lat="-2.729744" lon="-78.826523">
        <ele>2750.00</ele>
        <time>2018-09-08T19:40:57Z</time>
      </trkpt>
      <trkpt lat="-2.729759" lon="-78.826530">
        <ele>2750.00</ele>
        <time>2018-09-08T19:40:58Z</time>
      </trkpt>
      <trkpt lat="-2.729773" lon="-78.826546">
        <ele>2750.00</ele>
        <time>2018-09-08T19:40:59Z</time>
      </trkpt>
      <trkpt lat="-2.729781" lon="-78.826561">
        <ele>2750.00</ele>
        <time>2018-09-08T19:41:00Z</time>
      </trkpt>
      <trkpt lat="-2.729792" lon="-78.826569">
        <ele>2750.00</ele>
        <time>2018-09-08T19:41:01Z</time>
      </trkpt>
      <trkpt lat="-2.729804" lon="-78.826576">
        <ele>2750.00</ele>
        <time>2018-09-08T19:41:02Z</time>
      </trkpt>
      <trkpt lat="-2.729809" lon="-78.826584">
        <ele>2750.00</ele>
        <time>2018-09-08T19:41:03Z</time>
      </trkpt>
      <trkpt lat="-2.729813" lon="-78.826584">
        <ele>2750.00</ele>
        <time>2018-09-08T19:41:04Z</time>
      </trkpt>
      <trkpt lat="-2.729816" lon="-78.826599">
        <ele>2750.00</ele>
        <time>2018-09-08T19:41:05Z</time>
      </trkpt>
      <trkpt lat="-2.729817" lon="-78.826599">
        <ele>2750.00</ele>
        <time>2018-09-08T19:41:06Z</time>
      </trkpt>
      <trkpt lat="-2.729816" lon="-78.826599">
        <ele>2750.00</ele>
        <time>2018-09-08T19:41:07Z</time>
      </trkpt>
      <trkpt lat="-2.729817" lon="-78.826599">
        <ele>2750.00</ele>
        <time>2018-09-08T19:41:08Z</time>
      </trkpt>
      <trkpt lat="-2.729817" lon="-78.826599">
        <ele>2750.00</ele>
        <time>2018-09-08T19:41:09Z</time>
      </trkpt>
      <trkpt lat="-2.729817" lon="-78.826599">
        <ele>2750.00</ele>
        <time>2018-09-08T19:41:10Z</time>
      </trkpt>
      <trkpt lat="-2.729817" lon="-78.826599">
        <ele>2750.00</ele>
        <time>2018-09-08T19:41:11Z</time>
      </trkpt>
      <trkpt lat="-2.729817" lon="-78.826599">
        <ele>2750.00</ele>
        <time>2018-09-08T19:41:12Z</time>
      </trkpt>
      <trkpt lat="-2.729817" lon="-78.826599">
        <ele>2750.00</ele>
        <time>2018-09-08T19:41:13Z</time>
      </trkpt>
      <trkpt lat="-2.729816" lon="-78.826599">
        <ele>2750.00</ele>
        <time>2018-09-08T19:41:14Z</time>
      </trkpt>
      <trkpt lat="-2.729817" lon="-78.826599">
        <ele>2750.00</ele>
        <time>2018-09-08T19:41:15Z</time>
      </trkpt>
      <trkpt lat="-2.729817" lon="-78.826599">
        <ele>2750.00</ele>
        <time>2018-09-08T19:41:16Z</time>
      </trkpt>
      <trkpt lat="-2.729817" lon="-78.826599">
        <ele>2750.00</ele>
        <time>2018-09-08T19:41:17Z</time>
      </trkpt>
      <trkpt lat="-2.729817" lon="-78.826599">
        <ele>2750.00</ele>
        <time>2018-09-08T19:41:18Z</time>
      </trkpt>
      <trkpt lat="-2.729817" lon="-78.826599">
        <ele>2750.00</ele>
        <time>2018-09-08T19:41:19Z</time>
      </trkpt>
      <trkpt lat="-2.729817" lon="-78.826599">
        <ele>2750.00</ele>
        <time>2018-09-08T19:41:20Z</time>
      </trkpt>
      <trkpt lat="-2.729818" lon="-78.826599">
        <ele>2750.00</ele>
        <time>2018-09-08T19:41:21Z</time>
      </trkpt>
      <trkpt lat="-2.729818" lon="-78.826599">
        <ele>2750.00</ele>
        <time>2018-09-08T19:41:22Z</time>
      </trkpt>
      <trkpt lat="-2.729818" lon="-78.826607">
        <ele>2750.00</ele>
        <time>2018-09-08T19:41:23Z</time>
      </trkpt>
      <trkpt lat="-2.729819" lon="-78.826607">
        <ele>2750.00</ele>
        <time>2018-09-08T19:41:24Z</time>
      </trkpt>
      <trkpt lat="-2.729819" lon="-78.826607">
        <ele>2750.00</ele>
        <time>2018-09-08T19:41:25Z</time>
      </trkpt>
      <trkpt lat="-2.729819" lon="-78.826607">
        <ele>2750.00</ele>
        <time>2018-09-08T19:41:26Z</time>
      </trkpt>
      <trkpt lat="-2.729819" lon="-78.826607">
        <ele>2750.00</ele>
        <time>2018-09-08T19:41:27Z</time>
      </trkpt>
      <trkpt lat="-2.729820" lon="-78.826607">
        <ele>2750.00</ele>
        <time>2018-09-08T19:41:28Z</time>
      </trkpt>
      <trkpt lat="-2.729820" lon="-78.826607">
        <ele>2750.00</ele>
        <time>2018-09-08T19:41:29Z</time>
      </trkpt>
      <trkpt lat="-2.729820" lon="-78.826607">
        <ele>2750.00</ele>
        <time>2018-09-08T19:41:30Z</time>
      </trkpt>
      <trkpt lat="-2.729820" lon="-78.826607">
        <ele>2750.00</ele>
        <time>2018-09-08T19:41:31Z</time>
      </trkpt>
      <trkpt lat="-2.729820" lon="-78.826607">
        <ele>2750.00</ele>
        <time>2018-09-08T19:41:32Z</time>
      </trkpt>
      <trkpt lat="-2.729820" lon="-78.826607">
        <ele>2750.00</ele>
        <time>2018-09-08T19:41:33Z</time>
      </trkpt>
      <trkpt lat="-2.729820" lon="-78.826607">
        <ele>2750.00</ele>
        <time>2018-09-08T19:41:34Z</time>
      </trkpt>
      <trkpt lat="-2.729820" lon="-78.826607">
        <ele>2750.00</ele>
        <time>2018-09-08T19:41:35Z</time>
      </trkpt>
      <trkpt lat="-2.729820" lon="-78.826607">
        <ele>2750.00</ele>
        <time>2018-09-08T19:41:36Z</time>
      </trkpt>
      <trkpt lat="-2.729820" lon="-78.826607">
        <ele>2750.00</ele>
        <time>2018-09-08T19:41:37Z</time>
      </trkpt>
      <trkpt lat="-2.729821" lon="-78.826607">
        <ele>2750.00</ele>
        <time>2018-09-08T19:41:38Z</time>
      </trkpt>
      <trkpt lat="-2.729821" lon="-78.826607">
        <ele>2750.00</ele>
        <time>2018-09-08T19:41:39Z</time>
      </trkpt>
      <trkpt lat="-2.729822" lon="-78.826607">
        <ele>2750.00</ele>
        <time>2018-09-08T19:41:40Z</time>
      </trkpt>
      <trkpt lat="-2.729822" lon="-78.826607">
        <ele>2750.00</ele>
        <time>2018-09-08T19:41:41Z</time>
      </trkpt>
      <trkpt lat="-2.729823" lon="-78.826614">
        <ele>2750.00</ele>
        <time>2018-09-08T19:41:42Z</time>
      </trkpt>
      <trkpt lat="-2.729824" lon="-78.826614">
        <ele>2750.00</ele>
        <time>2018-09-08T19:41:43Z</time>
      </trkpt>
      <trkpt lat="-2.729824" lon="-78.826614">
        <ele>2750.00</ele>
        <time>2018-09-08T19:41:44Z</time>
      </trkpt>
      <trkpt lat="-2.729825" lon="-78.826614">
        <ele>2750.00</ele>
        <time>2018-09-08T19:41:45Z</time>
      </trkpt>
      <trkpt lat="-2.729825" lon="-78.826614">
        <ele>2750.00</ele>
        <time>2018-09-08T19:41:46Z</time>
      </trkpt>
      <trkpt lat="-2.729825" lon="-78.826614">
        <ele>2750.00</ele>
        <time>2018-09-08T19:41:47Z</time>
      </trkpt>
      <trkpt lat="-2.729825" lon="-78.826614">
        <ele>2750.00</ele>
        <time>2018-09-08T19:41:48Z</time>
      </trkpt>
      <trkpt lat="-2.729825" lon="-78.826614">
        <ele>2750.00</ele>
        <time>2018-09-08T19:41:49Z</time>
      </trkpt>
      <trkpt lat="-2.729825" lon="-78.826614">
        <ele>2750.00</ele>
        <time>2018-09-08T19:41:50Z</time>
      </trkpt>
      <trkpt lat="-2.729825" lon="-78.826614">
        <ele>2750.00</ele>
        <time>2018-09-08T19:41:51Z</time>
      </trkpt>
      <trkpt lat="-2.729825" lon="-78.826614">
        <ele>2750.00</ele>
        <time>2018-09-08T19:41:52Z</time>
      </trkpt>
      <trkpt lat="-2.729825" lon="-78.826614">
        <ele>2750.00</ele>
        <time>2018-09-08T19:41:53Z</time>
      </trkpt>
      <trkpt lat="-2.729825" lon="-78.826614">
        <ele>2750.00</ele>
        <time>2018-09-08T19:41:54Z</time>
      </trkpt>
      <trkpt lat="-2.729824" lon="-78.826614">
        <ele>2750.00</ele>
        <time>2018-09-08T19:41:55Z</time>
      </trkpt>
      <trkpt lat="-2.729824" lon="-78.826614">
        <ele>2750.00</ele>
        <time>2018-09-08T19:41:56Z</time>
      </trkpt>
      <trkpt lat="-2.729823" lon="-78.826614">
        <ele>2750.00</ele>
        <time>2018-09-08T19:41:57Z</time>
      </trkpt>
      <trkpt lat="-2.729822" lon="-78.826614">
        <ele>2750.00</ele>
        <time>2018-09-08T19:41:58Z</time>
      </trkpt>
      <trkpt lat="-2.729823" lon="-78.826614">
        <ele>2750.00</ele>
        <time>2018-09-08T19:41:59Z</time>
      </trkpt>
      <trkpt lat="-2.729825" lon="-78.826622">
        <ele>2750.00</ele>
        <time>2018-09-08T19:42:00Z</time>
      </trkpt>
      <trkpt lat="-2.729826" lon="-78.826622">
        <ele>2750.00</ele>
        <time>2018-09-08T19:42:01Z</time>
      </trkpt>
      <trkpt lat="-2.729826" lon="-78.826622">
        <ele>2750.00</ele>
        <time>2018-09-08T19:42:02Z</time>
      </trkpt>
      <trkpt lat="-2.729826" lon="-78.826622">
        <ele>2750.00</ele>
        <time>2018-09-08T19:42:03Z</time>
      </trkpt>
      <trkpt lat="-2.729826" lon="-78.826622">
        <ele>2750.00</ele>
        <time>2018-09-08T19:42:04Z</time>
      </trkpt>
      <trkpt lat="-2.729825" lon="-78.826622">
        <ele>2750.00</ele>
        <time>2018-09-08T19:42:05Z</time>
      </trkpt>
      <trkpt lat="-2.729825" lon="-78.826622">
        <ele>2750.00</ele>
        <time>2018-09-08T19:42:06Z</time>
      </trkpt>
      <trkpt lat="-2.729825" lon="-78.826622">
        <ele>2750.00</ele>
        <time>2018-09-08T19:42:07Z</time>
      </trkpt>
      <trkpt lat="-2.729825" lon="-78.826622">
        <ele>2750.00</ele>
        <time>2018-09-08T19:42:08Z</time>
      </trkpt>
      <trkpt lat="-2.729825" lon="-78.826622">
        <ele>2750.00</ele>
        <time>2018-09-08T19:42:09Z</time>
      </trkpt>
      <trkpt lat="-2.729825" lon="-78.826622">
        <ele>2750.00</ele>
        <time>2018-09-08T19:42:10Z</time>
      </trkpt>
      <trkpt lat="-2.729824" lon="-78.826622">
        <ele>2750.00</ele>
        <time>2018-09-08T19:42:11Z</time>
      </trkpt>
      <trkpt lat="-2.729823" lon="-78.826622">
        <ele>2750.00</ele>
        <time>2018-09-08T19:42:12Z</time>
      </trkpt>
      <trkpt lat="-2.729823" lon="-78.826622">
        <ele>2750.00</ele>
        <time>2018-09-08T19:42:13Z</time>
      </trkpt>
      <trkpt lat="-2.729824" lon="-78.826622">
        <ele>2750.00</ele>
        <time>2018-09-08T19:42:14Z</time>
      </trkpt>
      <trkpt lat="-2.729825" lon="-78.826622">
        <ele>2750.00</ele>
        <time>2018-09-08T19:42:15Z</time>
      </trkpt>
      <trkpt lat="-2.729824" lon="-78.826622">
        <ele>2750.00</ele>
        <time>2018-09-08T19:42:16Z</time>
      </trkpt>
      <trkpt lat="-2.729825" lon="-78.826622">
        <ele>2750.00</ele>
        <time>2018-09-08T19:42:17Z</time>
      </trkpt>
      <trkpt lat="-2.729827" lon="-78.826622">
        <ele>2750.00</ele>
        <time>2018-09-08T19:42:18Z</time>
      </trkpt>
      <trkpt lat="-2.729829" lon="-78.826622">
        <ele>2750.00</ele>
        <time>2018-09-08T19:42:19Z</time>
      </trkpt>
      <trkpt lat="-2.729830" lon="-78.826622">
        <ele>2750.00</ele>
        <time>2018-09-08T19:42:20Z</time>
      </trkpt>
      <trkpt lat="-2.729830" lon="-78.826622">
        <ele>2750.00</ele>
        <time>2018-09-08T19:42:21Z</time>
      </trkpt>
      <trkpt lat="-2.729831" lon="-78.826622">
        <ele>2750.00</ele>
        <time>2018-09-08T19:42:22Z</time>
      </trkpt>
      <trkpt lat="-2.729832" lon="-78.826630">
        <ele>2750.00</ele>
        <time>2018-09-08T19:42:23Z</time>
      </trkpt>
      <trkpt lat="-2.729832" lon="-78.826630">
        <ele>2750.00</ele>
        <time>2018-09-08T19:42:24Z</time>
      </trkpt>
      <trkpt lat="-2.729832" lon="-78.826630">
        <ele>2750.00</ele>
        <time>2018-09-08T19:42:25Z</time>
      </trkpt>
      <trkpt lat="-2.729833" lon="-78.826630">
        <ele>2750.00</ele>
        <time>2018-09-08T19:42:26Z</time>
      </trkpt>
      <trkpt lat="-2.729833" lon="-78.826630">
        <ele>2750.00</ele>
        <time>2018-09-08T19:42:27Z</time>
      </trkpt>
      <trkpt lat="-2.729834" lon="-78.826630">
        <ele>2750.00</ele>
        <time>2018-09-08T19:42:28Z</time>
      </trkpt>
      <trkpt lat="-2.729834" lon="-78.826630">
        <ele>2750.00</ele>
        <time>2018-09-08T19:42:29Z</time>
      </trkpt>
      <trkpt lat="-2.729835" lon="-78.826630">
        <ele>2750.00</ele>
        <time>2018-09-08T19:42:30Z</time>
      </trkpt>
      <trkpt lat="-2.729835" lon="-78.826637">
        <ele>2750.00</ele>
        <time>2018-09-08T19:42:31Z</time>
      </trkpt>
      <trkpt lat="-2.729835" lon="-78.826637">
        <ele>2750.00</ele>
        <time>2018-09-08T19:42:32Z</time>
      </trkpt>
      <trkpt lat="-2.729835" lon="-78.826637">
        <ele>2750.00</ele>
        <time>2018-09-08T19:42:33Z</time>
      </trkpt>
      <trkpt lat="-2.729834" lon="-78.826637">
        <ele>2750.00</ele>
        <time>2018-09-08T19:42:34Z</time>
      </trkpt>
      <trkpt lat="-2.729835" lon="-78.826637">
        <ele>2750.00</ele>
        <time>2018-09-08T19:42:35Z</time>
      </trkpt>
      <trkpt lat="-2.729835" lon="-78.826637">
        <ele>2750.00</ele>
        <time>2018-09-08T19:42:36Z</time>
      </trkpt>
      <trkpt lat="-2.729836" lon="-78.826637">
        <ele>2750.00</ele>
        <time>2018-09-08T19:42:37Z</time>
      </trkpt>
      <trkpt lat="-2.729836" lon="-78.826637">
        <ele>2750.00</ele>
        <time>2018-09-08T19:42:38Z</time>
      </trkpt>
      <trkpt lat="-2.729836" lon="-78.826637">
        <ele>2750.00</ele>
        <time>2018-09-08T19:42:39Z</time>
      </trkpt>
      <trkpt lat="-2.729836" lon="-78.826637">
        <ele>2750.00</ele>
        <time>2018-09-08T19:42:40Z</time>
      </trkpt>
      <trkpt lat="-2.729836" lon="-78.826637">
        <ele>2750.00</ele>
        <time>2018-09-08T19:42:41Z</time>
      </trkpt>
      <trkpt lat="-2.729836" lon="-78.826637">
        <ele>2750.00</ele>
        <time>2018-09-08T19:42:42Z</time>
      </trkpt>
      <trkpt lat="-2.729836" lon="-78.826637">
        <ele>2750.00</ele>
        <time>2018-09-08T19:42:43Z</time>
      </trkpt>
      <trkpt lat="-2.729836" lon="-78.826653">
        <ele>2750.00</ele>
        <time>2018-09-08T19:42:44Z</time>
      </trkpt>
      <trkpt lat="-2.729836" lon="-78.826653">
        <ele>2750.00</ele>
        <time>2018-09-08T19:42:45Z</time>
      </trkpt>
      <trkpt lat="-2.729836" lon="-78.826653">
        <ele>2750.00</ele>
        <time>2018-09-08T19:42:46Z</time>
      </trkpt>
      <trkpt lat="-2.729836" lon="-78.826653">
        <ele>2750.00</ele>
        <time>2018-09-08T19:42:47Z</time>
      </trkpt>
      <trkpt lat="-2.729835" lon="-78.826653">
        <ele>2750.00</ele>
        <time>2018-09-08T19:42:48Z</time>
      </trkpt>
      <trkpt lat="-2.729834" lon="-78.826653">
        <ele>2750.00</ele>
        <time>2018-09-08T19:42:49Z</time>
      </trkpt>
      <trkpt lat="-2.729833" lon="-78.826653">
        <ele>2750.00</ele>
        <time>2018-09-08T19:42:50Z</time>
      </trkpt>
      <trkpt lat="-2.729833" lon="-78.826653">
        <ele>2750.00</ele>
        <time>2018-09-08T19:42:51Z</time>
      </trkpt>
      <trkpt lat="-2.729832" lon="-78.826653">
        <ele>2750.00</ele>
        <time>2018-09-08T19:42:52Z</time>
      </trkpt>
      <trkpt lat="-2.729832" lon="-78.826653">
        <ele>2750.00</ele>
        <time>2018-09-08T19:42:53Z</time>
      </trkpt>
      <trkpt lat="-2.729832" lon="-78.826653">
        <ele>2750.00</ele>
        <time>2018-09-08T19:42:54Z</time>
      </trkpt>
      <trkpt lat="-2.729831" lon="-78.826653">
        <ele>2750.00</ele>
        <time>2018-09-08T19:42:55Z</time>
      </trkpt>
      <trkpt lat="-2.729830" lon="-78.826637">
        <ele>2750.00</ele>
        <time>2018-09-08T19:42:56Z</time>
      </trkpt>
      <trkpt lat="-2.729829" lon="-78.826637">
        <ele>2750.00</ele>
        <time>2018-09-08T19:42:57Z</time>
      </trkpt>
      <trkpt lat="-2.729828" lon="-78.826637">
        <ele>2750.00</ele>
        <time>2018-09-08T19:42:58Z</time>
      </trkpt>
      <trkpt lat="-2.729828" lon="-78.826637">
        <ele>2750.00</ele>
        <time>2018-09-08T19:42:59Z</time>
      </trkpt>
      <trkpt lat="-2.729828" lon="-78.826637">
        <ele>2750.00</ele>
        <time>2018-09-08T19:43:00Z</time>
      </trkpt>
      <trkpt lat="-2.729828" lon="-78.826637">
        <ele>2750.00</ele>
        <time>2018-09-08T19:43:01Z</time>
      </trkpt>
      <trkpt lat="-2.729827" lon="-78.826637">
        <ele>2750.00</ele>
        <time>2018-09-08T19:43:02Z</time>
      </trkpt>
      <trkpt lat="-2.729826" lon="-78.826637">
        <ele>2750.00</ele>
        <time>2018-09-08T19:43:03Z</time>
      </trkpt>
      <trkpt lat="-2.729825" lon="-78.826637">
        <ele>2750.00</ele>
        <time>2018-09-08T19:43:04Z</time>
      </trkpt>
      <trkpt lat="-2.729825" lon="-78.826637">
        <ele>2750.00</ele>
        <time>2018-09-08T19:43:05Z</time>
      </trkpt>
      <trkpt lat="-2.729825" lon="-78.826637">
        <ele>2750.00</ele>
        <time>2018-09-08T19:43:06Z</time>
      </trkpt>
      <trkpt lat="-2.729825" lon="-78.826637">
        <ele>2750.00</ele>
        <time>2018-09-08T19:43:07Z</time>
      </trkpt>
      <trkpt lat="-2.729825" lon="-78.826637">
        <ele>2750.00</ele>
        <time>2018-09-08T19:43:08Z</time>
      </trkpt>
      <trkpt lat="-2.729824" lon="-78.826637">
        <ele>2750.00</ele>
        <time>2018-09-08T19:43:09Z</time>
      </trkpt>
      <trkpt lat="-2.729823" lon="-78.826637">
        <ele>2750.00</ele>
        <time>2018-09-08T19:43:10Z</time>
      </trkpt>
      <trkpt lat="-2.729821" lon="-78.826637">
        <ele>2750.00</ele>
        <time>2018-09-08T19:43:11Z</time>
      </trkpt>
      <trkpt lat="-2.729820" lon="-78.826637">
        <ele>2750.00</ele>
        <time>2018-09-08T19:43:12Z</time>
      </trkpt>
      <trkpt lat="-2.729819" lon="-78.826637">
        <ele>2750.00</ele>
        <time>2018-09-08T19:43:13Z</time>
      </trkpt>
      <trkpt lat="-2.729819" lon="-78.826637">
        <ele>2750.00</ele>
        <time>2018-09-08T19:43:14Z</time>
      </trkpt>
      <trkpt lat="-2.729818" lon="-78.826637">
        <ele>2750.00</ele>
        <time>2018-09-08T19:43:15Z</time>
      </trkpt>
      <trkpt lat="-2.729818" lon="-78.826637">
        <ele>2750.00</ele>
        <time>2018-09-08T19:43:16Z</time>
      </trkpt>
      <trkpt lat="-2.729817" lon="-78.826637">
        <ele>2750.00</ele>
        <time>2018-09-08T19:43:17Z</time>
      </trkpt>
      <trkpt lat="-2.729817" lon="-78.826637">
        <ele>2750.00</ele>
        <time>2018-09-08T19:43:18Z</time>
      </trkpt>
      <trkpt lat="-2.729818" lon="-78.826637">
        <ele>2750.00</ele>
        <time>2018-09-08T19:43:19Z</time>
      </trkpt>
      <trkpt lat="-2.729818" lon="-78.826637">
        <ele>2750.00</ele>
        <time>2018-09-08T19:43:20Z</time>
      </trkpt>
      <trkpt lat="-2.729818" lon="-78.826637">
        <ele>2750.00</ele>
        <time>2018-09-08T19:43:21Z</time>
      </trkpt>
      <trkpt lat="-2.729817" lon="-78.826637">
        <ele>2750.00</ele>
        <time>2018-09-08T19:43:22Z</time>
      </trkpt>
      <trkpt lat="-2.729817" lon="-78.826637">
        <ele>2750.00</ele>
        <time>2018-09-08T19:43:23Z</time>
      </trkpt>
      <trkpt lat="-2.729818" lon="-78.826637">
        <ele>2750.00</ele>
        <time>2018-09-08T19:43:24Z</time>
      </trkpt>
      <trkpt lat="-2.729817" lon="-78.826637">
        <ele>2750.00</ele>
        <time>2018-09-08T19:43:25Z</time>
      </trkpt>
      <trkpt lat="-2.729817" lon="-78.826637">
        <ele>2750.00</ele>
        <time>2018-09-08T19:43:26Z</time>
      </trkpt>
      <trkpt lat="-2.729817" lon="-78.826637">
        <ele>2750.00</ele>
        <time>2018-09-08T19:43:27Z</time>
      </trkpt>
      <trkpt lat="-2.729817" lon="-78.826637">
        <ele>2750.00</ele>
        <time>2018-09-08T19:43:28Z</time>
      </trkpt>
      <trkpt lat="-2.729817" lon="-78.826637">
        <ele>2750.00</ele>
        <time>2018-09-08T19:43:29Z</time>
      </trkpt>
      <trkpt lat="-2.729817" lon="-78.826637">
        <ele>2750.00</ele>
        <time>2018-09-08T19:43:30Z</time>
      </trkpt>
      <trkpt lat="-2.729818" lon="-78.826637">
        <ele>2750.00</ele>
        <time>2018-09-08T19:43:31Z</time>
      </trkpt>
      <trkpt lat="-2.729816" lon="-78.826637">
        <ele>2750.00</ele>
        <time>2018-09-08T19:43:32Z</time>
      </trkpt>
      <trkpt lat="-2.729816" lon="-78.826637">
        <ele>2750.00</ele>
        <time>2018-09-08T19:43:33Z</time>
      </trkpt>
      <trkpt lat="-2.729816" lon="-78.826637">
        <ele>2750.00</ele>
        <time>2018-09-08T19:43:34Z</time>
      </trkpt>
      <trkpt lat="-2.729817" lon="-78.826637">
        <ele>2750.00</ele>
        <time>2018-09-08T19:43:35Z</time>
      </trkpt>
      <trkpt lat="-2.729817" lon="-78.826637">
        <ele>2750.00</ele>
        <time>2018-09-08T19:43:36Z</time>
      </trkpt>
      <trkpt lat="-2.729817" lon="-78.826637">
        <ele>2750.00</ele>
        <time>2018-09-08T19:43:37Z</time>
      </trkpt>
      <trkpt lat="-2.729817" lon="-78.826637">
        <ele>2750.00</ele>
        <time>2018-09-08T19:43:38Z</time>
      </trkpt>
      <trkpt lat="-2.729827" lon="-78.826653">
        <ele>2750.00</ele>
        <time>2018-09-08T19:43:39Z</time>
      </trkpt>
      <trkpt lat="-2.729842" lon="-78.826668">
        <ele>2750.00</ele>
        <time>2018-09-08T19:43:40Z</time>
      </trkpt>
      <trkpt lat="-2.729836" lon="-78.826691">
        <ele>2750.00</ele>
        <time>2018-09-08T19:43:41Z</time>
      </trkpt>
      <trkpt lat="-2.729830" lon="-78.826714">
        <ele>2750.00</ele>
        <time>2018-09-08T19:43:42Z</time>
      </trkpt>
      <trkpt lat="-2.729825" lon="-78.826729">
        <ele>2750.00</ele>
        <time>2018-09-08T19:43:43Z</time>
      </trkpt>
      <trkpt lat="-2.729836" lon="-78.826744">
        <ele>2750.00</ele>
        <time>2018-09-08T19:43:44Z</time>
      </trkpt>
      <trkpt lat="-2.729849" lon="-78.826767">
        <ele>2750.00</ele>
        <time>2018-09-08T19:43:45Z</time>
      </trkpt>
      <trkpt lat="-2.729858" lon="-78.826775">
        <ele>2750.00</ele>
        <time>2018-09-08T19:43:46Z</time>
      </trkpt>
      <trkpt lat="-2.729862" lon="-78.826775">
        <ele>2750.00</ele>
        <time>2018-09-08T19:43:47Z</time>
      </trkpt>
      <trkpt lat="-2.729865" lon="-78.826790">
        <ele>2750.00</ele>
        <time>2018-09-08T19:43:48Z</time>
      </trkpt>
      <trkpt lat="-2.729864" lon="-78.826797">
        <ele>2750.00</ele>
        <time>2018-09-08T19:43:49Z</time>
      </trkpt>
      <trkpt lat="-2.729863" lon="-78.826805">
        <ele>2750.00</ele>
        <time>2018-09-08T19:43:50Z</time>
      </trkpt>
      <trkpt lat="-2.729863" lon="-78.826805">
        <ele>2750.00</ele>
        <time>2018-09-08T19:43:51Z</time>
      </trkpt>
      <trkpt lat="-2.729862" lon="-78.826820">
        <ele>2750.00</ele>
        <time>2018-09-08T19:43:52Z</time>
      </trkpt>
      <trkpt lat="-2.729862" lon="-78.826820">
        <ele>2750.00</ele>
        <time>2018-09-08T19:43:53Z</time>
      </trkpt>
      <trkpt lat="-2.729862" lon="-78.826820">
        <ele>2750.00</ele>
        <time>2018-09-08T19:43:54Z</time>
      </trkpt>
      <trkpt lat="-2.729862" lon="-78.826820">
        <ele>2750.00</ele>
        <time>2018-09-08T19:43:55Z</time>
      </trkpt>
      <trkpt lat="-2.729862" lon="-78.826820">
        <ele>2750.00</ele>
        <time>2018-09-08T19:43:56Z</time>
      </trkpt>
      <trkpt lat="-2.729862" lon="-78.826820">
        <ele>2750.00</ele>
        <time>2018-09-08T19:43:57Z</time>
      </trkpt>
      <trkpt lat="-2.729862" lon="-78.826820">
        <ele>2750.00</ele>
        <time>2018-09-08T19:43:58Z</time>
      </trkpt>
      <trkpt lat="-2.729862" lon="-78.826820">
        <ele>2750.00</ele>
        <time>2018-09-08T19:43:59Z</time>
      </trkpt>
      <trkpt lat="-2.729862" lon="-78.826820">
        <ele>2750.00</ele>
        <time>2018-09-08T19:44:00Z</time>
      </trkpt>
      <trkpt lat="-2.729862" lon="-78.826820">
        <ele>2750.00</ele>
        <time>2018-09-08T19:44:01Z</time>
      </trkpt>
      <trkpt lat="-2.729862" lon="-78.826820">
        <ele>2750.00</ele>
        <time>2018-09-08T19:44:02Z</time>
      </trkpt>
      <trkpt lat="-2.729856" lon="-78.826828">
        <ele>2750.00</ele>
        <time>2018-09-08T19:44:03Z</time>
      </trkpt>
      <trkpt lat="-2.729844" lon="-78.826843">
        <ele>2750.00</ele>
        <time>2018-09-08T19:44:04Z</time>
      </trkpt>
      <trkpt lat="-2.729817" lon="-78.826881">
        <ele>2750.00</ele>
        <time>2018-09-08T19:44:05Z</time>
      </trkpt>
      <trkpt lat="-2.729763" lon="-78.826935">
        <ele>2750.00</ele>
        <time>2018-09-08T19:44:06Z</time>
      </trkpt>
      <trkpt lat="-2.729695" lon="-78.826996">
        <ele>2750.00</ele>
        <time>2018-09-08T19:44:07Z</time>
      </trkpt>
      <trkpt lat="-2.729621" lon="-78.827065">
        <ele>2750.00</ele>
        <time>2018-09-08T19:44:08Z</time>
      </trkpt>
      <trkpt lat="-2.729544" lon="-78.827118">
        <ele>2750.00</ele>
        <time>2018-09-08T19:44:09Z</time>
      </trkpt>
      <trkpt lat="-2.729466" lon="-78.827148">
        <ele>2750.00</ele>
        <time>2018-09-08T19:44:10Z</time>
      </trkpt>
      <trkpt lat="-2.729403" lon="-78.827164">
        <ele>2750.00</ele>
        <time>2018-09-08T19:44:11Z</time>
      </trkpt>
      <trkpt lat="-2.729350" lon="-78.827179">
        <ele>2750.00</ele>
        <time>2018-09-08T19:44:12Z</time>
      </trkpt>
      <trkpt lat="-2.729302" lon="-78.827202">
        <ele>2750.00</ele>
        <time>2018-09-08T19:44:13Z</time>
      </trkpt>
      <trkpt lat="-2.729257" lon="-78.827225">
        <ele>2750.00</ele>
        <time>2018-09-08T19:44:14Z</time>
      </trkpt>
      <trkpt lat="-2.729221" lon="-78.827263">
        <ele>2751.00</ele>
        <time>2018-09-08T19:44:15Z</time>
      </trkpt>
      <trkpt lat="-2.729191" lon="-78.827301">
        <ele>2751.00</ele>
        <time>2018-09-08T19:44:16Z</time>
      </trkpt>
      <trkpt lat="-2.729191" lon="-78.827362">
        <ele>2751.00</ele>
        <time>2018-09-08T19:44:17Z</time>
      </trkpt>
      <trkpt lat="-2.729226" lon="-78.827438">
        <ele>2751.00</ele>
        <time>2018-09-08T19:44:18Z</time>
      </trkpt>
      <trkpt lat="-2.729267" lon="-78.827499">
        <ele>2751.00</ele>
        <time>2018-09-08T19:44:19Z</time>
      </trkpt>
      <trkpt lat="-2.729294" lon="-78.827553">
        <ele>2751.00</ele>
        <time>2018-09-08T19:44:20Z</time>
      </trkpt>
      <trkpt lat="-2.729318" lon="-78.827599">
        <ele>2751.00</ele>
        <time>2018-09-08T19:44:21Z</time>
      </trkpt>
      <trkpt lat="-2.729336" lon="-78.827637">
        <ele>2751.00</ele>
        <time>2018-09-08T19:44:22Z</time>
      </trkpt>
      <trkpt lat="-2.729354" lon="-78.827660">
        <ele>2751.00</ele>
        <time>2018-09-08T19:44:23Z</time>
      </trkpt>
      <trkpt lat="-2.729373" lon="-78.827690">
        <ele>2751.00</ele>
        <time>2018-09-08T19:44:24Z</time>
      </trkpt>
      <trkpt lat="-2.729388" lon="-78.827713">
        <ele>2751.00</ele>
        <time>2018-09-08T19:44:25Z</time>
      </trkpt>
      <trkpt lat="-2.729404" lon="-78.827744">
        <ele>2751.00</ele>
        <time>2018-09-08T19:44:26Z</time>
      </trkpt>
      <trkpt lat="-2.729428" lon="-78.827774">
        <ele>2752.00</ele>
        <time>2018-09-08T19:44:27Z</time>
      </trkpt>
      <trkpt lat="-2.729457" lon="-78.827805">
        <ele>2752.00</ele>
        <time>2018-09-08T19:44:28Z</time>
      </trkpt>
      <trkpt lat="-2.729485" lon="-78.827843">
        <ele>2752.00</ele>
        <time>2018-09-08T19:44:29Z</time>
      </trkpt>
      <trkpt lat="-2.729513" lon="-78.827866">
        <ele>2753.00</ele>
        <time>2018-09-08T19:44:30Z</time>
      </trkpt>
      <trkpt lat="-2.729542" lon="-78.827896">
        <ele>2753.00</ele>
        <time>2018-09-08T19:44:31Z</time>
      </trkpt>
      <trkpt lat="-2.729573" lon="-78.827919">
        <ele>2753.00</ele>
        <time>2018-09-08T19:44:32Z</time>
      </trkpt>
      <trkpt lat="-2.729607" lon="-78.827934">
        <ele>2754.00</ele>
        <time>2018-09-08T19:44:33Z</time>
      </trkpt>
      <trkpt lat="-2.729639" lon="-78.827965">
        <ele>2754.00</ele>
        <time>2018-09-08T19:44:34Z</time>
      </trkpt>
      <trkpt lat="-2.729671" lon="-78.827980">
        <ele>2754.00</ele>
        <time>2018-09-08T19:44:35Z</time>
      </trkpt>
      <trkpt lat="-2.729701" lon="-78.828011">
        <ele>2754.00</ele>
        <time>2018-09-08T19:44:36Z</time>
      </trkpt>
      <trkpt lat="-2.729730" lon="-78.828033">
        <ele>2755.00</ele>
        <time>2018-09-08T19:44:37Z</time>
      </trkpt>
      <trkpt lat="-2.729758" lon="-78.828064">
        <ele>2755.00</ele>
        <time>2018-09-08T19:44:38Z</time>
      </trkpt>
      <trkpt lat="-2.729784" lon="-78.828087">
        <ele>2755.00</ele>
        <time>2018-09-08T19:44:39Z</time>
      </trkpt>
      <trkpt lat="-2.729806" lon="-78.828117">
        <ele>2755.00</ele>
        <time>2018-09-08T19:44:40Z</time>
      </trkpt>
      <trkpt lat="-2.729822" lon="-78.828140">
        <ele>2755.00</ele>
        <time>2018-09-08T19:44:41Z</time>
      </trkpt>
      <trkpt lat="-2.729838" lon="-78.828171">
        <ele>2755.00</ele>
        <time>2018-09-08T19:44:42Z</time>
      </trkpt>
      <trkpt lat="-2.729853" lon="-78.828201">
        <ele>2755.00</ele>
        <time>2018-09-08T19:44:43Z</time>
      </trkpt>
      <trkpt lat="-2.729863" lon="-78.828224">
        <ele>2755.00</ele>
        <time>2018-09-08T19:44:44Z</time>
      </trkpt>
      <trkpt lat="-2.729872" lon="-78.828247">
        <ele>2755.00</ele>
        <time>2018-09-08T19:44:45Z</time>
      </trkpt>
      <trkpt lat="-2.729881" lon="-78.828270">
        <ele>2755.00</ele>
        <time>2018-09-08T19:44:46Z</time>
      </trkpt>
      <trkpt lat="-2.729885" lon="-78.828285">
        <ele>2755.00</ele>
        <time>2018-09-08T19:44:47Z</time>
      </trkpt>
      <trkpt lat="-2.729882" lon="-78.828300">
        <ele>2755.00</ele>
        <time>2018-09-08T19:44:48Z</time>
      </trkpt>
      <trkpt lat="-2.729877" lon="-78.828323">
        <ele>2756.00</ele>
        <time>2018-09-08T19:44:49Z</time>
      </trkpt>
      <trkpt lat="-2.729861" lon="-78.828331">
        <ele>2756.00</ele>
        <time>2018-09-08T19:44:50Z</time>
      </trkpt>
      <trkpt lat="-2.729837" lon="-78.828331">
        <ele>2756.00</ele>
        <time>2018-09-08T19:44:51Z</time>
      </trkpt>
      <trkpt lat="-2.729815" lon="-78.828323">
        <ele>2756.00</ele>
        <time>2018-09-08T19:44:52Z</time>
      </trkpt>
      <trkpt lat="-2.729787" lon="-78.828293">
        <ele>2756.00</ele>
        <time>2018-09-08T19:44:53Z</time>
      </trkpt>
      <trkpt lat="-2.729753" lon="-78.828270">
        <ele>2757.00</ele>
        <time>2018-09-08T19:44:54Z</time>
      </trkpt>
      <trkpt lat="-2.729708" lon="-78.828232">
        <ele>2757.00</ele>
        <time>2018-09-08T19:44:55Z</time>
      </trkpt>
      <trkpt lat="-2.729664" lon="-78.828194">
        <ele>2758.00</ele>
        <time>2018-09-08T19:44:56Z</time>
      </trkpt>
      <trkpt lat="-2.729621" lon="-78.828171">
        <ele>2758.00</ele>
        <time>2018-09-08T19:44:57Z</time>
      </trkpt>
      <trkpt lat="-2.729578" lon="-78.828140">
        <ele>2759.00</ele>
        <time>2018-09-08T19:44:58Z</time>
      </trkpt>
      <trkpt lat="-2.729537" lon="-78.828117">
        <ele>2759.00</ele>
        <time>2018-09-08T19:44:59Z</time>
      </trkpt>
      <trkpt lat="-2.729494" lon="-78.828087">
        <ele>2760.00</ele>
        <time>2018-09-08T19:45:00Z</time>
      </trkpt>
      <trkpt lat="-2.729445" lon="-78.828064">
        <ele>2760.00</ele>
        <time>2018-09-08T19:45:01Z</time>
      </trkpt>
      <trkpt lat="-2.729385" lon="-78.828033">
        <ele>2760.00</ele>
        <time>2018-09-08T19:45:02Z</time>
      </trkpt>
      <trkpt lat="-2.729315" lon="-78.827988">
        <ele>2760.00</ele>
        <time>2018-09-08T19:45:03Z</time>
      </trkpt>
      <trkpt lat="-2.729227" lon="-78.827934">
        <ele>2761.00</ele>
        <time>2018-09-08T19:45:04Z</time>
      </trkpt>
      <trkpt lat="-2.729129" lon="-78.827873">
        <ele>2761.00</ele>
        <time>2018-09-08T19:45:05Z</time>
      </trkpt>
      <trkpt lat="-2.729024" lon="-78.827812">
        <ele>2761.00</ele>
        <time>2018-09-08T19:45:06Z</time>
      </trkpt>
      <trkpt lat="-2.728923" lon="-78.827744">
        <ele>2761.00</ele>
        <time>2018-09-08T19:45:07Z</time>
      </trkpt>
      <trkpt lat="-2.728831" lon="-78.827690">
        <ele>2762.00</ele>
        <time>2018-09-08T19:45:08Z</time>
      </trkpt>
      <trkpt lat="-2.728746" lon="-78.827644">
        <ele>2762.00</ele>
        <time>2018-09-08T19:45:09Z</time>
      </trkpt>
      <trkpt lat="-2.728663" lon="-78.827629">
        <ele>2762.00</ele>
        <time>2018-09-08T19:45:10Z</time>
      </trkpt>
      <trkpt lat="-2.728580" lon="-78.827629">
        <ele>2762.00</ele>
        <time>2018-09-08T19:45:11Z</time>
      </trkpt>
      <trkpt lat="-2.728498" lon="-78.827644">
        <ele>2762.00</ele>
        <time>2018-09-08T19:45:12Z</time>
      </trkpt>
      <trkpt lat="-2.728426" lon="-78.827682">
        <ele>2762.00</ele>
        <time>2018-09-08T19:45:13Z</time>
      </trkpt>
      <trkpt lat="-2.728354" lon="-78.827713">
        <ele>2763.00</ele>
        <time>2018-09-08T19:45:14Z</time>
      </trkpt>
      <trkpt lat="-2.728280" lon="-78.827751">
        <ele>2763.00</ele>
        <time>2018-09-08T19:45:15Z</time>
      </trkpt>
      <trkpt lat="-2.728216" lon="-78.827797">
        <ele>2764.00</ele>
        <time>2018-09-08T19:45:16Z</time>
      </trkpt>
      <trkpt lat="-2.728194" lon="-78.827858">
        <ele>2764.00</ele>
        <time>2018-09-08T19:45:17Z</time>
      </trkpt>
      <trkpt lat="-2.728209" lon="-78.827919">
        <ele>2764.00</ele>
        <time>2018-09-08T19:45:18Z</time>
      </trkpt>
      <trkpt lat="-2.728262" lon="-78.827988">
        <ele>2765.00</ele>
        <time>2018-09-08T19:45:19Z</time>
      </trkpt>
      <trkpt lat="-2.728344" lon="-78.828072">
        <ele>2765.00</ele>
        <time>2018-09-08T19:45:20Z</time>
      </trkpt>
      <trkpt lat="-2.728420" lon="-78.828163">
        <ele>2765.00</ele>
        <time>2018-09-08T19:45:21Z</time>
      </trkpt>
      <trkpt lat="-2.728510" lon="-78.828239">
        <ele>2765.00</ele>
        <time>2018-09-08T19:45:22Z</time>
      </trkpt>
      <trkpt lat="-2.728593" lon="-78.828323">
        <ele>2766.00</ele>
        <time>2018-09-08T19:45:23Z</time>
      </trkpt>
      <trkpt lat="-2.728652" lon="-78.828400">
        <ele>2766.00</ele>
        <time>2018-09-08T19:45:24Z</time>
      </trkpt>
      <trkpt lat="-2.728676" lon="-78.828499">
        <ele>2766.00</ele>
        <time>2018-09-08T19:45:25Z</time>
      </trkpt>
      <trkpt lat="-2.728704" lon="-78.828590">
        <ele>2766.00</ele>
        <time>2018-09-08T19:45:26Z</time>
      </trkpt>
      <trkpt lat="-2.728728" lon="-78.828659">
        <ele>2765.00</ele>
        <time>2018-09-08T19:45:27Z</time>
      </trkpt>
      <trkpt lat="-2.728724" lon="-78.828720">
        <ele>2765.00</ele>
        <time>2018-09-08T19:45:28Z</time>
      </trkpt>
      <trkpt lat="-2.728677" lon="-78.828758">
        <ele>2764.00</ele>
        <time>2018-09-08T19:45:29Z</time>
      </trkpt>
      <trkpt lat="-2.728651" lon="-78.828796">
        <ele>2764.00</ele>
        <time>2018-09-08T19:45:30Z</time>
      </trkpt>
      <trkpt lat="-2.728662" lon="-78.828865">
        <ele>2764.00</ele>
        <time>2018-09-08T19:45:31Z</time>
      </trkpt>
      <trkpt lat="-2.728719" lon="-78.828926">
        <ele>2764.00</ele>
        <time>2018-09-08T19:45:32Z</time>
      </trkpt>
      <trkpt lat="-2.728801" lon="-78.829033">
        <ele>2764.00</ele>
        <time>2018-09-08T19:45:33Z</time>
      </trkpt>
      <trkpt lat="-2.728876" lon="-78.829163">
        <ele>2763.00</ele>
        <time>2018-09-08T19:45:34Z</time>
      </trkpt>
      <trkpt lat="-2.728947" lon="-78.829308">
        <ele>2762.00</ele>
        <time>2018-09-08T19:45:35Z</time>
      </trkpt>
      <trkpt lat="-2.729017" lon="-78.829453">
        <ele>2762.00</ele>
        <time>2018-09-08T19:45:36Z</time>
      </trkpt>
      <trkpt lat="-2.729069" lon="-78.829582">
        <ele>2761.00</ele>
        <time>2018-09-08T19:45:37Z</time>
      </trkpt>
      <trkpt lat="-2.729099" lon="-78.829697">
        <ele>2761.00</ele>
        <time>2018-09-08T19:45:38Z</time>
      </trkpt>
      <trkpt lat="-2.729105" lon="-78.829803">
        <ele>2761.00</ele>
        <time>2018-09-08T19:45:39Z</time>
      </trkpt>
      <trkpt lat="-2.729100" lon="-78.829887">
        <ele>2761.00</ele>
        <time>2018-09-08T19:45:40Z</time>
      </trkpt>
      <trkpt lat="-2.729087" lon="-78.829948">
        <ele>2761.00</ele>
        <time>2018-09-08T19:45:41Z</time>
      </trkpt>
      <trkpt lat="-2.729062" lon="-78.829979">
        <ele>2761.00</ele>
        <time>2018-09-08T19:45:42Z</time>
      </trkpt>
      <trkpt lat="-2.729030" lon="-78.829994">
        <ele>2762.00</ele>
        <time>2018-09-08T19:45:43Z</time>
      </trkpt>
      <trkpt lat="-2.728990" lon="-78.829971">
        <ele>2762.00</ele>
        <time>2018-09-08T19:45:44Z</time>
      </trkpt>
      <trkpt lat="-2.728945" lon="-78.829948">
        <ele>2763.00</ele>
        <time>2018-09-08T19:45:45Z</time>
      </trkpt>
      <trkpt lat="-2.728903" lon="-78.829926">
        <ele>2764.00</ele>
        <time>2018-09-08T19:45:46Z</time>
      </trkpt>
      <trkpt lat="-2.728871" lon="-78.829910">
        <ele>2764.00</ele>
        <time>2018-09-08T19:45:47Z</time>
      </trkpt>
      <trkpt lat="-2.728849" lon="-78.829895">
        <ele>2764.00</ele>
        <time>2018-09-08T19:45:48Z</time>
      </trkpt>
      <trkpt lat="-2.728849" lon="-78.829895">
        <ele>2764.00</ele>
        <time>2018-09-08T19:45:49Z</time>
      </trkpt>
      <trkpt lat="-2.728849" lon="-78.829895">
        <ele>2764.00</ele>
        <time>2018-09-08T19:45:50Z</time>
      </trkpt>
      <trkpt lat="-2.728849" lon="-78.829895">
        <ele>2764.00</ele>
        <time>2018-09-08T19:45:51Z</time>
      </trkpt>
      <trkpt lat="-2.728849" lon="-78.829895">
        <ele>2764.00</ele>
        <time>2018-09-08T19:45:52Z</time>
      </trkpt>
      <trkpt lat="-2.728808" lon="-78.829872">
        <ele>2764.00</ele>
        <time>2018-09-08T19:45:53Z</time>
      </trkpt>
      <trkpt lat="-2.728765" lon="-78.829857">
        <ele>2765.00</ele>
        <time>2018-09-08T19:45:54Z</time>
      </trkpt>
      <trkpt lat="-2.728700" lon="-78.829834">
        <ele>2766.00</ele>
        <time>2018-09-08T19:45:55Z</time>
      </trkpt>
      <trkpt lat="-2.728621" lon="-78.829796">
        <ele>2767.00</ele>
        <time>2018-09-08T19:45:56Z</time>
      </trkpt>
      <trkpt lat="-2.728531" lon="-78.829750">
        <ele>2768.00</ele>
        <time>2018-09-08T19:45:57Z</time>
      </trkpt>
      <trkpt lat="-2.728446" lon="-78.829681">
        <ele>2769.00</ele>
        <time>2018-09-08T19:45:58Z</time>
      </trkpt>
      <trkpt lat="-2.728354" lon="-78.829597">
        <ele>2770.00</ele>
        <time>2018-09-08T19:45:59Z</time>
      </trkpt>
      <trkpt lat="-2.728259" lon="-78.829529">
        <ele>2771.00</ele>
        <time>2018-09-08T19:46:00Z</time>
      </trkpt>
      <trkpt lat="-2.728165" lon="-78.829453">
        <ele>2772.00</ele>
        <time>2018-09-08T19:46:01Z</time>
      </trkpt>
      <trkpt lat="-2.728076" lon="-78.829376">
        <ele>2772.00</ele>
        <time>2018-09-08T19:46:02Z</time>
      </trkpt>
      <trkpt lat="-2.727998" lon="-78.829277">
        <ele>2773.00</ele>
        <time>2018-09-08T19:46:03Z</time>
      </trkpt>
      <trkpt lat="-2.727927" lon="-78.829185">
        <ele>2774.00</ele>
        <time>2018-09-08T19:46:04Z</time>
      </trkpt>
      <trkpt lat="-2.727875" lon="-78.829063">
        <ele>2775.00</ele>
        <time>2018-09-08T19:46:05Z</time>
      </trkpt>
      <trkpt lat="-2.727816" lon="-78.828957">
        <ele>2775.00</ele>
        <time>2018-09-08T19:46:06Z</time>
      </trkpt>
      <trkpt lat="-2.727752" lon="-78.828850">
        <ele>2776.00</ele>
        <time>2018-09-08T19:46:07Z</time>
      </trkpt>
      <trkpt lat="-2.727683" lon="-78.828743">
        <ele>2776.00</ele>
        <time>2018-09-08T19:46:08Z</time>
      </trkpt>
      <trkpt lat="-2.727618" lon="-78.828659">
        <ele>2777.00</ele>
        <time>2018-09-08T19:46:09Z</time>
      </trkpt>
      <trkpt lat="-2.727572" lon="-78.828590">
        <ele>2778.00</ele>
        <time>2018-09-08T19:46:10Z</time>
      </trkpt>
      <trkpt lat="-2.727545" lon="-78.828552">
        <ele>2778.00</ele>
        <time>2018-09-08T19:46:11Z</time>
      </trkpt>
      <trkpt lat="-2.727521" lon="-78.828522">
        <ele>2779.00</ele>
        <time>2018-09-08T19:46:12Z</time>
      </trkpt>
      <trkpt lat="-2.727492" lon="-78.828506">
        <ele>2780.00</ele>
        <time>2018-09-08T19:46:13Z</time>
      </trkpt>
      <trkpt lat="-2.727449" lon="-78.828506">
        <ele>2782.00</ele>
        <time>2018-09-08T19:46:14Z</time>
      </trkpt>
      <trkpt lat="-2.727399" lon="-78.828506">
        <ele>2783.00</ele>
        <time>2018-09-08T19:46:15Z</time>
      </trkpt>
      <trkpt lat="-2.727339" lon="-78.828499">
        <ele>2784.00</ele>
        <time>2018-09-08T19:46:16Z</time>
      </trkpt>
      <trkpt lat="-2.727265" lon="-78.828491">
        <ele>2785.00</ele>
        <time>2018-09-08T19:46:17Z</time>
      </trkpt>
      <trkpt lat="-2.727182" lon="-78.828461">
        <ele>2785.00</ele>
        <time>2018-09-08T19:46:18Z</time>
      </trkpt>
      <trkpt lat="-2.727095" lon="-78.828430">
        <ele>2786.00</ele>
        <time>2018-09-08T19:46:19Z</time>
      </trkpt>
      <trkpt lat="-2.727006" lon="-78.828392">
        <ele>2786.00</ele>
        <time>2018-09-08T19:46:20Z</time>
      </trkpt>
      <trkpt lat="-2.726908" lon="-78.828354">
        <ele>2787.00</ele>
        <time>2018-09-08T19:46:21Z</time>
      </trkpt>
      <trkpt lat="-2.726798" lon="-78.828346">
        <ele>2788.00</ele>
        <time>2018-09-08T19:46:22Z</time>
      </trkpt>
      <trkpt lat="-2.726699" lon="-78.828293">
        <ele>2789.00</ele>
        <time>2018-09-08T19:46:23Z</time>
      </trkpt>
      <trkpt lat="-2.726601" lon="-78.828239">
        <ele>2790.00</ele>
        <time>2018-09-08T19:46:24Z</time>
      </trkpt>
      <trkpt lat="-2.726501" lon="-78.828178">
        <ele>2791.00</ele>
        <time>2018-09-08T19:46:25Z</time>
      </trkpt>
      <trkpt lat="-2.726399" lon="-78.828110">
        <ele>2792.00</ele>
        <time>2018-09-08T19:46:26Z</time>
      </trkpt>
      <trkpt lat="-2.726290" lon="-78.828026">
        <ele>2793.00</ele>
        <time>2018-09-08T19:46:27Z</time>
      </trkpt>
      <trkpt lat="-2.726188" lon="-78.827919">
        <ele>2794.00</ele>
        <time>2018-09-08T19:46:28Z</time>
      </trkpt>
      <trkpt lat="-2.726083" lon="-78.827820">
        <ele>2795.00</ele>
        <time>2018-09-08T19:46:29Z</time>
      </trkpt>
      <trkpt lat="-2.725972" lon="-78.827736">
        <ele>2797.00</ele>
        <time>2018-09-08T19:46:30Z</time>
      </trkpt>
      <trkpt lat="-2.725868" lon="-78.827637">
        <ele>2798.00</ele>
        <time>2018-09-08T19:46:31Z</time>
      </trkpt>
      <trkpt lat="-2.725779" lon="-78.827530">
        <ele>2800.00</ele>
        <time>2018-09-08T19:46:32Z</time>
      </trkpt>
      <trkpt lat="-2.725695" lon="-78.827415">
        <ele>2801.00</ele>
        <time>2018-09-08T19:46:33Z</time>
      </trkpt>
      <trkpt lat="-2.725615" lon="-78.827286">
        <ele>2803.00</ele>
        <time>2018-09-08T19:46:34Z</time>
      </trkpt>
      <trkpt lat="-2.725540" lon="-78.827179">
        <ele>2804.00</ele>
        <time>2018-09-08T19:46:35Z</time>
      </trkpt>
      <trkpt lat="-2.725473" lon="-78.827087">
        <ele>2806.00</ele>
        <time>2018-09-08T19:46:36Z</time>
      </trkpt>
      <trkpt lat="-2.725416" lon="-78.826981">
        <ele>2808.00</ele>
        <time>2018-09-08T19:46:37Z</time>
      </trkpt>
      <trkpt lat="-2.725360" lon="-78.826874">
        <ele>2810.00</ele>
        <time>2018-09-08T19:46:38Z</time>
      </trkpt>
      <trkpt lat="-2.725305" lon="-78.826775">
        <ele>2811.00</ele>
        <time>2018-09-08T19:46:39Z</time>
      </trkpt>
      <trkpt lat="-2.725253" lon="-78.826675">
        <ele>2813.00</ele>
        <time>2018-09-08T19:46:40Z</time>
      </trkpt>
      <trkpt lat="-2.725195" lon="-78.826599">
        <ele>2815.00</ele>
        <time>2018-09-08T19:46:41Z</time>
      </trkpt>
      <trkpt lat="-2.725139" lon="-78.826508">
        <ele>2817.00</ele>
        <time>2018-09-08T19:46:42Z</time>
      </trkpt>
      <trkpt lat="-2.725090" lon="-78.826416">
        <ele>2819.00</ele>
        <time>2018-09-08T19:46:43Z</time>
      </trkpt>
      <trkpt lat="-2.725039" lon="-78.826317">
        <ele>2821.00</ele>
        <time>2018-09-08T19:46:44Z</time>
      </trkpt>
      <trkpt lat="-2.724982" lon="-78.826241">
        <ele>2823.00</ele>
        <time>2018-09-08T19:46:45Z</time>
      </trkpt>
      <trkpt lat="-2.724925" lon="-78.826149">
        <ele>2825.00</ele>
        <time>2018-09-08T19:46:46Z</time>
      </trkpt>
      <trkpt lat="-2.724865" lon="-78.826065">
        <ele>2828.00</ele>
        <time>2018-09-08T19:46:47Z</time>
      </trkpt>
      <trkpt lat="-2.724785" lon="-78.825981">
        <ele>2830.00</ele>
        <time>2018-09-08T19:46:48Z</time>
      </trkpt>
      <trkpt lat="-2.724692" lon="-78.825905">
        <ele>2832.00</ele>
        <time>2018-09-08T19:46:49Z</time>
      </trkpt>
      <trkpt lat="-2.724596" lon="-78.825813">
        <ele>2833.00</ele>
        <time>2018-09-08T19:46:50Z</time>
      </trkpt>
      <trkpt lat="-2.724505" lon="-78.825722">
        <ele>2835.00</ele>
        <time>2018-09-08T19:46:51Z</time>
      </trkpt>
      <trkpt lat="-2.724422" lon="-78.825638">
        <ele>2837.00</ele>
        <time>2018-09-08T19:46:52Z</time>
      </trkpt>
      <trkpt lat="-2.724323" lon="-78.825562">
        <ele>2840.00</ele>
        <time>2018-09-08T19:46:53Z</time>
      </trkpt>
      <trkpt lat="-2.724195" lon="-78.825531">
        <ele>2842.00</ele>
        <time>2018-09-08T19:46:54Z</time>
      </trkpt>
      <trkpt lat="-2.724062" lon="-78.825493">
        <ele>2843.00</ele>
        <time>2018-09-08T19:46:55Z</time>
      </trkpt>
      <trkpt lat="-2.723947" lon="-78.825424">
        <ele>2845.00</ele>
        <time>2018-09-08T19:46:56Z</time>
      </trkpt>
      <trkpt lat="-2.723837" lon="-78.825333">
        <ele>2846.00</ele>
        <time>2018-09-08T19:46:57Z</time>
      </trkpt>
      <trkpt lat="-2.723726" lon="-78.825233">
        <ele>2847.00</ele>
        <time>2018-09-08T19:46:58Z</time>
      </trkpt>
      <trkpt lat="-2.723605" lon="-78.825134">
        <ele>2848.00</ele>
        <time>2018-09-08T19:46:59Z</time>
      </trkpt>
      <trkpt lat="-2.723469" lon="-78.825058">
        <ele>2849.00</ele>
        <time>2018-09-08T19:47:00Z</time>
      </trkpt>
      <trkpt lat="-2.723322" lon="-78.824974">
        <ele>2850.00</ele>
        <time>2018-09-08T19:47:01Z</time>
      </trkpt>
      <trkpt lat="-2.723171" lon="-78.824905">
        <ele>2851.00</ele>
        <time>2018-09-08T19:47:02Z</time>
      </trkpt>
      <trkpt lat="-2.723018" lon="-78.824837">
        <ele>2852.00</ele>
        <time>2018-09-08T19:47:03Z</time>
      </trkpt>
      <trkpt lat="-2.722865" lon="-78.824768">
        <ele>2852.00</ele>
        <time>2018-09-08T19:47:04Z</time>
      </trkpt>
      <trkpt lat="-2.722712" lon="-78.824692">
        <ele>2853.00</ele>
        <time>2018-09-08T19:47:05Z</time>
      </trkpt>
      <trkpt lat="-2.722575" lon="-78.824585">
        <ele>2854.00</ele>
        <time>2018-09-08T19:47:06Z</time>
      </trkpt>
      <trkpt lat="-2.722446" lon="-78.824478">
        <ele>2854.00</ele>
        <time>2018-09-08T19:47:07Z</time>
      </trkpt>
      <trkpt lat="-2.722304" lon="-78.824394">
        <ele>2855.00</ele>
        <time>2018-09-08T19:47:08Z</time>
      </trkpt>
      <trkpt lat="-2.722151" lon="-78.824326">
        <ele>2855.00</ele>
        <time>2018-09-08T19:47:09Z</time>
      </trkpt>
      <trkpt lat="-2.722006" lon="-78.824257">
        <ele>2856.00</ele>
        <time>2018-09-08T19:47:10Z</time>
      </trkpt>
      <trkpt lat="-2.721867" lon="-78.824188">
        <ele>2857.00</ele>
        <time>2018-09-08T19:47:11Z</time>
      </trkpt>
      <trkpt lat="-2.721741" lon="-78.824127">
        <ele>2858.00</ele>
        <time>2018-09-08T19:47:12Z</time>
      </trkpt>
      <trkpt lat="-2.721630" lon="-78.824051">
        <ele>2859.00</ele>
        <time>2018-09-08T19:47:13Z</time>
      </trkpt>
      <trkpt lat="-2.721536" lon="-78.823975">
        <ele>2860.00</ele>
        <time>2018-09-08T19:47:14Z</time>
      </trkpt>
      <trkpt lat="-2.721442" lon="-78.823891">
        <ele>2860.00</ele>
        <time>2018-09-08T19:47:15Z</time>
      </trkpt>
      <trkpt lat="-2.721339" lon="-78.823830">
        <ele>2862.00</ele>
        <time>2018-09-08T19:47:16Z</time>
      </trkpt>
      <trkpt lat="-2.721235" lon="-78.823776">
        <ele>2863.00</ele>
        <time>2018-09-08T19:47:17Z</time>
      </trkpt>
      <trkpt lat="-2.721147" lon="-78.823700">
        <ele>2865.00</ele>
        <time>2018-09-08T19:47:18Z</time>
      </trkpt>
      <trkpt lat="-2.721072" lon="-78.823608">
        <ele>2867.00</ele>
        <time>2018-09-08T19:47:19Z</time>
      </trkpt>
      <trkpt lat="-2.721000" lon="-78.823517">
        <ele>2868.00</ele>
        <time>2018-09-08T19:47:20Z</time>
      </trkpt>
      <trkpt lat="-2.720906" lon="-78.823463">
        <ele>2870.00</ele>
        <time>2018-09-08T19:47:21Z</time>
      </trkpt>
      <trkpt lat="-2.720783" lon="-78.823448">
        <ele>2872.00</ele>
        <time>2018-09-08T19:47:22Z</time>
      </trkpt>
      <trkpt lat="-2.720658" lon="-78.823433">
        <ele>2873.00</ele>
        <time>2018-09-08T19:47:23Z</time>
      </trkpt>
      <trkpt lat="-2.720528" lon="-78.823402">
        <ele>2875.00</ele>
        <time>2018-09-08T19:47:24Z</time>
      </trkpt>
      <trkpt lat="-2.720398" lon="-78.823387">
        <ele>2876.00</ele>
        <time>2018-09-08T19:47:25Z</time>
      </trkpt>
      <trkpt lat="-2.720268" lon="-78.823372">
        <ele>2878.00</ele>
        <time>2018-09-08T19:47:26Z</time>
      </trkpt>
      <trkpt lat="-2.720138" lon="-78.823357">
        <ele>2879.00</ele>
        <time>2018-09-08T19:47:27Z</time>
      </trkpt>
      <trkpt lat="-2.720016" lon="-78.823357">
        <ele>2880.00</ele>
        <time>2018-09-08T19:47:28Z</time>
      </trkpt>
      <trkpt lat="-2.719916" lon="-78.823334">
        <ele>2882.00</ele>
        <time>2018-09-08T19:47:29Z</time>
      </trkpt>
      <trkpt lat="-2.719837" lon="-78.823288">
        <ele>2883.00</ele>
        <time>2018-09-08T19:47:30Z</time>
      </trkpt>
      <trkpt lat="-2.719787" lon="-78.823212">
        <ele>2884.00</ele>
        <time>2018-09-08T19:47:31Z</time>
      </trkpt>
      <trkpt lat="-2.719757" lon="-78.823120">
        <ele>2886.00</ele>
        <time>2018-09-08T19:47:32Z</time>
      </trkpt>
      <trkpt lat="-2.719751" lon="-78.823029">
        <ele>2887.00</ele>
        <time>2018-09-08T19:47:33Z</time>
      </trkpt>
      <trkpt lat="-2.719766" lon="-78.822937">
        <ele>2889.00</ele>
        <time>2018-09-08T19:47:34Z</time>
      </trkpt>
      <trkpt lat="-2.719777" lon="-78.822853">
        <ele>2891.00</ele>
        <time>2018-09-08T19:47:35Z</time>
      </trkpt>
      <trkpt lat="-2.719758" lon="-78.822784">
        <ele>2893.00</ele>
        <time>2018-09-08T19:47:36Z</time>
      </trkpt>
      <trkpt lat="-2.719707" lon="-78.822731">
        <ele>2895.00</ele>
        <time>2018-09-08T19:47:37Z</time>
      </trkpt>
      <trkpt lat="-2.719653" lon="-78.822723">
        <ele>2897.00</ele>
        <time>2018-09-08T19:47:38Z</time>
      </trkpt>
      <trkpt lat="-2.719573" lon="-78.822746">
        <ele>2898.00</ele>
        <time>2018-09-08T19:47:39Z</time>
      </trkpt>
      <trkpt lat="-2.719479" lon="-78.822762">
        <ele>2900.00</ele>
        <time>2018-09-08T19:47:40Z</time>
      </trkpt>
      <trkpt lat="-2.719375" lon="-78.822784">
        <ele>2902.00</ele>
        <time>2018-09-08T19:47:41Z</time>
      </trkpt>
      <trkpt lat="-2.719265" lon="-78.822784">
        <ele>2904.00</ele>
        <time>2018-09-08T19:47:42Z</time>
      </trkpt>
      <trkpt lat="-2.719157" lon="-78.822754">
        <ele>2905.00</ele>
        <time>2018-09-08T19:47:43Z</time>
      </trkpt>
      <trkpt lat="-2.719054" lon="-78.822723">
        <ele>2907.00</ele>
        <time>2018-09-08T19:47:44Z</time>
      </trkpt>
      <trkpt lat="-2.718942" lon="-78.822708">
        <ele>2909.00</ele>
        <time>2018-09-08T19:47:45Z</time>
      </trkpt>
      <trkpt lat="-2.718825" lon="-78.822731">
        <ele>2910.00</ele>
        <time>2018-09-08T19:47:46Z</time>
      </trkpt>
      <trkpt lat="-2.718712" lon="-78.822784">
        <ele>2912.00</ele>
        <time>2018-09-08T19:47:47Z</time>
      </trkpt>
      <trkpt lat="-2.718610" lon="-78.822845">
        <ele>2913.00</ele>
        <time>2018-09-08T19:47:48Z</time>
      </trkpt>
      <trkpt lat="-2.718516" lon="-78.822891">
        <ele>2915.00</ele>
        <time>2018-09-08T19:47:49Z</time>
      </trkpt>
      <trkpt lat="-2.718435" lon="-78.822899">
        <ele>2916.00</ele>
        <time>2018-09-08T19:47:50Z</time>
      </trkpt>
      <trkpt lat="-2.718365" lon="-78.822891">
        <ele>2918.00</ele>
        <time>2018-09-08T19:47:51Z</time>
      </trkpt>
      <trkpt lat="-2.718286" lon="-78.822884">
        <ele>2919.00</ele>
        <time>2018-09-08T19:47:52Z</time>
      </trkpt>
      <trkpt lat="-2.718200" lon="-78.822891">
        <ele>2920.00</ele>
        <time>2018-09-08T19:47:53Z</time>
      </trkpt>
      <trkpt lat="-2.718108" lon="-78.822906">
        <ele>2921.00</ele>
        <time>2018-09-08T19:47:54Z</time>
      </trkpt>
      <trkpt lat="-2.718010" lon="-78.822937">
        <ele>2923.00</ele>
        <time>2018-09-08T19:47:55Z</time>
      </trkpt>
      <trkpt lat="-2.717902" lon="-78.822952">
        <ele>2924.00</ele>
        <time>2018-09-08T19:47:56Z</time>
      </trkpt>
      <trkpt lat="-2.717804" lon="-78.823006">
        <ele>2925.00</ele>
        <time>2018-09-08T19:47:57Z</time>
      </trkpt>
      <trkpt lat="-2.717711" lon="-78.823074">
        <ele>2926.00</ele>
        <time>2018-09-08T19:47:58Z</time>
      </trkpt>
      <trkpt lat="-2.717604" lon="-78.823135">
        <ele>2926.00</ele>
        <time>2018-09-08T19:47:59Z</time>
      </trkpt>
      <trkpt lat="-2.717485" lon="-78.823143">
        <ele>2927.00</ele>
        <time>2018-09-08T19:48:00Z</time>
      </trkpt>
      <trkpt lat="-2.717385" lon="-78.823128">
        <ele>2929.00</ele>
        <time>2018-09-08T19:48:01Z</time>
      </trkpt>
      <trkpt lat="-2.717287" lon="-78.823112">
        <ele>2931.00</ele>
        <time>2018-09-08T19:48:02Z</time>
      </trkpt>
      <trkpt lat="-2.717183" lon="-78.823105">
        <ele>2933.00</ele>
        <time>2018-09-08T19:48:03Z</time>
      </trkpt>
      <trkpt lat="-2.717065" lon="-78.823120">
        <ele>2935.00</ele>
        <time>2018-09-08T19:48:04Z</time>
      </trkpt>
      <trkpt lat="-2.716946" lon="-78.823166">
        <ele>2937.00</ele>
        <time>2018-09-08T19:48:05Z</time>
      </trkpt>
      <trkpt lat="-2.716832" lon="-78.823227">
        <ele>2939.00</ele>
        <time>2018-09-08T19:48:06Z</time>
      </trkpt>
      <trkpt lat="-2.716717" lon="-78.823296">
        <ele>2940.00</ele>
        <time>2018-09-08T19:48:07Z</time>
      </trkpt>
      <trkpt lat="-2.716600" lon="-78.823357">
        <ele>2942.00</ele>
        <time>2018-09-08T19:48:08Z</time>
      </trkpt>
      <trkpt lat="-2.716485" lon="-78.823402">
        <ele>2943.00</ele>
        <time>2018-09-08T19:48:09Z</time>
      </trkpt>
      <trkpt lat="-2.716381" lon="-78.823456">
        <ele>2944.00</ele>
        <time>2018-09-08T19:48:10Z</time>
      </trkpt>
      <trkpt lat="-2.716281" lon="-78.823494">
        <ele>2946.00</ele>
        <time>2018-09-08T19:48:11Z</time>
      </trkpt>
      <trkpt lat="-2.716192" lon="-78.823494">
        <ele>2947.00</ele>
        <time>2018-09-08T19:48:12Z</time>
      </trkpt>
      <trkpt lat="-2.716101" lon="-78.823494">
        <ele>2948.00</ele>
        <time>2018-09-08T19:48:13Z</time>
      </trkpt>
      <trkpt lat="-2.716006" lon="-78.823463">
        <ele>2949.00</ele>
        <time>2018-09-08T19:48:14Z</time>
      </trkpt>
      <trkpt lat="-2.715916" lon="-78.823425">
        <ele>2950.00</ele>
        <time>2018-09-08T19:48:15Z</time>
      </trkpt>
      <trkpt lat="-2.715840" lon="-78.823380">
        <ele>2951.00</ele>
        <time>2018-09-08T19:48:16Z</time>
      </trkpt>
      <trkpt lat="-2.715765" lon="-78.823387">
        <ele>2952.00</ele>
        <time>2018-09-08T19:48:17Z</time>
      </trkpt>
      <trkpt lat="-2.715688" lon="-78.823380">
        <ele>2953.00</ele>
        <time>2018-09-08T19:48:18Z</time>
      </trkpt>
      <trkpt lat="-2.715612" lon="-78.823387">
        <ele>2953.00</ele>
        <time>2018-09-08T19:48:19Z</time>
      </trkpt>
      <trkpt lat="-2.715543" lon="-78.823395">
        <ele>2954.00</ele>
        <time>2018-09-08T19:48:20Z</time>
      </trkpt>
      <trkpt lat="-2.715471" lon="-78.823395">
        <ele>2955.00</ele>
        <time>2018-09-08T19:48:21Z</time>
      </trkpt>
      <trkpt lat="-2.715394" lon="-78.823387">
        <ele>2956.00</ele>
        <time>2018-09-08T19:48:23Z</time>
      </trkpt>
      <trkpt lat="-2.715326" lon="-78.823380">
        <ele>2957.00</ele>
        <time>2018-09-08T19:48:24Z</time>
      </trkpt>
      <trkpt lat="-2.715268" lon="-78.823372">
        <ele>2957.00</ele>
        <time>2018-09-08T19:48:25Z</time>
      </trkpt>
      <trkpt lat="-2.715220" lon="-78.823349">
        <ele>2958.00</ele>
        <time>2018-09-08T19:48:26Z</time>
      </trkpt>
      <trkpt lat="-2.715168" lon="-78.823334">
        <ele>2959.00</ele>
        <time>2018-09-08T19:48:27Z</time>
      </trkpt>
      <trkpt lat="-2.715105" lon="-78.823303">
        <ele>2960.00</ele>
        <time>2018-09-08T19:48:28Z</time>
      </trkpt>
      <trkpt lat="-2.715028" lon="-78.823280">
        <ele>2960.00</ele>
        <time>2018-09-08T19:48:29Z</time>
      </trkpt>
      <trkpt lat="-2.714940" lon="-78.823242">
        <ele>2961.00</ele>
        <time>2018-09-08T19:48:30Z</time>
      </trkpt>
      <trkpt lat="-2.714850" lon="-78.823212">
        <ele>2962.00</ele>
        <time>2018-09-08T19:48:31Z</time>
      </trkpt>
      <trkpt lat="-2.714756" lon="-78.823181">
        <ele>2963.00</ele>
        <time>2018-09-08T19:48:32Z</time>
      </trkpt>
      <trkpt lat="-2.714655" lon="-78.823158">
        <ele>2964.00</ele>
        <time>2018-09-08T19:48:33Z</time>
      </trkpt>
      <trkpt lat="-2.714555" lon="-78.823112">
        <ele>2965.00</ele>
        <time>2018-09-08T19:48:34Z</time>
      </trkpt>
      <trkpt lat="-2.714447" lon="-78.823074">
        <ele>2966.00</ele>
        <time>2018-09-08T19:48:35Z</time>
      </trkpt>
      <trkpt lat="-2.714334" lon="-78.823036">
        <ele>2967.00</ele>
        <time>2018-09-08T19:48:36Z</time>
      </trkpt>
      <trkpt lat="-2.714224" lon="-78.823013">
        <ele>2969.00</ele>
        <time>2018-09-08T19:48:37Z</time>
      </trkpt>
      <trkpt lat="-2.714139" lon="-78.822998">
        <ele>2970.00</ele>
        <time>2018-09-08T19:48:38Z</time>
      </trkpt>
      <trkpt lat="-2.714070" lon="-78.822968">
        <ele>2972.00</ele>
        <time>2018-09-08T19:48:39Z</time>
      </trkpt>
      <trkpt lat="-2.714002" lon="-78.822952">
        <ele>2973.00</ele>
        <time>2018-09-08T19:48:40Z</time>
      </trkpt>
      <trkpt lat="-2.713929" lon="-78.822922">
        <ele>2975.00</ele>
        <time>2018-09-08T19:48:41Z</time>
      </trkpt>
      <trkpt lat="-2.713859" lon="-78.822884">
        <ele>2977.00</ele>
        <time>2018-09-08T19:48:42Z</time>
      </trkpt>
      <trkpt lat="-2.713806" lon="-78.822815">
        <ele>2979.00</ele>
        <time>2018-09-08T19:48:43Z</time>
      </trkpt>
      <trkpt lat="-2.713765" lon="-78.822754">
        <ele>2981.00</ele>
        <time>2018-09-08T19:48:44Z</time>
      </trkpt>
      <trkpt lat="-2.713727" lon="-78.822693">
        <ele>2983.00</ele>
        <time>2018-09-08T19:48:45Z</time>
      </trkpt>
      <trkpt lat="-2.713682" lon="-78.822624">
        <ele>2985.00</ele>
        <time>2018-09-08T19:48:46Z</time>
      </trkpt>
      <trkpt lat="-2.713624" lon="-78.822563">
        <ele>2987.00</ele>
        <time>2018-09-08T19:48:47Z</time>
      </trkpt>
      <trkpt lat="-2.713563" lon="-78.822479">
        <ele>2988.00</ele>
        <time>2018-09-08T19:48:48Z</time>
      </trkpt>
      <trkpt lat="-2.713498" lon="-78.822380">
        <ele>2990.00</ele>
        <time>2018-09-08T19:48:49Z</time>
      </trkpt>
      <trkpt lat="-2.713424" lon="-78.822296">
        <ele>2991.00</ele>
        <time>2018-09-08T19:48:50Z</time>
      </trkpt>
      <trkpt lat="-2.713340" lon="-78.822189">
        <ele>2993.00</ele>
        <time>2018-09-08T19:48:51Z</time>
      </trkpt>
      <trkpt lat="-2.713266" lon="-78.822083">
        <ele>2994.00</ele>
        <time>2018-09-08T19:48:52Z</time>
      </trkpt>
      <trkpt lat="-2.713196" lon="-78.821968">
        <ele>2995.00</ele>
        <time>2018-09-08T19:48:53Z</time>
      </trkpt>
      <trkpt lat="-2.713115" lon="-78.821884">
        <ele>2996.00</ele>
        <time>2018-09-08T19:48:54Z</time>
      </trkpt>
      <trkpt lat="-2.713023" lon="-78.821823">
        <ele>2997.00</ele>
        <time>2018-09-08T19:48:55Z</time>
      </trkpt>
      <trkpt lat="-2.712907" lon="-78.821808">
        <ele>2998.00</ele>
        <time>2018-09-08T19:48:56Z</time>
      </trkpt>
      <trkpt lat="-2.712787" lon="-78.821785">
        <ele>2999.00</ele>
        <time>2018-09-08T19:48:57Z</time>
      </trkpt>
      <trkpt lat="-2.712676" lon="-78.821732">
        <ele>3000.00</ele>
        <time>2018-09-08T19:48:58Z</time>
      </trkpt>
      <trkpt lat="-2.712574" lon="-78.821678">
        <ele>3001.00</ele>
        <time>2018-09-08T19:48:59Z</time>
      </trkpt>
      <trkpt lat="-2.712461" lon="-78.821648">
        <ele>3002.00</ele>
        <time>2018-09-08T19:49:00Z</time>
      </trkpt>
      <trkpt lat="-2.712332" lon="-78.821655">
        <ele>3003.00</ele>
        <time>2018-09-08T19:49:01Z</time>
      </trkpt>
      <trkpt lat="-2.712204" lon="-78.821671">
        <ele>3004.00</ele>
        <time>2018-09-08T19:49:02Z</time>
      </trkpt>
      <trkpt lat="-2.712080" lon="-78.821648">
        <ele>3005.00</ele>
        <time>2018-09-08T19:49:03Z</time>
      </trkpt>
      <trkpt lat="-2.711966" lon="-78.821617">
        <ele>3005.00</ele>
        <time>2018-09-08T19:49:04Z</time>
      </trkpt>
      <trkpt lat="-2.711864" lon="-78.821602">
        <ele>3006.00</ele>
        <time>2018-09-08T19:49:05Z</time>
      </trkpt>
      <trkpt lat="-2.711780" lon="-78.821632">
        <ele>3007.00</ele>
        <time>2018-09-08T19:49:06Z</time>
      </trkpt>
      <trkpt lat="-2.711717" lon="-78.821686">
        <ele>3008.00</ele>
        <time>2018-09-08T19:49:07Z</time>
      </trkpt>
      <trkpt lat="-2.711690" lon="-78.821785">
        <ele>3008.00</ele>
        <time>2018-09-08T19:49:08Z</time>
      </trkpt>
      <trkpt lat="-2.711663" lon="-78.821884">
        <ele>3009.00</ele>
        <time>2018-09-08T19:49:09Z</time>
      </trkpt>
      <trkpt lat="-2.711594" lon="-78.821953">
        <ele>3010.00</ele>
        <time>2018-09-08T19:49:10Z</time>
      </trkpt>
      <trkpt lat="-2.711504" lon="-78.822006">
        <ele>3010.00</ele>
        <time>2018-09-08T19:49:11Z</time>
      </trkpt>
      <trkpt lat="-2.711403" lon="-78.822021">
        <ele>3011.00</ele>
        <time>2018-09-08T19:49:12Z</time>
      </trkpt>
      <trkpt lat="-2.711297" lon="-78.822037">
        <ele>3012.00</ele>
        <time>2018-09-08T19:49:13Z</time>
      </trkpt>
      <trkpt lat="-2.711194" lon="-78.822090">
        <ele>3013.00</ele>
        <time>2018-09-08T19:49:14Z</time>
      </trkpt>
      <trkpt lat="-2.711091" lon="-78.822151">
        <ele>3014.00</ele>
        <time>2018-09-08T19:49:15Z</time>
      </trkpt>
      <trkpt lat="-2.710992" lon="-78.822212">
        <ele>3015.00</ele>
        <time>2018-09-08T19:49:16Z</time>
      </trkpt>
      <trkpt lat="-2.710890" lon="-78.822273">
        <ele>3017.00</ele>
        <time>2018-09-08T19:49:17Z</time>
      </trkpt>
      <trkpt lat="-2.710782" lon="-78.822334">
        <ele>3019.00</ele>
        <time>2018-09-08T19:49:18Z</time>
      </trkpt>
      <trkpt lat="-2.710685" lon="-78.822403">
        <ele>3021.00</ele>
        <time>2018-09-08T19:49:19Z</time>
      </trkpt>
      <trkpt lat="-2.710593" lon="-78.822433">
        <ele>3022.00</ele>
        <time>2018-09-08T19:49:20Z</time>
      </trkpt>
      <trkpt lat="-2.710495" lon="-78.822426">
        <ele>3024.00</ele>
        <time>2018-09-08T19:49:21Z</time>
      </trkpt>
      <trkpt lat="-2.710402" lon="-78.822372">
        <ele>3026.00</ele>
        <time>2018-09-08T19:49:22Z</time>
      </trkpt>
      <trkpt lat="-2.710317" lon="-78.822311">
        <ele>3028.00</ele>
        <time>2018-09-08T19:49:23Z</time>
      </trkpt>
      <trkpt lat="-2.710271" lon="-78.822205">
        <ele>3029.00</ele>
        <time>2018-09-08T19:49:24Z</time>
      </trkpt>
      <trkpt lat="-2.710217" lon="-78.822083">
        <ele>3030.00</ele>
        <time>2018-09-08T19:49:25Z</time>
      </trkpt>
      <trkpt lat="-2.710161" lon="-78.821945">
        <ele>3031.00</ele>
        <time>2018-09-08T19:49:26Z</time>
      </trkpt>
      <trkpt lat="-2.710103" lon="-78.821815">
        <ele>3033.00</ele>
        <time>2018-09-08T19:49:27Z</time>
      </trkpt>
      <trkpt lat="-2.710039" lon="-78.821686">
        <ele>3034.00</ele>
        <time>2018-09-08T19:49:28Z</time>
      </trkpt>
      <trkpt lat="-2.709969" lon="-78.821579">
        <ele>3035.00</ele>
        <time>2018-09-08T19:49:29Z</time>
      </trkpt>
      <trkpt lat="-2.709878" lon="-78.821495">
        <ele>3036.00</ele>
        <time>2018-09-08T19:49:30Z</time>
      </trkpt>
      <trkpt lat="-2.709768" lon="-78.821457">
        <ele>3037.00</ele>
        <time>2018-09-08T19:49:31Z</time>
      </trkpt>
      <trkpt lat="-2.709645" lon="-78.821434">
        <ele>3038.00</ele>
        <time>2018-09-08T19:49:32Z</time>
      </trkpt>
      <trkpt lat="-2.709514" lon="-78.821419">
        <ele>3039.00</ele>
        <time>2018-09-08T19:49:33Z</time>
      </trkpt>
      <trkpt lat="-2.709384" lon="-78.821396">
        <ele>3040.00</ele>
        <time>2018-09-08T19:49:34Z</time>
      </trkpt>
      <trkpt lat="-2.709248" lon="-78.821381">
        <ele>3041.00</ele>
        <time>2018-09-08T19:49:35Z</time>
      </trkpt>
      <trkpt lat="-2.709110" lon="-78.821358">
        <ele>3042.00</ele>
        <time>2018-09-08T19:49:36Z</time>
      </trkpt>
      <trkpt lat="-2.708996" lon="-78.821350">
        <ele>3043.00</ele>
        <time>2018-09-08T19:49:37Z</time>
      </trkpt>
      <trkpt lat="-2.708893" lon="-78.821350">
        <ele>3044.00</ele>
        <time>2018-09-08T19:49:38Z</time>
      </trkpt>
      <trkpt lat="-2.708801" lon="-78.821404">
        <ele>3045.00</ele>
        <time>2018-09-08T19:49:39Z</time>
      </trkpt>
      <trkpt lat="-2.708730" lon="-78.821487">
        <ele>3045.00</ele>
        <time>2018-09-08T19:49:40Z</time>
      </trkpt>
      <trkpt lat="-2.708683" lon="-78.821594">
        <ele>3046.00</ele>
        <time>2018-09-08T19:49:41Z</time>
      </trkpt>
      <trkpt lat="-2.708640" lon="-78.821709">
        <ele>3047.00</ele>
        <time>2018-09-08T19:49:42Z</time>
      </trkpt>
      <trkpt lat="-2.708583" lon="-78.821815">
        <ele>3048.00</ele>
        <time>2018-09-08T19:49:43Z</time>
      </trkpt>
      <trkpt lat="-2.708503" lon="-78.821915">
        <ele>3048.00</ele>
        <time>2018-09-08T19:49:44Z</time>
      </trkpt>
      <trkpt lat="-2.708385" lon="-78.821953">
        <ele>3049.00</ele>
        <time>2018-09-08T19:49:45Z</time>
      </trkpt>
      <trkpt lat="-2.708241" lon="-78.821999">
        <ele>3050.00</ele>
        <time>2018-09-08T19:49:46Z</time>
      </trkpt>
      <trkpt lat="-2.708090" lon="-78.822060">
        <ele>3051.00</ele>
        <time>2018-09-08T19:49:47Z</time>
      </trkpt>
      <trkpt lat="-2.707936" lon="-78.822121">
        <ele>3051.00</ele>
        <time>2018-09-08T19:49:48Z</time>
      </trkpt>
      <trkpt lat="-2.707785" lon="-78.822174">
        <ele>3052.00</ele>
        <time>2018-09-08T19:49:49Z</time>
      </trkpt>
      <trkpt lat="-2.707639" lon="-78.822220">
        <ele>3053.00</ele>
        <time>2018-09-08T19:49:50Z</time>
      </trkpt>
      <trkpt lat="-2.707511" lon="-78.822250">
        <ele>3054.00</ele>
        <time>2018-09-08T19:49:51Z</time>
      </trkpt>
      <trkpt lat="-2.707401" lon="-78.822243">
        <ele>3055.00</ele>
        <time>2018-09-08T19:49:52Z</time>
      </trkpt>
      <trkpt lat="-2.707325" lon="-78.822174">
        <ele>3055.00</ele>
        <time>2018-09-08T19:49:53Z</time>
      </trkpt>
      <trkpt lat="-2.707293" lon="-78.822090">
        <ele>3056.00</ele>
        <time>2018-09-08T19:49:54Z</time>
      </trkpt>
      <trkpt lat="-2.707298" lon="-78.821983">
        <ele>3057.00</ele>
        <time>2018-09-08T19:49:55Z</time>
      </trkpt>
      <trkpt lat="-2.707332" lon="-78.821884">
        <ele>3057.00</ele>
        <time>2018-09-08T19:49:56Z</time>
      </trkpt>
      <trkpt lat="-2.707395" lon="-78.821808">
        <ele>3059.00</ele>
        <time>2018-09-08T19:49:57Z</time>
      </trkpt>
      <trkpt lat="-2.707489" lon="-78.821732">
        <ele>3060.00</ele>
        <time>2018-09-08T19:49:58Z</time>
      </trkpt>
      <trkpt lat="-2.707577" lon="-78.821678">
        <ele>3061.00</ele>
        <time>2018-09-08T19:49:59Z</time>
      </trkpt>
      <trkpt lat="-2.707652" lon="-78.821609">
        <ele>3062.00</ele>
        <time>2018-09-08T19:50:00Z</time>
      </trkpt>
      <trkpt lat="-2.707683" lon="-78.821518">
        <ele>3062.00</ele>
        <time>2018-09-08T19:50:01Z</time>
      </trkpt>
      <trkpt lat="-2.707683" lon="-78.821442">
        <ele>3064.00</ele>
        <time>2018-09-08T19:50:02Z</time>
      </trkpt>
      <trkpt lat="-2.707651" lon="-78.821335">
        <ele>3065.00</ele>
        <time>2018-09-08T19:50:03Z</time>
      </trkpt>
      <trkpt lat="-2.707621" lon="-78.821205">
        <ele>3066.00</ele>
        <time>2018-09-08T19:50:04Z</time>
      </trkpt>
      <trkpt lat="-2.707602" lon="-78.821075">
        <ele>3068.00</ele>
        <time>2018-09-08T19:50:05Z</time>
      </trkpt>
      <trkpt lat="-2.707589" lon="-78.820930">
        <ele>3071.00</ele>
        <time>2018-09-08T19:50:06Z</time>
      </trkpt>
      <trkpt lat="-2.707584" lon="-78.820793">
        <ele>3073.00</ele>
        <time>2018-09-08T19:50:07Z</time>
      </trkpt>
      <trkpt lat="-2.707577" lon="-78.820663">
        <ele>3075.00</ele>
        <time>2018-09-08T19:50:08Z</time>
      </trkpt>
      <trkpt lat="-2.707547" lon="-78.820572">
        <ele>3078.00</ele>
        <time>2018-09-08T19:50:09Z</time>
      </trkpt>
      <trkpt lat="-2.707500" lon="-78.820526">
        <ele>3080.00</ele>
        <time>2018-09-08T19:50:10Z</time>
      </trkpt>
      <trkpt lat="-2.707439" lon="-78.820518">
        <ele>3081.00</ele>
        <time>2018-09-08T19:50:11Z</time>
      </trkpt>
      <trkpt lat="-2.707369" lon="-78.820572">
        <ele>3083.00</ele>
        <time>2018-09-08T19:50:12Z</time>
      </trkpt>
      <trkpt lat="-2.707261" lon="-78.820641">
        <ele>3084.00</ele>
        <time>2018-09-08T19:50:13Z</time>
      </trkpt>
      <trkpt lat="-2.707145" lon="-78.820709">
        <ele>3084.00</ele>
        <time>2018-09-08T19:50:14Z</time>
      </trkpt>
      <trkpt lat="-2.707027" lon="-78.820801">
        <ele>3085.00</ele>
        <time>2018-09-08T19:50:15Z</time>
      </trkpt>
      <trkpt lat="-2.706909" lon="-78.820908">
        <ele>3085.00</ele>
        <time>2018-09-08T19:50:16Z</time>
      </trkpt>
      <trkpt lat="-2.706789" lon="-78.821022">
        <ele>3086.00</ele>
        <time>2018-09-08T19:50:17Z</time>
      </trkpt>
      <trkpt lat="-2.706673" lon="-78.821129">
        <ele>3086.00</ele>
        <time>2018-09-08T19:50:18Z</time>
      </trkpt>
      <trkpt lat="-2.706567" lon="-78.821236">
        <ele>3086.00</ele>
        <time>2018-09-08T19:50:19Z</time>
      </trkpt>
      <trkpt lat="-2.706445" lon="-78.821304">
        <ele>3086.00</ele>
        <time>2018-09-08T19:50:20Z</time>
      </trkpt>
      <trkpt lat="-2.706320" lon="-78.821350">
        <ele>3087.00</ele>
        <time>2018-09-08T19:50:21Z</time>
      </trkpt>
      <trkpt lat="-2.706190" lon="-78.821358">
        <ele>3087.00</ele>
        <time>2018-09-08T19:50:22Z</time>
      </trkpt>
      <trkpt lat="-2.706063" lon="-78.821342">
        <ele>3088.00</ele>
        <time>2018-09-08T19:50:23Z</time>
      </trkpt>
      <trkpt lat="-2.705953" lon="-78.821274">
        <ele>3089.00</ele>
        <time>2018-09-08T19:50:24Z</time>
      </trkpt>
      <trkpt lat="-2.705856" lon="-78.821175">
        <ele>3090.00</ele>
        <time>2018-09-08T19:50:25Z</time>
      </trkpt>
      <trkpt lat="-2.705760" lon="-78.821083">
        <ele>3090.00</ele>
        <time>2018-09-08T19:50:26Z</time>
      </trkpt>
      <trkpt lat="-2.705647" lon="-78.821022">
        <ele>3091.00</ele>
        <time>2018-09-08T19:50:27Z</time>
      </trkpt>
      <trkpt lat="-2.705516" lon="-78.821007">
        <ele>3092.00</ele>
        <time>2018-09-08T19:50:28Z</time>
      </trkpt>
      <trkpt lat="-2.705370" lon="-78.820984">
        <ele>3093.00</ele>
        <time>2018-09-08T19:50:29Z</time>
      </trkpt>
      <trkpt lat="-2.705213" lon="-78.820976">
        <ele>3093.00</ele>
        <time>2018-09-08T19:50:30Z</time>
      </trkpt>
      <trkpt lat="-2.705062" lon="-78.820961">
        <ele>3093.00</ele>
        <time>2018-09-08T19:50:31Z</time>
      </trkpt>
      <trkpt lat="-2.704918" lon="-78.820915">
        <ele>3094.00</ele>
        <time>2018-09-08T19:50:32Z</time>
      </trkpt>
      <trkpt lat="-2.704783" lon="-78.820862">
        <ele>3094.00</ele>
        <time>2018-09-08T19:50:33Z</time>
      </trkpt>
      <trkpt lat="-2.704665" lon="-78.820770">
        <ele>3094.00</ele>
        <time>2018-09-08T19:50:34Z</time>
      </trkpt>
      <trkpt lat="-2.704570" lon="-78.820656">
        <ele>3094.00</ele>
        <time>2018-09-08T19:50:35Z</time>
      </trkpt>
      <trkpt lat="-2.704489" lon="-78.820541">
        <ele>3095.00</ele>
        <time>2018-09-08T19:50:36Z</time>
      </trkpt>
      <trkpt lat="-2.704424" lon="-78.820419">
        <ele>3095.00</ele>
        <time>2018-09-08T19:50:37Z</time>
      </trkpt>
      <trkpt lat="-2.704374" lon="-78.820282">
        <ele>3095.00</ele>
        <time>2018-09-08T19:50:38Z</time>
      </trkpt>
      <trkpt lat="-2.704327" lon="-78.820152">
        <ele>3095.00</ele>
        <time>2018-09-08T19:50:39Z</time>
      </trkpt>
      <trkpt lat="-2.704284" lon="-78.820007">
        <ele>3096.00</ele>
        <time>2018-09-08T19:50:40Z</time>
      </trkpt>
      <trkpt lat="-2.704238" lon="-78.819878">
        <ele>3097.00</ele>
        <time>2018-09-08T19:50:41Z</time>
      </trkpt>
      <trkpt lat="-2.704182" lon="-78.819748">
        <ele>3098.00</ele>
        <time>2018-09-08T19:50:42Z</time>
      </trkpt>
      <trkpt lat="-2.704103" lon="-78.819626">
        <ele>3098.00</ele>
        <time>2018-09-08T19:50:43Z</time>
      </trkpt>
      <trkpt lat="-2.704004" lon="-78.819504">
        <ele>3099.00</ele>
        <time>2018-09-08T19:50:44Z</time>
      </trkpt>
      <trkpt lat="-2.703899" lon="-78.819366">
        <ele>3099.00</ele>
        <time>2018-09-08T19:50:45Z</time>
      </trkpt>
      <trkpt lat="-2.703814" lon="-78.819229">
        <ele>3100.00</ele>
        <time>2018-09-08T19:50:46Z</time>
      </trkpt>
      <trkpt lat="-2.703734" lon="-78.819069">
        <ele>3100.00</ele>
        <time>2018-09-08T19:50:47Z</time>
      </trkpt>
      <trkpt lat="-2.703658" lon="-78.818909">
        <ele>3100.00</ele>
        <time>2018-09-08T19:50:48Z</time>
      </trkpt>
      <trkpt lat="-2.703592" lon="-78.818741">
        <ele>3100.00</ele>
        <time>2018-09-08T19:50:49Z</time>
      </trkpt>
      <trkpt lat="-2.703533" lon="-78.818558">
        <ele>3100.00</ele>
        <time>2018-09-08T19:50:50Z</time>
      </trkpt>
      <trkpt lat="-2.703470" lon="-78.818375">
        <ele>3101.00</ele>
        <time>2018-09-08T19:50:51Z</time>
      </trkpt>
      <trkpt lat="-2.703404" lon="-78.818184">
        <ele>3101.00</ele>
        <time>2018-09-08T19:50:52Z</time>
      </trkpt>
      <trkpt lat="-2.703331" lon="-78.818001">
        <ele>3101.00</ele>
        <time>2018-09-08T19:50:53Z</time>
      </trkpt>
      <trkpt lat="-2.703261" lon="-78.817810">
        <ele>3101.00</ele>
        <time>2018-09-08T19:50:54Z</time>
      </trkpt>
      <trkpt lat="-2.703187" lon="-78.817635">
        <ele>3101.00</ele>
        <time>2018-09-08T19:50:55Z</time>
      </trkpt>
      <trkpt lat="-2.703110" lon="-78.817459">
        <ele>3101.00</ele>
        <time>2018-09-08T19:50:56Z</time>
      </trkpt>
      <trkpt lat="-2.703027" lon="-78.817291">
        <ele>3101.00</ele>
        <time>2018-09-08T19:50:57Z</time>
      </trkpt>
      <trkpt lat="-2.702947" lon="-78.817123">
        <ele>3102.00</ele>
        <time>2018-09-08T19:50:58Z</time>
      </trkpt>
      <trkpt lat="-2.702874" lon="-78.816940">
        <ele>3102.00</ele>
        <time>2018-09-08T19:50:59Z</time>
      </trkpt>
      <trkpt lat="-2.702817" lon="-78.816772">
        <ele>3103.00</ele>
        <time>2018-09-08T19:51:00Z</time>
      </trkpt>
      <trkpt lat="-2.702767" lon="-78.816605">
        <ele>3103.00</ele>
        <time>2018-09-08T19:51:01Z</time>
      </trkpt>
      <trkpt lat="-2.702722" lon="-78.816444">
        <ele>3104.00</ele>
        <time>2018-09-08T19:51:02Z</time>
      </trkpt>
      <trkpt lat="-2.702670" lon="-78.816277">
        <ele>3105.00</ele>
        <time>2018-09-08T19:51:03Z</time>
      </trkpt>
      <trkpt lat="-2.702605" lon="-78.816139">
        <ele>3105.00</ele>
        <time>2018-09-08T19:51:04Z</time>
      </trkpt>
      <trkpt lat="-2.702548" lon="-78.816017">
        <ele>3106.00</ele>
        <time>2018-09-08T19:51:05Z</time>
      </trkpt>
      <trkpt lat="-2.702518" lon="-78.815895">
        <ele>3107.00</ele>
        <time>2018-09-08T19:51:06Z</time>
      </trkpt>
      <trkpt lat="-2.702529" lon="-78.815758">
        <ele>3108.00</ele>
        <time>2018-09-08T19:51:07Z</time>
      </trkpt>
      <trkpt lat="-2.702573" lon="-78.815636">
        <ele>3108.00</ele>
        <time>2018-09-08T19:51:08Z</time>
      </trkpt>
      <trkpt lat="-2.702617" lon="-78.815506">
        <ele>3109.00</ele>
        <time>2018-09-08T19:51:09Z</time>
      </trkpt>
      <trkpt lat="-2.702652" lon="-78.815361">
        <ele>3110.00</ele>
        <time>2018-09-08T19:51:10Z</time>
      </trkpt>
      <trkpt lat="-2.702666" lon="-78.815216">
        <ele>3111.00</ele>
        <time>2018-09-08T19:51:11Z</time>
      </trkpt>
      <trkpt lat="-2.702659" lon="-78.815063">
        <ele>3112.00</ele>
        <time>2018-09-08T19:51:12Z</time>
      </trkpt>
      <trkpt lat="-2.702636" lon="-78.814919">
        <ele>3113.00</ele>
        <time>2018-09-08T19:51:13Z</time>
      </trkpt>
      <trkpt lat="-2.702609" lon="-78.814758">
        <ele>3114.00</ele>
        <time>2018-09-08T19:51:14Z</time>
      </trkpt>
      <trkpt lat="-2.702583" lon="-78.814590">
        <ele>3114.00</ele>
        <time>2018-09-08T19:51:15Z</time>
      </trkpt>
      <trkpt lat="-2.702558" lon="-78.814415">
        <ele>3115.00</ele>
        <time>2018-09-08T19:51:16Z</time>
      </trkpt>
      <trkpt lat="-2.702534" lon="-78.814255">
        <ele>3116.00</ele>
        <time>2018-09-08T19:51:17Z</time>
      </trkpt>
      <trkpt lat="-2.702509" lon="-78.814087">
        <ele>3117.00</ele>
        <time>2018-09-08T19:51:18Z</time>
      </trkpt>
      <trkpt lat="-2.702476" lon="-78.813927">
        <ele>3117.00</ele>
        <time>2018-09-08T19:51:19Z</time>
      </trkpt>
      <trkpt lat="-2.702435" lon="-78.813759">
        <ele>3118.00</ele>
        <time>2018-09-08T19:51:20Z</time>
      </trkpt>
      <trkpt lat="-2.702387" lon="-78.813591">
        <ele>3119.00</ele>
        <time>2018-09-08T19:51:21Z</time>
      </trkpt>
      <trkpt lat="-2.702339" lon="-78.813431">
        <ele>3119.00</ele>
        <time>2018-09-08T19:51:22Z</time>
      </trkpt>
      <trkpt lat="-2.702292" lon="-78.813263">
        <ele>3120.00</ele>
        <time>2018-09-08T19:51:23Z</time>
      </trkpt>
      <trkpt lat="-2.702243" lon="-78.813103">
        <ele>3120.00</ele>
        <time>2018-09-08T19:51:24Z</time>
      </trkpt>
      <trkpt lat="-2.702209" lon="-78.812943">
        <ele>3121.00</ele>
        <time>2018-09-08T19:51:25Z</time>
      </trkpt>
      <trkpt lat="-2.702186" lon="-78.812790">
        <ele>3121.00</ele>
        <time>2018-09-08T19:51:26Z</time>
      </trkpt>
      <trkpt lat="-2.702166" lon="-78.812653">
        <ele>3121.00</ele>
        <time>2018-09-08T19:51:27Z</time>
      </trkpt>
      <trkpt lat="-2.702139" lon="-78.812508">
        <ele>3122.00</ele>
        <time>2018-09-08T19:51:28Z</time>
      </trkpt>
      <trkpt lat="-2.702091" lon="-78.812370">
        <ele>3122.00</ele>
        <time>2018-09-08T19:51:29Z</time>
      </trkpt>
      <trkpt lat="-2.702033" lon="-78.812233">
        <ele>3122.00</ele>
        <time>2018-09-08T19:51:30Z</time>
      </trkpt>
      <trkpt lat="-2.701965" lon="-78.812103">
        <ele>3122.00</ele>
        <time>2018-09-08T19:51:31Z</time>
      </trkpt>
      <trkpt lat="-2.701878" lon="-78.811981">
        <ele>3123.00</ele>
        <time>2018-09-08T19:51:32Z</time>
      </trkpt>
      <trkpt lat="-2.701802" lon="-78.811859">
        <ele>3123.00</ele>
        <time>2018-09-08T19:51:33Z</time>
      </trkpt>
      <trkpt lat="-2.701754" lon="-78.811714">
        <ele>3123.00</ele>
        <time>2018-09-08T19:51:34Z</time>
      </trkpt>
      <trkpt lat="-2.701722" lon="-78.811584">
        <ele>3123.00</ele>
        <time>2018-09-08T19:51:35Z</time>
      </trkpt>
      <trkpt lat="-2.701689" lon="-78.811440">
        <ele>3123.00</ele>
        <time>2018-09-08T19:51:36Z</time>
      </trkpt>
      <trkpt lat="-2.701669" lon="-78.811295">
        <ele>3123.00</ele>
        <time>2018-09-08T19:51:37Z</time>
      </trkpt>
      <trkpt lat="-2.701668" lon="-78.811157">
        <ele>3122.00</ele>
        <time>2018-09-08T19:51:38Z</time>
      </trkpt>
      <trkpt lat="-2.701678" lon="-78.810989">
        <ele>3122.00</ele>
        <time>2018-09-08T19:51:39Z</time>
      </trkpt>
      <trkpt lat="-2.701694" lon="-78.810822">
        <ele>3122.00</ele>
        <time>2018-09-08T19:51:40Z</time>
      </trkpt>
      <trkpt lat="-2.701711" lon="-78.810661">
        <ele>3122.00</ele>
        <time>2018-09-08T19:51:41Z</time>
      </trkpt>
      <trkpt lat="-2.701719" lon="-78.810509">
        <ele>3122.00</ele>
        <time>2018-09-08T19:51:42Z</time>
      </trkpt>
      <trkpt lat="-2.701738" lon="-78.810356">
        <ele>3121.00</ele>
        <time>2018-09-08T19:51:43Z</time>
      </trkpt>
      <trkpt lat="-2.701780" lon="-78.810211">
        <ele>3121.00</ele>
        <time>2018-09-08T19:51:44Z</time>
      </trkpt>
      <trkpt lat="-2.701838" lon="-78.810097">
        <ele>3121.00</ele>
        <time>2018-09-08T19:51:45Z</time>
      </trkpt>
      <trkpt lat="-2.701888" lon="-78.809998">
        <ele>3121.00</ele>
        <time>2018-09-08T19:51:46Z</time>
      </trkpt>
      <trkpt lat="-2.701929" lon="-78.809891">
        <ele>3121.00</ele>
        <time>2018-09-08T19:51:47Z</time>
      </trkpt>
      <trkpt lat="-2.701971" lon="-78.809784">
        <ele>3120.00</ele>
        <time>2018-09-08T19:51:48Z</time>
      </trkpt>
      <trkpt lat="-2.702011" lon="-78.809662">
        <ele>3120.00</ele>
        <time>2018-09-08T19:51:49Z</time>
      </trkpt>
      <trkpt lat="-2.702059" lon="-78.809517">
        <ele>3120.00</ele>
        <time>2018-09-08T19:51:50Z</time>
      </trkpt>
      <trkpt lat="-2.702114" lon="-78.809380">
        <ele>3119.00</ele>
        <time>2018-09-08T19:51:51Z</time>
      </trkpt>
      <trkpt lat="-2.702174" lon="-78.809242">
        <ele>3119.00</ele>
        <time>2018-09-08T19:51:52Z</time>
      </trkpt>
      <trkpt lat="-2.702237" lon="-78.809105">
        <ele>3119.00</ele>
        <time>2018-09-08T19:51:53Z</time>
      </trkpt>
      <trkpt lat="-2.702301" lon="-78.808968">
        <ele>3119.00</ele>
        <time>2018-09-08T19:51:54Z</time>
      </trkpt>
      <trkpt lat="-2.702367" lon="-78.808846">
        <ele>3119.00</ele>
        <time>2018-09-08T19:51:55Z</time>
      </trkpt>
      <trkpt lat="-2.702437" lon="-78.808708">
        <ele>3118.00</ele>
        <time>2018-09-08T19:51:56Z</time>
      </trkpt>
      <trkpt lat="-2.702508" lon="-78.808578">
        <ele>3118.00</ele>
        <time>2018-09-08T19:51:57Z</time>
      </trkpt>
      <trkpt lat="-2.702582" lon="-78.808434">
        <ele>3117.00</ele>
        <time>2018-09-08T19:51:58Z</time>
      </trkpt>
      <trkpt lat="-2.702654" lon="-78.808296">
        <ele>3116.00</ele>
        <time>2018-09-08T19:51:59Z</time>
      </trkpt>
      <trkpt lat="-2.702732" lon="-78.808144">
        <ele>3116.00</ele>
        <time>2018-09-08T19:52:00Z</time>
      </trkpt>
      <trkpt lat="-2.702827" lon="-78.808006">
        <ele>3116.00</ele>
        <time>2018-09-08T19:52:01Z</time>
      </trkpt>
      <trkpt lat="-2.702919" lon="-78.807877">
        <ele>3115.00</ele>
        <time>2018-09-08T19:52:02Z</time>
      </trkpt>
      <trkpt lat="-2.702995" lon="-78.807770">
        <ele>3115.00</ele>
        <time>2018-09-08T19:52:03Z</time>
      </trkpt>
      <trkpt lat="-2.703056" lon="-78.807671">
        <ele>3115.00</ele>
        <time>2018-09-08T19:52:04Z</time>
      </trkpt>
      <trkpt lat="-2.703097" lon="-78.807571">
        <ele>3115.00</ele>
        <time>2018-09-08T19:52:05Z</time>
      </trkpt>
      <trkpt lat="-2.703112" lon="-78.807457">
        <ele>3115.00</ele>
        <time>2018-09-08T19:52:06Z</time>
      </trkpt>
      <trkpt lat="-2.703076" lon="-78.807343">
        <ele>3115.00</ele>
        <time>2018-09-08T19:52:07Z</time>
      </trkpt>
      <trkpt lat="-2.703002" lon="-78.807236">
        <ele>3115.00</ele>
        <time>2018-09-08T19:52:08Z</time>
      </trkpt>
      <trkpt lat="-2.702913" lon="-78.807129">
        <ele>3115.00</ele>
        <time>2018-09-08T19:52:09Z</time>
      </trkpt>
      <trkpt lat="-2.702815" lon="-78.807014">
        <ele>3115.00</ele>
        <time>2018-09-08T19:52:10Z</time>
      </trkpt>
      <trkpt lat="-2.702724" lon="-78.806900">
        <ele>3115.00</ele>
        <time>2018-09-08T19:52:11Z</time>
      </trkpt>
      <trkpt lat="-2.702632" lon="-78.806793">
        <ele>3115.00</ele>
        <time>2018-09-08T19:52:12Z</time>
      </trkpt>
      <trkpt lat="-2.702537" lon="-78.806686">
        <ele>3115.00</ele>
        <time>2018-09-08T19:52:13Z</time>
      </trkpt>
      <trkpt lat="-2.702452" lon="-78.806587">
        <ele>3115.00</ele>
        <time>2018-09-08T19:52:14Z</time>
      </trkpt>
      <trkpt lat="-2.702393" lon="-78.806480">
        <ele>3115.00</ele>
        <time>2018-09-08T19:52:15Z</time>
      </trkpt>
      <trkpt lat="-2.702352" lon="-78.806366">
        <ele>3115.00</ele>
        <time>2018-09-08T19:52:16Z</time>
      </trkpt>
      <trkpt lat="-2.702344" lon="-78.806229">
        <ele>3115.00</ele>
        <time>2018-09-08T19:52:17Z</time>
      </trkpt>
      <trkpt lat="-2.702363" lon="-78.806099">
        <ele>3116.00</ele>
        <time>2018-09-08T19:52:18Z</time>
      </trkpt>
      <trkpt lat="-2.702391" lon="-78.805984">
        <ele>3116.00</ele>
        <time>2018-09-08T19:52:19Z</time>
      </trkpt>
      <trkpt lat="-2.702424" lon="-78.805885">
        <ele>3116.00</ele>
        <time>2018-09-08T19:52:20Z</time>
      </trkpt>
      <trkpt lat="-2.702418" lon="-78.805786">
        <ele>3116.00</ele>
        <time>2018-09-08T19:52:21Z</time>
      </trkpt>
      <trkpt lat="-2.702351" lon="-78.805687">
        <ele>3117.00</ele>
        <time>2018-09-08T19:52:22Z</time>
      </trkpt>
      <trkpt lat="-2.702249" lon="-78.805618">
        <ele>3117.00</ele>
        <time>2018-09-08T19:52:23Z</time>
      </trkpt>
      <trkpt lat="-2.702116" lon="-78.805573">
        <ele>3117.00</ele>
        <time>2018-09-08T19:52:24Z</time>
      </trkpt>
      <trkpt lat="-2.701973" lon="-78.805550">
        <ele>3117.00</ele>
        <time>2018-09-08T19:52:25Z</time>
      </trkpt>
      <trkpt lat="-2.701832" lon="-78.805527">
        <ele>3117.00</ele>
        <time>2018-09-08T19:52:26Z</time>
      </trkpt>
      <trkpt lat="-2.701692" lon="-78.805496">
        <ele>3118.00</ele>
        <time>2018-09-08T19:52:27Z</time>
      </trkpt>
      <trkpt lat="-2.701556" lon="-78.805466">
        <ele>3118.00</ele>
        <time>2018-09-08T19:52:28Z</time>
      </trkpt>
      <trkpt lat="-2.701447" lon="-78.805420">
        <ele>3118.00</ele>
        <time>2018-09-08T19:52:29Z</time>
      </trkpt>
      <trkpt lat="-2.701370" lon="-78.805367">
        <ele>3119.00</ele>
        <time>2018-09-08T19:52:30Z</time>
      </trkpt>
      <trkpt lat="-2.701305" lon="-78.805283">
        <ele>3119.00</ele>
        <time>2018-09-08T19:52:31Z</time>
      </trkpt>
      <trkpt lat="-2.701268" lon="-78.805176">
        <ele>3119.00</ele>
        <time>2018-09-08T19:52:32Z</time>
      </trkpt>
      <trkpt lat="-2.701263" lon="-78.805046">
        <ele>3119.00</ele>
        <time>2018-09-08T19:52:33Z</time>
      </trkpt>
      <trkpt lat="-2.701298" lon="-78.804916">
        <ele>3120.00</ele>
        <time>2018-09-08T19:52:34Z</time>
      </trkpt>
      <trkpt lat="-2.701345" lon="-78.804794">
        <ele>3120.00</ele>
        <time>2018-09-08T19:52:35Z</time>
      </trkpt>
      <trkpt lat="-2.701371" lon="-78.804665">
        <ele>3120.00</ele>
        <time>2018-09-08T19:52:36Z</time>
      </trkpt>
      <trkpt lat="-2.701386" lon="-78.804550">
        <ele>3120.00</ele>
        <time>2018-09-08T19:52:37Z</time>
      </trkpt>
      <trkpt lat="-2.701407" lon="-78.804436">
        <ele>3120.00</ele>
        <time>2018-09-08T19:52:38Z</time>
      </trkpt>
      <trkpt lat="-2.701436" lon="-78.804329">
        <ele>3120.00</ele>
        <time>2018-09-08T19:52:39Z</time>
      </trkpt>
      <trkpt lat="-2.701457" lon="-78.804237">
        <ele>3120.00</ele>
        <time>2018-09-08T19:52:40Z</time>
      </trkpt>
      <trkpt lat="-2.701448" lon="-78.804131">
        <ele>3120.00</ele>
        <time>2018-09-08T19:52:41Z</time>
      </trkpt>
      <trkpt lat="-2.701421" lon="-78.804016">
        <ele>3120.00</ele>
        <time>2018-09-08T19:52:42Z</time>
      </trkpt>
      <trkpt lat="-2.701375" lon="-78.803886">
        <ele>3120.00</ele>
        <time>2018-09-08T19:52:43Z</time>
      </trkpt>
      <trkpt lat="-2.701315" lon="-78.803772">
        <ele>3120.00</ele>
        <time>2018-09-08T19:52:44Z</time>
      </trkpt>
      <trkpt lat="-2.701264" lon="-78.803680">
        <ele>3120.00</ele>
        <time>2018-09-08T19:52:45Z</time>
      </trkpt>
      <trkpt lat="-2.701249" lon="-78.803574">
        <ele>3120.00</ele>
        <time>2018-09-08T19:52:46Z</time>
      </trkpt>
      <trkpt lat="-2.701283" lon="-78.803467">
        <ele>3120.00</ele>
        <time>2018-09-08T19:52:47Z</time>
      </trkpt>
      <trkpt lat="-2.701345" lon="-78.803368">
        <ele>3119.00</ele>
        <time>2018-09-08T19:52:48Z</time>
      </trkpt>
      <trkpt lat="-2.701440" lon="-78.803268">
        <ele>3119.00</ele>
        <time>2018-09-08T19:52:49Z</time>
      </trkpt>
      <trkpt lat="-2.701529" lon="-78.803177">
        <ele>3119.00</ele>
        <time>2018-09-08T19:52:50Z</time>
      </trkpt>
      <trkpt lat="-2.701612" lon="-78.803085">
        <ele>3119.00</ele>
        <time>2018-09-08T19:52:51Z</time>
      </trkpt>
      <trkpt lat="-2.701670" lon="-78.802963">
        <ele>3119.00</ele>
        <time>2018-09-08T19:52:52Z</time>
      </trkpt>
      <trkpt lat="-2.701710" lon="-78.802818">
        <ele>3119.00</ele>
        <time>2018-09-08T19:52:53Z</time>
      </trkpt>
      <trkpt lat="-2.701735" lon="-78.802666">
        <ele>3119.00</ele>
        <time>2018-09-08T19:52:54Z</time>
      </trkpt>
      <trkpt lat="-2.701762" lon="-78.802505">
        <ele>3119.00</ele>
        <time>2018-09-08T19:52:55Z</time>
      </trkpt>
      <trkpt lat="-2.701791" lon="-78.802345">
        <ele>3119.00</ele>
        <time>2018-09-08T19:52:56Z</time>
      </trkpt>
      <trkpt lat="-2.701821" lon="-78.802193">
        <ele>3119.00</ele>
        <time>2018-09-08T19:52:57Z</time>
      </trkpt>
      <trkpt lat="-2.701820" lon="-78.802032">
        <ele>3119.00</ele>
        <time>2018-09-08T19:52:58Z</time>
      </trkpt>
      <trkpt lat="-2.701824" lon="-78.801865">
        <ele>3119.00</ele>
        <time>2018-09-08T19:52:59Z</time>
      </trkpt>
      <trkpt lat="-2.701843" lon="-78.801704">
        <ele>3119.00</ele>
        <time>2018-09-08T19:53:00Z</time>
      </trkpt>
      <trkpt lat="-2.701856" lon="-78.801575">
        <ele>3119.00</ele>
        <time>2018-09-08T19:53:01Z</time>
      </trkpt>
      <trkpt lat="-2.701860" lon="-78.801460">
        <ele>3119.00</ele>
        <time>2018-09-08T19:53:02Z</time>
      </trkpt>
      <trkpt lat="-2.701840" lon="-78.801346">
        <ele>3119.00</ele>
        <time>2018-09-08T19:53:03Z</time>
      </trkpt>
      <trkpt lat="-2.701786" lon="-78.801224">
        <ele>3119.00</ele>
        <time>2018-09-08T19:53:04Z</time>
      </trkpt>
      <trkpt lat="-2.701685" lon="-78.801132">
        <ele>3119.00</ele>
        <time>2018-09-08T19:53:05Z</time>
      </trkpt>
      <trkpt lat="-2.701554" lon="-78.801048">
        <ele>3119.00</ele>
        <time>2018-09-08T19:53:06Z</time>
      </trkpt>
      <trkpt lat="-2.701414" lon="-78.800957">
        <ele>3119.00</ele>
        <time>2018-09-08T19:53:07Z</time>
      </trkpt>
      <trkpt lat="-2.701289" lon="-78.800850">
        <ele>3119.00</ele>
        <time>2018-09-08T19:53:08Z</time>
      </trkpt>
      <trkpt lat="-2.701177" lon="-78.800728">
        <ele>3118.00</ele>
        <time>2018-09-08T19:53:09Z</time>
      </trkpt>
      <trkpt lat="-2.701078" lon="-78.800606">
        <ele>3118.00</ele>
        <time>2018-09-08T19:53:10Z</time>
      </trkpt>
      <trkpt lat="-2.700991" lon="-78.800468">
        <ele>3118.00</ele>
        <time>2018-09-08T19:53:11Z</time>
      </trkpt>
      <trkpt lat="-2.700914" lon="-78.800331">
        <ele>3118.00</ele>
        <time>2018-09-08T19:53:12Z</time>
      </trkpt>
      <trkpt lat="-2.700845" lon="-78.800186">
        <ele>3118.00</ele>
        <time>2018-09-08T19:53:13Z</time>
      </trkpt>
      <trkpt lat="-2.700788" lon="-78.800034">
        <ele>3118.00</ele>
        <time>2018-09-08T19:53:14Z</time>
      </trkpt>
      <trkpt lat="-2.700758" lon="-78.799881">
        <ele>3118.00</ele>
        <time>2018-09-08T19:53:15Z</time>
      </trkpt>
      <trkpt lat="-2.700754" lon="-78.799736">
        <ele>3118.00</ele>
        <time>2018-09-08T19:53:16Z</time>
      </trkpt>
      <trkpt lat="-2.700756" lon="-78.799576">
        <ele>3118.00</ele>
        <time>2018-09-08T19:53:17Z</time>
      </trkpt>
      <trkpt lat="-2.700762" lon="-78.799416">
        <ele>3118.00</ele>
        <time>2018-09-08T19:53:18Z</time>
      </trkpt>
      <trkpt lat="-2.700763" lon="-78.799248">
        <ele>3118.00</ele>
        <time>2018-09-08T19:53:19Z</time>
      </trkpt>
      <trkpt lat="-2.700771" lon="-78.799072">
        <ele>3118.00</ele>
        <time>2018-09-08T19:53:20Z</time>
      </trkpt>
      <trkpt lat="-2.700810" lon="-78.798904">
        <ele>3118.00</ele>
        <time>2018-09-08T19:53:21Z</time>
      </trkpt>
      <trkpt lat="-2.700860" lon="-78.798775">
        <ele>3117.00</ele>
        <time>2018-09-08T19:53:22Z</time>
      </trkpt>
      <trkpt lat="-2.700901" lon="-78.798637">
        <ele>3117.00</ele>
        <time>2018-09-08T19:53:23Z</time>
      </trkpt>
      <trkpt lat="-2.700938" lon="-78.798508">
        <ele>3117.00</ele>
        <time>2018-09-08T19:53:24Z</time>
      </trkpt>
      <trkpt lat="-2.700979" lon="-78.798370">
        <ele>3117.00</ele>
        <time>2018-09-08T19:53:25Z</time>
      </trkpt>
      <trkpt lat="-2.701045" lon="-78.798241">
        <ele>3117.00</ele>
        <time>2018-09-08T19:53:26Z</time>
      </trkpt>
      <trkpt lat="-2.701133" lon="-78.798134">
        <ele>3117.00</ele>
        <time>2018-09-08T19:53:27Z</time>
      </trkpt>
      <trkpt lat="-2.701216" lon="-78.798019">
        <ele>3117.00</ele>
        <time>2018-09-08T19:53:28Z</time>
      </trkpt>
      <trkpt lat="-2.701290" lon="-78.797882">
        <ele>3117.00</ele>
        <time>2018-09-08T19:53:29Z</time>
      </trkpt>
      <trkpt lat="-2.701365" lon="-78.797752">
        <ele>3117.00</ele>
        <time>2018-09-08T19:53:30Z</time>
      </trkpt>
      <trkpt lat="-2.701437" lon="-78.797607">
        <ele>3118.00</ele>
        <time>2018-09-08T19:53:31Z</time>
      </trkpt>
      <trkpt lat="-2.701498" lon="-78.797478">
        <ele>3118.00</ele>
        <time>2018-09-08T19:53:32Z</time>
      </trkpt>
      <trkpt lat="-2.701550" lon="-78.797325">
        <ele>3118.00</ele>
        <time>2018-09-08T19:53:33Z</time>
      </trkpt>
      <trkpt lat="-2.701585" lon="-78.797211">
        <ele>3119.00</ele>
        <time>2018-09-08T19:53:34Z</time>
      </trkpt>
      <trkpt lat="-2.701620" lon="-78.797112">
        <ele>3119.00</ele>
        <time>2018-09-08T19:53:35Z</time>
      </trkpt>
      <trkpt lat="-2.701659" lon="-78.797043">
        <ele>3119.00</ele>
        <time>2018-09-08T19:53:36Z</time>
      </trkpt>
      <trkpt lat="-2.701691" lon="-78.796959">
        <ele>3120.00</ele>
        <time>2018-09-08T19:53:37Z</time>
      </trkpt>
      <trkpt lat="-2.701699" lon="-78.796860">
        <ele>3120.00</ele>
        <time>2018-09-08T19:53:38Z</time>
      </trkpt>
      <trkpt lat="-2.701706" lon="-78.796745">
        <ele>3120.00</ele>
        <time>2018-09-08T19:53:39Z</time>
      </trkpt>
      <trkpt lat="-2.701722" lon="-78.796638">
        <ele>3121.00</ele>
        <time>2018-09-08T19:53:40Z</time>
      </trkpt>
      <trkpt lat="-2.701734" lon="-78.796532">
        <ele>3121.00</ele>
        <time>2018-09-08T19:53:41Z</time>
      </trkpt>
      <trkpt lat="-2.701738" lon="-78.796432">
        <ele>3121.00</ele>
        <time>2018-09-08T19:53:42Z</time>
      </trkpt>
      <trkpt lat="-2.701718" lon="-78.796349">
        <ele>3122.00</ele>
        <time>2018-09-08T19:53:43Z</time>
      </trkpt>
      <trkpt lat="-2.701671" lon="-78.796242">
        <ele>3122.00</ele>
        <time>2018-09-08T19:53:44Z</time>
      </trkpt>
      <trkpt lat="-2.701614" lon="-78.796127">
        <ele>3122.00</ele>
        <time>2018-09-08T19:53:45Z</time>
      </trkpt>
      <trkpt lat="-2.701571" lon="-78.795990">
        <ele>3123.00</ele>
        <time>2018-09-08T19:53:46Z</time>
      </trkpt>
      <trkpt lat="-2.701541" lon="-78.795860">
        <ele>3124.00</ele>
        <time>2018-09-08T19:53:47Z</time>
      </trkpt>
      <trkpt lat="-2.701511" lon="-78.795723">
        <ele>3124.00</ele>
        <time>2018-09-08T19:53:48Z</time>
      </trkpt>
      <trkpt lat="-2.701480" lon="-78.795601">
        <ele>3125.00</ele>
        <time>2018-09-08T19:53:49Z</time>
      </trkpt>
      <trkpt lat="-2.701436" lon="-78.795486">
        <ele>3125.00</ele>
        <time>2018-09-08T19:53:50Z</time>
      </trkpt>
      <trkpt lat="-2.701375" lon="-78.795372">
        <ele>3126.00</ele>
        <time>2018-09-08T19:53:51Z</time>
      </trkpt>
      <trkpt lat="-2.701319" lon="-78.795273">
        <ele>3127.00</ele>
        <time>2018-09-08T19:53:52Z</time>
      </trkpt>
      <trkpt lat="-2.701291" lon="-78.795166">
        <ele>3127.00</ele>
        <time>2018-09-08T19:53:53Z</time>
      </trkpt>
      <trkpt lat="-2.701261" lon="-78.795052">
        <ele>3128.00</ele>
        <time>2018-09-08T19:53:54Z</time>
      </trkpt>
      <trkpt lat="-2.701227" lon="-78.794922">
        <ele>3128.00</ele>
        <time>2018-09-08T19:53:55Z</time>
      </trkpt>
      <trkpt lat="-2.701212" lon="-78.794792">
        <ele>3128.00</ele>
        <time>2018-09-08T19:53:56Z</time>
      </trkpt>
      <trkpt lat="-2.701201" lon="-78.794655">
        <ele>3129.00</ele>
        <time>2018-09-08T19:53:57Z</time>
      </trkpt>
      <trkpt lat="-2.701177" lon="-78.794525">
        <ele>3129.00</ele>
        <time>2018-09-08T19:53:58Z</time>
      </trkpt>
      <trkpt lat="-2.701137" lon="-78.794388">
        <ele>3129.00</ele>
        <time>2018-09-08T19:53:59Z</time>
      </trkpt>
      <trkpt lat="-2.701108" lon="-78.794250">
        <ele>3130.00</ele>
        <time>2018-09-08T19:54:00Z</time>
      </trkpt>
      <trkpt lat="-2.701092" lon="-78.794113">
        <ele>3130.00</ele>
        <time>2018-09-08T19:54:01Z</time>
      </trkpt>
      <trkpt lat="-2.701075" lon="-78.793991">
        <ele>3130.00</ele>
        <time>2018-09-08T19:54:02Z</time>
      </trkpt>
      <trkpt lat="-2.701066" lon="-78.793869">
        <ele>3130.00</ele>
        <time>2018-09-08T19:54:03Z</time>
      </trkpt>
      <trkpt lat="-2.701037" lon="-78.793762">
        <ele>3130.00</ele>
        <time>2018-09-08T19:54:04Z</time>
      </trkpt>
      <trkpt lat="-2.700982" lon="-78.793655">
        <ele>3130.00</ele>
        <time>2018-09-08T19:54:05Z</time>
      </trkpt>
      <trkpt lat="-2.700897" lon="-78.793549">
        <ele>3130.00</ele>
        <time>2018-09-08T19:54:06Z</time>
      </trkpt>
      <trkpt lat="-2.700800" lon="-78.793449">
        <ele>3131.00</ele>
        <time>2018-09-08T19:54:07Z</time>
      </trkpt>
      <trkpt lat="-2.700704" lon="-78.793350">
        <ele>3131.00</ele>
        <time>2018-09-08T19:54:08Z</time>
      </trkpt>
      <trkpt lat="-2.700617" lon="-78.793243">
        <ele>3131.00</ele>
        <time>2018-09-08T19:54:09Z</time>
      </trkpt>
      <trkpt lat="-2.700540" lon="-78.793137">
        <ele>3131.00</ele>
        <time>2018-09-08T19:54:10Z</time>
      </trkpt>
      <trkpt lat="-2.700461" lon="-78.793053">
        <ele>3132.00</ele>
        <time>2018-09-08T19:54:11Z</time>
      </trkpt>
      <trkpt lat="-2.700379" lon="-78.792953">
        <ele>3132.00</ele>
        <time>2018-09-08T19:54:12Z</time>
      </trkpt>
      <trkpt lat="-2.700305" lon="-78.792854">
        <ele>3132.00</ele>
        <time>2018-09-08T19:54:13Z</time>
      </trkpt>
      <trkpt lat="-2.700248" lon="-78.792747">
        <ele>3132.00</ele>
        <time>2018-09-08T19:54:14Z</time>
      </trkpt>
      <trkpt lat="-2.700208" lon="-78.792633">
        <ele>3132.00</ele>
        <time>2018-09-08T19:54:15Z</time>
      </trkpt>
      <trkpt lat="-2.700164" lon="-78.792534">
        <ele>3132.00</ele>
        <time>2018-09-08T19:54:16Z</time>
      </trkpt>
      <trkpt lat="-2.700114" lon="-78.792442">
        <ele>3133.00</ele>
        <time>2018-09-08T19:54:17Z</time>
      </trkpt>
      <trkpt lat="-2.700061" lon="-78.792358">
        <ele>3133.00</ele>
        <time>2018-09-08T19:54:18Z</time>
      </trkpt>
      <trkpt lat="-2.700024" lon="-78.792259">
        <ele>3133.00</ele>
        <time>2018-09-08T19:54:19Z</time>
      </trkpt>
      <trkpt lat="-2.699991" lon="-78.792168">
        <ele>3133.00</ele>
        <time>2018-09-08T19:54:20Z</time>
      </trkpt>
      <trkpt lat="-2.699938" lon="-78.792084">
        <ele>3133.00</ele>
        <time>2018-09-08T19:54:21Z</time>
      </trkpt>
      <trkpt lat="-2.699865" lon="-78.792015">
        <ele>3133.00</ele>
        <time>2018-09-08T19:54:22Z</time>
      </trkpt>
      <trkpt lat="-2.699760" lon="-78.791992">
        <ele>3133.00</ele>
        <time>2018-09-08T19:54:23Z</time>
      </trkpt>
      <trkpt lat="-2.699645" lon="-78.791992">
        <ele>3133.00</ele>
        <time>2018-09-08T19:54:24Z</time>
      </trkpt>
      <trkpt lat="-2.699528" lon="-78.792007">
        <ele>3133.00</ele>
        <time>2018-09-08T19:54:25Z</time>
      </trkpt>
      <trkpt lat="-2.699420" lon="-78.792053">
        <ele>3133.00</ele>
        <time>2018-09-08T19:54:26Z</time>
      </trkpt>
      <trkpt lat="-2.699324" lon="-78.792114">
        <ele>3133.00</ele>
        <time>2018-09-08T19:54:27Z</time>
      </trkpt>
      <trkpt lat="-2.699227" lon="-78.792175">
        <ele>3133.00</ele>
        <time>2018-09-08T19:54:28Z</time>
      </trkpt>
      <trkpt lat="-2.699127" lon="-78.792229">
        <ele>3133.00</ele>
        <time>2018-09-08T19:54:29Z</time>
      </trkpt>
      <trkpt lat="-2.699028" lon="-78.792252">
        <ele>3133.00</ele>
        <time>2018-09-08T19:54:30Z</time>
      </trkpt>
      <trkpt lat="-2.698928" lon="-78.792259">
        <ele>3133.00</ele>
        <time>2018-09-08T19:54:31Z</time>
      </trkpt>
      <trkpt lat="-2.698822" lon="-78.792267">
        <ele>3133.00</ele>
        <time>2018-09-08T19:54:32Z</time>
      </trkpt>
      <trkpt lat="-2.698709" lon="-78.792252">
        <ele>3133.00</ele>
        <time>2018-09-08T19:54:33Z</time>
      </trkpt>
      <trkpt lat="-2.698606" lon="-78.792213">
        <ele>3133.00</ele>
        <time>2018-09-08T19:54:34Z</time>
      </trkpt>
      <trkpt lat="-2.698526" lon="-78.792152">
        <ele>3133.00</ele>
        <time>2018-09-08T19:54:35Z</time>
      </trkpt>
      <trkpt lat="-2.698437" lon="-78.792107">
        <ele>3134.00</ele>
        <time>2018-09-08T19:54:36Z</time>
      </trkpt>
      <trkpt lat="-2.698349" lon="-78.792061">
        <ele>3134.00</ele>
        <time>2018-09-08T19:54:37Z</time>
      </trkpt>
      <trkpt lat="-2.698269" lon="-78.792015">
        <ele>3134.00</ele>
        <time>2018-09-08T19:54:38Z</time>
      </trkpt>
      <trkpt lat="-2.698203" lon="-78.791977">
        <ele>3134.00</ele>
        <time>2018-09-08T19:54:39Z</time>
      </trkpt>
      <trkpt lat="-2.698128" lon="-78.791954">
        <ele>3134.00</ele>
        <time>2018-09-08T19:54:40Z</time>
      </trkpt>
      <trkpt lat="-2.698041" lon="-78.791985">
        <ele>3134.00</ele>
        <time>2018-09-08T19:54:41Z</time>
      </trkpt>
      <trkpt lat="-2.697961" lon="-78.792015">
        <ele>3134.00</ele>
        <time>2018-09-08T19:54:42Z</time>
      </trkpt>
      <trkpt lat="-2.697899" lon="-78.792084">
        <ele>3134.00</ele>
        <time>2018-09-08T19:54:43Z</time>
      </trkpt>
      <trkpt lat="-2.697873" lon="-78.792160">
        <ele>3134.00</ele>
        <time>2018-09-08T19:54:44Z</time>
      </trkpt>
      <trkpt lat="-2.697889" lon="-78.792267">
        <ele>3134.00</ele>
        <time>2018-09-08T19:54:45Z</time>
      </trkpt>
      <trkpt lat="-2.697914" lon="-78.792374">
        <ele>3135.00</ele>
        <time>2018-09-08T19:54:46Z</time>
      </trkpt>
      <trkpt lat="-2.697931" lon="-78.792480">
        <ele>3135.00</ele>
        <time>2018-09-08T19:54:47Z</time>
      </trkpt>
      <trkpt lat="-2.697941" lon="-78.792572">
        <ele>3135.00</ele>
        <time>2018-09-08T19:54:48Z</time>
      </trkpt>
      <trkpt lat="-2.697922" lon="-78.792633">
        <ele>3135.00</ele>
        <time>2018-09-08T19:54:49Z</time>
      </trkpt>
      <trkpt lat="-2.697880" lon="-78.792686">
        <ele>3135.00</ele>
        <time>2018-09-08T19:54:50Z</time>
      </trkpt>
      <trkpt lat="-2.697812" lon="-78.792694">
        <ele>3135.00</ele>
        <time>2018-09-08T19:54:51Z</time>
      </trkpt>
      <trkpt lat="-2.697753" lon="-78.792625">
        <ele>3135.00</ele>
        <time>2018-09-08T19:54:52Z</time>
      </trkpt>
      <trkpt lat="-2.697698" lon="-78.792534">
        <ele>3135.00</ele>
        <time>2018-09-08T19:54:53Z</time>
      </trkpt>
      <trkpt lat="-2.697653" lon="-78.792435">
        <ele>3135.00</ele>
        <time>2018-09-08T19:54:54Z</time>
      </trkpt>
      <trkpt lat="-2.697607" lon="-78.792336">
        <ele>3135.00</ele>
        <time>2018-09-08T19:54:55Z</time>
      </trkpt>
      <trkpt lat="-2.697576" lon="-78.792252">
        <ele>3135.00</ele>
        <time>2018-09-08T19:54:56Z</time>
      </trkpt>
      <trkpt lat="-2.697544" lon="-78.792168">
        <ele>3135.00</ele>
        <time>2018-09-08T19:54:57Z</time>
      </trkpt>
      <trkpt lat="-2.697490" lon="-78.792107">
        <ele>3135.00</ele>
        <time>2018-09-08T19:54:58Z</time>
      </trkpt>
      <trkpt lat="-2.697411" lon="-78.792091">
        <ele>3135.00</ele>
        <time>2018-09-08T19:54:59Z</time>
      </trkpt>
      <trkpt lat="-2.697323" lon="-78.792084">
        <ele>3135.00</ele>
        <time>2018-09-08T19:55:00Z</time>
      </trkpt>
      <trkpt lat="-2.697246" lon="-78.792030">
        <ele>3135.00</ele>
        <time>2018-09-08T19:55:01Z</time>
      </trkpt>
      <trkpt lat="-2.697190" lon="-78.791946">
        <ele>3135.00</ele>
        <time>2018-09-08T19:55:02Z</time>
      </trkpt>
      <trkpt lat="-2.697133" lon="-78.791893">
        <ele>3135.00</ele>
        <time>2018-09-08T19:55:03Z</time>
      </trkpt>
      <trkpt lat="-2.697081" lon="-78.791855">
        <ele>3135.00</ele>
        <time>2018-09-08T19:55:04Z</time>
      </trkpt>
      <trkpt lat="-2.697031" lon="-78.791824">
        <ele>3135.00</ele>
        <time>2018-09-08T19:55:05Z</time>
      </trkpt>
      <trkpt lat="-2.696972" lon="-78.791817">
        <ele>3135.00</ele>
        <time>2018-09-08T19:55:06Z</time>
      </trkpt>
      <trkpt lat="-2.696911" lon="-78.791801">
        <ele>3135.00</ele>
        <time>2018-09-08T19:55:07Z</time>
      </trkpt>
      <trkpt lat="-2.696845" lon="-78.791817">
        <ele>3135.00</ele>
        <time>2018-09-08T19:55:08Z</time>
      </trkpt>
      <trkpt lat="-2.696774" lon="-78.791824">
        <ele>3135.00</ele>
        <time>2018-09-08T19:55:09Z</time>
      </trkpt>
      <trkpt lat="-2.696697" lon="-78.791832">
        <ele>3135.00</ele>
        <time>2018-09-08T19:55:10Z</time>
      </trkpt>
      <trkpt lat="-2.696620" lon="-78.791824">
        <ele>3136.00</ele>
        <time>2018-09-08T19:55:11Z</time>
      </trkpt>
      <trkpt lat="-2.696552" lon="-78.791794">
        <ele>3136.00</ele>
        <time>2018-09-08T19:55:12Z</time>
      </trkpt>
      <trkpt lat="-2.696491" lon="-78.791740">
        <ele>3136.00</ele>
        <time>2018-09-08T19:55:13Z</time>
      </trkpt>
      <trkpt lat="-2.696431" lon="-78.791695">
        <ele>3137.00</ele>
        <time>2018-09-08T19:55:14Z</time>
      </trkpt>
      <trkpt lat="-2.696365" lon="-78.791664">
        <ele>3137.00</ele>
        <time>2018-09-08T19:55:15Z</time>
      </trkpt>
      <trkpt lat="-2.696297" lon="-78.791641">
        <ele>3138.00</ele>
        <time>2018-09-08T19:55:16Z</time>
      </trkpt>
      <trkpt lat="-2.696230" lon="-78.791672">
        <ele>3138.00</ele>
        <time>2018-09-08T19:55:17Z</time>
      </trkpt>
      <trkpt lat="-2.696170" lon="-78.791718">
        <ele>3138.00</ele>
        <time>2018-09-08T19:55:18Z</time>
      </trkpt>
      <trkpt lat="-2.696116" lon="-78.791771">
        <ele>3139.00</ele>
        <time>2018-09-08T19:55:19Z</time>
      </trkpt>
      <trkpt lat="-2.696073" lon="-78.791824">
        <ele>3139.00</ele>
        <time>2018-09-08T19:55:20Z</time>
      </trkpt>
      <trkpt lat="-2.696047" lon="-78.791855">
        <ele>3139.00</ele>
        <time>2018-09-08T19:55:21Z</time>
      </trkpt>
      <trkpt lat="-2.696047" lon="-78.791855">
        <ele>3139.00</ele>
        <time>2018-09-08T19:55:22Z</time>
      </trkpt>
      <trkpt lat="-2.696007" lon="-78.791885">
        <ele>3139.00</ele>
        <time>2018-09-08T19:55:23Z</time>
      </trkpt>
      <trkpt lat="-2.695977" lon="-78.791878">
        <ele>3139.00</ele>
        <time>2018-09-08T19:55:24Z</time>
      </trkpt>
      <trkpt lat="-2.695950" lon="-78.791847">
        <ele>3140.00</ele>
        <time>2018-09-08T19:55:25Z</time>
      </trkpt>
      <trkpt lat="-2.695934" lon="-78.791801">
        <ele>3140.00</ele>
        <time>2018-09-08T19:55:26Z</time>
      </trkpt>
      <trkpt lat="-2.695932" lon="-78.791748">
        <ele>3141.00</ele>
        <time>2018-09-08T19:55:27Z</time>
      </trkpt>
      <trkpt lat="-2.695933" lon="-78.791687">
        <ele>3142.00</ele>
        <time>2018-09-08T19:55:28Z</time>
      </trkpt>
      <trkpt lat="-2.695930" lon="-78.791626">
        <ele>3142.00</ele>
        <time>2018-09-08T19:55:29Z</time>
      </trkpt>
      <trkpt lat="-2.695928" lon="-78.791565">
        <ele>3143.00</ele>
        <time>2018-09-08T19:55:30Z</time>
      </trkpt>
      <trkpt lat="-2.695925" lon="-78.791504">
        <ele>3144.00</ele>
        <time>2018-09-08T19:55:31Z</time>
      </trkpt>
      <trkpt lat="-2.695925" lon="-78.791428">
        <ele>3144.00</ele>
        <time>2018-09-08T19:55:32Z</time>
      </trkpt>
      <trkpt lat="-2.695934" lon="-78.791351">
        <ele>3145.00</ele>
        <time>2018-09-08T19:55:33Z</time>
      </trkpt>
      <trkpt lat="-2.695960" lon="-78.791283">
        <ele>3145.00</ele>
        <time>2018-09-08T19:55:34Z</time>
      </trkpt>
      <trkpt lat="-2.695983" lon="-78.791214">
        <ele>3146.00</ele>
        <time>2018-09-08T19:55:35Z</time>
      </trkpt>
      <trkpt lat="-2.696001" lon="-78.791168">
        <ele>3146.00</ele>
        <time>2018-09-08T19:55:36Z</time>
      </trkpt>
      <trkpt lat="-2.696014" lon="-78.791115">
        <ele>3147.00</ele>
        <time>2018-09-08T19:55:37Z</time>
      </trkpt>
      <trkpt lat="-2.696033" lon="-78.791039">
        <ele>3148.00</ele>
        <time>2018-09-08T19:55:38Z</time>
      </trkpt>
      <trkpt lat="-2.696053" lon="-78.790962">
        <ele>3148.00</ele>
        <time>2018-09-08T19:55:39Z</time>
      </trkpt>
      <trkpt lat="-2.696071" lon="-78.790901">
        <ele>3149.00</ele>
        <time>2018-09-08T19:55:40Z</time>
      </trkpt>
      <trkpt lat="-2.696087" lon="-78.790833">
        <ele>3149.00</ele>
        <time>2018-09-08T19:55:41Z</time>
      </trkpt>
      <trkpt lat="-2.696100" lon="-78.790779">
        <ele>3150.00</ele>
        <time>2018-09-08T19:55:42Z</time>
      </trkpt>
      <trkpt lat="-2.696114" lon="-78.790718">
        <ele>3151.00</ele>
        <time>2018-09-08T19:55:43Z</time>
      </trkpt>
      <trkpt lat="-2.696131" lon="-78.790657">
        <ele>3151.00</ele>
        <time>2018-09-08T19:55:44Z</time>
      </trkpt>
      <trkpt lat="-2.696150" lon="-78.790596">
        <ele>3152.00</ele>
        <time>2018-09-08T19:55:45Z</time>
      </trkpt>
      <trkpt lat="-2.696168" lon="-78.790535">
        <ele>3153.00</ele>
        <time>2018-09-08T19:55:46Z</time>
      </trkpt>
      <trkpt lat="-2.696180" lon="-78.790482">
        <ele>3153.00</ele>
        <time>2018-09-08T19:55:47Z</time>
      </trkpt>
      <trkpt lat="-2.696190" lon="-78.790405">
        <ele>3154.00</ele>
        <time>2018-09-08T19:55:48Z</time>
      </trkpt>
      <trkpt lat="-2.696198" lon="-78.790344">
        <ele>3154.00</ele>
        <time>2018-09-08T19:55:49Z</time>
      </trkpt>
      <trkpt lat="-2.696208" lon="-78.790283">
        <ele>3155.00</ele>
        <time>2018-09-08T19:55:50Z</time>
      </trkpt>
      <trkpt lat="-2.696214" lon="-78.790237">
        <ele>3156.00</ele>
        <time>2018-09-08T19:55:51Z</time>
      </trkpt>
      <trkpt lat="-2.696215" lon="-78.790207">
        <ele>3156.00</ele>
        <time>2018-09-08T19:55:52Z</time>
      </trkpt>
      <trkpt lat="-2.696209" lon="-78.790176">
        <ele>3156.00</ele>
        <time>2018-09-08T19:55:53Z</time>
      </trkpt>
      <trkpt lat="-2.696203" lon="-78.790146">
        <ele>3157.00</ele>
        <time>2018-09-08T19:55:54Z</time>
      </trkpt>
      <trkpt lat="-2.696196" lon="-78.790108">
        <ele>3157.00</ele>
        <time>2018-09-08T19:55:55Z</time>
      </trkpt>
      <trkpt lat="-2.696192" lon="-78.790070">
        <ele>3158.00</ele>
        <time>2018-09-08T19:55:56Z</time>
      </trkpt>
      <trkpt lat="-2.696191" lon="-78.790039">
        <ele>3158.00</ele>
        <time>2018-09-08T19:55:57Z</time>
      </trkpt>
      <trkpt lat="-2.696187" lon="-78.790001">
        <ele>3158.00</ele>
        <time>2018-09-08T19:55:58Z</time>
      </trkpt>
      <trkpt lat="-2.696176" lon="-78.789963">
        <ele>3159.00</ele>
        <time>2018-09-08T19:55:59Z</time>
      </trkpt>
      <trkpt lat="-2.696156" lon="-78.789917">
        <ele>3160.00</ele>
        <time>2018-09-08T19:56:00Z</time>
      </trkpt>
      <trkpt lat="-2.696131" lon="-78.789879">
        <ele>3160.00</ele>
        <time>2018-09-08T19:56:01Z</time>
      </trkpt>
      <trkpt lat="-2.696101" lon="-78.789810">
        <ele>3161.00</ele>
        <time>2018-09-08T19:56:02Z</time>
      </trkpt>
      <trkpt lat="-2.696075" lon="-78.789780">
        <ele>3161.00</ele>
        <time>2018-09-08T19:56:03Z</time>
      </trkpt>
      <trkpt lat="-2.696051" lon="-78.789734">
        <ele>3162.00</ele>
        <time>2018-09-08T19:56:04Z</time>
      </trkpt>
      <trkpt lat="-2.696022" lon="-78.789688">
        <ele>3162.00</ele>
        <time>2018-09-08T19:56:05Z</time>
      </trkpt>
      <trkpt lat="-2.695981" lon="-78.789627">
        <ele>3162.00</ele>
        <time>2018-09-08T19:56:06Z</time>
      </trkpt>
      <trkpt lat="-2.695932" lon="-78.789558">
        <ele>3163.00</ele>
        <time>2018-09-08T19:56:07Z</time>
      </trkpt>
      <trkpt lat="-2.695888" lon="-78.789490">
        <ele>3163.00</ele>
        <time>2018-09-08T19:56:08Z</time>
      </trkpt>
      <trkpt lat="-2.695849" lon="-78.789436">
        <ele>3163.00</ele>
        <time>2018-09-08T19:56:09Z</time>
      </trkpt>
      <trkpt lat="-2.695817" lon="-78.789406">
        <ele>3163.00</ele>
        <time>2018-09-08T19:56:10Z</time>
      </trkpt>
      <trkpt lat="-2.695793" lon="-78.789368">
        <ele>3163.00</ele>
        <time>2018-09-08T19:56:11Z</time>
      </trkpt>
      <trkpt lat="-2.695760" lon="-78.789322">
        <ele>3163.00</ele>
        <time>2018-09-08T19:56:12Z</time>
      </trkpt>
      <trkpt lat="-2.695726" lon="-78.789284">
        <ele>3163.00</ele>
        <time>2018-09-08T19:56:13Z</time>
      </trkpt>
      <trkpt lat="-2.695695" lon="-78.789253">
        <ele>3163.00</ele>
        <time>2018-09-08T19:56:14Z</time>
      </trkpt>
      <trkpt lat="-2.695668" lon="-78.789215">
        <ele>3164.00</ele>
        <time>2018-09-08T19:56:15Z</time>
      </trkpt>
      <trkpt lat="-2.695642" lon="-78.789185">
        <ele>3163.00</ele>
        <time>2018-09-08T19:56:16Z</time>
      </trkpt>
      <trkpt lat="-2.695612" lon="-78.789139">
        <ele>3163.00</ele>
        <time>2018-09-08T19:56:17Z</time>
      </trkpt>
      <trkpt lat="-2.695581" lon="-78.789101">
        <ele>3162.00</ele>
        <time>2018-09-08T19:56:18Z</time>
      </trkpt>
      <trkpt lat="-2.695553" lon="-78.789070">
        <ele>3162.00</ele>
        <time>2018-09-08T19:56:19Z</time>
      </trkpt>
      <trkpt lat="-2.695524" lon="-78.789017">
        <ele>3162.00</ele>
        <time>2018-09-08T19:56:20Z</time>
      </trkpt>
      <trkpt lat="-2.695487" lon="-78.788971">
        <ele>3162.00</ele>
        <time>2018-09-08T19:56:21Z</time>
      </trkpt>
      <trkpt lat="-2.695446" lon="-78.788925">
        <ele>3162.00</ele>
        <time>2018-09-08T19:56:22Z</time>
      </trkpt>
      <trkpt lat="-2.695410" lon="-78.788887">
        <ele>3163.00</ele>
        <time>2018-09-08T19:56:23Z</time>
      </trkpt>
      <trkpt lat="-2.695378" lon="-78.788857">
        <ele>3163.00</ele>
        <time>2018-09-08T19:56:24Z</time>
      </trkpt>
      <trkpt lat="-2.695354" lon="-78.788826">
        <ele>3164.00</ele>
        <time>2018-09-08T19:56:25Z</time>
      </trkpt>
      <trkpt lat="-2.695331" lon="-78.788788">
        <ele>3164.00</ele>
        <time>2018-09-08T19:56:26Z</time>
      </trkpt>
      <trkpt lat="-2.695306" lon="-78.788765">
        <ele>3165.00</ele>
        <time>2018-09-08T19:56:27Z</time>
      </trkpt>
      <trkpt lat="-2.695280" lon="-78.788727">
        <ele>3165.00</ele>
        <time>2018-09-08T19:56:28Z</time>
      </trkpt>
      <trkpt lat="-2.695254" lon="-78.788696">
        <ele>3166.00</ele>
        <time>2018-09-08T19:56:29Z</time>
      </trkpt>
      <trkpt lat="-2.695228" lon="-78.788658">
        <ele>3166.00</ele>
        <time>2018-09-08T19:56:30Z</time>
      </trkpt>
      <trkpt lat="-2.695192" lon="-78.788612">
        <ele>3166.00</ele>
        <time>2018-09-08T19:56:31Z</time>
      </trkpt>
      <trkpt lat="-2.695166" lon="-78.788574">
        <ele>3166.00</ele>
        <time>2018-09-08T19:56:32Z</time>
      </trkpt>
      <trkpt lat="-2.695146" lon="-78.788559">
        <ele>3166.00</ele>
        <time>2018-09-08T19:56:33Z</time>
      </trkpt>
      <trkpt lat="-2.695137" lon="-78.788544">
        <ele>3166.00</ele>
        <time>2018-09-08T19:56:34Z</time>
      </trkpt>
      <trkpt lat="-2.695129" lon="-78.788521">
        <ele>3166.00</ele>
        <time>2018-09-08T19:56:35Z</time>
      </trkpt>
      <trkpt lat="-2.695121" lon="-78.788490">
        <ele>3165.00</ele>
        <time>2018-09-08T19:56:36Z</time>
      </trkpt>
      <trkpt lat="-2.695111" lon="-78.788452">
        <ele>3165.00</ele>
        <time>2018-09-08T19:56:37Z</time>
      </trkpt>
      <trkpt lat="-2.695100" lon="-78.788406">
        <ele>3165.00</ele>
        <time>2018-09-08T19:56:38Z</time>
      </trkpt>
      <trkpt lat="-2.695090" lon="-78.788383">
        <ele>3165.00</ele>
        <time>2018-09-08T19:56:39Z</time>
      </trkpt>
      <trkpt lat="-2.695081" lon="-78.788345">
        <ele>3166.00</ele>
        <time>2018-09-08T19:56:40Z</time>
      </trkpt>
      <trkpt lat="-2.695071" lon="-78.788315">
        <ele>3166.00</ele>
        <time>2018-09-08T19:56:41Z</time>
      </trkpt>
      <trkpt lat="-2.695062" lon="-78.788284">
        <ele>3166.00</ele>
        <time>2018-09-08T19:56:42Z</time>
      </trkpt>
      <trkpt lat="-2.695053" lon="-78.788261">
        <ele>3166.00</ele>
        <time>2018-09-08T19:56:43Z</time>
      </trkpt>
      <trkpt lat="-2.695041" lon="-78.788231">
        <ele>3166.00</ele>
        <time>2018-09-08T19:56:44Z</time>
      </trkpt>
      <trkpt lat="-2.695026" lon="-78.788193">
        <ele>3166.00</ele>
        <time>2018-09-08T19:56:45Z</time>
      </trkpt>
      <trkpt lat="-2.695004" lon="-78.788155">
        <ele>3166.00</ele>
        <time>2018-09-08T19:56:46Z</time>
      </trkpt>
      <trkpt lat="-2.694973" lon="-78.788109">
        <ele>3167.00</ele>
        <time>2018-09-08T19:56:47Z</time>
      </trkpt>
      <trkpt lat="-2.694939" lon="-78.788055">
        <ele>3167.00</ele>
        <time>2018-09-08T19:56:48Z</time>
      </trkpt>
      <trkpt lat="-2.694917" lon="-78.787994">
        <ele>3167.00</ele>
        <time>2018-09-08T19:56:49Z</time>
      </trkpt>
      <trkpt lat="-2.694898" lon="-78.787956">
        <ele>3167.00</ele>
        <time>2018-09-08T19:56:50Z</time>
      </trkpt>
      <trkpt lat="-2.694881" lon="-78.787918">
        <ele>3167.00</ele>
        <time>2018-09-08T19:56:51Z</time>
      </trkpt>
      <trkpt lat="-2.694862" lon="-78.787903">
        <ele>3167.00</ele>
        <time>2018-09-08T19:56:52Z</time>
      </trkpt>
      <trkpt lat="-2.694841" lon="-78.787865">
        <ele>3167.00</ele>
        <time>2018-09-08T19:56:53Z</time>
      </trkpt>
      <trkpt lat="-2.694812" lon="-78.787819">
        <ele>3167.00</ele>
        <time>2018-09-08T19:56:54Z</time>
      </trkpt>
      <trkpt lat="-2.694778" lon="-78.787788">
        <ele>3168.00</ele>
        <time>2018-09-08T19:56:55Z</time>
      </trkpt>
      <trkpt lat="-2.694742" lon="-78.787743">
        <ele>3168.00</ele>
        <time>2018-09-08T19:56:56Z</time>
      </trkpt>
      <trkpt lat="-2.694714" lon="-78.787697">
        <ele>3168.00</ele>
        <time>2018-09-08T19:56:57Z</time>
      </trkpt>
      <trkpt lat="-2.694689" lon="-78.787651">
        <ele>3168.00</ele>
        <time>2018-09-08T19:56:58Z</time>
      </trkpt>
      <trkpt lat="-2.694672" lon="-78.787605">
        <ele>3168.00</ele>
        <time>2018-09-08T19:56:59Z</time>
      </trkpt>
      <trkpt lat="-2.694662" lon="-78.787552">
        <ele>3168.00</ele>
        <time>2018-09-08T19:57:00Z</time>
      </trkpt>
      <trkpt lat="-2.694659" lon="-78.787529">
        <ele>3168.00</ele>
        <time>2018-09-08T19:57:01Z</time>
      </trkpt>
      <trkpt lat="-2.694657" lon="-78.787514">
        <ele>3168.00</ele>
        <time>2018-09-08T19:57:02Z</time>
      </trkpt>
      <trkpt lat="-2.694656" lon="-78.787498">
        <ele>3168.00</ele>
        <time>2018-09-08T19:57:03Z</time>
      </trkpt>
      <trkpt lat="-2.694656" lon="-78.787476">
        <ele>3168.00</ele>
        <time>2018-09-08T19:57:04Z</time>
      </trkpt>
      <trkpt lat="-2.694653" lon="-78.787437">
        <ele>3169.00</ele>
        <time>2018-09-08T19:57:05Z</time>
      </trkpt>
      <trkpt lat="-2.694648" lon="-78.787407">
        <ele>3169.00</ele>
        <time>2018-09-08T19:57:06Z</time>
      </trkpt>
      <trkpt lat="-2.694635" lon="-78.787361">
        <ele>3169.00</ele>
        <time>2018-09-08T19:57:07Z</time>
      </trkpt>
      <trkpt lat="-2.694611" lon="-78.787315">
        <ele>3169.00</ele>
        <time>2018-09-08T19:57:08Z</time>
      </trkpt>
      <trkpt lat="-2.694583" lon="-78.787254">
        <ele>3169.00</ele>
        <time>2018-09-08T19:57:09Z</time>
      </trkpt>
      <trkpt lat="-2.694562" lon="-78.787201">
        <ele>3169.00</ele>
        <time>2018-09-08T19:57:10Z</time>
      </trkpt>
      <trkpt lat="-2.694541" lon="-78.787155">
        <ele>3169.00</ele>
        <time>2018-09-08T19:57:11Z</time>
      </trkpt>
      <trkpt lat="-2.694522" lon="-78.787109">
        <ele>3170.00</ele>
        <time>2018-09-08T19:57:12Z</time>
      </trkpt>
      <trkpt lat="-2.694508" lon="-78.787064">
        <ele>3170.00</ele>
        <time>2018-09-08T19:57:13Z</time>
      </trkpt>
      <trkpt lat="-2.694495" lon="-78.787025">
        <ele>3170.00</ele>
        <time>2018-09-08T19:57:14Z</time>
      </trkpt>
      <trkpt lat="-2.694494" lon="-78.786995">
        <ele>3170.00</ele>
        <time>2018-09-08T19:57:15Z</time>
      </trkpt>
      <trkpt lat="-2.694495" lon="-78.786995">
        <ele>3170.00</ele>
        <time>2018-09-08T19:57:16Z</time>
      </trkpt>
      <trkpt lat="-2.694496" lon="-78.786987">
        <ele>3170.00</ele>
        <time>2018-09-08T19:57:17Z</time>
      </trkpt>
      <trkpt lat="-2.694496" lon="-78.786987">
        <ele>3170.00</ele>
        <time>2018-09-08T19:57:18Z</time>
      </trkpt>
      <trkpt lat="-2.694495" lon="-78.786980">
        <ele>3170.00</ele>
        <time>2018-09-08T19:57:19Z</time>
      </trkpt>
      <trkpt lat="-2.694496" lon="-78.786980">
        <ele>3170.00</ele>
        <time>2018-09-08T19:57:20Z</time>
      </trkpt>
      <trkpt lat="-2.694497" lon="-78.786980">
        <ele>3170.00</ele>
        <time>2018-09-08T19:57:21Z</time>
      </trkpt>
      <trkpt lat="-2.694497" lon="-78.786980">
        <ele>3170.00</ele>
        <time>2018-09-08T19:57:22Z</time>
      </trkpt>
      <trkpt lat="-2.694497" lon="-78.786980">
        <ele>3170.00</ele>
        <time>2018-09-08T19:57:23Z</time>
      </trkpt>
      <trkpt lat="-2.694497" lon="-78.786980">
        <ele>3170.00</ele>
        <time>2018-09-08T19:57:24Z</time>
      </trkpt>
      <trkpt lat="-2.694496" lon="-78.786980">
        <ele>3170.00</ele>
        <time>2018-09-08T19:57:25Z</time>
      </trkpt>
      <trkpt lat="-2.694496" lon="-78.786980">
        <ele>3170.00</ele>
        <time>2018-09-08T19:57:26Z</time>
      </trkpt>
      <trkpt lat="-2.694497" lon="-78.786972">
        <ele>3170.00</ele>
        <time>2018-09-08T19:57:27Z</time>
      </trkpt>
      <trkpt lat="-2.694497" lon="-78.786972">
        <ele>3170.00</ele>
        <time>2018-09-08T19:57:28Z</time>
      </trkpt>
      <trkpt lat="-2.694497" lon="-78.786972">
        <ele>3170.00</ele>
        <time>2018-09-08T19:57:29Z</time>
      </trkpt>
      <trkpt lat="-2.694497" lon="-78.786972">
        <ele>3170.00</ele>
        <time>2018-09-08T19:57:30Z</time>
      </trkpt>
      <trkpt lat="-2.694497" lon="-78.786972">
        <ele>3170.00</ele>
        <time>2018-09-08T19:57:31Z</time>
      </trkpt>
      <trkpt lat="-2.694501" lon="-78.786972">
        <ele>3170.00</ele>
        <time>2018-09-08T19:57:32Z</time>
      </trkpt>
      <trkpt lat="-2.694502" lon="-78.786957">
        <ele>3170.00</ele>
        <time>2018-09-08T19:57:33Z</time>
      </trkpt>
      <trkpt lat="-2.694504" lon="-78.786957">
        <ele>3170.00</ele>
        <time>2018-09-08T19:57:34Z</time>
      </trkpt>
      <trkpt lat="-2.694504" lon="-78.786957">
        <ele>3170.00</ele>
        <time>2018-09-08T19:57:35Z</time>
      </trkpt>
      <trkpt lat="-2.694505" lon="-78.786957">
        <ele>3170.00</ele>
        <time>2018-09-08T19:57:36Z</time>
      </trkpt>
      <trkpt lat="-2.694503" lon="-78.786949">
        <ele>3170.00</ele>
        <time>2018-09-08T19:57:37Z</time>
      </trkpt>
      <trkpt lat="-2.694498" lon="-78.786942">
        <ele>3170.00</ele>
        <time>2018-09-08T19:57:38Z</time>
      </trkpt>
      <trkpt lat="-2.694498" lon="-78.786942">
        <ele>3170.00</ele>
        <time>2018-09-08T19:57:39Z</time>
      </trkpt>
      <trkpt lat="-2.694496" lon="-78.786942">
        <ele>3171.00</ele>
        <time>2018-09-08T19:57:40Z</time>
      </trkpt>
      <trkpt lat="-2.694495" lon="-78.786942">
        <ele>3171.00</ele>
        <time>2018-09-08T19:57:41Z</time>
      </trkpt>
      <trkpt lat="-2.694494" lon="-78.786926">
        <ele>3171.00</ele>
        <time>2018-09-08T19:57:42Z</time>
      </trkpt>
      <trkpt lat="-2.694493" lon="-78.786919">
        <ele>3171.00</ele>
        <time>2018-09-08T19:57:43Z</time>
      </trkpt>
      <trkpt lat="-2.694493" lon="-78.786896">
        <ele>3171.00</ele>
        <time>2018-09-08T19:57:44Z</time>
      </trkpt>
      <trkpt lat="-2.694490" lon="-78.786896">
        <ele>3171.00</ele>
        <time>2018-09-08T19:57:45Z</time>
      </trkpt>
      <trkpt lat="-2.694486" lon="-78.786880">
        <ele>3171.00</ele>
        <time>2018-09-08T19:57:46Z</time>
      </trkpt>
      <trkpt lat="-2.694480" lon="-78.786873">
        <ele>3171.00</ele>
        <time>2018-09-08T19:57:47Z</time>
      </trkpt>
      <trkpt lat="-2.694481" lon="-78.786850">
        <ele>3171.00</ele>
        <time>2018-09-08T19:57:48Z</time>
      </trkpt>
      <trkpt lat="-2.694476" lon="-78.786827">
        <ele>3171.00</ele>
        <time>2018-09-08T19:57:49Z</time>
      </trkpt>
      <trkpt lat="-2.694467" lon="-78.786812">
        <ele>3171.00</ele>
        <time>2018-09-08T19:57:50Z</time>
      </trkpt>
      <trkpt lat="-2.694463" lon="-78.786797">
        <ele>3171.00</ele>
        <time>2018-09-08T19:57:51Z</time>
      </trkpt>
      <trkpt lat="-2.694453" lon="-78.786781">
        <ele>3171.00</ele>
        <time>2018-09-08T19:57:52Z</time>
      </trkpt>
      <trkpt lat="-2.694432" lon="-78.786766">
        <ele>3171.00</ele>
        <time>2018-09-08T19:57:53Z</time>
      </trkpt>
      <trkpt lat="-2.694416" lon="-78.786743">
        <ele>3171.00</ele>
        <time>2018-09-08T19:57:54Z</time>
      </trkpt>
      <trkpt lat="-2.694403" lon="-78.786736">
        <ele>3171.00</ele>
        <time>2018-09-08T19:57:55Z</time>
      </trkpt>
      <trkpt lat="-2.694387" lon="-78.786736">
        <ele>3171.00</ele>
        <time>2018-09-08T19:57:56Z</time>
      </trkpt>
      <trkpt lat="-2.694371" lon="-78.786736">
        <ele>3171.00</ele>
        <time>2018-09-08T19:57:57Z</time>
      </trkpt>
      <trkpt lat="-2.694357" lon="-78.786736">
        <ele>3171.00</ele>
        <time>2018-09-08T19:57:58Z</time>
      </trkpt>
      <trkpt lat="-2.694340" lon="-78.786736">
        <ele>3172.00</ele>
        <time>2018-09-08T19:57:59Z</time>
      </trkpt>
      <trkpt lat="-2.694326" lon="-78.786736">
        <ele>3172.00</ele>
        <time>2018-09-08T19:58:00Z</time>
      </trkpt>
      <trkpt lat="-2.694319" lon="-78.786743">
        <ele>3172.00</ele>
        <time>2018-09-08T19:58:01Z</time>
      </trkpt>
      <trkpt lat="-2.694310" lon="-78.786758">
        <ele>3172.00</ele>
        <time>2018-09-08T19:58:02Z</time>
      </trkpt>
      <trkpt lat="-2.694299" lon="-78.786758">
        <ele>3172.00</ele>
        <time>2018-09-08T19:58:03Z</time>
      </trkpt>
      <trkpt lat="-2.694293" lon="-78.786766">
        <ele>3172.00</ele>
        <time>2018-09-08T19:58:04Z</time>
      </trkpt>
      <trkpt lat="-2.694284" lon="-78.786766">
        <ele>3172.00</ele>
        <time>2018-09-08T19:58:05Z</time>
      </trkpt>
      <trkpt lat="-2.694272" lon="-78.786758">
        <ele>3172.00</ele>
        <time>2018-09-08T19:58:06Z</time>
      </trkpt>
      <trkpt lat="-2.694251" lon="-78.786758">
        <ele>3172.00</ele>
        <time>2018-09-08T19:58:07Z</time>
      </trkpt>
      <trkpt lat="-2.694237" lon="-78.786758">
        <ele>3172.00</ele>
        <time>2018-09-08T19:58:08Z</time>
      </trkpt>
      <trkpt lat="-2.694228" lon="-78.786766">
        <ele>3172.00</ele>
        <time>2018-09-08T19:58:09Z</time>
      </trkpt>
      <trkpt lat="-2.694220" lon="-78.786774">
        <ele>3172.00</ele>
        <time>2018-09-08T19:58:10Z</time>
      </trkpt>
      <trkpt lat="-2.694212" lon="-78.786774">
        <ele>3172.00</ele>
        <time>2018-09-08T19:58:11Z</time>
      </trkpt>
      <trkpt lat="-2.694207" lon="-78.786774">
        <ele>3172.00</ele>
        <time>2018-09-08T19:58:12Z</time>
      </trkpt>
      <trkpt lat="-2.694195" lon="-78.786774">
        <ele>3173.00</ele>
        <time>2018-09-08T19:58:13Z</time>
      </trkpt>
      <trkpt lat="-2.694183" lon="-78.786774">
        <ele>3173.00</ele>
        <time>2018-09-08T19:58:14Z</time>
      </trkpt>
      <trkpt lat="-2.694173" lon="-78.786781">
        <ele>3173.00</ele>
        <time>2018-09-08T19:58:15Z</time>
      </trkpt>
      <trkpt lat="-2.694161" lon="-78.786789">
        <ele>3173.00</ele>
        <time>2018-09-08T19:58:16Z</time>
      </trkpt>
      <trkpt lat="-2.694152" lon="-78.786789">
        <ele>3173.00</ele>
        <time>2018-09-08T19:58:17Z</time>
      </trkpt>
      <trkpt lat="-2.694135" lon="-78.786812">
        <ele>3173.00</ele>
        <time>2018-09-08T19:58:18Z</time>
      </trkpt>
      <trkpt lat="-2.694118" lon="-78.786827">
        <ele>3173.00</ele>
        <time>2018-09-08T19:58:19Z</time>
      </trkpt>
      <trkpt lat="-2.694092" lon="-78.786835">
        <ele>3173.00</ele>
        <time>2018-09-08T19:58:20Z</time>
      </trkpt>
      <trkpt lat="-2.694071" lon="-78.786842">
        <ele>3173.00</ele>
        <time>2018-09-08T19:58:21Z</time>
      </trkpt>
      <trkpt lat="-2.694054" lon="-78.786865">
        <ele>3173.00</ele>
        <time>2018-09-08T19:58:22Z</time>
      </trkpt>
      <trkpt lat="-2.694035" lon="-78.786880">
        <ele>3174.00</ele>
        <time>2018-09-08T19:58:23Z</time>
      </trkpt>
      <trkpt lat="-2.694017" lon="-78.786888">
        <ele>3174.00</ele>
        <time>2018-09-08T19:58:24Z</time>
      </trkpt>
      <trkpt lat="-2.694002" lon="-78.786903">
        <ele>3174.00</ele>
        <time>2018-09-08T19:58:25Z</time>
      </trkpt>
      <trkpt lat="-2.693986" lon="-78.786926">
        <ele>3174.00</ele>
        <time>2018-09-08T19:58:26Z</time>
      </trkpt>
      <trkpt lat="-2.693969" lon="-78.786942">
        <ele>3174.00</ele>
        <time>2018-09-08T19:58:27Z</time>
      </trkpt>
      <trkpt lat="-2.693949" lon="-78.786957">
        <ele>3174.00</ele>
        <time>2018-09-08T19:58:28Z</time>
      </trkpt>
      <trkpt lat="-2.693924" lon="-78.786980">
        <ele>3174.00</ele>
        <time>2018-09-08T19:58:29Z</time>
      </trkpt>
      <trkpt lat="-2.693907" lon="-78.786987">
        <ele>3174.00</ele>
        <time>2018-09-08T19:58:30Z</time>
      </trkpt>
      <trkpt lat="-2.693886" lon="-78.786995">
        <ele>3175.00</ele>
        <time>2018-09-08T19:58:31Z</time>
      </trkpt>
      <trkpt lat="-2.693866" lon="-78.787003">
        <ele>3175.00</ele>
        <time>2018-09-08T19:58:32Z</time>
      </trkpt>
      <trkpt lat="-2.693852" lon="-78.787003">
        <ele>3175.00</ele>
        <time>2018-09-08T19:58:33Z</time>
      </trkpt>
      <trkpt lat="-2.693832" lon="-78.787010">
        <ele>3175.00</ele>
        <time>2018-09-08T19:58:34Z</time>
      </trkpt>
      <trkpt lat="-2.693817" lon="-78.787003">
        <ele>3175.00</ele>
        <time>2018-09-08T19:58:35Z</time>
      </trkpt>
      <trkpt lat="-2.693808" lon="-78.787003">
        <ele>3175.00</ele>
        <time>2018-09-08T19:58:36Z</time>
      </trkpt>
      <trkpt lat="-2.693797" lon="-78.787010">
        <ele>3175.00</ele>
        <time>2018-09-08T19:58:37Z</time>
      </trkpt>
      <trkpt lat="-2.693784" lon="-78.787025">
        <ele>3175.00</ele>
        <time>2018-09-08T19:58:38Z</time>
      </trkpt>
      <trkpt lat="-2.693766" lon="-78.787025">
        <ele>3176.00</ele>
        <time>2018-09-08T19:58:39Z</time>
      </trkpt>
      <trkpt lat="-2.693750" lon="-78.787025">
        <ele>3176.00</ele>
        <time>2018-09-08T19:58:40Z</time>
      </trkpt>
      <trkpt lat="-2.693734" lon="-78.787025">
        <ele>3176.00</ele>
        <time>2018-09-08T19:58:41Z</time>
      </trkpt>
      <trkpt lat="-2.693722" lon="-78.787025">
        <ele>3176.00</ele>
        <time>2018-09-08T19:58:42Z</time>
      </trkpt>
      <trkpt lat="-2.693707" lon="-78.787025">
        <ele>3176.00</ele>
        <time>2018-09-08T19:58:43Z</time>
      </trkpt>
      <trkpt lat="-2.693707" lon="-78.787033">
        <ele>3176.00</ele>
        <time>2018-09-08T19:58:44Z</time>
      </trkpt>
      <trkpt lat="-2.693700" lon="-78.787033">
        <ele>3176.00</ele>
        <time>2018-09-08T19:58:45Z</time>
      </trkpt>
      <trkpt lat="-2.693682" lon="-78.787041">
        <ele>3176.00</ele>
        <time>2018-09-08T19:58:46Z</time>
      </trkpt>
      <trkpt lat="-2.693668" lon="-78.787041">
        <ele>3177.00</ele>
        <time>2018-09-08T19:58:47Z</time>
      </trkpt>
      <trkpt lat="-2.693658" lon="-78.787041">
        <ele>3177.00</ele>
        <time>2018-09-08T19:58:48Z</time>
      </trkpt>
      <trkpt lat="-2.693645" lon="-78.787048">
        <ele>3177.00</ele>
        <time>2018-09-08T19:58:49Z</time>
      </trkpt>
      <trkpt lat="-2.693637" lon="-78.787048">
        <ele>3177.00</ele>
        <time>2018-09-08T19:58:50Z</time>
      </trkpt>
      <trkpt lat="-2.693627" lon="-78.787056">
        <ele>3177.00</ele>
        <time>2018-09-08T19:58:51Z</time>
      </trkpt>
      <trkpt lat="-2.693617" lon="-78.787056">
        <ele>3177.00</ele>
        <time>2018-09-08T19:58:52Z</time>
      </trkpt>
      <trkpt lat="-2.693606" lon="-78.787064">
        <ele>3177.00</ele>
        <time>2018-09-08T19:58:53Z</time>
      </trkpt>
      <trkpt lat="-2.693585" lon="-78.787079">
        <ele>3177.00</ele>
        <time>2018-09-08T19:58:54Z</time>
      </trkpt>
      <trkpt lat="-2.693569" lon="-78.787079">
        <ele>3178.00</ele>
        <time>2018-09-08T19:58:55Z</time>
      </trkpt>
      <trkpt lat="-2.693563" lon="-78.787086">
        <ele>3178.00</ele>
        <time>2018-09-08T19:58:56Z</time>
      </trkpt>
      <trkpt lat="-2.693564" lon="-78.787094">
        <ele>3178.00</ele>
        <time>2018-09-08T19:58:57Z</time>
      </trkpt>
      <trkpt lat="-2.693554" lon="-78.787102">
        <ele>3178.00</ele>
        <time>2018-09-08T19:58:58Z</time>
      </trkpt>
      <trkpt lat="-2.693546" lon="-78.787109">
        <ele>3178.00</ele>
        <time>2018-09-08T19:58:59Z</time>
      </trkpt>
      <trkpt lat="-2.693537" lon="-78.787117">
        <ele>3178.00</ele>
        <time>2018-09-08T19:59:00Z</time>
      </trkpt>
      <trkpt lat="-2.693523" lon="-78.787132">
        <ele>3178.00</ele>
        <time>2018-09-08T19:59:01Z</time>
      </trkpt>
      <trkpt lat="-2.693515" lon="-78.787132">
        <ele>3179.00</ele>
        <time>2018-09-08T19:59:02Z</time>
      </trkpt>
      <trkpt lat="-2.693505" lon="-78.787148">
        <ele>3179.00</ele>
        <time>2018-09-08T19:59:03Z</time>
      </trkpt>
      <trkpt lat="-2.693500" lon="-78.787148">
        <ele>3179.00</ele>
        <time>2018-09-08T19:59:04Z</time>
      </trkpt>
      <trkpt lat="-2.693493" lon="-78.787155">
        <ele>3179.00</ele>
        <time>2018-09-08T19:59:05Z</time>
      </trkpt>
      <trkpt lat="-2.693493" lon="-78.787155">
        <ele>3179.00</ele>
        <time>2018-09-08T19:59:06Z</time>
      </trkpt>
      <trkpt lat="-2.693493" lon="-78.787155">
        <ele>3179.00</ele>
        <time>2018-09-08T19:59:07Z</time>
      </trkpt>
      <trkpt lat="-2.693493" lon="-78.787155">
        <ele>3179.00</ele>
        <time>2018-09-08T19:59:08Z</time>
      </trkpt>
      <trkpt lat="-2.693493" lon="-78.787155">
        <ele>3179.00</ele>
        <time>2018-09-08T19:59:09Z</time>
      </trkpt>
      <trkpt lat="-2.693494" lon="-78.787155">
        <ele>3179.00</ele>
        <time>2018-09-08T19:59:10Z</time>
      </trkpt>
      <trkpt lat="-2.693494" lon="-78.787155">
        <ele>3179.00</ele>
        <time>2018-09-08T19:59:11Z</time>
      </trkpt>
      <trkpt lat="-2.693493" lon="-78.787155">
        <ele>3179.00</ele>
        <time>2018-09-08T19:59:12Z</time>
      </trkpt>
      <trkpt lat="-2.693483" lon="-78.787155">
        <ele>3180.00</ele>
        <time>2018-09-08T19:59:13Z</time>
      </trkpt>
      <trkpt lat="-2.693461" lon="-78.787170">
        <ele>3180.00</ele>
        <time>2018-09-08T19:59:14Z</time>
      </trkpt>
      <trkpt lat="-2.693442" lon="-78.787186">
        <ele>3180.00</ele>
        <time>2018-09-08T19:59:15Z</time>
      </trkpt>
      <trkpt lat="-2.693423" lon="-78.787186">
        <ele>3180.00</ele>
        <time>2018-09-08T19:59:16Z</time>
      </trkpt>
      <trkpt lat="-2.693396" lon="-78.787186">
        <ele>3180.00</ele>
        <time>2018-09-08T19:59:17Z</time>
      </trkpt>
      <trkpt lat="-2.693372" lon="-78.787163">
        <ele>3181.00</ele>
        <time>2018-09-08T19:59:18Z</time>
      </trkpt>
      <trkpt lat="-2.693354" lon="-78.787140">
        <ele>3181.00</ele>
        <time>2018-09-08T19:59:19Z</time>
      </trkpt>
      <trkpt lat="-2.693340" lon="-78.787117">
        <ele>3181.00</ele>
        <time>2018-09-08T19:59:20Z</time>
      </trkpt>
      <trkpt lat="-2.693329" lon="-78.787102">
        <ele>3181.00</ele>
        <time>2018-09-08T19:59:21Z</time>
      </trkpt>
      <trkpt lat="-2.693314" lon="-78.787086">
        <ele>3182.00</ele>
        <time>2018-09-08T19:59:22Z</time>
      </trkpt>
      <trkpt lat="-2.693304" lon="-78.787064">
        <ele>3182.00</ele>
        <time>2018-09-08T19:59:23Z</time>
      </trkpt>
      <trkpt lat="-2.693297" lon="-78.787041">
        <ele>3182.00</ele>
        <time>2018-09-08T19:59:24Z</time>
      </trkpt>
      <trkpt lat="-2.693302" lon="-78.787010">
        <ele>3182.00</ele>
        <time>2018-09-08T19:59:25Z</time>
      </trkpt>
      <trkpt lat="-2.693309" lon="-78.786980">
        <ele>3185.00</ele>
        <time>2018-09-08T19:59:26Z</time>
      </trkpt>
      <trkpt lat="-2.693315" lon="-78.786926">
        <ele>3187.00</ele>
        <time>2018-09-08T19:59:27Z</time>
      </trkpt>
      <trkpt lat="-2.693322" lon="-78.786873">
        <ele>3189.00</ele>
        <time>2018-09-08T19:59:28Z</time>
      </trkpt>
      <trkpt lat="-2.693324" lon="-78.786827">
        <ele>3189.00</ele>
        <time>2018-09-08T19:59:29Z</time>
      </trkpt>
      <trkpt lat="-2.693324" lon="-78.786812">
        <ele>3189.00</ele>
        <time>2018-09-08T19:59:30Z</time>
      </trkpt>
      <trkpt lat="-2.693326" lon="-78.786774">
        <ele>3190.00</ele>
        <time>2018-09-08T19:59:31Z</time>
      </trkpt>
      <trkpt lat="-2.693323" lon="-78.786736">
        <ele>3190.00</ele>
        <time>2018-09-08T19:59:32Z</time>
      </trkpt>
      <trkpt lat="-2.693320" lon="-78.786705">
        <ele>3191.00</ele>
        <time>2018-09-08T19:59:33Z</time>
      </trkpt>
      <trkpt lat="-2.693315" lon="-78.786690">
        <ele>3191.00</ele>
        <time>2018-09-08T19:59:34Z</time>
      </trkpt>
      <trkpt lat="-2.693311" lon="-78.786690">
        <ele>3191.00</ele>
        <time>2018-09-08T19:59:35Z</time>
      </trkpt>
      <trkpt lat="-2.693311" lon="-78.786690">
        <ele>3191.00</ele>
        <time>2018-09-08T19:59:36Z</time>
      </trkpt>
      <trkpt lat="-2.693311" lon="-78.786682">
        <ele>3191.00</ele>
        <time>2018-09-08T19:59:37Z</time>
      </trkpt>
      <trkpt lat="-2.693309" lon="-78.786667">
        <ele>3191.00</ele>
        <time>2018-09-08T19:59:38Z</time>
      </trkpt>
      <trkpt lat="-2.693310" lon="-78.786629">
        <ele>3192.00</ele>
        <time>2018-09-08T19:59:39Z</time>
      </trkpt>
      <trkpt lat="-2.693305" lon="-78.786598">
        <ele>3193.00</ele>
        <time>2018-09-08T19:59:40Z</time>
      </trkpt>
      <trkpt lat="-2.693304" lon="-78.786552">
        <ele>3194.00</ele>
        <time>2018-09-08T19:59:41Z</time>
      </trkpt>
      <trkpt lat="-2.693305" lon="-78.786491">
        <ele>3195.00</ele>
        <time>2018-09-08T19:59:42Z</time>
      </trkpt>
      <trkpt lat="-2.693311" lon="-78.786438">
        <ele>3196.00</ele>
        <time>2018-09-08T19:59:43Z</time>
      </trkpt>
      <trkpt lat="-2.693317" lon="-78.786377">
        <ele>3196.00</ele>
        <time>2018-09-08T19:59:44Z</time>
      </trkpt>
      <trkpt lat="-2.693310" lon="-78.786331">
        <ele>3197.00</ele>
        <time>2018-09-08T19:59:45Z</time>
      </trkpt>
      <trkpt lat="-2.693277" lon="-78.786285">
        <ele>3197.00</ele>
        <time>2018-09-08T19:59:46Z</time>
      </trkpt>
      <trkpt lat="-2.693239" lon="-78.786270">
        <ele>3198.00</ele>
        <time>2018-09-08T19:59:47Z</time>
      </trkpt>
      <trkpt lat="-2.693189" lon="-78.786255">
        <ele>3199.00</ele>
        <time>2018-09-08T19:59:48Z</time>
      </trkpt>
      <trkpt lat="-2.693133" lon="-78.786278">
        <ele>3200.00</ele>
        <time>2018-09-08T19:59:49Z</time>
      </trkpt>
      <trkpt lat="-2.693084" lon="-78.786285">
        <ele>3200.00</ele>
        <time>2018-09-08T19:59:50Z</time>
      </trkpt>
      <trkpt lat="-2.693032" lon="-78.786285">
        <ele>3201.00</ele>
        <time>2018-09-08T19:59:51Z</time>
      </trkpt>
      <trkpt lat="-2.692990" lon="-78.786270">
        <ele>3202.00</ele>
        <time>2018-09-08T19:59:52Z</time>
      </trkpt>
      <trkpt lat="-2.692941" lon="-78.786240">
        <ele>3203.00</ele>
        <time>2018-09-08T19:59:53Z</time>
      </trkpt>
      <trkpt lat="-2.692885" lon="-78.786201">
        <ele>3204.00</ele>
        <time>2018-09-08T19:59:54Z</time>
      </trkpt>
      <trkpt lat="-2.692849" lon="-78.786133">
        <ele>3205.00</ele>
        <time>2018-09-08T19:59:55Z</time>
      </trkpt>
      <trkpt lat="-2.692827" lon="-78.786079">
        <ele>3206.00</ele>
        <time>2018-09-08T19:59:56Z</time>
      </trkpt>
      <trkpt lat="-2.692818" lon="-78.786026">
        <ele>3207.00</ele>
        <time>2018-09-08T19:59:57Z</time>
      </trkpt>
      <trkpt lat="-2.692811" lon="-78.785988">
        <ele>3207.00</ele>
        <time>2018-09-08T19:59:58Z</time>
      </trkpt>
      <trkpt lat="-2.692796" lon="-78.785973">
        <ele>3207.00</ele>
        <time>2018-09-08T19:59:59Z</time>
      </trkpt>
      <trkpt lat="-2.692796" lon="-78.785973">
        <ele>3208.00</ele>
        <time>2018-09-08T20:00:00Z</time>
      </trkpt>
      <trkpt lat="-2.692796" lon="-78.785973">
        <ele>3208.00</ele>
        <time>2018-09-08T20:00:01Z</time>
      </trkpt>
      <trkpt lat="-2.692796" lon="-78.785973">
        <ele>3208.00</ele>
        <time>2018-09-08T20:00:02Z</time>
      </trkpt>
      <trkpt lat="-2.692796" lon="-78.785973">
        <ele>3208.00</ele>
        <time>2018-09-08T20:00:03Z</time>
      </trkpt>
      <trkpt lat="-2.692796" lon="-78.785973">
        <ele>3208.00</ele>
        <time>2018-09-08T20:00:04Z</time>
      </trkpt>
      <trkpt lat="-2.692796" lon="-78.785973">
        <ele>3208.00</ele>
        <time>2018-09-08T20:00:05Z</time>
      </trkpt>
      <trkpt lat="-2.692796" lon="-78.785973">
        <ele>3208.00</ele>
        <time>2018-09-08T20:00:06Z</time>
      </trkpt>
      <trkpt lat="-2.692796" lon="-78.785973">
        <ele>3208.00</ele>
        <time>2018-09-08T20:00:07Z</time>
      </trkpt>
      <trkpt lat="-2.692796" lon="-78.785973">
        <ele>3209.00</ele>
        <time>2018-09-08T20:00:08Z</time>
      </trkpt>
      <trkpt lat="-2.692794" lon="-78.785934">
        <ele>3210.00</ele>
        <time>2018-09-08T20:00:09Z</time>
      </trkpt>
      <trkpt lat="-2.692786" lon="-78.785927">
        <ele>3210.00</ele>
        <time>2018-09-08T20:00:10Z</time>
      </trkpt>
      <trkpt lat="-2.692763" lon="-78.785919">
        <ele>3211.00</ele>
        <time>2018-09-08T20:00:11Z</time>
      </trkpt>
      <trkpt lat="-2.692728" lon="-78.785919">
        <ele>3217.00</ele>
        <time>2018-09-08T20:00:12Z</time>
      </trkpt>
      <trkpt lat="-2.692669" lon="-78.785927">
        <ele>3221.00</ele>
        <time>2018-09-08T20:00:13Z</time>
      </trkpt>
      <trkpt lat="-2.692590" lon="-78.785950">
        <ele>3225.00</ele>
        <time>2018-09-08T20:00:14Z</time>
      </trkpt>
      <trkpt lat="-2.692498" lon="-78.785973">
        <ele>3228.00</ele>
        <time>2018-09-08T20:00:15Z</time>
      </trkpt>
      <trkpt lat="-2.692399" lon="-78.785988">
        <ele>3231.00</ele>
        <time>2018-09-08T20:00:16Z</time>
      </trkpt>
      <trkpt lat="-2.692293" lon="-78.786018">
        <ele>3233.00</ele>
        <time>2018-09-08T20:00:17Z</time>
      </trkpt>
      <trkpt lat="-2.692178" lon="-78.786041">
        <ele>3235.00</ele>
        <time>2018-09-08T20:00:18Z</time>
      </trkpt>
      <trkpt lat="-2.692057" lon="-78.786064">
        <ele>3237.00</ele>
        <time>2018-09-08T20:00:19Z</time>
      </trkpt>
      <trkpt lat="-2.691933" lon="-78.786057">
        <ele>3238.00</ele>
        <time>2018-09-08T20:00:20Z</time>
      </trkpt>
      <trkpt lat="-2.691809" lon="-78.786011">
        <ele>3239.00</ele>
        <time>2018-09-08T20:00:21Z</time>
      </trkpt>
      <trkpt lat="-2.691699" lon="-78.785934">
        <ele>3241.00</ele>
        <time>2018-09-08T20:00:22Z</time>
      </trkpt>
      <trkpt lat="-2.691596" lon="-78.785851">
        <ele>3242.00</ele>
        <time>2018-09-08T20:00:23Z</time>
      </trkpt>
      <trkpt lat="-2.691496" lon="-78.785751">
        <ele>3243.00</ele>
        <time>2018-09-08T20:00:24Z</time>
      </trkpt>
      <trkpt lat="-2.691399" lon="-78.785645">
        <ele>3244.00</ele>
        <time>2018-09-08T20:00:25Z</time>
      </trkpt>
      <trkpt lat="-2.691314" lon="-78.785530">
        <ele>3244.00</ele>
        <time>2018-09-08T20:00:26Z</time>
      </trkpt>
      <trkpt lat="-2.691249" lon="-78.785393">
        <ele>3245.00</ele>
        <time>2018-09-08T20:00:27Z</time>
      </trkpt>
      <trkpt lat="-2.691185" lon="-78.785263">
        <ele>3246.00</ele>
        <time>2018-09-08T20:00:28Z</time>
      </trkpt>
      <trkpt lat="-2.691108" lon="-78.785141">
        <ele>3246.00</ele>
        <time>2018-09-08T20:00:29Z</time>
      </trkpt>
      <trkpt lat="-2.691010" lon="-78.785011">
        <ele>3247.00</ele>
        <time>2018-09-08T20:00:30Z</time>
      </trkpt>
      <trkpt lat="-2.690887" lon="-78.784912">
        <ele>3248.00</ele>
        <time>2018-09-08T20:00:31Z</time>
      </trkpt>
      <trkpt lat="-2.690749" lon="-78.784836">
        <ele>3248.00</ele>
        <time>2018-09-08T20:00:32Z</time>
      </trkpt>
      <trkpt lat="-2.690611" lon="-78.784744">
        <ele>3249.00</ele>
        <time>2018-09-08T20:00:33Z</time>
      </trkpt>
      <trkpt lat="-2.690471" lon="-78.784645">
        <ele>3250.00</ele>
        <time>2018-09-08T20:00:34Z</time>
      </trkpt>
      <trkpt lat="-2.690331" lon="-78.784561">
        <ele>3251.00</ele>
        <time>2018-09-08T20:00:35Z</time>
      </trkpt>
      <trkpt lat="-2.690188" lon="-78.784462">
        <ele>3252.00</ele>
        <time>2018-09-08T20:00:36Z</time>
      </trkpt>
      <trkpt lat="-2.690039" lon="-78.784363">
        <ele>3252.00</ele>
        <time>2018-09-08T20:00:37Z</time>
      </trkpt>
      <trkpt lat="-2.689888" lon="-78.784256">
        <ele>3253.00</ele>
        <time>2018-09-08T20:00:38Z</time>
      </trkpt>
      <trkpt lat="-2.689739" lon="-78.784157">
        <ele>3254.00</ele>
        <time>2018-09-08T20:00:39Z</time>
      </trkpt>
      <trkpt lat="-2.689589" lon="-78.784073">
        <ele>3255.00</ele>
        <time>2018-09-08T20:00:40Z</time>
      </trkpt>
      <trkpt lat="-2.689438" lon="-78.783966">
        <ele>3256.00</ele>
        <time>2018-09-08T20:00:41Z</time>
      </trkpt>
      <trkpt lat="-2.689286" lon="-78.783859">
        <ele>3257.00</ele>
        <time>2018-09-08T20:00:42Z</time>
      </trkpt>
      <trkpt lat="-2.689140" lon="-78.783752">
        <ele>3257.00</ele>
        <time>2018-09-08T20:00:43Z</time>
      </trkpt>
      <trkpt lat="-2.689007" lon="-78.783646">
        <ele>3258.00</ele>
        <time>2018-09-08T20:00:44Z</time>
      </trkpt>
      <trkpt lat="-2.688892" lon="-78.783531">
        <ele>3259.00</ele>
        <time>2018-09-08T20:00:45Z</time>
      </trkpt>
      <trkpt lat="-2.688779" lon="-78.783440">
        <ele>3259.00</ele>
        <time>2018-09-08T20:00:46Z</time>
      </trkpt>
      <trkpt lat="-2.688656" lon="-78.783348">
        <ele>3260.00</ele>
        <time>2018-09-08T20:00:47Z</time>
      </trkpt>
      <trkpt lat="-2.688513" lon="-78.783295">
        <ele>3261.00</ele>
        <time>2018-09-08T20:00:48Z</time>
      </trkpt>
      <trkpt lat="-2.688358" lon="-78.783279">
        <ele>3262.00</ele>
        <time>2018-09-08T20:00:49Z</time>
      </trkpt>
      <trkpt lat="-2.688200" lon="-78.783295">
        <ele>3263.00</ele>
        <time>2018-09-08T20:00:50Z</time>
      </trkpt>
      <trkpt lat="-2.688045" lon="-78.783295">
        <ele>3264.00</ele>
        <time>2018-09-08T20:00:51Z</time>
      </trkpt>
      <trkpt lat="-2.687890" lon="-78.783295">
        <ele>3264.00</ele>
        <time>2018-09-08T20:00:52Z</time>
      </trkpt>
      <trkpt lat="-2.687735" lon="-78.783295">
        <ele>3265.00</ele>
        <time>2018-09-08T20:00:53Z</time>
      </trkpt>
      <trkpt lat="-2.687583" lon="-78.783295">
        <ele>3266.00</ele>
        <time>2018-09-08T20:00:54Z</time>
      </trkpt>
      <trkpt lat="-2.687431" lon="-78.783295">
        <ele>3267.00</ele>
        <time>2018-09-08T20:00:55Z</time>
      </trkpt>
      <trkpt lat="-2.687281" lon="-78.783287">
        <ele>3268.00</ele>
        <time>2018-09-08T20:00:56Z</time>
      </trkpt>
      <trkpt lat="-2.687132" lon="-78.783272">
        <ele>3269.00</ele>
        <time>2018-09-08T20:00:57Z</time>
      </trkpt>
      <trkpt lat="-2.686984" lon="-78.783241">
        <ele>3270.00</ele>
        <time>2018-09-08T20:00:58Z</time>
      </trkpt>
      <trkpt lat="-2.686841" lon="-78.783188">
        <ele>3270.00</ele>
        <time>2018-09-08T20:00:59Z</time>
      </trkpt>
      <trkpt lat="-2.686722" lon="-78.783104">
        <ele>3271.00</ele>
        <time>2018-09-08T20:01:00Z</time>
      </trkpt>
      <trkpt lat="-2.686614" lon="-78.783005">
        <ele>3272.00</ele>
        <time>2018-09-08T20:01:01Z</time>
      </trkpt>
      <trkpt lat="-2.686533" lon="-78.782883">
        <ele>3273.00</ele>
        <time>2018-09-08T20:01:02Z</time>
      </trkpt>
      <trkpt lat="-2.686480" lon="-78.782738">
        <ele>3274.00</ele>
        <time>2018-09-08T20:01:03Z</time>
      </trkpt>
      <trkpt lat="-2.686439" lon="-78.782578">
        <ele>3275.00</ele>
        <time>2018-09-08T20:01:04Z</time>
      </trkpt>
      <trkpt lat="-2.686388" lon="-78.782417">
        <ele>3275.00</ele>
        <time>2018-09-08T20:01:05Z</time>
      </trkpt>
      <trkpt lat="-2.686340" lon="-78.782265">
        <ele>3276.00</ele>
        <time>2018-09-08T20:01:06Z</time>
      </trkpt>
      <trkpt lat="-2.686283" lon="-78.782104">
        <ele>3277.00</ele>
        <time>2018-09-08T20:01:07Z</time>
      </trkpt>
      <trkpt lat="-2.686229" lon="-78.781952">
        <ele>3278.00</ele>
        <time>2018-09-08T20:01:08Z</time>
      </trkpt>
      <trkpt lat="-2.686188" lon="-78.781776">
        <ele>3278.00</ele>
        <time>2018-09-08T20:01:09Z</time>
      </trkpt>
      <trkpt lat="-2.686135" lon="-78.781616">
        <ele>3279.00</ele>
        <time>2018-09-08T20:01:10Z</time>
      </trkpt>
      <trkpt lat="-2.686082" lon="-78.781448">
        <ele>3279.00</ele>
        <time>2018-09-08T20:01:11Z</time>
      </trkpt>
      <trkpt lat="-2.686042" lon="-78.781273">
        <ele>3279.00</ele>
        <time>2018-09-08T20:01:12Z</time>
      </trkpt>
      <trkpt lat="-2.686029" lon="-78.781082">
        <ele>3280.00</ele>
        <time>2018-09-08T20:01:13Z</time>
      </trkpt>
      <trkpt lat="-2.686037" lon="-78.780907">
        <ele>3281.00</ele>
        <time>2018-09-08T20:01:14Z</time>
      </trkpt>
      <trkpt lat="-2.686048" lon="-78.780731">
        <ele>3283.00</ele>
        <time>2018-09-08T20:01:15Z</time>
      </trkpt>
      <trkpt lat="-2.686060" lon="-78.780540">
        <ele>3284.00</ele>
        <time>2018-09-08T20:01:16Z</time>
      </trkpt>
      <trkpt lat="-2.686072" lon="-78.780365">
        <ele>3285.00</ele>
        <time>2018-09-08T20:01:17Z</time>
      </trkpt>
      <trkpt lat="-2.686084" lon="-78.780190">
        <ele>3287.00</ele>
        <time>2018-09-08T20:01:18Z</time>
      </trkpt>
      <trkpt lat="-2.686095" lon="-78.780014">
        <ele>3288.00</ele>
        <time>2018-09-08T20:01:19Z</time>
      </trkpt>
      <trkpt lat="-2.686096" lon="-78.779846">
        <ele>3290.00</ele>
        <time>2018-09-08T20:01:20Z</time>
      </trkpt>
      <trkpt lat="-2.686076" lon="-78.779678">
        <ele>3291.00</ele>
        <time>2018-09-08T20:01:21Z</time>
      </trkpt>
      <trkpt lat="-2.686040" lon="-78.779510">
        <ele>3292.00</ele>
        <time>2018-09-08T20:01:22Z</time>
      </trkpt>
      <trkpt lat="-2.685977" lon="-78.779358">
        <ele>3294.00</ele>
        <time>2018-09-08T20:01:23Z</time>
      </trkpt>
      <trkpt lat="-2.685896" lon="-78.779205">
        <ele>3295.00</ele>
        <time>2018-09-08T20:01:24Z</time>
      </trkpt>
      <trkpt lat="-2.685801" lon="-78.779068">
        <ele>3295.00</ele>
        <time>2018-09-08T20:01:25Z</time>
      </trkpt>
      <trkpt lat="-2.685708" lon="-78.778931">
        <ele>3296.00</ele>
        <time>2018-09-08T20:01:26Z</time>
      </trkpt>
      <trkpt lat="-2.685610" lon="-78.778809">
        <ele>3297.00</ele>
        <time>2018-09-08T20:01:27Z</time>
      </trkpt>
      <trkpt lat="-2.685517" lon="-78.778679">
        <ele>3298.00</ele>
        <time>2018-09-08T20:01:28Z</time>
      </trkpt>
      <trkpt lat="-2.685433" lon="-78.778542">
        <ele>3299.00</ele>
        <time>2018-09-08T20:01:29Z</time>
      </trkpt>
      <trkpt lat="-2.685340" lon="-78.778427">
        <ele>3300.00</ele>
        <time>2018-09-08T20:01:30Z</time>
      </trkpt>
      <trkpt lat="-2.685228" lon="-78.778328">
        <ele>3301.00</ele>
        <time>2018-09-08T20:01:31Z</time>
      </trkpt>
      <trkpt lat="-2.685099" lon="-78.778259">
        <ele>3302.00</ele>
        <time>2018-09-08T20:01:32Z</time>
      </trkpt>
      <trkpt lat="-2.684955" lon="-78.778206">
        <ele>3304.00</ele>
        <time>2018-09-08T20:01:33Z</time>
      </trkpt>
      <trkpt lat="-2.684803" lon="-78.778175">
        <ele>3305.00</ele>
        <time>2018-09-08T20:01:34Z</time>
      </trkpt>
      <trkpt lat="-2.684639" lon="-78.778160">
        <ele>3307.00</ele>
        <time>2018-09-08T20:01:35Z</time>
      </trkpt>
      <trkpt lat="-2.684475" lon="-78.778145">
        <ele>3308.00</ele>
        <time>2018-09-08T20:01:36Z</time>
      </trkpt>
      <trkpt lat="-2.684323" lon="-78.778122">
        <ele>3310.00</ele>
        <time>2018-09-08T20:01:37Z</time>
      </trkpt>
      <trkpt lat="-2.684182" lon="-78.778107">
        <ele>3311.00</ele>
        <time>2018-09-08T20:01:38Z</time>
      </trkpt>
      <trkpt lat="-2.684046" lon="-78.778069">
        <ele>3313.00</ele>
        <time>2018-09-08T20:01:39Z</time>
      </trkpt>
      <trkpt lat="-2.683908" lon="-78.778008">
        <ele>3315.00</ele>
        <time>2018-09-08T20:01:40Z</time>
      </trkpt>
      <trkpt lat="-2.683778" lon="-78.777924">
        <ele>3316.00</ele>
        <time>2018-09-08T20:01:41Z</time>
      </trkpt>
      <trkpt lat="-2.683647" lon="-78.777840">
        <ele>3318.00</ele>
        <time>2018-09-08T20:01:42Z</time>
      </trkpt>
      <trkpt lat="-2.683509" lon="-78.777763">
        <ele>3319.00</ele>
        <time>2018-09-08T20:01:43Z</time>
      </trkpt>
      <trkpt lat="-2.683360" lon="-78.777695">
        <ele>3320.00</ele>
        <time>2018-09-08T20:01:44Z</time>
      </trkpt>
      <trkpt lat="-2.683201" lon="-78.777664">
        <ele>3321.00</ele>
        <time>2018-09-08T20:01:45Z</time>
      </trkpt>
      <trkpt lat="-2.683035" lon="-78.777634">
        <ele>3322.00</ele>
        <time>2018-09-08T20:01:46Z</time>
      </trkpt>
      <trkpt lat="-2.682868" lon="-78.777611">
        <ele>3323.00</ele>
        <time>2018-09-08T20:01:47Z</time>
      </trkpt>
      <trkpt lat="-2.682704" lon="-78.777580">
        <ele>3324.00</ele>
        <time>2018-09-08T20:01:48Z</time>
      </trkpt>
      <trkpt lat="-2.682557" lon="-78.777550">
        <ele>3325.00</ele>
        <time>2018-09-08T20:01:49Z</time>
      </trkpt>
      <trkpt lat="-2.682423" lon="-78.777481">
        <ele>3326.00</ele>
        <time>2018-09-08T20:01:50Z</time>
      </trkpt>
      <trkpt lat="-2.682308" lon="-78.777397">
        <ele>3326.00</ele>
        <time>2018-09-08T20:01:51Z</time>
      </trkpt>
      <trkpt lat="-2.682209" lon="-78.777283">
        <ele>3327.00</ele>
        <time>2018-09-08T20:01:52Z</time>
      </trkpt>
      <trkpt lat="-2.682114" lon="-78.777176">
        <ele>3328.00</ele>
        <time>2018-09-08T20:01:53Z</time>
      </trkpt>
      <trkpt lat="-2.682010" lon="-78.777069">
        <ele>3329.00</ele>
        <time>2018-09-08T20:01:54Z</time>
      </trkpt>
      <trkpt lat="-2.681880" lon="-78.776985">
        <ele>3329.00</ele>
        <time>2018-09-08T20:01:55Z</time>
      </trkpt>
      <trkpt lat="-2.681734" lon="-78.776924">
        <ele>3330.00</ele>
        <time>2018-09-08T20:01:56Z</time>
      </trkpt>
      <trkpt lat="-2.681582" lon="-78.776871">
        <ele>3330.00</ele>
        <time>2018-09-08T20:01:57Z</time>
      </trkpt>
      <trkpt lat="-2.681432" lon="-78.776825">
        <ele>3330.00</ele>
        <time>2018-09-08T20:01:58Z</time>
      </trkpt>
      <trkpt lat="-2.681293" lon="-78.776794">
        <ele>3330.00</ele>
        <time>2018-09-08T20:01:59Z</time>
      </trkpt>
      <trkpt lat="-2.681165" lon="-78.776756">
        <ele>3330.00</ele>
        <time>2018-09-08T20:02:00Z</time>
      </trkpt>
      <trkpt lat="-2.681029" lon="-78.776726">
        <ele>3330.00</ele>
        <time>2018-09-08T20:02:01Z</time>
      </trkpt>
      <trkpt lat="-2.680882" lon="-78.776749">
        <ele>3330.00</ele>
        <time>2018-09-08T20:02:02Z</time>
      </trkpt>
      <trkpt lat="-2.680729" lon="-78.776772">
        <ele>3330.00</ele>
        <time>2018-09-08T20:02:03Z</time>
      </trkpt>
      <trkpt lat="-2.680575" lon="-78.776817">
        <ele>3329.00</ele>
        <time>2018-09-08T20:02:04Z</time>
      </trkpt>
      <trkpt lat="-2.680430" lon="-78.776863">
        <ele>3329.00</ele>
        <time>2018-09-08T20:02:05Z</time>
      </trkpt>
      <trkpt lat="-2.680289" lon="-78.776909">
        <ele>3329.00</ele>
        <time>2018-09-08T20:02:06Z</time>
      </trkpt>
      <trkpt lat="-2.680150" lon="-78.776924">
        <ele>3329.00</ele>
        <time>2018-09-08T20:02:07Z</time>
      </trkpt>
      <trkpt lat="-2.680014" lon="-78.776917">
        <ele>3329.00</ele>
        <time>2018-09-08T20:02:08Z</time>
      </trkpt>
      <trkpt lat="-2.679887" lon="-78.776871">
        <ele>3329.00</ele>
        <time>2018-09-08T20:02:09Z</time>
      </trkpt>
      <trkpt lat="-2.679761" lon="-78.776802">
        <ele>3329.00</ele>
        <time>2018-09-08T20:02:10Z</time>
      </trkpt>
      <trkpt lat="-2.679642" lon="-78.776703">
        <ele>3329.00</ele>
        <time>2018-09-08T20:02:11Z</time>
      </trkpt>
      <trkpt lat="-2.679517" lon="-78.776596">
        <ele>3330.00</ele>
        <time>2018-09-08T20:02:12Z</time>
      </trkpt>
      <trkpt lat="-2.679386" lon="-78.776497">
        <ele>3330.00</ele>
        <time>2018-09-08T20:02:13Z</time>
      </trkpt>
      <trkpt lat="-2.679257" lon="-78.776390">
        <ele>3330.00</ele>
        <time>2018-09-08T20:02:14Z</time>
      </trkpt>
      <trkpt lat="-2.679122" lon="-78.776291">
        <ele>3331.00</ele>
        <time>2018-09-08T20:02:15Z</time>
      </trkpt>
      <trkpt lat="-2.678992" lon="-78.776184">
        <ele>3331.00</ele>
        <time>2018-09-08T20:02:16Z</time>
      </trkpt>
      <trkpt lat="-2.678864" lon="-78.776093">
        <ele>3332.00</ele>
        <time>2018-09-08T20:02:17Z</time>
      </trkpt>
      <trkpt lat="-2.678742" lon="-78.775993">
        <ele>3332.00</ele>
        <time>2018-09-08T20:02:18Z</time>
      </trkpt>
      <trkpt lat="-2.678614" lon="-78.775909">
        <ele>3333.00</ele>
        <time>2018-09-08T20:02:19Z</time>
      </trkpt>
      <trkpt lat="-2.678473" lon="-78.775856">
        <ele>3333.00</ele>
        <time>2018-09-08T20:02:20Z</time>
      </trkpt>
      <trkpt lat="-2.678323" lon="-78.775826">
        <ele>3334.00</ele>
        <time>2018-09-08T20:02:21Z</time>
      </trkpt>
      <trkpt lat="-2.678171" lon="-78.775795">
        <ele>3334.00</ele>
        <time>2018-09-08T20:02:22Z</time>
      </trkpt>
      <trkpt lat="-2.678016" lon="-78.775780">
        <ele>3334.00</ele>
        <time>2018-09-08T20:02:23Z</time>
      </trkpt>
      <trkpt lat="-2.677857" lon="-78.775749">
        <ele>3335.00</ele>
        <time>2018-09-08T20:02:24Z</time>
      </trkpt>
      <trkpt lat="-2.677698" lon="-78.775719">
        <ele>3335.00</ele>
        <time>2018-09-08T20:02:25Z</time>
      </trkpt>
      <trkpt lat="-2.677539" lon="-78.775688">
        <ele>3335.00</ele>
        <time>2018-09-08T20:02:26Z</time>
      </trkpt>
      <trkpt lat="-2.677374" lon="-78.775665">
        <ele>3335.00</ele>
        <time>2018-09-08T20:02:27Z</time>
      </trkpt>
      <trkpt lat="-2.677208" lon="-78.775635">
        <ele>3335.00</ele>
        <time>2018-09-08T20:02:28Z</time>
      </trkpt>
      <trkpt lat="-2.677043" lon="-78.775612">
        <ele>3336.00</ele>
        <time>2018-09-08T20:02:29Z</time>
      </trkpt>
      <trkpt lat="-2.676873" lon="-78.775581">
        <ele>3335.00</ele>
        <time>2018-09-08T20:02:30Z</time>
      </trkpt>
      <trkpt lat="-2.676709" lon="-78.775558">
        <ele>3335.00</ele>
        <time>2018-09-08T20:02:31Z</time>
      </trkpt>
      <trkpt lat="-2.676546" lon="-78.775543">
        <ele>3335.00</ele>
        <time>2018-09-08T20:02:32Z</time>
      </trkpt>
      <trkpt lat="-2.676393" lon="-78.775505">
        <ele>3335.00</ele>
        <time>2018-09-08T20:02:33Z</time>
      </trkpt>
      <trkpt lat="-2.676246" lon="-78.775452">
        <ele>3336.00</ele>
        <time>2018-09-08T20:02:34Z</time>
      </trkpt>
      <trkpt lat="-2.676106" lon="-78.775360">
        <ele>3336.00</ele>
        <time>2018-09-08T20:02:35Z</time>
      </trkpt>
      <trkpt lat="-2.675967" lon="-78.775238">
        <ele>3336.00</ele>
        <time>2018-09-08T20:02:36Z</time>
      </trkpt>
      <trkpt lat="-2.675829" lon="-78.775101">
        <ele>3336.00</ele>
        <time>2018-09-08T20:02:37Z</time>
      </trkpt>
      <trkpt lat="-2.675683" lon="-78.774971">
        <ele>3336.00</ele>
        <time>2018-09-08T20:02:38Z</time>
      </trkpt>
      <trkpt lat="-2.675534" lon="-78.774826">
        <ele>3336.00</ele>
        <time>2018-09-08T20:02:39Z</time>
      </trkpt>
      <trkpt lat="-2.675383" lon="-78.774681">
        <ele>3336.00</ele>
        <time>2018-09-08T20:02:40Z</time>
      </trkpt>
      <trkpt lat="-2.675234" lon="-78.774521">
        <ele>3336.00</ele>
        <time>2018-09-08T20:02:41Z</time>
      </trkpt>
      <trkpt lat="-2.675087" lon="-78.774376">
        <ele>3336.00</ele>
        <time>2018-09-08T20:02:42Z</time>
      </trkpt>
      <trkpt lat="-2.674952" lon="-78.774208">
        <ele>3337.00</ele>
        <time>2018-09-08T20:02:43Z</time>
      </trkpt>
      <trkpt lat="-2.674833" lon="-78.774025">
        <ele>3337.00</ele>
        <time>2018-09-08T20:02:44Z</time>
      </trkpt>
      <trkpt lat="-2.674741" lon="-78.773842">
        <ele>3338.00</ele>
        <time>2018-09-08T20:02:45Z</time>
      </trkpt>
      <trkpt lat="-2.674659" lon="-78.773659">
        <ele>3339.00</ele>
        <time>2018-09-08T20:02:46Z</time>
      </trkpt>
      <trkpt lat="-2.674582" lon="-78.773491">
        <ele>3340.00</ele>
        <time>2018-09-08T20:02:47Z</time>
      </trkpt>
      <trkpt lat="-2.674510" lon="-78.773323">
        <ele>3341.00</ele>
        <time>2018-09-08T20:02:48Z</time>
      </trkpt>
      <trkpt lat="-2.674434" lon="-78.773163">
        <ele>3341.00</ele>
        <time>2018-09-08T20:02:49Z</time>
      </trkpt>
      <trkpt lat="-2.674330" lon="-78.773026">
        <ele>3342.00</ele>
        <time>2018-09-08T20:02:50Z</time>
      </trkpt>
      <trkpt lat="-2.674204" lon="-78.772888">
        <ele>3343.00</ele>
        <time>2018-09-08T20:02:51Z</time>
      </trkpt>
      <trkpt lat="-2.674078" lon="-78.772758">
        <ele>3343.00</ele>
        <time>2018-09-08T20:02:52Z</time>
      </trkpt>
      <trkpt lat="-2.673957" lon="-78.772629">
        <ele>3344.00</ele>
        <time>2018-09-08T20:02:53Z</time>
      </trkpt>
      <trkpt lat="-2.673849" lon="-78.772499">
        <ele>3345.00</ele>
        <time>2018-09-08T20:02:54Z</time>
      </trkpt>
      <trkpt lat="-2.673762" lon="-78.772346">
        <ele>3346.00</ele>
        <time>2018-09-08T20:02:55Z</time>
      </trkpt>
      <trkpt lat="-2.673692" lon="-78.772194">
        <ele>3346.00</ele>
        <time>2018-09-08T20:02:56Z</time>
      </trkpt>
      <trkpt lat="-2.673637" lon="-78.772041">
        <ele>3347.00</ele>
        <time>2018-09-08T20:02:57Z</time>
      </trkpt>
      <trkpt lat="-2.673577" lon="-78.771896">
        <ele>3347.00</ele>
        <time>2018-09-08T20:02:58Z</time>
      </trkpt>
      <trkpt lat="-2.673511" lon="-78.771744">
        <ele>3348.00</ele>
        <time>2018-09-08T20:02:59Z</time>
      </trkpt>
      <trkpt lat="-2.673418" lon="-78.771606">
        <ele>3349.00</ele>
        <time>2018-09-08T20:03:00Z</time>
      </trkpt>
      <trkpt lat="-2.673305" lon="-78.771500">
        <ele>3350.00</ele>
        <time>2018-09-08T20:03:01Z</time>
      </trkpt>
      <trkpt lat="-2.673178" lon="-78.771393">
        <ele>3352.00</ele>
        <time>2018-09-08T20:03:02Z</time>
      </trkpt>
      <trkpt lat="-2.673027" lon="-78.771309">
        <ele>3353.00</ele>
        <time>2018-09-08T20:03:03Z</time>
      </trkpt>
      <trkpt lat="-2.672874" lon="-78.771202">
        <ele>3354.00</ele>
        <time>2018-09-08T20:03:04Z</time>
      </trkpt>
      <trkpt lat="-2.672721" lon="-78.771103">
        <ele>3355.00</ele>
        <time>2018-09-08T20:03:05Z</time>
      </trkpt>
      <trkpt lat="-2.672577" lon="-78.771004">
        <ele>3356.00</ele>
        <time>2018-09-08T20:03:06Z</time>
      </trkpt>
      <trkpt lat="-2.672451" lon="-78.770882">
        <ele>3357.00</ele>
        <time>2018-09-08T20:03:07Z</time>
      </trkpt>
      <trkpt lat="-2.672340" lon="-78.770744">
        <ele>3358.00</ele>
        <time>2018-09-08T20:03:08Z</time>
      </trkpt>
      <trkpt lat="-2.672247" lon="-78.770607">
        <ele>3359.00</ele>
        <time>2018-09-08T20:03:09Z</time>
      </trkpt>
      <trkpt lat="-2.672173" lon="-78.770454">
        <ele>3359.00</ele>
        <time>2018-09-08T20:03:10Z</time>
      </trkpt>
      <trkpt lat="-2.672109" lon="-78.770302">
        <ele>3360.00</ele>
        <time>2018-09-08T20:03:11Z</time>
      </trkpt>
      <trkpt lat="-2.672057" lon="-78.770172">
        <ele>3360.00</ele>
        <time>2018-09-08T20:03:12Z</time>
      </trkpt>
      <trkpt lat="-2.672019" lon="-78.770042">
        <ele>3361.00</ele>
        <time>2018-09-08T20:03:13Z</time>
      </trkpt>
      <trkpt lat="-2.672008" lon="-78.769905">
        <ele>3362.00</ele>
        <time>2018-09-08T20:03:14Z</time>
      </trkpt>
      <trkpt lat="-2.672045" lon="-78.769760">
        <ele>3362.00</ele>
        <time>2018-09-08T20:03:15Z</time>
      </trkpt>
      <trkpt lat="-2.672110" lon="-78.769615">
        <ele>3362.00</ele>
        <time>2018-09-08T20:03:16Z</time>
      </trkpt>
      <trkpt lat="-2.672190" lon="-78.769478">
        <ele>3363.00</ele>
        <time>2018-09-08T20:03:17Z</time>
      </trkpt>
      <trkpt lat="-2.672272" lon="-78.769333">
        <ele>3363.00</ele>
        <time>2018-09-08T20:03:18Z</time>
      </trkpt>
      <trkpt lat="-2.672354" lon="-78.769203">
        <ele>3363.00</ele>
        <time>2018-09-08T20:03:19Z</time>
      </trkpt>
      <trkpt lat="-2.672424" lon="-78.769073">
        <ele>3364.00</ele>
        <time>2018-09-08T20:03:20Z</time>
      </trkpt>
      <trkpt lat="-2.672474" lon="-78.768959">
        <ele>3364.00</ele>
        <time>2018-09-08T20:03:21Z</time>
      </trkpt>
      <trkpt lat="-2.672483" lon="-78.768860">
        <ele>3365.00</ele>
        <time>2018-09-08T20:03:22Z</time>
      </trkpt>
      <trkpt lat="-2.672461" lon="-78.768753">
        <ele>3365.00</ele>
        <time>2018-09-08T20:03:23Z</time>
      </trkpt>
      <trkpt lat="-2.672408" lon="-78.768661">
        <ele>3365.00</ele>
        <time>2018-09-08T20:03:24Z</time>
      </trkpt>
      <trkpt lat="-2.672350" lon="-78.768539">
        <ele>3366.00</ele>
        <time>2018-09-08T20:03:25Z</time>
      </trkpt>
      <trkpt lat="-2.672313" lon="-78.768433">
        <ele>3366.00</ele>
        <time>2018-09-08T20:03:26Z</time>
      </trkpt>
      <trkpt lat="-2.672305" lon="-78.768326">
        <ele>3367.00</ele>
        <time>2018-09-08T20:03:27Z</time>
      </trkpt>
      <trkpt lat="-2.672325" lon="-78.768211">
        <ele>3367.00</ele>
        <time>2018-09-08T20:03:28Z</time>
      </trkpt>
      <trkpt lat="-2.672351" lon="-78.768105">
        <ele>3367.00</ele>
        <time>2018-09-08T20:03:29Z</time>
      </trkpt>
      <trkpt lat="-2.672348" lon="-78.767998">
        <ele>3368.00</ele>
        <time>2018-09-08T20:03:30Z</time>
      </trkpt>
      <trkpt lat="-2.672310" lon="-78.767899">
        <ele>3368.00</ele>
        <time>2018-09-08T20:03:31Z</time>
      </trkpt>
      <trkpt lat="-2.672245" lon="-78.767807">
        <ele>3369.00</ele>
        <time>2018-09-08T20:03:32Z</time>
      </trkpt>
      <trkpt lat="-2.672138" lon="-78.767754">
        <ele>3370.00</ele>
        <time>2018-09-08T20:03:33Z</time>
      </trkpt>
      <trkpt lat="-2.672020" lon="-78.767715">
        <ele>3371.00</ele>
        <time>2018-09-08T20:03:34Z</time>
      </trkpt>
      <trkpt lat="-2.671904" lon="-78.767670">
        <ele>3372.00</ele>
        <time>2018-09-08T20:03:35Z</time>
      </trkpt>
      <trkpt lat="-2.671790" lon="-78.767609">
        <ele>3373.00</ele>
        <time>2018-09-08T20:03:36Z</time>
      </trkpt>
      <trkpt lat="-2.671678" lon="-78.767532">
        <ele>3374.00</ele>
        <time>2018-09-08T20:03:37Z</time>
      </trkpt>
      <trkpt lat="-2.671577" lon="-78.767433">
        <ele>3375.00</ele>
        <time>2018-09-08T20:03:38Z</time>
      </trkpt>
      <trkpt lat="-2.671476" lon="-78.767326">
        <ele>3376.00</ele>
        <time>2018-09-08T20:03:39Z</time>
      </trkpt>
      <trkpt lat="-2.671369" lon="-78.767220">
        <ele>3376.00</ele>
        <time>2018-09-08T20:03:40Z</time>
      </trkpt>
      <trkpt lat="-2.671260" lon="-78.767113">
        <ele>3377.00</ele>
        <time>2018-09-08T20:03:41Z</time>
      </trkpt>
      <trkpt lat="-2.671149" lon="-78.766998">
        <ele>3378.00</ele>
        <time>2018-09-08T20:03:42Z</time>
      </trkpt>
      <trkpt lat="-2.671036" lon="-78.766876">
        <ele>3378.00</ele>
        <time>2018-09-08T20:03:43Z</time>
      </trkpt>
      <trkpt lat="-2.670925" lon="-78.766762">
        <ele>3379.00</ele>
        <time>2018-09-08T20:03:44Z</time>
      </trkpt>
      <trkpt lat="-2.670816" lon="-78.766647">
        <ele>3380.00</ele>
        <time>2018-09-08T20:03:45Z</time>
      </trkpt>
      <trkpt lat="-2.670715" lon="-78.766541">
        <ele>3380.00</ele>
        <time>2018-09-08T20:03:46Z</time>
      </trkpt>
      <trkpt lat="-2.670633" lon="-78.766457">
        <ele>3381.00</ele>
        <time>2018-09-08T20:03:47Z</time>
      </trkpt>
      <trkpt lat="-2.670569" lon="-78.766373">
        <ele>3382.00</ele>
        <time>2018-09-08T20:03:48Z</time>
      </trkpt>
      <trkpt lat="-2.670517" lon="-78.766296">
        <ele>3382.00</ele>
        <time>2018-09-08T20:03:49Z</time>
      </trkpt>
      <trkpt lat="-2.670484" lon="-78.766212">
        <ele>3383.00</ele>
        <time>2018-09-08T20:03:50Z</time>
      </trkpt>
      <trkpt lat="-2.670477" lon="-78.766113">
        <ele>3384.00</ele>
        <time>2018-09-08T20:03:51Z</time>
      </trkpt>
      <trkpt lat="-2.670511" lon="-78.765991">
        <ele>3384.00</ele>
        <time>2018-09-08T20:03:52Z</time>
      </trkpt>
      <trkpt lat="-2.670554" lon="-78.765869">
        <ele>3384.00</ele>
        <time>2018-09-08T20:03:53Z</time>
      </trkpt>
      <trkpt lat="-2.670596" lon="-78.765732">
        <ele>3385.00</ele>
        <time>2018-09-08T20:03:54Z</time>
      </trkpt>
      <trkpt lat="-2.670638" lon="-78.765602">
        <ele>3385.00</ele>
        <time>2018-09-08T20:03:55Z</time>
      </trkpt>
      <trkpt lat="-2.670677" lon="-78.765465">
        <ele>3385.00</ele>
        <time>2018-09-08T20:03:56Z</time>
      </trkpt>
      <trkpt lat="-2.670702" lon="-78.765327">
        <ele>3386.00</ele>
        <time>2018-09-08T20:03:57Z</time>
      </trkpt>
      <trkpt lat="-2.670712" lon="-78.765182">
        <ele>3386.00</ele>
        <time>2018-09-08T20:03:58Z</time>
      </trkpt>
      <trkpt lat="-2.670707" lon="-78.765038">
        <ele>3387.00</ele>
        <time>2018-09-08T20:03:59Z</time>
      </trkpt>
      <trkpt lat="-2.670694" lon="-78.764915">
        <ele>3387.00</ele>
        <time>2018-09-08T20:04:00Z</time>
      </trkpt>
      <trkpt lat="-2.670681" lon="-78.764809">
        <ele>3388.00</ele>
        <time>2018-09-08T20:04:01Z</time>
      </trkpt>
      <trkpt lat="-2.670671" lon="-78.764709">
        <ele>3388.00</ele>
        <time>2018-09-08T20:04:02Z</time>
      </trkpt>
      <trkpt lat="-2.670655" lon="-78.764641">
        <ele>3389.00</ele>
        <time>2018-09-08T20:04:03Z</time>
      </trkpt>
      <trkpt lat="-2.670623" lon="-78.764580">
        <ele>3389.00</ele>
        <time>2018-09-08T20:04:04Z</time>
      </trkpt>
      <trkpt lat="-2.670581" lon="-78.764542">
        <ele>3390.00</ele>
        <time>2018-09-08T20:04:05Z</time>
      </trkpt>
      <trkpt lat="-2.670553" lon="-78.764519">
        <ele>3390.00</ele>
        <time>2018-09-08T20:04:06Z</time>
      </trkpt>
      <trkpt lat="-2.670553" lon="-78.764519">
        <ele>3390.00</ele>
        <time>2018-09-08T20:04:07Z</time>
      </trkpt>
      <trkpt lat="-2.670553" lon="-78.764519">
        <ele>3390.00</ele>
        <time>2018-09-08T20:04:08Z</time>
      </trkpt>
      <trkpt lat="-2.670553" lon="-78.764519">
        <ele>3390.00</ele>
        <time>2018-09-08T20:04:09Z</time>
      </trkpt>
      <trkpt lat="-2.670518" lon="-78.764488">
        <ele>3390.00</ele>
        <time>2018-09-08T20:04:10Z</time>
      </trkpt>
      <trkpt lat="-2.670490" lon="-78.764465">
        <ele>3390.00</ele>
        <time>2018-09-08T20:04:11Z</time>
      </trkpt>
      <trkpt lat="-2.670458" lon="-78.764420">
        <ele>3390.00</ele>
        <time>2018-09-08T20:04:12Z</time>
      </trkpt>
      <trkpt lat="-2.670411" lon="-78.764374">
        <ele>3390.00</ele>
        <time>2018-09-08T20:04:13Z</time>
      </trkpt>
      <trkpt lat="-2.670342" lon="-78.764336">
        <ele>3391.00</ele>
        <time>2018-09-08T20:04:14Z</time>
      </trkpt>
      <trkpt lat="-2.670256" lon="-78.764320">
        <ele>3392.00</ele>
        <time>2018-09-08T20:04:15Z</time>
      </trkpt>
      <trkpt lat="-2.670153" lon="-78.764320">
        <ele>3392.00</ele>
        <time>2018-09-08T20:04:16Z</time>
      </trkpt>
      <trkpt lat="-2.670054" lon="-78.764320">
        <ele>3393.00</ele>
        <time>2018-09-08T20:04:17Z</time>
      </trkpt>
      <trkpt lat="-2.669959" lon="-78.764366">
        <ele>3394.00</ele>
        <time>2018-09-08T20:04:18Z</time>
      </trkpt>
      <trkpt lat="-2.669876" lon="-78.764420">
        <ele>3395.00</ele>
        <time>2018-09-08T20:04:19Z</time>
      </trkpt>
      <trkpt lat="-2.669822" lon="-78.764496">
        <ele>3396.00</ele>
        <time>2018-09-08T20:04:20Z</time>
      </trkpt>
      <trkpt lat="-2.669814" lon="-78.764580">
        <ele>3396.00</ele>
        <time>2018-09-08T20:04:21Z</time>
      </trkpt>
      <trkpt lat="-2.669821" lon="-78.764641">
        <ele>3397.00</ele>
        <time>2018-09-08T20:04:22Z</time>
      </trkpt>
      <trkpt lat="-2.669826" lon="-78.764687">
        <ele>3397.00</ele>
        <time>2018-09-08T20:04:23Z</time>
      </trkpt>
      <trkpt lat="-2.669829" lon="-78.764709">
        <ele>3397.00</ele>
        <time>2018-09-08T20:04:24Z</time>
      </trkpt>
      <trkpt lat="-2.669833" lon="-78.764740">
        <ele>3397.00</ele>
        <time>2018-09-08T20:04:25Z</time>
      </trkpt>
      <trkpt lat="-2.669835" lon="-78.764763">
        <ele>3397.00</ele>
        <time>2018-09-08T20:04:26Z</time>
      </trkpt>
      <trkpt lat="-2.669838" lon="-78.764793">
        <ele>3397.00</ele>
        <time>2018-09-08T20:04:27Z</time>
      </trkpt>
      <trkpt lat="-2.669842" lon="-78.764824">
        <ele>3397.00</ele>
        <time>2018-09-08T20:04:28Z</time>
      </trkpt>
      <trkpt lat="-2.669845" lon="-78.764854">
        <ele>3397.00</ele>
        <time>2018-09-08T20:04:29Z</time>
      </trkpt>
      <trkpt lat="-2.669848" lon="-78.764893">
        <ele>3397.00</ele>
        <time>2018-09-08T20:04:30Z</time>
      </trkpt>
      <trkpt lat="-2.669849" lon="-78.764923">
        <ele>3398.00</ele>
        <time>2018-09-08T20:04:31Z</time>
      </trkpt>
      <trkpt lat="-2.669839" lon="-78.764992">
        <ele>3398.00</ele>
        <time>2018-09-08T20:04:32Z</time>
      </trkpt>
      <trkpt lat="-2.669820" lon="-78.765083">
        <ele>3398.00</ele>
        <time>2018-09-08T20:04:33Z</time>
      </trkpt>
      <trkpt lat="-2.669795" lon="-78.765182">
        <ele>3399.00</ele>
        <time>2018-09-08T20:04:34Z</time>
      </trkpt>
      <trkpt lat="-2.669774" lon="-78.765289">
        <ele>3399.00</ele>
        <time>2018-09-08T20:04:35Z</time>
      </trkpt>
      <trkpt lat="-2.669771" lon="-78.765404">
        <ele>3400.00</ele>
        <time>2018-09-08T20:04:36Z</time>
      </trkpt>
      <trkpt lat="-2.669767" lon="-78.765518">
        <ele>3400.00</ele>
        <time>2018-09-08T20:04:37Z</time>
      </trkpt>
      <trkpt lat="-2.669767" lon="-78.765656">
        <ele>3400.00</ele>
        <time>2018-09-08T20:04:38Z</time>
      </trkpt>
      <trkpt lat="-2.669775" lon="-78.765770">
        <ele>3400.00</ele>
        <time>2018-09-08T20:04:39Z</time>
      </trkpt>
      <trkpt lat="-2.669780" lon="-78.765900">
        <ele>3400.00</ele>
        <time>2018-09-08T20:04:40Z</time>
      </trkpt>
      <trkpt lat="-2.669778" lon="-78.766029">
        <ele>3401.00</ele>
        <time>2018-09-08T20:04:41Z</time>
      </trkpt>
      <trkpt lat="-2.669742" lon="-78.766159">
        <ele>3401.00</ele>
        <time>2018-09-08T20:04:42Z</time>
      </trkpt>
      <trkpt lat="-2.669689" lon="-78.766266">
        <ele>3402.00</ele>
        <time>2018-09-08T20:04:43Z</time>
      </trkpt>
      <trkpt lat="-2.669642" lon="-78.766357">
        <ele>3402.00</ele>
        <time>2018-09-08T20:04:44Z</time>
      </trkpt>
      <trkpt lat="-2.669617" lon="-78.766441">
        <ele>3403.00</ele>
        <time>2018-09-08T20:04:45Z</time>
      </trkpt>
      <trkpt lat="-2.669617" lon="-78.766548">
        <ele>3403.00</ele>
        <time>2018-09-08T20:04:46Z</time>
      </trkpt>
      <trkpt lat="-2.669642" lon="-78.766655">
        <ele>3404.00</ele>
        <time>2018-09-08T20:04:47Z</time>
      </trkpt>
      <trkpt lat="-2.669683" lon="-78.766762">
        <ele>3404.00</ele>
        <time>2018-09-08T20:04:48Z</time>
      </trkpt>
      <trkpt lat="-2.669740" lon="-78.766869">
        <ele>3405.00</ele>
        <time>2018-09-08T20:04:49Z</time>
      </trkpt>
      <trkpt lat="-2.669801" lon="-78.766975">
        <ele>3406.00</ele>
        <time>2018-09-08T20:04:50Z</time>
      </trkpt>
      <trkpt lat="-2.669863" lon="-78.767090">
        <ele>3407.00</ele>
        <time>2018-09-08T20:04:51Z</time>
      </trkpt>
      <trkpt lat="-2.669919" lon="-78.767227">
        <ele>3408.00</ele>
        <time>2018-09-08T20:04:52Z</time>
      </trkpt>
      <trkpt lat="-2.669971" lon="-78.767357">
        <ele>3409.00</ele>
        <time>2018-09-08T20:04:53Z</time>
      </trkpt>
      <trkpt lat="-2.670006" lon="-78.767502">
        <ele>3410.00</ele>
        <time>2018-09-08T20:04:54Z</time>
      </trkpt>
      <trkpt lat="-2.670008" lon="-78.767647">
        <ele>3411.00</ele>
        <time>2018-09-08T20:04:55Z</time>
      </trkpt>
      <trkpt lat="-2.669997" lon="-78.767769">
        <ele>3413.00</ele>
        <time>2018-09-08T20:04:56Z</time>
      </trkpt>
      <trkpt lat="-2.670003" lon="-78.767883">
        <ele>3414.00</ele>
        <time>2018-09-08T20:04:57Z</time>
      </trkpt>
      <trkpt lat="-2.670042" lon="-78.768005">
        <ele>3415.00</ele>
        <time>2018-09-08T20:04:58Z</time>
      </trkpt>
      <trkpt lat="-2.670093" lon="-78.768127">
        <ele>3415.00</ele>
        <time>2018-09-08T20:04:59Z</time>
      </trkpt>
      <trkpt lat="-2.670149" lon="-78.768242">
        <ele>3416.00</ele>
        <time>2018-09-08T20:05:00Z</time>
      </trkpt>
      <trkpt lat="-2.670207" lon="-78.768356">
        <ele>3417.00</ele>
        <time>2018-09-08T20:05:01Z</time>
      </trkpt>
      <trkpt lat="-2.670261" lon="-78.768456">
        <ele>3418.00</ele>
        <time>2018-09-08T20:05:02Z</time>
      </trkpt>
      <trkpt lat="-2.670288" lon="-78.768532">
        <ele>3419.00</ele>
        <time>2018-09-08T20:05:03Z</time>
      </trkpt>
      <trkpt lat="-2.670280" lon="-78.768631">
        <ele>3420.00</ele>
        <time>2018-09-08T20:05:04Z</time>
      </trkpt>
      <trkpt lat="-2.670253" lon="-78.768715">
        <ele>3421.00</ele>
        <time>2018-09-08T20:05:05Z</time>
      </trkpt>
      <trkpt lat="-2.670179" lon="-78.768745">
        <ele>3421.00</ele>
        <time>2018-09-08T20:05:06Z</time>
      </trkpt>
      <trkpt lat="-2.670080" lon="-78.768745">
        <ele>3422.00</ele>
        <time>2018-09-08T20:05:07Z</time>
      </trkpt>
      <trkpt lat="-2.669979" lon="-78.768692">
        <ele>3422.00</ele>
        <time>2018-09-08T20:05:08Z</time>
      </trkpt>
      <trkpt lat="-2.669879" lon="-78.768623">
        <ele>3423.00</ele>
        <time>2018-09-08T20:05:09Z</time>
      </trkpt>
      <trkpt lat="-2.669763" lon="-78.768555">
        <ele>3424.00</ele>
        <time>2018-09-08T20:05:10Z</time>
      </trkpt>
      <trkpt lat="-2.669653" lon="-78.768478">
        <ele>3425.00</ele>
        <time>2018-09-08T20:05:11Z</time>
      </trkpt>
      <trkpt lat="-2.669558" lon="-78.768417">
        <ele>3426.00</ele>
        <time>2018-09-08T20:05:12Z</time>
      </trkpt>
      <trkpt lat="-2.669460" lon="-78.768394">
        <ele>3428.00</ele>
        <time>2018-09-08T20:05:13Z</time>
      </trkpt>
      <trkpt lat="-2.669370" lon="-78.768410">
        <ele>3429.00</ele>
        <time>2018-09-08T20:05:14Z</time>
      </trkpt>
      <trkpt lat="-2.669297" lon="-78.768456">
        <ele>3430.00</ele>
        <time>2018-09-08T20:05:15Z</time>
      </trkpt>
      <trkpt lat="-2.669249" lon="-78.768539">
        <ele>3431.00</ele>
        <time>2018-09-08T20:05:16Z</time>
      </trkpt>
      <trkpt lat="-2.669259" lon="-78.768639">
        <ele>3431.00</ele>
        <time>2018-09-08T20:05:17Z</time>
      </trkpt>
      <trkpt lat="-2.669273" lon="-78.768745">
        <ele>3432.00</ele>
        <time>2018-09-08T20:05:18Z</time>
      </trkpt>
      <trkpt lat="-2.669262" lon="-78.768845">
        <ele>3432.00</ele>
        <time>2018-09-08T20:05:19Z</time>
      </trkpt>
      <trkpt lat="-2.669198" lon="-78.768936">
        <ele>3433.00</ele>
        <time>2018-09-08T20:05:20Z</time>
      </trkpt>
      <trkpt lat="-2.669107" lon="-78.768997">
        <ele>3434.00</ele>
        <time>2018-09-08T20:05:21Z</time>
      </trkpt>
      <trkpt lat="-2.669011" lon="-78.769066">
        <ele>3434.00</ele>
        <time>2018-09-08T20:05:22Z</time>
      </trkpt>
      <trkpt lat="-2.668909" lon="-78.769135">
        <ele>3435.00</ele>
        <time>2018-09-08T20:05:23Z</time>
      </trkpt>
      <trkpt lat="-2.668794" lon="-78.769218">
        <ele>3436.00</ele>
        <time>2018-09-08T20:05:24Z</time>
      </trkpt>
      <trkpt lat="-2.668668" lon="-78.769272">
        <ele>3437.00</ele>
        <time>2018-09-08T20:05:25Z</time>
      </trkpt>
      <trkpt lat="-2.668532" lon="-78.769325">
        <ele>3437.00</ele>
        <time>2018-09-08T20:05:26Z</time>
      </trkpt>
      <trkpt lat="-2.668399" lon="-78.769394">
        <ele>3437.00</ele>
        <time>2018-09-08T20:05:27Z</time>
      </trkpt>
      <trkpt lat="-2.668276" lon="-78.769455">
        <ele>3438.00</ele>
        <time>2018-09-08T20:05:28Z</time>
      </trkpt>
      <trkpt lat="-2.668153" lon="-78.769524">
        <ele>3439.00</ele>
        <time>2018-09-08T20:05:29Z</time>
      </trkpt>
      <trkpt lat="-2.668021" lon="-78.769577">
        <ele>3440.00</ele>
        <time>2018-09-08T20:05:30Z</time>
      </trkpt>
      <trkpt lat="-2.667884" lon="-78.769608">
        <ele>3441.00</ele>
        <time>2018-09-08T20:05:31Z</time>
      </trkpt>
      <trkpt lat="-2.667749" lon="-78.769653">
        <ele>3442.00</ele>
        <time>2018-09-08T20:05:32Z</time>
      </trkpt>
      <trkpt lat="-2.667619" lon="-78.769714">
        <ele>3443.00</ele>
        <time>2018-09-08T20:05:33Z</time>
      </trkpt>
      <trkpt lat="-2.667492" lon="-78.769775">
        <ele>3444.00</ele>
        <time>2018-09-08T20:05:34Z</time>
      </trkpt>
      <trkpt lat="-2.667369" lon="-78.769859">
        <ele>3446.00</ele>
        <time>2018-09-08T20:05:35Z</time>
      </trkpt>
      <trkpt lat="-2.667243" lon="-78.769928">
        <ele>3447.00</ele>
        <time>2018-09-08T20:05:36Z</time>
      </trkpt>
      <trkpt lat="-2.667112" lon="-78.769989">
        <ele>3448.00</ele>
        <time>2018-09-08T20:05:37Z</time>
      </trkpt>
      <trkpt lat="-2.666983" lon="-78.770065">
        <ele>3449.00</ele>
        <time>2018-09-08T20:05:38Z</time>
      </trkpt>
      <trkpt lat="-2.666856" lon="-78.770134">
        <ele>3450.00</ele>
        <time>2018-09-08T20:05:39Z</time>
      </trkpt>
      <trkpt lat="-2.666735" lon="-78.770226">
        <ele>3451.00</ele>
        <time>2018-09-08T20:05:40Z</time>
      </trkpt>
      <trkpt lat="-2.666622" lon="-78.770294">
        <ele>3452.00</ele>
        <time>2018-09-08T20:05:41Z</time>
      </trkpt>
      <trkpt lat="-2.666529" lon="-78.770355">
        <ele>3453.00</ele>
        <time>2018-09-08T20:05:42Z</time>
      </trkpt>
      <trkpt lat="-2.666439" lon="-78.770409">
        <ele>3454.00</ele>
        <time>2018-09-08T20:05:43Z</time>
      </trkpt>
      <trkpt lat="-2.666335" lon="-78.770470">
        <ele>3455.00</ele>
        <time>2018-09-08T20:05:44Z</time>
      </trkpt>
      <trkpt lat="-2.666228" lon="-78.770531">
        <ele>3456.00</ele>
        <time>2018-09-08T20:05:45Z</time>
      </trkpt>
      <trkpt lat="-2.666117" lon="-78.770615">
        <ele>3457.00</ele>
        <time>2018-09-08T20:05:46Z</time>
      </trkpt>
      <trkpt lat="-2.666011" lon="-78.770683">
        <ele>3458.00</ele>
        <time>2018-09-08T20:05:47Z</time>
      </trkpt>
      <trkpt lat="-2.665903" lon="-78.770744">
        <ele>3459.00</ele>
        <time>2018-09-08T20:05:48Z</time>
      </trkpt>
      <trkpt lat="-2.665786" lon="-78.770790">
        <ele>3460.00</ele>
        <time>2018-09-08T20:05:49Z</time>
      </trkpt>
      <trkpt lat="-2.665664" lon="-78.770828">
        <ele>3460.00</ele>
        <time>2018-09-08T20:05:50Z</time>
      </trkpt>
      <trkpt lat="-2.665533" lon="-78.770851">
        <ele>3461.00</ele>
        <time>2018-09-08T20:05:51Z</time>
      </trkpt>
      <trkpt lat="-2.665395" lon="-78.770874">
        <ele>3461.00</ele>
        <time>2018-09-08T20:05:52Z</time>
      </trkpt>
      <trkpt lat="-2.665256" lon="-78.770912">
        <ele>3462.00</ele>
        <time>2018-09-08T20:05:53Z</time>
      </trkpt>
      <trkpt lat="-2.665112" lon="-78.770950">
        <ele>3462.00</ele>
        <time>2018-09-08T20:05:54Z</time>
      </trkpt>
      <trkpt lat="-2.664965" lon="-78.771004">
        <ele>3462.00</ele>
        <time>2018-09-08T20:05:55Z</time>
      </trkpt>
      <trkpt lat="-2.664820" lon="-78.771065">
        <ele>3463.00</ele>
        <time>2018-09-08T20:05:56Z</time>
      </trkpt>
      <trkpt lat="-2.664675" lon="-78.771118">
        <ele>3464.00</ele>
        <time>2018-09-08T20:05:57Z</time>
      </trkpt>
      <trkpt lat="-2.664530" lon="-78.771172">
        <ele>3464.00</ele>
        <time>2018-09-08T20:05:58Z</time>
      </trkpt>
      <trkpt lat="-2.664377" lon="-78.771202">
        <ele>3465.00</ele>
        <time>2018-09-08T20:05:59Z</time>
      </trkpt>
      <trkpt lat="-2.664218" lon="-78.771217">
        <ele>3466.00</ele>
        <time>2018-09-08T20:06:00Z</time>
      </trkpt>
      <trkpt lat="-2.664057" lon="-78.771233">
        <ele>3467.00</ele>
        <time>2018-09-08T20:06:01Z</time>
      </trkpt>
      <trkpt lat="-2.663896" lon="-78.771271">
        <ele>3468.00</ele>
        <time>2018-09-08T20:06:02Z</time>
      </trkpt>
      <trkpt lat="-2.663740" lon="-78.771317">
        <ele>3468.00</ele>
        <time>2018-09-08T20:06:03Z</time>
      </trkpt>
      <trkpt lat="-2.663591" lon="-78.771355">
        <ele>3469.00</ele>
        <time>2018-09-08T20:06:04Z</time>
      </trkpt>
      <trkpt lat="-2.663445" lon="-78.771385">
        <ele>3470.00</ele>
        <time>2018-09-08T20:06:05Z</time>
      </trkpt>
      <trkpt lat="-2.663301" lon="-78.771385">
        <ele>3471.00</ele>
        <time>2018-09-08T20:06:06Z</time>
      </trkpt>
      <trkpt lat="-2.663173" lon="-78.771385">
        <ele>3472.00</ele>
        <time>2018-09-08T20:06:07Z</time>
      </trkpt>
      <trkpt lat="-2.663075" lon="-78.771385">
        <ele>3473.00</ele>
        <time>2018-09-08T20:06:08Z</time>
      </trkpt>
      <trkpt lat="-2.662997" lon="-78.771378">
        <ele>3473.00</ele>
        <time>2018-09-08T20:06:09Z</time>
      </trkpt>
      <trkpt lat="-2.662930" lon="-78.771378">
        <ele>3474.00</ele>
        <time>2018-09-08T20:06:10Z</time>
      </trkpt>
      <trkpt lat="-2.662859" lon="-78.771378">
        <ele>3474.00</ele>
        <time>2018-09-08T20:06:11Z</time>
      </trkpt>
      <trkpt lat="-2.662771" lon="-78.771393">
        <ele>3474.00</ele>
        <time>2018-09-08T20:06:12Z</time>
      </trkpt>
      <trkpt lat="-2.662667" lon="-78.771393">
        <ele>3475.00</ele>
        <time>2018-09-08T20:06:13Z</time>
      </trkpt>
      <trkpt lat="-2.662554" lon="-78.771408">
        <ele>3475.00</ele>
        <time>2018-09-08T20:06:14Z</time>
      </trkpt>
      <trkpt lat="-2.662421" lon="-78.771423">
        <ele>3475.00</ele>
        <time>2018-09-08T20:06:15Z</time>
      </trkpt>
      <trkpt lat="-2.662289" lon="-78.771446">
        <ele>3475.00</ele>
        <time>2018-09-08T20:06:16Z</time>
      </trkpt>
      <trkpt lat="-2.662174" lon="-78.771484">
        <ele>3476.00</ele>
        <time>2018-09-08T20:06:17Z</time>
      </trkpt>
      <trkpt lat="-2.662069" lon="-78.771515">
        <ele>3476.00</ele>
        <time>2018-09-08T20:06:18Z</time>
      </trkpt>
      <trkpt lat="-2.661969" lon="-78.771545">
        <ele>3476.00</ele>
        <time>2018-09-08T20:06:19Z</time>
      </trkpt>
      <trkpt lat="-2.661864" lon="-78.771599">
        <ele>3476.00</ele>
        <time>2018-09-08T20:06:20Z</time>
      </trkpt>
      <trkpt lat="-2.661752" lon="-78.771652">
        <ele>3477.00</ele>
        <time>2018-09-08T20:06:21Z</time>
      </trkpt>
      <trkpt lat="-2.661624" lon="-78.771713">
        <ele>3477.00</ele>
        <time>2018-09-08T20:06:22Z</time>
      </trkpt>
      <trkpt lat="-2.661493" lon="-78.771774">
        <ele>3477.00</ele>
        <time>2018-09-08T20:06:23Z</time>
      </trkpt>
      <trkpt lat="-2.661374" lon="-78.771843">
        <ele>3477.00</ele>
        <time>2018-09-08T20:06:24Z</time>
      </trkpt>
      <trkpt lat="-2.661278" lon="-78.771919">
        <ele>3478.00</ele>
        <time>2018-09-08T20:06:25Z</time>
      </trkpt>
      <trkpt lat="-2.661190" lon="-78.771980">
        <ele>3478.00</ele>
        <time>2018-09-08T20:06:26Z</time>
      </trkpt>
      <trkpt lat="-2.661118" lon="-78.772034">
        <ele>3478.00</ele>
        <time>2018-09-08T20:06:27Z</time>
      </trkpt>
      <trkpt lat="-2.661054" lon="-78.772079">
        <ele>3478.00</ele>
        <time>2018-09-08T20:06:28Z</time>
      </trkpt>
      <trkpt lat="-2.660998" lon="-78.772125">
        <ele>3478.00</ele>
        <time>2018-09-08T20:06:29Z</time>
      </trkpt>
      <trkpt lat="-2.660954" lon="-78.772148">
        <ele>3477.00</ele>
        <time>2018-09-08T20:06:30Z</time>
      </trkpt>
      <trkpt lat="-2.660918" lon="-78.772179">
        <ele>3477.00</ele>
        <time>2018-09-08T20:06:31Z</time>
      </trkpt>
      <trkpt lat="-2.660887" lon="-78.772194">
        <ele>3477.00</ele>
        <time>2018-09-08T20:06:32Z</time>
      </trkpt>
      <trkpt lat="-2.660863" lon="-78.772217">
        <ele>3477.00</ele>
        <time>2018-09-08T20:06:33Z</time>
      </trkpt>
      <trkpt lat="-2.660827" lon="-78.772240">
        <ele>3477.00</ele>
        <time>2018-09-08T20:06:34Z</time>
      </trkpt>
      <trkpt lat="-2.660768" lon="-78.772270">
        <ele>3477.00</ele>
        <time>2018-09-08T20:06:35Z</time>
      </trkpt>
      <trkpt lat="-2.660690" lon="-78.772301">
        <ele>3477.00</ele>
        <time>2018-09-08T20:06:36Z</time>
      </trkpt>
      <trkpt lat="-2.660599" lon="-78.772346">
        <ele>3477.00</ele>
        <time>2018-09-08T20:06:37Z</time>
      </trkpt>
      <trkpt lat="-2.660493" lon="-78.772400">
        <ele>3477.00</ele>
        <time>2018-09-08T20:06:38Z</time>
      </trkpt>
      <trkpt lat="-2.660370" lon="-78.772453">
        <ele>3477.00</ele>
        <time>2018-09-08T20:06:39Z</time>
      </trkpt>
      <trkpt lat="-2.660233" lon="-78.772499">
        <ele>3477.00</ele>
        <time>2018-09-08T20:06:40Z</time>
      </trkpt>
      <trkpt lat="-2.660088" lon="-78.772545">
        <ele>3477.00</ele>
        <time>2018-09-08T20:06:41Z</time>
      </trkpt>
      <trkpt lat="-2.659943" lon="-78.772575">
        <ele>3477.00</ele>
        <time>2018-09-08T20:06:42Z</time>
      </trkpt>
      <trkpt lat="-2.659800" lon="-78.772614">
        <ele>3478.00</ele>
        <time>2018-09-08T20:06:43Z</time>
      </trkpt>
      <trkpt lat="-2.659670" lon="-78.772636">
        <ele>3478.00</ele>
        <time>2018-09-08T20:06:44Z</time>
      </trkpt>
      <trkpt lat="-2.659558" lon="-78.772659">
        <ele>3478.00</ele>
        <time>2018-09-08T20:06:45Z</time>
      </trkpt>
      <trkpt lat="-2.659459" lon="-78.772705">
        <ele>3478.00</ele>
        <time>2018-09-08T20:06:46Z</time>
      </trkpt>
      <trkpt lat="-2.659366" lon="-78.772774">
        <ele>3478.00</ele>
        <time>2018-09-08T20:06:47Z</time>
      </trkpt>
      <trkpt lat="-2.659270" lon="-78.772865">
        <ele>3478.00</ele>
        <time>2018-09-08T20:06:48Z</time>
      </trkpt>
      <trkpt lat="-2.659171" lon="-78.772942">
        <ele>3478.00</ele>
        <time>2018-09-08T20:06:49Z</time>
      </trkpt>
      <trkpt lat="-2.659075" lon="-78.772987">
        <ele>3478.00</ele>
        <time>2018-09-08T20:06:50Z</time>
      </trkpt>
      <trkpt lat="-2.658974" lon="-78.773026">
        <ele>3478.00</ele>
        <time>2018-09-08T20:06:51Z</time>
      </trkpt>
      <trkpt lat="-2.658858" lon="-78.773048">
        <ele>3478.00</ele>
        <time>2018-09-08T20:06:52Z</time>
      </trkpt>
      <trkpt lat="-2.658738" lon="-78.773064">
        <ele>3478.00</ele>
        <time>2018-09-08T20:06:53Z</time>
      </trkpt>
      <trkpt lat="-2.658623" lon="-78.773094">
        <ele>3478.00</ele>
        <time>2018-09-08T20:06:54Z</time>
      </trkpt>
      <trkpt lat="-2.658514" lon="-78.773109">
        <ele>3479.00</ele>
        <time>2018-09-08T20:06:55Z</time>
      </trkpt>
      <trkpt lat="-2.658399" lon="-78.773117">
        <ele>3479.00</ele>
        <time>2018-09-08T20:06:56Z</time>
      </trkpt>
      <trkpt lat="-2.658276" lon="-78.773109">
        <ele>3479.00</ele>
        <time>2018-09-08T20:06:57Z</time>
      </trkpt>
      <trkpt lat="-2.658144" lon="-78.773109">
        <ele>3480.00</ele>
        <time>2018-09-08T20:06:58Z</time>
      </trkpt>
      <trkpt lat="-2.658004" lon="-78.773117">
        <ele>3480.00</ele>
        <time>2018-09-08T20:06:59Z</time>
      </trkpt>
      <trkpt lat="-2.657863" lon="-78.773140">
        <ele>3481.00</ele>
        <time>2018-09-08T20:07:00Z</time>
      </trkpt>
      <trkpt lat="-2.657723" lon="-78.773163">
        <ele>3482.00</ele>
        <time>2018-09-08T20:07:01Z</time>
      </trkpt>
      <trkpt lat="-2.657579" lon="-78.773193">
        <ele>3482.00</ele>
        <time>2018-09-08T20:07:02Z</time>
      </trkpt>
      <trkpt lat="-2.657426" lon="-78.773193">
        <ele>3483.00</ele>
        <time>2018-09-08T20:07:03Z</time>
      </trkpt>
      <trkpt lat="-2.657273" lon="-78.773186">
        <ele>3483.00</ele>
        <time>2018-09-08T20:07:04Z</time>
      </trkpt>
      <trkpt lat="-2.657117" lon="-78.773163">
        <ele>3484.00</ele>
        <time>2018-09-08T20:07:05Z</time>
      </trkpt>
      <trkpt lat="-2.656963" lon="-78.773148">
        <ele>3485.00</ele>
        <time>2018-09-08T20:07:06Z</time>
      </trkpt>
      <trkpt lat="-2.656811" lon="-78.773132">
        <ele>3486.00</ele>
        <time>2018-09-08T20:07:07Z</time>
      </trkpt>
      <trkpt lat="-2.656664" lon="-78.773094">
        <ele>3486.00</ele>
        <time>2018-09-08T20:07:08Z</time>
      </trkpt>
      <trkpt lat="-2.656525" lon="-78.773041">
        <ele>3487.00</ele>
        <time>2018-09-08T20:07:09Z</time>
      </trkpt>
      <trkpt lat="-2.656391" lon="-78.772980">
        <ele>3487.00</ele>
        <time>2018-09-08T20:07:10Z</time>
      </trkpt>
      <trkpt lat="-2.656249" lon="-78.772926">
        <ele>3488.00</ele>
        <time>2018-09-08T20:07:11Z</time>
      </trkpt>
      <trkpt lat="-2.656098" lon="-78.772873">
        <ele>3488.00</ele>
        <time>2018-09-08T20:07:12Z</time>
      </trkpt>
      <trkpt lat="-2.655944" lon="-78.772827">
        <ele>3488.00</ele>
        <time>2018-09-08T20:07:13Z</time>
      </trkpt>
      <trkpt lat="-2.655796" lon="-78.772789">
        <ele>3489.00</ele>
        <time>2018-09-08T20:07:14Z</time>
      </trkpt>
      <trkpt lat="-2.655660" lon="-78.772743">
        <ele>3489.00</ele>
        <time>2018-09-08T20:07:15Z</time>
      </trkpt>
      <trkpt lat="-2.655533" lon="-78.772720">
        <ele>3489.00</ele>
        <time>2018-09-08T20:07:16Z</time>
      </trkpt>
      <trkpt lat="-2.655409" lon="-78.772690">
        <ele>3489.00</ele>
        <time>2018-09-08T20:07:17Z</time>
      </trkpt>
      <trkpt lat="-2.655286" lon="-78.772667">
        <ele>3488.00</ele>
        <time>2018-09-08T20:07:18Z</time>
      </trkpt>
      <trkpt lat="-2.655171" lon="-78.772629">
        <ele>3488.00</ele>
        <time>2018-09-08T20:07:19Z</time>
      </trkpt>
      <trkpt lat="-2.655068" lon="-78.772598">
        <ele>3488.00</ele>
        <time>2018-09-08T20:07:20Z</time>
      </trkpt>
      <trkpt lat="-2.654968" lon="-78.772545">
        <ele>3488.00</ele>
        <time>2018-09-08T20:07:21Z</time>
      </trkpt>
      <trkpt lat="-2.654862" lon="-78.772491">
        <ele>3488.00</ele>
        <time>2018-09-08T20:07:22Z</time>
      </trkpt>
      <trkpt lat="-2.654748" lon="-78.772446">
        <ele>3489.00</ele>
        <time>2018-09-08T20:07:23Z</time>
      </trkpt>
      <trkpt lat="-2.654622" lon="-78.772438">
        <ele>3489.00</ele>
        <time>2018-09-08T20:07:24Z</time>
      </trkpt>
      <trkpt lat="-2.654505" lon="-78.772446">
        <ele>3489.00</ele>
        <time>2018-09-08T20:07:25Z</time>
      </trkpt>
      <trkpt lat="-2.654391" lon="-78.772491">
        <ele>3490.00</ele>
        <time>2018-09-08T20:07:26Z</time>
      </trkpt>
      <trkpt lat="-2.654274" lon="-78.772530">
        <ele>3490.00</ele>
        <time>2018-09-08T20:07:27Z</time>
      </trkpt>
      <trkpt lat="-2.654154" lon="-78.772568">
        <ele>3491.00</ele>
        <time>2018-09-08T20:07:28Z</time>
      </trkpt>
      <trkpt lat="-2.654031" lon="-78.772606">
        <ele>3492.00</ele>
        <time>2018-09-08T20:07:29Z</time>
      </trkpt>
      <trkpt lat="-2.653904" lon="-78.772629">
        <ele>3492.00</ele>
        <time>2018-09-08T20:07:30Z</time>
      </trkpt>
      <trkpt lat="-2.653775" lon="-78.772652">
        <ele>3493.00</ele>
        <time>2018-09-08T20:07:31Z</time>
      </trkpt>
      <trkpt lat="-2.653646" lon="-78.772675">
        <ele>3493.00</ele>
        <time>2018-09-08T20:07:32Z</time>
      </trkpt>
      <trkpt lat="-2.653517" lon="-78.772713">
        <ele>3494.00</ele>
        <time>2018-09-08T20:07:33Z</time>
      </trkpt>
      <trkpt lat="-2.653388" lon="-78.772766">
        <ele>3494.00</ele>
        <time>2018-09-08T20:07:34Z</time>
      </trkpt>
      <trkpt lat="-2.653260" lon="-78.772820">
        <ele>3495.00</ele>
        <time>2018-09-08T20:07:35Z</time>
      </trkpt>
      <trkpt lat="-2.653135" lon="-78.772881">
        <ele>3495.00</ele>
        <time>2018-09-08T20:07:36Z</time>
      </trkpt>
      <trkpt lat="-2.653013" lon="-78.772942">
        <ele>3496.00</ele>
        <time>2018-09-08T20:07:37Z</time>
      </trkpt>
      <trkpt lat="-2.652889" lon="-78.773003">
        <ele>3497.00</ele>
        <time>2018-09-08T20:07:38Z</time>
      </trkpt>
      <trkpt lat="-2.652759" lon="-78.773056">
        <ele>3497.00</ele>
        <time>2018-09-08T20:07:39Z</time>
      </trkpt>
      <trkpt lat="-2.652623" lon="-78.773087">
        <ele>3498.00</ele>
        <time>2018-09-08T20:07:40Z</time>
      </trkpt>
      <trkpt lat="-2.652485" lon="-78.773109">
        <ele>3499.00</ele>
        <time>2018-09-08T20:07:41Z</time>
      </trkpt>
      <trkpt lat="-2.652347" lon="-78.773140">
        <ele>3500.00</ele>
        <time>2018-09-08T20:07:42Z</time>
      </trkpt>
      <trkpt lat="-2.652210" lon="-78.773148">
        <ele>3500.00</ele>
        <time>2018-09-08T20:07:43Z</time>
      </trkpt>
      <trkpt lat="-2.652078" lon="-78.773140">
        <ele>3501.00</ele>
        <time>2018-09-08T20:07:44Z</time>
      </trkpt>
      <trkpt lat="-2.651949" lon="-78.773117">
        <ele>3502.00</ele>
        <time>2018-09-08T20:07:45Z</time>
      </trkpt>
      <trkpt lat="-2.651819" lon="-78.773094">
        <ele>3503.00</ele>
        <time>2018-09-08T20:07:46Z</time>
      </trkpt>
      <trkpt lat="-2.651683" lon="-78.773087">
        <ele>3504.00</ele>
        <time>2018-09-08T20:07:47Z</time>
      </trkpt>
      <trkpt lat="-2.651546" lon="-78.773087">
        <ele>3505.00</ele>
        <time>2018-09-08T20:07:48Z</time>
      </trkpt>
      <trkpt lat="-2.651412" lon="-78.773094">
        <ele>3506.00</ele>
        <time>2018-09-08T20:07:49Z</time>
      </trkpt>
      <trkpt lat="-2.651282" lon="-78.773064">
        <ele>3507.00</ele>
        <time>2018-09-08T20:07:50Z</time>
      </trkpt>
      <trkpt lat="-2.651153" lon="-78.773010">
        <ele>3508.00</ele>
        <time>2018-09-08T20:07:51Z</time>
      </trkpt>
      <trkpt lat="-2.651015" lon="-78.772972">
        <ele>3509.00</ele>
        <time>2018-09-08T20:07:52Z</time>
      </trkpt>
      <trkpt lat="-2.650879" lon="-78.772919">
        <ele>3510.00</ele>
        <time>2018-09-08T20:07:53Z</time>
      </trkpt>
      <trkpt lat="-2.650754" lon="-78.772873">
        <ele>3511.00</ele>
        <time>2018-09-08T20:07:54Z</time>
      </trkpt>
      <trkpt lat="-2.650656" lon="-78.772835">
        <ele>3511.00</ele>
        <time>2018-09-08T20:07:55Z</time>
      </trkpt>
      <trkpt lat="-2.650573" lon="-78.772797">
        <ele>3512.00</ele>
        <time>2018-09-08T20:07:56Z</time>
      </trkpt>
      <trkpt lat="-2.650479" lon="-78.772812">
        <ele>3513.00</ele>
        <time>2018-09-08T20:07:57Z</time>
      </trkpt>
      <trkpt lat="-2.650409" lon="-78.772873">
        <ele>3514.00</ele>
        <time>2018-09-08T20:07:58Z</time>
      </trkpt>
      <trkpt lat="-2.650354" lon="-78.772957">
        <ele>3515.00</ele>
        <time>2018-09-08T20:07:59Z</time>
      </trkpt>
      <trkpt lat="-2.650321" lon="-78.773056">
        <ele>3516.00</ele>
        <time>2018-09-08T20:08:00Z</time>
      </trkpt>
      <trkpt lat="-2.650290" lon="-78.773155">
        <ele>3517.00</ele>
        <time>2018-09-08T20:08:01Z</time>
      </trkpt>
      <trkpt lat="-2.650258" lon="-78.773270">
        <ele>3519.00</ele>
        <time>2018-09-08T20:08:02Z</time>
      </trkpt>
      <trkpt lat="-2.650220" lon="-78.773384">
        <ele>3520.00</ele>
        <time>2018-09-08T20:08:03Z</time>
      </trkpt>
      <trkpt lat="-2.650177" lon="-78.773491">
        <ele>3521.00</ele>
        <time>2018-09-08T20:08:04Z</time>
      </trkpt>
      <trkpt lat="-2.650126" lon="-78.773605">
        <ele>3522.00</ele>
        <time>2018-09-08T20:08:05Z</time>
      </trkpt>
      <trkpt lat="-2.650067" lon="-78.773712">
        <ele>3524.00</ele>
        <time>2018-09-08T20:08:06Z</time>
      </trkpt>
      <trkpt lat="-2.649994" lon="-78.773811">
        <ele>3525.00</ele>
        <time>2018-09-08T20:08:07Z</time>
      </trkpt>
      <trkpt lat="-2.649915" lon="-78.773911">
        <ele>3527.00</ele>
        <time>2018-09-08T20:08:08Z</time>
      </trkpt>
      <trkpt lat="-2.649823" lon="-78.774002">
        <ele>3528.00</ele>
        <time>2018-09-08T20:08:09Z</time>
      </trkpt>
      <trkpt lat="-2.649726" lon="-78.774086">
        <ele>3530.00</ele>
        <time>2018-09-08T20:08:10Z</time>
      </trkpt>
      <trkpt lat="-2.649632" lon="-78.774185">
        <ele>3532.00</ele>
        <time>2018-09-08T20:08:11Z</time>
      </trkpt>
      <trkpt lat="-2.649548" lon="-78.774284">
        <ele>3534.00</ele>
        <time>2018-09-08T20:08:12Z</time>
      </trkpt>
      <trkpt lat="-2.649474" lon="-78.774399">
        <ele>3536.00</ele>
        <time>2018-09-08T20:08:13Z</time>
      </trkpt>
      <trkpt lat="-2.649410" lon="-78.774521">
        <ele>3538.00</ele>
        <time>2018-09-08T20:08:14Z</time>
      </trkpt>
      <trkpt lat="-2.649355" lon="-78.774651">
        <ele>3540.00</ele>
        <time>2018-09-08T20:08:15Z</time>
      </trkpt>
      <trkpt lat="-2.649306" lon="-78.774773">
        <ele>3543.00</ele>
        <time>2018-09-08T20:08:16Z</time>
      </trkpt>
      <trkpt lat="-2.649256" lon="-78.774895">
        <ele>3545.00</ele>
        <time>2018-09-08T20:08:17Z</time>
      </trkpt>
      <trkpt lat="-2.649204" lon="-78.775002">
        <ele>3547.00</ele>
        <time>2018-09-08T20:08:18Z</time>
      </trkpt>
      <trkpt lat="-2.649125" lon="-78.775093">
        <ele>3549.00</ele>
        <time>2018-09-08T20:08:19Z</time>
      </trkpt>
      <trkpt lat="-2.649019" lon="-78.775154">
        <ele>3551.00</ele>
        <time>2018-09-08T20:08:20Z</time>
      </trkpt>
      <trkpt lat="-2.648909" lon="-78.775208">
        <ele>3553.00</ele>
        <time>2018-09-08T20:08:21Z</time>
      </trkpt>
      <trkpt lat="-2.648806" lon="-78.775269">
        <ele>3554.00</ele>
        <time>2018-09-08T20:08:22Z</time>
      </trkpt>
      <trkpt lat="-2.648716" lon="-78.775360">
        <ele>3555.00</ele>
        <time>2018-09-08T20:08:23Z</time>
      </trkpt>
      <trkpt lat="-2.648631" lon="-78.775459">
        <ele>3557.00</ele>
        <time>2018-09-08T20:08:24Z</time>
      </trkpt>
      <trkpt lat="-2.648536" lon="-78.775543">
        <ele>3558.00</ele>
        <time>2018-09-08T20:08:25Z</time>
      </trkpt>
      <trkpt lat="-2.648429" lon="-78.775635">
        <ele>3559.00</ele>
        <time>2018-09-08T20:08:26Z</time>
      </trkpt>
      <trkpt lat="-2.648316" lon="-78.775719">
        <ele>3559.00</ele>
        <time>2018-09-08T20:08:27Z</time>
      </trkpt>
      <trkpt lat="-2.648196" lon="-78.775803">
        <ele>3560.00</ele>
        <time>2018-09-08T20:08:28Z</time>
      </trkpt>
      <trkpt lat="-2.648078" lon="-78.775887">
        <ele>3561.00</ele>
        <time>2018-09-08T20:08:29Z</time>
      </trkpt>
      <trkpt lat="-2.647963" lon="-78.775948">
        <ele>3562.00</ele>
        <time>2018-09-08T20:08:30Z</time>
      </trkpt>
      <trkpt lat="-2.647836" lon="-78.776001">
        <ele>3562.00</ele>
        <time>2018-09-08T20:08:31Z</time>
      </trkpt>
      <trkpt lat="-2.647695" lon="-78.776024">
        <ele>3563.00</ele>
        <time>2018-09-08T20:08:32Z</time>
      </trkpt>
      <trkpt lat="-2.647556" lon="-78.776009">
        <ele>3564.00</ele>
        <time>2018-09-08T20:08:33Z</time>
      </trkpt>
      <trkpt lat="-2.647436" lon="-78.775986">
        <ele>3564.00</ele>
        <time>2018-09-08T20:08:34Z</time>
      </trkpt>
      <trkpt lat="-2.647333" lon="-78.775970">
        <ele>3565.00</ele>
        <time>2018-09-08T20:08:35Z</time>
      </trkpt>
      <trkpt lat="-2.647231" lon="-78.776009">
        <ele>3564.00</ele>
        <time>2018-09-08T20:08:36Z</time>
      </trkpt>
      <trkpt lat="-2.647161" lon="-78.776100">
        <ele>3564.00</ele>
        <time>2018-09-08T20:08:37Z</time>
      </trkpt>
      <trkpt lat="-2.647128" lon="-78.776199">
        <ele>3564.00</ele>
        <time>2018-09-08T20:08:38Z</time>
      </trkpt>
      <trkpt lat="-2.647117" lon="-78.776321">
        <ele>3564.00</ele>
        <time>2018-09-08T20:08:39Z</time>
      </trkpt>
      <trkpt lat="-2.647093" lon="-78.776443">
        <ele>3565.00</ele>
        <time>2018-09-08T20:08:40Z</time>
      </trkpt>
      <trkpt lat="-2.647066" lon="-78.776581">
        <ele>3565.00</ele>
        <time>2018-09-08T20:08:41Z</time>
      </trkpt>
      <trkpt lat="-2.647039" lon="-78.776718">
        <ele>3565.00</ele>
        <time>2018-09-08T20:08:42Z</time>
      </trkpt>
      <trkpt lat="-2.647019" lon="-78.776848">
        <ele>3564.00</ele>
        <time>2018-09-08T20:08:43Z</time>
      </trkpt>
      <trkpt lat="-2.646987" lon="-78.776970">
        <ele>3564.00</ele>
        <time>2018-09-08T20:08:44Z</time>
      </trkpt>
      <trkpt lat="-2.646924" lon="-78.777077">
        <ele>3564.00</ele>
        <time>2018-09-08T20:08:45Z</time>
      </trkpt>
      <trkpt lat="-2.646819" lon="-78.777153">
        <ele>3564.00</ele>
        <time>2018-09-08T20:08:46Z</time>
      </trkpt>
      <trkpt lat="-2.646688" lon="-78.777206">
        <ele>3564.00</ele>
        <time>2018-09-08T20:08:47Z</time>
      </trkpt>
      <trkpt lat="-2.646545" lon="-78.777237">
        <ele>3564.00</ele>
        <time>2018-09-08T20:08:48Z</time>
      </trkpt>
      <trkpt lat="-2.646420" lon="-78.777252">
        <ele>3564.00</ele>
        <time>2018-09-08T20:08:49Z</time>
      </trkpt>
      <trkpt lat="-2.646313" lon="-78.777267">
        <ele>3565.00</ele>
        <time>2018-09-08T20:08:50Z</time>
      </trkpt>
      <trkpt lat="-2.646236" lon="-78.777321">
        <ele>3565.00</ele>
        <time>2018-09-08T20:08:51Z</time>
      </trkpt>
      <trkpt lat="-2.646194" lon="-78.777405">
        <ele>3565.00</ele>
        <time>2018-09-08T20:08:52Z</time>
      </trkpt>
      <trkpt lat="-2.646212" lon="-78.777496">
        <ele>3565.00</ele>
        <time>2018-09-08T20:08:53Z</time>
      </trkpt>
      <trkpt lat="-2.646264" lon="-78.777557">
        <ele>3566.00</ele>
        <time>2018-09-08T20:08:54Z</time>
      </trkpt>
      <trkpt lat="-2.646312" lon="-78.777626">
        <ele>3566.00</ele>
        <time>2018-09-08T20:08:55Z</time>
      </trkpt>
      <trkpt lat="-2.646358" lon="-78.777710">
        <ele>3566.00</ele>
        <time>2018-09-08T20:08:56Z</time>
      </trkpt>
      <trkpt lat="-2.646405" lon="-78.777802">
        <ele>3567.00</ele>
        <time>2018-09-08T20:08:57Z</time>
      </trkpt>
      <trkpt lat="-2.646445" lon="-78.777901">
        <ele>3567.00</ele>
        <time>2018-09-08T20:08:58Z</time>
      </trkpt>
      <trkpt lat="-2.646472" lon="-78.778008">
        <ele>3568.00</ele>
        <time>2018-09-08T20:08:59Z</time>
      </trkpt>
      <trkpt lat="-2.646484" lon="-78.778122">
        <ele>3569.00</ele>
        <time>2018-09-08T20:09:00Z</time>
      </trkpt>
      <trkpt lat="-2.646496" lon="-78.778236">
        <ele>3569.00</ele>
        <time>2018-09-08T20:09:01Z</time>
      </trkpt>
      <trkpt lat="-2.646508" lon="-78.778366">
        <ele>3570.00</ele>
        <time>2018-09-08T20:09:02Z</time>
      </trkpt>
      <trkpt lat="-2.646492" lon="-78.778488">
        <ele>3571.00</ele>
        <time>2018-09-08T20:09:03Z</time>
      </trkpt>
      <trkpt lat="-2.646453" lon="-78.778610">
        <ele>3572.00</ele>
        <time>2018-09-08T20:09:04Z</time>
      </trkpt>
      <trkpt lat="-2.646421" lon="-78.778748">
        <ele>3574.00</ele>
        <time>2018-09-08T20:09:05Z</time>
      </trkpt>
      <trkpt lat="-2.646388" lon="-78.778870">
        <ele>3575.00</ele>
        <time>2018-09-08T20:09:06Z</time>
      </trkpt>
      <trkpt lat="-2.646335" lon="-78.779007">
        <ele>3577.00</ele>
        <time>2018-09-08T20:09:07Z</time>
      </trkpt>
      <trkpt lat="-2.646262" lon="-78.779129">
        <ele>3578.00</ele>
        <time>2018-09-08T20:09:08Z</time>
      </trkpt>
      <trkpt lat="-2.646176" lon="-78.779236">
        <ele>3579.00</ele>
        <time>2018-09-08T20:09:09Z</time>
      </trkpt>
      <trkpt lat="-2.646079" lon="-78.779343">
        <ele>3581.00</ele>
        <time>2018-09-08T20:09:10Z</time>
      </trkpt>
      <trkpt lat="-2.645976" lon="-78.779434">
        <ele>3582.00</ele>
        <time>2018-09-08T20:09:11Z</time>
      </trkpt>
      <trkpt lat="-2.645865" lon="-78.779518">
        <ele>3584.00</ele>
        <time>2018-09-08T20:09:12Z</time>
      </trkpt>
      <trkpt lat="-2.645741" lon="-78.779572">
        <ele>3585.00</ele>
        <time>2018-09-08T20:09:13Z</time>
      </trkpt>
      <trkpt lat="-2.645616" lon="-78.779610">
        <ele>3586.00</ele>
        <time>2018-09-08T20:09:14Z</time>
      </trkpt>
      <trkpt lat="-2.645483" lon="-78.779610">
        <ele>3588.00</ele>
        <time>2018-09-08T20:09:15Z</time>
      </trkpt>
      <trkpt lat="-2.645355" lon="-78.779594">
        <ele>3589.00</ele>
        <time>2018-09-08T20:09:16Z</time>
      </trkpt>
      <trkpt lat="-2.645225" lon="-78.779556">
        <ele>3590.00</ele>
        <time>2018-09-08T20:09:17Z</time>
      </trkpt>
      <trkpt lat="-2.645095" lon="-78.779526">
        <ele>3590.00</ele>
        <time>2018-09-08T20:09:18Z</time>
      </trkpt>
      <trkpt lat="-2.644968" lon="-78.779510">
        <ele>3591.00</ele>
        <time>2018-09-08T20:09:19Z</time>
      </trkpt>
      <trkpt lat="-2.644847" lon="-78.779472">
        <ele>3591.00</ele>
        <time>2018-09-08T20:09:20Z</time>
      </trkpt>
      <trkpt lat="-2.644744" lon="-78.779411">
        <ele>3592.00</ele>
        <time>2018-09-08T20:09:21Z</time>
      </trkpt>
      <trkpt lat="-2.644641" lon="-78.779343">
        <ele>3592.00</ele>
        <time>2018-09-08T20:09:22Z</time>
      </trkpt>
      <trkpt lat="-2.644528" lon="-78.779274">
        <ele>3593.00</ele>
        <time>2018-09-08T20:09:23Z</time>
      </trkpt>
      <trkpt lat="-2.644407" lon="-78.779205">
        <ele>3593.00</ele>
        <time>2018-09-08T20:09:24Z</time>
      </trkpt>
      <trkpt lat="-2.644282" lon="-78.779167">
        <ele>3594.00</ele>
        <time>2018-09-08T20:09:25Z</time>
      </trkpt>
      <trkpt lat="-2.644168" lon="-78.779137">
        <ele>3595.00</ele>
        <time>2018-09-08T20:09:26Z</time>
      </trkpt>
      <trkpt lat="-2.644070" lon="-78.779152">
        <ele>3595.00</ele>
        <time>2018-09-08T20:09:27Z</time>
      </trkpt>
      <trkpt lat="-2.643990" lon="-78.779198">
        <ele>3597.00</ele>
        <time>2018-09-08T20:09:28Z</time>
      </trkpt>
      <trkpt lat="-2.643949" lon="-78.779274">
        <ele>3598.00</ele>
        <time>2018-09-08T20:09:29Z</time>
      </trkpt>
      <trkpt lat="-2.643930" lon="-78.779381">
        <ele>3600.00</ele>
        <time>2018-09-08T20:09:30Z</time>
      </trkpt>
      <trkpt lat="-2.643892" lon="-78.779488">
        <ele>3601.00</ele>
        <time>2018-09-08T20:09:31Z</time>
      </trkpt>
      <trkpt lat="-2.643830" lon="-78.779594">
        <ele>3603.00</ele>
        <time>2018-09-08T20:09:32Z</time>
      </trkpt>
      <trkpt lat="-2.643749" lon="-78.779678">
        <ele>3604.00</ele>
        <time>2018-09-08T20:09:33Z</time>
      </trkpt>
      <trkpt lat="-2.643652" lon="-78.779755">
        <ele>3606.00</ele>
        <time>2018-09-08T20:09:34Z</time>
      </trkpt>
      <trkpt lat="-2.643538" lon="-78.779778">
        <ele>3607.00</ele>
        <time>2018-09-08T20:09:35Z</time>
      </trkpt>
      <trkpt lat="-2.643418" lon="-78.779778">
        <ele>3608.00</ele>
        <time>2018-09-08T20:09:36Z</time>
      </trkpt>
      <trkpt lat="-2.643319" lon="-78.779724">
        <ele>3609.00</ele>
        <time>2018-09-08T20:09:37Z</time>
      </trkpt>
      <trkpt lat="-2.643211" lon="-78.779678">
        <ele>3610.00</ele>
        <time>2018-09-08T20:09:38Z</time>
      </trkpt>
      <trkpt lat="-2.643099" lon="-78.779663">
        <ele>3610.00</ele>
        <time>2018-09-08T20:09:39Z</time>
      </trkpt>
      <trkpt lat="-2.642989" lon="-78.779716">
        <ele>3611.00</ele>
        <time>2018-09-08T20:09:40Z</time>
      </trkpt>
      <trkpt lat="-2.642891" lon="-78.779785">
        <ele>3612.00</ele>
        <time>2018-09-08T20:09:41Z</time>
      </trkpt>
      <trkpt lat="-2.642791" lon="-78.779869">
        <ele>3613.00</ele>
        <time>2018-09-08T20:09:42Z</time>
      </trkpt>
      <trkpt lat="-2.642668" lon="-78.779930">
        <ele>3613.00</ele>
        <time>2018-09-08T20:09:43Z</time>
      </trkpt>
      <trkpt lat="-2.642530" lon="-78.779961">
        <ele>3614.00</ele>
        <time>2018-09-08T20:09:44Z</time>
      </trkpt>
      <trkpt lat="-2.642388" lon="-78.780006">
        <ele>3614.00</ele>
        <time>2018-09-08T20:09:45Z</time>
      </trkpt>
      <trkpt lat="-2.642245" lon="-78.780052">
        <ele>3612.00</ele>
        <time>2018-09-08T20:09:46Z</time>
      </trkpt>
      <trkpt lat="-2.642092" lon="-78.780098">
        <ele>3610.00</ele>
        <time>2018-09-08T20:09:47Z</time>
      </trkpt>
      <trkpt lat="-2.641936" lon="-78.780151">
        <ele>3609.00</ele>
        <time>2018-09-08T20:09:48Z</time>
      </trkpt>
      <trkpt lat="-2.641774" lon="-78.780205">
        <ele>3609.00</ele>
        <time>2018-09-08T20:09:49Z</time>
      </trkpt>
      <trkpt lat="-2.641617" lon="-78.780266">
        <ele>3609.00</ele>
        <time>2018-09-08T20:09:50Z</time>
      </trkpt>
      <trkpt lat="-2.641465" lon="-78.780327">
        <ele>3609.00</ele>
        <time>2018-09-08T20:09:51Z</time>
      </trkpt>
      <trkpt lat="-2.641319" lon="-78.780403">
        <ele>3609.00</ele>
        <time>2018-09-08T20:09:52Z</time>
      </trkpt>
      <trkpt lat="-2.641194" lon="-78.780495">
        <ele>3609.00</ele>
        <time>2018-09-08T20:09:53Z</time>
      </trkpt>
      <trkpt lat="-2.641083" lon="-78.780586">
        <ele>3610.00</ele>
        <time>2018-09-08T20:09:54Z</time>
      </trkpt>
      <trkpt lat="-2.640975" lon="-78.780655">
        <ele>3611.00</ele>
        <time>2018-09-08T20:09:55Z</time>
      </trkpt>
      <trkpt lat="-2.640863" lon="-78.780701">
        <ele>3611.00</ele>
        <time>2018-09-08T20:09:56Z</time>
      </trkpt>
      <trkpt lat="-2.640744" lon="-78.780693">
        <ele>3612.00</ele>
        <time>2018-09-08T20:09:57Z</time>
      </trkpt>
      <trkpt lat="-2.640632" lon="-78.780640">
        <ele>3613.00</ele>
        <time>2018-09-08T20:09:58Z</time>
      </trkpt>
      <trkpt lat="-2.640524" lon="-78.780563">
        <ele>3613.00</ele>
        <time>2018-09-08T20:09:59Z</time>
      </trkpt>
      <trkpt lat="-2.640427" lon="-78.780464">
        <ele>3614.00</ele>
        <time>2018-09-08T20:10:00Z</time>
      </trkpt>
      <trkpt lat="-2.640331" lon="-78.780357">
        <ele>3614.00</ele>
        <time>2018-09-08T20:10:01Z</time>
      </trkpt>
      <trkpt lat="-2.640241" lon="-78.780251">
        <ele>3615.00</ele>
        <time>2018-09-08T20:10:02Z</time>
      </trkpt>
      <trkpt lat="-2.640160" lon="-78.780144">
        <ele>3615.00</ele>
        <time>2018-09-08T20:10:03Z</time>
      </trkpt>
      <trkpt lat="-2.640097" lon="-78.780029">
        <ele>3615.00</ele>
        <time>2018-09-08T20:10:04Z</time>
      </trkpt>
      <trkpt lat="-2.640050" lon="-78.779884">
        <ele>3615.00</ele>
        <time>2018-09-08T20:10:05Z</time>
      </trkpt>
      <trkpt lat="-2.640011" lon="-78.779739">
        <ele>3616.00</ele>
        <time>2018-09-08T20:10:06Z</time>
      </trkpt>
      <trkpt lat="-2.639969" lon="-78.779610">
        <ele>3616.00</ele>
        <time>2018-09-08T20:10:07Z</time>
      </trkpt>
      <trkpt lat="-2.639935" lon="-78.779503">
        <ele>3616.00</ele>
        <time>2018-09-08T20:10:08Z</time>
      </trkpt>
      <trkpt lat="-2.639910" lon="-78.779404">
        <ele>3617.00</ele>
        <time>2018-09-08T20:10:09Z</time>
      </trkpt>
      <trkpt lat="-2.639853" lon="-78.779335">
        <ele>3617.00</ele>
        <time>2018-09-08T20:10:10Z</time>
      </trkpt>
      <trkpt lat="-2.639766" lon="-78.779282">
        <ele>3617.00</ele>
        <time>2018-09-08T20:10:11Z</time>
      </trkpt>
      <trkpt lat="-2.639655" lon="-78.779259">
        <ele>3618.00</ele>
        <time>2018-09-08T20:10:12Z</time>
      </trkpt>
      <trkpt lat="-2.639538" lon="-78.779282">
        <ele>3618.00</ele>
        <time>2018-09-08T20:10:13Z</time>
      </trkpt>
      <trkpt lat="-2.639427" lon="-78.779289">
        <ele>3618.00</ele>
        <time>2018-09-08T20:10:14Z</time>
      </trkpt>
      <trkpt lat="-2.639333" lon="-78.779327">
        <ele>3618.00</ele>
        <time>2018-09-08T20:10:15Z</time>
      </trkpt>
      <trkpt lat="-2.639261" lon="-78.779404">
        <ele>3619.00</ele>
        <time>2018-09-08T20:10:16Z</time>
      </trkpt>
      <trkpt lat="-2.639188" lon="-78.779472">
        <ele>3619.00</ele>
        <time>2018-09-08T20:10:17Z</time>
      </trkpt>
      <trkpt lat="-2.639098" lon="-78.779510">
        <ele>3619.00</ele>
        <time>2018-09-08T20:10:18Z</time>
      </trkpt>
      <trkpt lat="-2.638994" lon="-78.779510">
        <ele>3619.00</ele>
        <time>2018-09-08T20:10:19Z</time>
      </trkpt>
      <trkpt lat="-2.638888" lon="-78.779495">
        <ele>3619.00</ele>
        <time>2018-09-08T20:10:20Z</time>
      </trkpt>
      <trkpt lat="-2.638778" lon="-78.779526">
        <ele>3619.00</ele>
        <time>2018-09-08T20:10:21Z</time>
      </trkpt>
      <trkpt lat="-2.638668" lon="-78.779579">
        <ele>3619.00</ele>
        <time>2018-09-08T20:10:22Z</time>
      </trkpt>
      <trkpt lat="-2.638572" lon="-78.779655">
        <ele>3619.00</ele>
        <time>2018-09-08T20:10:23Z</time>
      </trkpt>
      <trkpt lat="-2.638477" lon="-78.779724">
        <ele>3618.00</ele>
        <time>2018-09-08T20:10:24Z</time>
      </trkpt>
      <trkpt lat="-2.638369" lon="-78.779762">
        <ele>3618.00</ele>
        <time>2018-09-08T20:10:25Z</time>
      </trkpt>
      <trkpt lat="-2.638264" lon="-78.779778">
        <ele>3618.00</ele>
        <time>2018-09-08T20:10:26Z</time>
      </trkpt>
      <trkpt lat="-2.638172" lon="-78.779823">
        <ele>3618.00</ele>
        <time>2018-09-08T20:10:27Z</time>
      </trkpt>
      <trkpt lat="-2.638103" lon="-78.779892">
        <ele>3618.00</ele>
        <time>2018-09-08T20:10:28Z</time>
      </trkpt>
      <trkpt lat="-2.638079" lon="-78.779999">
        <ele>3618.00</ele>
        <time>2018-09-08T20:10:29Z</time>
      </trkpt>
      <trkpt lat="-2.638074" lon="-78.780113">
        <ele>3619.00</ele>
        <time>2018-09-08T20:10:30Z</time>
      </trkpt>
      <trkpt lat="-2.638093" lon="-78.780243">
        <ele>3619.00</ele>
        <time>2018-09-08T20:10:31Z</time>
      </trkpt>
      <trkpt lat="-2.638119" lon="-78.780365">
        <ele>3619.00</ele>
        <time>2018-09-08T20:10:32Z</time>
      </trkpt>
      <trkpt lat="-2.638133" lon="-78.780495">
        <ele>3619.00</ele>
        <time>2018-09-08T20:10:33Z</time>
      </trkpt>
      <trkpt lat="-2.638113" lon="-78.780617">
        <ele>3619.00</ele>
        <time>2018-09-08T20:10:34Z</time>
      </trkpt>
      <trkpt lat="-2.638062" lon="-78.780739">
        <ele>3619.00</ele>
        <time>2018-09-08T20:10:35Z</time>
      </trkpt>
      <trkpt lat="-2.638009" lon="-78.780861">
        <ele>3619.00</ele>
        <time>2018-09-08T20:10:36Z</time>
      </trkpt>
      <trkpt lat="-2.637964" lon="-78.780975">
        <ele>3619.00</ele>
        <time>2018-09-08T20:10:37Z</time>
      </trkpt>
      <trkpt lat="-2.637922" lon="-78.781105">
        <ele>3619.00</ele>
        <time>2018-09-08T20:10:38Z</time>
      </trkpt>
      <trkpt lat="-2.637851" lon="-78.781212">
        <ele>3619.00</ele>
        <time>2018-09-08T20:10:39Z</time>
      </trkpt>
      <trkpt lat="-2.637753" lon="-78.781281">
        <ele>3620.00</ele>
        <time>2018-09-08T20:10:40Z</time>
      </trkpt>
      <trkpt lat="-2.637642" lon="-78.781380">
        <ele>3620.00</ele>
        <time>2018-09-08T20:10:41Z</time>
      </trkpt>
      <trkpt lat="-2.637494" lon="-78.781456">
        <ele>3620.00</ele>
        <time>2018-09-08T20:10:42Z</time>
      </trkpt>
      <trkpt lat="-2.637338" lon="-78.781540">
        <ele>3620.00</ele>
        <time>2018-09-08T20:10:43Z</time>
      </trkpt>
      <trkpt lat="-2.637193" lon="-78.781601">
        <ele>3621.00</ele>
        <time>2018-09-08T20:10:44Z</time>
      </trkpt>
      <trkpt lat="-2.637057" lon="-78.781654">
        <ele>3621.00</ele>
        <time>2018-09-08T20:10:45Z</time>
      </trkpt>
      <trkpt lat="-2.636936" lon="-78.781700">
        <ele>3621.00</ele>
        <time>2018-09-08T20:10:46Z</time>
      </trkpt>
      <trkpt lat="-2.636821" lon="-78.781715">
        <ele>3621.00</ele>
        <time>2018-09-08T20:10:47Z</time>
      </trkpt>
      <trkpt lat="-2.636702" lon="-78.781715">
        <ele>3622.00</ele>
        <time>2018-09-08T20:10:48Z</time>
      </trkpt>
      <trkpt lat="-2.636580" lon="-78.781693">
        <ele>3622.00</ele>
        <time>2018-09-08T20:10:49Z</time>
      </trkpt>
      <trkpt lat="-2.636469" lon="-78.781677">
        <ele>3622.00</ele>
        <time>2018-09-08T20:10:50Z</time>
      </trkpt>
      <trkpt lat="-2.636362" lon="-78.781654">
        <ele>3622.00</ele>
        <time>2018-09-08T20:10:51Z</time>
      </trkpt>
      <trkpt lat="-2.636243" lon="-78.781601">
        <ele>3622.00</ele>
        <time>2018-09-08T20:10:52Z</time>
      </trkpt>
      <trkpt lat="-2.636115" lon="-78.781517">
        <ele>3622.00</ele>
        <time>2018-09-08T20:10:53Z</time>
      </trkpt>
      <trkpt lat="-2.635988" lon="-78.781410">
        <ele>3622.00</ele>
        <time>2018-09-08T20:10:54Z</time>
      </trkpt>
      <trkpt lat="-2.635865" lon="-78.781319">
        <ele>3622.00</ele>
        <time>2018-09-08T20:10:55Z</time>
      </trkpt>
      <trkpt lat="-2.635746" lon="-78.781219">
        <ele>3622.00</ele>
        <time>2018-09-08T20:10:56Z</time>
      </trkpt>
      <trkpt lat="-2.635643" lon="-78.781105">
        <ele>3622.00</ele>
        <time>2018-09-08T20:10:57Z</time>
      </trkpt>
      <trkpt lat="-2.635567" lon="-78.780983">
        <ele>3622.00</ele>
        <time>2018-09-08T20:10:58Z</time>
      </trkpt>
      <trkpt lat="-2.635514" lon="-78.780891">
        <ele>3622.00</ele>
        <time>2018-09-08T20:10:59Z</time>
      </trkpt>
      <trkpt lat="-2.635466" lon="-78.780807">
        <ele>3622.00</ele>
        <time>2018-09-08T20:11:00Z</time>
      </trkpt>
      <trkpt lat="-2.635393" lon="-78.780762">
        <ele>3621.00</ele>
        <time>2018-09-08T20:11:01Z</time>
      </trkpt>
      <trkpt lat="-2.635297" lon="-78.780762">
        <ele>3621.00</ele>
        <time>2018-09-08T20:11:02Z</time>
      </trkpt>
      <trkpt lat="-2.635191" lon="-78.780777">
        <ele>3621.00</ele>
        <time>2018-09-08T20:11:03Z</time>
      </trkpt>
      <trkpt lat="-2.635083" lon="-78.780815">
        <ele>3621.00</ele>
        <time>2018-09-08T20:11:04Z</time>
      </trkpt>
      <trkpt lat="-2.634990" lon="-78.780891">
        <ele>3621.00</ele>
        <time>2018-09-08T20:11:05Z</time>
      </trkpt>
      <trkpt lat="-2.634925" lon="-78.780998">
        <ele>3621.00</ele>
        <time>2018-09-08T20:11:06Z</time>
      </trkpt>
      <trkpt lat="-2.634889" lon="-78.781120">
        <ele>3621.00</ele>
        <time>2018-09-08T20:11:07Z</time>
      </trkpt>
      <trkpt lat="-2.634873" lon="-78.781242">
        <ele>3621.00</ele>
        <time>2018-09-08T20:11:08Z</time>
      </trkpt>
      <trkpt lat="-2.634869" lon="-78.781387">
        <ele>3620.00</ele>
        <time>2018-09-08T20:11:09Z</time>
      </trkpt>
      <trkpt lat="-2.634848" lon="-78.781532">
        <ele>3620.00</ele>
        <time>2018-09-08T20:11:10Z</time>
      </trkpt>
      <trkpt lat="-2.634813" lon="-78.781670">
        <ele>3620.00</ele>
        <time>2018-09-08T20:11:11Z</time>
      </trkpt>
      <trkpt lat="-2.634765" lon="-78.781815">
        <ele>3620.00</ele>
        <time>2018-09-08T20:11:12Z</time>
      </trkpt>
      <trkpt lat="-2.634707" lon="-78.781952">
        <ele>3620.00</ele>
        <time>2018-09-08T20:11:13Z</time>
      </trkpt>
      <trkpt lat="-2.634641" lon="-78.782097">
        <ele>3620.00</ele>
        <time>2018-09-08T20:11:14Z</time>
      </trkpt>
      <trkpt lat="-2.634573" lon="-78.782211">
        <ele>3620.00</ele>
        <time>2018-09-08T20:11:15Z</time>
      </trkpt>
      <trkpt lat="-2.634490" lon="-78.782303">
        <ele>3619.00</ele>
        <time>2018-09-08T20:11:16Z</time>
      </trkpt>
      <trkpt lat="-2.634378" lon="-78.782356">
        <ele>3619.00</ele>
        <time>2018-09-08T20:11:17Z</time>
      </trkpt>
      <trkpt lat="-2.634240" lon="-78.782410">
        <ele>3619.00</ele>
        <time>2018-09-08T20:11:18Z</time>
      </trkpt>
      <trkpt lat="-2.634092" lon="-78.782448">
        <ele>3619.00</ele>
        <time>2018-09-08T20:11:19Z</time>
      </trkpt>
      <trkpt lat="-2.633937" lon="-78.782455">
        <ele>3619.00</ele>
        <time>2018-09-08T20:11:20Z</time>
      </trkpt>
      <trkpt lat="-2.633780" lon="-78.782433">
        <ele>3618.00</ele>
        <time>2018-09-08T20:11:21Z</time>
      </trkpt>
      <trkpt lat="-2.633625" lon="-78.782455">
        <ele>3618.00</ele>
        <time>2018-09-08T20:11:22Z</time>
      </trkpt>
      <trkpt lat="-2.633488" lon="-78.782478">
        <ele>3618.00</ele>
        <time>2018-09-08T20:11:23Z</time>
      </trkpt>
      <trkpt lat="-2.633362" lon="-78.782509">
        <ele>3617.00</ele>
        <time>2018-09-08T20:11:24Z</time>
      </trkpt>
      <trkpt lat="-2.633232" lon="-78.782509">
        <ele>3617.00</ele>
        <time>2018-09-08T20:11:25Z</time>
      </trkpt>
      <trkpt lat="-2.633100" lon="-78.782486">
        <ele>3616.00</ele>
        <time>2018-09-08T20:11:26Z</time>
      </trkpt>
      <trkpt lat="-2.632970" lon="-78.782471">
        <ele>3616.00</ele>
        <time>2018-09-08T20:11:27Z</time>
      </trkpt>
      <trkpt lat="-2.632847" lon="-78.782433">
        <ele>3615.00</ele>
        <time>2018-09-08T20:11:28Z</time>
      </trkpt>
      <trkpt lat="-2.632738" lon="-78.782394">
        <ele>3615.00</ele>
        <time>2018-09-08T20:11:29Z</time>
      </trkpt>
      <trkpt lat="-2.632643" lon="-78.782310">
        <ele>3614.00</ele>
        <time>2018-09-08T20:11:30Z</time>
      </trkpt>
      <trkpt lat="-2.632541" lon="-78.782211">
        <ele>3613.00</ele>
        <time>2018-09-08T20:11:31Z</time>
      </trkpt>
      <trkpt lat="-2.632413" lon="-78.782135">
        <ele>3613.00</ele>
        <time>2018-09-08T20:11:32Z</time>
      </trkpt>
      <trkpt lat="-2.632274" lon="-78.782051">
        <ele>3612.00</ele>
        <time>2018-09-08T20:11:33Z</time>
      </trkpt>
      <trkpt lat="-2.632130" lon="-78.781952">
        <ele>3611.00</ele>
        <time>2018-09-08T20:11:34Z</time>
      </trkpt>
      <trkpt lat="-2.631982" lon="-78.781868">
        <ele>3611.00</ele>
        <time>2018-09-08T20:11:35Z</time>
      </trkpt>
      <trkpt lat="-2.631845" lon="-78.781784">
        <ele>3610.00</ele>
        <time>2018-09-08T20:11:36Z</time>
      </trkpt>
      <trkpt lat="-2.631723" lon="-78.781715">
        <ele>3610.00</ele>
        <time>2018-09-08T20:11:37Z</time>
      </trkpt>
      <trkpt lat="-2.631633" lon="-78.781639">
        <ele>3609.00</ele>
        <time>2018-09-08T20:11:38Z</time>
      </trkpt>
      <trkpt lat="-2.631549" lon="-78.781601">
        <ele>3609.00</ele>
        <time>2018-09-08T20:11:39Z</time>
      </trkpt>
      <trkpt lat="-2.631450" lon="-78.781609">
        <ele>3609.00</ele>
        <time>2018-09-08T20:11:40Z</time>
      </trkpt>
      <trkpt lat="-2.631341" lon="-78.781647">
        <ele>3608.00</ele>
        <time>2018-09-08T20:11:41Z</time>
      </trkpt>
      <trkpt lat="-2.631235" lon="-78.781708">
        <ele>3608.00</ele>
        <time>2018-09-08T20:11:42Z</time>
      </trkpt>
      <trkpt lat="-2.631135" lon="-78.781815">
        <ele>3608.00</ele>
        <time>2018-09-08T20:11:43Z</time>
      </trkpt>
      <trkpt lat="-2.631041" lon="-78.781914">
        <ele>3608.00</ele>
        <time>2018-09-08T20:11:44Z</time>
      </trkpt>
      <trkpt lat="-2.630970" lon="-78.781990">
        <ele>3608.00</ele>
        <time>2018-09-08T20:11:45Z</time>
      </trkpt>
      <trkpt lat="-2.630895" lon="-78.782036">
        <ele>3607.00</ele>
        <time>2018-09-08T20:11:46Z</time>
      </trkpt>
      <trkpt lat="-2.630820" lon="-78.782051">
        <ele>3607.00</ele>
        <time>2018-09-08T20:11:47Z</time>
      </trkpt>
      <trkpt lat="-2.630746" lon="-78.782021">
        <ele>3607.00</ele>
        <time>2018-09-08T20:11:48Z</time>
      </trkpt>
      <trkpt lat="-2.630660" lon="-78.781929">
        <ele>3607.00</ele>
        <time>2018-09-08T20:11:49Z</time>
      </trkpt>
      <trkpt lat="-2.630601" lon="-78.781807">
        <ele>3607.00</ele>
        <time>2018-09-08T20:11:50Z</time>
      </trkpt>
      <trkpt lat="-2.630593" lon="-78.781662">
        <ele>3607.00</ele>
        <time>2018-09-08T20:11:51Z</time>
      </trkpt>
      <trkpt lat="-2.630561" lon="-78.781509">
        <ele>3607.00</ele>
        <time>2018-09-08T20:11:52Z</time>
      </trkpt>
      <trkpt lat="-2.630520" lon="-78.781357">
        <ele>3607.00</ele>
        <time>2018-09-08T20:11:53Z</time>
      </trkpt>
      <trkpt lat="-2.630480" lon="-78.781219">
        <ele>3605.00</ele>
        <time>2018-09-08T20:11:54Z</time>
      </trkpt>
      <trkpt lat="-2.630407" lon="-78.781075">
        <ele>3603.00</ele>
        <time>2018-09-08T20:11:55Z</time>
      </trkpt>
      <trkpt lat="-2.630343" lon="-78.780975">
        <ele>3602.00</ele>
        <time>2018-09-08T20:11:56Z</time>
      </trkpt>
      <trkpt lat="-2.630280" lon="-78.780899">
        <ele>3601.00</ele>
        <time>2018-09-08T20:11:57Z</time>
      </trkpt>
      <trkpt lat="-2.630206" lon="-78.780853">
        <ele>3600.00</ele>
        <time>2018-09-08T20:11:58Z</time>
      </trkpt>
      <trkpt lat="-2.630113" lon="-78.780846">
        <ele>3599.00</ele>
        <time>2018-09-08T20:11:59Z</time>
      </trkpt>
      <trkpt lat="-2.630017" lon="-78.780884">
        <ele>3598.00</ele>
        <time>2018-09-08T20:12:00Z</time>
      </trkpt>
      <trkpt lat="-2.629903" lon="-78.780922">
        <ele>3598.00</ele>
        <time>2018-09-08T20:12:01Z</time>
      </trkpt>
      <trkpt lat="-2.629781" lon="-78.780975">
        <ele>3597.00</ele>
        <time>2018-09-08T20:12:02Z</time>
      </trkpt>
      <trkpt lat="-2.629683" lon="-78.781006">
        <ele>3596.00</ele>
        <time>2018-09-08T20:12:03Z</time>
      </trkpt>
      <trkpt lat="-2.629577" lon="-78.781006">
        <ele>3596.00</ele>
        <time>2018-09-08T20:12:04Z</time>
      </trkpt>
      <trkpt lat="-2.629463" lon="-78.780952">
        <ele>3595.00</ele>
        <time>2018-09-08T20:12:05Z</time>
      </trkpt>
      <trkpt lat="-2.629369" lon="-78.780869">
        <ele>3595.00</ele>
        <time>2018-09-08T20:12:06Z</time>
      </trkpt>
      <trkpt lat="-2.629287" lon="-78.780777">
        <ele>3594.00</ele>
        <time>2018-09-08T20:12:07Z</time>
      </trkpt>
      <trkpt lat="-2.629191" lon="-78.780678">
        <ele>3594.00</ele>
        <time>2018-09-08T20:12:08Z</time>
      </trkpt>
      <trkpt lat="-2.629092" lon="-78.780632">
        <ele>3593.00</ele>
        <time>2018-09-08T20:12:09Z</time>
      </trkpt>
      <trkpt lat="-2.628999" lon="-78.780617">
        <ele>3593.00</ele>
        <time>2018-09-08T20:12:10Z</time>
      </trkpt>
      <trkpt lat="-2.628899" lon="-78.780624">
        <ele>3593.00</ele>
        <time>2018-09-08T20:12:11Z</time>
      </trkpt>
      <trkpt lat="-2.628821" lon="-78.780693">
        <ele>3593.00</ele>
        <time>2018-09-08T20:12:12Z</time>
      </trkpt>
      <trkpt lat="-2.628747" lon="-78.780777">
        <ele>3593.00</ele>
        <time>2018-09-08T20:12:13Z</time>
      </trkpt>
      <trkpt lat="-2.628645" lon="-78.780846">
        <ele>3593.00</ele>
        <time>2018-09-08T20:12:14Z</time>
      </trkpt>
      <trkpt lat="-2.628521" lon="-78.780891">
        <ele>3593.00</ele>
        <time>2018-09-08T20:12:15Z</time>
      </trkpt>
      <trkpt lat="-2.628395" lon="-78.780922">
        <ele>3593.00</ele>
        <time>2018-09-08T20:12:16Z</time>
      </trkpt>
      <trkpt lat="-2.628246" lon="-78.780922">
        <ele>3592.00</ele>
        <time>2018-09-08T20:12:17Z</time>
      </trkpt>
      <trkpt lat="-2.628094" lon="-78.780899">
        <ele>3592.00</ele>
        <time>2018-09-08T20:12:18Z</time>
      </trkpt>
      <trkpt lat="-2.627955" lon="-78.780869">
        <ele>3592.00</ele>
        <time>2018-09-08T20:12:19Z</time>
      </trkpt>
      <trkpt lat="-2.627820" lon="-78.780815">
        <ele>3592.00</ele>
        <time>2018-09-08T20:12:20Z</time>
      </trkpt>
      <trkpt lat="-2.627701" lon="-78.780739">
        <ele>3592.00</ele>
        <time>2018-09-08T20:12:21Z</time>
      </trkpt>
      <trkpt lat="-2.627605" lon="-78.780632">
        <ele>3592.00</ele>
        <time>2018-09-08T20:12:22Z</time>
      </trkpt>
      <trkpt lat="-2.627553" lon="-78.780510">
        <ele>3591.00</ele>
        <time>2018-09-08T20:12:23Z</time>
      </trkpt>
      <trkpt lat="-2.627486" lon="-78.780403">
        <ele>3591.00</ele>
        <time>2018-09-08T20:12:24Z</time>
      </trkpt>
      <trkpt lat="-2.627398" lon="-78.780319">
        <ele>3591.00</ele>
        <time>2018-09-08T20:12:25Z</time>
      </trkpt>
      <trkpt lat="-2.627283" lon="-78.780312">
        <ele>3590.00</ele>
        <time>2018-09-08T20:12:26Z</time>
      </trkpt>
      <trkpt lat="-2.627164" lon="-78.780319">
        <ele>3590.00</ele>
        <time>2018-09-08T20:12:27Z</time>
      </trkpt>
      <trkpt lat="-2.627047" lon="-78.780334">
        <ele>3590.00</ele>
        <time>2018-09-08T20:12:28Z</time>
      </trkpt>
      <trkpt lat="-2.626932" lon="-78.780365">
        <ele>3590.00</ele>
        <time>2018-09-08T20:12:29Z</time>
      </trkpt>
      <trkpt lat="-2.626817" lon="-78.780411">
        <ele>3589.00</ele>
        <time>2018-09-08T20:12:30Z</time>
      </trkpt>
      <trkpt lat="-2.626691" lon="-78.780464">
        <ele>3589.00</ele>
        <time>2018-09-08T20:12:31Z</time>
      </trkpt>
      <trkpt lat="-2.626556" lon="-78.780495">
        <ele>3588.00</ele>
        <time>2018-09-08T20:12:32Z</time>
      </trkpt>
      <trkpt lat="-2.626409" lon="-78.780518">
        <ele>3588.00</ele>
        <time>2018-09-08T20:12:33Z</time>
      </trkpt>
      <trkpt lat="-2.626257" lon="-78.780518">
        <ele>3587.00</ele>
        <time>2018-09-08T20:12:34Z</time>
      </trkpt>
      <trkpt lat="-2.626100" lon="-78.780510">
        <ele>3587.00</ele>
        <time>2018-09-08T20:12:35Z</time>
      </trkpt>
      <trkpt lat="-2.625932" lon="-78.780510">
        <ele>3587.00</ele>
        <time>2018-09-08T20:12:36Z</time>
      </trkpt>
      <trkpt lat="-2.625754" lon="-78.780495">
        <ele>3586.00</ele>
        <time>2018-09-08T20:12:37Z</time>
      </trkpt>
      <trkpt lat="-2.625579" lon="-78.780495">
        <ele>3586.00</ele>
        <time>2018-09-08T20:12:38Z</time>
      </trkpt>
      <trkpt lat="-2.625413" lon="-78.780464">
        <ele>3586.00</ele>
        <time>2018-09-08T20:12:39Z</time>
      </trkpt>
      <trkpt lat="-2.625252" lon="-78.780434">
        <ele>3585.00</ele>
        <time>2018-09-08T20:12:40Z</time>
      </trkpt>
      <trkpt lat="-2.625105" lon="-78.780411">
        <ele>3585.00</ele>
        <time>2018-09-08T20:12:41Z</time>
      </trkpt>
      <trkpt lat="-2.624964" lon="-78.780365">
        <ele>3584.00</ele>
        <time>2018-09-08T20:12:42Z</time>
      </trkpt>
      <trkpt lat="-2.624830" lon="-78.780281">
        <ele>3584.00</ele>
        <time>2018-09-08T20:12:43Z</time>
      </trkpt>
      <trkpt lat="-2.624714" lon="-78.780190">
        <ele>3583.00</ele>
        <time>2018-09-08T20:12:44Z</time>
      </trkpt>
      <trkpt lat="-2.624630" lon="-78.780106">
        <ele>3583.00</ele>
        <time>2018-09-08T20:12:45Z</time>
      </trkpt>
      <trkpt lat="-2.624541" lon="-78.780037">
        <ele>3582.00</ele>
        <time>2018-09-08T20:12:46Z</time>
      </trkpt>
      <trkpt lat="-2.624438" lon="-78.779991">
        <ele>3582.00</ele>
        <time>2018-09-08T20:12:47Z</time>
      </trkpt>
      <trkpt lat="-2.624314" lon="-78.779984">
        <ele>3582.00</ele>
        <time>2018-09-08T20:12:48Z</time>
      </trkpt>
      <trkpt lat="-2.624194" lon="-78.779984">
        <ele>3581.00</ele>
        <time>2018-09-08T20:12:49Z</time>
      </trkpt>
      <trkpt lat="-2.624078" lon="-78.779945">
        <ele>3581.00</ele>
        <time>2018-09-08T20:12:50Z</time>
      </trkpt>
      <trkpt lat="-2.623955" lon="-78.779884">
        <ele>3581.00</ele>
        <time>2018-09-08T20:12:51Z</time>
      </trkpt>
      <trkpt lat="-2.623827" lon="-78.779793">
        <ele>3580.00</ele>
        <time>2018-09-08T20:12:52Z</time>
      </trkpt>
      <trkpt lat="-2.623682" lon="-78.779716">
        <ele>3579.00</ele>
        <time>2018-09-08T20:12:53Z</time>
      </trkpt>
      <trkpt lat="-2.623537" lon="-78.779648">
        <ele>3579.00</ele>
        <time>2018-09-08T20:12:54Z</time>
      </trkpt>
      <trkpt lat="-2.623391" lon="-78.779579">
        <ele>3578.00</ele>
        <time>2018-09-08T20:12:55Z</time>
      </trkpt>
      <trkpt lat="-2.623246" lon="-78.779526">
        <ele>3577.00</ele>
        <time>2018-09-08T20:12:56Z</time>
      </trkpt>
      <trkpt lat="-2.623103" lon="-78.779503">
        <ele>3576.00</ele>
        <time>2018-09-08T20:12:57Z</time>
      </trkpt>
      <trkpt lat="-2.622971" lon="-78.779472">
        <ele>3575.00</ele>
        <time>2018-09-08T20:12:58Z</time>
      </trkpt>
      <trkpt lat="-2.622849" lon="-78.779457">
        <ele>3573.00</ele>
        <time>2018-09-08T20:12:59Z</time>
      </trkpt>
      <trkpt lat="-2.622748" lon="-78.779411">
        <ele>3573.00</ele>
        <time>2018-09-08T20:13:00Z</time>
      </trkpt>
      <trkpt lat="-2.622674" lon="-78.779366">
        <ele>3572.00</ele>
        <time>2018-09-08T20:13:01Z</time>
      </trkpt>
      <trkpt lat="-2.622618" lon="-78.779327">
        <ele>3571.00</ele>
        <time>2018-09-08T20:13:02Z</time>
      </trkpt>
      <trkpt lat="-2.622554" lon="-78.779312">
        <ele>3571.00</ele>
        <time>2018-09-08T20:13:03Z</time>
      </trkpt>
      <trkpt lat="-2.622493" lon="-78.779358">
        <ele>3570.00</ele>
        <time>2018-09-08T20:13:04Z</time>
      </trkpt>
      <trkpt lat="-2.622434" lon="-78.779419">
        <ele>3570.00</ele>
        <time>2018-09-08T20:13:05Z</time>
      </trkpt>
      <trkpt lat="-2.622407" lon="-78.779510">
        <ele>3569.00</ele>
        <time>2018-09-08T20:13:06Z</time>
      </trkpt>
      <trkpt lat="-2.622420" lon="-78.779625">
        <ele>3568.00</ele>
        <time>2018-09-08T20:13:07Z</time>
      </trkpt>
      <trkpt lat="-2.622451" lon="-78.779785">
        <ele>3567.00</ele>
        <time>2018-09-08T20:13:08Z</time>
      </trkpt>
      <trkpt lat="-2.622480" lon="-78.779945">
        <ele>3567.00</ele>
        <time>2018-09-08T20:13:09Z</time>
      </trkpt>
      <trkpt lat="-2.622528" lon="-78.780090">
        <ele>3566.00</ele>
        <time>2018-09-08T20:13:10Z</time>
      </trkpt>
      <trkpt lat="-2.622584" lon="-78.780220">
        <ele>3565.00</ele>
        <time>2018-09-08T20:13:11Z</time>
      </trkpt>
      <trkpt lat="-2.622661" lon="-78.780334">
        <ele>3564.00</ele>
        <time>2018-09-08T20:13:12Z</time>
      </trkpt>
      <trkpt lat="-2.622744" lon="-78.780434">
        <ele>3563.00</ele>
        <time>2018-09-08T20:13:13Z</time>
      </trkpt>
      <trkpt lat="-2.622802" lon="-78.780525">
        <ele>3562.00</ele>
        <time>2018-09-08T20:13:14Z</time>
      </trkpt>
      <trkpt lat="-2.622821" lon="-78.780617">
        <ele>3562.00</ele>
        <time>2018-09-08T20:13:15Z</time>
      </trkpt>
      <trkpt lat="-2.622786" lon="-78.780724">
        <ele>3561.00</ele>
        <time>2018-09-08T20:13:16Z</time>
      </trkpt>
      <trkpt lat="-2.622709" lon="-78.780792">
        <ele>3560.00</ele>
        <time>2018-09-08T20:13:17Z</time>
      </trkpt>
      <trkpt lat="-2.622598" lon="-78.780815">
        <ele>3560.00</ele>
        <time>2018-09-08T20:13:18Z</time>
      </trkpt>
      <trkpt lat="-2.622485" lon="-78.780815">
        <ele>3559.00</ele>
        <time>2018-09-08T20:13:19Z</time>
      </trkpt>
      <trkpt lat="-2.622392" lon="-78.780815">
        <ele>3558.00</ele>
        <time>2018-09-08T20:13:20Z</time>
      </trkpt>
      <trkpt lat="-2.622312" lon="-78.780853">
        <ele>3558.00</ele>
        <time>2018-09-08T20:13:21Z</time>
      </trkpt>
      <trkpt lat="-2.622261" lon="-78.780914">
        <ele>3557.00</ele>
        <time>2018-09-08T20:13:22Z</time>
      </trkpt>
      <trkpt lat="-2.622239" lon="-78.781013">
        <ele>3556.00</ele>
        <time>2018-09-08T20:13:23Z</time>
      </trkpt>
      <trkpt lat="-2.622250" lon="-78.781136">
        <ele>3555.00</ele>
        <time>2018-09-08T20:13:24Z</time>
      </trkpt>
      <trkpt lat="-2.622282" lon="-78.781281">
        <ele>3554.00</ele>
        <time>2018-09-08T20:13:25Z</time>
      </trkpt>
      <trkpt lat="-2.622327" lon="-78.781433">
        <ele>3553.00</ele>
        <time>2018-09-08T20:13:26Z</time>
      </trkpt>
      <trkpt lat="-2.622388" lon="-78.781586">
        <ele>3552.00</ele>
        <time>2018-09-08T20:13:27Z</time>
      </trkpt>
      <trkpt lat="-2.622441" lon="-78.781746">
        <ele>3550.00</ele>
        <time>2018-09-08T20:13:28Z</time>
      </trkpt>
      <trkpt lat="-2.622463" lon="-78.781898">
        <ele>3549.00</ele>
        <time>2018-09-08T20:13:29Z</time>
      </trkpt>
      <trkpt lat="-2.622458" lon="-78.782082">
        <ele>3548.00</ele>
        <time>2018-09-08T20:13:30Z</time>
      </trkpt>
      <trkpt lat="-2.622431" lon="-78.782219">
        <ele>3547.00</ele>
        <time>2018-09-08T20:13:31Z</time>
      </trkpt>
      <trkpt lat="-2.622405" lon="-78.782364">
        <ele>3546.00</ele>
        <time>2018-09-08T20:13:32Z</time>
      </trkpt>
      <trkpt lat="-2.622385" lon="-78.782478">
        <ele>3545.00</ele>
        <time>2018-09-08T20:13:33Z</time>
      </trkpt>
      <trkpt lat="-2.622389" lon="-78.782585">
        <ele>3545.00</ele>
        <time>2018-09-08T20:13:34Z</time>
      </trkpt>
      <trkpt lat="-2.622412" lon="-78.782669">
        <ele>3544.00</ele>
        <time>2018-09-08T20:13:35Z</time>
      </trkpt>
      <trkpt lat="-2.622415" lon="-78.782730">
        <ele>3543.00</ele>
        <time>2018-09-08T20:13:36Z</time>
      </trkpt>
      <trkpt lat="-2.622385" lon="-78.782791">
        <ele>3543.00</ele>
        <time>2018-09-08T20:13:37Z</time>
      </trkpt>
      <trkpt lat="-2.622303" lon="-78.782814">
        <ele>3542.00</ele>
        <time>2018-09-08T20:13:38Z</time>
      </trkpt>
      <trkpt lat="-2.622180" lon="-78.782799">
        <ele>3542.00</ele>
        <time>2018-09-08T20:13:39Z</time>
      </trkpt>
      <trkpt lat="-2.622035" lon="-78.782791">
        <ele>3541.00</ele>
        <time>2018-09-08T20:13:40Z</time>
      </trkpt>
      <trkpt lat="-2.621904" lon="-78.782791">
        <ele>3540.00</ele>
        <time>2018-09-08T20:13:41Z</time>
      </trkpt>
      <trkpt lat="-2.621791" lon="-78.782791">
        <ele>3539.00</ele>
        <time>2018-09-08T20:13:42Z</time>
      </trkpt>
      <trkpt lat="-2.621692" lon="-78.782806">
        <ele>3538.00</ele>
        <time>2018-09-08T20:13:43Z</time>
      </trkpt>
      <trkpt lat="-2.621599" lon="-78.782806">
        <ele>3536.00</ele>
        <time>2018-09-08T20:13:44Z</time>
      </trkpt>
      <trkpt lat="-2.621517" lon="-78.782799">
        <ele>3535.00</ele>
        <time>2018-09-08T20:13:45Z</time>
      </trkpt>
      <trkpt lat="-2.621446" lon="-78.782791">
        <ele>3534.00</ele>
        <time>2018-09-08T20:13:46Z</time>
      </trkpt>
      <trkpt lat="-2.621385" lon="-78.782776">
        <ele>3532.00</ele>
        <time>2018-09-08T20:13:47Z</time>
      </trkpt>
      <trkpt lat="-2.621328" lon="-78.782768">
        <ele>3531.00</ele>
        <time>2018-09-08T20:13:48Z</time>
      </trkpt>
      <trkpt lat="-2.621273" lon="-78.782730">
        <ele>3529.00</ele>
        <time>2018-09-08T20:13:49Z</time>
      </trkpt>
      <trkpt lat="-2.621219" lon="-78.782692">
        <ele>3527.00</ele>
        <time>2018-09-08T20:13:50Z</time>
      </trkpt>
      <trkpt lat="-2.621167" lon="-78.782669">
        <ele>3525.00</ele>
        <time>2018-09-08T20:13:51Z</time>
      </trkpt>
      <trkpt lat="-2.621121" lon="-78.782623">
        <ele>3523.00</ele>
        <time>2018-09-08T20:13:52Z</time>
      </trkpt>
      <trkpt lat="-2.621077" lon="-78.782585">
        <ele>3521.00</ele>
        <time>2018-09-08T20:13:53Z</time>
      </trkpt>
      <trkpt lat="-2.621035" lon="-78.782555">
        <ele>3520.00</ele>
        <time>2018-09-08T20:13:54Z</time>
      </trkpt>
      <trkpt lat="-2.620995" lon="-78.782501">
        <ele>3518.00</ele>
        <time>2018-09-08T20:13:55Z</time>
      </trkpt>
      <trkpt lat="-2.620957" lon="-78.782433">
        <ele>3517.00</ele>
        <time>2018-09-08T20:13:56Z</time>
      </trkpt>
      <trkpt lat="-2.620916" lon="-78.782379">
        <ele>3516.00</ele>
        <time>2018-09-08T20:13:57Z</time>
      </trkpt>
      <trkpt lat="-2.620872" lon="-78.782341">
        <ele>3514.00</ele>
        <time>2018-09-08T20:13:58Z</time>
      </trkpt>
      <trkpt lat="-2.620821" lon="-78.782295">
        <ele>3513.00</ele>
        <time>2018-09-08T20:13:59Z</time>
      </trkpt>
      <trkpt lat="-2.620776" lon="-78.782257">
        <ele>3512.00</ele>
        <time>2018-09-08T20:14:00Z</time>
      </trkpt>
      <trkpt lat="-2.620739" lon="-78.782219">
        <ele>3511.00</ele>
        <time>2018-09-08T20:14:01Z</time>
      </trkpt>
      <trkpt lat="-2.620708" lon="-78.782196">
        <ele>3510.00</ele>
        <time>2018-09-08T20:14:02Z</time>
      </trkpt>
      <trkpt lat="-2.620673" lon="-78.782181">
        <ele>3508.00</ele>
        <time>2018-09-08T20:14:03Z</time>
      </trkpt>
      <trkpt lat="-2.620635" lon="-78.782158">
        <ele>3507.00</ele>
        <time>2018-09-08T20:14:04Z</time>
      </trkpt>
      <trkpt lat="-2.620584" lon="-78.782158">
        <ele>3506.00</ele>
        <time>2018-09-08T20:14:05Z</time>
      </trkpt>
      <trkpt lat="-2.620536" lon="-78.782188">
        <ele>3505.00</ele>
        <time>2018-09-08T20:14:06Z</time>
      </trkpt>
      <trkpt lat="-2.620508" lon="-78.782257">
        <ele>3504.00</ele>
        <time>2018-09-08T20:14:07Z</time>
      </trkpt>
      <trkpt lat="-2.620514" lon="-78.782341">
        <ele>3503.00</ele>
        <time>2018-09-08T20:14:08Z</time>
      </trkpt>
      <trkpt lat="-2.620538" lon="-78.782433">
        <ele>3502.00</ele>
        <time>2018-09-08T20:14:09Z</time>
      </trkpt>
      <trkpt lat="-2.620562" lon="-78.782539">
        <ele>3501.00</ele>
        <time>2018-09-08T20:14:10Z</time>
      </trkpt>
      <trkpt lat="-2.620580" lon="-78.782661">
        <ele>3500.00</ele>
        <time>2018-09-08T20:14:11Z</time>
      </trkpt>
      <trkpt lat="-2.620590" lon="-78.782791">
        <ele>3500.00</ele>
        <time>2018-09-08T20:14:12Z</time>
      </trkpt>
      <trkpt lat="-2.620595" lon="-78.782936">
        <ele>3499.00</ele>
        <time>2018-09-08T20:14:13Z</time>
      </trkpt>
      <trkpt lat="-2.620581" lon="-78.783058">
        <ele>3498.00</ele>
        <time>2018-09-08T20:14:14Z</time>
      </trkpt>
      <trkpt lat="-2.620548" lon="-78.783157">
        <ele>3497.00</ele>
        <time>2018-09-08T20:14:15Z</time>
      </trkpt>
      <trkpt lat="-2.620491" lon="-78.783241">
        <ele>3496.00</ele>
        <time>2018-09-08T20:14:16Z</time>
      </trkpt>
      <trkpt lat="-2.620416" lon="-78.783318">
        <ele>3496.00</ele>
        <time>2018-09-08T20:14:17Z</time>
      </trkpt>
      <trkpt lat="-2.620300" lon="-78.783371">
        <ele>3495.00</ele>
        <time>2018-09-08T20:14:18Z</time>
      </trkpt>
      <trkpt lat="-2.620157" lon="-78.783386">
        <ele>3494.00</ele>
        <time>2018-09-08T20:14:19Z</time>
      </trkpt>
      <trkpt lat="-2.620014" lon="-78.783424">
        <ele>3493.00</ele>
        <time>2018-09-08T20:14:20Z</time>
      </trkpt>
      <trkpt lat="-2.619879" lon="-78.783440">
        <ele>3492.00</ele>
        <time>2018-09-08T20:14:21Z</time>
      </trkpt>
      <trkpt lat="-2.619750" lon="-78.783424">
        <ele>3492.00</ele>
        <time>2018-09-08T20:14:22Z</time>
      </trkpt>
      <trkpt lat="-2.619624" lon="-78.783379">
        <ele>3491.00</ele>
        <time>2018-09-08T20:14:23Z</time>
      </trkpt>
      <trkpt lat="-2.619503" lon="-78.783325">
        <ele>3491.00</ele>
        <time>2018-09-08T20:14:24Z</time>
      </trkpt>
      <trkpt lat="-2.619381" lon="-78.783264">
        <ele>3490.00</ele>
        <time>2018-09-08T20:14:25Z</time>
      </trkpt>
      <trkpt lat="-2.619265" lon="-78.783211">
        <ele>3490.00</ele>
        <time>2018-09-08T20:14:26Z</time>
      </trkpt>
      <trkpt lat="-2.619155" lon="-78.783173">
        <ele>3489.00</ele>
        <time>2018-09-08T20:14:27Z</time>
      </trkpt>
      <trkpt lat="-2.619051" lon="-78.783165">
        <ele>3489.00</ele>
        <time>2018-09-08T20:14:28Z</time>
      </trkpt>
      <trkpt lat="-2.618952" lon="-78.783180">
        <ele>3489.00</ele>
        <time>2018-09-08T20:14:29Z</time>
      </trkpt>
      <trkpt lat="-2.618861" lon="-78.783241">
        <ele>3489.00</ele>
        <time>2018-09-08T20:14:30Z</time>
      </trkpt>
      <trkpt lat="-2.618778" lon="-78.783295">
        <ele>3488.00</ele>
        <time>2018-09-08T20:14:31Z</time>
      </trkpt>
      <trkpt lat="-2.618702" lon="-78.783333">
        <ele>3488.00</ele>
        <time>2018-09-08T20:14:32Z</time>
      </trkpt>
      <trkpt lat="-2.618627" lon="-78.783333">
        <ele>3488.00</ele>
        <time>2018-09-08T20:14:33Z</time>
      </trkpt>
      <trkpt lat="-2.618563" lon="-78.783272">
        <ele>3488.00</ele>
        <time>2018-09-08T20:14:34Z</time>
      </trkpt>
      <trkpt lat="-2.618506" lon="-78.783173">
        <ele>3488.00</ele>
        <time>2018-09-08T20:14:35Z</time>
      </trkpt>
      <trkpt lat="-2.618444" lon="-78.783073">
        <ele>3487.00</ele>
        <time>2018-09-08T20:14:36Z</time>
      </trkpt>
      <trkpt lat="-2.618370" lon="-78.782997">
        <ele>3487.00</ele>
        <time>2018-09-08T20:14:37Z</time>
      </trkpt>
      <trkpt lat="-2.618273" lon="-78.782967">
        <ele>3486.00</ele>
        <time>2018-09-08T20:14:38Z</time>
      </trkpt>
      <trkpt lat="-2.618177" lon="-78.782997">
        <ele>3486.00</ele>
        <time>2018-09-08T20:14:39Z</time>
      </trkpt>
      <trkpt lat="-2.618107" lon="-78.783066">
        <ele>3485.00</ele>
        <time>2018-09-08T20:14:40Z</time>
      </trkpt>
      <trkpt lat="-2.618063" lon="-78.783165">
        <ele>3485.00</ele>
        <time>2018-09-08T20:14:41Z</time>
      </trkpt>
      <trkpt lat="-2.618019" lon="-78.783257">
        <ele>3484.00</ele>
        <time>2018-09-08T20:14:42Z</time>
      </trkpt>
      <trkpt lat="-2.617970" lon="-78.783318">
        <ele>3483.00</ele>
        <time>2018-09-08T20:14:43Z</time>
      </trkpt>
      <trkpt lat="-2.617894" lon="-78.783333">
        <ele>3483.00</ele>
        <time>2018-09-08T20:14:44Z</time>
      </trkpt>
      <trkpt lat="-2.617809" lon="-78.783310">
        <ele>3482.00</ele>
        <time>2018-09-08T20:14:45Z</time>
      </trkpt>
      <trkpt lat="-2.617734" lon="-78.783241">
        <ele>3482.00</ele>
        <time>2018-09-08T20:14:46Z</time>
      </trkpt>
      <trkpt lat="-2.617636" lon="-78.783203">
        <ele>3481.00</ele>
        <time>2018-09-08T20:14:47Z</time>
      </trkpt>
      <trkpt lat="-2.617522" lon="-78.783203">
        <ele>3481.00</ele>
        <time>2018-09-08T20:14:48Z</time>
      </trkpt>
      <trkpt lat="-2.617403" lon="-78.783241">
        <ele>3481.00</ele>
        <time>2018-09-08T20:14:49Z</time>
      </trkpt>
      <trkpt lat="-2.617286" lon="-78.783310">
        <ele>3480.00</ele>
        <time>2018-09-08T20:14:50Z</time>
      </trkpt>
      <trkpt lat="-2.617166" lon="-78.783371">
        <ele>3480.00</ele>
        <time>2018-09-08T20:14:51Z</time>
      </trkpt>
      <trkpt lat="-2.617063" lon="-78.783432">
        <ele>3479.00</ele>
        <time>2018-09-08T20:14:52Z</time>
      </trkpt>
      <trkpt lat="-2.616979" lon="-78.783493">
        <ele>3478.00</ele>
        <time>2018-09-08T20:14:53Z</time>
      </trkpt>
      <trkpt lat="-2.616897" lon="-78.783524">
        <ele>3478.00</ele>
        <time>2018-09-08T20:14:54Z</time>
      </trkpt>
      <trkpt lat="-2.616811" lon="-78.783508">
        <ele>3477.00</ele>
        <time>2018-09-08T20:14:55Z</time>
      </trkpt>
      <trkpt lat="-2.616742" lon="-78.783447">
        <ele>3477.00</ele>
        <time>2018-09-08T20:14:56Z</time>
      </trkpt>
      <trkpt lat="-2.616697" lon="-78.783363">
        <ele>3477.00</ele>
        <time>2018-09-08T20:14:57Z</time>
      </trkpt>
      <trkpt lat="-2.616632" lon="-78.783279">
        <ele>3476.00</ele>
        <time>2018-09-08T20:14:58Z</time>
      </trkpt>
      <trkpt lat="-2.616560" lon="-78.783203">
        <ele>3476.00</ele>
        <time>2018-09-08T20:14:59Z</time>
      </trkpt>
      <trkpt lat="-2.616466" lon="-78.783127">
        <ele>3476.00</ele>
        <time>2018-09-08T20:15:00Z</time>
      </trkpt>
      <trkpt lat="-2.616355" lon="-78.783066">
        <ele>3476.00</ele>
        <time>2018-09-08T20:15:01Z</time>
      </trkpt>
      <trkpt lat="-2.616232" lon="-78.783012">
        <ele>3476.00</ele>
        <time>2018-09-08T20:15:02Z</time>
      </trkpt>
      <trkpt lat="-2.616111" lon="-78.782967">
        <ele>3476.00</ele>
        <time>2018-09-08T20:15:03Z</time>
      </trkpt>
      <trkpt lat="-2.615999" lon="-78.782913">
        <ele>3476.00</ele>
        <time>2018-09-08T20:15:04Z</time>
      </trkpt>
      <trkpt lat="-2.615893" lon="-78.782867">
        <ele>3476.00</ele>
        <time>2018-09-08T20:15:05Z</time>
      </trkpt>
      <trkpt lat="-2.615781" lon="-78.782860">
        <ele>3476.00</ele>
        <time>2018-09-08T20:15:06Z</time>
      </trkpt>
      <trkpt lat="-2.615674" lon="-78.782845">
        <ele>3476.00</ele>
        <time>2018-09-08T20:15:07Z</time>
      </trkpt>
      <trkpt lat="-2.615572" lon="-78.782799">
        <ele>3475.00</ele>
        <time>2018-09-08T20:15:08Z</time>
      </trkpt>
      <trkpt lat="-2.615464" lon="-78.782730">
        <ele>3475.00</ele>
        <time>2018-09-08T20:15:09Z</time>
      </trkpt>
      <trkpt lat="-2.615343" lon="-78.782669">
        <ele>3475.00</ele>
        <time>2018-09-08T20:15:10Z</time>
      </trkpt>
      <trkpt lat="-2.615215" lon="-78.782616">
        <ele>3475.00</ele>
        <time>2018-09-08T20:15:11Z</time>
      </trkpt>
      <trkpt lat="-2.615102" lon="-78.782562">
        <ele>3475.00</ele>
        <time>2018-09-08T20:15:12Z</time>
      </trkpt>
      <trkpt lat="-2.615005" lon="-78.782524">
        <ele>3474.00</ele>
        <time>2018-09-08T20:15:13Z</time>
      </trkpt>
      <trkpt lat="-2.614906" lon="-78.782509">
        <ele>3474.00</ele>
        <time>2018-09-08T20:15:14Z</time>
      </trkpt>
      <trkpt lat="-2.614789" lon="-78.782509">
        <ele>3474.00</ele>
        <time>2018-09-08T20:15:15Z</time>
      </trkpt>
      <trkpt lat="-2.614657" lon="-78.782509">
        <ele>3474.00</ele>
        <time>2018-09-08T20:15:16Z</time>
      </trkpt>
      <trkpt lat="-2.614522" lon="-78.782501">
        <ele>3474.00</ele>
        <time>2018-09-08T20:15:17Z</time>
      </trkpt>
      <trkpt lat="-2.614392" lon="-78.782471">
        <ele>3474.00</ele>
        <time>2018-09-08T20:15:18Z</time>
      </trkpt>
      <trkpt lat="-2.614270" lon="-78.782433">
        <ele>3474.00</ele>
        <time>2018-09-08T20:15:19Z</time>
      </trkpt>
      <trkpt lat="-2.614156" lon="-78.782379">
        <ele>3474.00</ele>
        <time>2018-09-08T20:15:20Z</time>
      </trkpt>
      <trkpt lat="-2.614046" lon="-78.782349">
        <ele>3474.00</ele>
        <time>2018-09-08T20:15:21Z</time>
      </trkpt>
      <trkpt lat="-2.613935" lon="-78.782326">
        <ele>3474.00</ele>
        <time>2018-09-08T20:15:22Z</time>
      </trkpt>
      <trkpt lat="-2.613802" lon="-78.782318">
        <ele>3474.00</ele>
        <time>2018-09-08T20:15:23Z</time>
      </trkpt>
      <trkpt lat="-2.613648" lon="-78.782318">
        <ele>3474.00</ele>
        <time>2018-09-08T20:15:24Z</time>
      </trkpt>
      <trkpt lat="-2.613485" lon="-78.782303">
        <ele>3474.00</ele>
        <time>2018-09-08T20:15:25Z</time>
      </trkpt>
      <trkpt lat="-2.613316" lon="-78.782257">
        <ele>3473.00</ele>
        <time>2018-09-08T20:15:26Z</time>
      </trkpt>
      <trkpt lat="-2.613149" lon="-78.782188">
        <ele>3472.00</ele>
        <time>2018-09-08T20:15:27Z</time>
      </trkpt>
      <trkpt lat="-2.612983" lon="-78.782097">
        <ele>3471.00</ele>
        <time>2018-09-08T20:15:28Z</time>
      </trkpt>
      <trkpt lat="-2.612821" lon="-78.781998">
        <ele>3471.00</ele>
        <time>2018-09-08T20:15:29Z</time>
      </trkpt>
      <trkpt lat="-2.612671" lon="-78.781914">
        <ele>3470.00</ele>
        <time>2018-09-08T20:15:30Z</time>
      </trkpt>
      <trkpt lat="-2.612524" lon="-78.781837">
        <ele>3469.00</ele>
        <time>2018-09-08T20:15:31Z</time>
      </trkpt>
      <trkpt lat="-2.612377" lon="-78.781769">
        <ele>3469.00</ele>
        <time>2018-09-08T20:15:32Z</time>
      </trkpt>
      <trkpt lat="-2.612232" lon="-78.781693">
        <ele>3468.00</ele>
        <time>2018-09-08T20:15:33Z</time>
      </trkpt>
      <trkpt lat="-2.612090" lon="-78.781624">
        <ele>3467.00</ele>
        <time>2018-09-08T20:15:34Z</time>
      </trkpt>
      <trkpt lat="-2.611938" lon="-78.781570">
        <ele>3467.00</ele>
        <time>2018-09-08T20:15:35Z</time>
      </trkpt>
      <trkpt lat="-2.611774" lon="-78.781555">
        <ele>3466.00</ele>
        <time>2018-09-08T20:15:36Z</time>
      </trkpt>
      <trkpt lat="-2.611603" lon="-78.781532">
        <ele>3465.00</ele>
        <time>2018-09-08T20:15:37Z</time>
      </trkpt>
      <trkpt lat="-2.611430" lon="-78.781487">
        <ele>3465.00</ele>
        <time>2018-09-08T20:15:38Z</time>
      </trkpt>
      <trkpt lat="-2.611258" lon="-78.781441">
        <ele>3465.00</ele>
        <time>2018-09-08T20:15:39Z</time>
      </trkpt>
      <trkpt lat="-2.611083" lon="-78.781395">
        <ele>3464.00</ele>
        <time>2018-09-08T20:15:40Z</time>
      </trkpt>
      <trkpt lat="-2.610910" lon="-78.781357">
        <ele>3464.00</ele>
        <time>2018-09-08T20:15:41Z</time>
      </trkpt>
      <trkpt lat="-2.610750" lon="-78.781326">
        <ele>3464.00</ele>
        <time>2018-09-08T20:15:42Z</time>
      </trkpt>
      <trkpt lat="-2.610615" lon="-78.781288">
        <ele>3464.00</ele>
        <time>2018-09-08T20:15:43Z</time>
      </trkpt>
      <trkpt lat="-2.610499" lon="-78.781265">
        <ele>3463.00</ele>
        <time>2018-09-08T20:15:44Z</time>
      </trkpt>
      <trkpt lat="-2.610390" lon="-78.781235">
        <ele>3463.00</ele>
        <time>2018-09-08T20:15:45Z</time>
      </trkpt>
      <trkpt lat="-2.610260" lon="-78.781197">
        <ele>3463.00</ele>
        <time>2018-09-08T20:15:46Z</time>
      </trkpt>
      <trkpt lat="-2.610120" lon="-78.781136">
        <ele>3462.00</ele>
        <time>2018-09-08T20:15:47Z</time>
      </trkpt>
      <trkpt lat="-2.609970" lon="-78.781082">
        <ele>3462.00</ele>
        <time>2018-09-08T20:15:48Z</time>
      </trkpt>
      <trkpt lat="-2.609819" lon="-78.781036">
        <ele>3462.00</ele>
        <time>2018-09-08T20:15:49Z</time>
      </trkpt>
      <trkpt lat="-2.609663" lon="-78.780998">
        <ele>3463.00</ele>
        <time>2018-09-08T20:15:50Z</time>
      </trkpt>
      <trkpt lat="-2.609509" lon="-78.780968">
        <ele>3464.00</ele>
        <time>2018-09-08T20:15:51Z</time>
      </trkpt>
      <trkpt lat="-2.609357" lon="-78.780952">
        <ele>3465.00</ele>
        <time>2018-09-08T20:15:52Z</time>
      </trkpt>
      <trkpt lat="-2.609210" lon="-78.780952">
        <ele>3465.00</ele>
        <time>2018-09-08T20:15:53Z</time>
      </trkpt>
      <trkpt lat="-2.609072" lon="-78.780945">
        <ele>3465.00</ele>
        <time>2018-09-08T20:15:54Z</time>
      </trkpt>
      <trkpt lat="-2.608944" lon="-78.780922">
        <ele>3465.00</ele>
        <time>2018-09-08T20:15:55Z</time>
      </trkpt>
      <trkpt lat="-2.608820" lon="-78.780907">
        <ele>3465.00</ele>
        <time>2018-09-08T20:15:56Z</time>
      </trkpt>
      <trkpt lat="-2.608695" lon="-78.780891">
        <ele>3465.00</ele>
        <time>2018-09-08T20:15:57Z</time>
      </trkpt>
      <trkpt lat="-2.608569" lon="-78.780861">
        <ele>3465.00</ele>
        <time>2018-09-08T20:15:58Z</time>
      </trkpt>
      <trkpt lat="-2.608440" lon="-78.780830">
        <ele>3465.00</ele>
        <time>2018-09-08T20:15:59Z</time>
      </trkpt>
      <trkpt lat="-2.608312" lon="-78.780785">
        <ele>3465.00</ele>
        <time>2018-09-08T20:16:00Z</time>
      </trkpt>
      <trkpt lat="-2.608185" lon="-78.780746">
        <ele>3465.00</ele>
        <time>2018-09-08T20:16:01Z</time>
      </trkpt>
      <trkpt lat="-2.608063" lon="-78.780701">
        <ele>3465.00</ele>
        <time>2018-09-08T20:16:02Z</time>
      </trkpt>
      <trkpt lat="-2.607949" lon="-78.780655">
        <ele>3464.00</ele>
        <time>2018-09-08T20:16:03Z</time>
      </trkpt>
      <trkpt lat="-2.607856" lon="-78.780602">
        <ele>3464.00</ele>
        <time>2018-09-08T20:16:04Z</time>
      </trkpt>
      <trkpt lat="-2.607775" lon="-78.780533">
        <ele>3464.00</ele>
        <time>2018-09-08T20:16:05Z</time>
      </trkpt>
      <trkpt lat="-2.607709" lon="-78.780487">
        <ele>3464.00</ele>
        <time>2018-09-08T20:16:06Z</time>
      </trkpt>
      <trkpt lat="-2.607663" lon="-78.780441">
        <ele>3464.00</ele>
        <time>2018-09-08T20:16:07Z</time>
      </trkpt>
      <trkpt lat="-2.607643" lon="-78.780411">
        <ele>3464.00</ele>
        <time>2018-09-08T20:16:08Z</time>
      </trkpt>
      <trkpt lat="-2.607643" lon="-78.780411">
        <ele>3464.00</ele>
        <time>2018-09-08T20:16:09Z</time>
      </trkpt>
      <trkpt lat="-2.607643" lon="-78.780411">
        <ele>3464.00</ele>
        <time>2018-09-08T20:16:10Z</time>
      </trkpt>
      <trkpt lat="-2.607643" lon="-78.780411">
        <ele>3464.00</ele>
        <time>2018-09-08T20:16:11Z</time>
      </trkpt>
      <trkpt lat="-2.607643" lon="-78.780411">
        <ele>3464.00</ele>
        <time>2018-09-08T20:16:12Z</time>
      </trkpt>
      <trkpt lat="-2.607643" lon="-78.780411">
        <ele>3464.00</ele>
        <time>2018-09-08T20:16:13Z</time>
      </trkpt>
      <trkpt lat="-2.607613" lon="-78.780380">
        <ele>3464.00</ele>
        <time>2018-09-08T20:16:14Z</time>
      </trkpt>
      <trkpt lat="-2.607568" lon="-78.780365">
        <ele>3463.00</ele>
        <time>2018-09-08T20:16:15Z</time>
      </trkpt>
      <trkpt lat="-2.607514" lon="-78.780403">
        <ele>3463.00</ele>
        <time>2018-09-08T20:16:16Z</time>
      </trkpt>
      <trkpt lat="-2.607463" lon="-78.780479">
        <ele>3463.00</ele>
        <time>2018-09-08T20:16:17Z</time>
      </trkpt>
      <trkpt lat="-2.607430" lon="-78.780586">
        <ele>3463.00</ele>
        <time>2018-09-08T20:16:18Z</time>
      </trkpt>
      <trkpt lat="-2.607426" lon="-78.780701">
        <ele>3463.00</ele>
        <time>2018-09-08T20:16:19Z</time>
      </trkpt>
      <trkpt lat="-2.607457" lon="-78.780815">
        <ele>3463.00</ele>
        <time>2018-09-08T20:16:20Z</time>
      </trkpt>
      <trkpt lat="-2.607486" lon="-78.780952">
        <ele>3463.00</ele>
        <time>2018-09-08T20:16:21Z</time>
      </trkpt>
      <trkpt lat="-2.607498" lon="-78.781082">
        <ele>3463.00</ele>
        <time>2018-09-08T20:16:22Z</time>
      </trkpt>
      <trkpt lat="-2.607489" lon="-78.781219">
        <ele>3462.00</ele>
        <time>2018-09-08T20:16:23Z</time>
      </trkpt>
      <trkpt lat="-2.607434" lon="-78.781349">
        <ele>3462.00</ele>
        <time>2018-09-08T20:16:24Z</time>
      </trkpt>
      <trkpt lat="-2.607360" lon="-78.781479">
        <ele>3462.00</ele>
        <time>2018-09-08T20:16:25Z</time>
      </trkpt>
      <trkpt lat="-2.607282" lon="-78.781593">
        <ele>3462.00</ele>
        <time>2018-09-08T20:16:26Z</time>
      </trkpt>
      <trkpt lat="-2.607232" lon="-78.781715">
        <ele>3461.00</ele>
        <time>2018-09-08T20:16:27Z</time>
      </trkpt>
      <trkpt lat="-2.607219" lon="-78.781845">
        <ele>3461.00</ele>
        <time>2018-09-08T20:16:28Z</time>
      </trkpt>
      <trkpt lat="-2.607216" lon="-78.781952">
        <ele>3461.00</ele>
        <time>2018-09-08T20:16:29Z</time>
      </trkpt>
      <trkpt lat="-2.607189" lon="-78.782051">
        <ele>3461.00</ele>
        <time>2018-09-08T20:16:30Z</time>
      </trkpt>
      <trkpt lat="-2.607120" lon="-78.782127">
        <ele>3461.00</ele>
        <time>2018-09-08T20:16:31Z</time>
      </trkpt>
      <trkpt lat="-2.607038" lon="-78.782166">
        <ele>3461.00</ele>
        <time>2018-09-08T20:16:32Z</time>
      </trkpt>
      <trkpt lat="-2.606941" lon="-78.782143">
        <ele>3461.00</ele>
        <time>2018-09-08T20:16:33Z</time>
      </trkpt>
      <trkpt lat="-2.606859" lon="-78.782135">
        <ele>3460.00</ele>
        <time>2018-09-08T20:16:34Z</time>
      </trkpt>
      <trkpt lat="-2.606789" lon="-78.782150">
        <ele>3460.00</ele>
        <time>2018-09-08T20:16:35Z</time>
      </trkpt>
      <trkpt lat="-2.606747" lon="-78.782204">
        <ele>3460.00</ele>
        <time>2018-09-08T20:16:36Z</time>
      </trkpt>
      <trkpt lat="-2.606751" lon="-78.782272">
        <ele>3460.00</ele>
        <time>2018-09-08T20:16:37Z</time>
      </trkpt>
      <trkpt lat="-2.606818" lon="-78.782349">
        <ele>3460.00</ele>
        <time>2018-09-08T20:16:38Z</time>
      </trkpt>
      <trkpt lat="-2.606889" lon="-78.782425">
        <ele>3460.00</ele>
        <time>2018-09-08T20:16:39Z</time>
      </trkpt>
      <trkpt lat="-2.606966" lon="-78.782516">
        <ele>3460.00</ele>
        <time>2018-09-08T20:16:40Z</time>
      </trkpt>
      <trkpt lat="-2.607000" lon="-78.782623">
        <ele>3460.00</ele>
        <time>2018-09-08T20:16:41Z</time>
      </trkpt>
      <trkpt lat="-2.607007" lon="-78.782738">
        <ele>3460.00</ele>
        <time>2018-09-08T20:16:42Z</time>
      </trkpt>
      <trkpt lat="-2.606991" lon="-78.782860">
        <ele>3461.00</ele>
        <time>2018-09-08T20:16:43Z</time>
      </trkpt>
      <trkpt lat="-2.606979" lon="-78.782997">
        <ele>3461.00</ele>
        <time>2018-09-08T20:16:44Z</time>
      </trkpt>
      <trkpt lat="-2.606984" lon="-78.783127">
        <ele>3461.00</ele>
        <time>2018-09-08T20:16:45Z</time>
      </trkpt>
      <trkpt lat="-2.606992" lon="-78.783241">
        <ele>3460.00</ele>
        <time>2018-09-08T20:16:46Z</time>
      </trkpt>
      <trkpt lat="-2.606996" lon="-78.783340">
        <ele>3460.00</ele>
        <time>2018-09-08T20:16:47Z</time>
      </trkpt>
      <trkpt lat="-2.606976" lon="-78.783401">
        <ele>3458.00</ele>
        <time>2018-09-08T20:16:48Z</time>
      </trkpt>
      <trkpt lat="-2.606942" lon="-78.783455">
        <ele>3457.00</ele>
        <time>2018-09-08T20:16:49Z</time>
      </trkpt>
      <trkpt lat="-2.606893" lon="-78.783508">
        <ele>3456.00</ele>
        <time>2018-09-08T20:16:50Z</time>
      </trkpt>
      <trkpt lat="-2.606835" lon="-78.783539">
        <ele>3455.00</ele>
        <time>2018-09-08T20:16:51Z</time>
      </trkpt>
      <trkpt lat="-2.606789" lon="-78.783554">
        <ele>3455.00</ele>
        <time>2018-09-08T20:16:52Z</time>
      </trkpt>
      <trkpt lat="-2.606747" lon="-78.783554">
        <ele>3455.00</ele>
        <time>2018-09-08T20:16:53Z</time>
      </trkpt>
      <trkpt lat="-2.606709" lon="-78.783577">
        <ele>3455.00</ele>
        <time>2018-09-08T20:16:54Z</time>
      </trkpt>
      <trkpt lat="-2.606709" lon="-78.783577">
        <ele>3455.00</ele>
        <time>2018-09-08T20:16:55Z</time>
      </trkpt>
      <trkpt lat="-2.606709" lon="-78.783577">
        <ele>3454.00</ele>
        <time>2018-09-08T20:16:56Z</time>
      </trkpt>
      <trkpt lat="-2.606709" lon="-78.783577">
        <ele>3454.00</ele>
        <time>2018-09-08T20:16:57Z</time>
      </trkpt>
      <trkpt lat="-2.606709" lon="-78.783577">
        <ele>3455.00</ele>
        <time>2018-09-08T20:16:58Z</time>
      </trkpt>
      <trkpt lat="-2.606709" lon="-78.783577">
        <ele>3455.00</ele>
        <time>2018-09-08T20:16:59Z</time>
      </trkpt>
      <trkpt lat="-2.606709" lon="-78.783577">
        <ele>3455.00</ele>
        <time>2018-09-08T20:17:00Z</time>
      </trkpt>
      <trkpt lat="-2.606709" lon="-78.783577">
        <ele>3455.00</ele>
        <time>2018-09-08T20:17:01Z</time>
      </trkpt>
      <trkpt lat="-2.606709" lon="-78.783577">
        <ele>3455.00</ele>
        <time>2018-09-08T20:17:02Z</time>
      </trkpt>
      <trkpt lat="-2.606709" lon="-78.783577">
        <ele>3455.00</ele>
        <time>2018-09-08T20:17:03Z</time>
      </trkpt>
      <trkpt lat="-2.606709" lon="-78.783577">
        <ele>3455.00</ele>
        <time>2018-09-08T20:17:04Z</time>
      </trkpt>
      <trkpt lat="-2.606709" lon="-78.783577">
        <ele>3455.00</ele>
        <time>2018-09-08T20:17:05Z</time>
      </trkpt>
      <trkpt lat="-2.606709" lon="-78.783577">
        <ele>3455.00</ele>
        <time>2018-09-08T20:17:06Z</time>
      </trkpt>
      <trkpt lat="-2.606654" lon="-78.783562">
        <ele>3455.00</ele>
        <time>2018-09-08T20:17:07Z</time>
      </trkpt>
      <trkpt lat="-2.606654" lon="-78.783562">
        <ele>3455.00</ele>
        <time>2018-09-08T20:17:08Z</time>
      </trkpt>
      <trkpt lat="-2.606654" lon="-78.783562">
        <ele>3455.00</ele>
        <time>2018-09-08T20:17:09Z</time>
      </trkpt>
      <trkpt lat="-2.606654" lon="-78.783562">
        <ele>3454.00</ele>
        <time>2018-09-08T20:17:10Z</time>
      </trkpt>
      <trkpt lat="-2.606626" lon="-78.783562">
        <ele>3454.00</ele>
        <time>2018-09-08T20:17:11Z</time>
      </trkpt>
      <trkpt lat="-2.606596" lon="-78.783562">
        <ele>3454.00</ele>
        <time>2018-09-08T20:17:12Z</time>
      </trkpt>
      <trkpt lat="-2.606558" lon="-78.783546">
        <ele>3454.00</ele>
        <time>2018-09-08T20:17:13Z</time>
      </trkpt>
      <trkpt lat="-2.606522" lon="-78.783501">
        <ele>3453.00</ele>
        <time>2018-09-08T20:17:14Z</time>
      </trkpt>
      <trkpt lat="-2.606467" lon="-78.783447">
        <ele>3453.00</ele>
        <time>2018-09-08T20:17:15Z</time>
      </trkpt>
      <trkpt lat="-2.606393" lon="-78.783379">
        <ele>3453.00</ele>
        <time>2018-09-08T20:17:16Z</time>
      </trkpt>
      <trkpt lat="-2.606299" lon="-78.783318">
        <ele>3452.00</ele>
        <time>2018-09-08T20:17:17Z</time>
      </trkpt>
      <trkpt lat="-2.606187" lon="-78.783257">
        <ele>3452.00</ele>
        <time>2018-09-08T20:17:18Z</time>
      </trkpt>
      <trkpt lat="-2.606055" lon="-78.783226">
        <ele>3451.00</ele>
        <time>2018-09-08T20:17:19Z</time>
      </trkpt>
      <trkpt lat="-2.605904" lon="-78.783211">
        <ele>3451.00</ele>
        <time>2018-09-08T20:17:20Z</time>
      </trkpt>
      <trkpt lat="-2.605751" lon="-78.783203">
        <ele>3451.00</ele>
        <time>2018-09-08T20:17:21Z</time>
      </trkpt>
      <trkpt lat="-2.605614" lon="-78.783180">
        <ele>3450.00</ele>
        <time>2018-09-08T20:17:22Z</time>
      </trkpt>
      <trkpt lat="-2.605499" lon="-78.783150">
        <ele>3449.00</ele>
        <time>2018-09-08T20:17:23Z</time>
      </trkpt>
      <trkpt lat="-2.605379" lon="-78.783127">
        <ele>3449.00</ele>
        <time>2018-09-08T20:17:24Z</time>
      </trkpt>
      <trkpt lat="-2.605256" lon="-78.783134">
        <ele>3448.00</ele>
        <time>2018-09-08T20:17:25Z</time>
      </trkpt>
      <trkpt lat="-2.605151" lon="-78.783150">
        <ele>3447.00</ele>
        <time>2018-09-08T20:17:26Z</time>
      </trkpt>
      <trkpt lat="-2.605068" lon="-78.783127">
        <ele>3447.00</ele>
        <time>2018-09-08T20:17:27Z</time>
      </trkpt>
      <trkpt lat="-2.604996" lon="-78.783073">
        <ele>3446.00</ele>
        <time>2018-09-08T20:17:28Z</time>
      </trkpt>
      <trkpt lat="-2.604935" lon="-78.782997">
        <ele>3446.00</ele>
        <time>2018-09-08T20:17:29Z</time>
      </trkpt>
      <trkpt lat="-2.604867" lon="-78.782921">
        <ele>3445.00</ele>
        <time>2018-09-08T20:17:30Z</time>
      </trkpt>
      <trkpt lat="-2.604791" lon="-78.782890">
        <ele>3445.00</ele>
        <time>2018-09-08T20:17:31Z</time>
      </trkpt>
      <trkpt lat="-2.604710" lon="-78.782883">
        <ele>3445.00</ele>
        <time>2018-09-08T20:17:32Z</time>
      </trkpt>
      <trkpt lat="-2.604626" lon="-78.782921">
        <ele>3444.00</ele>
        <time>2018-09-08T20:17:33Z</time>
      </trkpt>
      <trkpt lat="-2.604553" lon="-78.783005">
        <ele>3444.00</ele>
        <time>2018-09-08T20:17:34Z</time>
      </trkpt>
      <trkpt lat="-2.604508" lon="-78.783104">
        <ele>3444.00</ele>
        <time>2018-09-08T20:17:35Z</time>
      </trkpt>
      <trkpt lat="-2.604517" lon="-78.783211">
        <ele>3443.00</ele>
        <time>2018-09-08T20:17:36Z</time>
      </trkpt>
      <trkpt lat="-2.604564" lon="-78.783333">
        <ele>3443.00</ele>
        <time>2018-09-08T20:17:37Z</time>
      </trkpt>
      <trkpt lat="-2.604620" lon="-78.783478">
        <ele>3442.00</ele>
        <time>2018-09-08T20:17:38Z</time>
      </trkpt>
      <trkpt lat="-2.604683" lon="-78.783615">
        <ele>3442.00</ele>
        <time>2018-09-08T20:17:39Z</time>
      </trkpt>
      <trkpt lat="-2.604739" lon="-78.783752">
        <ele>3442.00</ele>
        <time>2018-09-08T20:17:40Z</time>
      </trkpt>
      <trkpt lat="-2.604778" lon="-78.783859">
        <ele>3441.00</ele>
        <time>2018-09-08T20:17:41Z</time>
      </trkpt>
      <trkpt lat="-2.604778" lon="-78.783966">
        <ele>3441.00</ele>
        <time>2018-09-08T20:17:42Z</time>
      </trkpt>
      <trkpt lat="-2.604738" lon="-78.784065">
        <ele>3441.00</ele>
        <time>2018-09-08T20:17:43Z</time>
      </trkpt>
      <trkpt lat="-2.604677" lon="-78.784142">
        <ele>3440.00</ele>
        <time>2018-09-08T20:17:44Z</time>
      </trkpt>
      <trkpt lat="-2.604571" lon="-78.784203">
        <ele>3440.00</ele>
        <time>2018-09-08T20:17:45Z</time>
      </trkpt>
      <trkpt lat="-2.604465" lon="-78.784241">
        <ele>3440.00</ele>
        <time>2018-09-08T20:17:46Z</time>
      </trkpt>
      <trkpt lat="-2.604381" lon="-78.784286">
        <ele>3440.00</ele>
        <time>2018-09-08T20:17:47Z</time>
      </trkpt>
      <trkpt lat="-2.604321" lon="-78.784370">
        <ele>3440.00</ele>
        <time>2018-09-08T20:17:48Z</time>
      </trkpt>
      <trkpt lat="-2.604283" lon="-78.784477">
        <ele>3440.00</ele>
        <time>2018-09-08T20:17:49Z</time>
      </trkpt>
      <trkpt lat="-2.604300" lon="-78.784599">
        <ele>3440.00</ele>
        <time>2018-09-08T20:17:50Z</time>
      </trkpt>
      <trkpt lat="-2.604363" lon="-78.784721">
        <ele>3440.00</ele>
        <time>2018-09-08T20:17:51Z</time>
      </trkpt>
      <trkpt lat="-2.604421" lon="-78.784843">
        <ele>3439.00</ele>
        <time>2018-09-08T20:17:52Z</time>
      </trkpt>
      <trkpt lat="-2.604465" lon="-78.784996">
        <ele>3439.00</ele>
        <time>2018-09-08T20:17:53Z</time>
      </trkpt>
      <trkpt lat="-2.604509" lon="-78.785141">
        <ele>3439.00</ele>
        <time>2018-09-08T20:17:54Z</time>
      </trkpt>
      <trkpt lat="-2.604555" lon="-78.785255">
        <ele>3439.00</ele>
        <time>2018-09-08T20:17:55Z</time>
      </trkpt>
      <trkpt lat="-2.604582" lon="-78.785339">
        <ele>3438.00</ele>
        <time>2018-09-08T20:17:56Z</time>
      </trkpt>
      <trkpt lat="-2.604572" lon="-78.785416">
        <ele>3438.00</ele>
        <time>2018-09-08T20:17:57Z</time>
      </trkpt>
      <trkpt lat="-2.604507" lon="-78.785484">
        <ele>3438.00</ele>
        <time>2018-09-08T20:17:58Z</time>
      </trkpt>
      <trkpt lat="-2.604408" lon="-78.785522">
        <ele>3438.00</ele>
        <time>2018-09-08T20:17:59Z</time>
      </trkpt>
      <trkpt lat="-2.604318" lon="-78.785591">
        <ele>3437.00</ele>
        <time>2018-09-08T20:18:00Z</time>
      </trkpt>
      <trkpt lat="-2.604270" lon="-78.785667">
        <ele>3437.00</ele>
        <time>2018-09-08T20:18:01Z</time>
      </trkpt>
      <trkpt lat="-2.604258" lon="-78.785759">
        <ele>3437.00</ele>
        <time>2018-09-08T20:18:02Z</time>
      </trkpt>
      <trkpt lat="-2.604241" lon="-78.785828">
        <ele>3437.00</ele>
        <time>2018-09-08T20:18:03Z</time>
      </trkpt>
      <trkpt lat="-2.604221" lon="-78.785873">
        <ele>3437.00</ele>
        <time>2018-09-08T20:18:04Z</time>
      </trkpt>
      <trkpt lat="-2.604221" lon="-78.785873">
        <ele>3437.00</ele>
        <time>2018-09-08T20:18:05Z</time>
      </trkpt>
      <trkpt lat="-2.604202" lon="-78.785881">
        <ele>3436.00</ele>
        <time>2018-09-08T20:18:06Z</time>
      </trkpt>
      <trkpt lat="-2.604214" lon="-78.785873">
        <ele>3436.00</ele>
        <time>2018-09-08T20:18:07Z</time>
      </trkpt>
      <trkpt lat="-2.604238" lon="-78.785866">
        <ele>3436.00</ele>
        <time>2018-09-08T20:18:08Z</time>
      </trkpt>
      <trkpt lat="-2.604251" lon="-78.785828">
        <ele>3436.00</ele>
        <time>2018-09-08T20:18:09Z</time>
      </trkpt>
      <trkpt lat="-2.604256" lon="-78.785759">
        <ele>3435.00</ele>
        <time>2018-09-08T20:18:10Z</time>
      </trkpt>
      <trkpt lat="-2.604264" lon="-78.785683">
        <ele>3434.00</ele>
        <time>2018-09-08T20:18:11Z</time>
      </trkpt>
      <trkpt lat="-2.604275" lon="-78.785591">
        <ele>3434.00</ele>
        <time>2018-09-08T20:18:12Z</time>
      </trkpt>
      <trkpt lat="-2.604297" lon="-78.785500">
        <ele>3433.00</ele>
        <time>2018-09-08T20:18:13Z</time>
      </trkpt>
      <trkpt lat="-2.604332" lon="-78.785431">
        <ele>3433.00</ele>
        <time>2018-09-08T20:18:14Z</time>
      </trkpt>
      <trkpt lat="-2.604394" lon="-78.785362">
        <ele>3432.00</ele>
        <time>2018-09-08T20:18:15Z</time>
      </trkpt>
      <trkpt lat="-2.604455" lon="-78.785301">
        <ele>3432.00</ele>
        <time>2018-09-08T20:18:16Z</time>
      </trkpt>
      <trkpt lat="-2.604466" lon="-78.785217">
        <ele>3432.00</ele>
        <time>2018-09-08T20:18:17Z</time>
      </trkpt>
      <trkpt lat="-2.604440" lon="-78.785141">
        <ele>3431.00</ele>
        <time>2018-09-08T20:18:18Z</time>
      </trkpt>
      <trkpt lat="-2.604395" lon="-78.785049">
        <ele>3431.00</ele>
        <time>2018-09-08T20:18:19Z</time>
      </trkpt>
      <trkpt lat="-2.604365" lon="-78.784943">
        <ele>3431.00</ele>
        <time>2018-09-08T20:18:20Z</time>
      </trkpt>
      <trkpt lat="-2.604343" lon="-78.784836">
        <ele>3430.00</ele>
        <time>2018-09-08T20:18:21Z</time>
      </trkpt>
      <trkpt lat="-2.604305" lon="-78.784721">
        <ele>3430.00</ele>
        <time>2018-09-08T20:18:22Z</time>
      </trkpt>
      <trkpt lat="-2.604244" lon="-78.784622">
        <ele>3430.00</ele>
        <time>2018-09-08T20:18:23Z</time>
      </trkpt>
      <trkpt lat="-2.604209" lon="-78.784500">
        <ele>3430.00</ele>
        <time>2018-09-08T20:18:24Z</time>
      </trkpt>
      <trkpt lat="-2.604214" lon="-78.784386">
        <ele>3430.00</ele>
        <time>2018-09-08T20:18:25Z</time>
      </trkpt>
      <trkpt lat="-2.604258" lon="-78.784279">
        <ele>3430.00</ele>
        <time>2018-09-08T20:18:26Z</time>
      </trkpt>
      <trkpt lat="-2.604457" lon="-78.784134">
        <ele>3430.00</ele>
        <time>2018-09-08T20:18:27Z</time>
      </trkpt>
      <trkpt lat="-2.604573" lon="-78.784096">
        <ele>3429.00</ele>
        <time>2018-09-08T20:18:28Z</time>
      </trkpt>
      <trkpt lat="-2.604676" lon="-78.784042">
        <ele>3429.00</ele>
        <time>2018-09-08T20:18:29Z</time>
      </trkpt>
      <trkpt lat="-2.604740" lon="-78.783958">
        <ele>3429.00</ele>
        <time>2018-09-08T20:18:30Z</time>
      </trkpt>
      <trkpt lat="-2.604776" lon="-78.783875">
        <ele>3429.00</ele>
        <time>2018-09-08T20:18:31Z</time>
      </trkpt>
      <trkpt lat="-2.604768" lon="-78.783775">
        <ele>3429.00</ele>
        <time>2018-09-08T20:18:32Z</time>
      </trkpt>
      <trkpt lat="-2.604723" lon="-78.783691">
        <ele>3429.00</ele>
        <time>2018-09-08T20:18:33Z</time>
      </trkpt>
      <trkpt lat="-2.604672" lon="-78.783585">
        <ele>3429.00</ele>
        <time>2018-09-08T20:18:34Z</time>
      </trkpt>
      <trkpt lat="-2.604620" lon="-78.783478">
        <ele>3429.00</ele>
        <time>2018-09-08T20:18:35Z</time>
      </trkpt>
      <trkpt lat="-2.604576" lon="-78.783363">
        <ele>3429.00</ele>
        <time>2018-09-08T20:18:36Z</time>
      </trkpt>
      <trkpt lat="-2.604535" lon="-78.783257">
        <ele>3429.00</ele>
        <time>2018-09-08T20:18:37Z</time>
      </trkpt>
      <trkpt lat="-2.604517" lon="-78.783157">
        <ele>3429.00</ele>
        <time>2018-09-08T20:18:38Z</time>
      </trkpt>
      <trkpt lat="-2.604544" lon="-78.783051">
        <ele>3429.00</ele>
        <time>2018-09-08T20:18:39Z</time>
      </trkpt>
      <trkpt lat="-2.604608" lon="-78.782967">
        <ele>3429.00</ele>
        <time>2018-09-08T20:18:40Z</time>
      </trkpt>
      <trkpt lat="-2.604692" lon="-78.782913">
        <ele>3429.00</ele>
        <time>2018-09-08T20:18:41Z</time>
      </trkpt>
      <trkpt lat="-2.604782" lon="-78.782890">
        <ele>3429.00</ele>
        <time>2018-09-08T20:18:42Z</time>
      </trkpt>
      <trkpt lat="-2.604847" lon="-78.782936">
        <ele>3429.00</ele>
        <time>2018-09-08T20:18:43Z</time>
      </trkpt>
      <trkpt lat="-2.604910" lon="-78.782990">
        <ele>3429.00</ele>
        <time>2018-09-08T20:18:44Z</time>
      </trkpt>
      <trkpt lat="-2.604986" lon="-78.783081">
        <ele>3429.00</ele>
        <time>2018-09-08T20:18:45Z</time>
      </trkpt>
      <trkpt lat="-2.605075" lon="-78.783150">
        <ele>3429.00</ele>
        <time>2018-09-08T20:18:46Z</time>
      </trkpt>
      <trkpt lat="-2.605188" lon="-78.783165">
        <ele>3430.00</ele>
        <time>2018-09-08T20:18:47Z</time>
      </trkpt>
      <trkpt lat="-2.605318" lon="-78.783150">
        <ele>3430.00</ele>
        <time>2018-09-08T20:18:48Z</time>
      </trkpt>
      <trkpt lat="-2.605445" lon="-78.783150">
        <ele>3430.00</ele>
        <time>2018-09-08T20:18:49Z</time>
      </trkpt>
      <trkpt lat="-2.605568" lon="-78.783180">
        <ele>3431.00</ele>
        <time>2018-09-08T20:18:50Z</time>
      </trkpt>
      <trkpt lat="-2.605693" lon="-78.783234">
        <ele>3431.00</ele>
        <time>2018-09-08T20:18:51Z</time>
      </trkpt>
      <trkpt lat="-2.605826" lon="-78.783257">
        <ele>3431.00</ele>
        <time>2018-09-08T20:18:52Z</time>
      </trkpt>
      <trkpt lat="-2.605961" lon="-78.783264">
        <ele>3432.00</ele>
        <time>2018-09-08T20:18:53Z</time>
      </trkpt>
      <trkpt lat="-2.606101" lon="-78.783279">
        <ele>3432.00</ele>
        <time>2018-09-08T20:18:54Z</time>
      </trkpt>
      <trkpt lat="-2.606230" lon="-78.783325">
        <ele>3432.00</ele>
        <time>2018-09-08T20:18:55Z</time>
      </trkpt>
      <trkpt lat="-2.606345" lon="-78.783386">
        <ele>3433.00</ele>
        <time>2018-09-08T20:18:56Z</time>
      </trkpt>
      <trkpt lat="-2.606449" lon="-78.783470">
        <ele>3434.00</ele>
        <time>2018-09-08T20:18:57Z</time>
      </trkpt>
      <trkpt lat="-2.606524" lon="-78.783531">
        <ele>3434.00</ele>
        <time>2018-09-08T20:18:58Z</time>
      </trkpt>
      <trkpt lat="-2.606585" lon="-78.783562">
        <ele>3435.00</ele>
        <time>2018-09-08T20:18:59Z</time>
      </trkpt>
      <trkpt lat="-2.606610" lon="-78.783577">
        <ele>3435.00</ele>
        <time>2018-09-08T20:19:00Z</time>
      </trkpt>
      <trkpt lat="-2.606617" lon="-78.783562">
        <ele>3435.00</ele>
        <time>2018-09-08T20:19:01Z</time>
      </trkpt>
      <trkpt lat="-2.606617" lon="-78.783562">
        <ele>3435.00</ele>
        <time>2018-09-08T20:19:02Z</time>
      </trkpt>
      <trkpt lat="-2.606617" lon="-78.783562">
        <ele>3435.00</ele>
        <time>2018-09-08T20:19:03Z</time>
      </trkpt>
      <trkpt lat="-2.606617" lon="-78.783562">
        <ele>3435.00</ele>
        <time>2018-09-08T20:19:04Z</time>
      </trkpt>
      <trkpt lat="-2.606618" lon="-78.783554">
        <ele>3435.00</ele>
        <time>2018-09-08T20:19:05Z</time>
      </trkpt>
      <trkpt lat="-2.606648" lon="-78.783554">
        <ele>3435.00</ele>
        <time>2018-09-08T20:19:06Z</time>
      </trkpt>
      <trkpt lat="-2.606690" lon="-78.783531">
        <ele>3436.00</ele>
        <time>2018-09-08T20:19:07Z</time>
      </trkpt>
      <trkpt lat="-2.606740" lon="-78.783501">
        <ele>3438.00</ele>
        <time>2018-09-08T20:19:08Z</time>
      </trkpt>
      <trkpt lat="-2.606797" lon="-78.783478">
        <ele>3439.00</ele>
        <time>2018-09-08T20:19:09Z</time>
      </trkpt>
      <trkpt lat="-2.606856" lon="-78.783447">
        <ele>3439.00</ele>
        <time>2018-09-08T20:19:10Z</time>
      </trkpt>
      <trkpt lat="-2.606903" lon="-78.783401">
        <ele>3440.00</ele>
        <time>2018-09-08T20:19:11Z</time>
      </trkpt>
      <trkpt lat="-2.606944" lon="-78.783348">
        <ele>3441.00</ele>
        <time>2018-09-08T20:19:12Z</time>
      </trkpt>
      <trkpt lat="-2.606966" lon="-78.783295">
        <ele>3442.00</ele>
        <time>2018-09-08T20:19:13Z</time>
      </trkpt>
      <trkpt lat="-2.606974" lon="-78.783226">
        <ele>3443.00</ele>
        <time>2018-09-08T20:19:14Z</time>
      </trkpt>
      <trkpt lat="-2.606968" lon="-78.783157">
        <ele>3444.00</ele>
        <time>2018-09-08T20:19:15Z</time>
      </trkpt>
      <trkpt lat="-2.606960" lon="-78.783073">
        <ele>3445.00</ele>
        <time>2018-09-08T20:19:16Z</time>
      </trkpt>
      <trkpt lat="-2.606958" lon="-78.782997">
        <ele>3445.00</ele>
        <time>2018-09-08T20:19:17Z</time>
      </trkpt>
      <trkpt lat="-2.606957" lon="-78.782906">
        <ele>3446.00</ele>
        <time>2018-09-08T20:19:18Z</time>
      </trkpt>
      <trkpt lat="-2.606964" lon="-78.782814">
        <ele>3446.00</ele>
        <time>2018-09-08T20:19:19Z</time>
      </trkpt>
      <trkpt lat="-2.606981" lon="-78.782722">
        <ele>3447.00</ele>
        <time>2018-09-08T20:19:20Z</time>
      </trkpt>
      <trkpt lat="-2.606995" lon="-78.782631">
        <ele>3447.00</ele>
        <time>2018-09-08T20:19:21Z</time>
      </trkpt>
      <trkpt lat="-2.607003" lon="-78.782555">
        <ele>3447.00</ele>
        <time>2018-09-08T20:19:22Z</time>
      </trkpt>
      <trkpt lat="-2.606974" lon="-78.782471">
        <ele>3447.00</ele>
        <time>2018-09-08T20:19:23Z</time>
      </trkpt>
      <trkpt lat="-2.606903" lon="-78.782379">
        <ele>3447.00</ele>
        <time>2018-09-08T20:19:24Z</time>
      </trkpt>
      <trkpt lat="-2.606823" lon="-78.782295">
        <ele>3447.00</ele>
        <time>2018-09-08T20:19:25Z</time>
      </trkpt>
      <trkpt lat="-2.606761" lon="-78.782211">
        <ele>3447.00</ele>
        <time>2018-09-08T20:19:26Z</time>
      </trkpt>
      <trkpt lat="-2.606725" lon="-78.782143">
        <ele>3447.00</ele>
        <time>2018-09-08T20:19:27Z</time>
      </trkpt>
      <trkpt lat="-2.606745" lon="-78.782043">
        <ele>3447.00</ele>
        <time>2018-09-08T20:19:28Z</time>
      </trkpt>
      <trkpt lat="-2.606807" lon="-78.781990">
        <ele>3447.00</ele>
        <time>2018-09-08T20:19:29Z</time>
      </trkpt>
      <trkpt lat="-2.606879" lon="-78.781998">
        <ele>3447.00</ele>
        <time>2018-09-08T20:19:30Z</time>
      </trkpt>
      <trkpt lat="-2.606958" lon="-78.782021">
        <ele>3447.00</ele>
        <time>2018-09-08T20:19:31Z</time>
      </trkpt>
      <trkpt lat="-2.607047" lon="-78.782021">
        <ele>3447.00</ele>
        <time>2018-09-08T20:19:32Z</time>
      </trkpt>
      <trkpt lat="-2.607128" lon="-78.781982">
        <ele>3447.00</ele>
        <time>2018-09-08T20:19:33Z</time>
      </trkpt>
      <trkpt lat="-2.607191" lon="-78.781937">
        <ele>3447.00</ele>
        <time>2018-09-08T20:19:34Z</time>
      </trkpt>
      <trkpt lat="-2.607212" lon="-78.781860">
        <ele>3447.00</ele>
        <time>2018-09-08T20:19:35Z</time>
      </trkpt>
      <trkpt lat="-2.607201" lon="-78.781761">
        <ele>3447.00</ele>
        <time>2018-09-08T20:19:36Z</time>
      </trkpt>
      <trkpt lat="-2.607225" lon="-78.781639">
        <ele>3448.00</ele>
        <time>2018-09-08T20:19:37Z</time>
      </trkpt>
      <trkpt lat="-2.607266" lon="-78.781517">
        <ele>3448.00</ele>
        <time>2018-09-08T20:19:38Z</time>
      </trkpt>
      <trkpt lat="-2.607336" lon="-78.781403">
        <ele>3449.00</ele>
        <time>2018-09-08T20:19:39Z</time>
      </trkpt>
      <trkpt lat="-2.607404" lon="-78.781296">
        <ele>3449.00</ele>
        <time>2018-09-08T20:19:40Z</time>
      </trkpt>
      <trkpt lat="-2.607459" lon="-78.781189">
        <ele>3450.00</ele>
        <time>2018-09-08T20:19:41Z</time>
      </trkpt>
      <trkpt lat="-2.607485" lon="-78.781075">
        <ele>3450.00</ele>
        <time>2018-09-08T20:19:42Z</time>
      </trkpt>
      <trkpt lat="-2.607489" lon="-78.780952">
        <ele>3450.00</ele>
        <time>2018-09-08T20:19:43Z</time>
      </trkpt>
      <trkpt lat="-2.607463" lon="-78.780815">
        <ele>3451.00</ele>
        <time>2018-09-08T20:19:44Z</time>
      </trkpt>
      <trkpt lat="-2.607436" lon="-78.780693">
        <ele>3451.00</ele>
        <time>2018-09-08T20:19:45Z</time>
      </trkpt>
      <trkpt lat="-2.607422" lon="-78.780594">
        <ele>3452.00</ele>
        <time>2018-09-08T20:19:46Z</time>
      </trkpt>
      <trkpt lat="-2.607430" lon="-78.780510">
        <ele>3452.00</ele>
        <time>2018-09-08T20:19:47Z</time>
      </trkpt>
      <trkpt lat="-2.607474" lon="-78.780426">
        <ele>3453.00</ele>
        <time>2018-09-08T20:19:48Z</time>
      </trkpt>
      <trkpt lat="-2.607527" lon="-78.780365">
        <ele>3453.00</ele>
        <time>2018-09-08T20:19:49Z</time>
      </trkpt>
      <trkpt lat="-2.607559" lon="-78.780319">
        <ele>3453.00</ele>
        <time>2018-09-08T20:19:50Z</time>
      </trkpt>
      <trkpt lat="-2.607544" lon="-78.780296">
        <ele>3453.00</ele>
        <time>2018-09-08T20:19:51Z</time>
      </trkpt>
      <trkpt lat="-2.607499" lon="-78.780273">
        <ele>3453.00</ele>
        <time>2018-09-08T20:19:52Z</time>
      </trkpt>
      <trkpt lat="-2.607445" lon="-78.780273">
        <ele>3453.00</ele>
        <time>2018-09-08T20:19:53Z</time>
      </trkpt>
      <trkpt lat="-2.607402" lon="-78.780273">
        <ele>3453.00</ele>
        <time>2018-09-08T20:19:54Z</time>
      </trkpt>
      <trkpt lat="-2.607402" lon="-78.780273">
        <ele>3453.00</ele>
        <time>2018-09-08T20:19:55Z</time>
      </trkpt>
      <trkpt lat="-2.607402" lon="-78.780273">
        <ele>3453.00</ele>
        <time>2018-09-08T20:19:56Z</time>
      </trkpt>
      <trkpt lat="-2.607402" lon="-78.780273">
        <ele>3453.00</ele>
        <time>2018-09-08T20:19:57Z</time>
      </trkpt>
      <trkpt lat="-2.607402" lon="-78.780273">
        <ele>3454.00</ele>
        <time>2018-09-08T20:19:58Z</time>
      </trkpt>
      <trkpt lat="-2.607402" lon="-78.780273">
        <ele>3454.00</ele>
        <time>2018-09-08T20:19:59Z</time>
      </trkpt>
      <trkpt lat="-2.607402" lon="-78.780273">
        <ele>3454.00</ele>
        <time>2018-09-08T20:20:00Z</time>
      </trkpt>
      <trkpt lat="-2.607402" lon="-78.780273">
        <ele>3454.00</ele>
        <time>2018-09-08T20:20:01Z</time>
      </trkpt>
      <trkpt lat="-2.607402" lon="-78.780273">
        <ele>3454.00</ele>
        <time>2018-09-08T20:20:02Z</time>
      </trkpt>
      <trkpt lat="-2.607402" lon="-78.780273">
        <ele>3454.00</ele>
        <time>2018-09-08T20:20:03Z</time>
      </trkpt>
      <trkpt lat="-2.607402" lon="-78.780273">
        <ele>3454.00</ele>
        <time>2018-09-08T20:20:04Z</time>
      </trkpt>
      <trkpt lat="-2.607402" lon="-78.780273">
        <ele>3454.00</ele>
        <time>2018-09-08T20:20:05Z</time>
      </trkpt>
      <trkpt lat="-2.607402" lon="-78.780273">
        <ele>3454.00</ele>
        <time>2018-09-08T20:20:06Z</time>
      </trkpt>
      <trkpt lat="-2.607402" lon="-78.780273">
        <ele>3454.00</ele>
        <time>2018-09-08T20:20:07Z</time>
      </trkpt>
      <trkpt lat="-2.607402" lon="-78.780273">
        <ele>3454.00</ele>
        <time>2018-09-08T20:20:08Z</time>
      </trkpt>
      <trkpt lat="-2.607402" lon="-78.780273">
        <ele>3454.00</ele>
        <time>2018-09-08T20:20:09Z</time>
      </trkpt>
      <trkpt lat="-2.607402" lon="-78.780273">
        <ele>3454.00</ele>
        <time>2018-09-08T20:20:10Z</time>
      </trkpt>
      <trkpt lat="-2.607402" lon="-78.780273">
        <ele>3454.00</ele>
        <time>2018-09-08T20:20:11Z</time>
      </trkpt>
      <trkpt lat="-2.607402" lon="-78.780273">
        <ele>3454.00</ele>
        <time>2018-09-08T20:20:12Z</time>
      </trkpt>
      <trkpt lat="-2.607402" lon="-78.780273">
        <ele>3454.00</ele>
        <time>2018-09-08T20:20:13Z</time>
      </trkpt>
      <trkpt lat="-2.607402" lon="-78.780273">
        <ele>3454.00</ele>
        <time>2018-09-08T20:20:14Z</time>
      </trkpt>
      <trkpt lat="-2.607402" lon="-78.780273">
        <ele>3454.00</ele>
        <time>2018-09-08T20:20:15Z</time>
      </trkpt>
      <trkpt lat="-2.607402" lon="-78.780273">
        <ele>3454.00</ele>
        <time>2018-09-08T20:20:16Z</time>
      </trkpt>
      <trkpt lat="-2.607402" lon="-78.780273">
        <ele>3454.00</ele>
        <time>2018-09-08T20:20:17Z</time>
      </trkpt>
      <trkpt lat="-2.607402" lon="-78.780273">
        <ele>3454.00</ele>
        <time>2018-09-08T20:20:18Z</time>
      </trkpt>
      <trkpt lat="-2.607402" lon="-78.780273">
        <ele>3454.00</ele>
        <time>2018-09-08T20:20:19Z</time>
      </trkpt>
      <trkpt lat="-2.607402" lon="-78.780273">
        <ele>3454.00</ele>
        <time>2018-09-08T20:20:20Z</time>
      </trkpt>
      <trkpt lat="-2.607402" lon="-78.780273">
        <ele>3454.00</ele>
        <time>2018-09-08T20:20:21Z</time>
      </trkpt>
      <trkpt lat="-2.607402" lon="-78.780273">
        <ele>3454.00</ele>
        <time>2018-09-08T20:20:22Z</time>
      </trkpt>
      <trkpt lat="-2.607402" lon="-78.780273">
        <ele>3454.00</ele>
        <time>2018-09-08T20:20:23Z</time>
      </trkpt>
      <trkpt lat="-2.607402" lon="-78.780273">
        <ele>3454.00</ele>
        <time>2018-09-08T20:20:24Z</time>
      </trkpt>
      <trkpt lat="-2.607402" lon="-78.780273">
        <ele>3454.00</ele>
        <time>2018-09-08T20:20:25Z</time>
      </trkpt>
      <trkpt lat="-2.607402" lon="-78.780273">
        <ele>3454.00</ele>
        <time>2018-09-08T20:20:26Z</time>
      </trkpt>
      <trkpt lat="-2.607402" lon="-78.780273">
        <ele>3454.00</ele>
        <time>2018-09-08T20:20:27Z</time>
      </trkpt>
      <trkpt lat="-2.607402" lon="-78.780273">
        <ele>3454.00</ele>
        <time>2018-09-08T20:20:28Z</time>
      </trkpt>
      <trkpt lat="-2.607402" lon="-78.780273">
        <ele>3454.00</ele>
        <time>2018-09-08T20:20:29Z</time>
      </trkpt>
      <trkpt lat="-2.607402" lon="-78.780273">
        <ele>3454.00</ele>
        <time>2018-09-08T20:20:30Z</time>
      </trkpt>
      <trkpt lat="-2.607402" lon="-78.780273">
        <ele>3454.00</ele>
        <time>2018-09-08T20:20:31Z</time>
      </trkpt>
      <trkpt lat="-2.607402" lon="-78.780273">
        <ele>3454.00</ele>
        <time>2018-09-08T20:20:32Z</time>
      </trkpt>
      <trkpt lat="-2.607402" lon="-78.780273">
        <ele>3454.00</ele>
        <time>2018-09-08T20:20:33Z</time>
      </trkpt>
      <trkpt lat="-2.607402" lon="-78.780273">
        <ele>3454.00</ele>
        <time>2018-09-08T20:20:34Z</time>
      </trkpt>
      <trkpt lat="-2.607402" lon="-78.780273">
        <ele>3454.00</ele>
        <time>2018-09-08T20:20:35Z</time>
      </trkpt>
      <trkpt lat="-2.607402" lon="-78.780273">
        <ele>3454.00</ele>
        <time>2018-09-08T20:20:36Z</time>
      </trkpt>
      <trkpt lat="-2.607402" lon="-78.780273">
        <ele>3454.00</ele>
        <time>2018-09-08T20:20:37Z</time>
      </trkpt>
      <trkpt lat="-2.607365" lon="-78.780312">
        <ele>3454.00</ele>
        <time>2018-09-08T20:20:38Z</time>
      </trkpt>
      <trkpt lat="-2.607365" lon="-78.780312">
        <ele>3454.00</ele>
        <time>2018-09-08T20:20:39Z</time>
      </trkpt>
      <trkpt lat="-2.607365" lon="-78.780312">
        <ele>3454.00</ele>
        <time>2018-09-08T20:20:40Z</time>
      </trkpt>
      <trkpt lat="-2.607365" lon="-78.780312">
        <ele>3454.00</ele>
        <time>2018-09-08T20:20:41Z</time>
      </trkpt>
      <trkpt lat="-2.607365" lon="-78.780312">
        <ele>3454.00</ele>
        <time>2018-09-08T20:20:42Z</time>
      </trkpt>
      <trkpt lat="-2.607365" lon="-78.780312">
        <ele>3454.00</ele>
        <time>2018-09-08T20:20:43Z</time>
      </trkpt>
      <trkpt lat="-2.607365" lon="-78.780312">
        <ele>3454.00</ele>
        <time>2018-09-08T20:20:44Z</time>
      </trkpt>
      <trkpt lat="-2.607365" lon="-78.780312">
        <ele>3454.00</ele>
        <time>2018-09-08T20:20:45Z</time>
      </trkpt>
      <trkpt lat="-2.607365" lon="-78.780312">
        <ele>3455.00</ele>
        <time>2018-09-08T20:20:46Z</time>
      </trkpt>
      <trkpt lat="-2.607365" lon="-78.780312">
        <ele>3455.00</ele>
        <time>2018-09-08T20:20:47Z</time>
      </trkpt>
      <trkpt lat="-2.607365" lon="-78.780312">
        <ele>3455.00</ele>
        <time>2018-09-08T20:20:48Z</time>
      </trkpt>
      <trkpt lat="-2.607365" lon="-78.780312">
        <ele>3455.00</ele>
        <time>2018-09-08T20:20:49Z</time>
      </trkpt>
      <trkpt lat="-2.607365" lon="-78.780312">
        <ele>3455.00</ele>
        <time>2018-09-08T20:20:50Z</time>
      </trkpt>
      <trkpt lat="-2.607365" lon="-78.780312">
        <ele>3455.00</ele>
        <time>2018-09-08T20:20:51Z</time>
      </trkpt>
      <trkpt lat="-2.607365" lon="-78.780312">
        <ele>3455.00</ele>
        <time>2018-09-08T20:20:52Z</time>
      </trkpt>
      <trkpt lat="-2.607365" lon="-78.780312">
        <ele>3455.00</ele>
        <time>2018-09-08T20:20:53Z</time>
      </trkpt>
      <trkpt lat="-2.607365" lon="-78.780312">
        <ele>3455.00</ele>
        <time>2018-09-08T20:20:54Z</time>
      </trkpt>
      <trkpt lat="-2.607365" lon="-78.780312">
        <ele>3455.00</ele>
        <time>2018-09-08T20:20:55Z</time>
      </trkpt>
      <trkpt lat="-2.607365" lon="-78.780312">
        <ele>3455.00</ele>
        <time>2018-09-08T20:20:56Z</time>
      </trkpt>
      <trkpt lat="-2.607365" lon="-78.780312">
        <ele>3455.00</ele>
        <time>2018-09-08T20:20:57Z</time>
      </trkpt>
      <trkpt lat="-2.607365" lon="-78.780312">
        <ele>3455.00</ele>
        <time>2018-09-08T20:20:58Z</time>
      </trkpt>
      <trkpt lat="-2.607365" lon="-78.780312">
        <ele>3455.00</ele>
        <time>2018-09-08T20:20:59Z</time>
      </trkpt>
      <trkpt lat="-2.607365" lon="-78.780312">
        <ele>3455.00</ele>
        <time>2018-09-08T20:21:00Z</time>
      </trkpt>
      <trkpt lat="-2.607365" lon="-78.780312">
        <ele>3455.00</ele>
        <time>2018-09-08T20:21:01Z</time>
      </trkpt>
      <trkpt lat="-2.607365" lon="-78.780312">
        <ele>3455.00</ele>
        <time>2018-09-08T20:21:02Z</time>
      </trkpt>
      <trkpt lat="-2.607365" lon="-78.780312">
        <ele>3455.00</ele>
        <time>2018-09-08T20:21:03Z</time>
      </trkpt>
      <trkpt lat="-2.607365" lon="-78.780312">
        <ele>3455.00</ele>
        <time>2018-09-08T20:21:04Z</time>
      </trkpt>
      <trkpt lat="-2.607365" lon="-78.780312">
        <ele>3455.00</ele>
        <time>2018-09-08T20:21:05Z</time>
      </trkpt>
      <trkpt lat="-2.607365" lon="-78.780312">
        <ele>3455.00</ele>
        <time>2018-09-08T20:21:06Z</time>
      </trkpt>
      <trkpt lat="-2.607365" lon="-78.780312">
        <ele>3455.00</ele>
        <time>2018-09-08T20:21:07Z</time>
      </trkpt>
      <trkpt lat="-2.607365" lon="-78.780312">
        <ele>3455.00</ele>
        <time>2018-09-08T20:21:08Z</time>
      </trkpt>
      <trkpt lat="-2.607365" lon="-78.780312">
        <ele>3455.00</ele>
        <time>2018-09-08T20:21:09Z</time>
      </trkpt>
      <trkpt lat="-2.607365" lon="-78.780312">
        <ele>3455.00</ele>
        <time>2018-09-08T20:21:10Z</time>
      </trkpt>
      <trkpt lat="-2.607365" lon="-78.780312">
        <ele>3456.00</ele>
        <time>2018-09-08T20:21:11Z</time>
      </trkpt>
      <trkpt lat="-2.607365" lon="-78.780312">
        <ele>3456.00</ele>
        <time>2018-09-08T20:21:12Z</time>
      </trkpt>
      <trkpt lat="-2.607365" lon="-78.780312">
        <ele>3456.00</ele>
        <time>2018-09-08T20:21:13Z</time>
      </trkpt>
      <trkpt lat="-2.607365" lon="-78.780312">
        <ele>3456.00</ele>
        <time>2018-09-08T20:21:14Z</time>
      </trkpt>
      <trkpt lat="-2.607365" lon="-78.780312">
        <ele>3456.00</ele>
        <time>2018-09-08T20:21:15Z</time>
      </trkpt>
      <trkpt lat="-2.607365" lon="-78.780312">
        <ele>3456.00</ele>
        <time>2018-09-08T20:21:16Z</time>
      </trkpt>
      <trkpt lat="-2.607365" lon="-78.780312">
        <ele>3456.00</ele>
        <time>2018-09-08T20:21:17Z</time>
      </trkpt>
      <trkpt lat="-2.607365" lon="-78.780312">
        <ele>3456.00</ele>
        <time>2018-09-08T20:21:18Z</time>
      </trkpt>
      <trkpt lat="-2.607378" lon="-78.780304">
        <ele>3456.00</ele>
        <time>2018-09-08T20:21:19Z</time>
      </trkpt>
      <trkpt lat="-2.607379" lon="-78.780304">
        <ele>3456.00</ele>
        <time>2018-09-08T20:21:20Z</time>
      </trkpt>
      <trkpt lat="-2.607381" lon="-78.780304">
        <ele>3456.00</ele>
        <time>2018-09-08T20:21:21Z</time>
      </trkpt>
      <trkpt lat="-2.607380" lon="-78.780304">
        <ele>3456.00</ele>
        <time>2018-09-08T20:21:22Z</time>
      </trkpt>
      <trkpt lat="-2.607380" lon="-78.780296">
        <ele>3456.00</ele>
        <time>2018-09-08T20:21:23Z</time>
      </trkpt>
      <trkpt lat="-2.607380" lon="-78.780296">
        <ele>3456.00</ele>
        <time>2018-09-08T20:21:24Z</time>
      </trkpt>
      <trkpt lat="-2.607380" lon="-78.780296">
        <ele>3456.00</ele>
        <time>2018-09-08T20:21:25Z</time>
      </trkpt>
      <trkpt lat="-2.607381" lon="-78.780304">
        <ele>3456.00</ele>
        <time>2018-09-08T20:21:26Z</time>
      </trkpt>
      <trkpt lat="-2.607381" lon="-78.780304">
        <ele>3456.00</ele>
        <time>2018-09-08T20:21:27Z</time>
      </trkpt>
      <trkpt lat="-2.607381" lon="-78.780304">
        <ele>3456.00</ele>
        <time>2018-09-08T20:21:28Z</time>
      </trkpt>
      <trkpt lat="-2.607381" lon="-78.780304">
        <ele>3456.00</ele>
        <time>2018-09-08T20:21:29Z</time>
      </trkpt>
      <trkpt lat="-2.607381" lon="-78.780304">
        <ele>3456.00</ele>
        <time>2018-09-08T20:21:30Z</time>
      </trkpt>
      <trkpt lat="-2.607382" lon="-78.780304">
        <ele>3457.00</ele>
        <time>2018-09-08T20:21:31Z</time>
      </trkpt>
      <trkpt lat="-2.607383" lon="-78.780296">
        <ele>3457.00</ele>
        <time>2018-09-08T20:21:32Z</time>
      </trkpt>
      <trkpt lat="-2.607384" lon="-78.780296">
        <ele>3457.00</ele>
        <time>2018-09-08T20:21:33Z</time>
      </trkpt>
      <trkpt lat="-2.607391" lon="-78.780281">
        <ele>3457.00</ele>
        <time>2018-09-08T20:21:34Z</time>
      </trkpt>
      <trkpt lat="-2.607391" lon="-78.780281">
        <ele>3457.00</ele>
        <time>2018-09-08T20:21:35Z</time>
      </trkpt>
      <trkpt lat="-2.607391" lon="-78.780273">
        <ele>3457.00</ele>
        <time>2018-09-08T20:21:36Z</time>
      </trkpt>
      <trkpt lat="-2.607390" lon="-78.780273">
        <ele>3457.00</ele>
        <time>2018-09-08T20:21:37Z</time>
      </trkpt>
      <trkpt lat="-2.607391" lon="-78.780273">
        <ele>3457.00</ele>
        <time>2018-09-08T20:21:38Z</time>
      </trkpt>
      <trkpt lat="-2.607391" lon="-78.780273">
        <ele>3457.00</ele>
        <time>2018-09-08T20:21:39Z</time>
      </trkpt>
      <trkpt lat="-2.607395" lon="-78.780266">
        <ele>3457.00</ele>
        <time>2018-09-08T20:21:40Z</time>
      </trkpt>
      <trkpt lat="-2.607400" lon="-78.780266">
        <ele>3457.00</ele>
        <time>2018-09-08T20:21:41Z</time>
      </trkpt>
      <trkpt lat="-2.607400" lon="-78.780258">
        <ele>3458.00</ele>
        <time>2018-09-08T20:21:42Z</time>
      </trkpt>
      <trkpt lat="-2.607399" lon="-78.780258">
        <ele>3458.00</ele>
        <time>2018-09-08T20:21:43Z</time>
      </trkpt>
      <trkpt lat="-2.607393" lon="-78.780266">
        <ele>3458.00</ele>
        <time>2018-09-08T20:21:44Z</time>
      </trkpt>
      <trkpt lat="-2.607383" lon="-78.780273">
        <ele>3458.00</ele>
        <time>2018-09-08T20:21:45Z</time>
      </trkpt>
      <trkpt lat="-2.607381" lon="-78.780281">
        <ele>3458.00</ele>
        <time>2018-09-08T20:21:46Z</time>
      </trkpt>
      <trkpt lat="-2.607379" lon="-78.780273">
        <ele>3458.00</ele>
        <time>2018-09-08T20:21:47Z</time>
      </trkpt>
      <trkpt lat="-2.607374" lon="-78.780266">
        <ele>3458.00</ele>
        <time>2018-09-08T20:21:48Z</time>
      </trkpt>
      <trkpt lat="-2.607374" lon="-78.780266">
        <ele>3458.00</ele>
        <time>2018-09-08T20:21:49Z</time>
      </trkpt>
      <trkpt lat="-2.607384" lon="-78.780273">
        <ele>3458.00</ele>
        <time>2018-09-08T20:21:50Z</time>
      </trkpt>
      <trkpt lat="-2.607383" lon="-78.780273">
        <ele>3458.00</ele>
        <time>2018-09-08T20:21:51Z</time>
      </trkpt>
      <trkpt lat="-2.607379" lon="-78.780296">
        <ele>3458.00</ele>
        <time>2018-09-08T20:21:52Z</time>
      </trkpt>
      <trkpt lat="-2.607379" lon="-78.780296">
        <ele>3458.00</ele>
        <time>2018-09-08T20:21:53Z</time>
      </trkpt>
      <trkpt lat="-2.607379" lon="-78.780296">
        <ele>3458.00</ele>
        <time>2018-09-08T20:21:54Z</time>
      </trkpt>
      <trkpt lat="-2.607395" lon="-78.780281">
        <ele>3459.00</ele>
        <time>2018-09-08T20:21:55Z</time>
      </trkpt>
      <trkpt lat="-2.607403" lon="-78.780281">
        <ele>3459.00</ele>
        <time>2018-09-08T20:21:56Z</time>
      </trkpt>
      <trkpt lat="-2.607402" lon="-78.780273">
        <ele>3459.00</ele>
        <time>2018-09-08T20:21:57Z</time>
      </trkpt>
      <trkpt lat="-2.607396" lon="-78.780281">
        <ele>3459.00</ele>
        <time>2018-09-08T20:21:58Z</time>
      </trkpt>
      <trkpt lat="-2.607393" lon="-78.780281">
        <ele>3459.00</ele>
        <time>2018-09-08T20:21:59Z</time>
      </trkpt>
      <trkpt lat="-2.607392" lon="-78.780281">
        <ele>3459.00</ele>
        <time>2018-09-08T20:22:00Z</time>
      </trkpt>
      <trkpt lat="-2.607392" lon="-78.780281">
        <ele>3459.00</ele>
        <time>2018-09-08T20:22:01Z</time>
      </trkpt>
      <trkpt lat="-2.607392" lon="-78.780281">
        <ele>3459.00</ele>
        <time>2018-09-08T20:22:02Z</time>
      </trkpt>
      <trkpt lat="-2.607392" lon="-78.780281">
        <ele>3459.00</ele>
        <time>2018-09-08T20:22:03Z</time>
      </trkpt>
      <trkpt lat="-2.607392" lon="-78.780281">
        <ele>3459.00</ele>
        <time>2018-09-08T20:22:04Z</time>
      </trkpt>
      <trkpt lat="-2.607392" lon="-78.780281">
        <ele>3459.00</ele>
        <time>2018-09-08T20:22:05Z</time>
      </trkpt>
      <trkpt lat="-2.607392" lon="-78.780281">
        <ele>3459.00</ele>
        <time>2018-09-08T20:22:06Z</time>
      </trkpt>
      <trkpt lat="-2.607392" lon="-78.780296">
        <ele>3459.00</ele>
        <time>2018-09-08T20:22:07Z</time>
      </trkpt>
      <trkpt lat="-2.607391" lon="-78.780296">
        <ele>3459.00</ele>
        <time>2018-09-08T20:22:08Z</time>
      </trkpt>
      <trkpt lat="-2.607391" lon="-78.780296">
        <ele>3459.00</ele>
        <time>2018-09-08T20:22:09Z</time>
      </trkpt>
      <trkpt lat="-2.607391" lon="-78.780296">
        <ele>3459.00</ele>
        <time>2018-09-08T20:22:10Z</time>
      </trkpt>
      <trkpt lat="-2.607391" lon="-78.780296">
        <ele>3459.00</ele>
        <time>2018-09-08T20:22:11Z</time>
      </trkpt>
      <trkpt lat="-2.607391" lon="-78.780296">
        <ele>3459.00</ele>
        <time>2018-09-08T20:22:12Z</time>
      </trkpt>
      <trkpt lat="-2.607391" lon="-78.780296">
        <ele>3459.00</ele>
        <time>2018-09-08T20:22:13Z</time>
      </trkpt>
      <trkpt lat="-2.607391" lon="-78.780296">
        <ele>3459.00</ele>
        <time>2018-09-08T20:22:14Z</time>
      </trkpt>
      <trkpt lat="-2.607390" lon="-78.780296">
        <ele>3459.00</ele>
        <time>2018-09-08T20:22:15Z</time>
      </trkpt>
      <trkpt lat="-2.607388" lon="-78.780296">
        <ele>3459.00</ele>
        <time>2018-09-08T20:22:16Z</time>
      </trkpt>
      <trkpt lat="-2.607387" lon="-78.780304">
        <ele>3459.00</ele>
        <time>2018-09-08T20:22:17Z</time>
      </trkpt>
      <trkpt lat="-2.607396" lon="-78.780296">
        <ele>3459.00</ele>
        <time>2018-09-08T20:22:18Z</time>
      </trkpt>
      <trkpt lat="-2.607403" lon="-78.780296">
        <ele>3459.00</ele>
        <time>2018-09-08T20:22:19Z</time>
      </trkpt>
      <trkpt lat="-2.607405" lon="-78.780296">
        <ele>3459.00</ele>
        <time>2018-09-08T20:22:20Z</time>
      </trkpt>
      <trkpt lat="-2.607407" lon="-78.780296">
        <ele>3459.00</ele>
        <time>2018-09-08T20:22:21Z</time>
      </trkpt>
      <trkpt lat="-2.607408" lon="-78.780296">
        <ele>3459.00</ele>
        <time>2018-09-08T20:22:22Z</time>
      </trkpt>
      <trkpt lat="-2.607409" lon="-78.780296">
        <ele>3459.00</ele>
        <time>2018-09-08T20:22:23Z</time>
      </trkpt>
      <trkpt lat="-2.607409" lon="-78.780296">
        <ele>3459.00</ele>
        <time>2018-09-08T20:22:24Z</time>
      </trkpt>
      <trkpt lat="-2.607410" lon="-78.780296">
        <ele>3459.00</ele>
        <time>2018-09-08T20:22:25Z</time>
      </trkpt>
      <trkpt lat="-2.607410" lon="-78.780296">
        <ele>3459.00</ele>
        <time>2018-09-08T20:22:26Z</time>
      </trkpt>
      <trkpt lat="-2.607411" lon="-78.780296">
        <ele>3459.00</ele>
        <time>2018-09-08T20:22:27Z</time>
      </trkpt>
      <trkpt lat="-2.607411" lon="-78.780296">
        <ele>3459.00</ele>
        <time>2018-09-08T20:22:28Z</time>
      </trkpt>
      <trkpt lat="-2.607411" lon="-78.780296">
        <ele>3459.00</ele>
        <time>2018-09-08T20:22:29Z</time>
      </trkpt>
      <trkpt lat="-2.607411" lon="-78.780296">
        <ele>3459.00</ele>
        <time>2018-09-08T20:22:30Z</time>
      </trkpt>
      <trkpt lat="-2.607412" lon="-78.780296">
        <ele>3459.00</ele>
        <time>2018-09-08T20:22:31Z</time>
      </trkpt>
      <trkpt lat="-2.607412" lon="-78.780296">
        <ele>3459.00</ele>
        <time>2018-09-08T20:22:32Z</time>
      </trkpt>
      <trkpt lat="-2.607411" lon="-78.780296">
        <ele>3459.00</ele>
        <time>2018-09-08T20:22:33Z</time>
      </trkpt>
      <trkpt lat="-2.607411" lon="-78.780296">
        <ele>3459.00</ele>
        <time>2018-09-08T20:22:34Z</time>
      </trkpt>
      <trkpt lat="-2.607411" lon="-78.780296">
        <ele>3459.00</ele>
        <time>2018-09-08T20:22:35Z</time>
      </trkpt>
      <trkpt lat="-2.607412" lon="-78.780281">
        <ele>3459.00</ele>
        <time>2018-09-08T20:22:36Z</time>
      </trkpt>
      <trkpt lat="-2.607412" lon="-78.780281">
        <ele>3459.00</ele>
        <time>2018-09-08T20:22:37Z</time>
      </trkpt>
      <trkpt lat="-2.607412" lon="-78.780281">
        <ele>3459.00</ele>
        <time>2018-09-08T20:22:38Z</time>
      </trkpt>
      <trkpt lat="-2.607412" lon="-78.780281">
        <ele>3460.00</ele>
        <time>2018-09-08T20:22:39Z</time>
      </trkpt>
      <trkpt lat="-2.607417" lon="-78.780281">
        <ele>3460.00</ele>
        <time>2018-09-08T20:22:40Z</time>
      </trkpt>
      <trkpt lat="-2.607421" lon="-78.780281">
        <ele>3460.00</ele>
        <time>2018-09-08T20:22:41Z</time>
      </trkpt>
      <trkpt lat="-2.607423" lon="-78.780281">
        <ele>3460.00</ele>
        <time>2018-09-08T20:22:42Z</time>
      </trkpt>
      <trkpt lat="-2.607425" lon="-78.780281">
        <ele>3460.00</ele>
        <time>2018-09-08T20:22:43Z</time>
      </trkpt>
      <trkpt lat="-2.607430" lon="-78.780296">
        <ele>3460.00</ele>
        <time>2018-09-08T20:22:44Z</time>
      </trkpt>
      <trkpt lat="-2.607427" lon="-78.780312">
        <ele>3460.00</ele>
        <time>2018-09-08T20:22:45Z</time>
      </trkpt>
      <trkpt lat="-2.607424" lon="-78.780319">
        <ele>3460.00</ele>
        <time>2018-09-08T20:22:46Z</time>
      </trkpt>
      <trkpt lat="-2.607423" lon="-78.780319">
        <ele>3460.00</ele>
        <time>2018-09-08T20:22:47Z</time>
      </trkpt>
      <trkpt lat="-2.607421" lon="-78.780327">
        <ele>3460.00</ele>
        <time>2018-09-08T20:22:48Z</time>
      </trkpt>
      <trkpt lat="-2.607419" lon="-78.780327">
        <ele>3460.00</ele>
        <time>2018-09-08T20:22:49Z</time>
      </trkpt>
      <trkpt lat="-2.607416" lon="-78.780327">
        <ele>3460.00</ele>
        <time>2018-09-08T20:22:50Z</time>
      </trkpt>
      <trkpt lat="-2.607408" lon="-78.780327">
        <ele>3460.00</ele>
        <time>2018-09-08T20:22:51Z</time>
      </trkpt>
      <trkpt lat="-2.607404" lon="-78.780327">
        <ele>3460.00</ele>
        <time>2018-09-08T20:22:52Z</time>
      </trkpt>
      <trkpt lat="-2.607398" lon="-78.780327">
        <ele>3460.00</ele>
        <time>2018-09-08T20:22:53Z</time>
      </trkpt>
      <trkpt lat="-2.607398" lon="-78.780327">
        <ele>3460.00</ele>
        <time>2018-09-08T20:22:54Z</time>
      </trkpt>
      <trkpt lat="-2.607398" lon="-78.780327">
        <ele>3460.00</ele>
        <time>2018-09-08T20:22:55Z</time>
      </trkpt>
      <trkpt lat="-2.607397" lon="-78.780327">
        <ele>3460.00</ele>
        <time>2018-09-08T20:22:56Z</time>
      </trkpt>
      <trkpt lat="-2.607397" lon="-78.780327">
        <ele>3460.00</ele>
        <time>2018-09-08T20:22:57Z</time>
      </trkpt>
      <trkpt lat="-2.607399" lon="-78.780327">
        <ele>3460.00</ele>
        <time>2018-09-08T20:22:58Z</time>
      </trkpt>
      <trkpt lat="-2.607399" lon="-78.780327">
        <ele>3460.00</ele>
        <time>2018-09-08T20:22:59Z</time>
      </trkpt>
      <trkpt lat="-2.607398" lon="-78.780327">
        <ele>3460.00</ele>
        <time>2018-09-08T20:23:00Z</time>
      </trkpt>
      <trkpt lat="-2.607398" lon="-78.780327">
        <ele>3460.00</ele>
        <time>2018-09-08T20:23:01Z</time>
      </trkpt>
      <trkpt lat="-2.607398" lon="-78.780327">
        <ele>3460.00</ele>
        <time>2018-09-08T20:23:02Z</time>
      </trkpt>
      <trkpt lat="-2.607398" lon="-78.780327">
        <ele>3460.00</ele>
        <time>2018-09-08T20:23:03Z</time>
      </trkpt>
      <trkpt lat="-2.607399" lon="-78.780327">
        <ele>3460.00</ele>
        <time>2018-09-08T20:23:04Z</time>
      </trkpt>
      <trkpt lat="-2.607399" lon="-78.780327">
        <ele>3460.00</ele>
        <time>2018-09-08T20:23:05Z</time>
      </trkpt>
      <trkpt lat="-2.607398" lon="-78.780327">
        <ele>3460.00</ele>
        <time>2018-09-08T20:23:06Z</time>
      </trkpt>
      <trkpt lat="-2.607400" lon="-78.780327">
        <ele>3460.00</ele>
        <time>2018-09-08T20:23:07Z</time>
      </trkpt>
      <trkpt lat="-2.607398" lon="-78.780327">
        <ele>3460.00</ele>
        <time>2018-09-08T20:23:08Z</time>
      </trkpt>
      <trkpt lat="-2.607391" lon="-78.780327">
        <ele>3460.00</ele>
        <time>2018-09-08T20:23:09Z</time>
      </trkpt>
      <trkpt lat="-2.607389" lon="-78.780327">
        <ele>3461.00</ele>
        <time>2018-09-08T20:23:10Z</time>
      </trkpt>
      <trkpt lat="-2.607387" lon="-78.780327">
        <ele>3461.00</ele>
        <time>2018-09-08T20:23:11Z</time>
      </trkpt>
      <trkpt lat="-2.607387" lon="-78.780327">
        <ele>3461.00</ele>
        <time>2018-09-08T20:23:12Z</time>
      </trkpt>
      <trkpt lat="-2.607385" lon="-78.780327">
        <ele>3461.00</ele>
        <time>2018-09-08T20:23:13Z</time>
      </trkpt>
      <trkpt lat="-2.607383" lon="-78.780327">
        <ele>3461.00</ele>
        <time>2018-09-08T20:23:14Z</time>
      </trkpt>
      <trkpt lat="-2.607382" lon="-78.780327">
        <ele>3461.00</ele>
        <time>2018-09-08T20:23:15Z</time>
      </trkpt>
      <trkpt lat="-2.607379" lon="-78.780334">
        <ele>3461.00</ele>
        <time>2018-09-08T20:23:16Z</time>
      </trkpt>
      <trkpt lat="-2.607381" lon="-78.780327">
        <ele>3461.00</ele>
        <time>2018-09-08T20:23:17Z</time>
      </trkpt>
      <trkpt lat="-2.607380" lon="-78.780327">
        <ele>3461.00</ele>
        <time>2018-09-08T20:23:18Z</time>
      </trkpt>
      <trkpt lat="-2.607381" lon="-78.780327">
        <ele>3461.00</ele>
        <time>2018-09-08T20:23:19Z</time>
      </trkpt>
      <trkpt lat="-2.607381" lon="-78.780327">
        <ele>3461.00</ele>
        <time>2018-09-08T20:23:20Z</time>
      </trkpt>
      <trkpt lat="-2.607380" lon="-78.780327">
        <ele>3461.00</ele>
        <time>2018-09-08T20:23:21Z</time>
      </trkpt>
      <trkpt lat="-2.607380" lon="-78.780327">
        <ele>3461.00</ele>
        <time>2018-09-08T20:23:22Z</time>
      </trkpt>
      <trkpt lat="-2.607379" lon="-78.780327">
        <ele>3461.00</ele>
        <time>2018-09-08T20:23:23Z</time>
      </trkpt>
      <trkpt lat="-2.607379" lon="-78.780327">
        <ele>3461.00</ele>
        <time>2018-09-08T20:23:24Z</time>
      </trkpt>
      <trkpt lat="-2.607379" lon="-78.780327">
        <ele>3461.00</ele>
        <time>2018-09-08T20:23:25Z</time>
      </trkpt>
      <trkpt lat="-2.607379" lon="-78.780327">
        <ele>3461.00</ele>
        <time>2018-09-08T20:23:26Z</time>
      </trkpt>
      <trkpt lat="-2.607378" lon="-78.780327">
        <ele>3461.00</ele>
        <time>2018-09-08T20:23:27Z</time>
      </trkpt>
      <trkpt lat="-2.607377" lon="-78.780327">
        <ele>3461.00</ele>
        <time>2018-09-08T20:23:28Z</time>
      </trkpt>
      <trkpt lat="-2.607377" lon="-78.780327">
        <ele>3461.00</ele>
        <time>2018-09-08T20:23:29Z</time>
      </trkpt>
      <trkpt lat="-2.607377" lon="-78.780327">
        <ele>3461.00</ele>
        <time>2018-09-08T20:23:30Z</time>
      </trkpt>
      <trkpt lat="-2.607376" lon="-78.780327">
        <ele>3461.00</ele>
        <time>2018-09-08T20:23:31Z</time>
      </trkpt>
      <trkpt lat="-2.607376" lon="-78.780327">
        <ele>3461.00</ele>
        <time>2018-09-08T20:23:32Z</time>
      </trkpt>
      <trkpt lat="-2.607375" lon="-78.780327">
        <ele>3461.00</ele>
        <time>2018-09-08T20:23:33Z</time>
      </trkpt>
      <trkpt lat="-2.607375" lon="-78.780327">
        <ele>3461.00</ele>
        <time>2018-09-08T20:23:34Z</time>
      </trkpt>
      <trkpt lat="-2.607375" lon="-78.780327">
        <ele>3461.00</ele>
        <time>2018-09-08T20:23:35Z</time>
      </trkpt>
      <trkpt lat="-2.607374" lon="-78.780327">
        <ele>3461.00</ele>
        <time>2018-09-08T20:23:36Z</time>
      </trkpt>
      <trkpt lat="-2.607374" lon="-78.780327">
        <ele>3461.00</ele>
        <time>2018-09-08T20:23:37Z</time>
      </trkpt>
      <trkpt lat="-2.607374" lon="-78.780327">
        <ele>3461.00</ele>
        <time>2018-09-08T20:23:38Z</time>
      </trkpt>
      <trkpt lat="-2.607374" lon="-78.780327">
        <ele>3461.00</ele>
        <time>2018-09-08T20:23:39Z</time>
      </trkpt>
      <trkpt lat="-2.607377" lon="-78.780327">
        <ele>3461.00</ele>
        <time>2018-09-08T20:23:40Z</time>
      </trkpt>
      <trkpt lat="-2.607377" lon="-78.780327">
        <ele>3461.00</ele>
        <time>2018-09-08T20:23:41Z</time>
      </trkpt>
      <trkpt lat="-2.607375" lon="-78.780327">
        <ele>3461.00</ele>
        <time>2018-09-08T20:23:42Z</time>
      </trkpt>
      <trkpt lat="-2.607368" lon="-78.780319">
        <ele>3461.00</ele>
        <time>2018-09-08T20:23:43Z</time>
      </trkpt>
      <trkpt lat="-2.607364" lon="-78.780319">
        <ele>3461.00</ele>
        <time>2018-09-08T20:23:44Z</time>
      </trkpt>
      <trkpt lat="-2.607371" lon="-78.780312">
        <ele>3461.00</ele>
        <time>2018-09-08T20:23:45Z</time>
      </trkpt>
      <trkpt lat="-2.607376" lon="-78.780312">
        <ele>3461.00</ele>
        <time>2018-09-08T20:23:46Z</time>
      </trkpt>
      <trkpt lat="-2.607376" lon="-78.780312">
        <ele>3461.00</ele>
        <time>2018-09-08T20:23:47Z</time>
      </trkpt>
      <trkpt lat="-2.607376" lon="-78.780312">
        <ele>3461.00</ele>
        <time>2018-09-08T20:23:48Z</time>
      </trkpt>
      <trkpt lat="-2.607376" lon="-78.780312">
        <ele>3461.00</ele>
        <time>2018-09-08T20:23:49Z</time>
      </trkpt>
      <trkpt lat="-2.607376" lon="-78.780312">
        <ele>3461.00</ele>
        <time>2018-09-08T20:23:50Z</time>
      </trkpt>
      <trkpt lat="-2.607376" lon="-78.780312">
        <ele>3461.00</ele>
        <time>2018-09-08T20:23:51Z</time>
      </trkpt>
      <trkpt lat="-2.607376" lon="-78.780312">
        <ele>3461.00</ele>
        <time>2018-09-08T20:23:52Z</time>
      </trkpt>
      <trkpt lat="-2.607376" lon="-78.780312">
        <ele>3461.00</ele>
        <time>2018-09-08T20:23:53Z</time>
      </trkpt>
      <trkpt lat="-2.607377" lon="-78.780312">
        <ele>3461.00</ele>
        <time>2018-09-08T20:23:54Z</time>
      </trkpt>
      <trkpt lat="-2.607376" lon="-78.780312">
        <ele>3461.00</ele>
        <time>2018-09-08T20:23:55Z</time>
      </trkpt>
      <trkpt lat="-2.607374" lon="-78.780304">
        <ele>3461.00</ele>
        <time>2018-09-08T20:23:56Z</time>
      </trkpt>
      <trkpt lat="-2.607374" lon="-78.780304">
        <ele>3461.00</ele>
        <time>2018-09-08T20:23:57Z</time>
      </trkpt>
      <trkpt lat="-2.607377" lon="-78.780304">
        <ele>3461.00</ele>
        <time>2018-09-08T20:23:58Z</time>
      </trkpt>
      <trkpt lat="-2.607375" lon="-78.780304">
        <ele>3461.00</ele>
        <time>2018-09-08T20:23:59Z</time>
      </trkpt>
      <trkpt lat="-2.607376" lon="-78.780304">
        <ele>3461.00</ele>
        <time>2018-09-08T20:24:00Z</time>
      </trkpt>
      <trkpt lat="-2.607376" lon="-78.780304">
        <ele>3461.00</ele>
        <time>2018-09-08T20:24:01Z</time>
      </trkpt>
      <trkpt lat="-2.607375" lon="-78.780304">
        <ele>3461.00</ele>
        <time>2018-09-08T20:24:02Z</time>
      </trkpt>
      <trkpt lat="-2.607375" lon="-78.780304">
        <ele>3461.00</ele>
        <time>2018-09-08T20:24:03Z</time>
      </trkpt>
      <trkpt lat="-2.607375" lon="-78.780304">
        <ele>3461.00</ele>
        <time>2018-09-08T20:24:04Z</time>
      </trkpt>
      <trkpt lat="-2.607375" lon="-78.780304">
        <ele>3461.00</ele>
        <time>2018-09-08T20:24:05Z</time>
      </trkpt>
      <trkpt lat="-2.607375" lon="-78.780304">
        <ele>3461.00</ele>
        <time>2018-09-08T20:24:06Z</time>
      </trkpt>
      <trkpt lat="-2.607375" lon="-78.780304">
        <ele>3461.00</ele>
        <time>2018-09-08T20:24:07Z</time>
      </trkpt>
      <trkpt lat="-2.607375" lon="-78.780304">
        <ele>3461.00</ele>
        <time>2018-09-08T20:24:08Z</time>
      </trkpt>
      <trkpt lat="-2.607376" lon="-78.780304">
        <ele>3461.00</ele>
        <time>2018-09-08T20:24:09Z</time>
      </trkpt>
      <trkpt lat="-2.607376" lon="-78.780304">
        <ele>3461.00</ele>
        <time>2018-09-08T20:24:10Z</time>
      </trkpt>
      <trkpt lat="-2.607376" lon="-78.780304">
        <ele>3461.00</ele>
        <time>2018-09-08T20:24:11Z</time>
      </trkpt>
      <trkpt lat="-2.607376" lon="-78.780304">
        <ele>3461.00</ele>
        <time>2018-09-08T20:24:12Z</time>
      </trkpt>
      <trkpt lat="-2.607376" lon="-78.780304">
        <ele>3461.00</ele>
        <time>2018-09-08T20:24:13Z</time>
      </trkpt>
      <trkpt lat="-2.607376" lon="-78.780304">
        <ele>3461.00</ele>
        <time>2018-09-08T20:24:14Z</time>
      </trkpt>
      <trkpt lat="-2.607376" lon="-78.780304">
        <ele>3461.00</ele>
        <time>2018-09-08T20:24:15Z</time>
      </trkpt>
      <trkpt lat="-2.607376" lon="-78.780304">
        <ele>3461.00</ele>
        <time>2018-09-08T20:24:16Z</time>
      </trkpt>
      <trkpt lat="-2.607376" lon="-78.780304">
        <ele>3461.00</ele>
        <time>2018-09-08T20:24:17Z</time>
      </trkpt>
      <trkpt lat="-2.607376" lon="-78.780304">
        <ele>3461.00</ele>
        <time>2018-09-08T20:24:18Z</time>
      </trkpt>
      <trkpt lat="-2.607376" lon="-78.780304">
        <ele>3461.00</ele>
        <time>2018-09-08T20:24:19Z</time>
      </trkpt>
      <trkpt lat="-2.607376" lon="-78.780304">
        <ele>3461.00</ele>
        <time>2018-09-08T20:24:20Z</time>
      </trkpt>
      <trkpt lat="-2.607376" lon="-78.780304">
        <ele>3461.00</ele>
        <time>2018-09-08T20:24:21Z</time>
      </trkpt>
      <trkpt lat="-2.607376" lon="-78.780304">
        <ele>3461.00</ele>
        <time>2018-09-08T20:24:22Z</time>
      </trkpt>
      <trkpt lat="-2.607376" lon="-78.780304">
        <ele>3461.00</ele>
        <time>2018-09-08T20:24:23Z</time>
      </trkpt>
      <trkpt lat="-2.607376" lon="-78.780304">
        <ele>3461.00</ele>
        <time>2018-09-08T20:24:24Z</time>
      </trkpt>
      <trkpt lat="-2.607376" lon="-78.780304">
        <ele>3461.00</ele>
        <time>2018-09-08T20:24:25Z</time>
      </trkpt>
      <trkpt lat="-2.607377" lon="-78.780296">
        <ele>3461.00</ele>
        <time>2018-09-08T20:24:26Z</time>
      </trkpt>
      <trkpt lat="-2.607377" lon="-78.780296">
        <ele>3461.00</ele>
        <time>2018-09-08T20:24:27Z</time>
      </trkpt>
      <trkpt lat="-2.607375" lon="-78.780296">
        <ele>3461.00</ele>
        <time>2018-09-08T20:24:28Z</time>
      </trkpt>
      <trkpt lat="-2.607371" lon="-78.780296">
        <ele>3461.00</ele>
        <time>2018-09-08T20:24:29Z</time>
      </trkpt>
      <trkpt lat="-2.607368" lon="-78.780304">
        <ele>3461.00</ele>
        <time>2018-09-08T20:24:30Z</time>
      </trkpt>
      <trkpt lat="-2.607366" lon="-78.780304">
        <ele>3461.00</ele>
        <time>2018-09-08T20:24:31Z</time>
      </trkpt>
      <trkpt lat="-2.607365" lon="-78.780304">
        <ele>3461.00</ele>
        <time>2018-09-08T20:24:32Z</time>
      </trkpt>
      <trkpt lat="-2.607365" lon="-78.780304">
        <ele>3461.00</ele>
        <time>2018-09-08T20:24:33Z</time>
      </trkpt>
      <trkpt lat="-2.607364" lon="-78.780304">
        <ele>3461.00</ele>
        <time>2018-09-08T20:24:34Z</time>
      </trkpt>
      <trkpt lat="-2.607364" lon="-78.780304">
        <ele>3461.00</ele>
        <time>2018-09-08T20:24:35Z</time>
      </trkpt>
      <trkpt lat="-2.607364" lon="-78.780304">
        <ele>3461.00</ele>
        <time>2018-09-08T20:24:36Z</time>
      </trkpt>
      <trkpt lat="-2.607364" lon="-78.780304">
        <ele>3461.00</ele>
        <time>2018-09-08T20:24:37Z</time>
      </trkpt>
      <trkpt lat="-2.607364" lon="-78.780304">
        <ele>3461.00</ele>
        <time>2018-09-08T20:24:38Z</time>
      </trkpt>
      <trkpt lat="-2.607363" lon="-78.780304">
        <ele>3461.00</ele>
        <time>2018-09-08T20:24:39Z</time>
      </trkpt>
      <trkpt lat="-2.607363" lon="-78.780304">
        <ele>3461.00</ele>
        <time>2018-09-08T20:24:40Z</time>
      </trkpt>
      <trkpt lat="-2.607363" lon="-78.780304">
        <ele>3461.00</ele>
        <time>2018-09-08T20:24:41Z</time>
      </trkpt>
      <trkpt lat="-2.607363" lon="-78.780304">
        <ele>3461.00</ele>
        <time>2018-09-08T20:24:42Z</time>
      </trkpt>
      <trkpt lat="-2.607363" lon="-78.780304">
        <ele>3461.00</ele>
        <time>2018-09-08T20:24:43Z</time>
      </trkpt>
      <trkpt lat="-2.607362" lon="-78.780304">
        <ele>3461.00</ele>
        <time>2018-09-08T20:24:44Z</time>
      </trkpt>
      <trkpt lat="-2.607362" lon="-78.780304">
        <ele>3461.00</ele>
        <time>2018-09-08T20:24:45Z</time>
      </trkpt>
      <trkpt lat="-2.607361" lon="-78.780304">
        <ele>3461.00</ele>
        <time>2018-09-08T20:24:46Z</time>
      </trkpt>
      <trkpt lat="-2.607361" lon="-78.780304">
        <ele>3461.00</ele>
        <time>2018-09-08T20:24:47Z</time>
      </trkpt>
      <trkpt lat="-2.607361" lon="-78.780304">
        <ele>3461.00</ele>
        <time>2018-09-08T20:24:48Z</time>
      </trkpt>
      <trkpt lat="-2.607361" lon="-78.780304">
        <ele>3461.00</ele>
        <time>2018-09-08T20:24:49Z</time>
      </trkpt>
      <trkpt lat="-2.607361" lon="-78.780304">
        <ele>3461.00</ele>
        <time>2018-09-08T20:24:50Z</time>
      </trkpt>
      <trkpt lat="-2.607361" lon="-78.780304">
        <ele>3461.00</ele>
        <time>2018-09-08T20:24:51Z</time>
      </trkpt>
      <trkpt lat="-2.607360" lon="-78.780304">
        <ele>3461.00</ele>
        <time>2018-09-08T20:24:52Z</time>
      </trkpt>
      <trkpt lat="-2.607360" lon="-78.780304">
        <ele>3461.00</ele>
        <time>2018-09-08T20:24:53Z</time>
      </trkpt>
      <trkpt lat="-2.607360" lon="-78.780304">
        <ele>3461.00</ele>
        <time>2018-09-08T20:24:54Z</time>
      </trkpt>
      <trkpt lat="-2.607360" lon="-78.780304">
        <ele>3461.00</ele>
        <time>2018-09-08T20:24:55Z</time>
      </trkpt>
      <trkpt lat="-2.607360" lon="-78.780304">
        <ele>3461.00</ele>
        <time>2018-09-08T20:24:56Z</time>
      </trkpt>
      <trkpt lat="-2.607361" lon="-78.780304">
        <ele>3461.00</ele>
        <time>2018-09-08T20:24:57Z</time>
      </trkpt>
      <trkpt lat="-2.607361" lon="-78.780304">
        <ele>3461.00</ele>
        <time>2018-09-08T20:24:58Z</time>
      </trkpt>
      <trkpt lat="-2.607361" lon="-78.780304">
        <ele>3461.00</ele>
        <time>2018-09-08T20:24:59Z</time>
      </trkpt>
      <trkpt lat="-2.607362" lon="-78.780304">
        <ele>3461.00</ele>
        <time>2018-09-08T20:25:00Z</time>
      </trkpt>
      <trkpt lat="-2.607362" lon="-78.780304">
        <ele>3461.00</ele>
        <time>2018-09-08T20:25:01Z</time>
      </trkpt>
      <trkpt lat="-2.607362" lon="-78.780304">
        <ele>3461.00</ele>
        <time>2018-09-08T20:25:02Z</time>
      </trkpt>
      <trkpt lat="-2.607362" lon="-78.780304">
        <ele>3461.00</ele>
        <time>2018-09-08T20:25:03Z</time>
      </trkpt>
      <trkpt lat="-2.607362" lon="-78.780304">
        <ele>3461.00</ele>
        <time>2018-09-08T20:25:04Z</time>
      </trkpt>
      <trkpt lat="-2.607362" lon="-78.780304">
        <ele>3461.00</ele>
        <time>2018-09-08T20:25:05Z</time>
      </trkpt>
      <trkpt lat="-2.607362" lon="-78.780304">
        <ele>3461.00</ele>
        <time>2018-09-08T20:25:06Z</time>
      </trkpt>
      <trkpt lat="-2.607361" lon="-78.780304">
        <ele>3461.00</ele>
        <time>2018-09-08T20:25:07Z</time>
      </trkpt>
      <trkpt lat="-2.607361" lon="-78.780304">
        <ele>3461.00</ele>
        <time>2018-09-08T20:25:08Z</time>
      </trkpt>
      <trkpt lat="-2.607361" lon="-78.780304">
        <ele>3461.00</ele>
        <time>2018-09-08T20:25:09Z</time>
      </trkpt>
      <trkpt lat="-2.607361" lon="-78.780304">
        <ele>3461.00</ele>
        <time>2018-09-08T20:25:10Z</time>
      </trkpt>
      <trkpt lat="-2.607359" lon="-78.780304">
        <ele>3461.00</ele>
        <time>2018-09-08T20:25:11Z</time>
      </trkpt>
      <trkpt lat="-2.607358" lon="-78.780304">
        <ele>3461.00</ele>
        <time>2018-09-08T20:25:12Z</time>
      </trkpt>
      <trkpt lat="-2.607357" lon="-78.780312">
        <ele>3461.00</ele>
        <time>2018-09-08T20:25:13Z</time>
      </trkpt>
      <trkpt lat="-2.607356" lon="-78.780312">
        <ele>3461.00</ele>
        <time>2018-09-08T20:25:14Z</time>
      </trkpt>
      <trkpt lat="-2.607355" lon="-78.780312">
        <ele>3461.00</ele>
        <time>2018-09-08T20:25:15Z</time>
      </trkpt>
      <trkpt lat="-2.607356" lon="-78.780312">
        <ele>3461.00</ele>
        <time>2018-09-08T20:25:16Z</time>
      </trkpt>
      <trkpt lat="-2.607356" lon="-78.780312">
        <ele>3461.00</ele>
        <time>2018-09-08T20:25:17Z</time>
      </trkpt>
      <trkpt lat="-2.607354" lon="-78.780312">
        <ele>3461.00</ele>
        <time>2018-09-08T20:25:18Z</time>
      </trkpt>
      <trkpt lat="-2.607354" lon="-78.780312">
        <ele>3461.00</ele>
        <time>2018-09-08T20:25:19Z</time>
      </trkpt>
      <trkpt lat="-2.607354" lon="-78.780312">
        <ele>3461.00</ele>
        <time>2018-09-08T20:25:20Z</time>
      </trkpt>
      <trkpt lat="-2.607354" lon="-78.780312">
        <ele>3461.00</ele>
        <time>2018-09-08T20:25:21Z</time>
      </trkpt>
      <trkpt lat="-2.607354" lon="-78.780312">
        <ele>3461.00</ele>
        <time>2018-09-08T20:25:22Z</time>
      </trkpt>
      <trkpt lat="-2.607353" lon="-78.780312">
        <ele>3461.00</ele>
        <time>2018-09-08T20:25:23Z</time>
      </trkpt>
      <trkpt lat="-2.607353" lon="-78.780312">
        <ele>3461.00</ele>
        <time>2018-09-08T20:25:24Z</time>
      </trkpt>
      <trkpt lat="-2.607353" lon="-78.780312">
        <ele>3461.00</ele>
        <time>2018-09-08T20:25:25Z</time>
      </trkpt>
      <trkpt lat="-2.607353" lon="-78.780312">
        <ele>3461.00</ele>
        <time>2018-09-08T20:25:26Z</time>
      </trkpt>
      <trkpt lat="-2.607352" lon="-78.780312">
        <ele>3461.00</ele>
        <time>2018-09-08T20:25:27Z</time>
      </trkpt>
      <trkpt lat="-2.607352" lon="-78.780312">
        <ele>3461.00</ele>
        <time>2018-09-08T20:25:28Z</time>
      </trkpt>
      <trkpt lat="-2.607353" lon="-78.780312">
        <ele>3461.00</ele>
        <time>2018-09-08T20:25:29Z</time>
      </trkpt>
      <trkpt lat="-2.607352" lon="-78.780312">
        <ele>3461.00</ele>
        <time>2018-09-08T20:25:30Z</time>
      </trkpt>
      <trkpt lat="-2.607352" lon="-78.780312">
        <ele>3461.00</ele>
        <time>2018-09-08T20:25:31Z</time>
      </trkpt>
      <trkpt lat="-2.607352" lon="-78.780312">
        <ele>3461.00</ele>
        <time>2018-09-08T20:25:32Z</time>
      </trkpt>
      <trkpt lat="-2.607352" lon="-78.780312">
        <ele>3461.00</ele>
        <time>2018-09-08T20:25:33Z</time>
      </trkpt>
      <trkpt lat="-2.607351" lon="-78.780312">
        <ele>3461.00</ele>
        <time>2018-09-08T20:25:34Z</time>
      </trkpt>
      <trkpt lat="-2.607355" lon="-78.780312">
        <ele>3461.00</ele>
        <time>2018-09-08T20:25:35Z</time>
      </trkpt>
      <trkpt lat="-2.607355" lon="-78.780312">
        <ele>3461.00</ele>
        <time>2018-09-08T20:25:36Z</time>
      </trkpt>
      <trkpt lat="-2.607358" lon="-78.780312">
        <ele>3462.00</ele>
        <time>2018-09-08T20:25:37Z</time>
      </trkpt>
      <trkpt lat="-2.607360" lon="-78.780312">
        <ele>3462.00</ele>
        <time>2018-09-08T20:25:38Z</time>
      </trkpt>
      <trkpt lat="-2.607374" lon="-78.780304">
        <ele>3462.00</ele>
        <time>2018-09-08T20:25:39Z</time>
      </trkpt>
      <trkpt lat="-2.607391" lon="-78.780312">
        <ele>3462.00</ele>
        <time>2018-09-08T20:25:40Z</time>
      </trkpt>
      <trkpt lat="-2.607408" lon="-78.780312">
        <ele>3462.00</ele>
        <time>2018-09-08T20:25:41Z</time>
      </trkpt>
      <trkpt lat="-2.607422" lon="-78.780319">
        <ele>3462.00</ele>
        <time>2018-09-08T20:25:42Z</time>
      </trkpt>
      <trkpt lat="-2.607424" lon="-78.780327">
        <ele>3462.00</ele>
        <time>2018-09-08T20:25:43Z</time>
      </trkpt>
      <trkpt lat="-2.607425" lon="-78.780334">
        <ele>3462.00</ele>
        <time>2018-09-08T20:25:44Z</time>
      </trkpt>
      <trkpt lat="-2.607424" lon="-78.780334">
        <ele>3462.00</ele>
        <time>2018-09-08T20:25:45Z</time>
      </trkpt>
      <trkpt lat="-2.607418" lon="-78.780334">
        <ele>3462.00</ele>
        <time>2018-09-08T20:25:46Z</time>
      </trkpt>
      <trkpt lat="-2.607409" lon="-78.780334">
        <ele>3462.00</ele>
        <time>2018-09-08T20:25:47Z</time>
      </trkpt>
      <trkpt lat="-2.607405" lon="-78.780334">
        <ele>3462.00</ele>
        <time>2018-09-08T20:25:48Z</time>
      </trkpt>
      <trkpt lat="-2.607399" lon="-78.780334">
        <ele>3462.00</ele>
        <time>2018-09-08T20:25:49Z</time>
      </trkpt>
      <trkpt lat="-2.607396" lon="-78.780334">
        <ele>3462.00</ele>
        <time>2018-09-08T20:25:50Z</time>
      </trkpt>
      <trkpt lat="-2.607393" lon="-78.780334">
        <ele>3462.00</ele>
        <time>2018-09-08T20:25:51Z</time>
      </trkpt>
      <trkpt lat="-2.607393" lon="-78.780334">
        <ele>3462.00</ele>
        <time>2018-09-08T20:25:52Z</time>
      </trkpt>
      <trkpt lat="-2.607393" lon="-78.780334">
        <ele>3462.00</ele>
        <time>2018-09-08T20:25:53Z</time>
      </trkpt>
      <trkpt lat="-2.607393" lon="-78.780334">
        <ele>3462.00</ele>
        <time>2018-09-08T20:25:54Z</time>
      </trkpt>
      <trkpt lat="-2.607393" lon="-78.780334">
        <ele>3462.00</ele>
        <time>2018-09-08T20:25:55Z</time>
      </trkpt>
      <trkpt lat="-2.607392" lon="-78.780334">
        <ele>3462.00</ele>
        <time>2018-09-08T20:25:56Z</time>
      </trkpt>
      <trkpt lat="-2.607392" lon="-78.780334">
        <ele>3462.00</ele>
        <time>2018-09-08T20:25:57Z</time>
      </trkpt>
      <trkpt lat="-2.607391" lon="-78.780334">
        <ele>3462.00</ele>
        <time>2018-09-08T20:25:58Z</time>
      </trkpt>
      <trkpt lat="-2.607391" lon="-78.780334">
        <ele>3462.00</ele>
        <time>2018-09-08T20:25:59Z</time>
      </trkpt>
      <trkpt lat="-2.607391" lon="-78.780334">
        <ele>3462.00</ele>
        <time>2018-09-08T20:26:00Z</time>
      </trkpt>
      <trkpt lat="-2.607386" lon="-78.780334">
        <ele>3462.00</ele>
        <time>2018-09-08T20:26:01Z</time>
      </trkpt>
      <trkpt lat="-2.607383" lon="-78.780334">
        <ele>3462.00</ele>
        <time>2018-09-08T20:26:02Z</time>
      </trkpt>
      <trkpt lat="-2.607380" lon="-78.780327">
        <ele>3462.00</ele>
        <time>2018-09-08T20:26:03Z</time>
      </trkpt>
      <trkpt lat="-2.607381" lon="-78.780327">
        <ele>3462.00</ele>
        <time>2018-09-08T20:26:04Z</time>
      </trkpt>
      <trkpt lat="-2.607383" lon="-78.780327">
        <ele>3462.00</ele>
        <time>2018-09-08T20:26:05Z</time>
      </trkpt>
      <trkpt lat="-2.607390" lon="-78.780327">
        <ele>3462.00</ele>
        <time>2018-09-08T20:26:06Z</time>
      </trkpt>
      <trkpt lat="-2.607399" lon="-78.780327">
        <ele>3462.00</ele>
        <time>2018-09-08T20:26:07Z</time>
      </trkpt>
      <trkpt lat="-2.607399" lon="-78.780327">
        <ele>3462.00</ele>
        <time>2018-09-08T20:26:08Z</time>
      </trkpt>
      <trkpt lat="-2.607398" lon="-78.780327">
        <ele>3462.00</ele>
        <time>2018-09-08T20:26:09Z</time>
      </trkpt>
      <trkpt lat="-2.607398" lon="-78.780327">
        <ele>3462.00</ele>
        <time>2018-09-08T20:26:10Z</time>
      </trkpt>
      <trkpt lat="-2.607398" lon="-78.780327">
        <ele>3462.00</ele>
        <time>2018-09-08T20:26:11Z</time>
      </trkpt>
      <trkpt lat="-2.607398" lon="-78.780327">
        <ele>3462.00</ele>
        <time>2018-09-08T20:26:12Z</time>
      </trkpt>
      <trkpt lat="-2.607398" lon="-78.780327">
        <ele>3462.00</ele>
        <time>2018-09-08T20:26:13Z</time>
      </trkpt>
      <trkpt lat="-2.607398" lon="-78.780327">
        <ele>3462.00</ele>
        <time>2018-09-08T20:26:14Z</time>
      </trkpt>
      <trkpt lat="-2.607398" lon="-78.780327">
        <ele>3462.00</ele>
        <time>2018-09-08T20:26:15Z</time>
      </trkpt>
      <trkpt lat="-2.607398" lon="-78.780327">
        <ele>3462.00</ele>
        <time>2018-09-08T20:26:16Z</time>
      </trkpt>
      <trkpt lat="-2.607398" lon="-78.780327">
        <ele>3462.00</ele>
        <time>2018-09-08T20:26:17Z</time>
      </trkpt>
      <trkpt lat="-2.607399" lon="-78.780327">
        <ele>3462.00</ele>
        <time>2018-09-08T20:26:18Z</time>
      </trkpt>
      <trkpt lat="-2.607399" lon="-78.780327">
        <ele>3462.00</ele>
        <time>2018-09-08T20:26:19Z</time>
      </trkpt>
      <trkpt lat="-2.607398" lon="-78.780327">
        <ele>3462.00</ele>
        <time>2018-09-08T20:26:20Z</time>
      </trkpt>
      <trkpt lat="-2.607402" lon="-78.780327">
        <ele>3462.00</ele>
        <time>2018-09-08T20:26:21Z</time>
      </trkpt>
      <trkpt lat="-2.607404" lon="-78.780327">
        <ele>3462.00</ele>
        <time>2018-09-08T20:26:22Z</time>
      </trkpt>
      <trkpt lat="-2.607400" lon="-78.780327">
        <ele>3462.00</ele>
        <time>2018-09-08T20:26:23Z</time>
      </trkpt>
      <trkpt lat="-2.607398" lon="-78.780327">
        <ele>3462.00</ele>
        <time>2018-09-08T20:26:24Z</time>
      </trkpt>
      <trkpt lat="-2.607397" lon="-78.780327">
        <ele>3462.00</ele>
        <time>2018-09-08T20:26:25Z</time>
      </trkpt>
      <trkpt lat="-2.607394" lon="-78.780327">
        <ele>3462.00</ele>
        <time>2018-09-08T20:26:26Z</time>
      </trkpt>
      <trkpt lat="-2.607391" lon="-78.780327">
        <ele>3462.00</ele>
        <time>2018-09-08T20:26:27Z</time>
      </trkpt>
      <trkpt lat="-2.607388" lon="-78.780327">
        <ele>3462.00</ele>
        <time>2018-09-08T20:26:28Z</time>
      </trkpt>
      <trkpt lat="-2.607387" lon="-78.780327">
        <ele>3462.00</ele>
        <time>2018-09-08T20:26:29Z</time>
      </trkpt>
      <trkpt lat="-2.607387" lon="-78.780327">
        <ele>3462.00</ele>
        <time>2018-09-08T20:26:30Z</time>
      </trkpt>
      <trkpt lat="-2.607387" lon="-78.780327">
        <ele>3462.00</ele>
        <time>2018-09-08T20:26:31Z</time>
      </trkpt>
      <trkpt lat="-2.607387" lon="-78.780327">
        <ele>3462.00</ele>
        <time>2018-09-08T20:26:32Z</time>
      </trkpt>
      <trkpt lat="-2.607387" lon="-78.780327">
        <ele>3462.00</ele>
        <time>2018-09-08T20:26:33Z</time>
      </trkpt>
      <trkpt lat="-2.607387" lon="-78.780327">
        <ele>3462.00</ele>
        <time>2018-09-08T20:26:34Z</time>
      </trkpt>
      <trkpt lat="-2.607388" lon="-78.780327">
        <ele>3462.00</ele>
        <time>2018-09-08T20:26:35Z</time>
      </trkpt>
      <trkpt lat="-2.607388" lon="-78.780327">
        <ele>3462.00</ele>
        <time>2018-09-08T20:26:36Z</time>
      </trkpt>
      <trkpt lat="-2.607388" lon="-78.780327">
        <ele>3462.00</ele>
        <time>2018-09-08T20:26:37Z</time>
      </trkpt>
      <trkpt lat="-2.607388" lon="-78.780327">
        <ele>3462.00</ele>
        <time>2018-09-08T20:26:38Z</time>
      </trkpt>
      <trkpt lat="-2.607388" lon="-78.780327">
        <ele>3462.00</ele>
        <time>2018-09-08T20:26:39Z</time>
      </trkpt>
      <trkpt lat="-2.607387" lon="-78.780327">
        <ele>3462.00</ele>
        <time>2018-09-08T20:26:40Z</time>
      </trkpt>
      <trkpt lat="-2.607388" lon="-78.780327">
        <ele>3462.00</ele>
        <time>2018-09-08T20:26:41Z</time>
      </trkpt>
      <trkpt lat="-2.607388" lon="-78.780327">
        <ele>3462.00</ele>
        <time>2018-09-08T20:26:42Z</time>
      </trkpt>
      <trkpt lat="-2.607388" lon="-78.780327">
        <ele>3462.00</ele>
        <time>2018-09-08T20:26:43Z</time>
      </trkpt>
      <trkpt lat="-2.607388" lon="-78.780327">
        <ele>3462.00</ele>
        <time>2018-09-08T20:26:44Z</time>
      </trkpt>
      <trkpt lat="-2.607388" lon="-78.780327">
        <ele>3462.00</ele>
        <time>2018-09-08T20:26:45Z</time>
      </trkpt>
      <trkpt lat="-2.607388" lon="-78.780327">
        <ele>3462.00</ele>
        <time>2018-09-08T20:26:46Z</time>
      </trkpt>
      <trkpt lat="-2.607390" lon="-78.780319">
        <ele>3462.00</ele>
        <time>2018-09-08T20:26:47Z</time>
      </trkpt>
      <trkpt lat="-2.607392" lon="-78.780319">
        <ele>3462.00</ele>
        <time>2018-09-08T20:26:48Z</time>
      </trkpt>
      <trkpt lat="-2.607395" lon="-78.780312">
        <ele>3462.00</ele>
        <time>2018-09-08T20:26:49Z</time>
      </trkpt>
      <trkpt lat="-2.607396" lon="-78.780312">
        <ele>3462.00</ele>
        <time>2018-09-08T20:26:50Z</time>
      </trkpt>
      <trkpt lat="-2.607397" lon="-78.780312">
        <ele>3462.00</ele>
        <time>2018-09-08T20:26:51Z</time>
      </trkpt>
      <trkpt lat="-2.607397" lon="-78.780312">
        <ele>3462.00</ele>
        <time>2018-09-08T20:26:52Z</time>
      </trkpt>
      <trkpt lat="-2.607396" lon="-78.780312">
        <ele>3462.00</ele>
        <time>2018-09-08T20:26:53Z</time>
      </trkpt>
      <trkpt lat="-2.607395" lon="-78.780312">
        <ele>3462.00</ele>
        <time>2018-09-08T20:26:54Z</time>
      </trkpt>
      <trkpt lat="-2.607393" lon="-78.780312">
        <ele>3462.00</ele>
        <time>2018-09-08T20:26:55Z</time>
      </trkpt>
      <trkpt lat="-2.607390" lon="-78.780304">
        <ele>3462.00</ele>
        <time>2018-09-08T20:26:56Z</time>
      </trkpt>
      <trkpt lat="-2.607386" lon="-78.780304">
        <ele>3462.00</ele>
        <time>2018-09-08T20:26:57Z</time>
      </trkpt>
      <trkpt lat="-2.607381" lon="-78.780296">
        <ele>3462.00</ele>
        <time>2018-09-08T20:26:58Z</time>
      </trkpt>
      <trkpt lat="-2.607381" lon="-78.780296">
        <ele>3462.00</ele>
        <time>2018-09-08T20:26:59Z</time>
      </trkpt>
      <trkpt lat="-2.607381" lon="-78.780296">
        <ele>3462.00</ele>
        <time>2018-09-08T20:27:00Z</time>
      </trkpt>
      <trkpt lat="-2.607381" lon="-78.780296">
        <ele>3462.00</ele>
        <time>2018-09-08T20:27:01Z</time>
      </trkpt>
      <trkpt lat="-2.607382" lon="-78.780296">
        <ele>3462.00</ele>
        <time>2018-09-08T20:27:02Z</time>
      </trkpt>
      <trkpt lat="-2.607382" lon="-78.780296">
        <ele>3462.00</ele>
        <time>2018-09-08T20:27:03Z</time>
      </trkpt>
      <trkpt lat="-2.607382" lon="-78.780296">
        <ele>3462.00</ele>
        <time>2018-09-08T20:27:04Z</time>
      </trkpt>
      <trkpt lat="-2.607383" lon="-78.780296">
        <ele>3462.00</ele>
        <time>2018-09-08T20:27:05Z</time>
      </trkpt>
      <trkpt lat="-2.607383" lon="-78.780296">
        <ele>3462.00</ele>
        <time>2018-09-08T20:27:06Z</time>
      </trkpt>
      <trkpt lat="-2.607383" lon="-78.780296">
        <ele>3462.00</ele>
        <time>2018-09-08T20:27:07Z</time>
      </trkpt>
      <trkpt lat="-2.607383" lon="-78.780296">
        <ele>3462.00</ele>
        <time>2018-09-08T20:27:08Z</time>
      </trkpt>
      <trkpt lat="-2.607383" lon="-78.780296">
        <ele>3462.00</ele>
        <time>2018-09-08T20:27:09Z</time>
      </trkpt>
      <trkpt lat="-2.607383" lon="-78.780296">
        <ele>3462.00</ele>
        <time>2018-09-08T20:27:10Z</time>
      </trkpt>
      <trkpt lat="-2.607383" lon="-78.780296">
        <ele>3462.00</ele>
        <time>2018-09-08T20:27:11Z</time>
      </trkpt>
      <trkpt lat="-2.607383" lon="-78.780296">
        <ele>3462.00</ele>
        <time>2018-09-08T20:27:12Z</time>
      </trkpt>
      <trkpt lat="-2.607383" lon="-78.780296">
        <ele>3462.00</ele>
        <time>2018-09-08T20:27:13Z</time>
      </trkpt>
      <trkpt lat="-2.607383" lon="-78.780296">
        <ele>3462.00</ele>
        <time>2018-09-08T20:27:14Z</time>
      </trkpt>
      <trkpt lat="-2.607383" lon="-78.780296">
        <ele>3462.00</ele>
        <time>2018-09-08T20:27:15Z</time>
      </trkpt>
      <trkpt lat="-2.607383" lon="-78.780296">
        <ele>3462.00</ele>
        <time>2018-09-08T20:27:16Z</time>
      </trkpt>
      <trkpt lat="-2.607383" lon="-78.780296">
        <ele>3462.00</ele>
        <time>2018-09-08T20:27:17Z</time>
      </trkpt>
      <trkpt lat="-2.607382" lon="-78.780296">
        <ele>3462.00</ele>
        <time>2018-09-08T20:27:18Z</time>
      </trkpt>
      <trkpt lat="-2.607382" lon="-78.780296">
        <ele>3462.00</ele>
        <time>2018-09-08T20:27:19Z</time>
      </trkpt>
      <trkpt lat="-2.607382" lon="-78.780296">
        <ele>3462.00</ele>
        <time>2018-09-08T20:27:20Z</time>
      </trkpt>
      <trkpt lat="-2.607382" lon="-78.780296">
        <ele>3462.00</ele>
        <time>2018-09-08T20:27:21Z</time>
      </trkpt>
      <trkpt lat="-2.607382" lon="-78.780296">
        <ele>3462.00</ele>
        <time>2018-09-08T20:27:22Z</time>
      </trkpt>
      <trkpt lat="-2.607382" lon="-78.780296">
        <ele>3462.00</ele>
        <time>2018-09-08T20:27:23Z</time>
      </trkpt>
      <trkpt lat="-2.607382" lon="-78.780296">
        <ele>3462.00</ele>
        <time>2018-09-08T20:27:24Z</time>
      </trkpt>
      <trkpt lat="-2.607382" lon="-78.780296">
        <ele>3462.00</ele>
        <time>2018-09-08T20:27:25Z</time>
      </trkpt>
      <trkpt lat="-2.607382" lon="-78.780296">
        <ele>3462.00</ele>
        <time>2018-09-08T20:27:26Z</time>
      </trkpt>
      <trkpt lat="-2.607383" lon="-78.780281">
        <ele>3462.00</ele>
        <time>2018-09-08T20:27:27Z</time>
      </trkpt>
      <trkpt lat="-2.607384" lon="-78.780281">
        <ele>3462.00</ele>
        <time>2018-09-08T20:27:28Z</time>
      </trkpt>
      <trkpt lat="-2.607384" lon="-78.780281">
        <ele>3462.00</ele>
        <time>2018-09-08T20:27:29Z</time>
      </trkpt>
      <trkpt lat="-2.607388" lon="-78.780281">
        <ele>3462.00</ele>
        <time>2018-09-08T20:27:30Z</time>
      </trkpt>
      <trkpt lat="-2.607392" lon="-78.780281">
        <ele>3462.00</ele>
        <time>2018-09-08T20:27:31Z</time>
      </trkpt>
      <trkpt lat="-2.607393" lon="-78.780281">
        <ele>3462.00</ele>
        <time>2018-09-08T20:27:32Z</time>
      </trkpt>
      <trkpt lat="-2.607394" lon="-78.780281">
        <ele>3462.00</ele>
        <time>2018-09-08T20:27:33Z</time>
      </trkpt>
      <trkpt lat="-2.607394" lon="-78.780281">
        <ele>3462.00</ele>
        <time>2018-09-08T20:27:34Z</time>
      </trkpt>
      <trkpt lat="-2.607394" lon="-78.780281">
        <ele>3462.00</ele>
        <time>2018-09-08T20:27:35Z</time>
      </trkpt>
      <trkpt lat="-2.607394" lon="-78.780281">
        <ele>3462.00</ele>
        <time>2018-09-08T20:27:36Z</time>
      </trkpt>
      <trkpt lat="-2.607394" lon="-78.780273">
        <ele>3462.00</ele>
        <time>2018-09-08T20:27:37Z</time>
      </trkpt>
      <trkpt lat="-2.607398" lon="-78.780281">
        <ele>3462.00</ele>
        <time>2018-09-08T20:27:38Z</time>
      </trkpt>
      <trkpt lat="-2.607398" lon="-78.780281">
        <ele>3462.00</ele>
        <time>2018-09-08T20:27:39Z</time>
      </trkpt>
      <trkpt lat="-2.607398" lon="-78.780281">
        <ele>3462.00</ele>
        <time>2018-09-08T20:27:40Z</time>
      </trkpt>
      <trkpt lat="-2.607399" lon="-78.780281">
        <ele>3462.00</ele>
        <time>2018-09-08T20:27:41Z</time>
      </trkpt>
      <trkpt lat="-2.607399" lon="-78.780281">
        <ele>3462.00</ele>
        <time>2018-09-08T20:27:42Z</time>
      </trkpt>
      <trkpt lat="-2.607399" lon="-78.780281">
        <ele>3462.00</ele>
        <time>2018-09-08T20:27:43Z</time>
      </trkpt>
      <trkpt lat="-2.607399" lon="-78.780273">
        <ele>3462.00</ele>
        <time>2018-09-08T20:27:44Z</time>
      </trkpt>
      <trkpt lat="-2.607399" lon="-78.780273">
        <ele>3462.00</ele>
        <time>2018-09-08T20:27:45Z</time>
      </trkpt>
      <trkpt lat="-2.607398" lon="-78.780273">
        <ele>3462.00</ele>
        <time>2018-09-08T20:27:46Z</time>
      </trkpt>
      <trkpt lat="-2.607398" lon="-78.780273">
        <ele>3462.00</ele>
        <time>2018-09-08T20:27:47Z</time>
      </trkpt>
      <trkpt lat="-2.607398" lon="-78.780273">
        <ele>3462.00</ele>
        <time>2018-09-08T20:27:48Z</time>
      </trkpt>
      <trkpt lat="-2.607398" lon="-78.780273">
        <ele>3462.00</ele>
        <time>2018-09-08T20:27:49Z</time>
      </trkpt>
      <trkpt lat="-2.607398" lon="-78.780273">
        <ele>3462.00</ele>
        <time>2018-09-08T20:27:50Z</time>
      </trkpt>
      <trkpt lat="-2.607398" lon="-78.780273">
        <ele>3462.00</ele>
        <time>2018-09-08T20:27:51Z</time>
      </trkpt>
      <trkpt lat="-2.607398" lon="-78.780273">
        <ele>3462.00</ele>
        <time>2018-09-08T20:27:52Z</time>
      </trkpt>
      <trkpt lat="-2.607398" lon="-78.780273">
        <ele>3462.00</ele>
        <time>2018-09-08T20:27:53Z</time>
      </trkpt>
      <trkpt lat="-2.607398" lon="-78.780273">
        <ele>3462.00</ele>
        <time>2018-09-08T20:27:54Z</time>
      </trkpt>
      <trkpt lat="-2.607398" lon="-78.780273">
        <ele>3462.00</ele>
        <time>2018-09-08T20:27:55Z</time>
      </trkpt>
      <trkpt lat="-2.607398" lon="-78.780273">
        <ele>3462.00</ele>
        <time>2018-09-08T20:27:56Z</time>
      </trkpt>
      <trkpt lat="-2.607398" lon="-78.780273">
        <ele>3462.00</ele>
        <time>2018-09-08T20:27:57Z</time>
      </trkpt>
      <trkpt lat="-2.607398" lon="-78.780273">
        <ele>3462.00</ele>
        <time>2018-09-08T20:27:58Z</time>
      </trkpt>
      <trkpt lat="-2.607398" lon="-78.780273">
        <ele>3462.00</ele>
        <time>2018-09-08T20:27:59Z</time>
      </trkpt>
      <trkpt lat="-2.607398" lon="-78.780273">
        <ele>3462.00</ele>
        <time>2018-09-08T20:28:00Z</time>
      </trkpt>
      <trkpt lat="-2.607398" lon="-78.780273">
        <ele>3462.00</ele>
        <time>2018-09-08T20:28:01Z</time>
      </trkpt>
      <trkpt lat="-2.607398" lon="-78.780273">
        <ele>3462.00</ele>
        <time>2018-09-08T20:28:02Z</time>
      </trkpt>
      <trkpt lat="-2.607398" lon="-78.780273">
        <ele>3462.00</ele>
        <time>2018-09-08T20:28:03Z</time>
      </trkpt>
      <trkpt lat="-2.607398" lon="-78.780273">
        <ele>3462.00</ele>
        <time>2018-09-08T20:28:04Z</time>
      </trkpt>
      <trkpt lat="-2.607395" lon="-78.780273">
        <ele>3462.00</ele>
        <time>2018-09-08T20:28:05Z</time>
      </trkpt>
      <trkpt lat="-2.607394" lon="-78.780273">
        <ele>3462.00</ele>
        <time>2018-09-08T20:28:06Z</time>
      </trkpt>
      <trkpt lat="-2.607396" lon="-78.780273">
        <ele>3462.00</ele>
        <time>2018-09-08T20:28:07Z</time>
      </trkpt>
      <trkpt lat="-2.607396" lon="-78.780266">
        <ele>3462.00</ele>
        <time>2018-09-08T20:28:08Z</time>
      </trkpt>
      <trkpt lat="-2.607398" lon="-78.780266">
        <ele>3462.00</ele>
        <time>2018-09-08T20:28:09Z</time>
      </trkpt>
      <trkpt lat="-2.607401" lon="-78.780258">
        <ele>3462.00</ele>
        <time>2018-09-08T20:28:10Z</time>
      </trkpt>
      <trkpt lat="-2.607401" lon="-78.780258">
        <ele>3462.00</ele>
        <time>2018-09-08T20:28:11Z</time>
      </trkpt>
      <trkpt lat="-2.607401" lon="-78.780258">
        <ele>3462.00</ele>
        <time>2018-09-08T20:28:12Z</time>
      </trkpt>
      <trkpt lat="-2.607401" lon="-78.780258">
        <ele>3462.00</ele>
        <time>2018-09-08T20:28:13Z</time>
      </trkpt>
      <trkpt lat="-2.607401" lon="-78.780258">
        <ele>3462.00</ele>
        <time>2018-09-08T20:28:14Z</time>
      </trkpt>
      <trkpt lat="-2.607404" lon="-78.780258">
        <ele>3462.00</ele>
        <time>2018-09-08T20:28:15Z</time>
      </trkpt>
      <trkpt lat="-2.607403" lon="-78.780266">
        <ele>3462.00</ele>
        <time>2018-09-08T20:28:16Z</time>
      </trkpt>
      <trkpt lat="-2.607401" lon="-78.780266">
        <ele>3462.00</ele>
        <time>2018-09-08T20:28:17Z</time>
      </trkpt>
      <trkpt lat="-2.607402" lon="-78.780266">
        <ele>3462.00</ele>
        <time>2018-09-08T20:28:18Z</time>
      </trkpt>
      <trkpt lat="-2.607403" lon="-78.780266">
        <ele>3462.00</ele>
        <time>2018-09-08T20:28:19Z</time>
      </trkpt>
      <trkpt lat="-2.607403" lon="-78.780266">
        <ele>3462.00</ele>
        <time>2018-09-08T20:28:20Z</time>
      </trkpt>
      <trkpt lat="-2.607406" lon="-78.780266">
        <ele>3462.00</ele>
        <time>2018-09-08T20:28:21Z</time>
      </trkpt>
      <trkpt lat="-2.607410" lon="-78.780258">
        <ele>3462.00</ele>
        <time>2018-09-08T20:28:22Z</time>
      </trkpt>
      <trkpt lat="-2.607416" lon="-78.780258">
        <ele>3462.00</ele>
        <time>2018-09-08T20:28:23Z</time>
      </trkpt>
      <trkpt lat="-2.607418" lon="-78.780251">
        <ele>3462.00</ele>
        <time>2018-09-08T20:28:24Z</time>
      </trkpt>
      <trkpt lat="-2.607419" lon="-78.780251">
        <ele>3462.00</ele>
        <time>2018-09-08T20:28:25Z</time>
      </trkpt>
      <trkpt lat="-2.607419" lon="-78.780251">
        <ele>3462.00</ele>
        <time>2018-09-08T20:28:26Z</time>
      </trkpt>
      <trkpt lat="-2.607419" lon="-78.780251">
        <ele>3462.00</ele>
        <time>2018-09-08T20:28:27Z</time>
      </trkpt>
      <trkpt lat="-2.607419" lon="-78.780251">
        <ele>3462.00</ele>
        <time>2018-09-08T20:28:28Z</time>
      </trkpt>
      <trkpt lat="-2.607419" lon="-78.780251">
        <ele>3462.00</ele>
        <time>2018-09-08T20:28:29Z</time>
      </trkpt>
      <trkpt lat="-2.607419" lon="-78.780251">
        <ele>3462.00</ele>
        <time>2018-09-08T20:28:30Z</time>
      </trkpt>
      <trkpt lat="-2.607420" lon="-78.780251">
        <ele>3462.00</ele>
        <time>2018-09-08T20:28:31Z</time>
      </trkpt>
      <trkpt lat="-2.607422" lon="-78.780251">
        <ele>3462.00</ele>
        <time>2018-09-08T20:28:32Z</time>
      </trkpt>
      <trkpt lat="-2.607422" lon="-78.780251">
        <ele>3462.00</ele>
        <time>2018-09-08T20:28:33Z</time>
      </trkpt>
      <trkpt lat="-2.607422" lon="-78.780251">
        <ele>3462.00</ele>
        <time>2018-09-08T20:28:34Z</time>
      </trkpt>
      <trkpt lat="-2.607422" lon="-78.780251">
        <ele>3462.00</ele>
        <time>2018-09-08T20:28:35Z</time>
      </trkpt>
      <trkpt lat="-2.607422" lon="-78.780251">
        <ele>3462.00</ele>
        <time>2018-09-08T20:28:36Z</time>
      </trkpt>
      <trkpt lat="-2.607422" lon="-78.780251">
        <ele>3462.00</ele>
        <time>2018-09-08T20:28:37Z</time>
      </trkpt>
      <trkpt lat="-2.607423" lon="-78.780251">
        <ele>3462.00</ele>
        <time>2018-09-08T20:28:38Z</time>
      </trkpt>
      <trkpt lat="-2.607423" lon="-78.780251">
        <ele>3462.00</ele>
        <time>2018-09-08T20:28:39Z</time>
      </trkpt>
      <trkpt lat="-2.607424" lon="-78.780251">
        <ele>3462.00</ele>
        <time>2018-09-08T20:28:40Z</time>
      </trkpt>
      <trkpt lat="-2.607424" lon="-78.780251">
        <ele>3462.00</ele>
        <time>2018-09-08T20:28:41Z</time>
      </trkpt>
      <trkpt lat="-2.607424" lon="-78.780251">
        <ele>3462.00</ele>
        <time>2018-09-08T20:28:42Z</time>
      </trkpt>
      <trkpt lat="-2.607424" lon="-78.780251">
        <ele>3462.00</ele>
        <time>2018-09-08T20:28:43Z</time>
      </trkpt>
      <trkpt lat="-2.607424" lon="-78.780251">
        <ele>3462.00</ele>
        <time>2018-09-08T20:28:44Z</time>
      </trkpt>
      <trkpt lat="-2.607424" lon="-78.780251">
        <ele>3462.00</ele>
        <time>2018-09-08T20:28:45Z</time>
      </trkpt>
      <trkpt lat="-2.607425" lon="-78.780251">
        <ele>3462.00</ele>
        <time>2018-09-08T20:28:46Z</time>
      </trkpt>
      <trkpt lat="-2.607425" lon="-78.780251">
        <ele>3462.00</ele>
        <time>2018-09-08T20:28:47Z</time>
      </trkpt>
      <trkpt lat="-2.607424" lon="-78.780251">
        <ele>3462.00</ele>
        <time>2018-09-08T20:28:48Z</time>
      </trkpt>
      <trkpt lat="-2.607425" lon="-78.780251">
        <ele>3462.00</ele>
        <time>2018-09-08T20:28:49Z</time>
      </trkpt>
      <trkpt lat="-2.607425" lon="-78.780251">
        <ele>3462.00</ele>
        <time>2018-09-08T20:28:50Z</time>
      </trkpt>
      <trkpt lat="-2.607425" lon="-78.780251">
        <ele>3462.00</ele>
        <time>2018-09-08T20:28:51Z</time>
      </trkpt>
      <trkpt lat="-2.607425" lon="-78.780251">
        <ele>3462.00</ele>
        <time>2018-09-08T20:28:52Z</time>
      </trkpt>
      <trkpt lat="-2.607425" lon="-78.780251">
        <ele>3462.00</ele>
        <time>2018-09-08T20:28:53Z</time>
      </trkpt>
      <trkpt lat="-2.607425" lon="-78.780251">
        <ele>3462.00</ele>
        <time>2018-09-08T20:28:54Z</time>
      </trkpt>
      <trkpt lat="-2.607425" lon="-78.780251">
        <ele>3462.00</ele>
        <time>2018-09-08T20:28:55Z</time>
      </trkpt>
      <trkpt lat="-2.607425" lon="-78.780251">
        <ele>3462.00</ele>
        <time>2018-09-08T20:28:56Z</time>
      </trkpt>
      <trkpt lat="-2.607424" lon="-78.780251">
        <ele>3462.00</ele>
        <time>2018-09-08T20:28:57Z</time>
      </trkpt>
      <trkpt lat="-2.607424" lon="-78.780251">
        <ele>3462.00</ele>
        <time>2018-09-08T20:28:58Z</time>
      </trkpt>
      <trkpt lat="-2.607424" lon="-78.780258">
        <ele>3462.00</ele>
        <time>2018-09-08T20:28:59Z</time>
      </trkpt>
      <trkpt lat="-2.607424" lon="-78.780258">
        <ele>3462.00</ele>
        <time>2018-09-08T20:29:00Z</time>
      </trkpt>
      <trkpt lat="-2.607424" lon="-78.780258">
        <ele>3462.00</ele>
        <time>2018-09-08T20:29:01Z</time>
      </trkpt>
      <trkpt lat="-2.607424" lon="-78.780258">
        <ele>3462.00</ele>
        <time>2018-09-08T20:29:02Z</time>
      </trkpt>
      <trkpt lat="-2.607424" lon="-78.780258">
        <ele>3462.00</ele>
        <time>2018-09-08T20:29:03Z</time>
      </trkpt>
      <trkpt lat="-2.607424" lon="-78.780258">
        <ele>3462.00</ele>
        <time>2018-09-08T20:29:04Z</time>
      </trkpt>
      <trkpt lat="-2.607423" lon="-78.780258">
        <ele>3462.00</ele>
        <time>2018-09-08T20:29:05Z</time>
      </trkpt>
      <trkpt lat="-2.607421" lon="-78.780258">
        <ele>3462.00</ele>
        <time>2018-09-08T20:29:06Z</time>
      </trkpt>
      <trkpt lat="-2.607420" lon="-78.780258">
        <ele>3462.00</ele>
        <time>2018-09-08T20:29:07Z</time>
      </trkpt>
      <trkpt lat="-2.607418" lon="-78.780266">
        <ele>3462.00</ele>
        <time>2018-09-08T20:29:08Z</time>
      </trkpt>
      <trkpt lat="-2.607418" lon="-78.780266">
        <ele>3462.00</ele>
        <time>2018-09-08T20:29:09Z</time>
      </trkpt>
      <trkpt lat="-2.607418" lon="-78.780266">
        <ele>3462.00</ele>
        <time>2018-09-08T20:29:10Z</time>
      </trkpt>
      <trkpt lat="-2.607418" lon="-78.780266">
        <ele>3462.00</ele>
        <time>2018-09-08T20:29:11Z</time>
      </trkpt>
      <trkpt lat="-2.607418" lon="-78.780266">
        <ele>3462.00</ele>
        <time>2018-09-08T20:29:12Z</time>
      </trkpt>
      <trkpt lat="-2.607418" lon="-78.780266">
        <ele>3462.00</ele>
        <time>2018-09-08T20:29:13Z</time>
      </trkpt>
      <trkpt lat="-2.607418" lon="-78.780266">
        <ele>3462.00</ele>
        <time>2018-09-08T20:29:14Z</time>
      </trkpt>
      <trkpt lat="-2.607418" lon="-78.780258">
        <ele>3462.00</ele>
        <time>2018-09-08T20:29:15Z</time>
      </trkpt>
      <trkpt lat="-2.607418" lon="-78.780266">
        <ele>3462.00</ele>
        <time>2018-09-08T20:29:16Z</time>
      </trkpt>
      <trkpt lat="-2.607418" lon="-78.780266">
        <ele>3462.00</ele>
        <time>2018-09-08T20:29:17Z</time>
      </trkpt>
      <trkpt lat="-2.607419" lon="-78.780266">
        <ele>3462.00</ele>
        <time>2018-09-08T20:29:18Z</time>
      </trkpt>
      <trkpt lat="-2.607418" lon="-78.780266">
        <ele>3462.00</ele>
        <time>2018-09-08T20:29:19Z</time>
      </trkpt>
      <trkpt lat="-2.607418" lon="-78.780266">
        <ele>3462.00</ele>
        <time>2018-09-08T20:29:20Z</time>
      </trkpt>
      <trkpt lat="-2.607418" lon="-78.780266">
        <ele>3462.00</ele>
        <time>2018-09-08T20:29:21Z</time>
      </trkpt>
      <trkpt lat="-2.607419" lon="-78.780266">
        <ele>3462.00</ele>
        <time>2018-09-08T20:29:22Z</time>
      </trkpt>
      <trkpt lat="-2.607418" lon="-78.780266">
        <ele>3462.00</ele>
        <time>2018-09-08T20:29:23Z</time>
      </trkpt>
      <trkpt lat="-2.607415" lon="-78.780273">
        <ele>3462.00</ele>
        <time>2018-09-08T20:29:24Z</time>
      </trkpt>
      <trkpt lat="-2.607415" lon="-78.780273">
        <ele>3462.00</ele>
        <time>2018-09-08T20:29:25Z</time>
      </trkpt>
      <trkpt lat="-2.607415" lon="-78.780273">
        <ele>3462.00</ele>
        <time>2018-09-08T20:29:26Z</time>
      </trkpt>
      <trkpt lat="-2.607415" lon="-78.780273">
        <ele>3462.00</ele>
        <time>2018-09-08T20:29:27Z</time>
      </trkpt>
      <trkpt lat="-2.607415" lon="-78.780273">
        <ele>3462.00</ele>
        <time>2018-09-08T20:29:28Z</time>
      </trkpt>
      <trkpt lat="-2.607415" lon="-78.780273">
        <ele>3462.00</ele>
        <time>2018-09-08T20:29:29Z</time>
      </trkpt>
      <trkpt lat="-2.607415" lon="-78.780273">
        <ele>3462.00</ele>
        <time>2018-09-08T20:29:30Z</time>
      </trkpt>
      <trkpt lat="-2.607415" lon="-78.780273">
        <ele>3462.00</ele>
        <time>2018-09-08T20:29:31Z</time>
      </trkpt>
      <trkpt lat="-2.607415" lon="-78.780273">
        <ele>3462.00</ele>
        <time>2018-09-08T20:29:32Z</time>
      </trkpt>
      <trkpt lat="-2.607415" lon="-78.780273">
        <ele>3462.00</ele>
        <time>2018-09-08T20:29:33Z</time>
      </trkpt>
      <trkpt lat="-2.607416" lon="-78.780273">
        <ele>3462.00</ele>
        <time>2018-09-08T20:29:34Z</time>
      </trkpt>
      <trkpt lat="-2.607416" lon="-78.780273">
        <ele>3462.00</ele>
        <time>2018-09-08T20:29:35Z</time>
      </trkpt>
      <trkpt lat="-2.607417" lon="-78.780273">
        <ele>3462.00</ele>
        <time>2018-09-08T20:29:36Z</time>
      </trkpt>
      <trkpt lat="-2.607417" lon="-78.780273">
        <ele>3462.00</ele>
        <time>2018-09-08T20:29:37Z</time>
      </trkpt>
      <trkpt lat="-2.607419" lon="-78.780273">
        <ele>3462.00</ele>
        <time>2018-09-08T20:29:38Z</time>
      </trkpt>
      <trkpt lat="-2.607419" lon="-78.780273">
        <ele>3462.00</ele>
        <time>2018-09-08T20:29:39Z</time>
      </trkpt>
      <trkpt lat="-2.607420" lon="-78.780273">
        <ele>3462.00</ele>
        <time>2018-09-08T20:29:40Z</time>
      </trkpt>
      <trkpt lat="-2.607420" lon="-78.780273">
        <ele>3462.00</ele>
        <time>2018-09-08T20:29:41Z</time>
      </trkpt>
      <trkpt lat="-2.607422" lon="-78.780273">
        <ele>3462.00</ele>
        <time>2018-09-08T20:29:42Z</time>
      </trkpt>
      <trkpt lat="-2.607422" lon="-78.780273">
        <ele>3462.00</ele>
        <time>2018-09-08T20:29:43Z</time>
      </trkpt>
      <trkpt lat="-2.607423" lon="-78.780273">
        <ele>3462.00</ele>
        <time>2018-09-08T20:29:44Z</time>
      </trkpt>
      <trkpt lat="-2.607423" lon="-78.780273">
        <ele>3462.00</ele>
        <time>2018-09-08T20:29:45Z</time>
      </trkpt>
      <trkpt lat="-2.607423" lon="-78.780273">
        <ele>3462.00</ele>
        <time>2018-09-08T20:29:46Z</time>
      </trkpt>
      <trkpt lat="-2.607423" lon="-78.780273">
        <ele>3462.00</ele>
        <time>2018-09-08T20:29:47Z</time>
      </trkpt>
      <trkpt lat="-2.607424" lon="-78.780273">
        <ele>3462.00</ele>
        <time>2018-09-08T20:29:48Z</time>
      </trkpt>
      <trkpt lat="-2.607424" lon="-78.780273">
        <ele>3462.00</ele>
        <time>2018-09-08T20:29:49Z</time>
      </trkpt>
      <trkpt lat="-2.607424" lon="-78.780273">
        <ele>3462.00</ele>
        <time>2018-09-08T20:29:50Z</time>
      </trkpt>
      <trkpt lat="-2.607424" lon="-78.780273">
        <ele>3462.00</ele>
        <time>2018-09-08T20:29:51Z</time>
      </trkpt>
      <trkpt lat="-2.607424" lon="-78.780273">
        <ele>3462.00</ele>
        <time>2018-09-08T20:29:52Z</time>
      </trkpt>
      <trkpt lat="-2.607424" lon="-78.780273">
        <ele>3462.00</ele>
        <time>2018-09-08T20:29:53Z</time>
      </trkpt>
      <trkpt lat="-2.607425" lon="-78.780273">
        <ele>3462.00</ele>
        <time>2018-09-08T20:29:54Z</time>
      </trkpt>
      <trkpt lat="-2.607425" lon="-78.780273">
        <ele>3462.00</ele>
        <time>2018-09-08T20:29:55Z</time>
      </trkpt>
      <trkpt lat="-2.607426" lon="-78.780273">
        <ele>3462.00</ele>
        <time>2018-09-08T20:29:56Z</time>
      </trkpt>
      <trkpt lat="-2.607426" lon="-78.780273">
        <ele>3462.00</ele>
        <time>2018-09-08T20:29:57Z</time>
      </trkpt>
      <trkpt lat="-2.607426" lon="-78.780273">
        <ele>3462.00</ele>
        <time>2018-09-08T20:29:58Z</time>
      </trkpt>
      <trkpt lat="-2.607426" lon="-78.780273">
        <ele>3462.00</ele>
        <time>2018-09-08T20:29:59Z</time>
      </trkpt>
      <trkpt lat="-2.607425" lon="-78.780273">
        <ele>3462.00</ele>
        <time>2018-09-08T20:30:00Z</time>
      </trkpt>
      <trkpt lat="-2.607426" lon="-78.780273">
        <ele>3462.00</ele>
        <time>2018-09-08T20:30:01Z</time>
      </trkpt>
      <trkpt lat="-2.607426" lon="-78.780273">
        <ele>3462.00</ele>
        <time>2018-09-08T20:30:02Z</time>
      </trkpt>
      <trkpt lat="-2.607425" lon="-78.780273">
        <ele>3462.00</ele>
        <time>2018-09-08T20:30:03Z</time>
      </trkpt>
      <trkpt lat="-2.607425" lon="-78.780273">
        <ele>3462.00</ele>
        <time>2018-09-08T20:30:04Z</time>
      </trkpt>
      <trkpt lat="-2.607425" lon="-78.780273">
        <ele>3462.00</ele>
        <time>2018-09-08T20:30:05Z</time>
      </trkpt>
      <trkpt lat="-2.607425" lon="-78.780273">
        <ele>3462.00</ele>
        <time>2018-09-08T20:30:06Z</time>
      </trkpt>
      <trkpt lat="-2.607426" lon="-78.780273">
        <ele>3462.00</ele>
        <time>2018-09-08T20:30:07Z</time>
      </trkpt>
      <trkpt lat="-2.607426" lon="-78.780273">
        <ele>3462.00</ele>
        <time>2018-09-08T20:30:08Z</time>
      </trkpt>
      <trkpt lat="-2.607426" lon="-78.780273">
        <ele>3462.00</ele>
        <time>2018-09-08T20:30:09Z</time>
      </trkpt>
      <trkpt lat="-2.607426" lon="-78.780273">
        <ele>3462.00</ele>
        <time>2018-09-08T20:30:10Z</time>
      </trkpt>
      <trkpt lat="-2.607427" lon="-78.780273">
        <ele>3462.00</ele>
        <time>2018-09-08T20:30:11Z</time>
      </trkpt>
      <trkpt lat="-2.607427" lon="-78.780273">
        <ele>3462.00</ele>
        <time>2018-09-08T20:30:12Z</time>
      </trkpt>
      <trkpt lat="-2.607428" lon="-78.780273">
        <ele>3462.00</ele>
        <time>2018-09-08T20:30:13Z</time>
      </trkpt>
      <trkpt lat="-2.607428" lon="-78.780273">
        <ele>3462.00</ele>
        <time>2018-09-08T20:30:14Z</time>
      </trkpt>
      <trkpt lat="-2.607428" lon="-78.780273">
        <ele>3462.00</ele>
        <time>2018-09-08T20:30:15Z</time>
      </trkpt>
      <trkpt lat="-2.607428" lon="-78.780273">
        <ele>3462.00</ele>
        <time>2018-09-08T20:30:16Z</time>
      </trkpt>
      <trkpt lat="-2.607429" lon="-78.780273">
        <ele>3462.00</ele>
        <time>2018-09-08T20:30:17Z</time>
      </trkpt>
      <trkpt lat="-2.607429" lon="-78.780273">
        <ele>3462.00</ele>
        <time>2018-09-08T20:30:18Z</time>
      </trkpt>
      <trkpt lat="-2.607429" lon="-78.780273">
        <ele>3462.00</ele>
        <time>2018-09-08T20:30:19Z</time>
      </trkpt>
      <trkpt lat="-2.607429" lon="-78.780273">
        <ele>3462.00</ele>
        <time>2018-09-08T20:30:20Z</time>
      </trkpt>
      <trkpt lat="-2.607429" lon="-78.780273">
        <ele>3462.00</ele>
        <time>2018-09-08T20:30:21Z</time>
      </trkpt>
      <trkpt lat="-2.607429" lon="-78.780273">
        <ele>3462.00</ele>
        <time>2018-09-08T20:30:22Z</time>
      </trkpt>
      <trkpt lat="-2.607429" lon="-78.780273">
        <ele>3462.00</ele>
        <time>2018-09-08T20:30:23Z</time>
      </trkpt>
      <trkpt lat="-2.607429" lon="-78.780273">
        <ele>3462.00</ele>
        <time>2018-09-08T20:30:24Z</time>
      </trkpt>
      <trkpt lat="-2.607429" lon="-78.780273">
        <ele>3462.00</ele>
        <time>2018-09-08T20:30:25Z</time>
      </trkpt>
      <trkpt lat="-2.607430" lon="-78.780273">
        <ele>3462.00</ele>
        <time>2018-09-08T20:30:26Z</time>
      </trkpt>
      <trkpt lat="-2.607430" lon="-78.780273">
        <ele>3462.00</ele>
        <time>2018-09-08T20:30:27Z</time>
      </trkpt>
      <trkpt lat="-2.607430" lon="-78.780273">
        <ele>3462.00</ele>
        <time>2018-09-08T20:30:28Z</time>
      </trkpt>
      <trkpt lat="-2.607430" lon="-78.780273">
        <ele>3462.00</ele>
        <time>2018-09-08T20:30:29Z</time>
      </trkpt>
      <trkpt lat="-2.607430" lon="-78.780273">
        <ele>3462.00</ele>
        <time>2018-09-08T20:30:30Z</time>
      </trkpt>
      <trkpt lat="-2.607430" lon="-78.780273">
        <ele>3462.00</ele>
        <time>2018-09-08T20:30:31Z</time>
      </trkpt>
      <trkpt lat="-2.607430" lon="-78.780273">
        <ele>3462.00</ele>
        <time>2018-09-08T20:30:32Z</time>
      </trkpt>
      <trkpt lat="-2.607430" lon="-78.780273">
        <ele>3462.00</ele>
        <time>2018-09-08T20:30:33Z</time>
      </trkpt>
      <trkpt lat="-2.607430" lon="-78.780273">
        <ele>3462.00</ele>
        <time>2018-09-08T20:30:34Z</time>
      </trkpt>
      <trkpt lat="-2.607429" lon="-78.780273">
        <ele>3462.00</ele>
        <time>2018-09-08T20:30:35Z</time>
      </trkpt>
      <trkpt lat="-2.607429" lon="-78.780273">
        <ele>3462.00</ele>
        <time>2018-09-08T20:30:36Z</time>
      </trkpt>
      <trkpt lat="-2.607429" lon="-78.780273">
        <ele>3462.00</ele>
        <time>2018-09-08T20:30:37Z</time>
      </trkpt>
      <trkpt lat="-2.607429" lon="-78.780273">
        <ele>3462.00</ele>
        <time>2018-09-08T20:30:38Z</time>
      </trkpt>
      <trkpt lat="-2.607429" lon="-78.780273">
        <ele>3462.00</ele>
        <time>2018-09-08T20:30:39Z</time>
      </trkpt>
      <trkpt lat="-2.607429" lon="-78.780273">
        <ele>3462.00</ele>
        <time>2018-09-08T20:30:40Z</time>
      </trkpt>
      <trkpt lat="-2.607429" lon="-78.780273">
        <ele>3462.00</ele>
        <time>2018-09-08T20:30:41Z</time>
      </trkpt>
      <trkpt lat="-2.607429" lon="-78.780273">
        <ele>3462.00</ele>
        <time>2018-09-08T20:30:42Z</time>
      </trkpt>
      <trkpt lat="-2.607429" lon="-78.780273">
        <ele>3462.00</ele>
        <time>2018-09-08T20:30:43Z</time>
      </trkpt>
      <trkpt lat="-2.607429" lon="-78.780273">
        <ele>3462.00</ele>
        <time>2018-09-08T20:30:44Z</time>
      </trkpt>
      <trkpt lat="-2.607429" lon="-78.780273">
        <ele>3462.00</ele>
        <time>2018-09-08T20:30:45Z</time>
      </trkpt>
      <trkpt lat="-2.607430" lon="-78.780273">
        <ele>3462.00</ele>
        <time>2018-09-08T20:30:46Z</time>
      </trkpt>
      <trkpt lat="-2.607431" lon="-78.780273">
        <ele>3462.00</ele>
        <time>2018-09-08T20:30:47Z</time>
      </trkpt>
      <trkpt lat="-2.607434" lon="-78.780273">
        <ele>3462.00</ele>
        <time>2018-09-08T20:30:48Z</time>
      </trkpt>
      <trkpt lat="-2.607435" lon="-78.780273">
        <ele>3462.00</ele>
        <time>2018-09-08T20:30:49Z</time>
      </trkpt>
      <trkpt lat="-2.607435" lon="-78.780273">
        <ele>3462.00</ele>
        <time>2018-09-08T20:30:50Z</time>
      </trkpt>
      <trkpt lat="-2.607433" lon="-78.780273">
        <ele>3462.00</ele>
        <time>2018-09-08T20:30:51Z</time>
      </trkpt>
      <trkpt lat="-2.607430" lon="-78.780281">
        <ele>3462.00</ele>
        <time>2018-09-08T20:30:52Z</time>
      </trkpt>
      <trkpt lat="-2.607429" lon="-78.780273">
        <ele>3462.00</ele>
        <time>2018-09-08T20:30:53Z</time>
      </trkpt>
      <trkpt lat="-2.607429" lon="-78.780273">
        <ele>3462.00</ele>
        <time>2018-09-08T20:30:54Z</time>
      </trkpt>
      <trkpt lat="-2.607429" lon="-78.780273">
        <ele>3462.00</ele>
        <time>2018-09-08T20:30:55Z</time>
      </trkpt>
      <trkpt lat="-2.607429" lon="-78.780273">
        <ele>3462.00</ele>
        <time>2018-09-08T20:30:56Z</time>
      </trkpt>
      <trkpt lat="-2.607429" lon="-78.780273">
        <ele>3462.00</ele>
        <time>2018-09-08T20:30:57Z</time>
      </trkpt>
      <trkpt lat="-2.607429" lon="-78.780273">
        <ele>3462.00</ele>
        <time>2018-09-08T20:30:58Z</time>
      </trkpt>
      <trkpt lat="-2.607429" lon="-78.780273">
        <ele>3462.00</ele>
        <time>2018-09-08T20:30:59Z</time>
      </trkpt>
      <trkpt lat="-2.607429" lon="-78.780273">
        <ele>3462.00</ele>
        <time>2018-09-08T20:31:00Z</time>
      </trkpt>
      <trkpt lat="-2.607429" lon="-78.780273">
        <ele>3462.00</ele>
        <time>2018-09-08T20:31:01Z</time>
      </trkpt>
      <trkpt lat="-2.607430" lon="-78.780273">
        <ele>3462.00</ele>
        <time>2018-09-08T20:31:02Z</time>
      </trkpt>
      <trkpt lat="-2.607430" lon="-78.780273">
        <ele>3462.00</ele>
        <time>2018-09-08T20:31:03Z</time>
      </trkpt>
      <trkpt lat="-2.607429" lon="-78.780273">
        <ele>3462.00</ele>
        <time>2018-09-08T20:31:04Z</time>
      </trkpt>
      <trkpt lat="-2.607429" lon="-78.780273">
        <ele>3462.00</ele>
        <time>2018-09-08T20:31:05Z</time>
      </trkpt>
      <trkpt lat="-2.607430" lon="-78.780273">
        <ele>3462.00</ele>
        <time>2018-09-08T20:31:06Z</time>
      </trkpt>
      <trkpt lat="-2.607430" lon="-78.780273">
        <ele>3462.00</ele>
        <time>2018-09-08T20:31:07Z</time>
      </trkpt>
      <trkpt lat="-2.607430" lon="-78.780273">
        <ele>3462.00</ele>
        <time>2018-09-08T20:31:08Z</time>
      </trkpt>
      <trkpt lat="-2.607430" lon="-78.780273">
        <ele>3462.00</ele>
        <time>2018-09-08T20:31:09Z</time>
      </trkpt>
      <trkpt lat="-2.607430" lon="-78.780273">
        <ele>3462.00</ele>
        <time>2018-09-08T20:31:10Z</time>
      </trkpt>
      <trkpt lat="-2.607430" lon="-78.780273">
        <ele>3462.00</ele>
        <time>2018-09-08T20:31:11Z</time>
      </trkpt>
      <trkpt lat="-2.607430" lon="-78.780273">
        <ele>3462.00</ele>
        <time>2018-09-08T20:31:12Z</time>
      </trkpt>
      <trkpt lat="-2.607430" lon="-78.780273">
        <ele>3462.00</ele>
        <time>2018-09-08T20:31:13Z</time>
      </trkpt>
      <trkpt lat="-2.607430" lon="-78.780273">
        <ele>3462.00</ele>
        <time>2018-09-08T20:31:14Z</time>
      </trkpt>
      <trkpt lat="-2.607430" lon="-78.780273">
        <ele>3462.00</ele>
        <time>2018-09-08T20:31:15Z</time>
      </trkpt>
      <trkpt lat="-2.607430" lon="-78.780273">
        <ele>3462.00</ele>
        <time>2018-09-08T20:31:16Z</time>
      </trkpt>
      <trkpt lat="-2.607429" lon="-78.780273">
        <ele>3462.00</ele>
        <time>2018-09-08T20:31:17Z</time>
      </trkpt>
      <trkpt lat="-2.607428" lon="-78.780273">
        <ele>3462.00</ele>
        <time>2018-09-08T20:31:18Z</time>
      </trkpt>
      <trkpt lat="-2.607429" lon="-78.780273">
        <ele>3462.00</ele>
        <time>2018-09-08T20:31:19Z</time>
      </trkpt>
      <trkpt lat="-2.607429" lon="-78.780273">
        <ele>3462.00</ele>
        <time>2018-09-08T20:31:20Z</time>
      </trkpt>
      <trkpt lat="-2.607429" lon="-78.780273">
        <ele>3462.00</ele>
        <time>2018-09-08T20:31:21Z</time>
      </trkpt>
      <trkpt lat="-2.607430" lon="-78.780273">
        <ele>3462.00</ele>
        <time>2018-09-08T20:31:22Z</time>
      </trkpt>
      <trkpt lat="-2.607430" lon="-78.780273">
        <ele>3462.00</ele>
        <time>2018-09-08T20:31:23Z</time>
      </trkpt>
      <trkpt lat="-2.607430" lon="-78.780273">
        <ele>3462.00</ele>
        <time>2018-09-08T20:31:24Z</time>
      </trkpt>
      <trkpt lat="-2.607430" lon="-78.780273">
        <ele>3462.00</ele>
        <time>2018-09-08T20:31:25Z</time>
      </trkpt>
      <trkpt lat="-2.607430" lon="-78.780273">
        <ele>3462.00</ele>
        <time>2018-09-08T20:31:26Z</time>
      </trkpt>
      <trkpt lat="-2.607429" lon="-78.780273">
        <ele>3462.00</ele>
        <time>2018-09-08T20:31:27Z</time>
      </trkpt>
      <trkpt lat="-2.607430" lon="-78.780273">
        <ele>3462.00</ele>
        <time>2018-09-08T20:31:28Z</time>
      </trkpt>
      <trkpt lat="-2.607431" lon="-78.780273">
        <ele>3462.00</ele>
        <time>2018-09-08T20:31:29Z</time>
      </trkpt>
      <trkpt lat="-2.607430" lon="-78.780273">
        <ele>3462.00</ele>
        <time>2018-09-08T20:31:30Z</time>
      </trkpt>
      <trkpt lat="-2.607431" lon="-78.780273">
        <ele>3462.00</ele>
        <time>2018-09-08T20:31:31Z</time>
      </trkpt>
      <trkpt lat="-2.607431" lon="-78.780273">
        <ele>3462.00</ele>
        <time>2018-09-08T20:31:32Z</time>
      </trkpt>
      <trkpt lat="-2.607431" lon="-78.780273">
        <ele>3462.00</ele>
        <time>2018-09-08T20:31:33Z</time>
      </trkpt>
      <trkpt lat="-2.607431" lon="-78.780273">
        <ele>3462.00</ele>
        <time>2018-09-08T20:31:34Z</time>
      </trkpt>
      <trkpt lat="-2.607431" lon="-78.780273">
        <ele>3462.00</ele>
        <time>2018-09-08T20:31:35Z</time>
      </trkpt>
      <trkpt lat="-2.607431" lon="-78.780273">
        <ele>3462.00</ele>
        <time>2018-09-08T20:31:36Z</time>
      </trkpt>
      <trkpt lat="-2.607431" lon="-78.780273">
        <ele>3462.00</ele>
        <time>2018-09-08T20:31:37Z</time>
      </trkpt>
      <trkpt lat="-2.607431" lon="-78.780273">
        <ele>3462.00</ele>
        <time>2018-09-08T20:31:38Z</time>
      </trkpt>
      <trkpt lat="-2.607431" lon="-78.780273">
        <ele>3462.00</ele>
        <time>2018-09-08T20:31:39Z</time>
      </trkpt>
      <trkpt lat="-2.607431" lon="-78.780273">
        <ele>3462.00</ele>
        <time>2018-09-08T20:31:40Z</time>
      </trkpt>
      <trkpt lat="-2.607431" lon="-78.780273">
        <ele>3462.00</ele>
        <time>2018-09-08T20:31:41Z</time>
      </trkpt>
      <trkpt lat="-2.607431" lon="-78.780273">
        <ele>3462.00</ele>
        <time>2018-09-08T20:31:42Z</time>
      </trkpt>
      <trkpt lat="-2.607432" lon="-78.780273">
        <ele>3462.00</ele>
        <time>2018-09-08T20:31:43Z</time>
      </trkpt>
      <trkpt lat="-2.607432" lon="-78.780273">
        <ele>3462.00</ele>
        <time>2018-09-08T20:31:44Z</time>
      </trkpt>
      <trkpt lat="-2.607432" lon="-78.780273">
        <ele>3462.00</ele>
        <time>2018-09-08T20:31:45Z</time>
      </trkpt>
      <trkpt lat="-2.607432" lon="-78.780273">
        <ele>3462.00</ele>
        <time>2018-09-08T20:31:46Z</time>
      </trkpt>
      <trkpt lat="-2.607432" lon="-78.780273">
        <ele>3462.00</ele>
        <time>2018-09-08T20:31:47Z</time>
      </trkpt>
      <trkpt lat="-2.607433" lon="-78.780273">
        <ele>3462.00</ele>
        <time>2018-09-08T20:31:48Z</time>
      </trkpt>
      <trkpt lat="-2.607432" lon="-78.780273">
        <ele>3462.00</ele>
        <time>2018-09-08T20:31:49Z</time>
      </trkpt>
      <trkpt lat="-2.607433" lon="-78.780273">
        <ele>3462.00</ele>
        <time>2018-09-08T20:31:50Z</time>
      </trkpt>
      <trkpt lat="-2.607433" lon="-78.780273">
        <ele>3462.00</ele>
        <time>2018-09-08T20:31:51Z</time>
      </trkpt>
      <trkpt lat="-2.607433" lon="-78.780273">
        <ele>3462.00</ele>
        <time>2018-09-08T20:31:52Z</time>
      </trkpt>
      <trkpt lat="-2.607433" lon="-78.780273">
        <ele>3462.00</ele>
        <time>2018-09-08T20:31:53Z</time>
      </trkpt>
      <trkpt lat="-2.607433" lon="-78.780273">
        <ele>3462.00</ele>
        <time>2018-09-08T20:31:54Z</time>
      </trkpt>
      <trkpt lat="-2.607433" lon="-78.780273">
        <ele>3462.00</ele>
        <time>2018-09-08T20:31:55Z</time>
      </trkpt>
      <trkpt lat="-2.607433" lon="-78.780273">
        <ele>3462.00</ele>
        <time>2018-09-08T20:31:56Z</time>
      </trkpt>
      <trkpt lat="-2.607433" lon="-78.780273">
        <ele>3462.00</ele>
        <time>2018-09-08T20:31:57Z</time>
      </trkpt>
      <trkpt lat="-2.607433" lon="-78.780273">
        <ele>3462.00</ele>
        <time>2018-09-08T20:31:58Z</time>
      </trkpt>
      <trkpt lat="-2.607434" lon="-78.780273">
        <ele>3462.00</ele>
        <time>2018-09-08T20:31:59Z</time>
      </trkpt>
      <trkpt lat="-2.607433" lon="-78.780273">
        <ele>3462.00</ele>
        <time>2018-09-08T20:32:00Z</time>
      </trkpt>
      <trkpt lat="-2.607434" lon="-78.780273">
        <ele>3462.00</ele>
        <time>2018-09-08T20:32:01Z</time>
      </trkpt>
      <trkpt lat="-2.607434" lon="-78.780273">
        <ele>3462.00</ele>
        <time>2018-09-08T20:32:02Z</time>
      </trkpt>
      <trkpt lat="-2.607434" lon="-78.780273">
        <ele>3462.00</ele>
        <time>2018-09-08T20:32:03Z</time>
      </trkpt>
      <trkpt lat="-2.607434" lon="-78.780273">
        <ele>3462.00</ele>
        <time>2018-09-08T20:32:04Z</time>
      </trkpt>
      <trkpt lat="-2.607434" lon="-78.780273">
        <ele>3462.00</ele>
        <time>2018-09-08T20:32:05Z</time>
      </trkpt>
      <trkpt lat="-2.607434" lon="-78.780273">
        <ele>3462.00</ele>
        <time>2018-09-08T20:32:06Z</time>
      </trkpt>
      <trkpt lat="-2.607435" lon="-78.780273">
        <ele>3462.00</ele>
        <time>2018-09-08T20:32:07Z</time>
      </trkpt>
      <trkpt lat="-2.607435" lon="-78.780273">
        <ele>3462.00</ele>
        <time>2018-09-08T20:32:08Z</time>
      </trkpt>
      <trkpt lat="-2.607435" lon="-78.780273">
        <ele>3462.00</ele>
        <time>2018-09-08T20:32:09Z</time>
      </trkpt>
      <trkpt lat="-2.607434" lon="-78.780273">
        <ele>3462.00</ele>
        <time>2018-09-08T20:32:10Z</time>
      </trkpt>
      <trkpt lat="-2.607435" lon="-78.780273">
        <ele>3462.00</ele>
        <time>2018-09-08T20:32:11Z</time>
      </trkpt>
      <trkpt lat="-2.607435" lon="-78.780273">
        <ele>3462.00</ele>
        <time>2018-09-08T20:32:12Z</time>
      </trkpt>
      <trkpt lat="-2.607435" lon="-78.780273">
        <ele>3462.00</ele>
        <time>2018-09-08T20:32:13Z</time>
      </trkpt>
      <trkpt lat="-2.607435" lon="-78.780273">
        <ele>3462.00</ele>
        <time>2018-09-08T20:32:14Z</time>
      </trkpt>
      <trkpt lat="-2.607435" lon="-78.780273">
        <ele>3462.00</ele>
        <time>2018-09-08T20:32:15Z</time>
      </trkpt>
      <trkpt lat="-2.607434" lon="-78.780273">
        <ele>3462.00</ele>
        <time>2018-09-08T20:32:16Z</time>
      </trkpt>
      <trkpt lat="-2.607435" lon="-78.780273">
        <ele>3462.00</ele>
        <time>2018-09-08T20:32:17Z</time>
      </trkpt>
      <trkpt lat="-2.607435" lon="-78.780273">
        <ele>3462.00</ele>
        <time>2018-09-08T20:32:18Z</time>
      </trkpt>
      <trkpt lat="-2.607435" lon="-78.780273">
        <ele>3462.00</ele>
        <time>2018-09-08T20:32:19Z</time>
      </trkpt>
      <trkpt lat="-2.607435" lon="-78.780273">
        <ele>3462.00</ele>
        <time>2018-09-08T20:32:20Z</time>
      </trkpt>
      <trkpt lat="-2.607435" lon="-78.780273">
        <ele>3462.00</ele>
        <time>2018-09-08T20:32:21Z</time>
      </trkpt>
      <trkpt lat="-2.607435" lon="-78.780273">
        <ele>3462.00</ele>
        <time>2018-09-08T20:32:22Z</time>
      </trkpt>
      <trkpt lat="-2.607435" lon="-78.780273">
        <ele>3462.00</ele>
        <time>2018-09-08T20:32:23Z</time>
      </trkpt>
      <trkpt lat="-2.607435" lon="-78.780273">
        <ele>3462.00</ele>
        <time>2018-09-08T20:32:24Z</time>
      </trkpt>
      <trkpt lat="-2.607435" lon="-78.780273">
        <ele>3462.00</ele>
        <time>2018-09-08T20:32:25Z</time>
      </trkpt>
      <trkpt lat="-2.607435" lon="-78.780273">
        <ele>3462.00</ele>
        <time>2018-09-08T20:32:26Z</time>
      </trkpt>
      <trkpt lat="-2.607435" lon="-78.780273">
        <ele>3462.00</ele>
        <time>2018-09-08T20:32:27Z</time>
      </trkpt>
      <trkpt lat="-2.607435" lon="-78.780273">
        <ele>3462.00</ele>
        <time>2018-09-08T20:32:28Z</time>
      </trkpt>
      <trkpt lat="-2.607435" lon="-78.780273">
        <ele>3462.00</ele>
        <time>2018-09-08T20:32:29Z</time>
      </trkpt>
      <trkpt lat="-2.607435" lon="-78.780273">
        <ele>3462.00</ele>
        <time>2018-09-08T20:32:30Z</time>
      </trkpt>
      <trkpt lat="-2.607435" lon="-78.780273">
        <ele>3462.00</ele>
        <time>2018-09-08T20:32:31Z</time>
      </trkpt>
      <trkpt lat="-2.607435" lon="-78.780273">
        <ele>3462.00</ele>
        <time>2018-09-08T20:32:32Z</time>
      </trkpt>
      <trkpt lat="-2.607435" lon="-78.780273">
        <ele>3462.00</ele>
        <time>2018-09-08T20:32:33Z</time>
      </trkpt>
      <trkpt lat="-2.607435" lon="-78.780273">
        <ele>3462.00</ele>
        <time>2018-09-08T20:32:34Z</time>
      </trkpt>
      <trkpt lat="-2.607435" lon="-78.780273">
        <ele>3462.00</ele>
        <time>2018-09-08T20:32:35Z</time>
      </trkpt>
      <trkpt lat="-2.607435" lon="-78.780273">
        <ele>3462.00</ele>
        <time>2018-09-08T20:32:36Z</time>
      </trkpt>
      <trkpt lat="-2.607435" lon="-78.780273">
        <ele>3462.00</ele>
        <time>2018-09-08T20:32:37Z</time>
      </trkpt>
      <trkpt lat="-2.607435" lon="-78.780273">
        <ele>3462.00</ele>
        <time>2018-09-08T20:32:38Z</time>
      </trkpt>
      <trkpt lat="-2.607435" lon="-78.780273">
        <ele>3462.00</ele>
        <time>2018-09-08T20:32:39Z</time>
      </trkpt>
      <trkpt lat="-2.607435" lon="-78.780273">
        <ele>3462.00</ele>
        <time>2018-09-08T20:32:40Z</time>
      </trkpt>
      <trkpt lat="-2.607435" lon="-78.780273">
        <ele>3462.00</ele>
        <time>2018-09-08T20:32:41Z</time>
      </trkpt>
      <trkpt lat="-2.607435" lon="-78.780273">
        <ele>3462.00</ele>
        <time>2018-09-08T20:32:42Z</time>
      </trkpt>
      <trkpt lat="-2.607435" lon="-78.780273">
        <ele>3462.00</ele>
        <time>2018-09-08T20:32:43Z</time>
      </trkpt>
      <trkpt lat="-2.607435" lon="-78.780273">
        <ele>3462.00</ele>
        <time>2018-09-08T20:32:44Z</time>
      </trkpt>
      <trkpt lat="-2.607435" lon="-78.780273">
        <ele>3462.00</ele>
        <time>2018-09-08T20:32:45Z</time>
      </trkpt>
      <trkpt lat="-2.607434" lon="-78.780273">
        <ele>3462.00</ele>
        <time>2018-09-08T20:32:46Z</time>
      </trkpt>
      <trkpt lat="-2.607434" lon="-78.780273">
        <ele>3462.00</ele>
        <time>2018-09-08T20:32:47Z</time>
      </trkpt>
      <trkpt lat="-2.607433" lon="-78.780273">
        <ele>3462.00</ele>
        <time>2018-09-08T20:32:48Z</time>
      </trkpt>
      <trkpt lat="-2.607433" lon="-78.780273">
        <ele>3462.00</ele>
        <time>2018-09-08T20:32:49Z</time>
      </trkpt>
      <trkpt lat="-2.607433" lon="-78.780273">
        <ele>3462.00</ele>
        <time>2018-09-08T20:32:50Z</time>
      </trkpt>
      <trkpt lat="-2.607433" lon="-78.780273">
        <ele>3462.00</ele>
        <time>2018-09-08T20:32:51Z</time>
      </trkpt>
      <trkpt lat="-2.607433" lon="-78.780273">
        <ele>3462.00</ele>
        <time>2018-09-08T20:32:52Z</time>
      </trkpt>
      <trkpt lat="-2.607433" lon="-78.780273">
        <ele>3462.00</ele>
        <time>2018-09-08T20:32:53Z</time>
      </trkpt>
      <trkpt lat="-2.607433" lon="-78.780273">
        <ele>3462.00</ele>
        <time>2018-09-08T20:32:54Z</time>
      </trkpt>
      <trkpt lat="-2.607433" lon="-78.780273">
        <ele>3462.00</ele>
        <time>2018-09-08T20:32:55Z</time>
      </trkpt>
      <trkpt lat="-2.607433" lon="-78.780273">
        <ele>3462.00</ele>
        <time>2018-09-08T20:32:56Z</time>
      </trkpt>
      <trkpt lat="-2.607433" lon="-78.780273">
        <ele>3462.00</ele>
        <time>2018-09-08T20:32:57Z</time>
      </trkpt>
      <trkpt lat="-2.607433" lon="-78.780273">
        <ele>3462.00</ele>
        <time>2018-09-08T20:32:58Z</time>
      </trkpt>
      <trkpt lat="-2.607433" lon="-78.780273">
        <ele>3462.00</ele>
        <time>2018-09-08T20:32:59Z</time>
      </trkpt>
      <trkpt lat="-2.607433" lon="-78.780273">
        <ele>3462.00</ele>
        <time>2018-09-08T20:33:00Z</time>
      </trkpt>
      <trkpt lat="-2.607434" lon="-78.780273">
        <ele>3462.00</ele>
        <time>2018-09-08T20:33:01Z</time>
      </trkpt>
      <trkpt lat="-2.607434" lon="-78.780273">
        <ele>3462.00</ele>
        <time>2018-09-08T20:33:02Z</time>
      </trkpt>
      <trkpt lat="-2.607434" lon="-78.780273">
        <ele>3462.00</ele>
        <time>2018-09-08T20:33:03Z</time>
      </trkpt>
      <trkpt lat="-2.607434" lon="-78.780273">
        <ele>3462.00</ele>
        <time>2018-09-08T20:33:04Z</time>
      </trkpt>
      <trkpt lat="-2.607434" lon="-78.780273">
        <ele>3462.00</ele>
        <time>2018-09-08T20:33:05Z</time>
      </trkpt>
      <trkpt lat="-2.607434" lon="-78.780273">
        <ele>3462.00</ele>
        <time>2018-09-08T20:33:06Z</time>
      </trkpt>
      <trkpt lat="-2.607434" lon="-78.780273">
        <ele>3462.00</ele>
        <time>2018-09-08T20:33:07Z</time>
      </trkpt>
      <trkpt lat="-2.607434" lon="-78.780273">
        <ele>3462.00</ele>
        <time>2018-09-08T20:33:08Z</time>
      </trkpt>
      <trkpt lat="-2.607434" lon="-78.780273">
        <ele>3462.00</ele>
        <time>2018-09-08T20:33:09Z</time>
      </trkpt>
      <trkpt lat="-2.607434" lon="-78.780273">
        <ele>3462.00</ele>
        <time>2018-09-08T20:33:10Z</time>
      </trkpt>
      <trkpt lat="-2.607434" lon="-78.780273">
        <ele>3462.00</ele>
        <time>2018-09-08T20:33:11Z</time>
      </trkpt>
      <trkpt lat="-2.607434" lon="-78.780273">
        <ele>3462.00</ele>
        <time>2018-09-08T20:33:12Z</time>
      </trkpt>
      <trkpt lat="-2.607435" lon="-78.780273">
        <ele>3462.00</ele>
        <time>2018-09-08T20:33:13Z</time>
      </trkpt>
      <trkpt lat="-2.607435" lon="-78.780273">
        <ele>3462.00</ele>
        <time>2018-09-08T20:33:14Z</time>
      </trkpt>
      <trkpt lat="-2.607435" lon="-78.780273">
        <ele>3462.00</ele>
        <time>2018-09-08T20:33:15Z</time>
      </trkpt>
      <trkpt lat="-2.607435" lon="-78.780273">
        <ele>3462.00</ele>
        <time>2018-09-08T20:33:16Z</time>
      </trkpt>
      <trkpt lat="-2.607435" lon="-78.780273">
        <ele>3462.00</ele>
        <time>2018-09-08T20:33:17Z</time>
      </trkpt>
      <trkpt lat="-2.607435" lon="-78.780273">
        <ele>3462.00</ele>
        <time>2018-09-08T20:33:18Z</time>
      </trkpt>
      <trkpt lat="-2.607435" lon="-78.780273">
        <ele>3462.00</ele>
        <time>2018-09-08T20:33:19Z</time>
      </trkpt>
      <trkpt lat="-2.607435" lon="-78.780273">
        <ele>3462.00</ele>
        <time>2018-09-08T20:33:20Z</time>
      </trkpt>
      <trkpt lat="-2.607435" lon="-78.780273">
        <ele>3462.00</ele>
        <time>2018-09-08T20:33:21Z</time>
      </trkpt>
      <trkpt lat="-2.607435" lon="-78.780273">
        <ele>3462.00</ele>
        <time>2018-09-08T20:33:22Z</time>
      </trkpt>
      <trkpt lat="-2.607436" lon="-78.780273">
        <ele>3462.00</ele>
        <time>2018-09-08T20:33:23Z</time>
      </trkpt>
      <trkpt lat="-2.607436" lon="-78.780273">
        <ele>3462.00</ele>
        <time>2018-09-08T20:33:24Z</time>
      </trkpt>
      <trkpt lat="-2.607436" lon="-78.780273">
        <ele>3462.00</ele>
        <time>2018-09-08T20:33:25Z</time>
      </trkpt>
      <trkpt lat="-2.607437" lon="-78.780273">
        <ele>3462.00</ele>
        <time>2018-09-08T20:33:26Z</time>
      </trkpt>
      <trkpt lat="-2.607437" lon="-78.780273">
        <ele>3462.00</ele>
        <time>2018-09-08T20:33:27Z</time>
      </trkpt>
      <trkpt lat="-2.607438" lon="-78.780273">
        <ele>3462.00</ele>
        <time>2018-09-08T20:33:28Z</time>
      </trkpt>
      <trkpt lat="-2.607440" lon="-78.780273">
        <ele>3462.00</ele>
        <time>2018-09-08T20:33:29Z</time>
      </trkpt>
      <trkpt lat="-2.607445" lon="-78.780281">
        <ele>3462.00</ele>
        <time>2018-09-08T20:33:30Z</time>
      </trkpt>
      <trkpt lat="-2.607455" lon="-78.780296">
        <ele>3462.00</ele>
        <time>2018-09-08T20:33:31Z</time>
      </trkpt>
      <trkpt lat="-2.607463" lon="-78.780304">
        <ele>3462.00</ele>
        <time>2018-09-08T20:33:32Z</time>
      </trkpt>
      <trkpt lat="-2.607465" lon="-78.780312">
        <ele>3462.00</ele>
        <time>2018-09-08T20:33:33Z</time>
      </trkpt>
      <trkpt lat="-2.607466" lon="-78.780319">
        <ele>3462.00</ele>
        <time>2018-09-08T20:33:34Z</time>
      </trkpt>
      <trkpt lat="-2.607468" lon="-78.780319">
        <ele>3462.00</ele>
        <time>2018-09-08T20:33:35Z</time>
      </trkpt>
      <trkpt lat="-2.607470" lon="-78.780319">
        <ele>3462.00</ele>
        <time>2018-09-08T20:33:36Z</time>
      </trkpt>
      <trkpt lat="-2.607470" lon="-78.780319">
        <ele>3462.00</ele>
        <time>2018-09-08T20:33:37Z</time>
      </trkpt>
      <trkpt lat="-2.607470" lon="-78.780319">
        <ele>3462.00</ele>
        <time>2018-09-08T20:33:38Z</time>
      </trkpt>
      <trkpt lat="-2.607470" lon="-78.780319">
        <ele>3462.00</ele>
        <time>2018-09-08T20:33:39Z</time>
      </trkpt>
      <trkpt lat="-2.607470" lon="-78.780319">
        <ele>3462.00</ele>
        <time>2018-09-08T20:33:40Z</time>
      </trkpt>
      <trkpt lat="-2.607470" lon="-78.780319">
        <ele>3462.00</ele>
        <time>2018-09-08T20:33:41Z</time>
      </trkpt>
      <trkpt lat="-2.607471" lon="-78.780319">
        <ele>3462.00</ele>
        <time>2018-09-08T20:33:42Z</time>
      </trkpt>
      <trkpt lat="-2.607465" lon="-78.780327">
        <ele>3462.00</ele>
        <time>2018-09-08T20:33:43Z</time>
      </trkpt>
      <trkpt lat="-2.607454" lon="-78.780327">
        <ele>3462.00</ele>
        <time>2018-09-08T20:33:44Z</time>
      </trkpt>
      <trkpt lat="-2.607437" lon="-78.780327">
        <ele>3462.00</ele>
        <time>2018-09-08T20:33:45Z</time>
      </trkpt>
      <trkpt lat="-2.607404" lon="-78.780334">
        <ele>3462.00</ele>
        <time>2018-09-08T20:33:46Z</time>
      </trkpt>
      <trkpt lat="-2.607345" lon="-78.780327">
        <ele>3462.00</ele>
        <time>2018-09-08T20:33:47Z</time>
      </trkpt>
      <trkpt lat="-2.607270" lon="-78.780312">
        <ele>3462.00</ele>
        <time>2018-09-08T20:33:48Z</time>
      </trkpt>
      <trkpt lat="-2.607198" lon="-78.780304">
        <ele>3462.00</ele>
        <time>2018-09-08T20:33:49Z</time>
      </trkpt>
      <trkpt lat="-2.607113" lon="-78.780273">
        <ele>3462.00</ele>
        <time>2018-09-08T20:33:50Z</time>
      </trkpt>
      <trkpt lat="-2.607030" lon="-78.780258">
        <ele>3462.00</ele>
        <time>2018-09-08T20:33:51Z</time>
      </trkpt>
      <trkpt lat="-2.606972" lon="-78.780228">
        <ele>3462.00</ele>
        <time>2018-09-08T20:33:52Z</time>
      </trkpt>
      <trkpt lat="-2.606916" lon="-78.780190">
        <ele>3462.00</ele>
        <time>2018-09-08T20:33:53Z</time>
      </trkpt>
      <trkpt lat="-2.606861" lon="-78.780121">
        <ele>3462.00</ele>
        <time>2018-09-08T20:33:54Z</time>
      </trkpt>
      <trkpt lat="-2.606815" lon="-78.780090">
        <ele>3462.00</ele>
        <time>2018-09-08T20:33:55Z</time>
      </trkpt>
      <trkpt lat="-2.606788" lon="-78.780060">
        <ele>3462.00</ele>
        <time>2018-09-08T20:33:56Z</time>
      </trkpt>
      <trkpt lat="-2.606762" lon="-78.780014">
        <ele>3462.00</ele>
        <time>2018-09-08T20:33:57Z</time>
      </trkpt>
      <trkpt lat="-2.606714" lon="-78.779976">
        <ele>3462.00</ele>
        <time>2018-09-08T20:33:58Z</time>
      </trkpt>
      <trkpt lat="-2.606662" lon="-78.779930">
        <ele>3462.00</ele>
        <time>2018-09-08T20:33:59Z</time>
      </trkpt>
      <trkpt lat="-2.606598" lon="-78.779877">
        <ele>3462.00</ele>
        <time>2018-09-08T20:34:00Z</time>
      </trkpt>
      <trkpt lat="-2.606534" lon="-78.779808">
        <ele>3462.00</ele>
        <time>2018-09-08T20:34:01Z</time>
      </trkpt>
      <trkpt lat="-2.606476" lon="-78.779732">
        <ele>3462.00</ele>
        <time>2018-09-08T20:34:02Z</time>
      </trkpt>
      <trkpt lat="-2.606427" lon="-78.779671">
        <ele>3462.00</ele>
        <time>2018-09-08T20:34:03Z</time>
      </trkpt>
      <trkpt lat="-2.606393" lon="-78.779617">
        <ele>3462.00</ele>
        <time>2018-09-08T20:34:04Z</time>
      </trkpt>
      <trkpt lat="-2.606363" lon="-78.779572">
        <ele>3462.00</ele>
        <time>2018-09-08T20:34:05Z</time>
      </trkpt>
      <trkpt lat="-2.606321" lon="-78.779518">
        <ele>3462.00</ele>
        <time>2018-09-08T20:34:06Z</time>
      </trkpt>
      <trkpt lat="-2.606272" lon="-78.779457">
        <ele>3462.00</ele>
        <time>2018-09-08T20:34:07Z</time>
      </trkpt>
      <trkpt lat="-2.606219" lon="-78.779381">
        <ele>3462.00</ele>
        <time>2018-09-08T20:34:08Z</time>
      </trkpt>
      <trkpt lat="-2.606158" lon="-78.779297">
        <ele>3462.00</ele>
        <time>2018-09-08T20:34:09Z</time>
      </trkpt>
      <trkpt lat="-2.606102" lon="-78.779221">
        <ele>3462.00</ele>
        <time>2018-09-08T20:34:10Z</time>
      </trkpt>
      <trkpt lat="-2.606041" lon="-78.779152">
        <ele>3462.00</ele>
        <time>2018-09-08T20:34:11Z</time>
      </trkpt>
      <trkpt lat="-2.605986" lon="-78.779114">
        <ele>3462.00</ele>
        <time>2018-09-08T20:34:12Z</time>
      </trkpt>
      <trkpt lat="-2.605944" lon="-78.779076">
        <ele>3462.00</ele>
        <time>2018-09-08T20:34:13Z</time>
      </trkpt>
      <trkpt lat="-2.605914" lon="-78.779060">
        <ele>3462.00</ele>
        <time>2018-09-08T20:34:14Z</time>
      </trkpt>
      <trkpt lat="-2.605878" lon="-78.779037">
        <ele>3462.00</ele>
        <time>2018-09-08T20:34:15Z</time>
      </trkpt>
      <trkpt lat="-2.605839" lon="-78.779037">
        <ele>3462.00</ele>
        <time>2018-09-08T20:34:16Z</time>
      </trkpt>
      <trkpt lat="-2.605798" lon="-78.779037">
        <ele>3463.00</ele>
        <time>2018-09-08T20:34:17Z</time>
      </trkpt>
      <trkpt lat="-2.605751" lon="-78.779045">
        <ele>3463.00</ele>
        <time>2018-09-08T20:34:18Z</time>
      </trkpt>
      <trkpt lat="-2.605699" lon="-78.779060">
        <ele>3463.00</ele>
        <time>2018-09-08T20:34:19Z</time>
      </trkpt>
      <trkpt lat="-2.605631" lon="-78.779037">
        <ele>3463.00</ele>
        <time>2018-09-08T20:34:20Z</time>
      </trkpt>
      <trkpt lat="-2.605553" lon="-78.779030">
        <ele>3463.00</ele>
        <time>2018-09-08T20:34:21Z</time>
      </trkpt>
      <trkpt lat="-2.605467" lon="-78.778999">
        <ele>3463.00</ele>
        <time>2018-09-08T20:34:22Z</time>
      </trkpt>
      <trkpt lat="-2.605381" lon="-78.778946">
        <ele>3464.00</ele>
        <time>2018-09-08T20:34:23Z</time>
      </trkpt>
      <trkpt lat="-2.605301" lon="-78.778862">
        <ele>3464.00</ele>
        <time>2018-09-08T20:34:24Z</time>
      </trkpt>
      <trkpt lat="-2.605231" lon="-78.778763">
        <ele>3464.00</ele>
        <time>2018-09-08T20:34:25Z</time>
      </trkpt>
      <trkpt lat="-2.605167" lon="-78.778664">
        <ele>3464.00</ele>
        <time>2018-09-08T20:34:26Z</time>
      </trkpt>
      <trkpt lat="-2.605121" lon="-78.778549">
        <ele>3464.00</ele>
        <time>2018-09-08T20:34:27Z</time>
      </trkpt>
      <trkpt lat="-2.605093" lon="-78.778450">
        <ele>3464.00</ele>
        <time>2018-09-08T20:34:28Z</time>
      </trkpt>
      <trkpt lat="-2.605059" lon="-78.778381">
        <ele>3465.00</ele>
        <time>2018-09-08T20:34:29Z</time>
      </trkpt>
      <trkpt lat="-2.605001" lon="-78.778328">
        <ele>3465.00</ele>
        <time>2018-09-08T20:34:30Z</time>
      </trkpt>
      <trkpt lat="-2.604913" lon="-78.778305">
        <ele>3465.00</ele>
        <time>2018-09-08T20:34:31Z</time>
      </trkpt>
      <trkpt lat="-2.604803" lon="-78.778275">
        <ele>3465.00</ele>
        <time>2018-09-08T20:34:32Z</time>
      </trkpt>
      <trkpt lat="-2.604671" lon="-78.778259">
        <ele>3465.00</ele>
        <time>2018-09-08T20:34:33Z</time>
      </trkpt>
      <trkpt lat="-2.604542" lon="-78.778236">
        <ele>3466.00</ele>
        <time>2018-09-08T20:34:34Z</time>
      </trkpt>
      <trkpt lat="-2.604423" lon="-78.778221">
        <ele>3466.00</ele>
        <time>2018-09-08T20:34:35Z</time>
      </trkpt>
      <trkpt lat="-2.604302" lon="-78.778198">
        <ele>3466.00</ele>
        <time>2018-09-08T20:34:36Z</time>
      </trkpt>
      <trkpt lat="-2.604192" lon="-78.778183">
        <ele>3467.00</ele>
        <time>2018-09-08T20:34:37Z</time>
      </trkpt>
      <trkpt lat="-2.604088" lon="-78.778175">
        <ele>3467.00</ele>
        <time>2018-09-08T20:34:38Z</time>
      </trkpt>
      <trkpt lat="-2.603990" lon="-78.778152">
        <ele>3468.00</ele>
        <time>2018-09-08T20:34:39Z</time>
      </trkpt>
      <trkpt lat="-2.603909" lon="-78.778122">
        <ele>3468.00</ele>
        <time>2018-09-08T20:34:40Z</time>
      </trkpt>
      <trkpt lat="-2.603846" lon="-78.778107">
        <ele>3468.00</ele>
        <time>2018-09-08T20:34:41Z</time>
      </trkpt>
      <trkpt lat="-2.603792" lon="-78.778084">
        <ele>3468.00</ele>
        <time>2018-09-08T20:34:42Z</time>
      </trkpt>
      <trkpt lat="-2.603741" lon="-78.778053">
        <ele>3468.00</ele>
        <time>2018-09-08T20:34:43Z</time>
      </trkpt>
      <trkpt lat="-2.603695" lon="-78.778015">
        <ele>3469.00</ele>
        <time>2018-09-08T20:34:44Z</time>
      </trkpt>
      <trkpt lat="-2.603654" lon="-78.777985">
        <ele>3469.00</ele>
        <time>2018-09-08T20:34:45Z</time>
      </trkpt>
      <trkpt lat="-2.603627" lon="-78.777954">
        <ele>3469.00</ele>
        <time>2018-09-08T20:34:46Z</time>
      </trkpt>
      <trkpt lat="-2.603601" lon="-78.777924">
        <ele>3469.00</ele>
        <time>2018-09-08T20:34:47Z</time>
      </trkpt>
      <trkpt lat="-2.603574" lon="-78.777885">
        <ele>3469.00</ele>
        <time>2018-09-08T20:34:48Z</time>
      </trkpt>
      <trkpt lat="-2.603550" lon="-78.777855">
        <ele>3469.00</ele>
        <time>2018-09-08T20:34:49Z</time>
      </trkpt>
      <trkpt lat="-2.603536" lon="-78.777840">
        <ele>3469.00</ele>
        <time>2018-09-08T20:34:50Z</time>
      </trkpt>
      <trkpt lat="-2.603526" lon="-78.777832">
        <ele>3469.00</ele>
        <time>2018-09-08T20:34:51Z</time>
      </trkpt>
      <trkpt lat="-2.603520" lon="-78.777832">
        <ele>3469.00</ele>
        <time>2018-09-08T20:34:52Z</time>
      </trkpt>
      <trkpt lat="-2.603508" lon="-78.777817">
        <ele>3469.00</ele>
        <time>2018-09-08T20:34:53Z</time>
      </trkpt>
      <trkpt lat="-2.603490" lon="-78.777794">
        <ele>3469.00</ele>
        <time>2018-09-08T20:34:54Z</time>
      </trkpt>
      <trkpt lat="-2.603470" lon="-78.777779">
        <ele>3469.00</ele>
        <time>2018-09-08T20:34:55Z</time>
      </trkpt>
      <trkpt lat="-2.603451" lon="-78.777763">
        <ele>3469.00</ele>
        <time>2018-09-08T20:34:56Z</time>
      </trkpt>
      <trkpt lat="-2.603434" lon="-78.777733">
        <ele>3469.00</ele>
        <time>2018-09-08T20:34:57Z</time>
      </trkpt>
      <trkpt lat="-2.603424" lon="-78.777725">
        <ele>3469.00</ele>
        <time>2018-09-08T20:34:58Z</time>
      </trkpt>
      <trkpt lat="-2.603424" lon="-78.777725">
        <ele>3469.00</ele>
        <time>2018-09-08T20:34:59Z</time>
      </trkpt>
      <trkpt lat="-2.603424" lon="-78.777725">
        <ele>3469.00</ele>
        <time>2018-09-08T20:35:00Z</time>
      </trkpt>
      <trkpt lat="-2.603424" lon="-78.777725">
        <ele>3469.00</ele>
        <time>2018-09-08T20:35:01Z</time>
      </trkpt>
      <trkpt lat="-2.603424" lon="-78.777725">
        <ele>3469.00</ele>
        <time>2018-09-08T20:35:02Z</time>
      </trkpt>
      <trkpt lat="-2.603424" lon="-78.777725">
        <ele>3469.00</ele>
        <time>2018-09-08T20:35:03Z</time>
      </trkpt>
      <trkpt lat="-2.603424" lon="-78.777725">
        <ele>3469.00</ele>
        <time>2018-09-08T20:35:04Z</time>
      </trkpt>
      <trkpt lat="-2.603424" lon="-78.777725">
        <ele>3469.00</ele>
        <time>2018-09-08T20:35:05Z</time>
      </trkpt>
      <trkpt lat="-2.603418" lon="-78.777718">
        <ele>3469.00</ele>
        <time>2018-09-08T20:35:06Z</time>
      </trkpt>
      <trkpt lat="-2.603407" lon="-78.777710">
        <ele>3469.00</ele>
        <time>2018-09-08T20:35:07Z</time>
      </trkpt>
      <trkpt lat="-2.603380" lon="-78.777679">
        <ele>3470.00</ele>
        <time>2018-09-08T20:35:08Z</time>
      </trkpt>
      <trkpt lat="-2.603336" lon="-78.777626">
        <ele>3471.00</ele>
        <time>2018-09-08T20:35:09Z</time>
      </trkpt>
      <trkpt lat="-2.603275" lon="-78.777557">
        <ele>3471.00</ele>
        <time>2018-09-08T20:35:10Z</time>
      </trkpt>
      <trkpt lat="-2.603206" lon="-78.777481">
        <ele>3472.00</ele>
        <time>2018-09-08T20:35:11Z</time>
      </trkpt>
      <trkpt lat="-2.603132" lon="-78.777412">
        <ele>3472.00</ele>
        <time>2018-09-08T20:35:12Z</time>
      </trkpt>
      <trkpt lat="-2.603062" lon="-78.777336">
        <ele>3472.00</ele>
        <time>2018-09-08T20:35:13Z</time>
      </trkpt>
      <trkpt lat="-2.602996" lon="-78.777245">
        <ele>3473.00</ele>
        <time>2018-09-08T20:35:14Z</time>
      </trkpt>
      <trkpt lat="-2.602940" lon="-78.777145">
        <ele>3473.00</ele>
        <time>2018-09-08T20:35:15Z</time>
      </trkpt>
      <trkpt lat="-2.602895" lon="-78.777046">
        <ele>3473.00</ele>
        <time>2018-09-08T20:35:16Z</time>
      </trkpt>
      <trkpt lat="-2.602868" lon="-78.776962">
        <ele>3473.00</ele>
        <time>2018-09-08T20:35:17Z</time>
      </trkpt>
      <trkpt lat="-2.602841" lon="-78.776871">
        <ele>3473.00</ele>
        <time>2018-09-08T20:35:18Z</time>
      </trkpt>
      <trkpt lat="-2.602819" lon="-78.776794">
        <ele>3474.00</ele>
        <time>2018-09-08T20:35:19Z</time>
      </trkpt>
      <trkpt lat="-2.602793" lon="-78.776711">
        <ele>3474.00</ele>
        <time>2018-09-08T20:35:20Z</time>
      </trkpt>
      <trkpt lat="-2.602754" lon="-78.776642">
        <ele>3474.00</ele>
        <time>2018-09-08T20:35:21Z</time>
      </trkpt>
      <trkpt lat="-2.602696" lon="-78.776558">
        <ele>3474.00</ele>
        <time>2018-09-08T20:35:22Z</time>
      </trkpt>
      <trkpt lat="-2.602614" lon="-78.776489">
        <ele>3474.00</ele>
        <time>2018-09-08T20:35:23Z</time>
      </trkpt>
      <trkpt lat="-2.602532" lon="-78.776421">
        <ele>3474.00</ele>
        <time>2018-09-08T20:35:24Z</time>
      </trkpt>
      <trkpt lat="-2.602463" lon="-78.776321">
        <ele>3474.00</ele>
        <time>2018-09-08T20:35:25Z</time>
      </trkpt>
      <trkpt lat="-2.602402" lon="-78.776215">
        <ele>3474.00</ele>
        <time>2018-09-08T20:35:26Z</time>
      </trkpt>
      <trkpt lat="-2.602340" lon="-78.776123">
        <ele>3474.00</ele>
        <time>2018-09-08T20:35:27Z</time>
      </trkpt>
      <trkpt lat="-2.602282" lon="-78.776054">
        <ele>3474.00</ele>
        <time>2018-09-08T20:35:28Z</time>
      </trkpt>
      <trkpt lat="-2.602220" lon="-78.775970">
        <ele>3474.00</ele>
        <time>2018-09-08T20:35:29Z</time>
      </trkpt>
      <trkpt lat="-2.602152" lon="-78.775887">
        <ele>3474.00</ele>
        <time>2018-09-08T20:35:30Z</time>
      </trkpt>
      <trkpt lat="-2.602091" lon="-78.775826">
        <ele>3473.00</ele>
        <time>2018-09-08T20:35:31Z</time>
      </trkpt>
      <trkpt lat="-2.602036" lon="-78.775749">
        <ele>3473.00</ele>
        <time>2018-09-08T20:35:32Z</time>
      </trkpt>
      <trkpt lat="-2.601984" lon="-78.775688">
        <ele>3472.00</ele>
        <time>2018-09-08T20:35:33Z</time>
      </trkpt>
      <trkpt lat="-2.601913" lon="-78.775620">
        <ele>3472.00</ele>
        <time>2018-09-08T20:35:34Z</time>
      </trkpt>
      <trkpt lat="-2.601829" lon="-78.775536">
        <ele>3471.00</ele>
        <time>2018-09-08T20:35:35Z</time>
      </trkpt>
      <trkpt lat="-2.601750" lon="-78.775452">
        <ele>3471.00</ele>
        <time>2018-09-08T20:35:36Z</time>
      </trkpt>
      <trkpt lat="-2.601678" lon="-78.775368">
        <ele>3471.00</ele>
        <time>2018-09-08T20:35:37Z</time>
      </trkpt>
      <trkpt lat="-2.601624" lon="-78.775314">
        <ele>3470.00</ele>
        <time>2018-09-08T20:35:38Z</time>
      </trkpt>
      <trkpt lat="-2.601582" lon="-78.775284">
        <ele>3470.00</ele>
        <time>2018-09-08T20:35:39Z</time>
      </trkpt>
      <trkpt lat="-2.601529" lon="-78.775246">
        <ele>3470.00</ele>
        <time>2018-09-08T20:35:40Z</time>
      </trkpt>
      <trkpt lat="-2.601448" lon="-78.775200">
        <ele>3470.00</ele>
        <time>2018-09-08T20:35:41Z</time>
      </trkpt>
      <trkpt lat="-2.601343" lon="-78.775154">
        <ele>3469.00</ele>
        <time>2018-09-08T20:35:42Z</time>
      </trkpt>
      <trkpt lat="-2.601233" lon="-78.775101">
        <ele>3469.00</ele>
        <time>2018-09-08T20:35:43Z</time>
      </trkpt>
      <trkpt lat="-2.601122" lon="-78.775047">
        <ele>3469.00</ele>
        <time>2018-09-08T20:35:44Z</time>
      </trkpt>
      <trkpt lat="-2.601015" lon="-78.774994">
        <ele>3469.00</ele>
        <time>2018-09-08T20:35:45Z</time>
      </trkpt>
      <trkpt lat="-2.600915" lon="-78.774948">
        <ele>3469.00</ele>
        <time>2018-09-08T20:35:46Z</time>
      </trkpt>
      <trkpt lat="-2.600824" lon="-78.774887">
        <ele>3469.00</ele>
        <time>2018-09-08T20:35:47Z</time>
      </trkpt>
      <trkpt lat="-2.600740" lon="-78.774826">
        <ele>3469.00</ele>
        <time>2018-09-08T20:35:48Z</time>
      </trkpt>
      <trkpt lat="-2.600670" lon="-78.774765">
        <ele>3469.00</ele>
        <time>2018-09-08T20:35:49Z</time>
      </trkpt>
      <trkpt lat="-2.600590" lon="-78.774704">
        <ele>3469.00</ele>
        <time>2018-09-08T20:35:50Z</time>
      </trkpt>
      <trkpt lat="-2.600500" lon="-78.774643">
        <ele>3469.00</ele>
        <time>2018-09-08T20:35:51Z</time>
      </trkpt>
      <trkpt lat="-2.600409" lon="-78.774574">
        <ele>3469.00</ele>
        <time>2018-09-08T20:35:52Z</time>
      </trkpt>
      <trkpt lat="-2.600322" lon="-78.774506">
        <ele>3469.00</ele>
        <time>2018-09-08T20:35:53Z</time>
      </trkpt>
      <trkpt lat="-2.600255" lon="-78.774414">
        <ele>3469.00</ele>
        <time>2018-09-08T20:35:54Z</time>
      </trkpt>
      <trkpt lat="-2.600201" lon="-78.774330">
        <ele>3469.00</ele>
        <time>2018-09-08T20:35:55Z</time>
      </trkpt>
      <trkpt lat="-2.600141" lon="-78.774231">
        <ele>3469.00</ele>
        <time>2018-09-08T20:35:56Z</time>
      </trkpt>
      <trkpt lat="-2.600082" lon="-78.774139">
        <ele>3469.00</ele>
        <time>2018-09-08T20:35:57Z</time>
      </trkpt>
      <trkpt lat="-2.600026" lon="-78.774055">
        <ele>3468.00</ele>
        <time>2018-09-08T20:35:58Z</time>
      </trkpt>
      <trkpt lat="-2.599974" lon="-78.773964">
        <ele>3468.00</ele>
        <time>2018-09-08T20:35:59Z</time>
      </trkpt>
      <trkpt lat="-2.599929" lon="-78.773888">
        <ele>3468.00</ele>
        <time>2018-09-08T20:36:00Z</time>
      </trkpt>
      <trkpt lat="-2.599894" lon="-78.773781">
        <ele>3468.00</ele>
        <time>2018-09-08T20:36:01Z</time>
      </trkpt>
      <trkpt lat="-2.599848" lon="-78.773682">
        <ele>3468.00</ele>
        <time>2018-09-08T20:36:02Z</time>
      </trkpt>
      <trkpt lat="-2.599786" lon="-78.773582">
        <ele>3468.00</ele>
        <time>2018-09-08T20:36:03Z</time>
      </trkpt>
      <trkpt lat="-2.599706" lon="-78.773483">
        <ele>3468.00</ele>
        <time>2018-09-08T20:36:04Z</time>
      </trkpt>
      <trkpt lat="-2.599588" lon="-78.773407">
        <ele>3468.00</ele>
        <time>2018-09-08T20:36:05Z</time>
      </trkpt>
      <trkpt lat="-2.599473" lon="-78.773361">
        <ele>3468.00</ele>
        <time>2018-09-08T20:36:06Z</time>
      </trkpt>
      <trkpt lat="-2.599364" lon="-78.773331">
        <ele>3468.00</ele>
        <time>2018-09-08T20:36:07Z</time>
      </trkpt>
      <trkpt lat="-2.599263" lon="-78.773308">
        <ele>3468.00</ele>
        <time>2018-09-08T20:36:08Z</time>
      </trkpt>
      <trkpt lat="-2.599165" lon="-78.773293">
        <ele>3468.00</ele>
        <time>2018-09-08T20:36:09Z</time>
      </trkpt>
      <trkpt lat="-2.599074" lon="-78.773277">
        <ele>3468.00</ele>
        <time>2018-09-08T20:36:10Z</time>
      </trkpt>
      <trkpt lat="-2.598987" lon="-78.773254">
        <ele>3468.00</ele>
        <time>2018-09-08T20:36:11Z</time>
      </trkpt>
      <trkpt lat="-2.598890" lon="-78.773224">
        <ele>3468.00</ele>
        <time>2018-09-08T20:36:12Z</time>
      </trkpt>
      <trkpt lat="-2.598783" lon="-78.773201">
        <ele>3467.00</ele>
        <time>2018-09-08T20:36:13Z</time>
      </trkpt>
      <trkpt lat="-2.598657" lon="-78.773186">
        <ele>3467.00</ele>
        <time>2018-09-08T20:36:14Z</time>
      </trkpt>
      <trkpt lat="-2.598518" lon="-78.773163">
        <ele>3467.00</ele>
        <time>2018-09-08T20:36:15Z</time>
      </trkpt>
      <trkpt lat="-2.598388" lon="-78.773148">
        <ele>3467.00</ele>
        <time>2018-09-08T20:36:16Z</time>
      </trkpt>
      <trkpt lat="-2.598259" lon="-78.773117">
        <ele>3467.00</ele>
        <time>2018-09-08T20:36:17Z</time>
      </trkpt>
      <trkpt lat="-2.598141" lon="-78.773087">
        <ele>3468.00</ele>
        <time>2018-09-08T20:36:18Z</time>
      </trkpt>
      <trkpt lat="-2.598020" lon="-78.773056">
        <ele>3468.00</ele>
        <time>2018-09-08T20:36:19Z</time>
      </trkpt>
      <trkpt lat="-2.597905" lon="-78.773048">
        <ele>3468.00</ele>
        <time>2018-09-08T20:36:20Z</time>
      </trkpt>
      <trkpt lat="-2.597812" lon="-78.773026">
        <ele>3469.00</ele>
        <time>2018-09-08T20:36:21Z</time>
      </trkpt>
      <trkpt lat="-2.597733" lon="-78.773003">
        <ele>3469.00</ele>
        <time>2018-09-08T20:36:22Z</time>
      </trkpt>
      <trkpt lat="-2.597669" lon="-78.772957">
        <ele>3469.00</ele>
        <time>2018-09-08T20:36:23Z</time>
      </trkpt>
      <trkpt lat="-2.597608" lon="-78.772888">
        <ele>3469.00</ele>
        <time>2018-09-08T20:36:24Z</time>
      </trkpt>
      <trkpt lat="-2.597550" lon="-78.772812">
        <ele>3469.00</ele>
        <time>2018-09-08T20:36:25Z</time>
      </trkpt>
      <trkpt lat="-2.597492" lon="-78.772713">
        <ele>3470.00</ele>
        <time>2018-09-08T20:36:26Z</time>
      </trkpt>
      <trkpt lat="-2.597440" lon="-78.772606">
        <ele>3470.00</ele>
        <time>2018-09-08T20:36:27Z</time>
      </trkpt>
      <trkpt lat="-2.597381" lon="-78.772499">
        <ele>3470.00</ele>
        <time>2018-09-08T20:36:28Z</time>
      </trkpt>
      <trkpt lat="-2.597315" lon="-78.772392">
        <ele>3469.00</ele>
        <time>2018-09-08T20:36:29Z</time>
      </trkpt>
      <trkpt lat="-2.597248" lon="-78.772293">
        <ele>3469.00</ele>
        <time>2018-09-08T20:36:30Z</time>
      </trkpt>
      <trkpt lat="-2.597183" lon="-78.772194">
        <ele>3469.00</ele>
        <time>2018-09-08T20:36:31Z</time>
      </trkpt>
      <trkpt lat="-2.597131" lon="-78.772118">
        <ele>3469.00</ele>
        <time>2018-09-08T20:36:32Z</time>
      </trkpt>
      <trkpt lat="-2.597068" lon="-78.772057">
        <ele>3469.00</ele>
        <time>2018-09-08T20:36:33Z</time>
      </trkpt>
      <trkpt lat="-2.596998" lon="-78.772003">
        <ele>3469.00</ele>
        <time>2018-09-08T20:36:34Z</time>
      </trkpt>
      <trkpt lat="-2.596923" lon="-78.771980">
        <ele>3469.00</ele>
        <time>2018-09-08T20:36:35Z</time>
      </trkpt>
      <trkpt lat="-2.596857" lon="-78.771980">
        <ele>3469.00</ele>
        <time>2018-09-08T20:36:36Z</time>
      </trkpt>
      <trkpt lat="-2.596803" lon="-78.771988">
        <ele>3469.00</ele>
        <time>2018-09-08T20:36:37Z</time>
      </trkpt>
      <trkpt lat="-2.596803" lon="-78.771988">
        <ele>3469.00</ele>
        <time>2018-09-08T20:36:38Z</time>
      </trkpt>
      <trkpt lat="-2.596803" lon="-78.771988">
        <ele>3469.00</ele>
        <time>2018-09-08T20:36:39Z</time>
      </trkpt>
      <trkpt lat="-2.596756" lon="-78.772003">
        <ele>3469.00</ele>
        <time>2018-09-08T20:36:40Z</time>
      </trkpt>
      <trkpt lat="-2.596731" lon="-78.772018">
        <ele>3469.00</ele>
        <time>2018-09-08T20:36:41Z</time>
      </trkpt>
      <trkpt lat="-2.596680" lon="-78.772018">
        <ele>3469.00</ele>
        <time>2018-09-08T20:36:42Z</time>
      </trkpt>
      <trkpt lat="-2.596601" lon="-78.771988">
        <ele>3469.00</ele>
        <time>2018-09-08T20:36:43Z</time>
      </trkpt>
      <trkpt lat="-2.596514" lon="-78.771957">
        <ele>3469.00</ele>
        <time>2018-09-08T20:36:44Z</time>
      </trkpt>
      <trkpt lat="-2.596435" lon="-78.771881">
        <ele>3469.00</ele>
        <time>2018-09-08T20:36:45Z</time>
      </trkpt>
      <trkpt lat="-2.596363" lon="-78.771805">
        <ele>3468.00</ele>
        <time>2018-09-08T20:36:46Z</time>
      </trkpt>
      <trkpt lat="-2.596291" lon="-78.771721">
        <ele>3468.00</ele>
        <time>2018-09-08T20:36:47Z</time>
      </trkpt>
      <trkpt lat="-2.596209" lon="-78.771645">
        <ele>3468.00</ele>
        <time>2018-09-08T20:36:48Z</time>
      </trkpt>
      <trkpt lat="-2.596129" lon="-78.771561">
        <ele>3467.00</ele>
        <time>2018-09-08T20:36:49Z</time>
      </trkpt>
      <trkpt lat="-2.596061" lon="-78.771492">
        <ele>3467.00</ele>
        <time>2018-09-08T20:36:50Z</time>
      </trkpt>
      <trkpt lat="-2.596001" lon="-78.771416">
        <ele>3467.00</ele>
        <time>2018-09-08T20:36:51Z</time>
      </trkpt>
      <trkpt lat="-2.595952" lon="-78.771339">
        <ele>3466.00</ele>
        <time>2018-09-08T20:36:52Z</time>
      </trkpt>
      <trkpt lat="-2.595918" lon="-78.771255">
        <ele>3466.00</ele>
        <time>2018-09-08T20:36:53Z</time>
      </trkpt>
      <trkpt lat="-2.595903" lon="-78.771149">
        <ele>3466.00</ele>
        <time>2018-09-08T20:36:54Z</time>
      </trkpt>
      <trkpt lat="-2.595898" lon="-78.771049">
        <ele>3465.00</ele>
        <time>2018-09-08T20:36:55Z</time>
      </trkpt>
      <trkpt lat="-2.595898" lon="-78.770958">
        <ele>3465.00</ele>
        <time>2018-09-08T20:36:56Z</time>
      </trkpt>
      <trkpt lat="-2.595886" lon="-78.770889">
        <ele>3465.00</ele>
        <time>2018-09-08T20:36:57Z</time>
      </trkpt>
      <trkpt lat="-2.595873" lon="-78.770828">
        <ele>3464.00</ele>
        <time>2018-09-08T20:36:58Z</time>
      </trkpt>
      <trkpt lat="-2.595858" lon="-78.770767">
        <ele>3464.00</ele>
        <time>2018-09-08T20:36:59Z</time>
      </trkpt>
      <trkpt lat="-2.595823" lon="-78.770721">
        <ele>3463.00</ele>
        <time>2018-09-08T20:37:00Z</time>
      </trkpt>
      <trkpt lat="-2.595772" lon="-78.770691">
        <ele>3463.00</ele>
        <time>2018-09-08T20:37:01Z</time>
      </trkpt>
      <trkpt lat="-2.595698" lon="-78.770683">
        <ele>3462.00</ele>
        <time>2018-09-08T20:37:02Z</time>
      </trkpt>
      <trkpt lat="-2.595607" lon="-78.770721">
        <ele>3462.00</ele>
        <time>2018-09-08T20:37:03Z</time>
      </trkpt>
      <trkpt lat="-2.595502" lon="-78.770775">
        <ele>3461.00</ele>
        <time>2018-09-08T20:37:04Z</time>
      </trkpt>
      <trkpt lat="-2.595389" lon="-78.770821">
        <ele>3461.00</ele>
        <time>2018-09-08T20:37:05Z</time>
      </trkpt>
      <trkpt lat="-2.595287" lon="-78.770844">
        <ele>3461.00</ele>
        <time>2018-09-08T20:37:06Z</time>
      </trkpt>
      <trkpt lat="-2.595197" lon="-78.770859">
        <ele>3460.00</ele>
        <time>2018-09-08T20:37:07Z</time>
      </trkpt>
      <trkpt lat="-2.595118" lon="-78.770859">
        <ele>3460.00</ele>
        <time>2018-09-08T20:37:08Z</time>
      </trkpt>
      <trkpt lat="-2.595038" lon="-78.770859">
        <ele>3460.00</ele>
        <time>2018-09-08T20:37:09Z</time>
      </trkpt>
      <trkpt lat="-2.594956" lon="-78.770836">
        <ele>3460.00</ele>
        <time>2018-09-08T20:37:10Z</time>
      </trkpt>
      <trkpt lat="-2.594887" lon="-78.770767">
        <ele>3459.00</ele>
        <time>2018-09-08T20:37:11Z</time>
      </trkpt>
      <trkpt lat="-2.594825" lon="-78.770683">
        <ele>3459.00</ele>
        <time>2018-09-08T20:37:12Z</time>
      </trkpt>
      <trkpt lat="-2.594767" lon="-78.770607">
        <ele>3459.00</ele>
        <time>2018-09-08T20:37:13Z</time>
      </trkpt>
      <trkpt lat="-2.594709" lon="-78.770546">
        <ele>3459.00</ele>
        <time>2018-09-08T20:37:14Z</time>
      </trkpt>
      <trkpt lat="-2.594632" lon="-78.770508">
        <ele>3458.00</ele>
        <time>2018-09-08T20:37:15Z</time>
      </trkpt>
      <trkpt lat="-2.594555" lon="-78.770493">
        <ele>3458.00</ele>
        <time>2018-09-08T20:37:16Z</time>
      </trkpt>
      <trkpt lat="-2.594487" lon="-78.770462">
        <ele>3457.00</ele>
        <time>2018-09-08T20:37:17Z</time>
      </trkpt>
      <trkpt lat="-2.594438" lon="-78.770454">
        <ele>3456.00</ele>
        <time>2018-09-08T20:37:18Z</time>
      </trkpt>
      <trkpt lat="-2.594389" lon="-78.770439">
        <ele>3455.00</ele>
        <time>2018-09-08T20:37:19Z</time>
      </trkpt>
      <trkpt lat="-2.594342" lon="-78.770493">
        <ele>3454.00</ele>
        <time>2018-09-08T20:37:20Z</time>
      </trkpt>
      <trkpt lat="-2.594295" lon="-78.770546">
        <ele>3452.00</ele>
        <time>2018-09-08T20:37:21Z</time>
      </trkpt>
      <trkpt lat="-2.594255" lon="-78.770615">
        <ele>3450.00</ele>
        <time>2018-09-08T20:37:22Z</time>
      </trkpt>
      <trkpt lat="-2.594206" lon="-78.770699">
        <ele>3448.00</ele>
        <time>2018-09-08T20:37:23Z</time>
      </trkpt>
      <trkpt lat="-2.594163" lon="-78.770782">
        <ele>3446.00</ele>
        <time>2018-09-08T20:37:24Z</time>
      </trkpt>
      <trkpt lat="-2.594132" lon="-78.770828">
        <ele>3445.00</ele>
        <time>2018-09-08T20:37:25Z</time>
      </trkpt>
      <trkpt lat="-2.594104" lon="-78.770882">
        <ele>3443.00</ele>
        <time>2018-09-08T20:37:26Z</time>
      </trkpt>
      <trkpt lat="-2.594074" lon="-78.770905">
        <ele>3441.00</ele>
        <time>2018-09-08T20:37:27Z</time>
      </trkpt>
      <trkpt lat="-2.594022" lon="-78.770897">
        <ele>3439.00</ele>
        <time>2018-09-08T20:37:28Z</time>
      </trkpt>
      <trkpt lat="-2.593959" lon="-78.770874">
        <ele>3437.00</ele>
        <time>2018-09-08T20:37:29Z</time>
      </trkpt>
      <trkpt lat="-2.593896" lon="-78.770836">
        <ele>3435.00</ele>
        <time>2018-09-08T20:37:30Z</time>
      </trkpt>
      <trkpt lat="-2.593853" lon="-78.770775">
        <ele>3434.00</ele>
        <time>2018-09-08T20:37:31Z</time>
      </trkpt>
      <trkpt lat="-2.593822" lon="-78.770699">
        <ele>3432.00</ele>
        <time>2018-09-08T20:37:32Z</time>
      </trkpt>
      <trkpt lat="-2.593798" lon="-78.770622">
        <ele>3431.00</ele>
        <time>2018-09-08T20:37:33Z</time>
      </trkpt>
      <trkpt lat="-2.593781" lon="-78.770554">
        <ele>3429.00</ele>
        <time>2018-09-08T20:37:34Z</time>
      </trkpt>
      <trkpt lat="-2.593778" lon="-78.770470">
        <ele>3428.00</ele>
        <time>2018-09-08T20:37:35Z</time>
      </trkpt>
      <trkpt lat="-2.593780" lon="-78.770393">
        <ele>3427.00</ele>
        <time>2018-09-08T20:37:36Z</time>
      </trkpt>
      <trkpt lat="-2.593781" lon="-78.770302">
        <ele>3427.00</ele>
        <time>2018-09-08T20:37:37Z</time>
      </trkpt>
      <trkpt lat="-2.593748" lon="-78.770210">
        <ele>3426.00</ele>
        <time>2018-09-08T20:37:38Z</time>
      </trkpt>
      <trkpt lat="-2.593709" lon="-78.770126">
        <ele>3425.00</ele>
        <time>2018-09-08T20:37:39Z</time>
      </trkpt>
      <trkpt lat="-2.593680" lon="-78.770035">
        <ele>3425.00</ele>
        <time>2018-09-08T20:37:40Z</time>
      </trkpt>
      <trkpt lat="-2.593669" lon="-78.769974">
        <ele>3424.00</ele>
        <time>2018-09-08T20:37:41Z</time>
      </trkpt>
      <trkpt lat="-2.593650" lon="-78.769913">
        <ele>3423.00</ele>
        <time>2018-09-08T20:37:42Z</time>
      </trkpt>
      <trkpt lat="-2.593623" lon="-78.769852">
        <ele>3422.00</ele>
        <time>2018-09-08T20:37:43Z</time>
      </trkpt>
      <trkpt lat="-2.593592" lon="-78.769775">
        <ele>3421.00</ele>
        <time>2018-09-08T20:37:44Z</time>
      </trkpt>
      <trkpt lat="-2.593565" lon="-78.769676">
        <ele>3421.00</ele>
        <time>2018-09-08T20:37:45Z</time>
      </trkpt>
      <trkpt lat="-2.593539" lon="-78.769585">
        <ele>3420.00</ele>
        <time>2018-09-08T20:37:46Z</time>
      </trkpt>
      <trkpt lat="-2.593516" lon="-78.769508">
        <ele>3419.00</ele>
        <time>2018-09-08T20:37:47Z</time>
      </trkpt>
      <trkpt lat="-2.593488" lon="-78.769447">
        <ele>3418.00</ele>
        <time>2018-09-08T20:37:48Z</time>
      </trkpt>
      <trkpt lat="-2.593452" lon="-78.769379">
        <ele>3418.00</ele>
        <time>2018-09-08T20:37:49Z</time>
      </trkpt>
      <trkpt lat="-2.593422" lon="-78.769318">
        <ele>3417.00</ele>
        <time>2018-09-08T20:37:50Z</time>
      </trkpt>
      <trkpt lat="-2.593381" lon="-78.769257">
        <ele>3416.00</ele>
        <time>2018-09-08T20:37:51Z</time>
      </trkpt>
      <trkpt lat="-2.593326" lon="-78.769211">
        <ele>3415.00</ele>
        <time>2018-09-08T20:37:52Z</time>
      </trkpt>
      <trkpt lat="-2.593267" lon="-78.769173">
        <ele>3413.00</ele>
        <time>2018-09-08T20:37:53Z</time>
      </trkpt>
      <trkpt lat="-2.593199" lon="-78.769135">
        <ele>3412.00</ele>
        <time>2018-09-08T20:37:54Z</time>
      </trkpt>
      <trkpt lat="-2.593123" lon="-78.769104">
        <ele>3411.00</ele>
        <time>2018-09-08T20:37:55Z</time>
      </trkpt>
      <trkpt lat="-2.593050" lon="-78.769058">
        <ele>3410.00</ele>
        <time>2018-09-08T20:37:56Z</time>
      </trkpt>
      <trkpt lat="-2.592975" lon="-78.769005">
        <ele>3408.00</ele>
        <time>2018-09-08T20:37:57Z</time>
      </trkpt>
      <trkpt lat="-2.592905" lon="-78.768959">
        <ele>3405.00</ele>
        <time>2018-09-08T20:37:58Z</time>
      </trkpt>
      <trkpt lat="-2.592849" lon="-78.768883">
        <ele>3402.00</ele>
        <time>2018-09-08T20:37:59Z</time>
      </trkpt>
      <trkpt lat="-2.592773" lon="-78.768814">
        <ele>3400.00</ele>
        <time>2018-09-08T20:38:00Z</time>
      </trkpt>
      <trkpt lat="-2.592667" lon="-78.768784">
        <ele>3398.00</ele>
        <time>2018-09-08T20:38:01Z</time>
      </trkpt>
      <trkpt lat="-2.592552" lon="-78.768745">
        <ele>3396.00</ele>
        <time>2018-09-08T20:38:02Z</time>
      </trkpt>
      <trkpt lat="-2.592449" lon="-78.768692">
        <ele>3395.00</ele>
        <time>2018-09-08T20:38:03Z</time>
      </trkpt>
      <trkpt lat="-2.592359" lon="-78.768631">
        <ele>3393.00</ele>
        <time>2018-09-08T20:38:04Z</time>
      </trkpt>
      <trkpt lat="-2.592287" lon="-78.768555">
        <ele>3392.00</ele>
        <time>2018-09-08T20:38:05Z</time>
      </trkpt>
      <trkpt lat="-2.592226" lon="-78.768471">
        <ele>3392.00</ele>
        <time>2018-09-08T20:38:06Z</time>
      </trkpt>
      <trkpt lat="-2.592153" lon="-78.768410">
        <ele>3391.00</ele>
        <time>2018-09-08T20:38:07Z</time>
      </trkpt>
      <trkpt lat="-2.592081" lon="-78.768349">
        <ele>3390.00</ele>
        <time>2018-09-08T20:38:08Z</time>
      </trkpt>
      <trkpt lat="-2.592005" lon="-78.768295">
        <ele>3390.00</ele>
        <time>2018-09-08T20:38:09Z</time>
      </trkpt>
      <trkpt lat="-2.591918" lon="-78.768257">
        <ele>3389.00</ele>
        <time>2018-09-08T20:38:10Z</time>
      </trkpt>
      <trkpt lat="-2.591832" lon="-78.768204">
        <ele>3388.00</ele>
        <time>2018-09-08T20:38:11Z</time>
      </trkpt>
      <trkpt lat="-2.591748" lon="-78.768181">
        <ele>3387.00</ele>
        <time>2018-09-08T20:38:12Z</time>
      </trkpt>
      <trkpt lat="-2.591672" lon="-78.768166">
        <ele>3387.00</ele>
        <time>2018-09-08T20:38:13Z</time>
      </trkpt>
      <trkpt lat="-2.591611" lon="-78.768166">
        <ele>3386.00</ele>
        <time>2018-09-08T20:38:14Z</time>
      </trkpt>
      <trkpt lat="-2.591561" lon="-78.768158">
        <ele>3386.00</ele>
        <time>2018-09-08T20:38:15Z</time>
      </trkpt>
      <trkpt lat="-2.591519" lon="-78.768143">
        <ele>3386.00</ele>
        <time>2018-09-08T20:38:16Z</time>
      </trkpt>
      <trkpt lat="-2.591464" lon="-78.768127">
        <ele>3385.00</ele>
        <time>2018-09-08T20:38:17Z</time>
      </trkpt>
      <trkpt lat="-2.591406" lon="-78.768089">
        <ele>3385.00</ele>
        <time>2018-09-08T20:38:18Z</time>
      </trkpt>
      <trkpt lat="-2.591344" lon="-78.768051">
        <ele>3385.00</ele>
        <time>2018-09-08T20:38:19Z</time>
      </trkpt>
      <trkpt lat="-2.591286" lon="-78.767990">
        <ele>3384.00</ele>
        <time>2018-09-08T20:38:20Z</time>
      </trkpt>
      <trkpt lat="-2.591247" lon="-78.767914">
        <ele>3384.00</ele>
        <time>2018-09-08T20:38:21Z</time>
      </trkpt>
      <trkpt lat="-2.591187" lon="-78.767838">
        <ele>3384.00</ele>
        <time>2018-09-08T20:38:22Z</time>
      </trkpt>
      <trkpt lat="-2.591100" lon="-78.767784">
        <ele>3383.00</ele>
        <time>2018-09-08T20:38:23Z</time>
      </trkpt>
      <trkpt lat="-2.591008" lon="-78.767761">
        <ele>3383.00</ele>
        <time>2018-09-08T20:38:24Z</time>
      </trkpt>
      <trkpt lat="-2.590923" lon="-78.767715">
        <ele>3383.00</ele>
        <time>2018-09-08T20:38:25Z</time>
      </trkpt>
      <trkpt lat="-2.590842" lon="-78.767677">
        <ele>3382.00</ele>
        <time>2018-09-08T20:38:26Z</time>
      </trkpt>
      <trkpt lat="-2.590777" lon="-78.767624">
        <ele>3382.00</ele>
        <time>2018-09-08T20:38:27Z</time>
      </trkpt>
      <trkpt lat="-2.590726" lon="-78.767586">
        <ele>3382.00</ele>
        <time>2018-09-08T20:38:28Z</time>
      </trkpt>
      <trkpt lat="-2.590685" lon="-78.767532">
        <ele>3382.00</ele>
        <time>2018-09-08T20:38:29Z</time>
      </trkpt>
      <trkpt lat="-2.590661" lon="-78.767479">
        <ele>3382.00</ele>
        <time>2018-09-08T20:38:30Z</time>
      </trkpt>
      <trkpt lat="-2.590649" lon="-78.767426">
        <ele>3382.00</ele>
        <time>2018-09-08T20:38:31Z</time>
      </trkpt>
      <trkpt lat="-2.590628" lon="-78.767372">
        <ele>3381.00</ele>
        <time>2018-09-08T20:38:32Z</time>
      </trkpt>
      <trkpt lat="-2.590614" lon="-78.767303">
        <ele>3381.00</ele>
        <time>2018-09-08T20:38:33Z</time>
      </trkpt>
      <trkpt lat="-2.590608" lon="-78.767227">
        <ele>3381.00</ele>
        <time>2018-09-08T20:38:34Z</time>
      </trkpt>
      <trkpt lat="-2.590598" lon="-78.767136">
        <ele>3381.00</ele>
        <time>2018-09-08T20:38:35Z</time>
      </trkpt>
      <trkpt lat="-2.590574" lon="-78.767059">
        <ele>3381.00</ele>
        <time>2018-09-08T20:38:36Z</time>
      </trkpt>
      <trkpt lat="-2.590533" lon="-78.766968">
        <ele>3381.00</ele>
        <time>2018-09-08T20:38:37Z</time>
      </trkpt>
      <trkpt lat="-2.590489" lon="-78.766891">
        <ele>3381.00</ele>
        <time>2018-09-08T20:38:38Z</time>
      </trkpt>
      <trkpt lat="-2.590439" lon="-78.766815">
        <ele>3380.00</ele>
        <time>2018-09-08T20:38:39Z</time>
      </trkpt>
      <trkpt lat="-2.590361" lon="-78.766785">
        <ele>3380.00</ele>
        <time>2018-09-08T20:38:40Z</time>
      </trkpt>
      <trkpt lat="-2.590281" lon="-78.766785">
        <ele>3381.00</ele>
        <time>2018-09-08T20:38:41Z</time>
      </trkpt>
      <trkpt lat="-2.590223" lon="-78.766808">
        <ele>3381.00</ele>
        <time>2018-09-08T20:38:42Z</time>
      </trkpt>
      <trkpt lat="-2.590218" lon="-78.766853">
        <ele>3381.00</ele>
        <time>2018-09-08T20:38:43Z</time>
      </trkpt>
      <trkpt lat="-2.590249" lon="-78.766899">
        <ele>3381.00</ele>
        <time>2018-09-08T20:38:44Z</time>
      </trkpt>
      <trkpt lat="-2.590257" lon="-78.766975">
        <ele>3380.00</ele>
        <time>2018-09-08T20:38:45Z</time>
      </trkpt>
      <trkpt lat="-2.590234" lon="-78.767052">
        <ele>3380.00</ele>
        <time>2018-09-08T20:38:46Z</time>
      </trkpt>
      <trkpt lat="-2.590208" lon="-78.767105">
        <ele>3380.00</ele>
        <time>2018-09-08T20:38:47Z</time>
      </trkpt>
      <trkpt lat="-2.590185" lon="-78.767136">
        <ele>3380.00</ele>
        <time>2018-09-08T20:38:48Z</time>
      </trkpt>
      <trkpt lat="-2.590160" lon="-78.767166">
        <ele>3380.00</ele>
        <time>2018-09-08T20:38:49Z</time>
      </trkpt>
      <trkpt lat="-2.590127" lon="-78.767189">
        <ele>3380.00</ele>
        <time>2018-09-08T20:38:50Z</time>
      </trkpt>
      <trkpt lat="-2.590070" lon="-78.767174">
        <ele>3380.00</ele>
        <time>2018-09-08T20:38:51Z</time>
      </trkpt>
      <trkpt lat="-2.589973" lon="-78.767136">
        <ele>3380.00</ele>
        <time>2018-09-08T20:38:52Z</time>
      </trkpt>
      <trkpt lat="-2.589868" lon="-78.767090">
        <ele>3380.00</ele>
        <time>2018-09-08T20:38:53Z</time>
      </trkpt>
      <trkpt lat="-2.589771" lon="-78.767059">
        <ele>3380.00</ele>
        <time>2018-09-08T20:38:54Z</time>
      </trkpt>
      <trkpt lat="-2.589676" lon="-78.767029">
        <ele>3381.00</ele>
        <time>2018-09-08T20:38:55Z</time>
      </trkpt>
      <trkpt lat="-2.589587" lon="-78.767036">
        <ele>3381.00</ele>
        <time>2018-09-08T20:38:56Z</time>
      </trkpt>
      <trkpt lat="-2.589512" lon="-78.767006">
        <ele>3381.00</ele>
        <time>2018-09-08T20:38:57Z</time>
      </trkpt>
      <trkpt lat="-2.589448" lon="-78.766945">
        <ele>3381.00</ele>
        <time>2018-09-08T20:38:58Z</time>
      </trkpt>
      <trkpt lat="-2.589375" lon="-78.766876">
        <ele>3381.00</ele>
        <time>2018-09-08T20:38:59Z</time>
      </trkpt>
      <trkpt lat="-2.589287" lon="-78.766838">
        <ele>3381.00</ele>
        <time>2018-09-08T20:39:00Z</time>
      </trkpt>
      <trkpt lat="-2.589180" lon="-78.766846">
        <ele>3381.00</ele>
        <time>2018-09-08T20:39:01Z</time>
      </trkpt>
      <trkpt lat="-2.589069" lon="-78.766861">
        <ele>3382.00</ele>
        <time>2018-09-08T20:39:02Z</time>
      </trkpt>
      <trkpt lat="-2.588963" lon="-78.766876">
        <ele>3382.00</ele>
        <time>2018-09-08T20:39:03Z</time>
      </trkpt>
      <trkpt lat="-2.588863" lon="-78.766930">
        <ele>3382.00</ele>
        <time>2018-09-08T20:39:04Z</time>
      </trkpt>
      <trkpt lat="-2.588773" lon="-78.766998">
        <ele>3382.00</ele>
        <time>2018-09-08T20:39:05Z</time>
      </trkpt>
      <trkpt lat="-2.588674" lon="-78.767006">
        <ele>3383.00</ele>
        <time>2018-09-08T20:39:06Z</time>
      </trkpt>
      <trkpt lat="-2.588582" lon="-78.766968">
        <ele>3383.00</ele>
        <time>2018-09-08T20:39:07Z</time>
      </trkpt>
      <trkpt lat="-2.588500" lon="-78.766930">
        <ele>3383.00</ele>
        <time>2018-09-08T20:39:08Z</time>
      </trkpt>
      <trkpt lat="-2.588428" lon="-78.766891">
        <ele>3383.00</ele>
        <time>2018-09-08T20:39:09Z</time>
      </trkpt>
      <trkpt lat="-2.588368" lon="-78.766830">
        <ele>3383.00</ele>
        <time>2018-09-08T20:39:10Z</time>
      </trkpt>
      <trkpt lat="-2.588295" lon="-78.766762">
        <ele>3383.00</ele>
        <time>2018-09-08T20:39:11Z</time>
      </trkpt>
      <trkpt lat="-2.588209" lon="-78.766731">
        <ele>3383.00</ele>
        <time>2018-09-08T20:39:12Z</time>
      </trkpt>
      <trkpt lat="-2.588115" lon="-78.766701">
        <ele>3383.00</ele>
        <time>2018-09-08T20:39:13Z</time>
      </trkpt>
      <trkpt lat="-2.588016" lon="-78.766693">
        <ele>3384.00</ele>
        <time>2018-09-08T20:39:14Z</time>
      </trkpt>
      <trkpt lat="-2.587909" lon="-78.766701">
        <ele>3384.00</ele>
        <time>2018-09-08T20:39:15Z</time>
      </trkpt>
      <trkpt lat="-2.587818" lon="-78.766724">
        <ele>3384.00</ele>
        <time>2018-09-08T20:39:16Z</time>
      </trkpt>
      <trkpt lat="-2.587741" lon="-78.766739">
        <ele>3384.00</ele>
        <time>2018-09-08T20:39:17Z</time>
      </trkpt>
      <trkpt lat="-2.587673" lon="-78.766754">
        <ele>3384.00</ele>
        <time>2018-09-08T20:39:18Z</time>
      </trkpt>
      <trkpt lat="-2.587616" lon="-78.766762">
        <ele>3385.00</ele>
        <time>2018-09-08T20:39:19Z</time>
      </trkpt>
      <trkpt lat="-2.587616" lon="-78.766762">
        <ele>3385.00</ele>
        <time>2018-09-08T20:39:20Z</time>
      </trkpt>
      <trkpt lat="-2.587616" lon="-78.766762">
        <ele>3385.00</ele>
        <time>2018-09-08T20:39:21Z</time>
      </trkpt>
      <trkpt lat="-2.587616" lon="-78.766762">
        <ele>3385.00</ele>
        <time>2018-09-08T20:39:22Z</time>
      </trkpt>
      <trkpt lat="-2.587616" lon="-78.766762">
        <ele>3385.00</ele>
        <time>2018-09-08T20:39:23Z</time>
      </trkpt>
      <trkpt lat="-2.587616" lon="-78.766762">
        <ele>3385.00</ele>
        <time>2018-09-08T20:39:24Z</time>
      </trkpt>
      <trkpt lat="-2.587616" lon="-78.766762">
        <ele>3385.00</ele>
        <time>2018-09-08T20:39:25Z</time>
      </trkpt>
      <trkpt lat="-2.587616" lon="-78.766762">
        <ele>3385.00</ele>
        <time>2018-09-08T20:39:26Z</time>
      </trkpt>
      <trkpt lat="-2.587616" lon="-78.766762">
        <ele>3385.00</ele>
        <time>2018-09-08T20:39:27Z</time>
      </trkpt>
      <trkpt lat="-2.587616" lon="-78.766762">
        <ele>3385.00</ele>
        <time>2018-09-08T20:39:28Z</time>
      </trkpt>
      <trkpt lat="-2.587616" lon="-78.766762">
        <ele>3385.00</ele>
        <time>2018-09-08T20:39:29Z</time>
      </trkpt>
      <trkpt lat="-2.587616" lon="-78.766762">
        <ele>3386.00</ele>
        <time>2018-09-08T20:39:30Z</time>
      </trkpt>
      <trkpt lat="-2.587616" lon="-78.766762">
        <ele>3386.00</ele>
        <time>2018-09-08T20:39:31Z</time>
      </trkpt>
      <trkpt lat="-2.587616" lon="-78.766762">
        <ele>3386.00</ele>
        <time>2018-09-08T20:39:32Z</time>
      </trkpt>
      <trkpt lat="-2.587616" lon="-78.766762">
        <ele>3386.00</ele>
        <time>2018-09-08T20:39:33Z</time>
      </trkpt>
      <trkpt lat="-2.587616" lon="-78.766762">
        <ele>3386.00</ele>
        <time>2018-09-08T20:39:34Z</time>
      </trkpt>
      <trkpt lat="-2.587616" lon="-78.766762">
        <ele>3386.00</ele>
        <time>2018-09-08T20:39:35Z</time>
      </trkpt>
      <trkpt lat="-2.587616" lon="-78.766762">
        <ele>3386.00</ele>
        <time>2018-09-08T20:39:36Z</time>
      </trkpt>
      <trkpt lat="-2.587616" lon="-78.766762">
        <ele>3386.00</ele>
        <time>2018-09-08T20:39:37Z</time>
      </trkpt>
      <trkpt lat="-2.587616" lon="-78.766762">
        <ele>3386.00</ele>
        <time>2018-09-08T20:39:38Z</time>
      </trkpt>
      <trkpt lat="-2.587616" lon="-78.766762">
        <ele>3386.00</ele>
        <time>2018-09-08T20:39:39Z</time>
      </trkpt>
      <trkpt lat="-2.587616" lon="-78.766762">
        <ele>3386.00</ele>
        <time>2018-09-08T20:39:40Z</time>
      </trkpt>
      <trkpt lat="-2.587616" lon="-78.766762">
        <ele>3386.00</ele>
        <time>2018-09-08T20:39:41Z</time>
      </trkpt>
      <trkpt lat="-2.587616" lon="-78.766762">
        <ele>3386.00</ele>
        <time>2018-09-08T20:39:42Z</time>
      </trkpt>
      <trkpt lat="-2.587616" lon="-78.766762">
        <ele>3386.00</ele>
        <time>2018-09-08T20:39:43Z</time>
      </trkpt>
      <trkpt lat="-2.587616" lon="-78.766762">
        <ele>3386.00</ele>
        <time>2018-09-08T20:39:44Z</time>
      </trkpt>
      <trkpt lat="-2.587616" lon="-78.766762">
        <ele>3386.00</ele>
        <time>2018-09-08T20:39:45Z</time>
      </trkpt>
      <trkpt lat="-2.587616" lon="-78.766762">
        <ele>3387.00</ele>
        <time>2018-09-08T20:39:46Z</time>
      </trkpt>
      <trkpt lat="-2.587616" lon="-78.766762">
        <ele>3387.00</ele>
        <time>2018-09-08T20:39:47Z</time>
      </trkpt>
      <trkpt lat="-2.587616" lon="-78.766762">
        <ele>3387.00</ele>
        <time>2018-09-08T20:39:48Z</time>
      </trkpt>
      <trkpt lat="-2.587437" lon="-78.766792">
        <ele>3412.00</ele>
        <time>2018-09-08T20:42:31Z</time>
      </trkpt>
      <trkpt lat="-2.587348" lon="-78.766800">
        <ele>3412.00</ele>
        <time>2018-09-08T20:42:32Z</time>
      </trkpt>
      <trkpt lat="-2.587258" lon="-78.766815">
        <ele>3412.00</ele>
        <time>2018-09-08T20:42:33Z</time>
      </trkpt>
      <trkpt lat="-2.587168" lon="-78.766830">
        <ele>3413.00</ele>
        <time>2018-09-08T20:42:34Z</time>
      </trkpt>
      <trkpt lat="-2.587080" lon="-78.766808">
        <ele>3413.00</ele>
        <time>2018-09-08T20:42:35Z</time>
      </trkpt>
      <trkpt lat="-2.587002" lon="-78.766739">
        <ele>3413.00</ele>
        <time>2018-09-08T20:42:36Z</time>
      </trkpt>
      <trkpt lat="-2.586934" lon="-78.766655">
        <ele>3413.00</ele>
        <time>2018-09-08T20:42:37Z</time>
      </trkpt>
      <trkpt lat="-2.586848" lon="-78.766594">
        <ele>3413.00</ele>
        <time>2018-09-08T20:42:38Z</time>
      </trkpt>
      <trkpt lat="-2.586746" lon="-78.766548">
        <ele>3413.00</ele>
        <time>2018-09-08T20:42:39Z</time>
      </trkpt>
      <trkpt lat="-2.586649" lon="-78.766487">
        <ele>3413.00</ele>
        <time>2018-09-08T20:42:40Z</time>
      </trkpt>
      <trkpt lat="-2.586563" lon="-78.766403">
        <ele>3413.00</ele>
        <time>2018-09-08T20:42:41Z</time>
      </trkpt>
      <trkpt lat="-2.586506" lon="-78.766312">
        <ele>3413.00</ele>
        <time>2018-09-08T20:42:42Z</time>
      </trkpt>
      <trkpt lat="-2.586456" lon="-78.766243">
        <ele>3413.00</ele>
        <time>2018-09-08T20:42:43Z</time>
      </trkpt>
      <trkpt lat="-2.586384" lon="-78.766205">
        <ele>3413.00</ele>
        <time>2018-09-08T20:42:44Z</time>
      </trkpt>
      <trkpt lat="-2.586291" lon="-78.766167">
        <ele>3413.00</ele>
        <time>2018-09-08T20:42:45Z</time>
      </trkpt>
      <trkpt lat="-2.586182" lon="-78.766144">
        <ele>3413.00</ele>
        <time>2018-09-08T20:42:46Z</time>
      </trkpt>
      <trkpt lat="-2.586069" lon="-78.766121">
        <ele>3412.00</ele>
        <time>2018-09-08T20:42:47Z</time>
      </trkpt>
      <trkpt lat="-2.585961" lon="-78.766113">
        <ele>3413.00</ele>
        <time>2018-09-08T20:42:48Z</time>
      </trkpt>
      <trkpt lat="-2.585873" lon="-78.766083">
        <ele>3413.00</ele>
        <time>2018-09-08T20:42:49Z</time>
      </trkpt>
      <trkpt lat="-2.585806" lon="-78.766006">
        <ele>3413.00</ele>
        <time>2018-09-08T20:42:50Z</time>
      </trkpt>
      <trkpt lat="-2.585771" lon="-78.765930">
        <ele>3413.00</ele>
        <time>2018-09-08T20:42:51Z</time>
      </trkpt>
      <trkpt lat="-2.585754" lon="-78.765831">
        <ele>3413.00</ele>
        <time>2018-09-08T20:42:52Z</time>
      </trkpt>
      <trkpt lat="-2.585726" lon="-78.765739">
        <ele>3414.00</ele>
        <time>2018-09-08T20:42:53Z</time>
      </trkpt>
      <trkpt lat="-2.585674" lon="-78.765656">
        <ele>3414.00</ele>
        <time>2018-09-08T20:42:54Z</time>
      </trkpt>
      <trkpt lat="-2.585612" lon="-78.765572">
        <ele>3414.00</ele>
        <time>2018-09-08T20:42:55Z</time>
      </trkpt>
      <trkpt lat="-2.585592" lon="-78.765465">
        <ele>3414.00</ele>
        <time>2018-09-08T20:42:56Z</time>
      </trkpt>
      <trkpt lat="-2.585594" lon="-78.765350">
        <ele>3415.00</ele>
        <time>2018-09-08T20:42:57Z</time>
      </trkpt>
      <trkpt lat="-2.585605" lon="-78.765236">
        <ele>3415.00</ele>
        <time>2018-09-08T20:42:58Z</time>
      </trkpt>
      <trkpt lat="-2.585614" lon="-78.765129">
        <ele>3415.00</ele>
        <time>2018-09-08T20:42:59Z</time>
      </trkpt>
      <trkpt lat="-2.585598" lon="-78.765030">
        <ele>3415.00</ele>
        <time>2018-09-08T20:43:00Z</time>
      </trkpt>
      <trkpt lat="-2.585571" lon="-78.764954">
        <ele>3416.00</ele>
        <time>2018-09-08T20:43:01Z</time>
      </trkpt>
      <trkpt lat="-2.585515" lon="-78.764877">
        <ele>3416.00</ele>
        <time>2018-09-08T20:43:02Z</time>
      </trkpt>
      <trkpt lat="-2.585415" lon="-78.764847">
        <ele>3416.00</ele>
        <time>2018-09-08T20:43:03Z</time>
      </trkpt>
      <trkpt lat="-2.585304" lon="-78.764809">
        <ele>3417.00</ele>
        <time>2018-09-08T20:43:04Z</time>
      </trkpt>
      <trkpt lat="-2.585191" lon="-78.764763">
        <ele>3417.00</ele>
        <time>2018-09-08T20:43:05Z</time>
      </trkpt>
      <trkpt lat="-2.585080" lon="-78.764717">
        <ele>3418.00</ele>
        <time>2018-09-08T20:43:06Z</time>
      </trkpt>
      <trkpt lat="-2.584974" lon="-78.764679">
        <ele>3418.00</ele>
        <time>2018-09-08T20:43:07Z</time>
      </trkpt>
      <trkpt lat="-2.584876" lon="-78.764641">
        <ele>3419.00</ele>
        <time>2018-09-08T20:43:08Z</time>
      </trkpt>
      <trkpt lat="-2.584795" lon="-78.764603">
        <ele>3419.00</ele>
        <time>2018-09-08T20:43:09Z</time>
      </trkpt>
      <trkpt lat="-2.584722" lon="-78.764603">
        <ele>3420.00</ele>
        <time>2018-09-08T20:43:10Z</time>
      </trkpt>
      <trkpt lat="-2.584653" lon="-78.764626">
        <ele>3420.00</ele>
        <time>2018-09-08T20:43:11Z</time>
      </trkpt>
      <trkpt lat="-2.584594" lon="-78.764656">
        <ele>3421.00</ele>
        <time>2018-09-08T20:43:12Z</time>
      </trkpt>
      <trkpt lat="-2.584540" lon="-78.764702">
        <ele>3421.00</ele>
        <time>2018-09-08T20:43:13Z</time>
      </trkpt>
      <trkpt lat="-2.584496" lon="-78.764732">
        <ele>3421.00</ele>
        <time>2018-09-08T20:43:14Z</time>
      </trkpt>
      <trkpt lat="-2.584490" lon="-78.764771">
        <ele>3420.00</ele>
        <time>2018-09-08T20:43:15Z</time>
      </trkpt>
      <trkpt lat="-2.584486" lon="-78.764839">
        <ele>3420.00</ele>
        <time>2018-09-08T20:43:16Z</time>
      </trkpt>
      <trkpt lat="-2.584457" lon="-78.764946">
        <ele>3420.00</ele>
        <time>2018-09-08T20:43:17Z</time>
      </trkpt>
      <trkpt lat="-2.584411" lon="-78.765038">
        <ele>3419.00</ele>
        <time>2018-09-08T20:43:18Z</time>
      </trkpt>
      <trkpt lat="-2.584379" lon="-78.765144">
        <ele>3419.00</ele>
        <time>2018-09-08T20:43:19Z</time>
      </trkpt>
      <trkpt lat="-2.584324" lon="-78.765205">
        <ele>3418.00</ele>
        <time>2018-09-08T20:43:20Z</time>
      </trkpt>
      <trkpt lat="-2.584238" lon="-78.765236">
        <ele>3418.00</ele>
        <time>2018-09-08T20:43:21Z</time>
      </trkpt>
      <trkpt lat="-2.584163" lon="-78.765289">
        <ele>3418.00</ele>
        <time>2018-09-08T20:43:22Z</time>
      </trkpt>
      <trkpt lat="-2.584111" lon="-78.765366">
        <ele>3418.00</ele>
        <time>2018-09-08T20:43:23Z</time>
      </trkpt>
      <trkpt lat="-2.584061" lon="-78.765472">
        <ele>3417.00</ele>
        <time>2018-09-08T20:43:24Z</time>
      </trkpt>
      <trkpt lat="-2.584002" lon="-78.765579">
        <ele>3417.00</ele>
        <time>2018-09-08T20:43:25Z</time>
      </trkpt>
      <trkpt lat="-2.583940" lon="-78.765678">
        <ele>3417.00</ele>
        <time>2018-09-08T20:43:26Z</time>
      </trkpt>
      <trkpt lat="-2.583888" lon="-78.765778">
        <ele>3417.00</ele>
        <time>2018-09-08T20:43:27Z</time>
      </trkpt>
      <trkpt lat="-2.583852" lon="-78.765877">
        <ele>3417.00</ele>
        <time>2018-09-08T20:43:28Z</time>
      </trkpt>
      <trkpt lat="-2.583847" lon="-78.765991">
        <ele>3417.00</ele>
        <time>2018-09-08T20:43:29Z</time>
      </trkpt>
      <trkpt lat="-2.583855" lon="-78.766106">
        <ele>3416.00</ele>
        <time>2018-09-08T20:43:30Z</time>
      </trkpt>
      <trkpt lat="-2.583871" lon="-78.766220">
        <ele>3416.00</ele>
        <time>2018-09-08T20:43:31Z</time>
      </trkpt>
      <trkpt lat="-2.583878" lon="-78.766327">
        <ele>3415.00</ele>
        <time>2018-09-08T20:43:32Z</time>
      </trkpt>
      <trkpt lat="-2.583870" lon="-78.766426">
        <ele>3415.00</ele>
        <time>2018-09-08T20:43:33Z</time>
      </trkpt>
      <trkpt lat="-2.583824" lon="-78.766525">
        <ele>3415.00</ele>
        <time>2018-09-08T20:43:34Z</time>
      </trkpt>
      <trkpt lat="-2.583764" lon="-78.766602">
        <ele>3414.00</ele>
        <time>2018-09-08T20:43:35Z</time>
      </trkpt>
      <trkpt lat="-2.583702" lon="-78.766670">
        <ele>3414.00</ele>
        <time>2018-09-08T20:43:36Z</time>
      </trkpt>
      <trkpt lat="-2.583665" lon="-78.766701">
        <ele>3414.00</ele>
        <time>2018-09-08T20:43:37Z</time>
      </trkpt>
      <trkpt lat="-2.583665" lon="-78.766701">
        <ele>3414.00</ele>
        <time>2018-09-08T20:43:38Z</time>
      </trkpt>
      <trkpt lat="-2.583665" lon="-78.766701">
        <ele>3414.00</ele>
        <time>2018-09-08T20:43:39Z</time>
      </trkpt>
      <trkpt lat="-2.583665" lon="-78.766701">
        <ele>3414.00</ele>
        <time>2018-09-08T20:43:40Z</time>
      </trkpt>
      <trkpt lat="-2.583665" lon="-78.766701">
        <ele>3414.00</ele>
        <time>2018-09-08T20:43:41Z</time>
      </trkpt>
      <trkpt lat="-2.583665" lon="-78.766701">
        <ele>3414.00</ele>
        <time>2018-09-08T20:43:42Z</time>
      </trkpt>
      <trkpt lat="-2.583665" lon="-78.766701">
        <ele>3414.00</ele>
        <time>2018-09-08T20:43:43Z</time>
      </trkpt>
      <trkpt lat="-2.583665" lon="-78.766701">
        <ele>3414.00</ele>
        <time>2018-09-08T20:43:44Z</time>
      </trkpt>
      <trkpt lat="-2.583665" lon="-78.766701">
        <ele>3414.00</ele>
        <time>2018-09-08T20:43:45Z</time>
      </trkpt>
      <trkpt lat="-2.583665" lon="-78.766701">
        <ele>3414.00</ele>
        <time>2018-09-08T20:43:46Z</time>
      </trkpt>
      <trkpt lat="-2.583665" lon="-78.766701">
        <ele>3414.00</ele>
        <time>2018-09-08T20:43:47Z</time>
      </trkpt>
      <trkpt lat="-2.583665" lon="-78.766701">
        <ele>3414.00</ele>
        <time>2018-09-08T20:43:48Z</time>
      </trkpt>
      <trkpt lat="-2.583665" lon="-78.766701">
        <ele>3414.00</ele>
        <time>2018-09-08T20:43:49Z</time>
      </trkpt>
      <trkpt lat="-2.583665" lon="-78.766701">
        <ele>3414.00</ele>
        <time>2018-09-08T20:43:50Z</time>
      </trkpt>
      <trkpt lat="-2.583665" lon="-78.766701">
        <ele>3414.00</ele>
        <time>2018-09-08T20:43:51Z</time>
      </trkpt>
      <trkpt lat="-2.583665" lon="-78.766701">
        <ele>3414.00</ele>
        <time>2018-09-08T20:43:52Z</time>
      </trkpt>
      <trkpt lat="-2.583665" lon="-78.766701">
        <ele>3414.00</ele>
        <time>2018-09-08T20:43:53Z</time>
      </trkpt>
      <trkpt lat="-2.583665" lon="-78.766701">
        <ele>3414.00</ele>
        <time>2018-09-08T20:43:54Z</time>
      </trkpt>
      <trkpt lat="-2.583665" lon="-78.766701">
        <ele>3414.00</ele>
        <time>2018-09-08T20:43:55Z</time>
      </trkpt>
      <trkpt lat="-2.583665" lon="-78.766701">
        <ele>3414.00</ele>
        <time>2018-09-08T20:43:56Z</time>
      </trkpt>
      <trkpt lat="-2.583665" lon="-78.766701">
        <ele>3414.00</ele>
        <time>2018-09-08T20:43:57Z</time>
      </trkpt>
      <trkpt lat="-2.583665" lon="-78.766701">
        <ele>3414.00</ele>
        <time>2018-09-08T20:43:58Z</time>
      </trkpt>
      <trkpt lat="-2.583665" lon="-78.766701">
        <ele>3414.00</ele>
        <time>2018-09-08T20:43:59Z</time>
      </trkpt>
      <trkpt lat="-2.583665" lon="-78.766701">
        <ele>3414.00</ele>
        <time>2018-09-08T20:44:00Z</time>
      </trkpt>
      <trkpt lat="-2.583665" lon="-78.766701">
        <ele>3414.00</ele>
        <time>2018-09-08T20:44:01Z</time>
      </trkpt>
      <trkpt lat="-2.583665" lon="-78.766701">
        <ele>3414.00</ele>
        <time>2018-09-08T20:44:02Z</time>
      </trkpt>
      <trkpt lat="-2.583665" lon="-78.766701">
        <ele>3414.00</ele>
        <time>2018-09-08T20:44:03Z</time>
      </trkpt>
      <trkpt lat="-2.583665" lon="-78.766701">
        <ele>3414.00</ele>
        <time>2018-09-08T20:44:04Z</time>
      </trkpt>
      <trkpt lat="-2.583665" lon="-78.766701">
        <ele>3414.00</ele>
        <time>2018-09-08T20:44:05Z</time>
      </trkpt>
      <trkpt lat="-2.583665" lon="-78.766701">
        <ele>3414.00</ele>
        <time>2018-09-08T20:44:06Z</time>
      </trkpt>
      <trkpt lat="-2.583653" lon="-78.766678">
        <ele>3414.00</ele>
        <time>2018-09-08T20:44:07Z</time>
      </trkpt>
      <trkpt lat="-2.583653" lon="-78.766678">
        <ele>3414.00</ele>
        <time>2018-09-08T20:44:08Z</time>
      </trkpt>
      <trkpt lat="-2.583653" lon="-78.766678">
        <ele>3414.00</ele>
        <time>2018-09-08T20:44:09Z</time>
      </trkpt>
      <trkpt lat="-2.583653" lon="-78.766678">
        <ele>3414.00</ele>
        <time>2018-09-08T20:44:10Z</time>
      </trkpt>
      <trkpt lat="-2.583653" lon="-78.766678">
        <ele>3414.00</ele>
        <time>2018-09-08T20:44:11Z</time>
      </trkpt>
      <trkpt lat="-2.583653" lon="-78.766678">
        <ele>3415.00</ele>
        <time>2018-09-08T20:44:12Z</time>
      </trkpt>
      <trkpt lat="-2.583653" lon="-78.766678">
        <ele>3415.00</ele>
        <time>2018-09-08T20:44:13Z</time>
      </trkpt>
      <trkpt lat="-2.583653" lon="-78.766678">
        <ele>3415.00</ele>
        <time>2018-09-08T20:44:14Z</time>
      </trkpt>
      <trkpt lat="-2.583653" lon="-78.766678">
        <ele>3415.00</ele>
        <time>2018-09-08T20:44:15Z</time>
      </trkpt>
      <trkpt lat="-2.583653" lon="-78.766678">
        <ele>3415.00</ele>
        <time>2018-09-08T20:44:16Z</time>
      </trkpt>
      <trkpt lat="-2.583653" lon="-78.766678">
        <ele>3415.00</ele>
        <time>2018-09-08T20:44:17Z</time>
      </trkpt>
      <trkpt lat="-2.583653" lon="-78.766678">
        <ele>3415.00</ele>
        <time>2018-09-08T20:44:18Z</time>
      </trkpt>
      <trkpt lat="-2.583653" lon="-78.766678">
        <ele>3415.00</ele>
        <time>2018-09-08T20:44:19Z</time>
      </trkpt>
      <trkpt lat="-2.583653" lon="-78.766678">
        <ele>3415.00</ele>
        <time>2018-09-08T20:44:20Z</time>
      </trkpt>
      <trkpt lat="-2.583653" lon="-78.766678">
        <ele>3415.00</ele>
        <time>2018-09-08T20:44:21Z</time>
      </trkpt>
      <trkpt lat="-2.583653" lon="-78.766678">
        <ele>3415.00</ele>
        <time>2018-09-08T20:44:22Z</time>
      </trkpt>
      <trkpt lat="-2.583654" lon="-78.766678">
        <ele>3415.00</ele>
        <time>2018-09-08T20:44:23Z</time>
      </trkpt>
      <trkpt lat="-2.583654" lon="-78.766678">
        <ele>3415.00</ele>
        <time>2018-09-08T20:44:24Z</time>
      </trkpt>
      <trkpt lat="-2.583654" lon="-78.766678">
        <ele>3415.00</ele>
        <time>2018-09-08T20:44:25Z</time>
      </trkpt>
      <trkpt lat="-2.583655" lon="-78.766678">
        <ele>3415.00</ele>
        <time>2018-09-08T20:44:26Z</time>
      </trkpt>
      <trkpt lat="-2.583655" lon="-78.766678">
        <ele>3415.00</ele>
        <time>2018-09-08T20:44:27Z</time>
      </trkpt>
      <trkpt lat="-2.583657" lon="-78.766678">
        <ele>3415.00</ele>
        <time>2018-09-08T20:44:28Z</time>
      </trkpt>
      <trkpt lat="-2.583658" lon="-78.766678">
        <ele>3415.00</ele>
        <time>2018-09-08T20:44:29Z</time>
      </trkpt>
      <trkpt lat="-2.583658" lon="-78.766678">
        <ele>3415.00</ele>
        <time>2018-09-08T20:44:30Z</time>
      </trkpt>
      <trkpt lat="-2.583649" lon="-78.766685">
        <ele>3415.00</ele>
        <time>2018-09-08T20:44:31Z</time>
      </trkpt>
      <trkpt lat="-2.583621" lon="-78.766708">
        <ele>3417.00</ele>
        <time>2018-09-08T20:44:32Z</time>
      </trkpt>
      <trkpt lat="-2.583563" lon="-78.766747">
        <ele>3418.00</ele>
        <time>2018-09-08T20:44:33Z</time>
      </trkpt>
      <trkpt lat="-2.583496" lon="-78.766762">
        <ele>3418.00</ele>
        <time>2018-09-08T20:44:34Z</time>
      </trkpt>
      <trkpt lat="-2.583418" lon="-78.766792">
        <ele>3419.00</ele>
        <time>2018-09-08T20:44:35Z</time>
      </trkpt>
      <trkpt lat="-2.583334" lon="-78.766830">
        <ele>3420.00</ele>
        <time>2018-09-08T20:44:36Z</time>
      </trkpt>
      <trkpt lat="-2.583249" lon="-78.766869">
        <ele>3420.00</ele>
        <time>2018-09-08T20:44:37Z</time>
      </trkpt>
      <trkpt lat="-2.583161" lon="-78.766945">
        <ele>3421.00</ele>
        <time>2018-09-08T20:44:38Z</time>
      </trkpt>
      <trkpt lat="-2.583075" lon="-78.767006">
        <ele>3421.00</ele>
        <time>2018-09-08T20:44:39Z</time>
      </trkpt>
      <trkpt lat="-2.583011" lon="-78.767067">
        <ele>3421.00</ele>
        <time>2018-09-08T20:44:40Z</time>
      </trkpt>
      <trkpt lat="-2.582929" lon="-78.767113">
        <ele>3421.00</ele>
        <time>2018-09-08T20:44:41Z</time>
      </trkpt>
      <trkpt lat="-2.582839" lon="-78.767090">
        <ele>3422.00</ele>
        <time>2018-09-08T20:44:42Z</time>
      </trkpt>
      <trkpt lat="-2.582742" lon="-78.767090">
        <ele>3422.00</ele>
        <time>2018-09-08T20:44:43Z</time>
      </trkpt>
      <trkpt lat="-2.582643" lon="-78.767105">
        <ele>3422.00</ele>
        <time>2018-09-08T20:44:44Z</time>
      </trkpt>
      <trkpt lat="-2.582542" lon="-78.767113">
        <ele>3422.00</ele>
        <time>2018-09-08T20:44:45Z</time>
      </trkpt>
      <trkpt lat="-2.582439" lon="-78.767128">
        <ele>3423.00</ele>
        <time>2018-09-08T20:44:46Z</time>
      </trkpt>
      <trkpt lat="-2.582341" lon="-78.767136">
        <ele>3423.00</ele>
        <time>2018-09-08T20:44:47Z</time>
      </trkpt>
      <trkpt lat="-2.582250" lon="-78.767128">
        <ele>3423.00</ele>
        <time>2018-09-08T20:44:48Z</time>
      </trkpt>
      <trkpt lat="-2.582181" lon="-78.767075">
        <ele>3423.00</ele>
        <time>2018-09-08T20:44:49Z</time>
      </trkpt>
      <trkpt lat="-2.582123" lon="-78.766983">
        <ele>3423.00</ele>
        <time>2018-09-08T20:44:50Z</time>
      </trkpt>
      <trkpt lat="-2.582075" lon="-78.766876">
        <ele>3424.00</ele>
        <time>2018-09-08T20:44:51Z</time>
      </trkpt>
      <trkpt lat="-2.582028" lon="-78.766777">
        <ele>3424.00</ele>
        <time>2018-09-08T20:44:52Z</time>
      </trkpt>
      <trkpt lat="-2.581962" lon="-78.766685">
        <ele>3425.00</ele>
        <time>2018-09-08T20:44:53Z</time>
      </trkpt>
      <trkpt lat="-2.581895" lon="-78.766632">
        <ele>3425.00</ele>
        <time>2018-09-08T20:44:54Z</time>
      </trkpt>
      <trkpt lat="-2.581826" lon="-78.766602">
        <ele>3426.00</ele>
        <time>2018-09-08T20:44:55Z</time>
      </trkpt>
      <trkpt lat="-2.581751" lon="-78.766594">
        <ele>3426.00</ele>
        <time>2018-09-08T20:44:56Z</time>
      </trkpt>
      <trkpt lat="-2.581659" lon="-78.766617">
        <ele>3427.00</ele>
        <time>2018-09-08T20:44:57Z</time>
      </trkpt>
      <trkpt lat="-2.581566" lon="-78.766655">
        <ele>3427.00</ele>
        <time>2018-09-08T20:44:58Z</time>
      </trkpt>
      <trkpt lat="-2.581477" lon="-78.766724">
        <ele>3428.00</ele>
        <time>2018-09-08T20:44:59Z</time>
      </trkpt>
      <trkpt lat="-2.581393" lon="-78.766792">
        <ele>3428.00</ele>
        <time>2018-09-08T20:45:00Z</time>
      </trkpt>
      <trkpt lat="-2.581318" lon="-78.766869">
        <ele>3428.00</ele>
        <time>2018-09-08T20:45:01Z</time>
      </trkpt>
      <trkpt lat="-2.581245" lon="-78.766945">
        <ele>3429.00</ele>
        <time>2018-09-08T20:45:02Z</time>
      </trkpt>
      <trkpt lat="-2.581173" lon="-78.766998">
        <ele>3429.00</ele>
        <time>2018-09-08T20:45:03Z</time>
      </trkpt>
      <trkpt lat="-2.581121" lon="-78.767036">
        <ele>3429.00</ele>
        <time>2018-09-08T20:45:04Z</time>
      </trkpt>
      <trkpt lat="-2.581073" lon="-78.767067">
        <ele>3429.00</ele>
        <time>2018-09-08T20:45:05Z</time>
      </trkpt>
      <trkpt lat="-2.581006" lon="-78.767052">
        <ele>3429.00</ele>
        <time>2018-09-08T20:45:06Z</time>
      </trkpt>
      <trkpt lat="-2.580915" lon="-78.767029">
        <ele>3430.00</ele>
        <time>2018-09-08T20:45:07Z</time>
      </trkpt>
      <trkpt lat="-2.580816" lon="-78.767021">
        <ele>3430.00</ele>
        <time>2018-09-08T20:45:08Z</time>
      </trkpt>
      <trkpt lat="-2.580710" lon="-78.767014">
        <ele>3430.00</ele>
        <time>2018-09-08T20:45:09Z</time>
      </trkpt>
      <trkpt lat="-2.580597" lon="-78.766975">
        <ele>3430.00</ele>
        <time>2018-09-08T20:45:10Z</time>
      </trkpt>
      <trkpt lat="-2.580500" lon="-78.766930">
        <ele>3430.00</ele>
        <time>2018-09-08T20:45:11Z</time>
      </trkpt>
      <trkpt lat="-2.580417" lon="-78.766846">
        <ele>3430.00</ele>
        <time>2018-09-08T20:45:12Z</time>
      </trkpt>
      <trkpt lat="-2.580353" lon="-78.766739">
        <ele>3430.00</ele>
        <time>2018-09-08T20:45:13Z</time>
      </trkpt>
      <trkpt lat="-2.580286" lon="-78.766624">
        <ele>3431.00</ele>
        <time>2018-09-08T20:45:14Z</time>
      </trkpt>
      <trkpt lat="-2.580212" lon="-78.766525">
        <ele>3431.00</ele>
        <time>2018-09-08T20:45:15Z</time>
      </trkpt>
      <trkpt lat="-2.580141" lon="-78.766441">
        <ele>3431.00</ele>
        <time>2018-09-08T20:45:16Z</time>
      </trkpt>
      <trkpt lat="-2.580060" lon="-78.766380">
        <ele>3431.00</ele>
        <time>2018-09-08T20:45:17Z</time>
      </trkpt>
      <trkpt lat="-2.579975" lon="-78.766312">
        <ele>3431.00</ele>
        <time>2018-09-08T20:45:18Z</time>
      </trkpt>
      <trkpt lat="-2.579892" lon="-78.766243">
        <ele>3431.00</ele>
        <time>2018-09-08T20:45:19Z</time>
      </trkpt>
      <trkpt lat="-2.579804" lon="-78.766159">
        <ele>3431.00</ele>
        <time>2018-09-08T20:45:20Z</time>
      </trkpt>
      <trkpt lat="-2.579690" lon="-78.766098">
        <ele>3431.00</ele>
        <time>2018-09-08T20:45:21Z</time>
      </trkpt>
      <trkpt lat="-2.579565" lon="-78.766060">
        <ele>3432.00</ele>
        <time>2018-09-08T20:45:22Z</time>
      </trkpt>
      <trkpt lat="-2.579434" lon="-78.766037">
        <ele>3432.00</ele>
        <time>2018-09-08T20:45:23Z</time>
      </trkpt>
      <trkpt lat="-2.579308" lon="-78.766052">
        <ele>3432.00</ele>
        <time>2018-09-08T20:45:24Z</time>
      </trkpt>
      <trkpt lat="-2.579193" lon="-78.766090">
        <ele>3433.00</ele>
        <time>2018-09-08T20:45:25Z</time>
      </trkpt>
      <trkpt lat="-2.579077" lon="-78.766113">
        <ele>3433.00</ele>
        <time>2018-09-08T20:45:26Z</time>
      </trkpt>
      <trkpt lat="-2.578961" lon="-78.766113">
        <ele>3434.00</ele>
        <time>2018-09-08T20:45:27Z</time>
      </trkpt>
      <trkpt lat="-2.578871" lon="-78.766060">
        <ele>3434.00</ele>
        <time>2018-09-08T20:45:28Z</time>
      </trkpt>
      <trkpt lat="-2.578788" lon="-78.765991">
        <ele>3435.00</ele>
        <time>2018-09-08T20:45:29Z</time>
      </trkpt>
      <trkpt lat="-2.578715" lon="-78.765915">
        <ele>3435.00</ele>
        <time>2018-09-08T20:45:30Z</time>
      </trkpt>
      <trkpt lat="-2.578620" lon="-78.765869">
        <ele>3436.00</ele>
        <time>2018-09-08T20:45:31Z</time>
      </trkpt>
      <trkpt lat="-2.578508" lon="-78.765831">
        <ele>3436.00</ele>
        <time>2018-09-08T20:45:32Z</time>
      </trkpt>
      <trkpt lat="-2.578386" lon="-78.765785">
        <ele>3436.00</ele>
        <time>2018-09-08T20:45:33Z</time>
      </trkpt>
      <trkpt lat="-2.578259" lon="-78.765755">
        <ele>3437.00</ele>
        <time>2018-09-08T20:45:34Z</time>
      </trkpt>
      <trkpt lat="-2.578120" lon="-78.765732">
        <ele>3437.00</ele>
        <time>2018-09-08T20:45:35Z</time>
      </trkpt>
      <trkpt lat="-2.577975" lon="-78.765732">
        <ele>3437.00</ele>
        <time>2018-09-08T20:45:36Z</time>
      </trkpt>
      <trkpt lat="-2.577826" lon="-78.765755">
        <ele>3438.00</ele>
        <time>2018-09-08T20:45:37Z</time>
      </trkpt>
      <trkpt lat="-2.577684" lon="-78.765755">
        <ele>3438.00</ele>
        <time>2018-09-08T20:45:38Z</time>
      </trkpt>
      <trkpt lat="-2.577559" lon="-78.765724">
        <ele>3438.00</ele>
        <time>2018-09-08T20:45:39Z</time>
      </trkpt>
      <trkpt lat="-2.577445" lon="-78.765686">
        <ele>3439.00</ele>
        <time>2018-09-08T20:45:40Z</time>
      </trkpt>
      <trkpt lat="-2.577323" lon="-78.765678">
        <ele>3439.00</ele>
        <time>2018-09-08T20:45:41Z</time>
      </trkpt>
      <trkpt lat="-2.577190" lon="-78.765686">
        <ele>3440.00</ele>
        <time>2018-09-08T20:45:42Z</time>
      </trkpt>
      <trkpt lat="-2.577053" lon="-78.765709">
        <ele>3441.00</ele>
        <time>2018-09-08T20:45:43Z</time>
      </trkpt>
      <trkpt lat="-2.576920" lon="-78.765724">
        <ele>3441.00</ele>
        <time>2018-09-08T20:45:44Z</time>
      </trkpt>
      <trkpt lat="-2.576788" lon="-78.765739">
        <ele>3442.00</ele>
        <time>2018-09-08T20:45:45Z</time>
      </trkpt>
      <trkpt lat="-2.576648" lon="-78.765770">
        <ele>3443.00</ele>
        <time>2018-09-08T20:45:46Z</time>
      </trkpt>
      <trkpt lat="-2.576496" lon="-78.765793">
        <ele>3444.00</ele>
        <time>2018-09-08T20:45:47Z</time>
      </trkpt>
      <trkpt lat="-2.576340" lon="-78.765808">
        <ele>3445.00</ele>
        <time>2018-09-08T20:45:48Z</time>
      </trkpt>
      <trkpt lat="-2.576192" lon="-78.765816">
        <ele>3445.00</ele>
        <time>2018-09-08T20:45:49Z</time>
      </trkpt>
      <trkpt lat="-2.576061" lon="-78.765808">
        <ele>3446.00</ele>
        <time>2018-09-08T20:45:50Z</time>
      </trkpt>
      <trkpt lat="-2.575933" lon="-78.765808">
        <ele>3447.00</ele>
        <time>2018-09-08T20:45:51Z</time>
      </trkpt>
      <trkpt lat="-2.575799" lon="-78.765778">
        <ele>3447.00</ele>
        <time>2018-09-08T20:45:52Z</time>
      </trkpt>
      <trkpt lat="-2.575663" lon="-78.765732">
        <ele>3448.00</ele>
        <time>2018-09-08T20:45:53Z</time>
      </trkpt>
      <trkpt lat="-2.575527" lon="-78.765686">
        <ele>3448.00</ele>
        <time>2018-09-08T20:45:54Z</time>
      </trkpt>
      <trkpt lat="-2.575385" lon="-78.765633">
        <ele>3449.00</ele>
        <time>2018-09-08T20:45:55Z</time>
      </trkpt>
      <trkpt lat="-2.575239" lon="-78.765594">
        <ele>3449.00</ele>
        <time>2018-09-08T20:45:56Z</time>
      </trkpt>
      <trkpt lat="-2.575094" lon="-78.765549">
        <ele>3450.00</ele>
        <time>2018-09-08T20:45:57Z</time>
      </trkpt>
      <trkpt lat="-2.574957" lon="-78.765511">
        <ele>3450.00</ele>
        <time>2018-09-08T20:45:58Z</time>
      </trkpt>
      <trkpt lat="-2.574837" lon="-78.765495">
        <ele>3450.00</ele>
        <time>2018-09-08T20:45:59Z</time>
      </trkpt>
      <trkpt lat="-2.574719" lon="-78.765488">
        <ele>3451.00</ele>
        <time>2018-09-08T20:46:00Z</time>
      </trkpt>
      <trkpt lat="-2.574596" lon="-78.765472">
        <ele>3451.00</ele>
        <time>2018-09-08T20:46:01Z</time>
      </trkpt>
      <trkpt lat="-2.574481" lon="-78.765434">
        <ele>3451.00</ele>
        <time>2018-09-08T20:46:02Z</time>
      </trkpt>
      <trkpt lat="-2.574394" lon="-78.765396">
        <ele>3451.00</ele>
        <time>2018-09-08T20:46:03Z</time>
      </trkpt>
      <trkpt lat="-2.574307" lon="-78.765381">
        <ele>3452.00</ele>
        <time>2018-09-08T20:46:04Z</time>
      </trkpt>
      <trkpt lat="-2.574203" lon="-78.765358">
        <ele>3452.00</ele>
        <time>2018-09-08T20:46:05Z</time>
      </trkpt>
      <trkpt lat="-2.574080" lon="-78.765335">
        <ele>3452.00</ele>
        <time>2018-09-08T20:46:06Z</time>
      </trkpt>
      <trkpt lat="-2.573961" lon="-78.765274">
        <ele>3452.00</ele>
        <time>2018-09-08T20:46:07Z</time>
      </trkpt>
      <trkpt lat="-2.573862" lon="-78.765205">
        <ele>3452.00</ele>
        <time>2018-09-08T20:46:08Z</time>
      </trkpt>
      <trkpt lat="-2.573777" lon="-78.765152">
        <ele>3452.00</ele>
        <time>2018-09-08T20:46:09Z</time>
      </trkpt>
      <trkpt lat="-2.573718" lon="-78.765121">
        <ele>3452.00</ele>
        <time>2018-09-08T20:46:10Z</time>
      </trkpt>
      <trkpt lat="-2.573683" lon="-78.765091">
        <ele>3452.00</ele>
        <time>2018-09-08T20:46:11Z</time>
      </trkpt>
      <trkpt lat="-2.573664" lon="-78.765076">
        <ele>3452.00</ele>
        <time>2018-09-08T20:46:12Z</time>
      </trkpt>
      <trkpt lat="-2.573652" lon="-78.765045">
        <ele>3452.00</ele>
        <time>2018-09-08T20:46:13Z</time>
      </trkpt>
      <trkpt lat="-2.573636" lon="-78.764992">
        <ele>3452.00</ele>
        <time>2018-09-08T20:46:14Z</time>
      </trkpt>
      <trkpt lat="-2.573614" lon="-78.764923">
        <ele>3452.00</ele>
        <time>2018-09-08T20:46:15Z</time>
      </trkpt>
      <trkpt lat="-2.573581" lon="-78.764847">
        <ele>3452.00</ele>
        <time>2018-09-08T20:46:16Z</time>
      </trkpt>
      <trkpt lat="-2.573531" lon="-78.764763">
        <ele>3453.00</ele>
        <time>2018-09-08T20:46:17Z</time>
      </trkpt>
      <trkpt lat="-2.573464" lon="-78.764679">
        <ele>3453.00</ele>
        <time>2018-09-08T20:46:18Z</time>
      </trkpt>
      <trkpt lat="-2.573394" lon="-78.764595">
        <ele>3453.00</ele>
        <time>2018-09-08T20:46:19Z</time>
      </trkpt>
      <trkpt lat="-2.573328" lon="-78.764534">
        <ele>3454.00</ele>
        <time>2018-09-08T20:46:20Z</time>
      </trkpt>
      <trkpt lat="-2.573253" lon="-78.764481">
        <ele>3454.00</ele>
        <time>2018-09-08T20:46:21Z</time>
      </trkpt>
      <trkpt lat="-2.573165" lon="-78.764442">
        <ele>3455.00</ele>
        <time>2018-09-08T20:46:22Z</time>
      </trkpt>
      <trkpt lat="-2.573063" lon="-78.764435">
        <ele>3455.00</ele>
        <time>2018-09-08T20:46:23Z</time>
      </trkpt>
      <trkpt lat="-2.572966" lon="-78.764427">
        <ele>3455.00</ele>
        <time>2018-09-08T20:46:24Z</time>
      </trkpt>
      <trkpt lat="-2.572889" lon="-78.764389">
        <ele>3456.00</ele>
        <time>2018-09-08T20:46:25Z</time>
      </trkpt>
      <trkpt lat="-2.572824" lon="-78.764336">
        <ele>3456.00</ele>
        <time>2018-09-08T20:46:26Z</time>
      </trkpt>
      <trkpt lat="-2.572751" lon="-78.764267">
        <ele>3456.00</ele>
        <time>2018-09-08T20:46:27Z</time>
      </trkpt>
      <trkpt lat="-2.572665" lon="-78.764198">
        <ele>3456.00</ele>
        <time>2018-09-08T20:46:28Z</time>
      </trkpt>
      <trkpt lat="-2.572562" lon="-78.764122">
        <ele>3457.00</ele>
        <time>2018-09-08T20:46:29Z</time>
      </trkpt>
      <trkpt lat="-2.572448" lon="-78.764069">
        <ele>3457.00</ele>
        <time>2018-09-08T20:46:30Z</time>
      </trkpt>
      <trkpt lat="-2.572340" lon="-78.764008">
        <ele>3457.00</ele>
        <time>2018-09-08T20:46:31Z</time>
      </trkpt>
      <trkpt lat="-2.572254" lon="-78.763939">
        <ele>3457.00</ele>
        <time>2018-09-08T20:46:32Z</time>
      </trkpt>
      <trkpt lat="-2.572187" lon="-78.763885">
        <ele>3458.00</ele>
        <time>2018-09-08T20:46:33Z</time>
      </trkpt>
      <trkpt lat="-2.572120" lon="-78.763870">
        <ele>3458.00</ele>
        <time>2018-09-08T20:46:34Z</time>
      </trkpt>
      <trkpt lat="-2.572049" lon="-78.763878">
        <ele>3458.00</ele>
        <time>2018-09-08T20:46:35Z</time>
      </trkpt>
      <trkpt lat="-2.571974" lon="-78.763908">
        <ele>3458.00</ele>
        <time>2018-09-08T20:46:36Z</time>
      </trkpt>
      <trkpt lat="-2.571891" lon="-78.763954">
        <ele>3458.00</ele>
        <time>2018-09-08T20:46:37Z</time>
      </trkpt>
      <trkpt lat="-2.571813" lon="-78.763962">
        <ele>3459.00</ele>
        <time>2018-09-08T20:46:38Z</time>
      </trkpt>
      <trkpt lat="-2.571768" lon="-78.763985">
        <ele>3459.00</ele>
        <time>2018-09-08T20:46:39Z</time>
      </trkpt>
      <trkpt lat="-2.571752" lon="-78.763985">
        <ele>3459.00</ele>
        <time>2018-09-08T20:46:40Z</time>
      </trkpt>
      <trkpt lat="-2.571752" lon="-78.763985">
        <ele>3459.00</ele>
        <time>2018-09-08T20:46:41Z</time>
      </trkpt>
      <trkpt lat="-2.571752" lon="-78.763985">
        <ele>3459.00</ele>
        <time>2018-09-08T20:46:42Z</time>
      </trkpt>
      <trkpt lat="-2.571752" lon="-78.763985">
        <ele>3458.00</ele>
        <time>2018-09-08T20:46:43Z</time>
      </trkpt>
      <trkpt lat="-2.571752" lon="-78.763985">
        <ele>3458.00</ele>
        <time>2018-09-08T20:46:44Z</time>
      </trkpt>
      <trkpt lat="-2.571752" lon="-78.763985">
        <ele>3458.00</ele>
        <time>2018-09-08T20:46:45Z</time>
      </trkpt>
      <trkpt lat="-2.571752" lon="-78.763985">
        <ele>3458.00</ele>
        <time>2018-09-08T20:46:46Z</time>
      </trkpt>
      <trkpt lat="-2.571752" lon="-78.763985">
        <ele>3458.00</ele>
        <time>2018-09-08T20:46:47Z</time>
      </trkpt>
      <trkpt lat="-2.571752" lon="-78.763985">
        <ele>3458.00</ele>
        <time>2018-09-08T20:46:48Z</time>
      </trkpt>
      <trkpt lat="-2.571752" lon="-78.763985">
        <ele>3458.00</ele>
        <time>2018-09-08T20:46:49Z</time>
      </trkpt>
      <trkpt lat="-2.571752" lon="-78.763985">
        <ele>3458.00</ele>
        <time>2018-09-08T20:46:50Z</time>
      </trkpt>
      <trkpt lat="-2.571752" lon="-78.763985">
        <ele>3458.00</ele>
        <time>2018-09-08T20:46:51Z</time>
      </trkpt>
      <trkpt lat="-2.571752" lon="-78.763985">
        <ele>3458.00</ele>
        <time>2018-09-08T20:46:52Z</time>
      </trkpt>
      <trkpt lat="-2.571752" lon="-78.763985">
        <ele>3458.00</ele>
        <time>2018-09-08T20:46:53Z</time>
      </trkpt>
      <trkpt lat="-2.571752" lon="-78.763985">
        <ele>3458.00</ele>
        <time>2018-09-08T20:46:54Z</time>
      </trkpt>
      <trkpt lat="-2.571752" lon="-78.763985">
        <ele>3458.00</ele>
        <time>2018-09-08T20:46:55Z</time>
      </trkpt>
      <trkpt lat="-2.571752" lon="-78.763985">
        <ele>3458.00</ele>
        <time>2018-09-08T20:46:56Z</time>
      </trkpt>
      <trkpt lat="-2.571752" lon="-78.763985">
        <ele>3458.00</ele>
        <time>2018-09-08T20:46:57Z</time>
      </trkpt>
      <trkpt lat="-2.571752" lon="-78.763985">
        <ele>3458.00</ele>
        <time>2018-09-08T20:46:58Z</time>
      </trkpt>
      <trkpt lat="-2.571738" lon="-78.764008">
        <ele>3457.00</ele>
        <time>2018-09-08T20:46:59Z</time>
      </trkpt>
      <trkpt lat="-2.571712" lon="-78.764030">
        <ele>3457.00</ele>
        <time>2018-09-08T20:47:00Z</time>
      </trkpt>
      <trkpt lat="-2.571688" lon="-78.764046">
        <ele>3457.00</ele>
        <time>2018-09-08T20:47:01Z</time>
      </trkpt>
      <trkpt lat="-2.571671" lon="-78.764076">
        <ele>3455.00</ele>
        <time>2018-09-08T20:47:02Z</time>
      </trkpt>
      <trkpt lat="-2.571656" lon="-78.764122">
        <ele>3453.00</ele>
        <time>2018-09-08T20:47:03Z</time>
      </trkpt>
      <trkpt lat="-2.571646" lon="-78.764183">
        <ele>3452.00</ele>
        <time>2018-09-08T20:47:04Z</time>
      </trkpt>
      <trkpt lat="-2.571631" lon="-78.764259">
        <ele>3451.00</ele>
        <time>2018-09-08T20:47:05Z</time>
      </trkpt>
      <trkpt lat="-2.571611" lon="-78.764320">
        <ele>3451.00</ele>
        <time>2018-09-08T20:47:06Z</time>
      </trkpt>
      <trkpt lat="-2.571583" lon="-78.764389">
        <ele>3450.00</ele>
        <time>2018-09-08T20:47:07Z</time>
      </trkpt>
      <trkpt lat="-2.571548" lon="-78.764481">
        <ele>3450.00</ele>
        <time>2018-09-08T20:47:08Z</time>
      </trkpt>
      <trkpt lat="-2.571516" lon="-78.764557">
        <ele>3450.00</ele>
        <time>2018-09-08T20:47:09Z</time>
      </trkpt>
      <trkpt lat="-2.571491" lon="-78.764633">
        <ele>3450.00</ele>
        <time>2018-09-08T20:47:10Z</time>
      </trkpt>
      <trkpt lat="-2.571491" lon="-78.764702">
        <ele>3450.00</ele>
        <time>2018-09-08T20:47:11Z</time>
      </trkpt>
      <trkpt lat="-2.571500" lon="-78.764771">
        <ele>3450.00</ele>
        <time>2018-09-08T20:47:12Z</time>
      </trkpt>
      <trkpt lat="-2.571521" lon="-78.764839">
        <ele>3450.00</ele>
        <time>2018-09-08T20:47:13Z</time>
      </trkpt>
      <trkpt lat="-2.571552" lon="-78.764893">
        <ele>3450.00</ele>
        <time>2018-09-08T20:47:14Z</time>
      </trkpt>
      <trkpt lat="-2.571596" lon="-78.764946">
        <ele>3450.00</ele>
        <time>2018-09-08T20:47:15Z</time>
      </trkpt>
      <trkpt lat="-2.571653" lon="-78.764992">
        <ele>3450.00</ele>
        <time>2018-09-08T20:47:16Z</time>
      </trkpt>
      <trkpt lat="-2.571696" lon="-78.765068">
        <ele>3450.00</ele>
        <time>2018-09-08T20:47:17Z</time>
      </trkpt>
      <trkpt lat="-2.571732" lon="-78.765137">
        <ele>3450.00</ele>
        <time>2018-09-08T20:47:18Z</time>
      </trkpt>
      <trkpt lat="-2.571760" lon="-78.765198">
        <ele>3450.00</ele>
        <time>2018-09-08T20:47:19Z</time>
      </trkpt>
      <trkpt lat="-2.571785" lon="-78.765244">
        <ele>3450.00</ele>
        <time>2018-09-08T20:47:20Z</time>
      </trkpt>
      <trkpt lat="-2.571807" lon="-78.765282">
        <ele>3450.00</ele>
        <time>2018-09-08T20:47:21Z</time>
      </trkpt>
      <trkpt lat="-2.571821" lon="-78.765305">
        <ele>3450.00</ele>
        <time>2018-09-08T20:47:22Z</time>
      </trkpt>
      <trkpt lat="-2.571830" lon="-78.765335">
        <ele>3451.00</ele>
        <time>2018-09-08T20:47:23Z</time>
      </trkpt>
      <trkpt lat="-2.571845" lon="-78.765366">
        <ele>3452.00</ele>
        <time>2018-09-08T20:47:24Z</time>
      </trkpt>
      <trkpt lat="-2.571868" lon="-78.765419">
        <ele>3452.00</ele>
        <time>2018-09-08T20:47:25Z</time>
      </trkpt>
      <trkpt lat="-2.571894" lon="-78.765472">
        <ele>3453.00</ele>
        <time>2018-09-08T20:47:26Z</time>
      </trkpt>
      <trkpt lat="-2.571916" lon="-78.765518">
        <ele>3453.00</ele>
        <time>2018-09-08T20:47:27Z</time>
      </trkpt>
      <trkpt lat="-2.571909" lon="-78.765579">
        <ele>3454.00</ele>
        <time>2018-09-08T20:47:28Z</time>
      </trkpt>
      <trkpt lat="-2.571886" lon="-78.765633">
        <ele>3454.00</ele>
        <time>2018-09-08T20:47:29Z</time>
      </trkpt>
      <trkpt lat="-2.571844" lon="-78.765671">
        <ele>3455.00</ele>
        <time>2018-09-08T20:47:30Z</time>
      </trkpt>
      <trkpt lat="-2.571782" lon="-78.765678">
        <ele>3455.00</ele>
        <time>2018-09-08T20:47:31Z</time>
      </trkpt>
      <trkpt lat="-2.571709" lon="-78.765701">
        <ele>3455.00</ele>
        <time>2018-09-08T20:47:32Z</time>
      </trkpt>
      <trkpt lat="-2.571631" lon="-78.765709">
        <ele>3456.00</ele>
        <time>2018-09-08T20:47:33Z</time>
      </trkpt>
      <trkpt lat="-2.571551" lon="-78.765717">
        <ele>3456.00</ele>
        <time>2018-09-08T20:47:34Z</time>
      </trkpt>
      <trkpt lat="-2.571472" lon="-78.765724">
        <ele>3456.00</ele>
        <time>2018-09-08T20:47:35Z</time>
      </trkpt>
      <trkpt lat="-2.571395" lon="-78.765739">
        <ele>3456.00</ele>
        <time>2018-09-08T20:47:36Z</time>
      </trkpt>
      <trkpt lat="-2.571325" lon="-78.765762">
        <ele>3456.00</ele>
        <time>2018-09-08T20:47:37Z</time>
      </trkpt>
      <trkpt lat="-2.571255" lon="-78.765778">
        <ele>3456.00</ele>
        <time>2018-09-08T20:47:38Z</time>
      </trkpt>
      <trkpt lat="-2.571189" lon="-78.765816">
        <ele>3456.00</ele>
        <time>2018-09-08T20:47:39Z</time>
      </trkpt>
      <trkpt lat="-2.571115" lon="-78.765823">
        <ele>3456.00</ele>
        <time>2018-09-08T20:47:40Z</time>
      </trkpt>
      <trkpt lat="-2.571041" lon="-78.765823">
        <ele>3457.00</ele>
        <time>2018-09-08T20:47:41Z</time>
      </trkpt>
      <trkpt lat="-2.570980" lon="-78.765816">
        <ele>3457.00</ele>
        <time>2018-09-08T20:47:42Z</time>
      </trkpt>
      <trkpt lat="-2.570920" lon="-78.765839">
        <ele>3457.00</ele>
        <time>2018-09-08T20:47:43Z</time>
      </trkpt>
      <trkpt lat="-2.570862" lon="-78.765892">
        <ele>3457.00</ele>
        <time>2018-09-08T20:47:44Z</time>
      </trkpt>
      <trkpt lat="-2.570801" lon="-78.765953">
        <ele>3457.00</ele>
        <time>2018-09-08T20:47:45Z</time>
      </trkpt>
      <trkpt lat="-2.570744" lon="-78.766029">
        <ele>3457.00</ele>
        <time>2018-09-08T20:47:46Z</time>
      </trkpt>
      <trkpt lat="-2.570689" lon="-78.766083">
        <ele>3457.00</ele>
        <time>2018-09-08T20:47:47Z</time>
      </trkpt>
      <trkpt lat="-2.570639" lon="-78.766121">
        <ele>3457.00</ele>
        <time>2018-09-08T20:47:48Z</time>
      </trkpt>
      <trkpt lat="-2.570580" lon="-78.766167">
        <ele>3457.00</ele>
        <time>2018-09-08T20:47:49Z</time>
      </trkpt>
      <trkpt lat="-2.570518" lon="-78.766212">
        <ele>3457.00</ele>
        <time>2018-09-08T20:47:50Z</time>
      </trkpt>
      <trkpt lat="-2.570445" lon="-78.766243">
        <ele>3457.00</ele>
        <time>2018-09-08T20:47:51Z</time>
      </trkpt>
      <trkpt lat="-2.570364" lon="-78.766273">
        <ele>3458.00</ele>
        <time>2018-09-08T20:47:52Z</time>
      </trkpt>
      <trkpt lat="-2.570283" lon="-78.766304">
        <ele>3458.00</ele>
        <time>2018-09-08T20:47:53Z</time>
      </trkpt>
      <trkpt lat="-2.570205" lon="-78.766327">
        <ele>3458.00</ele>
        <time>2018-09-08T20:47:54Z</time>
      </trkpt>
      <trkpt lat="-2.570138" lon="-78.766350">
        <ele>3458.00</ele>
        <time>2018-09-08T20:47:55Z</time>
      </trkpt>
      <trkpt lat="-2.570086" lon="-78.766365">
        <ele>3458.00</ele>
        <time>2018-09-08T20:47:56Z</time>
      </trkpt>
      <trkpt lat="-2.570050" lon="-78.766403">
        <ele>3458.00</ele>
        <time>2018-09-08T20:47:57Z</time>
      </trkpt>
      <trkpt lat="-2.570016" lon="-78.766479">
        <ele>3458.00</ele>
        <time>2018-09-08T20:47:58Z</time>
      </trkpt>
      <trkpt lat="-2.569984" lon="-78.766541">
        <ele>3458.00</ele>
        <time>2018-09-08T20:47:59Z</time>
      </trkpt>
      <trkpt lat="-2.569948" lon="-78.766602">
        <ele>3458.00</ele>
        <time>2018-09-08T20:48:00Z</time>
      </trkpt>
      <trkpt lat="-2.569937" lon="-78.766693">
        <ele>3459.00</ele>
        <time>2018-09-08T20:48:01Z</time>
      </trkpt>
      <trkpt lat="-2.569937" lon="-78.766777">
        <ele>3459.00</ele>
        <time>2018-09-08T20:48:02Z</time>
      </trkpt>
      <trkpt lat="-2.569930" lon="-78.766846">
        <ele>3459.00</ele>
        <time>2018-09-08T20:48:03Z</time>
      </trkpt>
      <trkpt lat="-2.569903" lon="-78.766907">
        <ele>3459.00</ele>
        <time>2018-09-08T20:48:04Z</time>
      </trkpt>
      <trkpt lat="-2.569859" lon="-78.766975">
        <ele>3459.00</ele>
        <time>2018-09-08T20:48:05Z</time>
      </trkpt>
      <trkpt lat="-2.569818" lon="-78.767036">
        <ele>3460.00</ele>
        <time>2018-09-08T20:48:06Z</time>
      </trkpt>
      <trkpt lat="-2.569787" lon="-78.767090">
        <ele>3460.00</ele>
        <time>2018-09-08T20:48:07Z</time>
      </trkpt>
      <trkpt lat="-2.569767" lon="-78.767128">
        <ele>3460.00</ele>
        <time>2018-09-08T20:48:08Z</time>
      </trkpt>
      <trkpt lat="-2.569744" lon="-78.767174">
        <ele>3460.00</ele>
        <time>2018-09-08T20:48:09Z</time>
      </trkpt>
      <trkpt lat="-2.569722" lon="-78.767220">
        <ele>3460.00</ele>
        <time>2018-09-08T20:48:10Z</time>
      </trkpt>
      <trkpt lat="-2.569709" lon="-78.767250">
        <ele>3460.00</ele>
        <time>2018-09-08T20:48:11Z</time>
      </trkpt>
      <trkpt lat="-2.569715" lon="-78.767288">
        <ele>3461.00</ele>
        <time>2018-09-08T20:48:12Z</time>
      </trkpt>
      <trkpt lat="-2.569720" lon="-78.767349">
        <ele>3461.00</ele>
        <time>2018-09-08T20:48:13Z</time>
      </trkpt>
      <trkpt lat="-2.569730" lon="-78.767410">
        <ele>3461.00</ele>
        <time>2018-09-08T20:48:14Z</time>
      </trkpt>
      <trkpt lat="-2.569750" lon="-78.767456">
        <ele>3461.00</ele>
        <time>2018-09-08T20:48:15Z</time>
      </trkpt>
      <trkpt lat="-2.569774" lon="-78.767502">
        <ele>3461.00</ele>
        <time>2018-09-08T20:48:16Z</time>
      </trkpt>
      <trkpt lat="-2.569799" lon="-78.767548">
        <ele>3461.00</ele>
        <time>2018-09-08T20:48:17Z</time>
      </trkpt>
      <trkpt lat="-2.569821" lon="-78.767570">
        <ele>3461.00</ele>
        <time>2018-09-08T20:48:18Z</time>
      </trkpt>
      <trkpt lat="-2.569836" lon="-78.767593">
        <ele>3461.00</ele>
        <time>2018-09-08T20:48:19Z</time>
      </trkpt>
      <trkpt lat="-2.569850" lon="-78.767601">
        <ele>3461.00</ele>
        <time>2018-09-08T20:48:20Z</time>
      </trkpt>
      <trkpt lat="-2.569864" lon="-78.767616">
        <ele>3461.00</ele>
        <time>2018-09-08T20:48:21Z</time>
      </trkpt>
      <trkpt lat="-2.569873" lon="-78.767647">
        <ele>3461.00</ele>
        <time>2018-09-08T20:48:22Z</time>
      </trkpt>
      <trkpt lat="-2.569889" lon="-78.767662">
        <ele>3461.00</ele>
        <time>2018-09-08T20:48:23Z</time>
      </trkpt>
      <trkpt lat="-2.569913" lon="-78.767693">
        <ele>3461.00</ele>
        <time>2018-09-08T20:48:24Z</time>
      </trkpt>
      <trkpt lat="-2.569933" lon="-78.767708">
        <ele>3461.00</ele>
        <time>2018-09-08T20:48:25Z</time>
      </trkpt>
      <trkpt lat="-2.569944" lon="-78.767723">
        <ele>3461.00</ele>
        <time>2018-09-08T20:48:26Z</time>
      </trkpt>
      <trkpt lat="-2.569956" lon="-78.767731">
        <ele>3461.00</ele>
        <time>2018-09-08T20:48:27Z</time>
      </trkpt>
      <trkpt lat="-2.569966" lon="-78.767731">
        <ele>3461.00</ele>
        <time>2018-09-08T20:48:28Z</time>
      </trkpt>
      <trkpt lat="-2.569966" lon="-78.767731">
        <ele>3461.00</ele>
        <time>2018-09-08T20:48:29Z</time>
      </trkpt>
      <trkpt lat="-2.569966" lon="-78.767731">
        <ele>3461.00</ele>
        <time>2018-09-08T20:48:30Z</time>
      </trkpt>
      <trkpt lat="-2.569966" lon="-78.767731">
        <ele>3461.00</ele>
        <time>2018-09-08T20:48:31Z</time>
      </trkpt>
      <trkpt lat="-2.569966" lon="-78.767731">
        <ele>3461.00</ele>
        <time>2018-09-08T20:48:32Z</time>
      </trkpt>
      <trkpt lat="-2.569966" lon="-78.767731">
        <ele>3460.00</ele>
        <time>2018-09-08T20:48:33Z</time>
      </trkpt>
      <trkpt lat="-2.569983" lon="-78.767761">
        <ele>3460.00</ele>
        <time>2018-09-08T20:48:34Z</time>
      </trkpt>
      <trkpt lat="-2.569987" lon="-78.767769">
        <ele>3460.00</ele>
        <time>2018-09-08T20:48:35Z</time>
      </trkpt>
      <trkpt lat="-2.569987" lon="-78.767769">
        <ele>3460.00</ele>
        <time>2018-09-08T20:48:36Z</time>
      </trkpt>
      <trkpt lat="-2.569996" lon="-78.767784">
        <ele>3460.00</ele>
        <time>2018-09-08T20:48:37Z</time>
      </trkpt>
      <trkpt lat="-2.570006" lon="-78.767807">
        <ele>3460.00</ele>
        <time>2018-09-08T20:48:38Z</time>
      </trkpt>
      <trkpt lat="-2.570026" lon="-78.767815">
        <ele>3460.00</ele>
        <time>2018-09-08T20:48:39Z</time>
      </trkpt>
      <trkpt lat="-2.570057" lon="-78.767838">
        <ele>3458.00</ele>
        <time>2018-09-08T20:48:40Z</time>
      </trkpt>
      <trkpt lat="-2.570092" lon="-78.767876">
        <ele>3457.00</ele>
        <time>2018-09-08T20:48:41Z</time>
      </trkpt>
      <trkpt lat="-2.570128" lon="-78.767937">
        <ele>3456.00</ele>
        <time>2018-09-08T20:48:42Z</time>
      </trkpt>
      <trkpt lat="-2.570172" lon="-78.768021">
        <ele>3455.00</ele>
        <time>2018-09-08T20:48:43Z</time>
      </trkpt>
      <trkpt lat="-2.570207" lon="-78.768097">
        <ele>3454.00</ele>
        <time>2018-09-08T20:48:44Z</time>
      </trkpt>
      <trkpt lat="-2.570242" lon="-78.768181">
        <ele>3454.00</ele>
        <time>2018-09-08T20:48:45Z</time>
      </trkpt>
      <trkpt lat="-2.570285" lon="-78.768250">
        <ele>3453.00</ele>
        <time>2018-09-08T20:48:46Z</time>
      </trkpt>
      <trkpt lat="-2.570323" lon="-78.768303">
        <ele>3453.00</ele>
        <time>2018-09-08T20:48:47Z</time>
      </trkpt>
      <trkpt lat="-2.570351" lon="-78.768372">
        <ele>3452.00</ele>
        <time>2018-09-08T20:48:48Z</time>
      </trkpt>
      <trkpt lat="-2.570373" lon="-78.768448">
        <ele>3452.00</ele>
        <time>2018-09-08T20:48:49Z</time>
      </trkpt>
      <trkpt lat="-2.570398" lon="-78.768532">
        <ele>3451.00</ele>
        <time>2018-09-08T20:48:50Z</time>
      </trkpt>
      <trkpt lat="-2.570422" lon="-78.768616">
        <ele>3451.00</ele>
        <time>2018-09-08T20:48:51Z</time>
      </trkpt>
      <trkpt lat="-2.570441" lon="-78.768692">
        <ele>3450.00</ele>
        <time>2018-09-08T20:48:52Z</time>
      </trkpt>
      <trkpt lat="-2.570454" lon="-78.768753">
        <ele>3450.00</ele>
        <time>2018-09-08T20:48:53Z</time>
      </trkpt>
      <trkpt lat="-2.570462" lon="-78.768806">
        <ele>3450.00</ele>
        <time>2018-09-08T20:48:54Z</time>
      </trkpt>
      <trkpt lat="-2.570465" lon="-78.768852">
        <ele>3450.00</ele>
        <time>2018-09-08T20:48:55Z</time>
      </trkpt>
      <trkpt lat="-2.570475" lon="-78.768890">
        <ele>3450.00</ele>
        <time>2018-09-08T20:48:56Z</time>
      </trkpt>
      <trkpt lat="-2.570497" lon="-78.768936">
        <ele>3450.00</ele>
        <time>2018-09-08T20:48:57Z</time>
      </trkpt>
      <trkpt lat="-2.570511" lon="-78.769005">
        <ele>3450.00</ele>
        <time>2018-09-08T20:48:58Z</time>
      </trkpt>
      <trkpt lat="-2.570524" lon="-78.769073">
        <ele>3449.00</ele>
        <time>2018-09-08T20:48:59Z</time>
      </trkpt>
      <trkpt lat="-2.570539" lon="-78.769127">
        <ele>3449.00</ele>
        <time>2018-09-08T20:49:00Z</time>
      </trkpt>
      <trkpt lat="-2.570558" lon="-78.769173">
        <ele>3449.00</ele>
        <time>2018-09-08T20:49:01Z</time>
      </trkpt>
      <trkpt lat="-2.570575" lon="-78.769211">
        <ele>3448.00</ele>
        <time>2018-09-08T20:49:02Z</time>
      </trkpt>
      <trkpt lat="-2.570591" lon="-78.769257">
        <ele>3448.00</ele>
        <time>2018-09-08T20:49:03Z</time>
      </trkpt>
      <trkpt lat="-2.570606" lon="-78.769287">
        <ele>3448.00</ele>
        <time>2018-09-08T20:49:04Z</time>
      </trkpt>
      <trkpt lat="-2.570617" lon="-78.769325">
        <ele>3448.00</ele>
        <time>2018-09-08T20:49:05Z</time>
      </trkpt>
      <trkpt lat="-2.570624" lon="-78.769363">
        <ele>3448.00</ele>
        <time>2018-09-08T20:49:06Z</time>
      </trkpt>
      <trkpt lat="-2.570622" lon="-78.769417">
        <ele>3447.00</ele>
        <time>2018-09-08T20:49:07Z</time>
      </trkpt>
      <trkpt lat="-2.570609" lon="-78.769470">
        <ele>3447.00</ele>
        <time>2018-09-08T20:49:08Z</time>
      </trkpt>
      <trkpt lat="-2.570585" lon="-78.769508">
        <ele>3446.00</ele>
        <time>2018-09-08T20:49:09Z</time>
      </trkpt>
      <trkpt lat="-2.570557" lon="-78.769547">
        <ele>3446.00</ele>
        <time>2018-09-08T20:49:10Z</time>
      </trkpt>
      <trkpt lat="-2.570535" lon="-78.769562">
        <ele>3445.00</ele>
        <time>2018-09-08T20:49:11Z</time>
      </trkpt>
      <trkpt lat="-2.570514" lon="-78.769600">
        <ele>3444.00</ele>
        <time>2018-09-08T20:49:12Z</time>
      </trkpt>
      <trkpt lat="-2.570503" lon="-78.769638">
        <ele>3444.00</ele>
        <time>2018-09-08T20:49:13Z</time>
      </trkpt>
      <trkpt lat="-2.570503" lon="-78.769669">
        <ele>3443.00</ele>
        <time>2018-09-08T20:49:14Z</time>
      </trkpt>
      <trkpt lat="-2.570506" lon="-78.769707">
        <ele>3443.00</ele>
        <time>2018-09-08T20:49:15Z</time>
      </trkpt>
      <trkpt lat="-2.570509" lon="-78.769730">
        <ele>3443.00</ele>
        <time>2018-09-08T20:49:16Z</time>
      </trkpt>
      <trkpt lat="-2.570509" lon="-78.769730">
        <ele>3443.00</ele>
        <time>2018-09-08T20:49:17Z</time>
      </trkpt>
      <trkpt lat="-2.570509" lon="-78.769730">
        <ele>3443.00</ele>
        <time>2018-09-08T20:49:18Z</time>
      </trkpt>
      <trkpt lat="-2.570509" lon="-78.769730">
        <ele>3443.00</ele>
        <time>2018-09-08T20:49:19Z</time>
      </trkpt>
      <trkpt lat="-2.570509" lon="-78.769730">
        <ele>3443.00</ele>
        <time>2018-09-08T20:49:20Z</time>
      </trkpt>
      <trkpt lat="-2.570509" lon="-78.769730">
        <ele>3443.00</ele>
        <time>2018-09-08T20:49:21Z</time>
      </trkpt>
      <trkpt lat="-2.570509" lon="-78.769730">
        <ele>3443.00</ele>
        <time>2018-09-08T20:49:22Z</time>
      </trkpt>
      <trkpt lat="-2.570509" lon="-78.769730">
        <ele>3443.00</ele>
        <time>2018-09-08T20:49:23Z</time>
      </trkpt>
      <trkpt lat="-2.570509" lon="-78.769730">
        <ele>3443.00</ele>
        <time>2018-09-08T20:49:24Z</time>
      </trkpt>
      <trkpt lat="-2.570509" lon="-78.769730">
        <ele>3443.00</ele>
        <time>2018-09-08T20:49:25Z</time>
      </trkpt>
      <trkpt lat="-2.570509" lon="-78.769730">
        <ele>3443.00</ele>
        <time>2018-09-08T20:49:26Z</time>
      </trkpt>
      <trkpt lat="-2.570509" lon="-78.769730">
        <ele>3443.00</ele>
        <time>2018-09-08T20:49:27Z</time>
      </trkpt>
      <trkpt lat="-2.570509" lon="-78.769730">
        <ele>3443.00</ele>
        <time>2018-09-08T20:49:28Z</time>
      </trkpt>
      <trkpt lat="-2.570509" lon="-78.769730">
        <ele>3443.00</ele>
        <time>2018-09-08T20:49:29Z</time>
      </trkpt>
      <trkpt lat="-2.570509" lon="-78.769730">
        <ele>3443.00</ele>
        <time>2018-09-08T20:49:30Z</time>
      </trkpt>
      <trkpt lat="-2.570503" lon="-78.769745">
        <ele>3443.00</ele>
        <time>2018-09-08T20:49:31Z</time>
      </trkpt>
      <trkpt lat="-2.570500" lon="-78.769753">
        <ele>3443.00</ele>
        <time>2018-09-08T20:49:32Z</time>
      </trkpt>
      <trkpt lat="-2.570495" lon="-78.769760">
        <ele>3442.00</ele>
        <time>2018-09-08T20:49:33Z</time>
      </trkpt>
      <trkpt lat="-2.570494" lon="-78.769783">
        <ele>3442.00</ele>
        <time>2018-09-08T20:49:34Z</time>
      </trkpt>
      <trkpt lat="-2.570493" lon="-78.769821">
        <ele>3442.00</ele>
        <time>2018-09-08T20:49:35Z</time>
      </trkpt>
      <trkpt lat="-2.570496" lon="-78.769836">
        <ele>3442.00</ele>
        <time>2018-09-08T20:49:36Z</time>
      </trkpt>
      <trkpt lat="-2.570499" lon="-78.769852">
        <ele>3442.00</ele>
        <time>2018-09-08T20:49:37Z</time>
      </trkpt>
      <trkpt lat="-2.570499" lon="-78.769867">
        <ele>3442.00</ele>
        <time>2018-09-08T20:49:38Z</time>
      </trkpt>
      <trkpt lat="-2.570498" lon="-78.769867">
        <ele>3442.00</ele>
        <time>2018-09-08T20:49:39Z</time>
      </trkpt>
      <trkpt lat="-2.570497" lon="-78.769882">
        <ele>3442.00</ele>
        <time>2018-09-08T20:49:40Z</time>
      </trkpt>
      <trkpt lat="-2.570498" lon="-78.769882">
        <ele>3442.00</ele>
        <time>2018-09-08T20:49:41Z</time>
      </trkpt>
      <trkpt lat="-2.570497" lon="-78.769882">
        <ele>3442.00</ele>
        <time>2018-09-08T20:49:42Z</time>
      </trkpt>
      <trkpt lat="-2.570497" lon="-78.769890">
        <ele>3442.00</ele>
        <time>2018-09-08T20:49:43Z</time>
      </trkpt>
      <trkpt lat="-2.570498" lon="-78.769890">
        <ele>3442.00</ele>
        <time>2018-09-08T20:49:44Z</time>
      </trkpt>
      <trkpt lat="-2.570499" lon="-78.769905">
        <ele>3442.00</ele>
        <time>2018-09-08T20:49:45Z</time>
      </trkpt>
      <trkpt lat="-2.570500" lon="-78.769913">
        <ele>3442.00</ele>
        <time>2018-09-08T20:49:46Z</time>
      </trkpt>
      <trkpt lat="-2.570500" lon="-78.769920">
        <ele>3442.00</ele>
        <time>2018-09-08T20:49:47Z</time>
      </trkpt>
      <trkpt lat="-2.570504" lon="-78.769936">
        <ele>3442.00</ele>
        <time>2018-09-08T20:49:48Z</time>
      </trkpt>
      <trkpt lat="-2.570517" lon="-78.769958">
        <ele>3442.00</ele>
        <time>2018-09-08T20:49:49Z</time>
      </trkpt>
      <trkpt lat="-2.570531" lon="-78.769997">
        <ele>3441.00</ele>
        <time>2018-09-08T20:49:50Z</time>
      </trkpt>
      <trkpt lat="-2.570543" lon="-78.770042">
        <ele>3441.00</ele>
        <time>2018-09-08T20:49:51Z</time>
      </trkpt>
      <trkpt lat="-2.570560" lon="-78.770088">
        <ele>3440.00</ele>
        <time>2018-09-08T20:49:52Z</time>
      </trkpt>
      <trkpt lat="-2.570586" lon="-78.770157">
        <ele>3440.00</ele>
        <time>2018-09-08T20:49:53Z</time>
      </trkpt>
      <trkpt lat="-2.570614" lon="-78.770226">
        <ele>3440.00</ele>
        <time>2018-09-08T20:49:54Z</time>
      </trkpt>
      <trkpt lat="-2.570651" lon="-78.770302">
        <ele>3439.00</ele>
        <time>2018-09-08T20:49:55Z</time>
      </trkpt>
      <trkpt lat="-2.570678" lon="-78.770370">
        <ele>3439.00</ele>
        <time>2018-09-08T20:49:56Z</time>
      </trkpt>
      <trkpt lat="-2.570696" lon="-78.770439">
        <ele>3439.00</ele>
        <time>2018-09-08T20:49:57Z</time>
      </trkpt>
      <trkpt lat="-2.570708" lon="-78.770500">
        <ele>3439.00</ele>
        <time>2018-09-08T20:49:58Z</time>
      </trkpt>
      <trkpt lat="-2.570723" lon="-78.770554">
        <ele>3438.00</ele>
        <time>2018-09-08T20:49:59Z</time>
      </trkpt>
      <trkpt lat="-2.570744" lon="-78.770607">
        <ele>3438.00</ele>
        <time>2018-09-08T20:50:00Z</time>
      </trkpt>
      <trkpt lat="-2.570774" lon="-78.770660">
        <ele>3438.00</ele>
        <time>2018-09-08T20:50:01Z</time>
      </trkpt>
      <trkpt lat="-2.570807" lon="-78.770714">
        <ele>3438.00</ele>
        <time>2018-09-08T20:50:02Z</time>
      </trkpt>
      <trkpt lat="-2.570836" lon="-78.770767">
        <ele>3437.00</ele>
        <time>2018-09-08T20:50:03Z</time>
      </trkpt>
      <trkpt lat="-2.570861" lon="-78.770805">
        <ele>3437.00</ele>
        <time>2018-09-08T20:50:04Z</time>
      </trkpt>
      <trkpt lat="-2.570882" lon="-78.770844">
        <ele>3437.00</ele>
        <time>2018-09-08T20:50:05Z</time>
      </trkpt>
      <trkpt lat="-2.570900" lon="-78.770874">
        <ele>3437.00</ele>
        <time>2018-09-08T20:50:06Z</time>
      </trkpt>
      <trkpt lat="-2.570918" lon="-78.770905">
        <ele>3437.00</ele>
        <time>2018-09-08T20:50:07Z</time>
      </trkpt>
      <trkpt lat="-2.570935" lon="-78.770943">
        <ele>3436.00</ele>
        <time>2018-09-08T20:50:08Z</time>
      </trkpt>
      <trkpt lat="-2.570948" lon="-78.770981">
        <ele>3436.00</ele>
        <time>2018-09-08T20:50:09Z</time>
      </trkpt>
      <trkpt lat="-2.570962" lon="-78.771034">
        <ele>3436.00</ele>
        <time>2018-09-08T20:50:10Z</time>
      </trkpt>
      <trkpt lat="-2.570977" lon="-78.771095">
        <ele>3435.00</ele>
        <time>2018-09-08T20:50:11Z</time>
      </trkpt>
      <trkpt lat="-2.570990" lon="-78.771156">
        <ele>3435.00</ele>
        <time>2018-09-08T20:50:12Z</time>
      </trkpt>
      <trkpt lat="-2.571000" lon="-78.771210">
        <ele>3435.00</ele>
        <time>2018-09-08T20:50:13Z</time>
      </trkpt>
      <trkpt lat="-2.571008" lon="-78.771255">
        <ele>3434.00</ele>
        <time>2018-09-08T20:50:14Z</time>
      </trkpt>
      <trkpt lat="-2.571018" lon="-78.771301">
        <ele>3434.00</ele>
        <time>2018-09-08T20:50:15Z</time>
      </trkpt>
      <trkpt lat="-2.571024" lon="-78.771324">
        <ele>3434.00</ele>
        <time>2018-09-08T20:50:16Z</time>
      </trkpt>
      <trkpt lat="-2.571027" lon="-78.771339">
        <ele>3434.00</ele>
        <time>2018-09-08T20:50:17Z</time>
      </trkpt>
      <trkpt lat="-2.571034" lon="-78.771370">
        <ele>3434.00</ele>
        <time>2018-09-08T20:50:18Z</time>
      </trkpt>
      <trkpt lat="-2.571041" lon="-78.771416">
        <ele>3434.00</ele>
        <time>2018-09-08T20:50:19Z</time>
      </trkpt>
      <trkpt lat="-2.571046" lon="-78.771477">
        <ele>3433.00</ele>
        <time>2018-09-08T20:50:20Z</time>
      </trkpt>
      <trkpt lat="-2.571044" lon="-78.771538">
        <ele>3433.00</ele>
        <time>2018-09-08T20:50:21Z</time>
      </trkpt>
      <trkpt lat="-2.571040" lon="-78.771584">
        <ele>3432.00</ele>
        <time>2018-09-08T20:50:22Z</time>
      </trkpt>
      <trkpt lat="-2.571037" lon="-78.771614">
        <ele>3432.00</ele>
        <time>2018-09-08T20:50:23Z</time>
      </trkpt>
      <trkpt lat="-2.571033" lon="-78.771652">
        <ele>3432.00</ele>
        <time>2018-09-08T20:50:24Z</time>
      </trkpt>
      <trkpt lat="-2.571028" lon="-78.771683">
        <ele>3432.00</ele>
        <time>2018-09-08T20:50:25Z</time>
      </trkpt>
      <trkpt lat="-2.571030" lon="-78.771706">
        <ele>3432.00</ele>
        <time>2018-09-08T20:50:26Z</time>
      </trkpt>
      <trkpt lat="-2.571041" lon="-78.771744">
        <ele>3432.00</ele>
        <time>2018-09-08T20:50:27Z</time>
      </trkpt>
      <trkpt lat="-2.571054" lon="-78.771767">
        <ele>3431.00</ele>
        <time>2018-09-08T20:50:28Z</time>
      </trkpt>
      <trkpt lat="-2.571073" lon="-78.771805">
        <ele>3431.00</ele>
        <time>2018-09-08T20:50:29Z</time>
      </trkpt>
      <trkpt lat="-2.571098" lon="-78.771851">
        <ele>3430.00</ele>
        <time>2018-09-08T20:50:30Z</time>
      </trkpt>
      <trkpt lat="-2.571130" lon="-78.771881">
        <ele>3430.00</ele>
        <time>2018-09-08T20:50:31Z</time>
      </trkpt>
      <trkpt lat="-2.571161" lon="-78.771919">
        <ele>3430.00</ele>
        <time>2018-09-08T20:50:32Z</time>
      </trkpt>
      <trkpt lat="-2.571199" lon="-78.771957">
        <ele>3429.00</ele>
        <time>2018-09-08T20:50:33Z</time>
      </trkpt>
      <trkpt lat="-2.571235" lon="-78.772003">
        <ele>3429.00</ele>
        <time>2018-09-08T20:50:34Z</time>
      </trkpt>
      <trkpt lat="-2.571267" lon="-78.772041">
        <ele>3429.00</ele>
        <time>2018-09-08T20:50:35Z</time>
      </trkpt>
      <trkpt lat="-2.571292" lon="-78.772110">
        <ele>3428.00</ele>
        <time>2018-09-08T20:50:36Z</time>
      </trkpt>
      <trkpt lat="-2.571295" lon="-78.772171">
        <ele>3428.00</ele>
        <time>2018-09-08T20:50:37Z</time>
      </trkpt>
      <trkpt lat="-2.571276" lon="-78.772240">
        <ele>3428.00</ele>
        <time>2018-09-08T20:50:38Z</time>
      </trkpt>
      <trkpt lat="-2.571236" lon="-78.772301">
        <ele>3427.00</ele>
        <time>2018-09-08T20:50:39Z</time>
      </trkpt>
      <trkpt lat="-2.571175" lon="-78.772354">
        <ele>3427.00</ele>
        <time>2018-09-08T20:50:40Z</time>
      </trkpt>
      <trkpt lat="-2.571110" lon="-78.772392">
        <ele>3427.00</ele>
        <time>2018-09-08T20:50:41Z</time>
      </trkpt>
      <trkpt lat="-2.571059" lon="-78.772430">
        <ele>3427.00</ele>
        <time>2018-09-08T20:50:42Z</time>
      </trkpt>
      <trkpt lat="-2.571008" lon="-78.772469">
        <ele>3426.00</ele>
        <time>2018-09-08T20:50:43Z</time>
      </trkpt>
      <trkpt lat="-2.570964" lon="-78.772522">
        <ele>3426.00</ele>
        <time>2018-09-08T20:50:44Z</time>
      </trkpt>
      <trkpt lat="-2.570927" lon="-78.772606">
        <ele>3426.00</ele>
        <time>2018-09-08T20:50:45Z</time>
      </trkpt>
      <trkpt lat="-2.570882" lon="-78.772659">
        <ele>3426.00</ele>
        <time>2018-09-08T20:50:46Z</time>
      </trkpt>
      <trkpt lat="-2.570827" lon="-78.772713">
        <ele>3426.00</ele>
        <time>2018-09-08T20:50:47Z</time>
      </trkpt>
      <trkpt lat="-2.570762" lon="-78.772766">
        <ele>3426.00</ele>
        <time>2018-09-08T20:50:48Z</time>
      </trkpt>
      <trkpt lat="-2.570697" lon="-78.772820">
        <ele>3425.00</ele>
        <time>2018-09-08T20:50:49Z</time>
      </trkpt>
      <trkpt lat="-2.570635" lon="-78.772873">
        <ele>3425.00</ele>
        <time>2018-09-08T20:50:50Z</time>
      </trkpt>
      <trkpt lat="-2.570579" lon="-78.772934">
        <ele>3425.00</ele>
        <time>2018-09-08T20:50:51Z</time>
      </trkpt>
      <trkpt lat="-2.570530" lon="-78.772995">
        <ele>3424.00</ele>
        <time>2018-09-08T20:50:52Z</time>
      </trkpt>
      <trkpt lat="-2.570489" lon="-78.773056">
        <ele>3424.00</ele>
        <time>2018-09-08T20:50:53Z</time>
      </trkpt>
      <trkpt lat="-2.570457" lon="-78.773117">
        <ele>3424.00</ele>
        <time>2018-09-08T20:50:54Z</time>
      </trkpt>
      <trkpt lat="-2.570439" lon="-78.773186">
        <ele>3423.00</ele>
        <time>2018-09-08T20:50:55Z</time>
      </trkpt>
      <trkpt lat="-2.570429" lon="-78.773254">
        <ele>3422.00</ele>
        <time>2018-09-08T20:50:56Z</time>
      </trkpt>
      <trkpt lat="-2.570438" lon="-78.773323">
        <ele>3421.00</ele>
        <time>2018-09-08T20:50:57Z</time>
      </trkpt>
      <trkpt lat="-2.570447" lon="-78.773399">
        <ele>3420.00</ele>
        <time>2018-09-08T20:50:58Z</time>
      </trkpt>
      <trkpt lat="-2.570463" lon="-78.773468">
        <ele>3419.00</ele>
        <time>2018-09-08T20:50:59Z</time>
      </trkpt>
      <trkpt lat="-2.570478" lon="-78.773537">
        <ele>3418.00</ele>
        <time>2018-09-08T20:51:00Z</time>
      </trkpt>
      <trkpt lat="-2.570488" lon="-78.773598">
        <ele>3416.00</ele>
        <time>2018-09-08T20:51:01Z</time>
      </trkpt>
      <trkpt lat="-2.570498" lon="-78.773659">
        <ele>3415.00</ele>
        <time>2018-09-08T20:51:02Z</time>
      </trkpt>
      <trkpt lat="-2.570505" lon="-78.773712">
        <ele>3414.00</ele>
        <time>2018-09-08T20:51:03Z</time>
      </trkpt>
      <trkpt lat="-2.570510" lon="-78.773750">
        <ele>3414.00</ele>
        <time>2018-09-08T20:51:04Z</time>
      </trkpt>
      <trkpt lat="-2.570506" lon="-78.773758">
        <ele>3413.00</ele>
        <time>2018-09-08T20:51:05Z</time>
      </trkpt>
      <trkpt lat="-2.570506" lon="-78.773758">
        <ele>3413.00</ele>
        <time>2018-09-08T20:51:06Z</time>
      </trkpt>
      <trkpt lat="-2.570506" lon="-78.773758">
        <ele>3413.00</ele>
        <time>2018-09-08T20:51:07Z</time>
      </trkpt>
      <trkpt lat="-2.570506" lon="-78.773758">
        <ele>3413.00</ele>
        <time>2018-09-08T20:51:08Z</time>
      </trkpt>
      <trkpt lat="-2.570506" lon="-78.773758">
        <ele>3413.00</ele>
        <time>2018-09-08T20:51:09Z</time>
      </trkpt>
      <trkpt lat="-2.570506" lon="-78.773758">
        <ele>3413.00</ele>
        <time>2018-09-08T20:51:10Z</time>
      </trkpt>
      <trkpt lat="-2.570506" lon="-78.773758">
        <ele>3413.00</ele>
        <time>2018-09-08T20:51:11Z</time>
      </trkpt>
      <trkpt lat="-2.570506" lon="-78.773758">
        <ele>3413.00</ele>
        <time>2018-09-08T20:51:12Z</time>
      </trkpt>
      <trkpt lat="-2.570506" lon="-78.773758">
        <ele>3413.00</ele>
        <time>2018-09-08T20:51:13Z</time>
      </trkpt>
      <trkpt lat="-2.570506" lon="-78.773758">
        <ele>3413.00</ele>
        <time>2018-09-08T20:51:14Z</time>
      </trkpt>
      <trkpt lat="-2.570506" lon="-78.773758">
        <ele>3413.00</ele>
        <time>2018-09-08T20:51:15Z</time>
      </trkpt>
      <trkpt lat="-2.570506" lon="-78.773758">
        <ele>3413.00</ele>
        <time>2018-09-08T20:51:16Z</time>
      </trkpt>
      <trkpt lat="-2.570506" lon="-78.773758">
        <ele>3413.00</ele>
        <time>2018-09-08T20:51:17Z</time>
      </trkpt>
      <trkpt lat="-2.570506" lon="-78.773758">
        <ele>3413.00</ele>
        <time>2018-09-08T20:51:18Z</time>
      </trkpt>
      <trkpt lat="-2.570506" lon="-78.773758">
        <ele>3413.00</ele>
        <time>2018-09-08T20:51:19Z</time>
      </trkpt>
      <trkpt lat="-2.570506" lon="-78.773758">
        <ele>3413.00</ele>
        <time>2018-09-08T20:51:20Z</time>
      </trkpt>
      <trkpt lat="-2.570506" lon="-78.773758">
        <ele>3412.00</ele>
        <time>2018-09-08T20:51:21Z</time>
      </trkpt>
      <trkpt lat="-2.570506" lon="-78.773758">
        <ele>3412.00</ele>
        <time>2018-09-08T20:51:22Z</time>
      </trkpt>
      <trkpt lat="-2.570506" lon="-78.773758">
        <ele>3412.00</ele>
        <time>2018-09-08T20:51:23Z</time>
      </trkpt>
      <trkpt lat="-2.570506" lon="-78.773758">
        <ele>3412.00</ele>
        <time>2018-09-08T20:51:24Z</time>
      </trkpt>
      <trkpt lat="-2.570506" lon="-78.773758">
        <ele>3412.00</ele>
        <time>2018-09-08T20:51:25Z</time>
      </trkpt>
      <trkpt lat="-2.570513" lon="-78.773743">
        <ele>3412.00</ele>
        <time>2018-09-08T20:51:26Z</time>
      </trkpt>
      <trkpt lat="-2.570515" lon="-78.773750">
        <ele>3412.00</ele>
        <time>2018-09-08T20:51:27Z</time>
      </trkpt>
      <trkpt lat="-2.570521" lon="-78.773766">
        <ele>3412.00</ele>
        <time>2018-09-08T20:51:28Z</time>
      </trkpt>
      <trkpt lat="-2.570523" lon="-78.773781">
        <ele>3412.00</ele>
        <time>2018-09-08T20:51:29Z</time>
      </trkpt>
      <trkpt lat="-2.570527" lon="-78.773796">
        <ele>3411.00</ele>
        <time>2018-09-08T20:51:30Z</time>
      </trkpt>
      <trkpt lat="-2.570529" lon="-78.773804">
        <ele>3411.00</ele>
        <time>2018-09-08T20:51:31Z</time>
      </trkpt>
      <trkpt lat="-2.570530" lon="-78.773811">
        <ele>3411.00</ele>
        <time>2018-09-08T20:51:32Z</time>
      </trkpt>
      <trkpt lat="-2.570534" lon="-78.773834">
        <ele>3411.00</ele>
        <time>2018-09-08T20:51:33Z</time>
      </trkpt>
      <trkpt lat="-2.570536" lon="-78.773842">
        <ele>3411.00</ele>
        <time>2018-09-08T20:51:34Z</time>
      </trkpt>
      <trkpt lat="-2.570536" lon="-78.773842">
        <ele>3411.00</ele>
        <time>2018-09-08T20:51:35Z</time>
      </trkpt>
      <trkpt lat="-2.570538" lon="-78.773849">
        <ele>3411.00</ele>
        <time>2018-09-08T20:51:36Z</time>
      </trkpt>
      <trkpt lat="-2.570548" lon="-78.773865">
        <ele>3411.00</ele>
        <time>2018-09-08T20:51:37Z</time>
      </trkpt>
      <trkpt lat="-2.570565" lon="-78.773911">
        <ele>3409.00</ele>
        <time>2018-09-08T20:51:38Z</time>
      </trkpt>
      <trkpt lat="-2.570582" lon="-78.773964">
        <ele>3408.00</ele>
        <time>2018-09-08T20:51:39Z</time>
      </trkpt>
      <trkpt lat="-2.570603" lon="-78.774048">
        <ele>3407.00</ele>
        <time>2018-09-08T20:51:40Z</time>
      </trkpt>
      <trkpt lat="-2.570630" lon="-78.774132">
        <ele>3407.00</ele>
        <time>2018-09-08T20:51:41Z</time>
      </trkpt>
      <trkpt lat="-2.570661" lon="-78.774231">
        <ele>3406.00</ele>
        <time>2018-09-08T20:51:42Z</time>
      </trkpt>
      <trkpt lat="-2.570696" lon="-78.774330">
        <ele>3406.00</ele>
        <time>2018-09-08T20:51:43Z</time>
      </trkpt>
      <trkpt lat="-2.570732" lon="-78.774429">
        <ele>3405.00</ele>
        <time>2018-09-08T20:51:44Z</time>
      </trkpt>
      <trkpt lat="-2.570760" lon="-78.774521">
        <ele>3405.00</ele>
        <time>2018-09-08T20:51:45Z</time>
      </trkpt>
      <trkpt lat="-2.570784" lon="-78.774605">
        <ele>3405.00</ele>
        <time>2018-09-08T20:51:46Z</time>
      </trkpt>
      <trkpt lat="-2.570814" lon="-78.774681">
        <ele>3404.00</ele>
        <time>2018-09-08T20:51:47Z</time>
      </trkpt>
      <trkpt lat="-2.570851" lon="-78.774765">
        <ele>3404.00</ele>
        <time>2018-09-08T20:51:48Z</time>
      </trkpt>
      <trkpt lat="-2.570882" lon="-78.774834">
        <ele>3404.00</ele>
        <time>2018-09-08T20:51:49Z</time>
      </trkpt>
      <trkpt lat="-2.570915" lon="-78.774887">
        <ele>3403.00</ele>
        <time>2018-09-08T20:51:50Z</time>
      </trkpt>
      <trkpt lat="-2.570957" lon="-78.774948">
        <ele>3403.00</ele>
        <time>2018-09-08T20:51:51Z</time>
      </trkpt>
      <trkpt lat="-2.571005" lon="-78.775002">
        <ele>3403.00</ele>
        <time>2018-09-08T20:51:52Z</time>
      </trkpt>
      <trkpt lat="-2.571050" lon="-78.775055">
        <ele>3402.00</ele>
        <time>2018-09-08T20:51:53Z</time>
      </trkpt>
      <trkpt lat="-2.571095" lon="-78.775101">
        <ele>3402.00</ele>
        <time>2018-09-08T20:51:54Z</time>
      </trkpt>
      <trkpt lat="-2.571140" lon="-78.775154">
        <ele>3402.00</ele>
        <time>2018-09-08T20:51:55Z</time>
      </trkpt>
      <trkpt lat="-2.571178" lon="-78.775215">
        <ele>3401.00</ele>
        <time>2018-09-08T20:51:56Z</time>
      </trkpt>
      <trkpt lat="-2.571206" lon="-78.775284">
        <ele>3401.00</ele>
        <time>2018-09-08T20:51:57Z</time>
      </trkpt>
      <trkpt lat="-2.571223" lon="-78.775330">
        <ele>3401.00</ele>
        <time>2018-09-08T20:51:58Z</time>
      </trkpt>
      <trkpt lat="-2.571234" lon="-78.775375">
        <ele>3401.00</ele>
        <time>2018-09-08T20:51:59Z</time>
      </trkpt>
      <trkpt lat="-2.571239" lon="-78.775429">
        <ele>3400.00</ele>
        <time>2018-09-08T20:52:00Z</time>
      </trkpt>
      <trkpt lat="-2.571243" lon="-78.775482">
        <ele>3400.00</ele>
        <time>2018-09-08T20:52:01Z</time>
      </trkpt>
      <trkpt lat="-2.571238" lon="-78.775536">
        <ele>3400.00</ele>
        <time>2018-09-08T20:52:02Z</time>
      </trkpt>
      <trkpt lat="-2.571231" lon="-78.775589">
        <ele>3400.00</ele>
        <time>2018-09-08T20:52:03Z</time>
      </trkpt>
      <trkpt lat="-2.571228" lon="-78.775665">
        <ele>3400.00</ele>
        <time>2018-09-08T20:52:04Z</time>
      </trkpt>
      <trkpt lat="-2.571228" lon="-78.775742">
        <ele>3399.00</ele>
        <time>2018-09-08T20:52:05Z</time>
      </trkpt>
      <trkpt lat="-2.571235" lon="-78.775833">
        <ele>3399.00</ele>
        <time>2018-09-08T20:52:06Z</time>
      </trkpt>
      <trkpt lat="-2.571236" lon="-78.775932">
        <ele>3399.00</ele>
        <time>2018-09-08T20:52:07Z</time>
      </trkpt>
      <trkpt lat="-2.571238" lon="-78.776009">
        <ele>3399.00</ele>
        <time>2018-09-08T20:52:08Z</time>
      </trkpt>
      <trkpt lat="-2.571248" lon="-78.776093">
        <ele>3399.00</ele>
        <time>2018-09-08T20:52:09Z</time>
      </trkpt>
      <trkpt lat="-2.571254" lon="-78.776169">
        <ele>3399.00</ele>
        <time>2018-09-08T20:52:10Z</time>
      </trkpt>
      <trkpt lat="-2.571257" lon="-78.776237">
        <ele>3399.00</ele>
        <time>2018-09-08T20:52:11Z</time>
      </trkpt>
      <trkpt lat="-2.571258" lon="-78.776314">
        <ele>3399.00</ele>
        <time>2018-09-08T20:52:12Z</time>
      </trkpt>
      <trkpt lat="-2.571260" lon="-78.776382">
        <ele>3399.00</ele>
        <time>2018-09-08T20:52:13Z</time>
      </trkpt>
      <trkpt lat="-2.571260" lon="-78.776451">
        <ele>3398.00</ele>
        <time>2018-09-08T20:52:14Z</time>
      </trkpt>
      <trkpt lat="-2.571269" lon="-78.776535">
        <ele>3398.00</ele>
        <time>2018-09-08T20:52:15Z</time>
      </trkpt>
      <trkpt lat="-2.571275" lon="-78.776604">
        <ele>3397.00</ele>
        <time>2018-09-08T20:52:16Z</time>
      </trkpt>
      <trkpt lat="-2.571272" lon="-78.776672">
        <ele>3397.00</ele>
        <time>2018-09-08T20:52:17Z</time>
      </trkpt>
      <trkpt lat="-2.571262" lon="-78.776764">
        <ele>3396.00</ele>
        <time>2018-09-08T20:52:18Z</time>
      </trkpt>
      <trkpt lat="-2.571246" lon="-78.776855">
        <ele>3395.00</ele>
        <time>2018-09-08T20:52:19Z</time>
      </trkpt>
      <trkpt lat="-2.571227" lon="-78.776924">
        <ele>3395.00</ele>
        <time>2018-09-08T20:52:20Z</time>
      </trkpt>
      <trkpt lat="-2.571209" lon="-78.776993">
        <ele>3394.00</ele>
        <time>2018-09-08T20:52:21Z</time>
      </trkpt>
      <trkpt lat="-2.571194" lon="-78.777061">
        <ele>3393.00</ele>
        <time>2018-09-08T20:52:22Z</time>
      </trkpt>
      <trkpt lat="-2.571197" lon="-78.777122">
        <ele>3392.00</ele>
        <time>2018-09-08T20:52:23Z</time>
      </trkpt>
      <trkpt lat="-2.571232" lon="-78.777191">
        <ele>3391.00</ele>
        <time>2018-09-08T20:52:24Z</time>
      </trkpt>
      <trkpt lat="-2.571265" lon="-78.777252">
        <ele>3390.00</ele>
        <time>2018-09-08T20:52:25Z</time>
      </trkpt>
      <trkpt lat="-2.571276" lon="-78.777313">
        <ele>3389.00</ele>
        <time>2018-09-08T20:52:26Z</time>
      </trkpt>
      <trkpt lat="-2.571256" lon="-78.777390">
        <ele>3389.00</ele>
        <time>2018-09-08T20:52:27Z</time>
      </trkpt>
      <trkpt lat="-2.571219" lon="-78.777458">
        <ele>3388.00</ele>
        <time>2018-09-08T20:52:28Z</time>
      </trkpt>
      <trkpt lat="-2.571186" lon="-78.777550">
        <ele>3387.00</ele>
        <time>2018-09-08T20:52:29Z</time>
      </trkpt>
      <trkpt lat="-2.571162" lon="-78.777634">
        <ele>3386.00</ele>
        <time>2018-09-08T20:52:30Z</time>
      </trkpt>
      <trkpt lat="-2.571147" lon="-78.777718">
        <ele>3386.00</ele>
        <time>2018-09-08T20:52:31Z</time>
      </trkpt>
      <trkpt lat="-2.571124" lon="-78.777802">
        <ele>3385.00</ele>
        <time>2018-09-08T20:52:32Z</time>
      </trkpt>
      <trkpt lat="-2.571091" lon="-78.777893">
        <ele>3384.00</ele>
        <time>2018-09-08T20:52:33Z</time>
      </trkpt>
      <trkpt lat="-2.571040" lon="-78.777962">
        <ele>3383.00</ele>
        <time>2018-09-08T20:52:34Z</time>
      </trkpt>
      <trkpt lat="-2.570983" lon="-78.778046">
        <ele>3382.00</ele>
        <time>2018-09-08T20:52:35Z</time>
      </trkpt>
      <trkpt lat="-2.570928" lon="-78.778114">
        <ele>3381.00</ele>
        <time>2018-09-08T20:52:36Z</time>
      </trkpt>
      <trkpt lat="-2.570875" lon="-78.778198">
        <ele>3380.00</ele>
        <time>2018-09-08T20:52:37Z</time>
      </trkpt>
      <trkpt lat="-2.570831" lon="-78.778275">
        <ele>3380.00</ele>
        <time>2018-09-08T20:52:38Z</time>
      </trkpt>
      <trkpt lat="-2.570797" lon="-78.778366">
        <ele>3379.00</ele>
        <time>2018-09-08T20:52:39Z</time>
      </trkpt>
      <trkpt lat="-2.570768" lon="-78.778465">
        <ele>3378.00</ele>
        <time>2018-09-08T20:52:40Z</time>
      </trkpt>
      <trkpt lat="-2.570740" lon="-78.778549">
        <ele>3377.00</ele>
        <time>2018-09-08T20:52:41Z</time>
      </trkpt>
      <trkpt lat="-2.570712" lon="-78.778633">
        <ele>3376.00</ele>
        <time>2018-09-08T20:52:42Z</time>
      </trkpt>
      <trkpt lat="-2.570677" lon="-78.778709">
        <ele>3375.00</ele>
        <time>2018-09-08T20:52:43Z</time>
      </trkpt>
      <trkpt lat="-2.570632" lon="-78.778793">
        <ele>3374.00</ele>
        <time>2018-09-08T20:52:44Z</time>
      </trkpt>
      <trkpt lat="-2.570586" lon="-78.778862">
        <ele>3374.00</ele>
        <time>2018-09-08T20:52:45Z</time>
      </trkpt>
      <trkpt lat="-2.570547" lon="-78.778923">
        <ele>3373.00</ele>
        <time>2018-09-08T20:52:46Z</time>
      </trkpt>
      <trkpt lat="-2.570511" lon="-78.778969">
        <ele>3372.00</ele>
        <time>2018-09-08T20:52:47Z</time>
      </trkpt>
      <trkpt lat="-2.570475" lon="-78.779007">
        <ele>3371.00</ele>
        <time>2018-09-08T20:52:48Z</time>
      </trkpt>
      <trkpt lat="-2.570434" lon="-78.779015">
        <ele>3370.00</ele>
        <time>2018-09-08T20:52:49Z</time>
      </trkpt>
      <trkpt lat="-2.570388" lon="-78.779007">
        <ele>3370.00</ele>
        <time>2018-09-08T20:52:50Z</time>
      </trkpt>
      <trkpt lat="-2.570343" lon="-78.778984">
        <ele>3369.00</ele>
        <time>2018-09-08T20:52:51Z</time>
      </trkpt>
      <trkpt lat="-2.570307" lon="-78.778946">
        <ele>3368.00</ele>
        <time>2018-09-08T20:52:52Z</time>
      </trkpt>
      <trkpt lat="-2.570268" lon="-78.778908">
        <ele>3367.00</ele>
        <time>2018-09-08T20:52:53Z</time>
      </trkpt>
      <trkpt lat="-2.570242" lon="-78.778854">
        <ele>3367.00</ele>
        <time>2018-09-08T20:52:54Z</time>
      </trkpt>
      <trkpt lat="-2.570229" lon="-78.778816">
        <ele>3367.00</ele>
        <time>2018-09-08T20:52:55Z</time>
      </trkpt>
      <trkpt lat="-2.570228" lon="-78.778793">
        <ele>3367.00</ele>
        <time>2018-09-08T20:52:56Z</time>
      </trkpt>
      <trkpt lat="-2.570221" lon="-78.778770">
        <ele>3367.00</ele>
        <time>2018-09-08T20:52:57Z</time>
      </trkpt>
      <trkpt lat="-2.570216" lon="-78.778755">
        <ele>3367.00</ele>
        <time>2018-09-08T20:52:58Z</time>
      </trkpt>
      <trkpt lat="-2.570212" lon="-78.778732">
        <ele>3367.00</ele>
        <time>2018-09-08T20:52:59Z</time>
      </trkpt>
      <trkpt lat="-2.570208" lon="-78.778709">
        <ele>3366.00</ele>
        <time>2018-09-08T20:53:00Z</time>
      </trkpt>
      <trkpt lat="-2.570203" lon="-78.778694">
        <ele>3366.00</ele>
        <time>2018-09-08T20:53:01Z</time>
      </trkpt>
      <trkpt lat="-2.570199" lon="-78.778679">
        <ele>3366.00</ele>
        <time>2018-09-08T20:53:02Z</time>
      </trkpt>
      <trkpt lat="-2.570198" lon="-78.778664">
        <ele>3366.00</ele>
        <time>2018-09-08T20:53:03Z</time>
      </trkpt>
      <trkpt lat="-2.570198" lon="-78.778664">
        <ele>3366.00</ele>
        <time>2018-09-08T20:53:04Z</time>
      </trkpt>
      <trkpt lat="-2.570198" lon="-78.778664">
        <ele>3366.00</ele>
        <time>2018-09-08T20:53:05Z</time>
      </trkpt>
      <trkpt lat="-2.570198" lon="-78.778664">
        <ele>3366.00</ele>
        <time>2018-09-08T20:53:06Z</time>
      </trkpt>
      <trkpt lat="-2.570198" lon="-78.778664">
        <ele>3366.00</ele>
        <time>2018-09-08T20:53:07Z</time>
      </trkpt>
      <trkpt lat="-2.570198" lon="-78.778664">
        <ele>3366.00</ele>
        <time>2018-09-08T20:53:08Z</time>
      </trkpt>
      <trkpt lat="-2.570198" lon="-78.778664">
        <ele>3366.00</ele>
        <time>2018-09-08T20:53:09Z</time>
      </trkpt>
      <trkpt lat="-2.570198" lon="-78.778664">
        <ele>3366.00</ele>
        <time>2018-09-08T20:53:10Z</time>
      </trkpt>
      <trkpt lat="-2.570198" lon="-78.778664">
        <ele>3366.00</ele>
        <time>2018-09-08T20:53:11Z</time>
      </trkpt>
      <trkpt lat="-2.570198" lon="-78.778664">
        <ele>3366.00</ele>
        <time>2018-09-08T20:53:12Z</time>
      </trkpt>
      <trkpt lat="-2.570198" lon="-78.778664">
        <ele>3365.00</ele>
        <time>2018-09-08T20:53:13Z</time>
      </trkpt>
      <trkpt lat="-2.570204" lon="-78.778603">
        <ele>3365.00</ele>
        <time>2018-09-08T20:53:14Z</time>
      </trkpt>
      <trkpt lat="-2.570204" lon="-78.778603">
        <ele>3365.00</ele>
        <time>2018-09-08T20:53:15Z</time>
      </trkpt>
      <trkpt lat="-2.570204" lon="-78.778603">
        <ele>3365.00</ele>
        <time>2018-09-08T20:53:16Z</time>
      </trkpt>
      <trkpt lat="-2.570204" lon="-78.778603">
        <ele>3365.00</ele>
        <time>2018-09-08T20:53:17Z</time>
      </trkpt>
      <trkpt lat="-2.570215" lon="-78.778557">
        <ele>3365.00</ele>
        <time>2018-09-08T20:53:18Z</time>
      </trkpt>
      <trkpt lat="-2.570225" lon="-78.778542">
        <ele>3365.00</ele>
        <time>2018-09-08T20:53:19Z</time>
      </trkpt>
      <trkpt lat="-2.570235" lon="-78.778519">
        <ele>3365.00</ele>
        <time>2018-09-08T20:53:20Z</time>
      </trkpt>
      <trkpt lat="-2.570244" lon="-78.778496">
        <ele>3365.00</ele>
        <time>2018-09-08T20:53:21Z</time>
      </trkpt>
      <trkpt lat="-2.570249" lon="-78.778473">
        <ele>3365.00</ele>
        <time>2018-09-08T20:53:22Z</time>
      </trkpt>
      <trkpt lat="-2.570261" lon="-78.778465">
        <ele>3365.00</ele>
        <time>2018-09-08T20:53:23Z</time>
      </trkpt>
      <trkpt lat="-2.570281" lon="-78.778435">
        <ele>3364.00</ele>
        <time>2018-09-08T20:53:24Z</time>
      </trkpt>
      <trkpt lat="-2.570297" lon="-78.778397">
        <ele>3363.00</ele>
        <time>2018-09-08T20:53:25Z</time>
      </trkpt>
      <trkpt lat="-2.570309" lon="-78.778358">
        <ele>3363.00</ele>
        <time>2018-09-08T20:53:26Z</time>
      </trkpt>
      <trkpt lat="-2.570317" lon="-78.778305">
        <ele>3363.00</ele>
        <time>2018-09-08T20:53:27Z</time>
      </trkpt>
      <trkpt lat="-2.570326" lon="-78.778259">
        <ele>3363.00</ele>
        <time>2018-09-08T20:53:28Z</time>
      </trkpt>
      <trkpt lat="-2.570324" lon="-78.778229">
        <ele>3363.00</ele>
        <time>2018-09-08T20:53:29Z</time>
      </trkpt>
      <trkpt lat="-2.570298" lon="-78.778198">
        <ele>3362.00</ele>
        <time>2018-09-08T20:53:30Z</time>
      </trkpt>
      <trkpt lat="-2.570250" lon="-78.778168">
        <ele>3362.00</ele>
        <time>2018-09-08T20:53:31Z</time>
      </trkpt>
      <trkpt lat="-2.570195" lon="-78.778114">
        <ele>3362.00</ele>
        <time>2018-09-08T20:53:32Z</time>
      </trkpt>
      <trkpt lat="-2.570142" lon="-78.778084">
        <ele>3362.00</ele>
        <time>2018-09-08T20:53:33Z</time>
      </trkpt>
      <trkpt lat="-2.570100" lon="-78.778046">
        <ele>3362.00</ele>
        <time>2018-09-08T20:53:34Z</time>
      </trkpt>
      <trkpt lat="-2.570065" lon="-78.778015">
        <ele>3362.00</ele>
        <time>2018-09-08T20:53:35Z</time>
      </trkpt>
      <trkpt lat="-2.570036" lon="-78.777992">
        <ele>3362.00</ele>
        <time>2018-09-08T20:53:36Z</time>
      </trkpt>
      <trkpt lat="-2.569995" lon="-78.777977">
        <ele>3362.00</ele>
        <time>2018-09-08T20:53:37Z</time>
      </trkpt>
      <trkpt lat="-2.569956" lon="-78.777962">
        <ele>3362.00</ele>
        <time>2018-09-08T20:53:38Z</time>
      </trkpt>
      <trkpt lat="-2.569909" lon="-78.777954">
        <ele>3361.00</ele>
        <time>2018-09-08T20:53:39Z</time>
      </trkpt>
      <trkpt lat="-2.569861" lon="-78.777946">
        <ele>3361.00</ele>
        <time>2018-09-08T20:53:40Z</time>
      </trkpt>
      <trkpt lat="-2.569833" lon="-78.777924">
        <ele>3361.00</ele>
        <time>2018-09-08T20:53:41Z</time>
      </trkpt>
      <trkpt lat="-2.569797" lon="-78.777908">
        <ele>3361.00</ele>
        <time>2018-09-08T20:53:42Z</time>
      </trkpt>
      <trkpt lat="-2.569771" lon="-78.777924">
        <ele>3361.00</ele>
        <time>2018-09-08T20:53:43Z</time>
      </trkpt>
      <trkpt lat="-2.569740" lon="-78.777924">
        <ele>3361.00</ele>
        <time>2018-09-08T20:53:44Z</time>
      </trkpt>
      <trkpt lat="-2.569703" lon="-78.777908">
        <ele>3361.00</ele>
        <time>2018-09-08T20:53:45Z</time>
      </trkpt>
      <trkpt lat="-2.569661" lon="-78.777931">
        <ele>3361.00</ele>
        <time>2018-09-08T20:53:46Z</time>
      </trkpt>
      <trkpt lat="-2.569626" lon="-78.777931">
        <ele>3361.00</ele>
        <time>2018-09-08T20:53:47Z</time>
      </trkpt>
      <trkpt lat="-2.569596" lon="-78.777939">
        <ele>3361.00</ele>
        <time>2018-09-08T20:53:48Z</time>
      </trkpt>
      <trkpt lat="-2.569572" lon="-78.777946">
        <ele>3361.00</ele>
        <time>2018-09-08T20:53:49Z</time>
      </trkpt>
      <trkpt lat="-2.569545" lon="-78.777946">
        <ele>3361.00</ele>
        <time>2018-09-08T20:53:50Z</time>
      </trkpt>
      <trkpt lat="-2.569512" lon="-78.777962">
        <ele>3361.00</ele>
        <time>2018-09-08T20:53:51Z</time>
      </trkpt>
      <trkpt lat="-2.569470" lon="-78.777977">
        <ele>3361.00</ele>
        <time>2018-09-08T20:53:52Z</time>
      </trkpt>
      <trkpt lat="-2.569432" lon="-78.777985">
        <ele>3361.00</ele>
        <time>2018-09-08T20:53:53Z</time>
      </trkpt>
      <trkpt lat="-2.569394" lon="-78.777992">
        <ele>3361.00</ele>
        <time>2018-09-08T20:53:54Z</time>
      </trkpt>
      <trkpt lat="-2.569356" lon="-78.778000">
        <ele>3361.00</ele>
        <time>2018-09-08T20:53:55Z</time>
      </trkpt>
      <trkpt lat="-2.569318" lon="-78.778000">
        <ele>3361.00</ele>
        <time>2018-09-08T20:53:56Z</time>
      </trkpt>
      <trkpt lat="-2.569286" lon="-78.778000">
        <ele>3361.00</ele>
        <time>2018-09-08T20:53:57Z</time>
      </trkpt>
      <trkpt lat="-2.569253" lon="-78.778000">
        <ele>3361.00</ele>
        <time>2018-09-08T20:53:58Z</time>
      </trkpt>
      <trkpt lat="-2.569219" lon="-78.778000">
        <ele>3361.00</ele>
        <time>2018-09-08T20:53:59Z</time>
      </trkpt>
      <trkpt lat="-2.569178" lon="-78.778000">
        <ele>3361.00</ele>
        <time>2018-09-08T20:54:00Z</time>
      </trkpt>
      <trkpt lat="-2.569130" lon="-78.777992">
        <ele>3360.00</ele>
        <time>2018-09-08T20:54:01Z</time>
      </trkpt>
      <trkpt lat="-2.569076" lon="-78.777992">
        <ele>3360.00</ele>
        <time>2018-09-08T20:54:02Z</time>
      </trkpt>
      <trkpt lat="-2.569032" lon="-78.777962">
        <ele>3360.00</ele>
        <time>2018-09-08T20:54:03Z</time>
      </trkpt>
      <trkpt lat="-2.569001" lon="-78.777946">
        <ele>3360.00</ele>
        <time>2018-09-08T20:54:04Z</time>
      </trkpt>
      <trkpt lat="-2.568961" lon="-78.777931">
        <ele>3360.00</ele>
        <time>2018-09-08T20:54:05Z</time>
      </trkpt>
      <trkpt lat="-2.568931" lon="-78.777901">
        <ele>3359.00</ele>
        <time>2018-09-08T20:54:06Z</time>
      </trkpt>
      <trkpt lat="-2.568908" lon="-78.777870">
        <ele>3359.00</ele>
        <time>2018-09-08T20:54:07Z</time>
      </trkpt>
      <trkpt lat="-2.568887" lon="-78.777824">
        <ele>3359.00</ele>
        <time>2018-09-08T20:54:08Z</time>
      </trkpt>
      <trkpt lat="-2.568856" lon="-78.777786">
        <ele>3359.00</ele>
        <time>2018-09-08T20:54:09Z</time>
      </trkpt>
      <trkpt lat="-2.568829" lon="-78.777748">
        <ele>3359.00</ele>
        <time>2018-09-08T20:54:10Z</time>
      </trkpt>
      <trkpt lat="-2.568808" lon="-78.777718">
        <ele>3359.00</ele>
        <time>2018-09-08T20:54:11Z</time>
      </trkpt>
      <trkpt lat="-2.568786" lon="-78.777679">
        <ele>3358.00</ele>
        <time>2018-09-08T20:54:12Z</time>
      </trkpt>
      <trkpt lat="-2.568768" lon="-78.777657">
        <ele>3358.00</ele>
        <time>2018-09-08T20:54:13Z</time>
      </trkpt>
      <trkpt lat="-2.568759" lon="-78.777641">
        <ele>3358.00</ele>
        <time>2018-09-08T20:54:14Z</time>
      </trkpt>
      <trkpt lat="-2.568755" lon="-78.777634">
        <ele>3358.00</ele>
        <time>2018-09-08T20:54:15Z</time>
      </trkpt>
      <trkpt lat="-2.568749" lon="-78.777626">
        <ele>3358.00</ele>
        <time>2018-09-08T20:54:16Z</time>
      </trkpt>
      <trkpt lat="-2.568733" lon="-78.777611">
        <ele>3358.00</ele>
        <time>2018-09-08T20:54:17Z</time>
      </trkpt>
      <trkpt lat="-2.568705" lon="-78.777588">
        <ele>3358.00</ele>
        <time>2018-09-08T20:54:18Z</time>
      </trkpt>
      <trkpt lat="-2.568676" lon="-78.777550">
        <ele>3358.00</ele>
        <time>2018-09-08T20:54:19Z</time>
      </trkpt>
      <trkpt lat="-2.568642" lon="-78.777519">
        <ele>3357.00</ele>
        <time>2018-09-08T20:54:20Z</time>
      </trkpt>
      <trkpt lat="-2.568592" lon="-78.777512">
        <ele>3357.00</ele>
        <time>2018-09-08T20:54:21Z</time>
      </trkpt>
      <trkpt lat="-2.568536" lon="-78.777519">
        <ele>3357.00</ele>
        <time>2018-09-08T20:54:22Z</time>
      </trkpt>
      <trkpt lat="-2.568493" lon="-78.777534">
        <ele>3357.00</ele>
        <time>2018-09-08T20:54:23Z</time>
      </trkpt>
      <trkpt lat="-2.568473" lon="-78.777557">
        <ele>3357.00</ele>
        <time>2018-09-08T20:54:24Z</time>
      </trkpt>
      <trkpt lat="-2.568442" lon="-78.777565">
        <ele>3357.00</ele>
        <time>2018-09-08T20:54:25Z</time>
      </trkpt>
      <trkpt lat="-2.568414" lon="-78.777580">
        <ele>3357.00</ele>
        <time>2018-09-08T20:54:26Z</time>
      </trkpt>
      <trkpt lat="-2.568396" lon="-78.777603">
        <ele>3357.00</ele>
        <time>2018-09-08T20:54:27Z</time>
      </trkpt>
      <trkpt lat="-2.568373" lon="-78.777626">
        <ele>3357.00</ele>
        <time>2018-09-08T20:54:28Z</time>
      </trkpt>
      <trkpt lat="-2.568358" lon="-78.777657">
        <ele>3357.00</ele>
        <time>2018-09-08T20:54:29Z</time>
      </trkpt>
      <trkpt lat="-2.568332" lon="-78.777672">
        <ele>3357.00</ele>
        <time>2018-09-08T20:54:30Z</time>
      </trkpt>
      <trkpt lat="-2.568308" lon="-78.777695">
        <ele>3357.00</ele>
        <time>2018-09-08T20:54:31Z</time>
      </trkpt>
      <trkpt lat="-2.568285" lon="-78.777733">
        <ele>3356.00</ele>
        <time>2018-09-08T20:54:32Z</time>
      </trkpt>
      <trkpt lat="-2.568270" lon="-78.777771">
        <ele>3356.00</ele>
        <time>2018-09-08T20:54:33Z</time>
      </trkpt>
      <trkpt lat="-2.568252" lon="-78.777786">
        <ele>3356.00</ele>
        <time>2018-09-08T20:54:34Z</time>
      </trkpt>
      <trkpt lat="-2.568232" lon="-78.777794">
        <ele>3356.00</ele>
        <time>2018-09-08T20:54:35Z</time>
      </trkpt>
      <trkpt lat="-2.568203" lon="-78.777802">
        <ele>3356.00</ele>
        <time>2018-09-08T20:54:36Z</time>
      </trkpt>
      <trkpt lat="-2.568177" lon="-78.777832">
        <ele>3356.00</ele>
        <time>2018-09-08T20:54:37Z</time>
      </trkpt>
      <trkpt lat="-2.568148" lon="-78.777847">
        <ele>3356.00</ele>
        <time>2018-09-08T20:54:38Z</time>
      </trkpt>
      <trkpt lat="-2.568115" lon="-78.777870">
        <ele>3355.00</ele>
        <time>2018-09-08T20:54:39Z</time>
      </trkpt>
      <trkpt lat="-2.568083" lon="-78.777893">
        <ele>3355.00</ele>
        <time>2018-09-08T20:54:40Z</time>
      </trkpt>
      <trkpt lat="-2.568056" lon="-78.777901">
        <ele>3355.00</ele>
        <time>2018-09-08T20:54:41Z</time>
      </trkpt>
      <trkpt lat="-2.568040" lon="-78.777893">
        <ele>3355.00</ele>
        <time>2018-09-08T20:54:42Z</time>
      </trkpt>
      <trkpt lat="-2.568029" lon="-78.777885">
        <ele>3355.00</ele>
        <time>2018-09-08T20:54:43Z</time>
      </trkpt>
      <trkpt lat="-2.568022" lon="-78.777885">
        <ele>3355.00</ele>
        <time>2018-09-08T20:54:44Z</time>
      </trkpt>
      <trkpt lat="-2.568023" lon="-78.777885">
        <ele>3354.00</ele>
        <time>2018-09-08T20:54:45Z</time>
      </trkpt>
      <trkpt lat="-2.568027" lon="-78.777885">
        <ele>3354.00</ele>
        <time>2018-09-08T20:54:46Z</time>
      </trkpt>
      <trkpt lat="-2.568028" lon="-78.777885">
        <ele>3354.00</ele>
        <time>2018-09-08T20:54:47Z</time>
      </trkpt>
      <trkpt lat="-2.568033" lon="-78.777878">
        <ele>3354.00</ele>
        <time>2018-09-08T20:54:48Z</time>
      </trkpt>
      <trkpt lat="-2.568032" lon="-78.777878">
        <ele>3354.00</ele>
        <time>2018-09-08T20:54:49Z</time>
      </trkpt>
      <trkpt lat="-2.568033" lon="-78.777878">
        <ele>3354.00</ele>
        <time>2018-09-08T20:54:50Z</time>
      </trkpt>
      <trkpt lat="-2.568033" lon="-78.777878">
        <ele>3354.00</ele>
        <time>2018-09-08T20:54:51Z</time>
      </trkpt>
      <trkpt lat="-2.568033" lon="-78.777878">
        <ele>3354.00</ele>
        <time>2018-09-08T20:54:52Z</time>
      </trkpt>
      <trkpt lat="-2.568033" lon="-78.777878">
        <ele>3354.00</ele>
        <time>2018-09-08T20:54:53Z</time>
      </trkpt>
      <trkpt lat="-2.568034" lon="-78.777878">
        <ele>3354.00</ele>
        <time>2018-09-08T20:54:54Z</time>
      </trkpt>
      <trkpt lat="-2.568035" lon="-78.777878">
        <ele>3354.00</ele>
        <time>2018-09-08T20:54:55Z</time>
      </trkpt>
      <trkpt lat="-2.568035" lon="-78.777878">
        <ele>3354.00</ele>
        <time>2018-09-08T20:54:56Z</time>
      </trkpt>
      <trkpt lat="-2.568036" lon="-78.777878">
        <ele>3354.00</ele>
        <time>2018-09-08T20:54:57Z</time>
      </trkpt>
      <trkpt lat="-2.568036" lon="-78.777878">
        <ele>3354.00</ele>
        <time>2018-09-08T20:54:58Z</time>
      </trkpt>
      <trkpt lat="-2.568036" lon="-78.777878">
        <ele>3354.00</ele>
        <time>2018-09-08T20:54:59Z</time>
      </trkpt>
      <trkpt lat="-2.568037" lon="-78.777878">
        <ele>3354.00</ele>
        <time>2018-09-08T20:55:00Z</time>
      </trkpt>
      <trkpt lat="-2.568038" lon="-78.777878">
        <ele>3354.00</ele>
        <time>2018-09-08T20:55:01Z</time>
      </trkpt>
      <trkpt lat="-2.568038" lon="-78.777878">
        <ele>3354.00</ele>
        <time>2018-09-08T20:55:02Z</time>
      </trkpt>
      <trkpt lat="-2.568038" lon="-78.777878">
        <ele>3354.00</ele>
        <time>2018-09-08T20:55:03Z</time>
      </trkpt>
      <trkpt lat="-2.568038" lon="-78.777878">
        <ele>3354.00</ele>
        <time>2018-09-08T20:55:04Z</time>
      </trkpt>
      <trkpt lat="-2.568038" lon="-78.777878">
        <ele>3354.00</ele>
        <time>2018-09-08T20:55:05Z</time>
      </trkpt>
      <trkpt lat="-2.568038" lon="-78.777878">
        <ele>3354.00</ele>
        <time>2018-09-08T20:55:06Z</time>
      </trkpt>
      <trkpt lat="-2.568039" lon="-78.777878">
        <ele>3354.00</ele>
        <time>2018-09-08T20:55:07Z</time>
      </trkpt>
      <trkpt lat="-2.568039" lon="-78.777878">
        <ele>3354.00</ele>
        <time>2018-09-08T20:55:08Z</time>
      </trkpt>
      <trkpt lat="-2.568039" lon="-78.777878">
        <ele>3354.00</ele>
        <time>2018-09-08T20:55:09Z</time>
      </trkpt>
      <trkpt lat="-2.568039" lon="-78.777878">
        <ele>3354.00</ele>
        <time>2018-09-08T20:55:10Z</time>
      </trkpt>
      <trkpt lat="-2.568039" lon="-78.777878">
        <ele>3354.00</ele>
        <time>2018-09-08T20:55:11Z</time>
      </trkpt>
      <trkpt lat="-2.568040" lon="-78.777878">
        <ele>3354.00</ele>
        <time>2018-09-08T20:55:12Z</time>
      </trkpt>
      <trkpt lat="-2.568041" lon="-78.777878">
        <ele>3354.00</ele>
        <time>2018-09-08T20:55:13Z</time>
      </trkpt>
      <trkpt lat="-2.568041" lon="-78.777878">
        <ele>3354.00</ele>
        <time>2018-09-08T20:55:14Z</time>
      </trkpt>
      <trkpt lat="-2.568041" lon="-78.777878">
        <ele>3354.00</ele>
        <time>2018-09-08T20:55:15Z</time>
      </trkpt>
      <trkpt lat="-2.568042" lon="-78.777878">
        <ele>3354.00</ele>
        <time>2018-09-08T20:55:16Z</time>
      </trkpt>
      <trkpt lat="-2.568042" lon="-78.777878">
        <ele>3354.00</ele>
        <time>2018-09-08T20:55:17Z</time>
      </trkpt>
      <trkpt lat="-2.568042" lon="-78.777878">
        <ele>3353.00</ele>
        <time>2018-09-08T20:55:18Z</time>
      </trkpt>
      <trkpt lat="-2.568042" lon="-78.777878">
        <ele>3353.00</ele>
        <time>2018-09-08T20:55:19Z</time>
      </trkpt>
      <trkpt lat="-2.568043" lon="-78.777878">
        <ele>3353.00</ele>
        <time>2018-09-08T20:55:20Z</time>
      </trkpt>
      <trkpt lat="-2.568043" lon="-78.777878">
        <ele>3353.00</ele>
        <time>2018-09-08T20:55:21Z</time>
      </trkpt>
      <trkpt lat="-2.568044" lon="-78.777878">
        <ele>3353.00</ele>
        <time>2018-09-08T20:55:22Z</time>
      </trkpt>
      <trkpt lat="-2.568044" lon="-78.777878">
        <ele>3353.00</ele>
        <time>2018-09-08T20:55:23Z</time>
      </trkpt>
      <trkpt lat="-2.568043" lon="-78.777878">
        <ele>3353.00</ele>
        <time>2018-09-08T20:55:24Z</time>
      </trkpt>
      <trkpt lat="-2.568044" lon="-78.777878">
        <ele>3353.00</ele>
        <time>2018-09-08T20:55:25Z</time>
      </trkpt>
      <trkpt lat="-2.568045" lon="-78.777878">
        <ele>3353.00</ele>
        <time>2018-09-08T20:55:26Z</time>
      </trkpt>
      <trkpt lat="-2.568045" lon="-78.777878">
        <ele>3353.00</ele>
        <time>2018-09-08T20:55:27Z</time>
      </trkpt>
      <trkpt lat="-2.568046" lon="-78.777878">
        <ele>3353.00</ele>
        <time>2018-09-08T20:55:28Z</time>
      </trkpt>
      <trkpt lat="-2.568046" lon="-78.777878">
        <ele>3352.00</ele>
        <time>2018-09-08T20:55:29Z</time>
      </trkpt>
      <trkpt lat="-2.568041" lon="-78.777870">
        <ele>3352.00</ele>
        <time>2018-09-08T20:55:30Z</time>
      </trkpt>
      <trkpt lat="-2.568044" lon="-78.777870">
        <ele>3351.00</ele>
        <time>2018-09-08T20:55:31Z</time>
      </trkpt>
      <trkpt lat="-2.568048" lon="-78.777855">
        <ele>3351.00</ele>
        <time>2018-09-08T20:55:32Z</time>
      </trkpt>
      <trkpt lat="-2.568048" lon="-78.777855">
        <ele>3351.00</ele>
        <time>2018-09-08T20:55:33Z</time>
      </trkpt>
      <trkpt lat="-2.568052" lon="-78.777855">
        <ele>3350.00</ele>
        <time>2018-09-08T20:55:34Z</time>
      </trkpt>
      <trkpt lat="-2.568056" lon="-78.777847">
        <ele>3350.00</ele>
        <time>2018-09-08T20:55:35Z</time>
      </trkpt>
      <trkpt lat="-2.568055" lon="-78.777847">
        <ele>3349.00</ele>
        <time>2018-09-08T20:55:36Z</time>
      </trkpt>
      <trkpt lat="-2.568052" lon="-78.777847">
        <ele>3349.00</ele>
        <time>2018-09-08T20:55:37Z</time>
      </trkpt>
      <trkpt lat="-2.568049" lon="-78.777847">
        <ele>3349.00</ele>
        <time>2018-09-08T20:55:38Z</time>
      </trkpt>
      <trkpt lat="-2.568048" lon="-78.777847">
        <ele>3348.00</ele>
        <time>2018-09-08T20:55:39Z</time>
      </trkpt>
      <trkpt lat="-2.568049" lon="-78.777847">
        <ele>3348.00</ele>
        <time>2018-09-08T20:55:40Z</time>
      </trkpt>
      <trkpt lat="-2.568061" lon="-78.777847">
        <ele>3347.00</ele>
        <time>2018-09-08T20:55:41Z</time>
      </trkpt>
      <trkpt lat="-2.568069" lon="-78.777847">
        <ele>3347.00</ele>
        <time>2018-09-08T20:55:42Z</time>
      </trkpt>
      <trkpt lat="-2.568071" lon="-78.777847">
        <ele>3347.00</ele>
        <time>2018-09-08T20:55:43Z</time>
      </trkpt>
      <trkpt lat="-2.568073" lon="-78.777840">
        <ele>3347.00</ele>
        <time>2018-09-08T20:55:44Z</time>
      </trkpt>
      <trkpt lat="-2.568071" lon="-78.777847">
        <ele>3347.00</ele>
        <time>2018-09-08T20:55:45Z</time>
      </trkpt>
      <trkpt lat="-2.568069" lon="-78.777847">
        <ele>3346.00</ele>
        <time>2018-09-08T20:55:46Z</time>
      </trkpt>
      <trkpt lat="-2.568066" lon="-78.777855">
        <ele>3346.00</ele>
        <time>2018-09-08T20:55:47Z</time>
      </trkpt>
      <trkpt lat="-2.568059" lon="-78.777855">
        <ele>3346.00</ele>
        <time>2018-09-08T20:55:48Z</time>
      </trkpt>
      <trkpt lat="-2.568051" lon="-78.777870">
        <ele>3345.00</ele>
        <time>2018-09-08T20:55:49Z</time>
      </trkpt>
      <trkpt lat="-2.568047" lon="-78.777870">
        <ele>3345.00</ele>
        <time>2018-09-08T20:55:50Z</time>
      </trkpt>
      <trkpt lat="-2.568046" lon="-78.777870">
        <ele>3345.00</ele>
        <time>2018-09-08T20:55:51Z</time>
      </trkpt>
      <trkpt lat="-2.568044" lon="-78.777870">
        <ele>3344.00</ele>
        <time>2018-09-08T20:55:52Z</time>
      </trkpt>
      <trkpt lat="-2.568042" lon="-78.777870">
        <ele>3344.00</ele>
        <time>2018-09-08T20:55:53Z</time>
      </trkpt>
      <trkpt lat="-2.568041" lon="-78.777878">
        <ele>3344.00</ele>
        <time>2018-09-08T20:55:54Z</time>
      </trkpt>
      <trkpt lat="-2.568041" lon="-78.777878">
        <ele>3343.00</ele>
        <time>2018-09-08T20:55:55Z</time>
      </trkpt>
      <trkpt lat="-2.568039" lon="-78.777878">
        <ele>3343.00</ele>
        <time>2018-09-08T20:55:56Z</time>
      </trkpt>
      <trkpt lat="-2.568033" lon="-78.777878">
        <ele>3343.00</ele>
        <time>2018-09-08T20:55:57Z</time>
      </trkpt>
      <trkpt lat="-2.568035" lon="-78.777878">
        <ele>3342.00</ele>
        <time>2018-09-08T20:55:58Z</time>
      </trkpt>
      <trkpt lat="-2.568033" lon="-78.777878">
        <ele>3342.00</ele>
        <time>2018-09-08T20:55:59Z</time>
      </trkpt>
      <trkpt lat="-2.568031" lon="-78.777885">
        <ele>3342.00</ele>
        <time>2018-09-08T20:56:00Z</time>
      </trkpt>
      <trkpt lat="-2.568030" lon="-78.777885">
        <ele>3341.00</ele>
        <time>2018-09-08T20:56:01Z</time>
      </trkpt>
      <trkpt lat="-2.568027" lon="-78.777885">
        <ele>3341.00</ele>
        <time>2018-09-08T20:56:02Z</time>
      </trkpt>
      <trkpt lat="-2.568034" lon="-78.777885">
        <ele>3341.00</ele>
        <time>2018-09-08T20:56:03Z</time>
      </trkpt>
      <trkpt lat="-2.568028" lon="-78.777885">
        <ele>3340.00</ele>
        <time>2018-09-08T20:56:04Z</time>
      </trkpt>
      <trkpt lat="-2.568028" lon="-78.777885">
        <ele>3340.00</ele>
        <time>2018-09-08T20:56:05Z</time>
      </trkpt>
      <trkpt lat="-2.568042" lon="-78.777885">
        <ele>3340.00</ele>
        <time>2018-09-08T20:56:06Z</time>
      </trkpt>
      <trkpt lat="-2.568053" lon="-78.777878">
        <ele>3340.00</ele>
        <time>2018-09-08T20:56:07Z</time>
      </trkpt>
      <trkpt lat="-2.568062" lon="-78.777870">
        <ele>3340.00</ele>
        <time>2018-09-08T20:56:08Z</time>
      </trkpt>
      <trkpt lat="-2.568061" lon="-78.777870">
        <ele>3340.00</ele>
        <time>2018-09-08T20:56:09Z</time>
      </trkpt>
      <trkpt lat="-2.568056" lon="-78.777855">
        <ele>3339.00</ele>
        <time>2018-09-08T20:56:10Z</time>
      </trkpt>
      <trkpt lat="-2.568060" lon="-78.777855">
        <ele>3339.00</ele>
        <time>2018-09-08T20:56:11Z</time>
      </trkpt>
      <trkpt lat="-2.568048" lon="-78.777870">
        <ele>3339.00</ele>
        <time>2018-09-08T20:56:12Z</time>
      </trkpt>
      <trkpt lat="-2.568051" lon="-78.777870">
        <ele>3338.00</ele>
        <time>2018-09-08T20:56:13Z</time>
      </trkpt>
      <trkpt lat="-2.568056" lon="-78.777870">
        <ele>3338.00</ele>
        <time>2018-09-08T20:56:14Z</time>
      </trkpt>
      <trkpt lat="-2.568056" lon="-78.777870">
        <ele>3338.00</ele>
        <time>2018-09-08T20:56:15Z</time>
      </trkpt>
      <trkpt lat="-2.568055" lon="-78.777870">
        <ele>3338.00</ele>
        <time>2018-09-08T20:56:16Z</time>
      </trkpt>
      <trkpt lat="-2.568055" lon="-78.777870">
        <ele>3338.00</ele>
        <time>2018-09-08T20:56:17Z</time>
      </trkpt>
      <trkpt lat="-2.568051" lon="-78.777855">
        <ele>3338.00</ele>
        <time>2018-09-08T20:56:18Z</time>
      </trkpt>
      <trkpt lat="-2.568042" lon="-78.777855">
        <ele>3338.00</ele>
        <time>2018-09-08T20:56:19Z</time>
      </trkpt>
      <trkpt lat="-2.568033" lon="-78.777855">
        <ele>3337.00</ele>
        <time>2018-09-08T20:56:20Z</time>
      </trkpt>
      <trkpt lat="-2.568016" lon="-78.777855">
        <ele>3337.00</ele>
        <time>2018-09-08T20:56:21Z</time>
      </trkpt>
      <trkpt lat="-2.568006" lon="-78.777855">
        <ele>3337.00</ele>
        <time>2018-09-08T20:56:22Z</time>
      </trkpt>
      <trkpt lat="-2.568004" lon="-78.777870">
        <ele>3337.00</ele>
        <time>2018-09-08T20:56:23Z</time>
      </trkpt>
      <trkpt lat="-2.568007" lon="-78.777870">
        <ele>3337.00</ele>
        <time>2018-09-08T20:56:24Z</time>
      </trkpt>
      <trkpt lat="-2.568013" lon="-78.777878">
        <ele>3336.00</ele>
        <time>2018-09-08T20:56:25Z</time>
      </trkpt>
      <trkpt lat="-2.568019" lon="-78.777878">
        <ele>3336.00</ele>
        <time>2018-09-08T20:56:26Z</time>
      </trkpt>
      <trkpt lat="-2.568029" lon="-78.777878">
        <ele>3336.00</ele>
        <time>2018-09-08T20:56:27Z</time>
      </trkpt>
      <trkpt lat="-2.568035" lon="-78.777870">
        <ele>3336.00</ele>
        <time>2018-09-08T20:56:28Z</time>
      </trkpt>
      <trkpt lat="-2.568035" lon="-78.777870">
        <ele>3335.00</ele>
        <time>2018-09-08T20:56:29Z</time>
      </trkpt>
      <trkpt lat="-2.568038" lon="-78.777870">
        <ele>3335.00</ele>
        <time>2018-09-08T20:56:30Z</time>
      </trkpt>
      <trkpt lat="-2.568044" lon="-78.777870">
        <ele>3335.00</ele>
        <time>2018-09-08T20:56:31Z</time>
      </trkpt>
      <trkpt lat="-2.568053" lon="-78.777878">
        <ele>3334.00</ele>
        <time>2018-09-08T20:56:32Z</time>
      </trkpt>
      <trkpt lat="-2.568056" lon="-78.777878">
        <ele>3334.00</ele>
        <time>2018-09-08T20:56:33Z</time>
      </trkpt>
      <trkpt lat="-2.568055" lon="-78.777870">
        <ele>3334.00</ele>
        <time>2018-09-08T20:56:34Z</time>
      </trkpt>
      <trkpt lat="-2.568057" lon="-78.777855">
        <ele>3334.00</ele>
        <time>2018-09-08T20:56:35Z</time>
      </trkpt>
      <trkpt lat="-2.568059" lon="-78.777855">
        <ele>3334.00</ele>
        <time>2018-09-08T20:56:36Z</time>
      </trkpt>
      <trkpt lat="-2.568061" lon="-78.777855">
        <ele>3334.00</ele>
        <time>2018-09-08T20:56:37Z</time>
      </trkpt>
      <trkpt lat="-2.568069" lon="-78.777832">
        <ele>3334.00</ele>
        <time>2018-09-08T20:56:38Z</time>
      </trkpt>
      <trkpt lat="-2.568076" lon="-78.777817">
        <ele>3333.00</ele>
        <time>2018-09-08T20:56:39Z</time>
      </trkpt>
      <trkpt lat="-2.568070" lon="-78.777794">
        <ele>3333.00</ele>
        <time>2018-09-08T20:56:40Z</time>
      </trkpt>
      <trkpt lat="-2.568069" lon="-78.777802">
        <ele>3333.00</ele>
        <time>2018-09-08T20:56:41Z</time>
      </trkpt>
      <trkpt lat="-2.568070" lon="-78.777817">
        <ele>3333.00</ele>
        <time>2018-09-08T20:56:42Z</time>
      </trkpt>
      <trkpt lat="-2.568069" lon="-78.777824">
        <ele>3332.00</ele>
        <time>2018-09-08T20:56:43Z</time>
      </trkpt>
      <trkpt lat="-2.568071" lon="-78.777832">
        <ele>3332.00</ele>
        <time>2018-09-08T20:56:44Z</time>
      </trkpt>
      <trkpt lat="-2.568071" lon="-78.777847">
        <ele>3332.00</ele>
        <time>2018-09-08T20:56:45Z</time>
      </trkpt>
      <trkpt lat="-2.568071" lon="-78.777847">
        <ele>3332.00</ele>
        <time>2018-09-08T20:56:46Z</time>
      </trkpt>
      <trkpt lat="-2.568071" lon="-78.777855">
        <ele>3331.00</ele>
        <time>2018-09-08T20:56:47Z</time>
      </trkpt>
      <trkpt lat="-2.568071" lon="-78.777855">
        <ele>3331.00</ele>
        <time>2018-09-08T20:56:48Z</time>
      </trkpt>
      <trkpt lat="-2.568078" lon="-78.777870">
        <ele>3331.00</ele>
        <time>2018-09-08T20:56:49Z</time>
      </trkpt>
      <trkpt lat="-2.568079" lon="-78.777870">
        <ele>3331.00</ele>
        <time>2018-09-08T20:56:50Z</time>
      </trkpt>
      <trkpt lat="-2.568075" lon="-78.777855">
        <ele>3331.00</ele>
        <time>2018-09-08T20:56:51Z</time>
      </trkpt>
      <trkpt lat="-2.568075" lon="-78.777855">
        <ele>3330.00</ele>
        <time>2018-09-08T20:56:52Z</time>
      </trkpt>
      <trkpt lat="-2.568065" lon="-78.777847">
        <ele>3330.00</ele>
        <time>2018-09-08T20:56:53Z</time>
      </trkpt>
      <trkpt lat="-2.568065" lon="-78.777847">
        <ele>3330.00</ele>
        <time>2018-09-08T20:56:54Z</time>
      </trkpt>
      <trkpt lat="-2.568063" lon="-78.777847">
        <ele>3330.00</ele>
        <time>2018-09-08T20:56:55Z</time>
      </trkpt>
      <trkpt lat="-2.568064" lon="-78.777847">
        <ele>3330.00</ele>
        <time>2018-09-08T20:56:56Z</time>
      </trkpt>
      <trkpt lat="-2.568063" lon="-78.777847">
        <ele>3330.00</ele>
        <time>2018-09-08T20:56:57Z</time>
      </trkpt>
      <trkpt lat="-2.568062" lon="-78.777847">
        <ele>3329.00</ele>
        <time>2018-09-08T20:56:58Z</time>
      </trkpt>
      <trkpt lat="-2.568064" lon="-78.777847">
        <ele>3329.00</ele>
        <time>2018-09-08T20:56:59Z</time>
      </trkpt>
      <trkpt lat="-2.568061" lon="-78.777847">
        <ele>3329.00</ele>
        <time>2018-09-08T20:57:00Z</time>
      </trkpt>
      <trkpt lat="-2.568062" lon="-78.777840">
        <ele>3329.00</ele>
        <time>2018-09-08T20:57:01Z</time>
      </trkpt>
      <trkpt lat="-2.568059" lon="-78.777840">
        <ele>3329.00</ele>
        <time>2018-09-08T20:57:02Z</time>
      </trkpt>
      <trkpt lat="-2.568042" lon="-78.777832">
        <ele>3329.00</ele>
        <time>2018-09-08T20:57:03Z</time>
      </trkpt>
      <trkpt lat="-2.568019" lon="-78.777832">
        <ele>3328.00</ele>
        <time>2018-09-08T20:57:04Z</time>
      </trkpt>
      <trkpt lat="-2.568011" lon="-78.777832">
        <ele>3328.00</ele>
        <time>2018-09-08T20:57:05Z</time>
      </trkpt>
      <trkpt lat="-2.568002" lon="-78.777832">
        <ele>3328.00</ele>
        <time>2018-09-08T20:57:06Z</time>
      </trkpt>
      <trkpt lat="-2.568003" lon="-78.777832">
        <ele>3328.00</ele>
        <time>2018-09-08T20:57:07Z</time>
      </trkpt>
      <trkpt lat="-2.568003" lon="-78.777832">
        <ele>3328.00</ele>
        <time>2018-09-08T20:57:08Z</time>
      </trkpt>
      <trkpt lat="-2.568001" lon="-78.777832">
        <ele>3328.00</ele>
        <time>2018-09-08T20:57:09Z</time>
      </trkpt>
      <trkpt lat="-2.568001" lon="-78.777832">
        <ele>3328.00</ele>
        <time>2018-09-08T20:57:10Z</time>
      </trkpt>
      <trkpt lat="-2.568000" lon="-78.777832">
        <ele>3328.00</ele>
        <time>2018-09-08T20:57:11Z</time>
      </trkpt>
      <trkpt lat="-2.568000" lon="-78.777832">
        <ele>3328.00</ele>
        <time>2018-09-08T20:57:12Z</time>
      </trkpt>
      <trkpt lat="-2.568000" lon="-78.777832">
        <ele>3328.00</ele>
        <time>2018-09-08T20:57:13Z</time>
      </trkpt>
      <trkpt lat="-2.567999" lon="-78.777824">
        <ele>3328.00</ele>
        <time>2018-09-08T20:57:14Z</time>
      </trkpt>
      <trkpt lat="-2.567999" lon="-78.777824">
        <ele>3328.00</ele>
        <time>2018-09-08T20:57:15Z</time>
      </trkpt>
      <trkpt lat="-2.567999" lon="-78.777824">
        <ele>3328.00</ele>
        <time>2018-09-08T20:57:16Z</time>
      </trkpt>
      <trkpt lat="-2.567998" lon="-78.777824">
        <ele>3328.00</ele>
        <time>2018-09-08T20:57:17Z</time>
      </trkpt>
      <trkpt lat="-2.567998" lon="-78.777824">
        <ele>3327.00</ele>
        <time>2018-09-08T20:57:18Z</time>
      </trkpt>
      <trkpt lat="-2.567998" lon="-78.777824">
        <ele>3327.00</ele>
        <time>2018-09-08T20:57:19Z</time>
      </trkpt>
      <trkpt lat="-2.567999" lon="-78.777824">
        <ele>3327.00</ele>
        <time>2018-09-08T20:57:20Z</time>
      </trkpt>
      <trkpt lat="-2.568001" lon="-78.777824">
        <ele>3327.00</ele>
        <time>2018-09-08T20:57:21Z</time>
      </trkpt>
      <trkpt lat="-2.568002" lon="-78.777824">
        <ele>3327.00</ele>
        <time>2018-09-08T20:57:22Z</time>
      </trkpt>
      <trkpt lat="-2.568009" lon="-78.777824">
        <ele>3327.00</ele>
        <time>2018-09-08T20:57:23Z</time>
      </trkpt>
      <trkpt lat="-2.568013" lon="-78.777824">
        <ele>3327.00</ele>
        <time>2018-09-08T20:57:24Z</time>
      </trkpt>
      <trkpt lat="-2.568021" lon="-78.777824">
        <ele>3327.00</ele>
        <time>2018-09-08T20:57:25Z</time>
      </trkpt>
      <trkpt lat="-2.568022" lon="-78.777824">
        <ele>3327.00</ele>
        <time>2018-09-08T20:57:26Z</time>
      </trkpt>
      <trkpt lat="-2.568022" lon="-78.777824">
        <ele>3327.00</ele>
        <time>2018-09-08T20:57:27Z</time>
      </trkpt>
      <trkpt lat="-2.568033" lon="-78.777824">
        <ele>3327.00</ele>
        <time>2018-09-08T20:57:28Z</time>
      </trkpt>
      <trkpt lat="-2.568040" lon="-78.777824">
        <ele>3327.00</ele>
        <time>2018-09-08T20:57:29Z</time>
      </trkpt>
      <trkpt lat="-2.568045" lon="-78.777824">
        <ele>3326.00</ele>
        <time>2018-09-08T20:57:30Z</time>
      </trkpt>
      <trkpt lat="-2.568048" lon="-78.777824">
        <ele>3326.00</ele>
        <time>2018-09-08T20:57:31Z</time>
      </trkpt>
      <trkpt lat="-2.568053" lon="-78.777832">
        <ele>3326.00</ele>
        <time>2018-09-08T20:57:32Z</time>
      </trkpt>
      <trkpt lat="-2.568063" lon="-78.777840">
        <ele>3326.00</ele>
        <time>2018-09-08T20:57:33Z</time>
      </trkpt>
      <trkpt lat="-2.568071" lon="-78.777840">
        <ele>3326.00</ele>
        <time>2018-09-08T20:57:34Z</time>
      </trkpt>
      <trkpt lat="-2.568074" lon="-78.777840">
        <ele>3325.00</ele>
        <time>2018-09-08T20:57:35Z</time>
      </trkpt>
      <trkpt lat="-2.568075" lon="-78.777840">
        <ele>3325.00</ele>
        <time>2018-09-08T20:57:36Z</time>
      </trkpt>
      <trkpt lat="-2.568075" lon="-78.777840">
        <ele>3325.00</ele>
        <time>2018-09-08T20:57:37Z</time>
      </trkpt>
      <trkpt lat="-2.568074" lon="-78.777840">
        <ele>3325.00</ele>
        <time>2018-09-08T20:57:38Z</time>
      </trkpt>
      <trkpt lat="-2.568073" lon="-78.777847">
        <ele>3325.00</ele>
        <time>2018-09-08T20:57:39Z</time>
      </trkpt>
      <trkpt lat="-2.568073" lon="-78.777847">
        <ele>3325.00</ele>
        <time>2018-09-08T20:57:40Z</time>
      </trkpt>
      <trkpt lat="-2.568073" lon="-78.777847">
        <ele>3325.00</ele>
        <time>2018-09-08T20:57:41Z</time>
      </trkpt>
      <trkpt lat="-2.568073" lon="-78.777847">
        <ele>3325.00</ele>
        <time>2018-09-08T20:57:42Z</time>
      </trkpt>
      <trkpt lat="-2.568072" lon="-78.777847">
        <ele>3325.00</ele>
        <time>2018-09-08T20:57:43Z</time>
      </trkpt>
      <trkpt lat="-2.568071" lon="-78.777847">
        <ele>3325.00</ele>
        <time>2018-09-08T20:57:44Z</time>
      </trkpt>
      <trkpt lat="-2.568070" lon="-78.777847">
        <ele>3325.00</ele>
        <time>2018-09-08T20:57:45Z</time>
      </trkpt>
      <trkpt lat="-2.568070" lon="-78.777847">
        <ele>3325.00</ele>
        <time>2018-09-08T20:57:46Z</time>
      </trkpt>
      <trkpt lat="-2.568070" lon="-78.777847">
        <ele>3324.00</ele>
        <time>2018-09-08T20:57:47Z</time>
      </trkpt>
      <trkpt lat="-2.568071" lon="-78.777847">
        <ele>3324.00</ele>
        <time>2018-09-08T20:57:48Z</time>
      </trkpt>
      <trkpt lat="-2.568073" lon="-78.777840">
        <ele>3324.00</ele>
        <time>2018-09-08T20:57:49Z</time>
      </trkpt>
      <trkpt lat="-2.568072" lon="-78.777840">
        <ele>3324.00</ele>
        <time>2018-09-08T20:57:50Z</time>
      </trkpt>
      <trkpt lat="-2.568073" lon="-78.777840">
        <ele>3324.00</ele>
        <time>2018-09-08T20:57:51Z</time>
      </trkpt>
      <trkpt lat="-2.568073" lon="-78.777840">
        <ele>3324.00</ele>
        <time>2018-09-08T20:57:52Z</time>
      </trkpt>
      <trkpt lat="-2.568073" lon="-78.777832">
        <ele>3324.00</ele>
        <time>2018-09-08T20:57:53Z</time>
      </trkpt>
      <trkpt lat="-2.568073" lon="-78.777832">
        <ele>3324.00</ele>
        <time>2018-09-08T20:57:54Z</time>
      </trkpt>
      <trkpt lat="-2.568073" lon="-78.777832">
        <ele>3324.00</ele>
        <time>2018-09-08T20:57:55Z</time>
      </trkpt>
      <trkpt lat="-2.568072" lon="-78.777832">
        <ele>3323.00</ele>
        <time>2018-09-08T20:57:56Z</time>
      </trkpt>
      <trkpt lat="-2.568072" lon="-78.777840">
        <ele>3323.00</ele>
        <time>2018-09-08T20:57:57Z</time>
      </trkpt>
      <trkpt lat="-2.568071" lon="-78.777840">
        <ele>3323.00</ele>
        <time>2018-09-08T20:57:58Z</time>
      </trkpt>
      <trkpt lat="-2.568071" lon="-78.777840">
        <ele>3323.00</ele>
        <time>2018-09-08T20:57:59Z</time>
      </trkpt>
      <trkpt lat="-2.568070" lon="-78.777832">
        <ele>3323.00</ele>
        <time>2018-09-08T20:58:00Z</time>
      </trkpt>
      <trkpt lat="-2.568070" lon="-78.777832">
        <ele>3323.00</ele>
        <time>2018-09-08T20:58:01Z</time>
      </trkpt>
      <trkpt lat="-2.568069" lon="-78.777832">
        <ele>3323.00</ele>
        <time>2018-09-08T20:58:02Z</time>
      </trkpt>
      <trkpt lat="-2.568069" lon="-78.777832">
        <ele>3323.00</ele>
        <time>2018-09-08T20:58:03Z</time>
      </trkpt>
      <trkpt lat="-2.568069" lon="-78.777832">
        <ele>3322.00</ele>
        <time>2018-09-08T20:58:04Z</time>
      </trkpt>
      <trkpt lat="-2.568063" lon="-78.777840">
        <ele>3322.00</ele>
        <time>2018-09-08T20:58:05Z</time>
      </trkpt>
      <trkpt lat="-2.568058" lon="-78.777840">
        <ele>3322.00</ele>
        <time>2018-09-08T20:58:06Z</time>
      </trkpt>
      <trkpt lat="-2.568058" lon="-78.777840">
        <ele>3322.00</ele>
        <time>2018-09-08T20:58:07Z</time>
      </trkpt>
      <trkpt lat="-2.568057" lon="-78.777840">
        <ele>3322.00</ele>
        <time>2018-09-08T20:58:08Z</time>
      </trkpt>
      <trkpt lat="-2.568056" lon="-78.777840">
        <ele>3322.00</ele>
        <time>2018-09-08T20:58:09Z</time>
      </trkpt>
      <trkpt lat="-2.568057" lon="-78.777840">
        <ele>3322.00</ele>
        <time>2018-09-08T20:58:10Z</time>
      </trkpt>
      <trkpt lat="-2.568058" lon="-78.777840">
        <ele>3322.00</ele>
        <time>2018-09-08T20:58:11Z</time>
      </trkpt>
      <trkpt lat="-2.568058" lon="-78.777840">
        <ele>3322.00</ele>
        <time>2018-09-08T20:58:12Z</time>
      </trkpt>
      <trkpt lat="-2.568058" lon="-78.777840">
        <ele>3322.00</ele>
        <time>2018-09-08T20:58:13Z</time>
      </trkpt>
      <trkpt lat="-2.568058" lon="-78.777840">
        <ele>3322.00</ele>
        <time>2018-09-08T20:58:14Z</time>
      </trkpt>
      <trkpt lat="-2.568059" lon="-78.777840">
        <ele>3322.00</ele>
        <time>2018-09-08T20:58:15Z</time>
      </trkpt>
      <trkpt lat="-2.568059" lon="-78.777840">
        <ele>3322.00</ele>
        <time>2018-09-08T20:58:16Z</time>
      </trkpt>
      <trkpt lat="-2.568059" lon="-78.777840">
        <ele>3322.00</ele>
        <time>2018-09-08T20:58:17Z</time>
      </trkpt>
      <trkpt lat="-2.568060" lon="-78.777840">
        <ele>3322.00</ele>
        <time>2018-09-08T20:58:18Z</time>
      </trkpt>
      <trkpt lat="-2.568062" lon="-78.777840">
        <ele>3321.00</ele>
        <time>2018-09-08T20:58:19Z</time>
      </trkpt>
      <trkpt lat="-2.568066" lon="-78.777840">
        <ele>3321.00</ele>
        <time>2018-09-08T20:58:20Z</time>
      </trkpt>
      <trkpt lat="-2.568069" lon="-78.777840">
        <ele>3321.00</ele>
        <time>2018-09-08T20:58:21Z</time>
      </trkpt>
      <trkpt lat="-2.568071" lon="-78.777847">
        <ele>3321.00</ele>
        <time>2018-09-08T20:58:22Z</time>
      </trkpt>
      <trkpt lat="-2.568071" lon="-78.777847">
        <ele>3321.00</ele>
        <time>2018-09-08T20:58:23Z</time>
      </trkpt>
      <trkpt lat="-2.568071" lon="-78.777847">
        <ele>3321.00</ele>
        <time>2018-09-08T20:58:24Z</time>
      </trkpt>
      <trkpt lat="-2.568069" lon="-78.777847">
        <ele>3321.00</ele>
        <time>2018-09-08T20:58:25Z</time>
      </trkpt>
      <trkpt lat="-2.568061" lon="-78.777847">
        <ele>3320.00</ele>
        <time>2018-09-08T20:58:26Z</time>
      </trkpt>
      <trkpt lat="-2.568054" lon="-78.777840">
        <ele>3320.00</ele>
        <time>2018-09-08T20:58:27Z</time>
      </trkpt>
      <trkpt lat="-2.568048" lon="-78.777840">
        <ele>3320.00</ele>
        <time>2018-09-08T20:58:28Z</time>
      </trkpt>
      <trkpt lat="-2.568044" lon="-78.777832">
        <ele>3320.00</ele>
        <time>2018-09-08T20:58:29Z</time>
      </trkpt>
      <trkpt lat="-2.568038" lon="-78.777824">
        <ele>3320.00</ele>
        <time>2018-09-08T20:58:30Z</time>
      </trkpt>
      <trkpt lat="-2.568036" lon="-78.777817">
        <ele>3320.00</ele>
        <time>2018-09-08T20:58:31Z</time>
      </trkpt>
      <trkpt lat="-2.568036" lon="-78.777817">
        <ele>3320.00</ele>
        <time>2018-09-08T20:58:32Z</time>
      </trkpt>
      <trkpt lat="-2.568035" lon="-78.777817">
        <ele>3320.00</ele>
        <time>2018-09-08T20:58:33Z</time>
      </trkpt>
      <trkpt lat="-2.568035" lon="-78.777817">
        <ele>3320.00</ele>
        <time>2018-09-08T20:58:34Z</time>
      </trkpt>
      <trkpt lat="-2.568034" lon="-78.777817">
        <ele>3320.00</ele>
        <time>2018-09-08T20:58:35Z</time>
      </trkpt>
      <trkpt lat="-2.568029" lon="-78.777817">
        <ele>3320.00</ele>
        <time>2018-09-08T20:58:36Z</time>
      </trkpt>
      <trkpt lat="-2.568021" lon="-78.777817">
        <ele>3320.00</ele>
        <time>2018-09-08T20:58:37Z</time>
      </trkpt>
      <trkpt lat="-2.568017" lon="-78.777817">
        <ele>3320.00</ele>
        <time>2018-09-08T20:58:38Z</time>
      </trkpt>
      <trkpt lat="-2.568017" lon="-78.777817">
        <ele>3320.00</ele>
        <time>2018-09-08T20:58:39Z</time>
      </trkpt>
      <trkpt lat="-2.568017" lon="-78.777817">
        <ele>3320.00</ele>
        <time>2018-09-08T20:58:40Z</time>
      </trkpt>
      <trkpt lat="-2.568015" lon="-78.777817">
        <ele>3320.00</ele>
        <time>2018-09-08T20:58:41Z</time>
      </trkpt>
      <trkpt lat="-2.568014" lon="-78.777817">
        <ele>3320.00</ele>
        <time>2018-09-08T20:58:42Z</time>
      </trkpt>
      <trkpt lat="-2.568013" lon="-78.777817">
        <ele>3320.00</ele>
        <time>2018-09-08T20:58:43Z</time>
      </trkpt>
      <trkpt lat="-2.568012" lon="-78.777817">
        <ele>3320.00</ele>
        <time>2018-09-08T20:58:44Z</time>
      </trkpt>
      <trkpt lat="-2.568012" lon="-78.777817">
        <ele>3320.00</ele>
        <time>2018-09-08T20:58:45Z</time>
      </trkpt>
      <trkpt lat="-2.568012" lon="-78.777817">
        <ele>3320.00</ele>
        <time>2018-09-08T20:58:46Z</time>
      </trkpt>
      <trkpt lat="-2.568012" lon="-78.777817">
        <ele>3320.00</ele>
        <time>2018-09-08T20:58:47Z</time>
      </trkpt>
      <trkpt lat="-2.568012" lon="-78.777817">
        <ele>3320.00</ele>
        <time>2018-09-08T20:58:48Z</time>
      </trkpt>
      <trkpt lat="-2.568013" lon="-78.777817">
        <ele>3320.00</ele>
        <time>2018-09-08T20:58:49Z</time>
      </trkpt>
      <trkpt lat="-2.568012" lon="-78.777817">
        <ele>3319.00</ele>
        <time>2018-09-08T20:58:50Z</time>
      </trkpt>
      <trkpt lat="-2.568012" lon="-78.777817">
        <ele>3319.00</ele>
        <time>2018-09-08T20:58:51Z</time>
      </trkpt>
      <trkpt lat="-2.568012" lon="-78.777817">
        <ele>3319.00</ele>
        <time>2018-09-08T20:58:52Z</time>
      </trkpt>
      <trkpt lat="-2.568012" lon="-78.777817">
        <ele>3319.00</ele>
        <time>2018-09-08T20:58:53Z</time>
      </trkpt>
      <trkpt lat="-2.568012" lon="-78.777802">
        <ele>3319.00</ele>
        <time>2018-09-08T20:58:54Z</time>
      </trkpt>
      <trkpt lat="-2.568012" lon="-78.777802">
        <ele>3319.00</ele>
        <time>2018-09-08T20:58:55Z</time>
      </trkpt>
      <trkpt lat="-2.568013" lon="-78.777802">
        <ele>3319.00</ele>
        <time>2018-09-08T20:58:56Z</time>
      </trkpt>
      <trkpt lat="-2.568013" lon="-78.777802">
        <ele>3319.00</ele>
        <time>2018-09-08T20:58:57Z</time>
      </trkpt>
      <trkpt lat="-2.568013" lon="-78.777802">
        <ele>3319.00</ele>
        <time>2018-09-08T20:58:58Z</time>
      </trkpt>
      <trkpt lat="-2.568013" lon="-78.777802">
        <ele>3319.00</ele>
        <time>2018-09-08T20:58:59Z</time>
      </trkpt>
      <trkpt lat="-2.568013" lon="-78.777802">
        <ele>3319.00</ele>
        <time>2018-09-08T20:59:00Z</time>
      </trkpt>
      <trkpt lat="-2.568013" lon="-78.777802">
        <ele>3319.00</ele>
        <time>2018-09-08T20:59:01Z</time>
      </trkpt>
      <trkpt lat="-2.568013" lon="-78.777802">
        <ele>3319.00</ele>
        <time>2018-09-08T20:59:02Z</time>
      </trkpt>
      <trkpt lat="-2.568013" lon="-78.777802">
        <ele>3319.00</ele>
        <time>2018-09-08T20:59:03Z</time>
      </trkpt>
      <trkpt lat="-2.568014" lon="-78.777802">
        <ele>3319.00</ele>
        <time>2018-09-08T20:59:04Z</time>
      </trkpt>
      <trkpt lat="-2.568015" lon="-78.777802">
        <ele>3319.00</ele>
        <time>2018-09-08T20:59:05Z</time>
      </trkpt>
      <trkpt lat="-2.568018" lon="-78.777802">
        <ele>3319.00</ele>
        <time>2018-09-08T20:59:06Z</time>
      </trkpt>
      <trkpt lat="-2.568023" lon="-78.777794">
        <ele>3319.00</ele>
        <time>2018-09-08T20:59:07Z</time>
      </trkpt>
      <trkpt lat="-2.568029" lon="-78.777794">
        <ele>3319.00</ele>
        <time>2018-09-08T20:59:08Z</time>
      </trkpt>
      <trkpt lat="-2.568034" lon="-78.777794">
        <ele>3319.00</ele>
        <time>2018-09-08T20:59:09Z</time>
      </trkpt>
      <trkpt lat="-2.568038" lon="-78.777802">
        <ele>3319.00</ele>
        <time>2018-09-08T20:59:10Z</time>
      </trkpt>
      <trkpt lat="-2.568040" lon="-78.777802">
        <ele>3319.00</ele>
        <time>2018-09-08T20:59:11Z</time>
      </trkpt>
      <trkpt lat="-2.568045" lon="-78.777802">
        <ele>3319.00</ele>
        <time>2018-09-08T20:59:12Z</time>
      </trkpt>
      <trkpt lat="-2.568046" lon="-78.777802">
        <ele>3319.00</ele>
        <time>2018-09-08T20:59:13Z</time>
      </trkpt>
      <trkpt lat="-2.568046" lon="-78.777802">
        <ele>3319.00</ele>
        <time>2018-09-08T20:59:14Z</time>
      </trkpt>
      <trkpt lat="-2.568047" lon="-78.777802">
        <ele>3319.00</ele>
        <time>2018-09-08T20:59:15Z</time>
      </trkpt>
      <trkpt lat="-2.568047" lon="-78.777802">
        <ele>3319.00</ele>
        <time>2018-09-08T20:59:16Z</time>
      </trkpt>
      <trkpt lat="-2.568047" lon="-78.777802">
        <ele>3319.00</ele>
        <time>2018-09-08T20:59:17Z</time>
      </trkpt>
      <trkpt lat="-2.568047" lon="-78.777802">
        <ele>3319.00</ele>
        <time>2018-09-08T20:59:18Z</time>
      </trkpt>
      <trkpt lat="-2.568047" lon="-78.777802">
        <ele>3319.00</ele>
        <time>2018-09-08T20:59:19Z</time>
      </trkpt>
      <trkpt lat="-2.568048" lon="-78.777802">
        <ele>3319.00</ele>
        <time>2018-09-08T20:59:20Z</time>
      </trkpt>
      <trkpt lat="-2.568048" lon="-78.777802">
        <ele>3319.00</ele>
        <time>2018-09-08T20:59:21Z</time>
      </trkpt>
      <trkpt lat="-2.568048" lon="-78.777802">
        <ele>3319.00</ele>
        <time>2018-09-08T20:59:22Z</time>
      </trkpt>
      <trkpt lat="-2.568049" lon="-78.777802">
        <ele>3319.00</ele>
        <time>2018-09-08T20:59:23Z</time>
      </trkpt>
      <trkpt lat="-2.568049" lon="-78.777802">
        <ele>3319.00</ele>
        <time>2018-09-08T20:59:24Z</time>
      </trkpt>
      <trkpt lat="-2.568050" lon="-78.777802">
        <ele>3319.00</ele>
        <time>2018-09-08T20:59:25Z</time>
      </trkpt>
      <trkpt lat="-2.568051" lon="-78.777802">
        <ele>3318.00</ele>
        <time>2018-09-08T20:59:26Z</time>
      </trkpt>
      <trkpt lat="-2.568052" lon="-78.777802">
        <ele>3318.00</ele>
        <time>2018-09-08T20:59:27Z</time>
      </trkpt>
      <trkpt lat="-2.568054" lon="-78.777802">
        <ele>3318.00</ele>
        <time>2018-09-08T20:59:28Z</time>
      </trkpt>
      <trkpt lat="-2.568055" lon="-78.777802">
        <ele>3318.00</ele>
        <time>2018-09-08T20:59:29Z</time>
      </trkpt>
      <trkpt lat="-2.568056" lon="-78.777802">
        <ele>3318.00</ele>
        <time>2018-09-08T20:59:30Z</time>
      </trkpt>
      <trkpt lat="-2.568057" lon="-78.777802">
        <ele>3318.00</ele>
        <time>2018-09-08T20:59:31Z</time>
      </trkpt>
      <trkpt lat="-2.568057" lon="-78.777802">
        <ele>3318.00</ele>
        <time>2018-09-08T20:59:32Z</time>
      </trkpt>
      <trkpt lat="-2.568058" lon="-78.777802">
        <ele>3318.00</ele>
        <time>2018-09-08T20:59:33Z</time>
      </trkpt>
      <trkpt lat="-2.568058" lon="-78.777817">
        <ele>3318.00</ele>
        <time>2018-09-08T20:59:34Z</time>
      </trkpt>
      <trkpt lat="-2.568059" lon="-78.777802">
        <ele>3318.00</ele>
        <time>2018-09-08T20:59:35Z</time>
      </trkpt>
      <trkpt lat="-2.568059" lon="-78.777817">
        <ele>3318.00</ele>
        <time>2018-09-08T20:59:36Z</time>
      </trkpt>
      <trkpt lat="-2.568060" lon="-78.777817">
        <ele>3318.00</ele>
        <time>2018-09-08T20:59:37Z</time>
      </trkpt>
      <trkpt lat="-2.568061" lon="-78.777817">
        <ele>3318.00</ele>
        <time>2018-09-08T20:59:38Z</time>
      </trkpt>
      <trkpt lat="-2.568062" lon="-78.777817">
        <ele>3318.00</ele>
        <time>2018-09-08T20:59:39Z</time>
      </trkpt>
      <trkpt lat="-2.568062" lon="-78.777817">
        <ele>3318.00</ele>
        <time>2018-09-08T20:59:40Z</time>
      </trkpt>
      <trkpt lat="-2.568062" lon="-78.777817">
        <ele>3318.00</ele>
        <time>2018-09-08T20:59:41Z</time>
      </trkpt>
      <trkpt lat="-2.568063" lon="-78.777817">
        <ele>3318.00</ele>
        <time>2018-09-08T20:59:42Z</time>
      </trkpt>
      <trkpt lat="-2.568063" lon="-78.777817">
        <ele>3318.00</ele>
        <time>2018-09-08T20:59:43Z</time>
      </trkpt>
      <trkpt lat="-2.568063" lon="-78.777817">
        <ele>3318.00</ele>
        <time>2018-09-08T20:59:44Z</time>
      </trkpt>
      <trkpt lat="-2.568063" lon="-78.777817">
        <ele>3318.00</ele>
        <time>2018-09-08T20:59:45Z</time>
      </trkpt>
      <trkpt lat="-2.568062" lon="-78.777817">
        <ele>3318.00</ele>
        <time>2018-09-08T20:59:46Z</time>
      </trkpt>
      <trkpt lat="-2.568056" lon="-78.777817">
        <ele>3318.00</ele>
        <time>2018-09-08T20:59:47Z</time>
      </trkpt>
      <trkpt lat="-2.568051" lon="-78.777817">
        <ele>3318.00</ele>
        <time>2018-09-08T20:59:48Z</time>
      </trkpt>
      <trkpt lat="-2.568047" lon="-78.777817">
        <ele>3318.00</ele>
        <time>2018-09-08T20:59:49Z</time>
      </trkpt>
      <trkpt lat="-2.568046" lon="-78.777817">
        <ele>3317.00</ele>
        <time>2018-09-08T20:59:50Z</time>
      </trkpt>
      <trkpt lat="-2.568047" lon="-78.777817">
        <ele>3317.00</ele>
        <time>2018-09-08T20:59:51Z</time>
      </trkpt>
      <trkpt lat="-2.568047" lon="-78.777817">
        <ele>3317.00</ele>
        <time>2018-09-08T20:59:52Z</time>
      </trkpt>
      <trkpt lat="-2.568044" lon="-78.777817">
        <ele>3317.00</ele>
        <time>2018-09-08T20:59:53Z</time>
      </trkpt>
      <trkpt lat="-2.568042" lon="-78.777817">
        <ele>3317.00</ele>
        <time>2018-09-08T20:59:54Z</time>
      </trkpt>
      <trkpt lat="-2.568043" lon="-78.777817">
        <ele>3317.00</ele>
        <time>2018-09-08T20:59:55Z</time>
      </trkpt>
      <trkpt lat="-2.568045" lon="-78.777817">
        <ele>3317.00</ele>
        <time>2018-09-08T20:59:56Z</time>
      </trkpt>
      <trkpt lat="-2.568044" lon="-78.777824">
        <ele>3317.00</ele>
        <time>2018-09-08T20:59:57Z</time>
      </trkpt>
      <trkpt lat="-2.568044" lon="-78.777824">
        <ele>3317.00</ele>
        <time>2018-09-08T20:59:58Z</time>
      </trkpt>
      <trkpt lat="-2.568044" lon="-78.777824">
        <ele>3317.00</ele>
        <time>2018-09-08T20:59:59Z</time>
      </trkpt>
      <trkpt lat="-2.568041" lon="-78.777824">
        <ele>3317.00</ele>
        <time>2018-09-08T21:00:00Z</time>
      </trkpt>
      <trkpt lat="-2.568038" lon="-78.777824">
        <ele>3317.00</ele>
        <time>2018-09-08T21:00:01Z</time>
      </trkpt>
      <trkpt lat="-2.568033" lon="-78.777824">
        <ele>3317.00</ele>
        <time>2018-09-08T21:00:02Z</time>
      </trkpt>
      <trkpt lat="-2.568029" lon="-78.777824">
        <ele>3317.00</ele>
        <time>2018-09-08T21:00:03Z</time>
      </trkpt>
      <trkpt lat="-2.568028" lon="-78.777824">
        <ele>3317.00</ele>
        <time>2018-09-08T21:00:04Z</time>
      </trkpt>
      <trkpt lat="-2.568028" lon="-78.777824">
        <ele>3317.00</ele>
        <time>2018-09-08T21:00:05Z</time>
      </trkpt>
      <trkpt lat="-2.568027" lon="-78.777824">
        <ele>3317.00</ele>
        <time>2018-09-08T21:00:06Z</time>
      </trkpt>
      <trkpt lat="-2.568028" lon="-78.777824">
        <ele>3317.00</ele>
        <time>2018-09-08T21:00:07Z</time>
      </trkpt>
      <trkpt lat="-2.568028" lon="-78.777824">
        <ele>3317.00</ele>
        <time>2018-09-08T21:00:08Z</time>
      </trkpt>
      <trkpt lat="-2.568027" lon="-78.777824">
        <ele>3317.00</ele>
        <time>2018-09-08T21:00:09Z</time>
      </trkpt>
      <trkpt lat="-2.568022" lon="-78.777824">
        <ele>3317.00</ele>
        <time>2018-09-08T21:00:10Z</time>
      </trkpt>
      <trkpt lat="-2.568012" lon="-78.777824">
        <ele>3316.00</ele>
        <time>2018-09-08T21:00:11Z</time>
      </trkpt>
      <trkpt lat="-2.567997" lon="-78.777832">
        <ele>3316.00</ele>
        <time>2018-09-08T21:00:12Z</time>
      </trkpt>
      <trkpt lat="-2.567979" lon="-78.777832">
        <ele>3316.00</ele>
        <time>2018-09-08T21:00:13Z</time>
      </trkpt>
      <trkpt lat="-2.567965" lon="-78.777847">
        <ele>3316.00</ele>
        <time>2018-09-08T21:00:14Z</time>
      </trkpt>
      <trkpt lat="-2.567957" lon="-78.777878">
        <ele>3316.00</ele>
        <time>2018-09-08T21:00:15Z</time>
      </trkpt>
      <trkpt lat="-2.567965" lon="-78.777901">
        <ele>3316.00</ele>
        <time>2018-09-08T21:00:16Z</time>
      </trkpt>
      <trkpt lat="-2.567982" lon="-78.777924">
        <ele>3316.00</ele>
        <time>2018-09-08T21:00:17Z</time>
      </trkpt>
      <trkpt lat="-2.568008" lon="-78.777946">
        <ele>3316.00</ele>
        <time>2018-09-08T21:00:18Z</time>
      </trkpt>
      <trkpt lat="-2.568028" lon="-78.777954">
        <ele>3316.00</ele>
        <time>2018-09-08T21:00:19Z</time>
      </trkpt>
      <trkpt lat="-2.568054" lon="-78.777977">
        <ele>3315.00</ele>
        <time>2018-09-08T21:00:20Z</time>
      </trkpt>
      <trkpt lat="-2.568085" lon="-78.777985">
        <ele>3315.00</ele>
        <time>2018-09-08T21:00:21Z</time>
      </trkpt>
      <trkpt lat="-2.568120" lon="-78.777985">
        <ele>3315.00</ele>
        <time>2018-09-08T21:00:22Z</time>
      </trkpt>
      <trkpt lat="-2.568161" lon="-78.777985">
        <ele>3314.00</ele>
        <time>2018-09-08T21:00:23Z</time>
      </trkpt>
      <trkpt lat="-2.568204" lon="-78.777985">
        <ele>3314.00</ele>
        <time>2018-09-08T21:00:24Z</time>
      </trkpt>
      <trkpt lat="-2.568240" lon="-78.777977">
        <ele>3314.00</ele>
        <time>2018-09-08T21:00:25Z</time>
      </trkpt>
      <trkpt lat="-2.568277" lon="-78.777977">
        <ele>3314.00</ele>
        <time>2018-09-08T21:00:26Z</time>
      </trkpt>
      <trkpt lat="-2.568305" lon="-78.777954">
        <ele>3314.00</ele>
        <time>2018-09-08T21:00:27Z</time>
      </trkpt>
      <trkpt lat="-2.568334" lon="-78.777946">
        <ele>3314.00</ele>
        <time>2018-09-08T21:00:28Z</time>
      </trkpt>
      <trkpt lat="-2.568357" lon="-78.777939">
        <ele>3314.00</ele>
        <time>2018-09-08T21:00:29Z</time>
      </trkpt>
      <trkpt lat="-2.568373" lon="-78.777931">
        <ele>3314.00</ele>
        <time>2018-09-08T21:00:30Z</time>
      </trkpt>
      <trkpt lat="-2.568392" lon="-78.777908">
        <ele>3314.00</ele>
        <time>2018-09-08T21:00:31Z</time>
      </trkpt>
      <trkpt lat="-2.568420" lon="-78.777901">
        <ele>3313.00</ele>
        <time>2018-09-08T21:00:32Z</time>
      </trkpt>
      <trkpt lat="-2.568456" lon="-78.777885">
        <ele>3313.00</ele>
        <time>2018-09-08T21:00:33Z</time>
      </trkpt>
      <trkpt lat="-2.568492" lon="-78.777870">
        <ele>3313.00</ele>
        <time>2018-09-08T21:00:34Z</time>
      </trkpt>
      <trkpt lat="-2.568517" lon="-78.777855">
        <ele>3313.00</ele>
        <time>2018-09-08T21:00:35Z</time>
      </trkpt>
      <trkpt lat="-2.568536" lon="-78.777840">
        <ele>3313.00</ele>
        <time>2018-09-08T21:00:36Z</time>
      </trkpt>
      <trkpt lat="-2.568547" lon="-78.777832">
        <ele>3313.00</ele>
        <time>2018-09-08T21:00:37Z</time>
      </trkpt>
      <trkpt lat="-2.568558" lon="-78.777832">
        <ele>3312.00</ele>
        <time>2018-09-08T21:00:38Z</time>
      </trkpt>
      <trkpt lat="-2.568566" lon="-78.777840">
        <ele>3312.00</ele>
        <time>2018-09-08T21:00:39Z</time>
      </trkpt>
      <trkpt lat="-2.568570" lon="-78.777840">
        <ele>3312.00</ele>
        <time>2018-09-08T21:00:40Z</time>
      </trkpt>
      <trkpt lat="-2.568578" lon="-78.777840">
        <ele>3312.00</ele>
        <time>2018-09-08T21:00:41Z</time>
      </trkpt>
      <trkpt lat="-2.568574" lon="-78.777840">
        <ele>3312.00</ele>
        <time>2018-09-08T21:00:42Z</time>
      </trkpt>
      <trkpt lat="-2.568585" lon="-78.777847">
        <ele>3312.00</ele>
        <time>2018-09-08T21:00:43Z</time>
      </trkpt>
      <trkpt lat="-2.568603" lon="-78.777855">
        <ele>3312.00</ele>
        <time>2018-09-08T21:00:44Z</time>
      </trkpt>
      <trkpt lat="-2.568601" lon="-78.777878">
        <ele>3312.00</ele>
        <time>2018-09-08T21:00:45Z</time>
      </trkpt>
      <trkpt lat="-2.568594" lon="-78.777901">
        <ele>3312.00</ele>
        <time>2018-09-08T21:00:46Z</time>
      </trkpt>
      <trkpt lat="-2.568596" lon="-78.777931">
        <ele>3312.00</ele>
        <time>2018-09-08T21:00:47Z</time>
      </trkpt>
      <trkpt lat="-2.568598" lon="-78.777954">
        <ele>3312.00</ele>
        <time>2018-09-08T21:00:48Z</time>
      </trkpt>
      <trkpt lat="-2.568603" lon="-78.777985">
        <ele>3312.00</ele>
        <time>2018-09-08T21:00:49Z</time>
      </trkpt>
      <trkpt lat="-2.568605" lon="-78.778000">
        <ele>3312.00</ele>
        <time>2018-09-08T21:00:50Z</time>
      </trkpt>
      <trkpt lat="-2.568613" lon="-78.778030">
        <ele>3312.00</ele>
        <time>2018-09-08T21:00:51Z</time>
      </trkpt>
      <trkpt lat="-2.568619" lon="-78.778061">
        <ele>3312.00</ele>
        <time>2018-09-08T21:00:52Z</time>
      </trkpt>
      <trkpt lat="-2.568623" lon="-78.778107">
        <ele>3312.00</ele>
        <time>2018-09-08T21:00:53Z</time>
      </trkpt>
      <trkpt lat="-2.568632" lon="-78.778145">
        <ele>3312.00</ele>
        <time>2018-09-08T21:00:54Z</time>
      </trkpt>
      <trkpt lat="-2.568640" lon="-78.778183">
        <ele>3312.00</ele>
        <time>2018-09-08T21:00:55Z</time>
      </trkpt>
      <trkpt lat="-2.568645" lon="-78.778221">
        <ele>3311.00</ele>
        <time>2018-09-08T21:00:56Z</time>
      </trkpt>
      <trkpt lat="-2.568643" lon="-78.778267">
        <ele>3311.00</ele>
        <time>2018-09-08T21:00:57Z</time>
      </trkpt>
      <trkpt lat="-2.568625" lon="-78.778313">
        <ele>3311.00</ele>
        <time>2018-09-08T21:00:58Z</time>
      </trkpt>
      <trkpt lat="-2.568609" lon="-78.778366">
        <ele>3310.00</ele>
        <time>2018-09-08T21:00:59Z</time>
      </trkpt>
      <trkpt lat="-2.568598" lon="-78.778412">
        <ele>3310.00</ele>
        <time>2018-09-08T21:01:00Z</time>
      </trkpt>
      <trkpt lat="-2.568593" lon="-78.778465">
        <ele>3310.00</ele>
        <time>2018-09-08T21:01:01Z</time>
      </trkpt>
      <trkpt lat="-2.568592" lon="-78.778503">
        <ele>3310.00</ele>
        <time>2018-09-08T21:01:02Z</time>
      </trkpt>
      <trkpt lat="-2.568600" lon="-78.778549">
        <ele>3310.00</ele>
        <time>2018-09-08T21:01:03Z</time>
      </trkpt>
      <trkpt lat="-2.568633" lon="-78.778595">
        <ele>3310.00</ele>
        <time>2018-09-08T21:01:04Z</time>
      </trkpt>
      <trkpt lat="-2.568669" lon="-78.778633">
        <ele>3310.00</ele>
        <time>2018-09-08T21:01:05Z</time>
      </trkpt>
      <trkpt lat="-2.568714" lon="-78.778679">
        <ele>3309.00</ele>
        <time>2018-09-08T21:01:06Z</time>
      </trkpt>
      <trkpt lat="-2.568749" lon="-78.778702">
        <ele>3309.00</ele>
        <time>2018-09-08T21:01:07Z</time>
      </trkpt>
      <trkpt lat="-2.568771" lon="-78.778732">
        <ele>3309.00</ele>
        <time>2018-09-08T21:01:08Z</time>
      </trkpt>
      <trkpt lat="-2.568786" lon="-78.778755">
        <ele>3309.00</ele>
        <time>2018-09-08T21:01:09Z</time>
      </trkpt>
      <trkpt lat="-2.568789" lon="-78.778786">
        <ele>3309.00</ele>
        <time>2018-09-08T21:01:10Z</time>
      </trkpt>
      <trkpt lat="-2.568786" lon="-78.778809">
        <ele>3309.00</ele>
        <time>2018-09-08T21:01:11Z</time>
      </trkpt>
      <trkpt lat="-2.568785" lon="-78.778847">
        <ele>3309.00</ele>
        <time>2018-09-08T21:01:12Z</time>
      </trkpt>
      <trkpt lat="-2.568771" lon="-78.778893">
        <ele>3309.00</ele>
        <time>2018-09-08T21:01:13Z</time>
      </trkpt>
      <trkpt lat="-2.568753" lon="-78.778946">
        <ele>3309.00</ele>
        <time>2018-09-08T21:01:14Z</time>
      </trkpt>
      <trkpt lat="-2.568733" lon="-78.778984">
        <ele>3309.00</ele>
        <time>2018-09-08T21:01:15Z</time>
      </trkpt>
      <trkpt lat="-2.568706" lon="-78.779030">
        <ele>3309.00</ele>
        <time>2018-09-08T21:01:16Z</time>
      </trkpt>
      <trkpt lat="-2.568686" lon="-78.779045">
        <ele>3309.00</ele>
        <time>2018-09-08T21:01:17Z</time>
      </trkpt>
      <trkpt lat="-2.568668" lon="-78.779068">
        <ele>3309.00</ele>
        <time>2018-09-08T21:01:18Z</time>
      </trkpt>
      <trkpt lat="-2.568648" lon="-78.779068">
        <ele>3309.00</ele>
        <time>2018-09-08T21:01:19Z</time>
      </trkpt>
      <trkpt lat="-2.568632" lon="-78.779060">
        <ele>3309.00</ele>
        <time>2018-09-08T21:01:20Z</time>
      </trkpt>
      <trkpt lat="-2.568630" lon="-78.779030">
        <ele>3309.00</ele>
        <time>2018-09-08T21:01:21Z</time>
      </trkpt>
      <trkpt lat="-2.568629" lon="-78.779007">
        <ele>3309.00</ele>
        <time>2018-09-08T21:01:22Z</time>
      </trkpt>
      <trkpt lat="-2.568637" lon="-78.778976">
        <ele>3309.00</ele>
        <time>2018-09-08T21:01:23Z</time>
      </trkpt>
      <trkpt lat="-2.568640" lon="-78.778946">
        <ele>3309.00</ele>
        <time>2018-09-08T21:01:24Z</time>
      </trkpt>
      <trkpt lat="-2.568639" lon="-78.778908">
        <ele>3309.00</ele>
        <time>2018-09-08T21:01:25Z</time>
      </trkpt>
      <trkpt lat="-2.568633" lon="-78.778870">
        <ele>3309.00</ele>
        <time>2018-09-08T21:01:26Z</time>
      </trkpt>
      <trkpt lat="-2.568615" lon="-78.778824">
        <ele>3309.00</ele>
        <time>2018-09-08T21:01:27Z</time>
      </trkpt>
      <trkpt lat="-2.568596" lon="-78.778801">
        <ele>3309.00</ele>
        <time>2018-09-08T21:01:28Z</time>
      </trkpt>
      <trkpt lat="-2.568568" lon="-78.778801">
        <ele>3309.00</ele>
        <time>2018-09-08T21:01:29Z</time>
      </trkpt>
      <trkpt lat="-2.568530" lon="-78.778809">
        <ele>3308.00</ele>
        <time>2018-09-08T21:01:30Z</time>
      </trkpt>
      <trkpt lat="-2.568487" lon="-78.778824">
        <ele>3308.00</ele>
        <time>2018-09-08T21:01:31Z</time>
      </trkpt>
      <trkpt lat="-2.568448" lon="-78.778854">
        <ele>3308.00</ele>
        <time>2018-09-08T21:01:32Z</time>
      </trkpt>
      <trkpt lat="-2.568428" lon="-78.778900">
        <ele>3308.00</ele>
        <time>2018-09-08T21:01:33Z</time>
      </trkpt>
      <trkpt lat="-2.568402" lon="-78.778946">
        <ele>3308.00</ele>
        <time>2018-09-08T21:01:34Z</time>
      </trkpt>
      <trkpt lat="-2.568369" lon="-78.778984">
        <ele>3307.00</ele>
        <time>2018-09-08T21:01:35Z</time>
      </trkpt>
      <trkpt lat="-2.568317" lon="-78.779022">
        <ele>3307.00</ele>
        <time>2018-09-08T21:01:36Z</time>
      </trkpt>
      <trkpt lat="-2.568270" lon="-78.779060">
        <ele>3307.00</ele>
        <time>2018-09-08T21:01:37Z</time>
      </trkpt>
      <trkpt lat="-2.568224" lon="-78.779091">
        <ele>3306.00</ele>
        <time>2018-09-08T21:01:38Z</time>
      </trkpt>
      <trkpt lat="-2.568182" lon="-78.779129">
        <ele>3306.00</ele>
        <time>2018-09-08T21:01:39Z</time>
      </trkpt>
      <trkpt lat="-2.568137" lon="-78.779152">
        <ele>3305.00</ele>
        <time>2018-09-08T21:01:40Z</time>
      </trkpt>
      <trkpt lat="-2.568094" lon="-78.779167">
        <ele>3304.00</ele>
        <time>2018-09-08T21:01:41Z</time>
      </trkpt>
      <trkpt lat="-2.568052" lon="-78.779182">
        <ele>3304.00</ele>
        <time>2018-09-08T21:01:42Z</time>
      </trkpt>
      <trkpt lat="-2.568013" lon="-78.779190">
        <ele>3303.00</ele>
        <time>2018-09-08T21:01:43Z</time>
      </trkpt>
      <trkpt lat="-2.567974" lon="-78.779205">
        <ele>3303.00</ele>
        <time>2018-09-08T21:01:44Z</time>
      </trkpt>
      <trkpt lat="-2.567940" lon="-78.779228">
        <ele>3302.00</ele>
        <time>2018-09-08T21:01:45Z</time>
      </trkpt>
      <trkpt lat="-2.567909" lon="-78.779259">
        <ele>3300.00</ele>
        <time>2018-09-08T21:01:46Z</time>
      </trkpt>
      <trkpt lat="-2.567880" lon="-78.779289">
        <ele>3300.00</ele>
        <time>2018-09-08T21:01:47Z</time>
      </trkpt>
      <trkpt lat="-2.567854" lon="-78.779312">
        <ele>3300.00</ele>
        <time>2018-09-08T21:01:48Z</time>
      </trkpt>
      <trkpt lat="-2.567832" lon="-78.779335">
        <ele>3300.00</ele>
        <time>2018-09-08T21:01:49Z</time>
      </trkpt>
      <trkpt lat="-2.567802" lon="-78.779358">
        <ele>3300.00</ele>
        <time>2018-09-08T21:01:50Z</time>
      </trkpt>
      <trkpt lat="-2.567774" lon="-78.779381">
        <ele>3299.00</ele>
        <time>2018-09-08T21:01:51Z</time>
      </trkpt>
      <trkpt lat="-2.567742" lon="-78.779388">
        <ele>3299.00</ele>
        <time>2018-09-08T21:01:52Z</time>
      </trkpt>
      <trkpt lat="-2.567710" lon="-78.779404">
        <ele>3299.00</ele>
        <time>2018-09-08T21:01:53Z</time>
      </trkpt>
      <trkpt lat="-2.567678" lon="-78.779419">
        <ele>3299.00</ele>
        <time>2018-09-08T21:01:54Z</time>
      </trkpt>
      <trkpt lat="-2.567642" lon="-78.779442">
        <ele>3296.00</ele>
        <time>2018-09-08T21:01:55Z</time>
      </trkpt>
      <trkpt lat="-2.567611" lon="-78.779457">
        <ele>3294.00</ele>
        <time>2018-09-08T21:01:56Z</time>
      </trkpt>
      <trkpt lat="-2.567587" lon="-78.779495">
        <ele>3294.00</ele>
        <time>2018-09-08T21:01:57Z</time>
      </trkpt>
      <trkpt lat="-2.567581" lon="-78.779518">
        <ele>3294.00</ele>
        <time>2018-09-08T21:01:58Z</time>
      </trkpt>
      <trkpt lat="-2.567571" lon="-78.779556">
        <ele>3294.00</ele>
        <time>2018-09-08T21:01:59Z</time>
      </trkpt>
      <trkpt lat="-2.567559" lon="-78.779579">
        <ele>3294.00</ele>
        <time>2018-09-08T21:02:00Z</time>
      </trkpt>
      <trkpt lat="-2.567549" lon="-78.779610">
        <ele>3292.00</ele>
        <time>2018-09-08T21:02:01Z</time>
      </trkpt>
      <trkpt lat="-2.567529" lon="-78.779648">
        <ele>3290.00</ele>
        <time>2018-09-08T21:02:02Z</time>
      </trkpt>
      <trkpt lat="-2.567493" lon="-78.779671">
        <ele>3289.00</ele>
        <time>2018-09-08T21:02:03Z</time>
      </trkpt>
      <trkpt lat="-2.567460" lon="-78.779686">
        <ele>3288.00</ele>
        <time>2018-09-08T21:02:04Z</time>
      </trkpt>
      <trkpt lat="-2.567431" lon="-78.779716">
        <ele>3287.00</ele>
        <time>2018-09-08T21:02:05Z</time>
      </trkpt>
      <trkpt lat="-2.567399" lon="-78.779755">
        <ele>3286.00</ele>
        <time>2018-09-08T21:02:06Z</time>
      </trkpt>
      <trkpt lat="-2.567360" lon="-78.779785">
        <ele>3285.00</ele>
        <time>2018-09-08T21:02:07Z</time>
      </trkpt>
      <trkpt lat="-2.567337" lon="-78.779823">
        <ele>3283.00</ele>
        <time>2018-09-08T21:02:08Z</time>
      </trkpt>
      <trkpt lat="-2.567325" lon="-78.779861">
        <ele>3283.00</ele>
        <time>2018-09-08T21:02:09Z</time>
      </trkpt>
      <trkpt lat="-2.567323" lon="-78.779892">
        <ele>3282.00</ele>
        <time>2018-09-08T21:02:10Z</time>
      </trkpt>
      <trkpt lat="-2.567328" lon="-78.779938">
        <ele>3281.00</ele>
        <time>2018-09-08T21:02:11Z</time>
      </trkpt>
      <trkpt lat="-2.567351" lon="-78.779984">
        <ele>3280.00</ele>
        <time>2018-09-08T21:02:12Z</time>
      </trkpt>
      <trkpt lat="-2.567389" lon="-78.780006">
        <ele>3279.00</ele>
        <time>2018-09-08T21:02:13Z</time>
      </trkpt>
      <trkpt lat="-2.567444" lon="-78.780029">
        <ele>3278.00</ele>
        <time>2018-09-08T21:02:14Z</time>
      </trkpt>
      <trkpt lat="-2.567504" lon="-78.780052">
        <ele>3278.00</ele>
        <time>2018-09-08T21:02:15Z</time>
      </trkpt>
      <trkpt lat="-2.567561" lon="-78.780067">
        <ele>3277.00</ele>
        <time>2018-09-08T21:02:16Z</time>
      </trkpt>
      <trkpt lat="-2.567611" lon="-78.780090">
        <ele>3276.00</ele>
        <time>2018-09-08T21:02:17Z</time>
      </trkpt>
      <trkpt lat="-2.567665" lon="-78.780098">
        <ele>3276.00</ele>
        <time>2018-09-08T21:02:18Z</time>
      </trkpt>
      <trkpt lat="-2.567724" lon="-78.780113">
        <ele>3275.00</ele>
        <time>2018-09-08T21:02:19Z</time>
      </trkpt>
      <trkpt lat="-2.567772" lon="-78.780136">
        <ele>3275.00</ele>
        <time>2018-09-08T21:02:20Z</time>
      </trkpt>
      <trkpt lat="-2.567826" lon="-78.780159">
        <ele>3274.00</ele>
        <time>2018-09-08T21:02:21Z</time>
      </trkpt>
      <trkpt lat="-2.567879" lon="-78.780174">
        <ele>3273.00</ele>
        <time>2018-09-08T21:02:22Z</time>
      </trkpt>
      <trkpt lat="-2.567920" lon="-78.780197">
        <ele>3273.00</ele>
        <time>2018-09-08T21:02:23Z</time>
      </trkpt>
      <trkpt lat="-2.567945" lon="-78.780220">
        <ele>3273.00</ele>
        <time>2018-09-08T21:02:24Z</time>
      </trkpt>
      <trkpt lat="-2.567961" lon="-78.780243">
        <ele>3271.00</ele>
        <time>2018-09-08T21:02:25Z</time>
      </trkpt>
      <trkpt lat="-2.567962" lon="-78.780281">
        <ele>3270.00</ele>
        <time>2018-09-08T21:02:26Z</time>
      </trkpt>
      <trkpt lat="-2.567933" lon="-78.780319">
        <ele>3269.00</ele>
        <time>2018-09-08T21:02:27Z</time>
      </trkpt>
      <trkpt lat="-2.567899" lon="-78.780365">
        <ele>3268.00</ele>
        <time>2018-09-08T21:02:28Z</time>
      </trkpt>
      <trkpt lat="-2.567859" lon="-78.780411">
        <ele>3267.00</ele>
        <time>2018-09-08T21:02:29Z</time>
      </trkpt>
      <trkpt lat="-2.567826" lon="-78.780457">
        <ele>3266.00</ele>
        <time>2018-09-08T21:02:30Z</time>
      </trkpt>
      <trkpt lat="-2.567791" lon="-78.780487">
        <ele>3266.00</ele>
        <time>2018-09-08T21:02:31Z</time>
      </trkpt>
      <trkpt lat="-2.567754" lon="-78.780510">
        <ele>3266.00</ele>
        <time>2018-09-08T21:02:32Z</time>
      </trkpt>
      <trkpt lat="-2.567719" lon="-78.780533">
        <ele>3265.00</ele>
        <time>2018-09-08T21:02:33Z</time>
      </trkpt>
      <trkpt lat="-2.567685" lon="-78.780571">
        <ele>3264.00</ele>
        <time>2018-09-08T21:02:34Z</time>
      </trkpt>
      <trkpt lat="-2.567658" lon="-78.780594">
        <ele>3264.00</ele>
        <time>2018-09-08T21:02:35Z</time>
      </trkpt>
      <trkpt lat="-2.567647" lon="-78.780632">
        <ele>3263.00</ele>
        <time>2018-09-08T21:02:36Z</time>
      </trkpt>
      <trkpt lat="-2.567648" lon="-78.780655">
        <ele>3263.00</ele>
        <time>2018-09-08T21:02:37Z</time>
      </trkpt>
      <trkpt lat="-2.567671" lon="-78.780685">
        <ele>3263.00</ele>
        <time>2018-09-08T21:02:38Z</time>
      </trkpt>
      <trkpt lat="-2.567699" lon="-78.780701">
        <ele>3263.00</ele>
        <time>2018-09-08T21:02:39Z</time>
      </trkpt>
      <trkpt lat="-2.567739" lon="-78.780724">
        <ele>3263.00</ele>
        <time>2018-09-08T21:02:40Z</time>
      </trkpt>
      <trkpt lat="-2.567776" lon="-78.780739">
        <ele>3260.00</ele>
        <time>2018-09-08T21:02:41Z</time>
      </trkpt>
      <trkpt lat="-2.567815" lon="-78.780746">
        <ele>3259.00</ele>
        <time>2018-09-08T21:02:42Z</time>
      </trkpt>
      <trkpt lat="-2.567856" lon="-78.780746">
        <ele>3258.00</ele>
        <time>2018-09-08T21:02:43Z</time>
      </trkpt>
      <trkpt lat="-2.567883" lon="-78.780754">
        <ele>3258.00</ele>
        <time>2018-09-08T21:02:44Z</time>
      </trkpt>
      <trkpt lat="-2.567909" lon="-78.780762">
        <ele>3258.00</ele>
        <time>2018-09-08T21:02:45Z</time>
      </trkpt>
      <trkpt lat="-2.567948" lon="-78.780762">
        <ele>3258.00</ele>
        <time>2018-09-08T21:02:46Z</time>
      </trkpt>
      <trkpt lat="-2.567980" lon="-78.780762">
        <ele>3258.00</ele>
        <time>2018-09-08T21:02:47Z</time>
      </trkpt>
      <trkpt lat="-2.568006" lon="-78.780762">
        <ele>3258.00</ele>
        <time>2018-09-08T21:02:48Z</time>
      </trkpt>
      <trkpt lat="-2.568033" lon="-78.780777">
        <ele>3258.00</ele>
        <time>2018-09-08T21:02:49Z</time>
      </trkpt>
      <trkpt lat="-2.568060" lon="-78.780785">
        <ele>3257.00</ele>
        <time>2018-09-08T21:02:50Z</time>
      </trkpt>
      <trkpt lat="-2.568082" lon="-78.780800">
        <ele>3257.00</ele>
        <time>2018-09-08T21:02:51Z</time>
      </trkpt>
      <trkpt lat="-2.568082" lon="-78.780815">
        <ele>3257.00</ele>
        <time>2018-09-08T21:02:52Z</time>
      </trkpt>
      <trkpt lat="-2.568058" lon="-78.780853">
        <ele>3255.00</ele>
        <time>2018-09-08T21:02:53Z</time>
      </trkpt>
      <trkpt lat="-2.568036" lon="-78.780891">
        <ele>3254.00</ele>
        <time>2018-09-08T21:02:54Z</time>
      </trkpt>
      <trkpt lat="-2.568004" lon="-78.780922">
        <ele>3252.00</ele>
        <time>2018-09-08T21:02:55Z</time>
      </trkpt>
      <trkpt lat="-2.567962" lon="-78.780960">
        <ele>3251.00</ele>
        <time>2018-09-08T21:02:56Z</time>
      </trkpt>
      <trkpt lat="-2.567921" lon="-78.780983">
        <ele>3249.00</ele>
        <time>2018-09-08T21:02:57Z</time>
      </trkpt>
      <trkpt lat="-2.567881" lon="-78.781013">
        <ele>3248.00</ele>
        <time>2018-09-08T21:02:58Z</time>
      </trkpt>
      <trkpt lat="-2.567847" lon="-78.781052">
        <ele>3247.00</ele>
        <time>2018-09-08T21:02:59Z</time>
      </trkpt>
      <trkpt lat="-2.567820" lon="-78.781075">
        <ele>3247.00</ele>
        <time>2018-09-08T21:03:00Z</time>
      </trkpt>
      <trkpt lat="-2.567800" lon="-78.781105">
        <ele>3247.00</ele>
        <time>2018-09-08T21:03:01Z</time>
      </trkpt>
      <trkpt lat="-2.567781" lon="-78.781136">
        <ele>3245.00</ele>
        <time>2018-09-08T21:03:02Z</time>
      </trkpt>
      <trkpt lat="-2.567763" lon="-78.781181">
        <ele>3243.00</ele>
        <time>2018-09-08T21:03:03Z</time>
      </trkpt>
      <trkpt lat="-2.567752" lon="-78.781227">
        <ele>3243.00</ele>
        <time>2018-09-08T21:03:04Z</time>
      </trkpt>
      <trkpt lat="-2.567741" lon="-78.781250">
        <ele>3243.00</ele>
        <time>2018-09-08T21:03:05Z</time>
      </trkpt>
      <trkpt lat="-2.567739" lon="-78.781281">
        <ele>3243.00</ele>
        <time>2018-09-08T21:03:06Z</time>
      </trkpt>
      <trkpt lat="-2.567740" lon="-78.781296">
        <ele>3243.00</ele>
        <time>2018-09-08T21:03:07Z</time>
      </trkpt>
      <trkpt lat="-2.567743" lon="-78.781303">
        <ele>3243.00</ele>
        <time>2018-09-08T21:03:08Z</time>
      </trkpt>
      <trkpt lat="-2.567746" lon="-78.781296">
        <ele>3242.00</ele>
        <time>2018-09-08T21:03:09Z</time>
      </trkpt>
      <trkpt lat="-2.567748" lon="-78.781296">
        <ele>3242.00</ele>
        <time>2018-09-08T21:03:10Z</time>
      </trkpt>
      <trkpt lat="-2.567748" lon="-78.781296">
        <ele>3242.00</ele>
        <time>2018-09-08T21:03:11Z</time>
      </trkpt>
      <trkpt lat="-2.567746" lon="-78.781296">
        <ele>3242.00</ele>
        <time>2018-09-08T21:03:12Z</time>
      </trkpt>
      <trkpt lat="-2.567745" lon="-78.781296">
        <ele>3242.00</ele>
        <time>2018-09-08T21:03:13Z</time>
      </trkpt>
      <trkpt lat="-2.567745" lon="-78.781296">
        <ele>3242.00</ele>
        <time>2018-09-08T21:03:14Z</time>
      </trkpt>
      <trkpt lat="-2.567745" lon="-78.781296">
        <ele>3242.00</ele>
        <time>2018-09-08T21:03:15Z</time>
      </trkpt>
      <trkpt lat="-2.567745" lon="-78.781296">
        <ele>3242.00</ele>
        <time>2018-09-08T21:03:16Z</time>
      </trkpt>
      <trkpt lat="-2.567745" lon="-78.781296">
        <ele>3242.00</ele>
        <time>2018-09-08T21:03:17Z</time>
      </trkpt>
      <trkpt lat="-2.567746" lon="-78.781296">
        <ele>3242.00</ele>
        <time>2018-09-08T21:03:18Z</time>
      </trkpt>
      <trkpt lat="-2.567746" lon="-78.781296">
        <ele>3242.00</ele>
        <time>2018-09-08T21:03:19Z</time>
      </trkpt>
      <trkpt lat="-2.567745" lon="-78.781296">
        <ele>3242.00</ele>
        <time>2018-09-08T21:03:20Z</time>
      </trkpt>
      <trkpt lat="-2.567746" lon="-78.781296">
        <ele>3241.00</ele>
        <time>2018-09-08T21:03:21Z</time>
      </trkpt>
      <trkpt lat="-2.567746" lon="-78.781296">
        <ele>3241.00</ele>
        <time>2018-09-08T21:03:22Z</time>
      </trkpt>
      <trkpt lat="-2.567749" lon="-78.781303">
        <ele>3241.00</ele>
        <time>2018-09-08T21:03:23Z</time>
      </trkpt>
      <trkpt lat="-2.567763" lon="-78.781326">
        <ele>3240.00</ele>
        <time>2018-09-08T21:03:24Z</time>
      </trkpt>
      <trkpt lat="-2.567780" lon="-78.781357">
        <ele>3240.00</ele>
        <time>2018-09-08T21:03:25Z</time>
      </trkpt>
      <trkpt lat="-2.567804" lon="-78.781387">
        <ele>3237.00</ele>
        <time>2018-09-08T21:03:26Z</time>
      </trkpt>
      <trkpt lat="-2.567828" lon="-78.781410">
        <ele>3237.00</ele>
        <time>2018-09-08T21:03:27Z</time>
      </trkpt>
      <trkpt lat="-2.567852" lon="-78.781448">
        <ele>3235.00</ele>
        <time>2018-09-08T21:03:28Z</time>
      </trkpt>
      <trkpt lat="-2.567881" lon="-78.781487">
        <ele>3233.00</ele>
        <time>2018-09-08T21:03:29Z</time>
      </trkpt>
      <trkpt lat="-2.567907" lon="-78.781532">
        <ele>3231.00</ele>
        <time>2018-09-08T21:03:30Z</time>
      </trkpt>
      <trkpt lat="-2.567923" lon="-78.781586">
        <ele>3230.00</ele>
        <time>2018-09-08T21:03:31Z</time>
      </trkpt>
      <trkpt lat="-2.567931" lon="-78.781639">
        <ele>3229.00</ele>
        <time>2018-09-08T21:03:32Z</time>
      </trkpt>
      <trkpt lat="-2.567938" lon="-78.781677">
        <ele>3228.00</ele>
        <time>2018-09-08T21:03:33Z</time>
      </trkpt>
      <trkpt lat="-2.567943" lon="-78.781731">
        <ele>3227.00</ele>
        <time>2018-09-08T21:03:34Z</time>
      </trkpt>
      <trkpt lat="-2.567964" lon="-78.781784">
        <ele>3226.00</ele>
        <time>2018-09-08T21:03:35Z</time>
      </trkpt>
      <trkpt lat="-2.567982" lon="-78.781830">
        <ele>3225.00</ele>
        <time>2018-09-08T21:03:36Z</time>
      </trkpt>
      <trkpt lat="-2.567996" lon="-78.781891">
        <ele>3224.00</ele>
        <time>2018-09-08T21:03:37Z</time>
      </trkpt>
      <trkpt lat="-2.568001" lon="-78.781944">
        <ele>3223.00</ele>
        <time>2018-09-08T21:03:38Z</time>
      </trkpt>
      <trkpt lat="-2.568003" lon="-78.782021">
        <ele>3222.00</ele>
        <time>2018-09-08T21:03:39Z</time>
      </trkpt>
      <trkpt lat="-2.568008" lon="-78.782074">
        <ele>3221.00</ele>
        <time>2018-09-08T21:03:40Z</time>
      </trkpt>
      <trkpt lat="-2.568014" lon="-78.782135">
        <ele>3220.00</ele>
        <time>2018-09-08T21:03:41Z</time>
      </trkpt>
      <trkpt lat="-2.568021" lon="-78.782181">
        <ele>3219.00</ele>
        <time>2018-09-08T21:03:42Z</time>
      </trkpt>
      <trkpt lat="-2.568018" lon="-78.782234">
        <ele>3218.00</ele>
        <time>2018-09-08T21:03:43Z</time>
      </trkpt>
      <trkpt lat="-2.568007" lon="-78.782288">
        <ele>3217.00</ele>
        <time>2018-09-08T21:03:44Z</time>
      </trkpt>
      <trkpt lat="-2.567995" lon="-78.782341">
        <ele>3216.00</ele>
        <time>2018-09-08T21:03:45Z</time>
      </trkpt>
      <trkpt lat="-2.567979" lon="-78.782394">
        <ele>3215.00</ele>
        <time>2018-09-08T21:03:46Z</time>
      </trkpt>
      <trkpt lat="-2.567962" lon="-78.782448">
        <ele>3215.00</ele>
        <time>2018-09-08T21:03:47Z</time>
      </trkpt>
      <trkpt lat="-2.567945" lon="-78.782501">
        <ele>3214.00</ele>
        <time>2018-09-08T21:03:48Z</time>
      </trkpt>
      <trkpt lat="-2.567927" lon="-78.782562">
        <ele>3213.00</ele>
        <time>2018-09-08T21:03:49Z</time>
      </trkpt>
      <trkpt lat="-2.567906" lon="-78.782608">
        <ele>3213.00</ele>
        <time>2018-09-08T21:03:50Z</time>
      </trkpt>
      <trkpt lat="-2.567888" lon="-78.782661">
        <ele>3212.00</ele>
        <time>2018-09-08T21:03:51Z</time>
      </trkpt>
      <trkpt lat="-2.567884" lon="-78.782715">
        <ele>3212.00</ele>
        <time>2018-09-08T21:03:52Z</time>
      </trkpt>
      <trkpt lat="-2.567898" lon="-78.782753">
        <ele>3212.00</ele>
        <time>2018-09-08T21:03:53Z</time>
      </trkpt>
      <trkpt lat="-2.567921" lon="-78.782799">
        <ele>3211.00</ele>
        <time>2018-09-08T21:03:54Z</time>
      </trkpt>
      <trkpt lat="-2.567953" lon="-78.782852">
        <ele>3211.00</ele>
        <time>2018-09-08T21:03:55Z</time>
      </trkpt>
      <trkpt lat="-2.568006" lon="-78.782898">
        <ele>3211.00</ele>
        <time>2018-09-08T21:03:56Z</time>
      </trkpt>
      <trkpt lat="-2.568041" lon="-78.782936">
        <ele>3210.00</ele>
        <time>2018-09-08T21:03:57Z</time>
      </trkpt>
      <trkpt lat="-2.568091" lon="-78.782959">
        <ele>3210.00</ele>
        <time>2018-09-08T21:03:58Z</time>
      </trkpt>
      <trkpt lat="-2.568170" lon="-78.782997">
        <ele>3209.00</ele>
        <time>2018-09-08T21:03:59Z</time>
      </trkpt>
      <trkpt lat="-2.568236" lon="-78.783028">
        <ele>3209.00</ele>
        <time>2018-09-08T21:04:00Z</time>
      </trkpt>
      <trkpt lat="-2.568276" lon="-78.783051">
        <ele>3209.00</ele>
        <time>2018-09-08T21:04:01Z</time>
      </trkpt>
      <trkpt lat="-2.568276" lon="-78.783051">
        <ele>3209.00</ele>
        <time>2018-09-08T21:04:02Z</time>
      </trkpt>
      <trkpt lat="-2.568276" lon="-78.783051">
        <ele>3209.00</ele>
        <time>2018-09-08T21:04:03Z</time>
      </trkpt>
      <trkpt lat="-2.568276" lon="-78.783051">
        <ele>3209.00</ele>
        <time>2018-09-08T21:04:04Z</time>
      </trkpt>
      <trkpt lat="-2.568276" lon="-78.783051">
        <ele>3209.00</ele>
        <time>2018-09-08T21:04:05Z</time>
      </trkpt>
      <trkpt lat="-2.568276" lon="-78.783051">
        <ele>3209.00</ele>
        <time>2018-09-08T21:04:06Z</time>
      </trkpt>
      <trkpt lat="-2.568276" lon="-78.783051">
        <ele>3209.00</ele>
        <time>2018-09-08T21:04:07Z</time>
      </trkpt>
      <trkpt lat="-2.568276" lon="-78.783051">
        <ele>3209.00</ele>
        <time>2018-09-08T21:04:08Z</time>
      </trkpt>
      <trkpt lat="-2.568276" lon="-78.783051">
        <ele>3209.00</ele>
        <time>2018-09-08T21:04:09Z</time>
      </trkpt>
      <trkpt lat="-2.568276" lon="-78.783051">
        <ele>3209.00</ele>
        <time>2018-09-08T21:04:10Z</time>
      </trkpt>
      <trkpt lat="-2.568276" lon="-78.783051">
        <ele>3209.00</ele>
        <time>2018-09-08T21:04:11Z</time>
      </trkpt>
      <trkpt lat="-2.568276" lon="-78.783051">
        <ele>3208.00</ele>
        <time>2018-09-08T21:04:12Z</time>
      </trkpt>
      <trkpt lat="-2.568276" lon="-78.783051">
        <ele>3208.00</ele>
        <time>2018-09-08T21:04:13Z</time>
      </trkpt>
      <trkpt lat="-2.568276" lon="-78.783051">
        <ele>3208.00</ele>
        <time>2018-09-08T21:04:14Z</time>
      </trkpt>
      <trkpt lat="-2.568276" lon="-78.783051">
        <ele>3208.00</ele>
        <time>2018-09-08T21:04:15Z</time>
      </trkpt>
      <trkpt lat="-2.568276" lon="-78.783051">
        <ele>3208.00</ele>
        <time>2018-09-08T21:04:16Z</time>
      </trkpt>
      <trkpt lat="-2.568276" lon="-78.783051">
        <ele>3208.00</ele>
        <time>2018-09-08T21:04:17Z</time>
      </trkpt>
      <trkpt lat="-2.568276" lon="-78.783051">
        <ele>3208.00</ele>
        <time>2018-09-08T21:04:18Z</time>
      </trkpt>
      <trkpt lat="-2.568276" lon="-78.783051">
        <ele>3208.00</ele>
        <time>2018-09-08T21:04:19Z</time>
      </trkpt>
      <trkpt lat="-2.568276" lon="-78.783051">
        <ele>3208.00</ele>
        <time>2018-09-08T21:04:20Z</time>
      </trkpt>
      <trkpt lat="-2.568276" lon="-78.783051">
        <ele>3207.00</ele>
        <time>2018-09-08T21:04:21Z</time>
      </trkpt>
      <trkpt lat="-2.568306" lon="-78.783005">
        <ele>3207.00</ele>
        <time>2018-09-08T21:04:22Z</time>
      </trkpt>
      <trkpt lat="-2.568306" lon="-78.783005">
        <ele>3207.00</ele>
        <time>2018-09-08T21:04:23Z</time>
      </trkpt>
      <trkpt lat="-2.568306" lon="-78.783005">
        <ele>3207.00</ele>
        <time>2018-09-08T21:04:24Z</time>
      </trkpt>
      <trkpt lat="-2.568306" lon="-78.783005">
        <ele>3207.00</ele>
        <time>2018-09-08T21:04:25Z</time>
      </trkpt>
      <trkpt lat="-2.568306" lon="-78.783005">
        <ele>3207.00</ele>
        <time>2018-09-08T21:04:26Z</time>
      </trkpt>
      <trkpt lat="-2.568306" lon="-78.783005">
        <ele>3207.00</ele>
        <time>2018-09-08T21:04:27Z</time>
      </trkpt>
      <trkpt lat="-2.568306" lon="-78.783005">
        <ele>3207.00</ele>
        <time>2018-09-08T21:04:28Z</time>
      </trkpt>
      <trkpt lat="-2.568306" lon="-78.783005">
        <ele>3206.00</ele>
        <time>2018-09-08T21:04:29Z</time>
      </trkpt>
      <trkpt lat="-2.568301" lon="-78.782997">
        <ele>3206.00</ele>
        <time>2018-09-08T21:04:30Z</time>
      </trkpt>
      <trkpt lat="-2.568301" lon="-78.782997">
        <ele>3206.00</ele>
        <time>2018-09-08T21:04:31Z</time>
      </trkpt>
      <trkpt lat="-2.568305" lon="-78.782997">
        <ele>3206.00</ele>
        <time>2018-09-08T21:04:32Z</time>
      </trkpt>
      <trkpt lat="-2.568304" lon="-78.782997">
        <ele>3206.00</ele>
        <time>2018-09-08T21:04:33Z</time>
      </trkpt>
      <trkpt lat="-2.568302" lon="-78.782997">
        <ele>3206.00</ele>
        <time>2018-09-08T21:04:34Z</time>
      </trkpt>
      <trkpt lat="-2.568303" lon="-78.782997">
        <ele>3206.00</ele>
        <time>2018-09-08T21:04:35Z</time>
      </trkpt>
      <trkpt lat="-2.568312" lon="-78.783005">
        <ele>3205.00</ele>
        <time>2018-09-08T21:04:36Z</time>
      </trkpt>
      <trkpt lat="-2.568315" lon="-78.783005">
        <ele>3205.00</ele>
        <time>2018-09-08T21:04:37Z</time>
      </trkpt>
      <trkpt lat="-2.568316" lon="-78.783005">
        <ele>3205.00</ele>
        <time>2018-09-08T21:04:38Z</time>
      </trkpt>
      <trkpt lat="-2.568315" lon="-78.783005">
        <ele>3205.00</ele>
        <time>2018-09-08T21:04:39Z</time>
      </trkpt>
      <trkpt lat="-2.568317" lon="-78.783005">
        <ele>3205.00</ele>
        <time>2018-09-08T21:04:40Z</time>
      </trkpt>
      <trkpt lat="-2.568318" lon="-78.783005">
        <ele>3204.00</ele>
        <time>2018-09-08T21:04:41Z</time>
      </trkpt>
      <trkpt lat="-2.568322" lon="-78.783005">
        <ele>3204.00</ele>
        <time>2018-09-08T21:04:42Z</time>
      </trkpt>
      <trkpt lat="-2.568324" lon="-78.783005">
        <ele>3204.00</ele>
        <time>2018-09-08T21:04:43Z</time>
      </trkpt>
      <trkpt lat="-2.568325" lon="-78.783005">
        <ele>3204.00</ele>
        <time>2018-09-08T21:04:44Z</time>
      </trkpt>
      <trkpt lat="-2.568327" lon="-78.783012">
        <ele>3203.00</ele>
        <time>2018-09-08T21:04:45Z</time>
      </trkpt>
      <trkpt lat="-2.568327" lon="-78.783012">
        <ele>3203.00</ele>
        <time>2018-09-08T21:04:46Z</time>
      </trkpt>
      <trkpt lat="-2.568322" lon="-78.783012">
        <ele>3203.00</ele>
        <time>2018-09-08T21:04:47Z</time>
      </trkpt>
      <trkpt lat="-2.568320" lon="-78.783012">
        <ele>3203.00</ele>
        <time>2018-09-08T21:04:48Z</time>
      </trkpt>
      <trkpt lat="-2.568317" lon="-78.783012">
        <ele>3203.00</ele>
        <time>2018-09-08T21:04:49Z</time>
      </trkpt>
      <trkpt lat="-2.568310" lon="-78.783012">
        <ele>3203.00</ele>
        <time>2018-09-08T21:04:50Z</time>
      </trkpt>
      <trkpt lat="-2.568299" lon="-78.783012">
        <ele>3202.00</ele>
        <time>2018-09-08T21:04:51Z</time>
      </trkpt>
      <trkpt lat="-2.568295" lon="-78.783012">
        <ele>3202.00</ele>
        <time>2018-09-08T21:04:52Z</time>
      </trkpt>
      <trkpt lat="-2.568291" lon="-78.783012">
        <ele>3202.00</ele>
        <time>2018-09-08T21:04:53Z</time>
      </trkpt>
      <trkpt lat="-2.568289" lon="-78.783012">
        <ele>3202.00</ele>
        <time>2018-09-08T21:04:54Z</time>
      </trkpt>
      <trkpt lat="-2.568287" lon="-78.783012">
        <ele>3202.00</ele>
        <time>2018-09-08T21:04:55Z</time>
      </trkpt>
      <trkpt lat="-2.568283" lon="-78.783012">
        <ele>3202.00</ele>
        <time>2018-09-08T21:04:56Z</time>
      </trkpt>
      <trkpt lat="-2.568281" lon="-78.783012">
        <ele>3201.00</ele>
        <time>2018-09-08T21:04:57Z</time>
      </trkpt>
      <trkpt lat="-2.568274" lon="-78.783012">
        <ele>3201.00</ele>
        <time>2018-09-08T21:04:58Z</time>
      </trkpt>
      <trkpt lat="-2.568274" lon="-78.783012">
        <ele>3201.00</ele>
        <time>2018-09-08T21:04:59Z</time>
      </trkpt>
      <trkpt lat="-2.568285" lon="-78.783020">
        <ele>3201.00</ele>
        <time>2018-09-08T21:05:00Z</time>
      </trkpt>
      <trkpt lat="-2.568287" lon="-78.783020">
        <ele>3201.00</ele>
        <time>2018-09-08T21:05:01Z</time>
      </trkpt>
      <trkpt lat="-2.568286" lon="-78.783020">
        <ele>3201.00</ele>
        <time>2018-09-08T21:05:02Z</time>
      </trkpt>
      <trkpt lat="-2.568286" lon="-78.783020">
        <ele>3201.00</ele>
        <time>2018-09-08T21:05:03Z</time>
      </trkpt>
      <trkpt lat="-2.568290" lon="-78.783020">
        <ele>3201.00</ele>
        <time>2018-09-08T21:05:04Z</time>
      </trkpt>
      <trkpt lat="-2.568290" lon="-78.783020">
        <ele>3201.00</ele>
        <time>2018-09-08T21:05:05Z</time>
      </trkpt>
      <trkpt lat="-2.568295" lon="-78.783020">
        <ele>3201.00</ele>
        <time>2018-09-08T21:05:06Z</time>
      </trkpt>
      <trkpt lat="-2.568303" lon="-78.783020">
        <ele>3200.00</ele>
        <time>2018-09-08T21:05:07Z</time>
      </trkpt>
      <trkpt lat="-2.568312" lon="-78.783020">
        <ele>3200.00</ele>
        <time>2018-09-08T21:05:08Z</time>
      </trkpt>
      <trkpt lat="-2.568314" lon="-78.783020">
        <ele>3200.00</ele>
        <time>2018-09-08T21:05:09Z</time>
      </trkpt>
      <trkpt lat="-2.568316" lon="-78.783020">
        <ele>3200.00</ele>
        <time>2018-09-08T21:05:10Z</time>
      </trkpt>
      <trkpt lat="-2.568316" lon="-78.783020">
        <ele>3200.00</ele>
        <time>2018-09-08T21:05:11Z</time>
      </trkpt>
      <trkpt lat="-2.568316" lon="-78.783020">
        <ele>3200.00</ele>
        <time>2018-09-08T21:05:12Z</time>
      </trkpt>
      <trkpt lat="-2.568316" lon="-78.783020">
        <ele>3200.00</ele>
        <time>2018-09-08T21:05:13Z</time>
      </trkpt>
      <trkpt lat="-2.568317" lon="-78.783020">
        <ele>3200.00</ele>
        <time>2018-09-08T21:05:14Z</time>
      </trkpt>
      <trkpt lat="-2.568317" lon="-78.783020">
        <ele>3200.00</ele>
        <time>2018-09-08T21:05:15Z</time>
      </trkpt>
      <trkpt lat="-2.568317" lon="-78.783020">
        <ele>3200.00</ele>
        <time>2018-09-08T21:05:16Z</time>
      </trkpt>
      <trkpt lat="-2.568317" lon="-78.783020">
        <ele>3200.00</ele>
        <time>2018-09-08T21:05:17Z</time>
      </trkpt>
      <trkpt lat="-2.568317" lon="-78.783020">
        <ele>3200.00</ele>
        <time>2018-09-08T21:05:18Z</time>
      </trkpt>
      <trkpt lat="-2.568318" lon="-78.783020">
        <ele>3200.00</ele>
        <time>2018-09-08T21:05:19Z</time>
      </trkpt>
      <trkpt lat="-2.568320" lon="-78.783020">
        <ele>3200.00</ele>
        <time>2018-09-08T21:05:20Z</time>
      </trkpt>
      <trkpt lat="-2.568327" lon="-78.783020">
        <ele>3200.00</ele>
        <time>2018-09-08T21:05:21Z</time>
      </trkpt>
      <trkpt lat="-2.568352" lon="-78.783043">
        <ele>3200.00</ele>
        <time>2018-09-08T21:05:22Z</time>
      </trkpt>
      <trkpt lat="-2.568383" lon="-78.783058">
        <ele>3198.00</ele>
        <time>2018-09-08T21:05:23Z</time>
      </trkpt>
      <trkpt lat="-2.568413" lon="-78.783081">
        <ele>3198.00</ele>
        <time>2018-09-08T21:05:24Z</time>
      </trkpt>
      <trkpt lat="-2.568439" lon="-78.783096">
        <ele>3198.00</ele>
        <time>2018-09-08T21:05:25Z</time>
      </trkpt>
      <trkpt lat="-2.568463" lon="-78.783112">
        <ele>3198.00</ele>
        <time>2018-09-08T21:05:26Z</time>
      </trkpt>
      <trkpt lat="-2.568493" lon="-78.783134">
        <ele>3197.00</ele>
        <time>2018-09-08T21:05:27Z</time>
      </trkpt>
      <trkpt lat="-2.568551" lon="-78.783180">
        <ele>3196.00</ele>
        <time>2018-09-08T21:05:28Z</time>
      </trkpt>
      <trkpt lat="-2.568620" lon="-78.783226">
        <ele>3195.00</ele>
        <time>2018-09-08T21:05:29Z</time>
      </trkpt>
      <trkpt lat="-2.568695" lon="-78.783279">
        <ele>3195.00</ele>
        <time>2018-09-08T21:05:30Z</time>
      </trkpt>
      <trkpt lat="-2.568767" lon="-78.783333">
        <ele>3194.00</ele>
        <time>2018-09-08T21:05:31Z</time>
      </trkpt>
      <trkpt lat="-2.568853" lon="-78.783340">
        <ele>3194.00</ele>
        <time>2018-09-08T21:05:32Z</time>
      </trkpt>
      <trkpt lat="-2.568915" lon="-78.783333">
        <ele>3194.00</ele>
        <time>2018-09-08T21:05:33Z</time>
      </trkpt>
      <trkpt lat="-2.568942" lon="-78.783340">
        <ele>3194.00</ele>
        <time>2018-09-08T21:05:34Z</time>
      </trkpt>
      <trkpt lat="-2.568952" lon="-78.783371">
        <ele>3194.00</ele>
        <time>2018-09-08T21:05:35Z</time>
      </trkpt>
      <trkpt lat="-2.568960" lon="-78.783379">
        <ele>3194.00</ele>
        <time>2018-09-08T21:05:36Z</time>
      </trkpt>
      <trkpt lat="-2.568970" lon="-78.783401">
        <ele>3193.00</ele>
        <time>2018-09-08T21:05:37Z</time>
      </trkpt>
      <trkpt lat="-2.568981" lon="-78.783447">
        <ele>3193.00</ele>
        <time>2018-09-08T21:05:38Z</time>
      </trkpt>
      <trkpt lat="-2.568990" lon="-78.783493">
        <ele>3193.00</ele>
        <time>2018-09-08T21:05:39Z</time>
      </trkpt>
      <trkpt lat="-2.569001" lon="-78.783531">
        <ele>3193.00</ele>
        <time>2018-09-08T21:05:40Z</time>
      </trkpt>
      <trkpt lat="-2.569009" lon="-78.783554">
        <ele>3193.00</ele>
        <time>2018-09-08T21:05:41Z</time>
      </trkpt>
      <trkpt lat="-2.569014" lon="-78.783585">
        <ele>3193.00</ele>
        <time>2018-09-08T21:05:42Z</time>
      </trkpt>
      <trkpt lat="-2.569019" lon="-78.783600">
        <ele>3193.00</ele>
        <time>2018-09-08T21:05:43Z</time>
      </trkpt>
      <trkpt lat="-2.569026" lon="-78.783615">
        <ele>3193.00</ele>
        <time>2018-09-08T21:05:44Z</time>
      </trkpt>
      <trkpt lat="-2.569036" lon="-78.783646">
        <ele>3193.00</ele>
        <time>2018-09-08T21:05:45Z</time>
      </trkpt>
      <trkpt lat="-2.569044" lon="-78.783669">
        <ele>3193.00</ele>
        <time>2018-09-08T21:05:46Z</time>
      </trkpt>
      <trkpt lat="-2.569050" lon="-78.783699">
        <ele>3193.00</ele>
        <time>2018-09-08T21:05:47Z</time>
      </trkpt>
      <trkpt lat="-2.569060" lon="-78.783722">
        <ele>3193.00</ele>
        <time>2018-09-08T21:05:48Z</time>
      </trkpt>
      <trkpt lat="-2.569073" lon="-78.783752">
        <ele>3193.00</ele>
        <time>2018-09-08T21:05:49Z</time>
      </trkpt>
      <trkpt lat="-2.569099" lon="-78.783806">
        <ele>3193.00</ele>
        <time>2018-09-08T21:05:50Z</time>
      </trkpt>
      <trkpt lat="-2.569145" lon="-78.783852">
        <ele>3193.00</ele>
        <time>2018-09-08T21:05:51Z</time>
      </trkpt>
      <trkpt lat="-2.569188" lon="-78.783882">
        <ele>3193.00</ele>
        <time>2018-09-08T21:05:52Z</time>
      </trkpt>
      <trkpt lat="-2.569232" lon="-78.783920">
        <ele>3193.00</ele>
        <time>2018-09-08T21:05:53Z</time>
      </trkpt>
      <trkpt lat="-2.569278" lon="-78.783943">
        <ele>3193.00</ele>
        <time>2018-09-08T21:05:54Z</time>
      </trkpt>
      <trkpt lat="-2.569326" lon="-78.783981">
        <ele>3193.00</ele>
        <time>2018-09-08T21:05:55Z</time>
      </trkpt>
      <trkpt lat="-2.569378" lon="-78.784012">
        <ele>3192.00</ele>
        <time>2018-09-08T21:05:56Z</time>
      </trkpt>
      <trkpt lat="-2.569433" lon="-78.784042">
        <ele>3192.00</ele>
        <time>2018-09-08T21:05:57Z</time>
      </trkpt>
      <trkpt lat="-2.569488" lon="-78.784073">
        <ele>3192.00</ele>
        <time>2018-09-08T21:05:58Z</time>
      </trkpt>
      <trkpt lat="-2.569540" lon="-78.784096">
        <ele>3192.00</ele>
        <time>2018-09-08T21:05:59Z</time>
      </trkpt>
      <trkpt lat="-2.569585" lon="-78.784126">
        <ele>3192.00</ele>
        <time>2018-09-08T21:06:00Z</time>
      </trkpt>
      <trkpt lat="-2.569628" lon="-78.784149">
        <ele>3192.00</ele>
        <time>2018-09-08T21:06:01Z</time>
      </trkpt>
      <trkpt lat="-2.569669" lon="-78.784187">
        <ele>3192.00</ele>
        <time>2018-09-08T21:06:02Z</time>
      </trkpt>
      <trkpt lat="-2.569705" lon="-78.784225">
        <ele>3192.00</ele>
        <time>2018-09-08T21:06:03Z</time>
      </trkpt>
      <trkpt lat="-2.569746" lon="-78.784248">
        <ele>3192.00</ele>
        <time>2018-09-08T21:06:04Z</time>
      </trkpt>
      <trkpt lat="-2.569793" lon="-78.784256">
        <ele>3192.00</ele>
        <time>2018-09-08T21:06:05Z</time>
      </trkpt>
      <trkpt lat="-2.569844" lon="-78.784279">
        <ele>3192.00</ele>
        <time>2018-09-08T21:06:06Z</time>
      </trkpt>
      <trkpt lat="-2.569896" lon="-78.784279">
        <ele>3192.00</ele>
        <time>2018-09-08T21:06:07Z</time>
      </trkpt>
      <trkpt lat="-2.569950" lon="-78.784279">
        <ele>3192.00</ele>
        <time>2018-09-08T21:06:08Z</time>
      </trkpt>
      <trkpt lat="-2.570001" lon="-78.784264">
        <ele>3192.00</ele>
        <time>2018-09-08T21:06:09Z</time>
      </trkpt>
      <trkpt lat="-2.570050" lon="-78.784256">
        <ele>3192.00</ele>
        <time>2018-09-08T21:06:10Z</time>
      </trkpt>
      <trkpt lat="-2.570107" lon="-78.784241">
        <ele>3192.00</ele>
        <time>2018-09-08T21:06:11Z</time>
      </trkpt>
      <trkpt lat="-2.570166" lon="-78.784233">
        <ele>3192.00</ele>
        <time>2018-09-08T21:06:12Z</time>
      </trkpt>
      <trkpt lat="-2.570220" lon="-78.784233">
        <ele>3191.00</ele>
        <time>2018-09-08T21:06:13Z</time>
      </trkpt>
      <trkpt lat="-2.570264" lon="-78.784241">
        <ele>3191.00</ele>
        <time>2018-09-08T21:06:14Z</time>
      </trkpt>
      <trkpt lat="-2.570310" lon="-78.784256">
        <ele>3191.00</ele>
        <time>2018-09-08T21:06:15Z</time>
      </trkpt>
      <trkpt lat="-2.570359" lon="-78.784279">
        <ele>3191.00</ele>
        <time>2018-09-08T21:06:16Z</time>
      </trkpt>
      <trkpt lat="-2.570400" lon="-78.784302">
        <ele>3191.00</ele>
        <time>2018-09-08T21:06:17Z</time>
      </trkpt>
      <trkpt lat="-2.570442" lon="-78.784332">
        <ele>3190.00</ele>
        <time>2018-09-08T21:06:18Z</time>
      </trkpt>
      <trkpt lat="-2.570496" lon="-78.784348">
        <ele>3190.00</ele>
        <time>2018-09-08T21:06:19Z</time>
      </trkpt>
      <trkpt lat="-2.570559" lon="-78.784355">
        <ele>3190.00</ele>
        <time>2018-09-08T21:06:20Z</time>
      </trkpt>
      <trkpt lat="-2.570626" lon="-78.784370">
        <ele>3190.00</ele>
        <time>2018-09-08T21:06:21Z</time>
      </trkpt>
      <trkpt lat="-2.570696" lon="-78.784386">
        <ele>3189.00</ele>
        <time>2018-09-08T21:06:22Z</time>
      </trkpt>
      <trkpt lat="-2.570765" lon="-78.784386">
        <ele>3189.00</ele>
        <time>2018-09-08T21:06:23Z</time>
      </trkpt>
      <trkpt lat="-2.570829" lon="-78.784409">
        <ele>3189.00</ele>
        <time>2018-09-08T21:06:24Z</time>
      </trkpt>
      <trkpt lat="-2.570892" lon="-78.784439">
        <ele>3188.00</ele>
        <time>2018-09-08T21:06:25Z</time>
      </trkpt>
      <trkpt lat="-2.570949" lon="-78.784477">
        <ele>3188.00</ele>
        <time>2018-09-08T21:06:26Z</time>
      </trkpt>
      <trkpt lat="-2.571007" lon="-78.784554">
        <ele>3187.00</ele>
        <time>2018-09-08T21:06:27Z</time>
      </trkpt>
      <trkpt lat="-2.571061" lon="-78.784615">
        <ele>3186.00</ele>
        <time>2018-09-08T21:06:28Z</time>
      </trkpt>
      <trkpt lat="-2.571112" lon="-78.784668">
        <ele>3186.00</ele>
        <time>2018-09-08T21:06:29Z</time>
      </trkpt>
      <trkpt lat="-2.571162" lon="-78.784698">
        <ele>3185.00</ele>
        <time>2018-09-08T21:06:30Z</time>
      </trkpt>
      <trkpt lat="-2.571213" lon="-78.784729">
        <ele>3185.00</ele>
        <time>2018-09-08T21:06:31Z</time>
      </trkpt>
      <trkpt lat="-2.571256" lon="-78.784737">
        <ele>3185.00</ele>
        <time>2018-09-08T21:06:32Z</time>
      </trkpt>
      <trkpt lat="-2.571283" lon="-78.784752">
        <ele>3184.00</ele>
        <time>2018-09-08T21:06:33Z</time>
      </trkpt>
      <trkpt lat="-2.571283" lon="-78.784752">
        <ele>3184.00</ele>
        <time>2018-09-08T21:06:34Z</time>
      </trkpt>
      <trkpt lat="-2.571283" lon="-78.784752">
        <ele>3184.00</ele>
        <time>2018-09-08T21:06:35Z</time>
      </trkpt>
      <trkpt lat="-2.571301" lon="-78.784782">
        <ele>3184.00</ele>
        <time>2018-09-08T21:06:36Z</time>
      </trkpt>
      <trkpt lat="-2.571301" lon="-78.784782">
        <ele>3184.00</ele>
        <time>2018-09-08T21:06:37Z</time>
      </trkpt>
      <trkpt lat="-2.571318" lon="-78.784790">
        <ele>3184.00</ele>
        <time>2018-09-08T21:06:38Z</time>
      </trkpt>
      <trkpt lat="-2.571323" lon="-78.784790">
        <ele>3184.00</ele>
        <time>2018-09-08T21:06:39Z</time>
      </trkpt>
      <trkpt lat="-2.571337" lon="-78.784805">
        <ele>3184.00</ele>
        <time>2018-09-08T21:06:40Z</time>
      </trkpt>
      <trkpt lat="-2.571359" lon="-78.784828">
        <ele>3184.00</ele>
        <time>2018-09-08T21:06:41Z</time>
      </trkpt>
      <trkpt lat="-2.571396" lon="-78.784843">
        <ele>3183.00</ele>
        <time>2018-09-08T21:06:42Z</time>
      </trkpt>
      <trkpt lat="-2.571446" lon="-78.784874">
        <ele>3183.00</ele>
        <time>2018-09-08T21:06:43Z</time>
      </trkpt>
      <trkpt lat="-2.571499" lon="-78.784889">
        <ele>3182.00</ele>
        <time>2018-09-08T21:06:44Z</time>
      </trkpt>
      <trkpt lat="-2.571540" lon="-78.784904">
        <ele>3182.00</ele>
        <time>2018-09-08T21:06:45Z</time>
      </trkpt>
      <trkpt lat="-2.571568" lon="-78.784912">
        <ele>3182.00</ele>
        <time>2018-09-08T21:06:46Z</time>
      </trkpt>
      <trkpt lat="-2.571568" lon="-78.784912">
        <ele>3182.00</ele>
        <time>2018-09-08T21:06:47Z</time>
      </trkpt>
      <trkpt lat="-2.571568" lon="-78.784912">
        <ele>3182.00</ele>
        <time>2018-09-08T21:06:48Z</time>
      </trkpt>
      <trkpt lat="-2.571568" lon="-78.784912">
        <ele>3182.00</ele>
        <time>2018-09-08T21:06:49Z</time>
      </trkpt>
      <trkpt lat="-2.571568" lon="-78.784912">
        <ele>3182.00</ele>
        <time>2018-09-08T21:06:50Z</time>
      </trkpt>
      <trkpt lat="-2.571588" lon="-78.784912">
        <ele>3182.00</ele>
        <time>2018-09-08T21:06:51Z</time>
      </trkpt>
      <trkpt lat="-2.571588" lon="-78.784912">
        <ele>3182.00</ele>
        <time>2018-09-08T21:06:52Z</time>
      </trkpt>
      <trkpt lat="-2.571588" lon="-78.784912">
        <ele>3182.00</ele>
        <time>2018-09-08T21:06:53Z</time>
      </trkpt>
      <trkpt lat="-2.571588" lon="-78.784912">
        <ele>3182.00</ele>
        <time>2018-09-08T21:06:54Z</time>
      </trkpt>
      <trkpt lat="-2.571588" lon="-78.784912">
        <ele>3182.00</ele>
        <time>2018-09-08T21:06:55Z</time>
      </trkpt>
      <trkpt lat="-2.571588" lon="-78.784912">
        <ele>3181.00</ele>
        <time>2018-09-08T21:06:56Z</time>
      </trkpt>
      <trkpt lat="-2.571588" lon="-78.784912">
        <ele>3181.00</ele>
        <time>2018-09-08T21:06:57Z</time>
      </trkpt>
      <trkpt lat="-2.571588" lon="-78.784912">
        <ele>3181.00</ele>
        <time>2018-09-08T21:06:58Z</time>
      </trkpt>
      <trkpt lat="-2.571588" lon="-78.784912">
        <ele>3181.00</ele>
        <time>2018-09-08T21:06:59Z</time>
      </trkpt>
      <trkpt lat="-2.571588" lon="-78.784912">
        <ele>3181.00</ele>
        <time>2018-09-08T21:07:00Z</time>
      </trkpt>
      <trkpt lat="-2.571588" lon="-78.784912">
        <ele>3181.00</ele>
        <time>2018-09-08T21:07:01Z</time>
      </trkpt>
      <trkpt lat="-2.571588" lon="-78.784912">
        <ele>3181.00</ele>
        <time>2018-09-08T21:07:02Z</time>
      </trkpt>
      <trkpt lat="-2.571588" lon="-78.784912">
        <ele>3181.00</ele>
        <time>2018-09-08T21:07:03Z</time>
      </trkpt>
      <trkpt lat="-2.571588" lon="-78.784912">
        <ele>3181.00</ele>
        <time>2018-09-08T21:07:04Z</time>
      </trkpt>
      <trkpt lat="-2.571588" lon="-78.784912">
        <ele>3181.00</ele>
        <time>2018-09-08T21:07:05Z</time>
      </trkpt>
      <trkpt lat="-2.571588" lon="-78.784912">
        <ele>3181.00</ele>
        <time>2018-09-08T21:07:06Z</time>
      </trkpt>
      <trkpt lat="-2.571588" lon="-78.784912">
        <ele>3181.00</ele>
        <time>2018-09-08T21:07:07Z</time>
      </trkpt>
      <trkpt lat="-2.571588" lon="-78.784912">
        <ele>3181.00</ele>
        <time>2018-09-08T21:07:08Z</time>
      </trkpt>
      <trkpt lat="-2.571569" lon="-78.784943">
        <ele>3181.00</ele>
        <time>2018-09-08T21:07:09Z</time>
      </trkpt>
      <trkpt lat="-2.571548" lon="-78.784958">
        <ele>3181.00</ele>
        <time>2018-09-08T21:07:10Z</time>
      </trkpt>
      <trkpt lat="-2.571515" lon="-78.784966">
        <ele>3180.00</ele>
        <time>2018-09-08T21:07:11Z</time>
      </trkpt>
      <trkpt lat="-2.571465" lon="-78.784996">
        <ele>3179.00</ele>
        <time>2018-09-08T21:07:12Z</time>
      </trkpt>
      <trkpt lat="-2.571403" lon="-78.785034">
        <ele>3178.00</ele>
        <time>2018-09-08T21:07:13Z</time>
      </trkpt>
      <trkpt lat="-2.571341" lon="-78.785057">
        <ele>3177.00</ele>
        <time>2018-09-08T21:07:14Z</time>
      </trkpt>
      <trkpt lat="-2.571276" lon="-78.785095">
        <ele>3177.00</ele>
        <time>2018-09-08T21:07:15Z</time>
      </trkpt>
      <trkpt lat="-2.571208" lon="-78.785126">
        <ele>3176.00</ele>
        <time>2018-09-08T21:07:16Z</time>
      </trkpt>
      <trkpt lat="-2.571140" lon="-78.785172">
        <ele>3175.00</ele>
        <time>2018-09-08T21:07:17Z</time>
      </trkpt>
      <trkpt lat="-2.571074" lon="-78.785217">
        <ele>3174.00</ele>
        <time>2018-09-08T21:07:18Z</time>
      </trkpt>
      <trkpt lat="-2.571009" lon="-78.785255">
        <ele>3174.00</ele>
        <time>2018-09-08T21:07:19Z</time>
      </trkpt>
      <trkpt lat="-2.570942" lon="-78.785278">
        <ele>3173.00</ele>
        <time>2018-09-08T21:07:20Z</time>
      </trkpt>
      <trkpt lat="-2.570878" lon="-78.785316">
        <ele>3173.00</ele>
        <time>2018-09-08T21:07:21Z</time>
      </trkpt>
      <trkpt lat="-2.570819" lon="-78.785362">
        <ele>3172.00</ele>
        <time>2018-09-08T21:07:22Z</time>
      </trkpt>
      <trkpt lat="-2.570763" lon="-78.785385">
        <ele>3172.00</ele>
        <time>2018-09-08T21:07:23Z</time>
      </trkpt>
      <trkpt lat="-2.570708" lon="-78.785423">
        <ele>3172.00</ele>
        <time>2018-09-08T21:07:24Z</time>
      </trkpt>
      <trkpt lat="-2.570653" lon="-78.785461">
        <ele>3171.00</ele>
        <time>2018-09-08T21:07:25Z</time>
      </trkpt>
      <trkpt lat="-2.570597" lon="-78.785484">
        <ele>3171.00</ele>
        <time>2018-09-08T21:07:26Z</time>
      </trkpt>
      <trkpt lat="-2.570533" lon="-78.785522">
        <ele>3171.00</ele>
        <time>2018-09-08T21:07:27Z</time>
      </trkpt>
      <trkpt lat="-2.570465" lon="-78.785568">
        <ele>3171.00</ele>
        <time>2018-09-08T21:07:28Z</time>
      </trkpt>
      <trkpt lat="-2.570400" lon="-78.785606">
        <ele>3171.00</ele>
        <time>2018-09-08T21:07:29Z</time>
      </trkpt>
      <trkpt lat="-2.570330" lon="-78.785645">
        <ele>3170.00</ele>
        <time>2018-09-08T21:07:30Z</time>
      </trkpt>
      <trkpt lat="-2.570251" lon="-78.785690">
        <ele>3170.00</ele>
        <time>2018-09-08T21:07:31Z</time>
      </trkpt>
      <trkpt lat="-2.570174" lon="-78.785721">
        <ele>3170.00</ele>
        <time>2018-09-08T21:07:32Z</time>
      </trkpt>
      <trkpt lat="-2.570097" lon="-78.785759">
        <ele>3169.00</ele>
        <time>2018-09-08T21:07:33Z</time>
      </trkpt>
      <trkpt lat="-2.570021" lon="-78.785812">
        <ele>3169.00</ele>
        <time>2018-09-08T21:07:34Z</time>
      </trkpt>
      <trkpt lat="-2.569944" lon="-78.785858">
        <ele>3169.00</ele>
        <time>2018-09-08T21:07:35Z</time>
      </trkpt>
      <trkpt lat="-2.569863" lon="-78.785904">
        <ele>3168.00</ele>
        <time>2018-09-08T21:07:36Z</time>
      </trkpt>
      <trkpt lat="-2.569781" lon="-78.785950">
        <ele>3168.00</ele>
        <time>2018-09-08T21:07:37Z</time>
      </trkpt>
      <trkpt lat="-2.569704" lon="-78.785988">
        <ele>3168.00</ele>
        <time>2018-09-08T21:07:38Z</time>
      </trkpt>
      <trkpt lat="-2.569627" lon="-78.786034">
        <ele>3168.00</ele>
        <time>2018-09-08T21:07:39Z</time>
      </trkpt>
      <trkpt lat="-2.569551" lon="-78.786079">
        <ele>3167.00</ele>
        <time>2018-09-08T21:07:40Z</time>
      </trkpt>
      <trkpt lat="-2.569478" lon="-78.786118">
        <ele>3167.00</ele>
        <time>2018-09-08T21:07:41Z</time>
      </trkpt>
      <trkpt lat="-2.569407" lon="-78.786163">
        <ele>3167.00</ele>
        <time>2018-09-08T21:07:42Z</time>
      </trkpt>
      <trkpt lat="-2.569340" lon="-78.786194">
        <ele>3167.00</ele>
        <time>2018-09-08T21:07:43Z</time>
      </trkpt>
      <trkpt lat="-2.569277" lon="-78.786232">
        <ele>3166.00</ele>
        <time>2018-09-08T21:07:44Z</time>
      </trkpt>
      <trkpt lat="-2.569212" lon="-78.786255">
        <ele>3166.00</ele>
        <time>2018-09-08T21:07:45Z</time>
      </trkpt>
      <trkpt lat="-2.569153" lon="-78.786301">
        <ele>3165.00</ele>
        <time>2018-09-08T21:07:46Z</time>
      </trkpt>
      <trkpt lat="-2.569094" lon="-78.786339">
        <ele>3165.00</ele>
        <time>2018-09-08T21:07:47Z</time>
      </trkpt>
      <trkpt lat="-2.569039" lon="-78.786362">
        <ele>3165.00</ele>
        <time>2018-09-08T21:07:48Z</time>
      </trkpt>
      <trkpt lat="-2.568992" lon="-78.786400">
        <ele>3164.00</ele>
        <time>2018-09-08T21:07:49Z</time>
      </trkpt>
      <trkpt lat="-2.568958" lon="-78.786430">
        <ele>3164.00</ele>
        <time>2018-09-08T21:07:50Z</time>
      </trkpt>
      <trkpt lat="-2.568934" lon="-78.786461">
        <ele>3164.00</ele>
        <time>2018-09-08T21:07:51Z</time>
      </trkpt>
      <trkpt lat="-2.568911" lon="-78.786491">
        <ele>3164.00</ele>
        <time>2018-09-08T21:07:52Z</time>
      </trkpt>
      <trkpt lat="-2.568887" lon="-78.786514">
        <ele>3164.00</ele>
        <time>2018-09-08T21:07:53Z</time>
      </trkpt>
      <trkpt lat="-2.568864" lon="-78.786545">
        <ele>3164.00</ele>
        <time>2018-09-08T21:07:54Z</time>
      </trkpt>
      <trkpt lat="-2.568842" lon="-78.786568">
        <ele>3164.00</ele>
        <time>2018-09-08T21:07:55Z</time>
      </trkpt>
      <trkpt lat="-2.568822" lon="-78.786598">
        <ele>3164.00</ele>
        <time>2018-09-08T21:07:56Z</time>
      </trkpt>
      <trkpt lat="-2.568805" lon="-78.786613">
        <ele>3164.00</ele>
        <time>2018-09-08T21:07:57Z</time>
      </trkpt>
      <trkpt lat="-2.568790" lon="-78.786636">
        <ele>3164.00</ele>
        <time>2018-09-08T21:07:58Z</time>
      </trkpt>
      <trkpt lat="-2.568776" lon="-78.786652">
        <ele>3164.00</ele>
        <time>2018-09-08T21:07:59Z</time>
      </trkpt>
      <trkpt lat="-2.568768" lon="-78.786659">
        <ele>3164.00</ele>
        <time>2018-09-08T21:08:00Z</time>
      </trkpt>
      <trkpt lat="-2.568768" lon="-78.786659">
        <ele>3164.00</ele>
        <time>2018-09-08T21:08:01Z</time>
      </trkpt>
      <trkpt lat="-2.568768" lon="-78.786659">
        <ele>3164.00</ele>
        <time>2018-09-08T21:08:02Z</time>
      </trkpt>
      <trkpt lat="-2.568768" lon="-78.786659">
        <ele>3164.00</ele>
        <time>2018-09-08T21:08:03Z</time>
      </trkpt>
      <trkpt lat="-2.568750" lon="-78.786682">
        <ele>3164.00</ele>
        <time>2018-09-08T21:08:04Z</time>
      </trkpt>
      <trkpt lat="-2.568738" lon="-78.786690">
        <ele>3164.00</ele>
        <time>2018-09-08T21:08:05Z</time>
      </trkpt>
      <trkpt lat="-2.568723" lon="-78.786705">
        <ele>3164.00</ele>
        <time>2018-09-08T21:08:06Z</time>
      </trkpt>
      <trkpt lat="-2.568711" lon="-78.786705">
        <ele>3164.00</ele>
        <time>2018-09-08T21:08:07Z</time>
      </trkpt>
      <trkpt lat="-2.568701" lon="-78.786705">
        <ele>3164.00</ele>
        <time>2018-09-08T21:08:08Z</time>
      </trkpt>
      <trkpt lat="-2.568701" lon="-78.786705">
        <ele>3164.00</ele>
        <time>2018-09-08T21:08:09Z</time>
      </trkpt>
      <trkpt lat="-2.568701" lon="-78.786705">
        <ele>3164.00</ele>
        <time>2018-09-08T21:08:10Z</time>
      </trkpt>
      <trkpt lat="-2.568701" lon="-78.786705">
        <ele>3164.00</ele>
        <time>2018-09-08T21:08:11Z</time>
      </trkpt>
      <trkpt lat="-2.568701" lon="-78.786705">
        <ele>3164.00</ele>
        <time>2018-09-08T21:08:12Z</time>
      </trkpt>
      <trkpt lat="-2.568701" lon="-78.786705">
        <ele>3164.00</ele>
        <time>2018-09-08T21:08:13Z</time>
      </trkpt>
      <trkpt lat="-2.568701" lon="-78.786705">
        <ele>3164.00</ele>
        <time>2018-09-08T21:08:14Z</time>
      </trkpt>
      <trkpt lat="-2.568701" lon="-78.786705">
        <ele>3164.00</ele>
        <time>2018-09-08T21:08:15Z</time>
      </trkpt>
      <trkpt lat="-2.568701" lon="-78.786705">
        <ele>3164.00</ele>
        <time>2018-09-08T21:08:16Z</time>
      </trkpt>
      <trkpt lat="-2.568701" lon="-78.786705">
        <ele>3164.00</ele>
        <time>2018-09-08T21:08:17Z</time>
      </trkpt>
      <trkpt lat="-2.568701" lon="-78.786705">
        <ele>3164.00</ele>
        <time>2018-09-08T21:08:18Z</time>
      </trkpt>
      <trkpt lat="-2.568701" lon="-78.786705">
        <ele>3164.00</ele>
        <time>2018-09-08T21:08:19Z</time>
      </trkpt>
      <trkpt lat="-2.568701" lon="-78.786705">
        <ele>3164.00</ele>
        <time>2018-09-08T21:08:20Z</time>
      </trkpt>
      <trkpt lat="-2.568701" lon="-78.786705">
        <ele>3164.00</ele>
        <time>2018-09-08T21:08:21Z</time>
      </trkpt>
      <trkpt lat="-2.568701" lon="-78.786705">
        <ele>3164.00</ele>
        <time>2018-09-08T21:08:22Z</time>
      </trkpt>
      <trkpt lat="-2.568701" lon="-78.786705">
        <ele>3164.00</ele>
        <time>2018-09-08T21:08:23Z</time>
      </trkpt>
      <trkpt lat="-2.568701" lon="-78.786705">
        <ele>3164.00</ele>
        <time>2018-09-08T21:08:24Z</time>
      </trkpt>
      <trkpt lat="-2.568701" lon="-78.786705">
        <ele>3164.00</ele>
        <time>2018-09-08T21:08:25Z</time>
      </trkpt>
      <trkpt lat="-2.568701" lon="-78.786705">
        <ele>3164.00</ele>
        <time>2018-09-08T21:08:26Z</time>
      </trkpt>
      <trkpt lat="-2.568701" lon="-78.786705">
        <ele>3164.00</ele>
        <time>2018-09-08T21:08:27Z</time>
      </trkpt>
      <trkpt lat="-2.568701" lon="-78.786705">
        <ele>3164.00</ele>
        <time>2018-09-08T21:08:28Z</time>
      </trkpt>
      <trkpt lat="-2.568701" lon="-78.786705">
        <ele>3164.00</ele>
        <time>2018-09-08T21:08:29Z</time>
      </trkpt>
      <trkpt lat="-2.568701" lon="-78.786705">
        <ele>3164.00</ele>
        <time>2018-09-08T21:08:30Z</time>
      </trkpt>
      <trkpt lat="-2.568701" lon="-78.786705">
        <ele>3164.00</ele>
        <time>2018-09-08T21:08:31Z</time>
      </trkpt>
      <trkpt lat="-2.568701" lon="-78.786705">
        <ele>3163.00</ele>
        <time>2018-09-08T21:08:32Z</time>
      </trkpt>
      <trkpt lat="-2.568738" lon="-78.786674">
        <ele>3163.00</ele>
        <time>2018-09-08T21:08:33Z</time>
      </trkpt>
      <trkpt lat="-2.568750" lon="-78.786659">
        <ele>3163.00</ele>
        <time>2018-09-08T21:08:34Z</time>
      </trkpt>
      <trkpt lat="-2.568750" lon="-78.786659">
        <ele>3163.00</ele>
        <time>2018-09-08T21:08:35Z</time>
      </trkpt>
      <trkpt lat="-2.568750" lon="-78.786659">
        <ele>3163.00</ele>
        <time>2018-09-08T21:08:36Z</time>
      </trkpt>
      <trkpt lat="-2.568750" lon="-78.786659">
        <ele>3163.00</ele>
        <time>2018-09-08T21:08:37Z</time>
      </trkpt>
      <trkpt lat="-2.568750" lon="-78.786659">
        <ele>3163.00</ele>
        <time>2018-09-08T21:08:38Z</time>
      </trkpt>
      <trkpt lat="-2.568750" lon="-78.786659">
        <ele>3163.00</ele>
        <time>2018-09-08T21:08:39Z</time>
      </trkpt>
      <trkpt lat="-2.568750" lon="-78.786659">
        <ele>3163.00</ele>
        <time>2018-09-08T21:08:40Z</time>
      </trkpt>
      <trkpt lat="-2.568750" lon="-78.786659">
        <ele>3163.00</ele>
        <time>2018-09-08T21:08:41Z</time>
      </trkpt>
      <trkpt lat="-2.568750" lon="-78.786659">
        <ele>3163.00</ele>
        <time>2018-09-08T21:08:42Z</time>
      </trkpt>
      <trkpt lat="-2.568750" lon="-78.786659">
        <ele>3163.00</ele>
        <time>2018-09-08T21:08:43Z</time>
      </trkpt>
      <trkpt lat="-2.568750" lon="-78.786659">
        <ele>3163.00</ele>
        <time>2018-09-08T21:08:44Z</time>
      </trkpt>
      <trkpt lat="-2.568750" lon="-78.786659">
        <ele>3163.00</ele>
        <time>2018-09-08T21:08:45Z</time>
      </trkpt>
      <trkpt lat="-2.568779" lon="-78.786621">
        <ele>3163.00</ele>
        <time>2018-09-08T21:08:46Z</time>
      </trkpt>
      <trkpt lat="-2.568779" lon="-78.786621">
        <ele>3163.00</ele>
        <time>2018-09-08T21:08:47Z</time>
      </trkpt>
      <trkpt lat="-2.568787" lon="-78.786613">
        <ele>3163.00</ele>
        <time>2018-09-08T21:08:48Z</time>
      </trkpt>
      <trkpt lat="-2.568803" lon="-78.786606">
        <ele>3163.00</ele>
        <time>2018-09-08T21:08:49Z</time>
      </trkpt>
      <trkpt lat="-2.568826" lon="-78.786575">
        <ele>3163.00</ele>
        <time>2018-09-08T21:08:50Z</time>
      </trkpt>
      <trkpt lat="-2.568849" lon="-78.786545">
        <ele>3163.00</ele>
        <time>2018-09-08T21:08:51Z</time>
      </trkpt>
      <trkpt lat="-2.568874" lon="-78.786507">
        <ele>3163.00</ele>
        <time>2018-09-08T21:08:52Z</time>
      </trkpt>
      <trkpt lat="-2.568903" lon="-78.786484">
        <ele>3163.00</ele>
        <time>2018-09-08T21:08:53Z</time>
      </trkpt>
      <trkpt lat="-2.568924" lon="-78.786453">
        <ele>3163.00</ele>
        <time>2018-09-08T21:08:54Z</time>
      </trkpt>
      <trkpt lat="-2.568941" lon="-78.786430">
        <ele>3163.00</ele>
        <time>2018-09-08T21:08:55Z</time>
      </trkpt>
      <trkpt lat="-2.568950" lon="-78.786400">
        <ele>3163.00</ele>
        <time>2018-09-08T21:08:56Z</time>
      </trkpt>
      <trkpt lat="-2.568947" lon="-78.786362">
        <ele>3162.00</ele>
        <time>2018-09-08T21:08:57Z</time>
      </trkpt>
      <trkpt lat="-2.568940" lon="-78.786308">
        <ele>3162.00</ele>
        <time>2018-09-08T21:08:58Z</time>
      </trkpt>
      <trkpt lat="-2.568918" lon="-78.786240">
        <ele>3162.00</ele>
        <time>2018-09-08T21:08:59Z</time>
      </trkpt>
      <trkpt lat="-2.568889" lon="-78.786148">
        <ele>3162.00</ele>
        <time>2018-09-08T21:09:00Z</time>
      </trkpt>
      <trkpt lat="-2.568856" lon="-78.786057">
        <ele>3162.00</ele>
        <time>2018-09-08T21:09:01Z</time>
      </trkpt>
      <trkpt lat="-2.568828" lon="-78.785950">
        <ele>3161.00</ele>
        <time>2018-09-08T21:09:02Z</time>
      </trkpt>
      <trkpt lat="-2.568799" lon="-78.785843">
        <ele>3161.00</ele>
        <time>2018-09-08T21:09:03Z</time>
      </trkpt>
      <trkpt lat="-2.568772" lon="-78.785736">
        <ele>3161.00</ele>
        <time>2018-09-08T21:09:04Z</time>
      </trkpt>
      <trkpt lat="-2.568744" lon="-78.785637">
        <ele>3161.00</ele>
        <time>2018-09-08T21:09:05Z</time>
      </trkpt>
      <trkpt lat="-2.568725" lon="-78.785538">
        <ele>3162.00</ele>
        <time>2018-09-08T21:09:06Z</time>
      </trkpt>
      <trkpt lat="-2.568708" lon="-78.785446">
        <ele>3162.00</ele>
        <time>2018-09-08T21:09:07Z</time>
      </trkpt>
      <trkpt lat="-2.568692" lon="-78.785378">
        <ele>3162.00</ele>
        <time>2018-09-08T21:09:08Z</time>
      </trkpt>
      <trkpt lat="-2.568677" lon="-78.785316">
        <ele>3162.00</ele>
        <time>2018-09-08T21:09:09Z</time>
      </trkpt>
      <trkpt lat="-2.568666" lon="-78.785263">
        <ele>3162.00</ele>
        <time>2018-09-08T21:09:10Z</time>
      </trkpt>
      <trkpt lat="-2.568655" lon="-78.785217">
        <ele>3162.00</ele>
        <time>2018-09-08T21:09:11Z</time>
      </trkpt>
      <trkpt lat="-2.568650" lon="-78.785202">
        <ele>3162.00</ele>
        <time>2018-09-08T21:09:12Z</time>
      </trkpt>
      <trkpt lat="-2.568648" lon="-78.785194">
        <ele>3162.00</ele>
        <time>2018-09-08T21:09:13Z</time>
      </trkpt>
      <trkpt lat="-2.568648" lon="-78.785179">
        <ele>3162.00</ele>
        <time>2018-09-08T21:09:14Z</time>
      </trkpt>
      <trkpt lat="-2.568648" lon="-78.785172">
        <ele>3162.00</ele>
        <time>2018-09-08T21:09:15Z</time>
      </trkpt>
      <trkpt lat="-2.568646" lon="-78.785156">
        <ele>3162.00</ele>
        <time>2018-09-08T21:09:16Z</time>
      </trkpt>
      <trkpt lat="-2.568644" lon="-78.785141">
        <ele>3162.00</ele>
        <time>2018-09-08T21:09:17Z</time>
      </trkpt>
      <trkpt lat="-2.568639" lon="-78.785110">
        <ele>3162.00</ele>
        <time>2018-09-08T21:09:18Z</time>
      </trkpt>
      <trkpt lat="-2.568634" lon="-78.785072">
        <ele>3162.00</ele>
        <time>2018-09-08T21:09:19Z</time>
      </trkpt>
      <trkpt lat="-2.568629" lon="-78.785049">
        <ele>3163.00</ele>
        <time>2018-09-08T21:09:20Z</time>
      </trkpt>
      <trkpt lat="-2.568624" lon="-78.785034">
        <ele>3163.00</ele>
        <time>2018-09-08T21:09:21Z</time>
      </trkpt>
      <trkpt lat="-2.568623" lon="-78.785011">
        <ele>3163.00</ele>
        <time>2018-09-08T21:09:22Z</time>
      </trkpt>
      <trkpt lat="-2.568622" lon="-78.785004">
        <ele>3163.00</ele>
        <time>2018-09-08T21:09:23Z</time>
      </trkpt>
      <trkpt lat="-2.568622" lon="-78.785004">
        <ele>3163.00</ele>
        <time>2018-09-08T21:09:24Z</time>
      </trkpt>
      <trkpt lat="-2.568622" lon="-78.785004">
        <ele>3163.00</ele>
        <time>2018-09-08T21:09:25Z</time>
      </trkpt>
      <trkpt lat="-2.568622" lon="-78.785004">
        <ele>3163.00</ele>
        <time>2018-09-08T21:09:26Z</time>
      </trkpt>
      <trkpt lat="-2.568622" lon="-78.785004">
        <ele>3163.00</ele>
        <time>2018-09-08T21:09:27Z</time>
      </trkpt>
      <trkpt lat="-2.568622" lon="-78.785004">
        <ele>3163.00</ele>
        <time>2018-09-08T21:09:28Z</time>
      </trkpt>
      <trkpt lat="-2.568622" lon="-78.785004">
        <ele>3163.00</ele>
        <time>2018-09-08T21:09:29Z</time>
      </trkpt>
      <trkpt lat="-2.568614" lon="-78.784966">
        <ele>3163.00</ele>
        <time>2018-09-08T21:09:30Z</time>
      </trkpt>
      <trkpt lat="-2.568612" lon="-78.784950">
        <ele>3163.00</ele>
        <time>2018-09-08T21:09:31Z</time>
      </trkpt>
      <trkpt lat="-2.568609" lon="-78.784943">
        <ele>3163.00</ele>
        <time>2018-09-08T21:09:32Z</time>
      </trkpt>
      <trkpt lat="-2.568606" lon="-78.784935">
        <ele>3163.00</ele>
        <time>2018-09-08T21:09:33Z</time>
      </trkpt>
      <trkpt lat="-2.568601" lon="-78.784927">
        <ele>3163.00</ele>
        <time>2018-09-08T21:09:34Z</time>
      </trkpt>
      <trkpt lat="-2.568595" lon="-78.784904">
        <ele>3163.00</ele>
        <time>2018-09-08T21:09:35Z</time>
      </trkpt>
      <trkpt lat="-2.568595" lon="-78.784904">
        <ele>3163.00</ele>
        <time>2018-09-08T21:09:36Z</time>
      </trkpt>
      <trkpt lat="-2.568595" lon="-78.784904">
        <ele>3163.00</ele>
        <time>2018-09-08T21:09:37Z</time>
      </trkpt>
      <trkpt lat="-2.568595" lon="-78.784904">
        <ele>3163.00</ele>
        <time>2018-09-08T21:09:38Z</time>
      </trkpt>
      <trkpt lat="-2.568595" lon="-78.784904">
        <ele>3163.00</ele>
        <time>2018-09-08T21:09:39Z</time>
      </trkpt>
      <trkpt lat="-2.568595" lon="-78.784904">
        <ele>3163.00</ele>
        <time>2018-09-08T21:09:40Z</time>
      </trkpt>
      <trkpt lat="-2.568595" lon="-78.784904">
        <ele>3163.00</ele>
        <time>2018-09-08T21:09:41Z</time>
      </trkpt>
      <trkpt lat="-2.568595" lon="-78.784904">
        <ele>3163.00</ele>
        <time>2018-09-08T21:09:42Z</time>
      </trkpt>
      <trkpt lat="-2.568595" lon="-78.784904">
        <ele>3163.00</ele>
        <time>2018-09-08T21:09:43Z</time>
      </trkpt>
      <trkpt lat="-2.568595" lon="-78.784904">
        <ele>3163.00</ele>
        <time>2018-09-08T21:09:44Z</time>
      </trkpt>
      <trkpt lat="-2.568595" lon="-78.784904">
        <ele>3163.00</ele>
        <time>2018-09-08T21:09:45Z</time>
      </trkpt>
      <trkpt lat="-2.568595" lon="-78.784904">
        <ele>3163.00</ele>
        <time>2018-09-08T21:09:46Z</time>
      </trkpt>
      <trkpt lat="-2.568595" lon="-78.784904">
        <ele>3163.00</ele>
        <time>2018-09-08T21:09:47Z</time>
      </trkpt>
      <trkpt lat="-2.568595" lon="-78.784904">
        <ele>3163.00</ele>
        <time>2018-09-08T21:09:48Z</time>
      </trkpt>
      <trkpt lat="-2.568595" lon="-78.784904">
        <ele>3163.00</ele>
        <time>2018-09-08T21:09:49Z</time>
      </trkpt>
      <trkpt lat="-2.568595" lon="-78.784904">
        <ele>3163.00</ele>
        <time>2018-09-08T21:09:50Z</time>
      </trkpt>
      <trkpt lat="-2.568595" lon="-78.784904">
        <ele>3163.00</ele>
        <time>2018-09-08T21:09:51Z</time>
      </trkpt>
      <trkpt lat="-2.568595" lon="-78.784904">
        <ele>3163.00</ele>
        <time>2018-09-08T21:09:52Z</time>
      </trkpt>
      <trkpt lat="-2.568595" lon="-78.784904">
        <ele>3163.00</ele>
        <time>2018-09-08T21:09:53Z</time>
      </trkpt>
      <trkpt lat="-2.568595" lon="-78.784904">
        <ele>3163.00</ele>
        <time>2018-09-08T21:09:54Z</time>
      </trkpt>
      <trkpt lat="-2.568595" lon="-78.784904">
        <ele>3163.00</ele>
        <time>2018-09-08T21:09:55Z</time>
      </trkpt>
      <trkpt lat="-2.568595" lon="-78.784904">
        <ele>3163.00</ele>
        <time>2018-09-08T21:09:56Z</time>
      </trkpt>
      <trkpt lat="-2.568595" lon="-78.784904">
        <ele>3163.00</ele>
        <time>2018-09-08T21:09:57Z</time>
      </trkpt>
      <trkpt lat="-2.568595" lon="-78.784904">
        <ele>3163.00</ele>
        <time>2018-09-08T21:09:58Z</time>
      </trkpt>
      <trkpt lat="-2.568595" lon="-78.784904">
        <ele>3163.00</ele>
        <time>2018-09-08T21:09:59Z</time>
      </trkpt>
      <trkpt lat="-2.568595" lon="-78.784904">
        <ele>3163.00</ele>
        <time>2018-09-08T21:10:00Z</time>
      </trkpt>
      <trkpt lat="-2.568595" lon="-78.784904">
        <ele>3163.00</ele>
        <time>2018-09-08T21:10:01Z</time>
      </trkpt>
      <trkpt lat="-2.568595" lon="-78.784904">
        <ele>3163.00</ele>
        <time>2018-09-08T21:10:02Z</time>
      </trkpt>
      <trkpt lat="-2.568595" lon="-78.784904">
        <ele>3163.00</ele>
        <time>2018-09-08T21:10:03Z</time>
      </trkpt>
      <trkpt lat="-2.568595" lon="-78.784904">
        <ele>3163.00</ele>
        <time>2018-09-08T21:10:04Z</time>
      </trkpt>
      <trkpt lat="-2.568595" lon="-78.784904">
        <ele>3163.00</ele>
        <time>2018-09-08T21:10:05Z</time>
      </trkpt>
      <trkpt lat="-2.568595" lon="-78.784904">
        <ele>3164.00</ele>
        <time>2018-09-08T21:10:06Z</time>
      </trkpt>
      <trkpt lat="-2.568595" lon="-78.784904">
        <ele>3164.00</ele>
        <time>2018-09-08T21:10:07Z</time>
      </trkpt>
      <trkpt lat="-2.568595" lon="-78.784904">
        <ele>3164.00</ele>
        <time>2018-09-08T21:10:08Z</time>
      </trkpt>
      <trkpt lat="-2.568595" lon="-78.784904">
        <ele>3164.00</ele>
        <time>2018-09-08T21:10:09Z</time>
      </trkpt>
      <trkpt lat="-2.568595" lon="-78.784904">
        <ele>3164.00</ele>
        <time>2018-09-08T21:10:10Z</time>
      </trkpt>
      <trkpt lat="-2.568595" lon="-78.784904">
        <ele>3164.00</ele>
        <time>2018-09-08T21:10:11Z</time>
      </trkpt>
      <trkpt lat="-2.568595" lon="-78.784904">
        <ele>3164.00</ele>
        <time>2018-09-08T21:10:12Z</time>
      </trkpt>
      <trkpt lat="-2.568595" lon="-78.784904">
        <ele>3164.00</ele>
        <time>2018-09-08T21:10:13Z</time>
      </trkpt>
      <trkpt lat="-2.568595" lon="-78.784904">
        <ele>3164.00</ele>
        <time>2018-09-08T21:10:14Z</time>
      </trkpt>
      <trkpt lat="-2.568595" lon="-78.784904">
        <ele>3164.00</ele>
        <time>2018-09-08T21:10:15Z</time>
      </trkpt>
      <trkpt lat="-2.568595" lon="-78.784904">
        <ele>3164.00</ele>
        <time>2018-09-08T21:10:16Z</time>
      </trkpt>
      <trkpt lat="-2.568595" lon="-78.784904">
        <ele>3164.00</ele>
        <time>2018-09-08T21:10:17Z</time>
      </trkpt>
      <trkpt lat="-2.568595" lon="-78.784904">
        <ele>3164.00</ele>
        <time>2018-09-08T21:10:18Z</time>
      </trkpt>
      <trkpt lat="-2.568595" lon="-78.784904">
        <ele>3164.00</ele>
        <time>2018-09-08T21:10:19Z</time>
      </trkpt>
      <trkpt lat="-2.568595" lon="-78.784904">
        <ele>3164.00</ele>
        <time>2018-09-08T21:10:20Z</time>
      </trkpt>
      <trkpt lat="-2.568595" lon="-78.784904">
        <ele>3164.00</ele>
        <time>2018-09-08T21:10:21Z</time>
      </trkpt>
      <trkpt lat="-2.568595" lon="-78.784904">
        <ele>3164.00</ele>
        <time>2018-09-08T21:10:22Z</time>
      </trkpt>
      <trkpt lat="-2.568595" lon="-78.784904">
        <ele>3164.00</ele>
        <time>2018-09-08T21:10:23Z</time>
      </trkpt>
      <trkpt lat="-2.568595" lon="-78.784904">
        <ele>3164.00</ele>
        <time>2018-09-08T21:10:24Z</time>
      </trkpt>
      <trkpt lat="-2.568595" lon="-78.784904">
        <ele>3164.00</ele>
        <time>2018-09-08T21:10:25Z</time>
      </trkpt>
      <trkpt lat="-2.568595" lon="-78.784904">
        <ele>3164.00</ele>
        <time>2018-09-08T21:10:26Z</time>
      </trkpt>
      <trkpt lat="-2.568595" lon="-78.784904">
        <ele>3164.00</ele>
        <time>2018-09-08T21:10:27Z</time>
      </trkpt>
      <trkpt lat="-2.568590" lon="-78.784859">
        <ele>3164.00</ele>
        <time>2018-09-08T21:10:28Z</time>
      </trkpt>
      <trkpt lat="-2.568590" lon="-78.784859">
        <ele>3164.00</ele>
        <time>2018-09-08T21:10:29Z</time>
      </trkpt>
      <trkpt lat="-2.568590" lon="-78.784859">
        <ele>3164.00</ele>
        <time>2018-09-08T21:10:30Z</time>
      </trkpt>
      <trkpt lat="-2.568590" lon="-78.784859">
        <ele>3164.00</ele>
        <time>2018-09-08T21:10:31Z</time>
      </trkpt>
      <trkpt lat="-2.568590" lon="-78.784859">
        <ele>3164.00</ele>
        <time>2018-09-08T21:10:32Z</time>
      </trkpt>
      <trkpt lat="-2.568590" lon="-78.784859">
        <ele>3164.00</ele>
        <time>2018-09-08T21:10:33Z</time>
      </trkpt>
      <trkpt lat="-2.568590" lon="-78.784859">
        <ele>3164.00</ele>
        <time>2018-09-08T21:10:34Z</time>
      </trkpt>
      <trkpt lat="-2.568590" lon="-78.784859">
        <ele>3164.00</ele>
        <time>2018-09-08T21:10:35Z</time>
      </trkpt>
      <trkpt lat="-2.568590" lon="-78.784859">
        <ele>3164.00</ele>
        <time>2018-09-08T21:10:36Z</time>
      </trkpt>
      <trkpt lat="-2.568590" lon="-78.784859">
        <ele>3164.00</ele>
        <time>2018-09-08T21:10:37Z</time>
      </trkpt>
      <trkpt lat="-2.568590" lon="-78.784859">
        <ele>3164.00</ele>
        <time>2018-09-08T21:10:38Z</time>
      </trkpt>
      <trkpt lat="-2.568590" lon="-78.784859">
        <ele>3164.00</ele>
        <time>2018-09-08T21:10:39Z</time>
      </trkpt>
      <trkpt lat="-2.568590" lon="-78.784859">
        <ele>3164.00</ele>
        <time>2018-09-08T21:10:40Z</time>
      </trkpt>
      <trkpt lat="-2.568590" lon="-78.784859">
        <ele>3164.00</ele>
        <time>2018-09-08T21:10:41Z</time>
      </trkpt>
      <trkpt lat="-2.568590" lon="-78.784859">
        <ele>3164.00</ele>
        <time>2018-09-08T21:10:42Z</time>
      </trkpt>
      <trkpt lat="-2.568590" lon="-78.784859">
        <ele>3164.00</ele>
        <time>2018-09-08T21:10:43Z</time>
      </trkpt>
      <trkpt lat="-2.568590" lon="-78.784859">
        <ele>3164.00</ele>
        <time>2018-09-08T21:10:44Z</time>
      </trkpt>
      <trkpt lat="-2.568590" lon="-78.784859">
        <ele>3164.00</ele>
        <time>2018-09-08T21:10:45Z</time>
      </trkpt>
      <trkpt lat="-2.568590" lon="-78.784859">
        <ele>3164.00</ele>
        <time>2018-09-08T21:10:46Z</time>
      </trkpt>
      <trkpt lat="-2.568590" lon="-78.784859">
        <ele>3164.00</ele>
        <time>2018-09-08T21:10:47Z</time>
      </trkpt>
      <trkpt lat="-2.568590" lon="-78.784859">
        <ele>3164.00</ele>
        <time>2018-09-08T21:10:48Z</time>
      </trkpt>
      <trkpt lat="-2.568590" lon="-78.784859">
        <ele>3164.00</ele>
        <time>2018-09-08T21:10:49Z</time>
      </trkpt>
      <trkpt lat="-2.568590" lon="-78.784859">
        <ele>3164.00</ele>
        <time>2018-09-08T21:10:50Z</time>
      </trkpt>
      <trkpt lat="-2.568590" lon="-78.784859">
        <ele>3164.00</ele>
        <time>2018-09-08T21:10:51Z</time>
      </trkpt>
      <trkpt lat="-2.568590" lon="-78.784859">
        <ele>3164.00</ele>
        <time>2018-09-08T21:10:52Z</time>
      </trkpt>
      <trkpt lat="-2.568590" lon="-78.784859">
        <ele>3164.00</ele>
        <time>2018-09-08T21:10:53Z</time>
      </trkpt>
      <trkpt lat="-2.568590" lon="-78.784859">
        <ele>3164.00</ele>
        <time>2018-09-08T21:10:54Z</time>
      </trkpt>
      <trkpt lat="-2.568590" lon="-78.784859">
        <ele>3164.00</ele>
        <time>2018-09-08T21:10:55Z</time>
      </trkpt>
      <trkpt lat="-2.568590" lon="-78.784859">
        <ele>3164.00</ele>
        <time>2018-09-08T21:10:56Z</time>
      </trkpt>
      <trkpt lat="-2.568590" lon="-78.784859">
        <ele>3164.00</ele>
        <time>2018-09-08T21:10:57Z</time>
      </trkpt>
      <trkpt lat="-2.568590" lon="-78.784859">
        <ele>3164.00</ele>
        <time>2018-09-08T21:10:58Z</time>
      </trkpt>
      <trkpt lat="-2.568590" lon="-78.784859">
        <ele>3164.00</ele>
        <time>2018-09-08T21:10:59Z</time>
      </trkpt>
      <trkpt lat="-2.568590" lon="-78.784859">
        <ele>3164.00</ele>
        <time>2018-09-08T21:11:00Z</time>
      </trkpt>
      <trkpt lat="-2.568590" lon="-78.784859">
        <ele>3164.00</ele>
        <time>2018-09-08T21:11:01Z</time>
      </trkpt>
      <trkpt lat="-2.568590" lon="-78.784859">
        <ele>3164.00</ele>
        <time>2018-09-08T21:11:02Z</time>
      </trkpt>
      <trkpt lat="-2.568590" lon="-78.784859">
        <ele>3164.00</ele>
        <time>2018-09-08T21:11:03Z</time>
      </trkpt>
      <trkpt lat="-2.568590" lon="-78.784859">
        <ele>3164.00</ele>
        <time>2018-09-08T21:11:04Z</time>
      </trkpt>
      <trkpt lat="-2.568590" lon="-78.784859">
        <ele>3164.00</ele>
        <time>2018-09-08T21:11:05Z</time>
      </trkpt>
      <trkpt lat="-2.568590" lon="-78.784859">
        <ele>3164.00</ele>
        <time>2018-09-08T21:11:06Z</time>
      </trkpt>
      <trkpt lat="-2.568590" lon="-78.784859">
        <ele>3164.00</ele>
        <time>2018-09-08T21:11:07Z</time>
      </trkpt>
      <trkpt lat="-2.568590" lon="-78.784859">
        <ele>3164.00</ele>
        <time>2018-09-08T21:11:08Z</time>
      </trkpt>
      <trkpt lat="-2.568590" lon="-78.784859">
        <ele>3164.00</ele>
        <time>2018-09-08T21:11:09Z</time>
      </trkpt>
      <trkpt lat="-2.568590" lon="-78.784859">
        <ele>3164.00</ele>
        <time>2018-09-08T21:11:10Z</time>
      </trkpt>
      <trkpt lat="-2.568590" lon="-78.784859">
        <ele>3164.00</ele>
        <time>2018-09-08T21:11:11Z</time>
      </trkpt>
      <trkpt lat="-2.568590" lon="-78.784859">
        <ele>3164.00</ele>
        <time>2018-09-08T21:11:12Z</time>
      </trkpt>
      <trkpt lat="-2.568590" lon="-78.784859">
        <ele>3165.00</ele>
        <time>2018-09-08T21:11:13Z</time>
      </trkpt>
      <trkpt lat="-2.568590" lon="-78.784859">
        <ele>3165.00</ele>
        <time>2018-09-08T21:11:14Z</time>
      </trkpt>
      <trkpt lat="-2.568590" lon="-78.784859">
        <ele>3165.00</ele>
        <time>2018-09-08T21:11:15Z</time>
      </trkpt>
      <trkpt lat="-2.568590" lon="-78.784859">
        <ele>3165.00</ele>
        <time>2018-09-08T21:11:16Z</time>
      </trkpt>
      <trkpt lat="-2.568590" lon="-78.784859">
        <ele>3165.00</ele>
        <time>2018-09-08T21:11:17Z</time>
      </trkpt>
      <trkpt lat="-2.568590" lon="-78.784859">
        <ele>3165.00</ele>
        <time>2018-09-08T21:11:18Z</time>
      </trkpt>
      <trkpt lat="-2.568590" lon="-78.784859">
        <ele>3165.00</ele>
        <time>2018-09-08T21:11:19Z</time>
      </trkpt>
      <trkpt lat="-2.568590" lon="-78.784859">
        <ele>3165.00</ele>
        <time>2018-09-08T21:11:20Z</time>
      </trkpt>
      <trkpt lat="-2.568590" lon="-78.784859">
        <ele>3165.00</ele>
        <time>2018-09-08T21:11:21Z</time>
      </trkpt>
      <trkpt lat="-2.568590" lon="-78.784859">
        <ele>3165.00</ele>
        <time>2018-09-08T21:11:22Z</time>
      </trkpt>
      <trkpt lat="-2.568590" lon="-78.784859">
        <ele>3165.00</ele>
        <time>2018-09-08T21:11:23Z</time>
      </trkpt>
      <trkpt lat="-2.568590" lon="-78.784859">
        <ele>3165.00</ele>
        <time>2018-09-08T21:11:24Z</time>
      </trkpt>
      <trkpt lat="-2.568590" lon="-78.784859">
        <ele>3165.00</ele>
        <time>2018-09-08T21:11:25Z</time>
      </trkpt>
      <trkpt lat="-2.568590" lon="-78.784859">
        <ele>3165.00</ele>
        <time>2018-09-08T21:11:26Z</time>
      </trkpt>
      <trkpt lat="-2.568590" lon="-78.784859">
        <ele>3165.00</ele>
        <time>2018-09-08T21:11:27Z</time>
      </trkpt>
      <trkpt lat="-2.568590" lon="-78.784859">
        <ele>3165.00</ele>
        <time>2018-09-08T21:11:28Z</time>
      </trkpt>
      <trkpt lat="-2.568590" lon="-78.784859">
        <ele>3165.00</ele>
        <time>2018-09-08T21:11:29Z</time>
      </trkpt>
      <trkpt lat="-2.568590" lon="-78.784859">
        <ele>3165.00</ele>
        <time>2018-09-08T21:11:30Z</time>
      </trkpt>
      <trkpt lat="-2.568590" lon="-78.784859">
        <ele>3165.00</ele>
        <time>2018-09-08T21:11:31Z</time>
      </trkpt>
      <trkpt lat="-2.568590" lon="-78.784859">
        <ele>3165.00</ele>
        <time>2018-09-08T21:11:32Z</time>
      </trkpt>
      <trkpt lat="-2.568590" lon="-78.784859">
        <ele>3165.00</ele>
        <time>2018-09-08T21:11:33Z</time>
      </trkpt>
      <trkpt lat="-2.568590" lon="-78.784859">
        <ele>3165.00</ele>
        <time>2018-09-08T21:11:34Z</time>
      </trkpt>
      <trkpt lat="-2.568590" lon="-78.784859">
        <ele>3165.00</ele>
        <time>2018-09-08T21:11:35Z</time>
      </trkpt>
      <trkpt lat="-2.568590" lon="-78.784859">
        <ele>3165.00</ele>
        <time>2018-09-08T21:11:36Z</time>
      </trkpt>
      <trkpt lat="-2.568590" lon="-78.784859">
        <ele>3165.00</ele>
        <time>2018-09-08T21:11:37Z</time>
      </trkpt>
      <trkpt lat="-2.568590" lon="-78.784859">
        <ele>3165.00</ele>
        <time>2018-09-08T21:11:38Z</time>
      </trkpt>
      <trkpt lat="-2.568590" lon="-78.784859">
        <ele>3165.00</ele>
        <time>2018-09-08T21:11:39Z</time>
      </trkpt>
      <trkpt lat="-2.568590" lon="-78.784859">
        <ele>3165.00</ele>
        <time>2018-09-08T21:11:40Z</time>
      </trkpt>
      <trkpt lat="-2.568590" lon="-78.784859">
        <ele>3165.00</ele>
        <time>2018-09-08T21:11:41Z</time>
      </trkpt>
      <trkpt lat="-2.568590" lon="-78.784859">
        <ele>3165.00</ele>
        <time>2018-09-08T21:11:42Z</time>
      </trkpt>
      <trkpt lat="-2.568590" lon="-78.784859">
        <ele>3165.00</ele>
        <time>2018-09-08T21:11:43Z</time>
      </trkpt>
      <trkpt lat="-2.568590" lon="-78.784859">
        <ele>3165.00</ele>
        <time>2018-09-08T21:11:44Z</time>
      </trkpt>
      <trkpt lat="-2.568590" lon="-78.784859">
        <ele>3165.00</ele>
        <time>2018-09-08T21:11:45Z</time>
      </trkpt>
      <trkpt lat="-2.568590" lon="-78.784859">
        <ele>3165.00</ele>
        <time>2018-09-08T21:11:46Z</time>
      </trkpt>
      <trkpt lat="-2.568590" lon="-78.784859">
        <ele>3165.00</ele>
        <time>2018-09-08T21:11:47Z</time>
      </trkpt>
      <trkpt lat="-2.568590" lon="-78.784859">
        <ele>3165.00</ele>
        <time>2018-09-08T21:11:48Z</time>
      </trkpt>
      <trkpt lat="-2.568590" lon="-78.784859">
        <ele>3165.00</ele>
        <time>2018-09-08T21:11:49Z</time>
      </trkpt>
      <trkpt lat="-2.568590" lon="-78.784859">
        <ele>3165.00</ele>
        <time>2018-09-08T21:11:50Z</time>
      </trkpt>
      <trkpt lat="-2.568590" lon="-78.784859">
        <ele>3165.00</ele>
        <time>2018-09-08T21:11:51Z</time>
      </trkpt>
      <trkpt lat="-2.568590" lon="-78.784859">
        <ele>3165.00</ele>
        <time>2018-09-08T21:11:52Z</time>
      </trkpt>
      <trkpt lat="-2.568590" lon="-78.784859">
        <ele>3165.00</ele>
        <time>2018-09-08T21:11:53Z</time>
      </trkpt>
      <trkpt lat="-2.568590" lon="-78.784859">
        <ele>3165.00</ele>
        <time>2018-09-08T21:11:54Z</time>
      </trkpt>
      <trkpt lat="-2.568590" lon="-78.784859">
        <ele>3165.00</ele>
        <time>2018-09-08T21:11:55Z</time>
      </trkpt>
      <trkpt lat="-2.568590" lon="-78.784859">
        <ele>3165.00</ele>
        <time>2018-09-08T21:11:56Z</time>
      </trkpt>
      <trkpt lat="-2.568584" lon="-78.784851">
        <ele>3166.00</ele>
        <time>2018-09-08T21:11:57Z</time>
      </trkpt>
      <trkpt lat="-2.568574" lon="-78.784836">
        <ele>3166.00</ele>
        <time>2018-09-08T21:11:58Z</time>
      </trkpt>
      <trkpt lat="-2.568550" lon="-78.784828">
        <ele>3166.00</ele>
        <time>2018-09-08T21:11:59Z</time>
      </trkpt>
      <trkpt lat="-2.568532" lon="-78.784828">
        <ele>3166.00</ele>
        <time>2018-09-08T21:12:00Z</time>
      </trkpt>
      <trkpt lat="-2.568525" lon="-78.784828">
        <ele>3166.00</ele>
        <time>2018-09-08T21:12:01Z</time>
      </trkpt>
      <trkpt lat="-2.568524" lon="-78.784828">
        <ele>3166.00</ele>
        <time>2018-09-08T21:12:02Z</time>
      </trkpt>
      <trkpt lat="-2.568521" lon="-78.784828">
        <ele>3166.00</ele>
        <time>2018-09-08T21:12:03Z</time>
      </trkpt>
      <trkpt lat="-2.568520" lon="-78.784836">
        <ele>3166.00</ele>
        <time>2018-09-08T21:12:04Z</time>
      </trkpt>
      <trkpt lat="-2.568521" lon="-78.784836">
        <ele>3166.00</ele>
        <time>2018-09-08T21:12:05Z</time>
      </trkpt>
      <trkpt lat="-2.568530" lon="-78.784843">
        <ele>3166.00</ele>
        <time>2018-09-08T21:12:06Z</time>
      </trkpt>
      <trkpt lat="-2.568538" lon="-78.784843">
        <ele>3167.00</ele>
        <time>2018-09-08T21:12:07Z</time>
      </trkpt>
      <trkpt lat="-2.568546" lon="-78.784851">
        <ele>3167.00</ele>
        <time>2018-09-08T21:12:08Z</time>
      </trkpt>
      <trkpt lat="-2.568552" lon="-78.784843">
        <ele>3167.00</ele>
        <time>2018-09-08T21:12:09Z</time>
      </trkpt>
      <trkpt lat="-2.568557" lon="-78.784843">
        <ele>3167.00</ele>
        <time>2018-09-08T21:12:10Z</time>
      </trkpt>
      <trkpt lat="-2.568558" lon="-78.784843">
        <ele>3167.00</ele>
        <time>2018-09-08T21:12:11Z</time>
      </trkpt>
      <trkpt lat="-2.568558" lon="-78.784843">
        <ele>3167.00</ele>
        <time>2018-09-08T21:12:12Z</time>
      </trkpt>
      <trkpt lat="-2.568559" lon="-78.784851">
        <ele>3167.00</ele>
        <time>2018-09-08T21:12:13Z</time>
      </trkpt>
      <trkpt lat="-2.568562" lon="-78.784859">
        <ele>3167.00</ele>
        <time>2018-09-08T21:12:14Z</time>
      </trkpt>
      <trkpt lat="-2.568570" lon="-78.784882">
        <ele>3167.00</ele>
        <time>2018-09-08T21:12:15Z</time>
      </trkpt>
      <trkpt lat="-2.568577" lon="-78.784897">
        <ele>3168.00</ele>
        <time>2018-09-08T21:12:16Z</time>
      </trkpt>
      <trkpt lat="-2.568580" lon="-78.784904">
        <ele>3168.00</ele>
        <time>2018-09-08T21:12:17Z</time>
      </trkpt>
      <trkpt lat="-2.568580" lon="-78.784912">
        <ele>3168.00</ele>
        <time>2018-09-08T21:12:18Z</time>
      </trkpt>
      <trkpt lat="-2.568580" lon="-78.784912">
        <ele>3168.00</ele>
        <time>2018-09-08T21:12:19Z</time>
      </trkpt>
      <trkpt lat="-2.568580" lon="-78.784912">
        <ele>3168.00</ele>
        <time>2018-09-08T21:12:20Z</time>
      </trkpt>
      <trkpt lat="-2.568581" lon="-78.784912">
        <ele>3168.00</ele>
        <time>2018-09-08T21:12:21Z</time>
      </trkpt>
      <trkpt lat="-2.568581" lon="-78.784912">
        <ele>3168.00</ele>
        <time>2018-09-08T21:12:22Z</time>
      </trkpt>
      <trkpt lat="-2.568581" lon="-78.784912">
        <ele>3168.00</ele>
        <time>2018-09-08T21:12:23Z</time>
      </trkpt>
      <trkpt lat="-2.568581" lon="-78.784912">
        <ele>3168.00</ele>
        <time>2018-09-08T21:12:24Z</time>
      </trkpt>
      <trkpt lat="-2.568581" lon="-78.784912">
        <ele>3168.00</ele>
        <time>2018-09-08T21:12:25Z</time>
      </trkpt>
      <trkpt lat="-2.568581" lon="-78.784912">
        <ele>3168.00</ele>
        <time>2018-09-08T21:12:26Z</time>
      </trkpt>
      <trkpt lat="-2.568581" lon="-78.784912">
        <ele>3168.00</ele>
        <time>2018-09-08T21:12:27Z</time>
      </trkpt>
      <trkpt lat="-2.568581" lon="-78.784912">
        <ele>3168.00</ele>
        <time>2018-09-08T21:12:28Z</time>
      </trkpt>
      <trkpt lat="-2.568581" lon="-78.784912">
        <ele>3168.00</ele>
        <time>2018-09-08T21:12:29Z</time>
      </trkpt>
      <trkpt lat="-2.568581" lon="-78.784912">
        <ele>3168.00</ele>
        <time>2018-09-08T21:12:30Z</time>
      </trkpt>
      <trkpt lat="-2.568581" lon="-78.784912">
        <ele>3168.00</ele>
        <time>2018-09-08T21:12:31Z</time>
      </trkpt>
      <trkpt lat="-2.568580" lon="-78.784927">
        <ele>3168.00</ele>
        <time>2018-09-08T21:12:32Z</time>
      </trkpt>
      <trkpt lat="-2.568580" lon="-78.784927">
        <ele>3168.00</ele>
        <time>2018-09-08T21:12:33Z</time>
      </trkpt>
      <trkpt lat="-2.568585" lon="-78.784927">
        <ele>3168.00</ele>
        <time>2018-09-08T21:12:34Z</time>
      </trkpt>
      <trkpt lat="-2.568585" lon="-78.784927">
        <ele>3168.00</ele>
        <time>2018-09-08T21:12:35Z</time>
      </trkpt>
      <trkpt lat="-2.568584" lon="-78.784927">
        <ele>3168.00</ele>
        <time>2018-09-08T21:12:36Z</time>
      </trkpt>
      <trkpt lat="-2.568584" lon="-78.784927">
        <ele>3168.00</ele>
        <time>2018-09-08T21:12:37Z</time>
      </trkpt>
      <trkpt lat="-2.568584" lon="-78.784927">
        <ele>3168.00</ele>
        <time>2018-09-08T21:12:38Z</time>
      </trkpt>
      <trkpt lat="-2.568583" lon="-78.784927">
        <ele>3168.00</ele>
        <time>2018-09-08T21:12:39Z</time>
      </trkpt>
      <trkpt lat="-2.568583" lon="-78.784927">
        <ele>3168.00</ele>
        <time>2018-09-08T21:12:40Z</time>
      </trkpt>
      <trkpt lat="-2.568583" lon="-78.784927">
        <ele>3168.00</ele>
        <time>2018-09-08T21:12:41Z</time>
      </trkpt>
      <trkpt lat="-2.568583" lon="-78.784927">
        <ele>3168.00</ele>
        <time>2018-09-08T21:12:42Z</time>
      </trkpt>
      <trkpt lat="-2.568581" lon="-78.784927">
        <ele>3168.00</ele>
        <time>2018-09-08T21:12:43Z</time>
      </trkpt>
      <trkpt lat="-2.568578" lon="-78.784935">
        <ele>3168.00</ele>
        <time>2018-09-08T21:12:44Z</time>
      </trkpt>
      <trkpt lat="-2.568577" lon="-78.784935">
        <ele>3168.00</ele>
        <time>2018-09-08T21:12:45Z</time>
      </trkpt>
      <trkpt lat="-2.568577" lon="-78.784935">
        <ele>3168.00</ele>
        <time>2018-09-08T21:12:46Z</time>
      </trkpt>
      <trkpt lat="-2.568577" lon="-78.784935">
        <ele>3168.00</ele>
        <time>2018-09-08T21:12:47Z</time>
      </trkpt>
      <trkpt lat="-2.568577" lon="-78.784935">
        <ele>3168.00</ele>
        <time>2018-09-08T21:12:48Z</time>
      </trkpt>
      <trkpt lat="-2.568577" lon="-78.784935">
        <ele>3168.00</ele>
        <time>2018-09-08T21:12:49Z</time>
      </trkpt>
      <trkpt lat="-2.568577" lon="-78.784935">
        <ele>3168.00</ele>
        <time>2018-09-08T21:12:50Z</time>
      </trkpt>
      <trkpt lat="-2.568576" lon="-78.784935">
        <ele>3168.00</ele>
        <time>2018-09-08T21:12:51Z</time>
      </trkpt>
      <trkpt lat="-2.568578" lon="-78.784935">
        <ele>3168.00</ele>
        <time>2018-09-08T21:12:52Z</time>
      </trkpt>
      <trkpt lat="-2.568579" lon="-78.784935">
        <ele>3168.00</ele>
        <time>2018-09-08T21:12:53Z</time>
      </trkpt>
      <trkpt lat="-2.568578" lon="-78.784935">
        <ele>3168.00</ele>
        <time>2018-09-08T21:12:54Z</time>
      </trkpt>
      <trkpt lat="-2.568578" lon="-78.784935">
        <ele>3168.00</ele>
        <time>2018-09-08T21:12:55Z</time>
      </trkpt>
      <trkpt lat="-2.568579" lon="-78.784935">
        <ele>3168.00</ele>
        <time>2018-09-08T21:12:56Z</time>
      </trkpt>
      <trkpt lat="-2.568579" lon="-78.784935">
        <ele>3168.00</ele>
        <time>2018-09-08T21:12:57Z</time>
      </trkpt>
      <trkpt lat="-2.568579" lon="-78.784935">
        <ele>3168.00</ele>
        <time>2018-09-08T21:12:58Z</time>
      </trkpt>
      <trkpt lat="-2.568579" lon="-78.784935">
        <ele>3168.00</ele>
        <time>2018-09-08T21:12:59Z</time>
      </trkpt>
      <trkpt lat="-2.568579" lon="-78.784935">
        <ele>3168.00</ele>
        <time>2018-09-08T21:13:00Z</time>
      </trkpt>
      <trkpt lat="-2.568579" lon="-78.784935">
        <ele>3168.00</ele>
        <time>2018-09-08T21:13:01Z</time>
      </trkpt>
      <trkpt lat="-2.568579" lon="-78.784935">
        <ele>3168.00</ele>
        <time>2018-09-08T21:13:02Z</time>
      </trkpt>
      <trkpt lat="-2.568579" lon="-78.784935">
        <ele>3168.00</ele>
        <time>2018-09-08T21:13:03Z</time>
      </trkpt>
      <trkpt lat="-2.568579" lon="-78.784935">
        <ele>3168.00</ele>
        <time>2018-09-08T21:13:04Z</time>
      </trkpt>
      <trkpt lat="-2.568580" lon="-78.784935">
        <ele>3168.00</ele>
        <time>2018-09-08T21:13:05Z</time>
      </trkpt>
      <trkpt lat="-2.568580" lon="-78.784935">
        <ele>3168.00</ele>
        <time>2018-09-08T21:13:06Z</time>
      </trkpt>
      <trkpt lat="-2.568581" lon="-78.784935">
        <ele>3169.00</ele>
        <time>2018-09-08T21:13:07Z</time>
      </trkpt>
      <trkpt lat="-2.568580" lon="-78.784935">
        <ele>3169.00</ele>
        <time>2018-09-08T21:13:08Z</time>
      </trkpt>
      <trkpt lat="-2.568581" lon="-78.784935">
        <ele>3169.00</ele>
        <time>2018-09-08T21:13:09Z</time>
      </trkpt>
      <trkpt lat="-2.568581" lon="-78.784935">
        <ele>3169.00</ele>
        <time>2018-09-08T21:13:10Z</time>
      </trkpt>
      <trkpt lat="-2.568580" lon="-78.784935">
        <ele>3169.00</ele>
        <time>2018-09-08T21:13:11Z</time>
      </trkpt>
      <trkpt lat="-2.568580" lon="-78.784935">
        <ele>3169.00</ele>
        <time>2018-09-08T21:13:12Z</time>
      </trkpt>
      <trkpt lat="-2.568579" lon="-78.784935">
        <ele>3169.00</ele>
        <time>2018-09-08T21:13:13Z</time>
      </trkpt>
      <trkpt lat="-2.568579" lon="-78.784935">
        <ele>3169.00</ele>
        <time>2018-09-08T21:13:14Z</time>
      </trkpt>
      <trkpt lat="-2.568579" lon="-78.784935">
        <ele>3169.00</ele>
        <time>2018-09-08T21:13:15Z</time>
      </trkpt>
      <trkpt lat="-2.568578" lon="-78.784935">
        <ele>3169.00</ele>
        <time>2018-09-08T21:13:16Z</time>
      </trkpt>
      <trkpt lat="-2.568578" lon="-78.784943">
        <ele>3169.00</ele>
        <time>2018-09-08T21:13:17Z</time>
      </trkpt>
      <trkpt lat="-2.568578" lon="-78.784943">
        <ele>3169.00</ele>
        <time>2018-09-08T21:13:18Z</time>
      </trkpt>
      <trkpt lat="-2.568579" lon="-78.784943">
        <ele>3169.00</ele>
        <time>2018-09-08T21:13:19Z</time>
      </trkpt>
      <trkpt lat="-2.568579" lon="-78.784943">
        <ele>3169.00</ele>
        <time>2018-09-08T21:13:20Z</time>
      </trkpt>
      <trkpt lat="-2.568579" lon="-78.784943">
        <ele>3169.00</ele>
        <time>2018-09-08T21:13:21Z</time>
      </trkpt>
      <trkpt lat="-2.568580" lon="-78.784943">
        <ele>3169.00</ele>
        <time>2018-09-08T21:13:22Z</time>
      </trkpt>
      <trkpt lat="-2.568580" lon="-78.784943">
        <ele>3169.00</ele>
        <time>2018-09-08T21:13:23Z</time>
      </trkpt>
      <trkpt lat="-2.568579" lon="-78.784943">
        <ele>3169.00</ele>
        <time>2018-09-08T21:13:24Z</time>
      </trkpt>
      <trkpt lat="-2.568579" lon="-78.784943">
        <ele>3169.00</ele>
        <time>2018-09-08T21:13:25Z</time>
      </trkpt>
      <trkpt lat="-2.568579" lon="-78.784943">
        <ele>3169.00</ele>
        <time>2018-09-08T21:13:26Z</time>
      </trkpt>
      <trkpt lat="-2.568579" lon="-78.784943">
        <ele>3169.00</ele>
        <time>2018-09-08T21:13:27Z</time>
      </trkpt>
      <trkpt lat="-2.568579" lon="-78.784943">
        <ele>3169.00</ele>
        <time>2018-09-08T21:13:28Z</time>
      </trkpt>
      <trkpt lat="-2.568578" lon="-78.784943">
        <ele>3169.00</ele>
        <time>2018-09-08T21:13:29Z</time>
      </trkpt>
      <trkpt lat="-2.568578" lon="-78.784943">
        <ele>3169.00</ele>
        <time>2018-09-08T21:13:30Z</time>
      </trkpt>
      <trkpt lat="-2.568578" lon="-78.784943">
        <ele>3169.00</ele>
        <time>2018-09-08T21:13:31Z</time>
      </trkpt>
      <trkpt lat="-2.568578" lon="-78.784943">
        <ele>3169.00</ele>
        <time>2018-09-08T21:13:32Z</time>
      </trkpt>
      <trkpt lat="-2.568578" lon="-78.784943">
        <ele>3169.00</ele>
        <time>2018-09-08T21:13:33Z</time>
      </trkpt>
      <trkpt lat="-2.568578" lon="-78.784943">
        <ele>3169.00</ele>
        <time>2018-09-08T21:13:34Z</time>
      </trkpt>
      <trkpt lat="-2.568578" lon="-78.784943">
        <ele>3169.00</ele>
        <time>2018-09-08T21:13:35Z</time>
      </trkpt>
      <trkpt lat="-2.568578" lon="-78.784943">
        <ele>3169.00</ele>
        <time>2018-09-08T21:13:36Z</time>
      </trkpt>
      <trkpt lat="-2.568578" lon="-78.784943">
        <ele>3169.00</ele>
        <time>2018-09-08T21:13:37Z</time>
      </trkpt>
      <trkpt lat="-2.568578" lon="-78.784943">
        <ele>3169.00</ele>
        <time>2018-09-08T21:13:38Z</time>
      </trkpt>
      <trkpt lat="-2.568578" lon="-78.784943">
        <ele>3169.00</ele>
        <time>2018-09-08T21:13:39Z</time>
      </trkpt>
      <trkpt lat="-2.568578" lon="-78.784943">
        <ele>3169.00</ele>
        <time>2018-09-08T21:13:40Z</time>
      </trkpt>
      <trkpt lat="-2.568578" lon="-78.784943">
        <ele>3169.00</ele>
        <time>2018-09-08T21:13:41Z</time>
      </trkpt>
      <trkpt lat="-2.568578" lon="-78.784943">
        <ele>3169.00</ele>
        <time>2018-09-08T21:13:42Z</time>
      </trkpt>
      <trkpt lat="-2.568578" lon="-78.784943">
        <ele>3169.00</ele>
        <time>2018-09-08T21:13:43Z</time>
      </trkpt>
      <trkpt lat="-2.568577" lon="-78.784943">
        <ele>3169.00</ele>
        <time>2018-09-08T21:13:44Z</time>
      </trkpt>
      <trkpt lat="-2.568577" lon="-78.784943">
        <ele>3169.00</ele>
        <time>2018-09-08T21:13:45Z</time>
      </trkpt>
      <trkpt lat="-2.568577" lon="-78.784943">
        <ele>3169.00</ele>
        <time>2018-09-08T21:13:46Z</time>
      </trkpt>
      <trkpt lat="-2.568577" lon="-78.784943">
        <ele>3169.00</ele>
        <time>2018-09-08T21:13:47Z</time>
      </trkpt>
      <trkpt lat="-2.568576" lon="-78.784943">
        <ele>3169.00</ele>
        <time>2018-09-08T21:13:48Z</time>
      </trkpt>
      <trkpt lat="-2.568576" lon="-78.784943">
        <ele>3169.00</ele>
        <time>2018-09-08T21:13:49Z</time>
      </trkpt>
      <trkpt lat="-2.568576" lon="-78.784943">
        <ele>3169.00</ele>
        <time>2018-09-08T21:13:50Z</time>
      </trkpt>
      <trkpt lat="-2.568576" lon="-78.784950">
        <ele>3169.00</ele>
        <time>2018-09-08T21:13:51Z</time>
      </trkpt>
      <trkpt lat="-2.568576" lon="-78.784950">
        <ele>3169.00</ele>
        <time>2018-09-08T21:13:52Z</time>
      </trkpt>
      <trkpt lat="-2.568576" lon="-78.784950">
        <ele>3169.00</ele>
        <time>2018-09-08T21:13:53Z</time>
      </trkpt>
      <trkpt lat="-2.568576" lon="-78.784950">
        <ele>3169.00</ele>
        <time>2018-09-08T21:13:54Z</time>
      </trkpt>
      <trkpt lat="-2.568576" lon="-78.784950">
        <ele>3169.00</ele>
        <time>2018-09-08T21:13:55Z</time>
      </trkpt>
      <trkpt lat="-2.568579" lon="-78.784950">
        <ele>3169.00</ele>
        <time>2018-09-08T21:13:56Z</time>
      </trkpt>
      <trkpt lat="-2.568587" lon="-78.784988">
        <ele>3170.00</ele>
        <time>2018-09-08T21:13:57Z</time>
      </trkpt>
      <trkpt lat="-2.568600" lon="-78.785034">
        <ele>3171.00</ele>
        <time>2018-09-08T21:13:58Z</time>
      </trkpt>
      <trkpt lat="-2.568614" lon="-78.785095">
        <ele>3171.00</ele>
        <time>2018-09-08T21:13:59Z</time>
      </trkpt>
      <trkpt lat="-2.568624" lon="-78.785141">
        <ele>3171.00</ele>
        <time>2018-09-08T21:14:00Z</time>
      </trkpt>
      <trkpt lat="-2.568634" lon="-78.785172">
        <ele>3171.00</ele>
        <time>2018-09-08T21:14:01Z</time>
      </trkpt>
      <trkpt lat="-2.568639" lon="-78.785194">
        <ele>3171.00</ele>
        <time>2018-09-08T21:14:02Z</time>
      </trkpt>
      <trkpt lat="-2.568643" lon="-78.785202">
        <ele>3171.00</ele>
        <time>2018-09-08T21:14:03Z</time>
      </trkpt>
      <trkpt lat="-2.568650" lon="-78.785225">
        <ele>3171.00</ele>
        <time>2018-09-08T21:14:04Z</time>
      </trkpt>
      <trkpt lat="-2.568665" lon="-78.785263">
        <ele>3172.00</ele>
        <time>2018-09-08T21:14:05Z</time>
      </trkpt>
      <trkpt lat="-2.568681" lon="-78.785324">
        <ele>3172.00</ele>
        <time>2018-09-08T21:14:06Z</time>
      </trkpt>
      <trkpt lat="-2.568697" lon="-78.785408">
        <ele>3172.00</ele>
        <time>2018-09-08T21:14:07Z</time>
      </trkpt>
      <trkpt lat="-2.568722" lon="-78.785492">
        <ele>3172.00</ele>
        <time>2018-09-08T21:14:08Z</time>
      </trkpt>
      <trkpt lat="-2.568739" lon="-78.785583">
        <ele>3173.00</ele>
        <time>2018-09-08T21:14:09Z</time>
      </trkpt>
      <trkpt lat="-2.568756" lon="-78.785683">
        <ele>3173.00</ele>
        <time>2018-09-08T21:14:10Z</time>
      </trkpt>
      <trkpt lat="-2.568782" lon="-78.785789">
        <ele>3173.00</ele>
        <time>2018-09-08T21:14:11Z</time>
      </trkpt>
      <trkpt lat="-2.568815" lon="-78.785881">
        <ele>3173.00</ele>
        <time>2018-09-08T21:14:12Z</time>
      </trkpt>
      <trkpt lat="-2.568846" lon="-78.785973">
        <ele>3173.00</ele>
        <time>2018-09-08T21:14:13Z</time>
      </trkpt>
      <trkpt lat="-2.568871" lon="-78.786064">
        <ele>3173.00</ele>
        <time>2018-09-08T21:14:14Z</time>
      </trkpt>
      <trkpt lat="-2.568895" lon="-78.786148">
        <ele>3173.00</ele>
        <time>2018-09-08T21:14:15Z</time>
      </trkpt>
      <trkpt lat="-2.568920" lon="-78.786232">
        <ele>3173.00</ele>
        <time>2018-09-08T21:14:16Z</time>
      </trkpt>
      <trkpt lat="-2.568946" lon="-78.786301">
        <ele>3173.00</ele>
        <time>2018-09-08T21:14:17Z</time>
      </trkpt>
      <trkpt lat="-2.568960" lon="-78.786354">
        <ele>3173.00</ele>
        <time>2018-09-08T21:14:18Z</time>
      </trkpt>
      <trkpt lat="-2.568968" lon="-78.786407">
        <ele>3173.00</ele>
        <time>2018-09-08T21:14:19Z</time>
      </trkpt>
      <trkpt lat="-2.568973" lon="-78.786438">
        <ele>3173.00</ele>
        <time>2018-09-08T21:14:20Z</time>
      </trkpt>
      <trkpt lat="-2.568973" lon="-78.786461">
        <ele>3173.00</ele>
        <time>2018-09-08T21:14:21Z</time>
      </trkpt>
      <trkpt lat="-2.568957" lon="-78.786507">
        <ele>3173.00</ele>
        <time>2018-09-08T21:14:22Z</time>
      </trkpt>
      <trkpt lat="-2.568933" lon="-78.786575">
        <ele>3173.00</ele>
        <time>2018-09-08T21:14:23Z</time>
      </trkpt>
      <trkpt lat="-2.568923" lon="-78.786667">
        <ele>3173.00</ele>
        <time>2018-09-08T21:14:24Z</time>
      </trkpt>
      <trkpt lat="-2.568930" lon="-78.786774">
        <ele>3173.00</ele>
        <time>2018-09-08T21:14:25Z</time>
      </trkpt>
      <trkpt lat="-2.568960" lon="-78.786873">
        <ele>3173.00</ele>
        <time>2018-09-08T21:14:26Z</time>
      </trkpt>
      <trkpt lat="-2.569019" lon="-78.786949">
        <ele>3173.00</ele>
        <time>2018-09-08T21:14:27Z</time>
      </trkpt>
      <trkpt lat="-2.569106" lon="-78.787025">
        <ele>3173.00</ele>
        <time>2018-09-08T21:14:28Z</time>
      </trkpt>
      <trkpt lat="-2.569205" lon="-78.787086">
        <ele>3173.00</ele>
        <time>2018-09-08T21:14:29Z</time>
      </trkpt>
      <trkpt lat="-2.569307" lon="-78.787155">
        <ele>3173.00</ele>
        <time>2018-09-08T21:14:30Z</time>
      </trkpt>
      <trkpt lat="-2.569409" lon="-78.787209">
        <ele>3174.00</ele>
        <time>2018-09-08T21:14:31Z</time>
      </trkpt>
      <trkpt lat="-2.569514" lon="-78.787262">
        <ele>3174.00</ele>
        <time>2018-09-08T21:14:32Z</time>
      </trkpt>
      <trkpt lat="-2.569620" lon="-78.787323">
        <ele>3174.00</ele>
        <time>2018-09-08T21:14:33Z</time>
      </trkpt>
      <trkpt lat="-2.569727" lon="-78.787384">
        <ele>3174.00</ele>
        <time>2018-09-08T21:14:34Z</time>
      </trkpt>
      <trkpt lat="-2.569833" lon="-78.787460">
        <ele>3174.00</ele>
        <time>2018-09-08T21:14:35Z</time>
      </trkpt>
      <trkpt lat="-2.569926" lon="-78.787544">
        <ele>3175.00</ele>
        <time>2018-09-08T21:14:36Z</time>
      </trkpt>
      <trkpt lat="-2.570008" lon="-78.787643">
        <ele>3175.00</ele>
        <time>2018-09-08T21:14:37Z</time>
      </trkpt>
      <trkpt lat="-2.570076" lon="-78.787758">
        <ele>3175.00</ele>
        <time>2018-09-08T21:14:38Z</time>
      </trkpt>
      <trkpt lat="-2.570144" lon="-78.787865">
        <ele>3175.00</ele>
        <time>2018-09-08T21:14:39Z</time>
      </trkpt>
      <trkpt lat="-2.570213" lon="-78.787956">
        <ele>3175.00</ele>
        <time>2018-09-08T21:14:40Z</time>
      </trkpt>
      <trkpt lat="-2.570282" lon="-78.788048">
        <ele>3175.00</ele>
        <time>2018-09-08T21:14:41Z</time>
      </trkpt>
      <trkpt lat="-2.570352" lon="-78.788124">
        <ele>3175.00</ele>
        <time>2018-09-08T21:14:42Z</time>
      </trkpt>
      <trkpt lat="-2.570423" lon="-78.788177">
        <ele>3175.00</ele>
        <time>2018-09-08T21:14:43Z</time>
      </trkpt>
      <trkpt lat="-2.570496" lon="-78.788223">
        <ele>3175.00</ele>
        <time>2018-09-08T21:14:44Z</time>
      </trkpt>
      <trkpt lat="-2.570579" lon="-78.788239">
        <ele>3175.00</ele>
        <time>2018-09-08T21:14:45Z</time>
      </trkpt>
      <trkpt lat="-2.570670" lon="-78.788239">
        <ele>3176.00</ele>
        <time>2018-09-08T21:14:46Z</time>
      </trkpt>
      <trkpt lat="-2.570765" lon="-78.788223">
        <ele>3176.00</ele>
        <time>2018-09-08T21:14:47Z</time>
      </trkpt>
      <trkpt lat="-2.570861" lon="-78.788208">
        <ele>3176.00</ele>
        <time>2018-09-08T21:14:48Z</time>
      </trkpt>
      <trkpt lat="-2.570954" lon="-78.788216">
        <ele>3176.00</ele>
        <time>2018-09-08T21:14:49Z</time>
      </trkpt>
      <trkpt lat="-2.571048" lon="-78.788231">
        <ele>3176.00</ele>
        <time>2018-09-08T21:14:50Z</time>
      </trkpt>
      <trkpt lat="-2.571147" lon="-78.788277">
        <ele>3175.00</ele>
        <time>2018-09-08T21:14:51Z</time>
      </trkpt>
      <trkpt lat="-2.571258" lon="-78.788330">
        <ele>3175.00</ele>
        <time>2018-09-08T21:14:52Z</time>
      </trkpt>
      <trkpt lat="-2.571364" lon="-78.788376">
        <ele>3175.00</ele>
        <time>2018-09-08T21:14:53Z</time>
      </trkpt>
      <trkpt lat="-2.571456" lon="-78.788406">
        <ele>3175.00</ele>
        <time>2018-09-08T21:14:54Z</time>
      </trkpt>
      <trkpt lat="-2.571531" lon="-78.788445">
        <ele>3175.00</ele>
        <time>2018-09-08T21:14:55Z</time>
      </trkpt>
      <trkpt lat="-2.571603" lon="-78.788460">
        <ele>3175.00</ele>
        <time>2018-09-08T21:14:56Z</time>
      </trkpt>
      <trkpt lat="-2.571682" lon="-78.788445">
        <ele>3175.00</ele>
        <time>2018-09-08T21:14:57Z</time>
      </trkpt>
      <trkpt lat="-2.571749" lon="-78.788376">
        <ele>3176.00</ele>
        <time>2018-09-08T21:14:58Z</time>
      </trkpt>
      <trkpt lat="-2.571810" lon="-78.788300">
        <ele>3176.00</ele>
        <time>2018-09-08T21:14:59Z</time>
      </trkpt>
      <trkpt lat="-2.571889" lon="-78.788261">
        <ele>3177.00</ele>
        <time>2018-09-08T21:15:00Z</time>
      </trkpt>
      <trkpt lat="-2.571987" lon="-78.788261">
        <ele>3177.00</ele>
        <time>2018-09-08T21:15:01Z</time>
      </trkpt>
      <trkpt lat="-2.572087" lon="-78.788292">
        <ele>3177.00</ele>
        <time>2018-09-08T21:15:02Z</time>
      </trkpt>
      <trkpt lat="-2.572176" lon="-78.788376">
        <ele>3177.00</ele>
        <time>2018-09-08T21:15:03Z</time>
      </trkpt>
      <trkpt lat="-2.572258" lon="-78.788460">
        <ele>3178.00</ele>
        <time>2018-09-08T21:15:04Z</time>
      </trkpt>
      <trkpt lat="-2.572309" lon="-78.788567">
        <ele>3178.00</ele>
        <time>2018-09-08T21:15:05Z</time>
      </trkpt>
      <trkpt lat="-2.572338" lon="-78.788658">
        <ele>3178.00</ele>
        <time>2018-09-08T21:15:06Z</time>
      </trkpt>
      <trkpt lat="-2.572368" lon="-78.788727">
        <ele>3178.00</ele>
        <time>2018-09-08T21:15:07Z</time>
      </trkpt>
      <trkpt lat="-2.572436" lon="-78.788773">
        <ele>3179.00</ele>
        <time>2018-09-08T21:15:08Z</time>
      </trkpt>
      <trkpt lat="-2.572520" lon="-78.788765">
        <ele>3179.00</ele>
        <time>2018-09-08T21:15:09Z</time>
      </trkpt>
      <trkpt lat="-2.572613" lon="-78.788750">
        <ele>3180.00</ele>
        <time>2018-09-08T21:15:10Z</time>
      </trkpt>
      <trkpt lat="-2.572721" lon="-78.788750">
        <ele>3180.00</ele>
        <time>2018-09-08T21:15:11Z</time>
      </trkpt>
      <trkpt lat="-2.572842" lon="-78.788773">
        <ele>3181.00</ele>
        <time>2018-09-08T21:15:12Z</time>
      </trkpt>
      <trkpt lat="-2.572966" lon="-78.788803">
        <ele>3181.00</ele>
        <time>2018-09-08T21:15:13Z</time>
      </trkpt>
      <trkpt lat="-2.573098" lon="-78.788811">
        <ele>3181.00</ele>
        <time>2018-09-08T21:15:14Z</time>
      </trkpt>
      <trkpt lat="-2.573234" lon="-78.788811">
        <ele>3181.00</ele>
        <time>2018-09-08T21:15:15Z</time>
      </trkpt>
      <trkpt lat="-2.573375" lon="-78.788803">
        <ele>3181.00</ele>
        <time>2018-09-08T21:15:16Z</time>
      </trkpt>
      <trkpt lat="-2.573520" lon="-78.788773">
        <ele>3181.00</ele>
        <time>2018-09-08T21:15:17Z</time>
      </trkpt>
      <trkpt lat="-2.573655" lon="-78.788750">
        <ele>3182.00</ele>
        <time>2018-09-08T21:15:18Z</time>
      </trkpt>
      <trkpt lat="-2.573773" lon="-78.788719">
        <ele>3182.00</ele>
        <time>2018-09-08T21:15:19Z</time>
      </trkpt>
      <trkpt lat="-2.573866" lon="-78.788696">
        <ele>3182.00</ele>
        <time>2018-09-08T21:15:20Z</time>
      </trkpt>
      <trkpt lat="-2.573955" lon="-78.788712">
        <ele>3182.00</ele>
        <time>2018-09-08T21:15:21Z</time>
      </trkpt>
      <trkpt lat="-2.574045" lon="-78.788757">
        <ele>3182.00</ele>
        <time>2018-09-08T21:15:22Z</time>
      </trkpt>
      <trkpt lat="-2.574130" lon="-78.788818">
        <ele>3182.00</ele>
        <time>2018-09-08T21:15:23Z</time>
      </trkpt>
      <trkpt lat="-2.574191" lon="-78.788887">
        <ele>3182.00</ele>
        <time>2018-09-08T21:15:24Z</time>
      </trkpt>
      <trkpt lat="-2.574235" lon="-78.788971">
        <ele>3182.00</ele>
        <time>2018-09-08T21:15:25Z</time>
      </trkpt>
      <trkpt lat="-2.574275" lon="-78.789070">
        <ele>3182.00</ele>
        <time>2018-09-08T21:15:26Z</time>
      </trkpt>
      <trkpt lat="-2.574303" lon="-78.789185">
        <ele>3181.00</ele>
        <time>2018-09-08T21:15:27Z</time>
      </trkpt>
      <trkpt lat="-2.574329" lon="-78.789299">
        <ele>3181.00</ele>
        <time>2018-09-08T21:15:28Z</time>
      </trkpt>
      <trkpt lat="-2.574336" lon="-78.789413">
        <ele>3181.00</ele>
        <time>2018-09-08T21:15:29Z</time>
      </trkpt>
      <trkpt lat="-2.574325" lon="-78.789513">
        <ele>3181.00</ele>
        <time>2018-09-08T21:15:30Z</time>
      </trkpt>
      <trkpt lat="-2.574286" lon="-78.789619">
        <ele>3180.00</ele>
        <time>2018-09-08T21:15:31Z</time>
      </trkpt>
      <trkpt lat="-2.574201" lon="-78.789703">
        <ele>3180.00</ele>
        <time>2018-09-08T21:15:32Z</time>
      </trkpt>
      <trkpt lat="-2.574106" lon="-78.789803">
        <ele>3180.00</ele>
        <time>2018-09-08T21:15:33Z</time>
      </trkpt>
      <trkpt lat="-2.574025" lon="-78.789894">
        <ele>3180.00</ele>
        <time>2018-09-08T21:15:34Z</time>
      </trkpt>
      <trkpt lat="-2.573968" lon="-78.790009">
        <ele>3180.00</ele>
        <time>2018-09-08T21:15:35Z</time>
      </trkpt>
      <trkpt lat="-2.573953" lon="-78.790146">
        <ele>3181.00</ele>
        <time>2018-09-08T21:15:36Z</time>
      </trkpt>
      <trkpt lat="-2.573951" lon="-78.790276">
        <ele>3181.00</ele>
        <time>2018-09-08T21:15:37Z</time>
      </trkpt>
      <trkpt lat="-2.573981" lon="-78.790398">
        <ele>3182.00</ele>
        <time>2018-09-08T21:15:38Z</time>
      </trkpt>
      <trkpt lat="-2.574042" lon="-78.790527">
        <ele>3183.00</ele>
        <time>2018-09-08T21:15:39Z</time>
      </trkpt>
      <trkpt lat="-2.574132" lon="-78.790642">
        <ele>3183.00</ele>
        <time>2018-09-08T21:15:40Z</time>
      </trkpt>
      <trkpt lat="-2.574249" lon="-78.790741">
        <ele>3183.00</ele>
        <time>2018-09-08T21:15:41Z</time>
      </trkpt>
      <trkpt lat="-2.574360" lon="-78.790855">
        <ele>3183.00</ele>
        <time>2018-09-08T21:15:42Z</time>
      </trkpt>
      <trkpt lat="-2.574463" lon="-78.790970">
        <ele>3183.00</ele>
        <time>2018-09-08T21:15:43Z</time>
      </trkpt>
      <trkpt lat="-2.574548" lon="-78.791077">
        <ele>3183.00</ele>
        <time>2018-09-08T21:15:44Z</time>
      </trkpt>
      <trkpt lat="-2.574605" lon="-78.791183">
        <ele>3183.00</ele>
        <time>2018-09-08T21:15:45Z</time>
      </trkpt>
      <trkpt lat="-2.574642" lon="-78.791313">
        <ele>3183.00</ele>
        <time>2018-09-08T21:15:46Z</time>
      </trkpt>
      <trkpt lat="-2.574658" lon="-78.791458">
        <ele>3183.00</ele>
        <time>2018-09-08T21:15:47Z</time>
      </trkpt>
      <trkpt lat="-2.574665" lon="-78.791573">
        <ele>3183.00</ele>
        <time>2018-09-08T21:15:48Z</time>
      </trkpt>
      <trkpt lat="-2.574653" lon="-78.791656">
        <ele>3183.00</ele>
        <time>2018-09-08T21:15:49Z</time>
      </trkpt>
      <trkpt lat="-2.574621" lon="-78.791710">
        <ele>3182.00</ele>
        <time>2018-09-08T21:15:50Z</time>
      </trkpt>
      <trkpt lat="-2.574566" lon="-78.791771">
        <ele>3182.00</ele>
        <time>2018-09-08T21:15:51Z</time>
      </trkpt>
      <trkpt lat="-2.574479" lon="-78.791840">
        <ele>3181.00</ele>
        <time>2018-09-08T21:15:52Z</time>
      </trkpt>
      <trkpt lat="-2.574379" lon="-78.791885">
        <ele>3180.00</ele>
        <time>2018-09-08T21:15:53Z</time>
      </trkpt>
      <trkpt lat="-2.574277" lon="-78.791893">
        <ele>3180.00</ele>
        <time>2018-09-08T21:15:54Z</time>
      </trkpt>
      <trkpt lat="-2.574171" lon="-78.791870">
        <ele>3179.00</ele>
        <time>2018-09-08T21:15:55Z</time>
      </trkpt>
      <trkpt lat="-2.574049" lon="-78.791855">
        <ele>3179.00</ele>
        <time>2018-09-08T21:15:56Z</time>
      </trkpt>
      <trkpt lat="-2.573931" lon="-78.791885">
        <ele>3179.00</ele>
        <time>2018-09-08T21:15:57Z</time>
      </trkpt>
      <trkpt lat="-2.573809" lon="-78.791908">
        <ele>3179.00</ele>
        <time>2018-09-08T21:15:58Z</time>
      </trkpt>
      <trkpt lat="-2.573688" lon="-78.791908">
        <ele>3179.00</ele>
        <time>2018-09-08T21:15:59Z</time>
      </trkpt>
      <trkpt lat="-2.573560" lon="-78.791893">
        <ele>3178.00</ele>
        <time>2018-09-08T21:16:00Z</time>
      </trkpt>
      <trkpt lat="-2.573429" lon="-78.791893">
        <ele>3178.00</ele>
        <time>2018-09-08T21:16:01Z</time>
      </trkpt>
      <trkpt lat="-2.573306" lon="-78.791931">
        <ele>3179.00</ele>
        <time>2018-09-08T21:16:02Z</time>
      </trkpt>
      <trkpt lat="-2.573205" lon="-78.791977">
        <ele>3179.00</ele>
        <time>2018-09-08T21:16:03Z</time>
      </trkpt>
      <trkpt lat="-2.573120" lon="-78.792030">
        <ele>3179.00</ele>
        <time>2018-09-08T21:16:04Z</time>
      </trkpt>
      <trkpt lat="-2.573040" lon="-78.792053">
        <ele>3179.00</ele>
        <time>2018-09-08T21:16:05Z</time>
      </trkpt>
      <trkpt lat="-2.572958" lon="-78.792068">
        <ele>3179.00</ele>
        <time>2018-09-08T21:16:06Z</time>
      </trkpt>
      <trkpt lat="-2.572876" lon="-78.792091">
        <ele>3179.00</ele>
        <time>2018-09-08T21:16:07Z</time>
      </trkpt>
      <trkpt lat="-2.572792" lon="-78.792114">
        <ele>3179.00</ele>
        <time>2018-09-08T21:16:08Z</time>
      </trkpt>
      <trkpt lat="-2.572722" lon="-78.792152">
        <ele>3180.00</ele>
        <time>2018-09-08T21:16:09Z</time>
      </trkpt>
      <trkpt lat="-2.572663" lon="-78.792175">
        <ele>3180.00</ele>
        <time>2018-09-08T21:16:10Z</time>
      </trkpt>
      <trkpt lat="-2.572607" lon="-78.792198">
        <ele>3180.00</ele>
        <time>2018-09-08T21:16:11Z</time>
      </trkpt>
      <trkpt lat="-2.572556" lon="-78.792206">
        <ele>3181.00</ele>
        <time>2018-09-08T21:16:12Z</time>
      </trkpt>
      <trkpt lat="-2.572514" lon="-78.792213">
        <ele>3181.00</ele>
        <time>2018-09-08T21:16:13Z</time>
      </trkpt>
      <trkpt lat="-2.572484" lon="-78.792213">
        <ele>3181.00</ele>
        <time>2018-09-08T21:16:14Z</time>
      </trkpt>
      <trkpt lat="-2.572469" lon="-78.792206">
        <ele>3181.00</ele>
        <time>2018-09-08T21:16:15Z</time>
      </trkpt>
      <trkpt lat="-2.572469" lon="-78.792206">
        <ele>3181.00</ele>
        <time>2018-09-08T21:16:16Z</time>
      </trkpt>
      <trkpt lat="-2.572469" lon="-78.792206">
        <ele>3181.00</ele>
        <time>2018-09-08T21:16:17Z</time>
      </trkpt>
      <trkpt lat="-2.572469" lon="-78.792206">
        <ele>3181.00</ele>
        <time>2018-09-08T21:16:18Z</time>
      </trkpt>
      <trkpt lat="-2.572469" lon="-78.792206">
        <ele>3181.00</ele>
        <time>2018-09-08T21:16:19Z</time>
      </trkpt>
      <trkpt lat="-2.572469" lon="-78.792206">
        <ele>3181.00</ele>
        <time>2018-09-08T21:16:20Z</time>
      </trkpt>
      <trkpt lat="-2.572469" lon="-78.792206">
        <ele>3181.00</ele>
        <time>2018-09-08T21:16:21Z</time>
      </trkpt>
      <trkpt lat="-2.572469" lon="-78.792206">
        <ele>3181.00</ele>
        <time>2018-09-08T21:16:22Z</time>
      </trkpt>
      <trkpt lat="-2.572469" lon="-78.792206">
        <ele>3181.00</ele>
        <time>2018-09-08T21:16:23Z</time>
      </trkpt>
      <trkpt lat="-2.572469" lon="-78.792206">
        <ele>3181.00</ele>
        <time>2018-09-08T21:16:24Z</time>
      </trkpt>
      <trkpt lat="-2.572469" lon="-78.792206">
        <ele>3181.00</ele>
        <time>2018-09-08T21:16:25Z</time>
      </trkpt>
      <trkpt lat="-2.572469" lon="-78.792206">
        <ele>3181.00</ele>
        <time>2018-09-08T21:16:26Z</time>
      </trkpt>
      <trkpt lat="-2.572469" lon="-78.792206">
        <ele>3181.00</ele>
        <time>2018-09-08T21:16:27Z</time>
      </trkpt>
      <trkpt lat="-2.572469" lon="-78.792206">
        <ele>3181.00</ele>
        <time>2018-09-08T21:16:28Z</time>
      </trkpt>
      <trkpt lat="-2.572469" lon="-78.792206">
        <ele>3181.00</ele>
        <time>2018-09-08T21:16:29Z</time>
      </trkpt>
      <trkpt lat="-2.572469" lon="-78.792206">
        <ele>3181.00</ele>
        <time>2018-09-08T21:16:30Z</time>
      </trkpt>
      <trkpt lat="-2.572469" lon="-78.792206">
        <ele>3181.00</ele>
        <time>2018-09-08T21:16:31Z</time>
      </trkpt>
      <trkpt lat="-2.572457" lon="-78.792175">
        <ele>3182.00</ele>
        <time>2018-09-08T21:16:32Z</time>
      </trkpt>
      <trkpt lat="-2.572392" lon="-78.792168">
        <ele>3182.00</ele>
        <time>2018-09-08T21:16:33Z</time>
      </trkpt>
      <trkpt lat="-2.572294" lon="-78.792160">
        <ele>3183.00</ele>
        <time>2018-09-08T21:16:34Z</time>
      </trkpt>
      <trkpt lat="-2.572188" lon="-78.792160">
        <ele>3183.00</ele>
        <time>2018-09-08T21:16:35Z</time>
      </trkpt>
      <trkpt lat="-2.572101" lon="-78.792198">
        <ele>3184.00</ele>
        <time>2018-09-08T21:16:36Z</time>
      </trkpt>
      <trkpt lat="-2.572029" lon="-78.792259">
        <ele>3184.00</ele>
        <time>2018-09-08T21:16:37Z</time>
      </trkpt>
      <trkpt lat="-2.571981" lon="-78.792328">
        <ele>3184.00</ele>
        <time>2018-09-08T21:16:38Z</time>
      </trkpt>
      <trkpt lat="-2.571931" lon="-78.792419">
        <ele>3184.00</ele>
        <time>2018-09-08T21:16:39Z</time>
      </trkpt>
      <trkpt lat="-2.571860" lon="-78.792480">
        <ele>3184.00</ele>
        <time>2018-09-08T21:16:40Z</time>
      </trkpt>
      <trkpt lat="-2.571771" lon="-78.792503">
        <ele>3185.00</ele>
        <time>2018-09-08T21:16:41Z</time>
      </trkpt>
      <trkpt lat="-2.571684" lon="-78.792496">
        <ele>3185.00</ele>
        <time>2018-09-08T21:16:42Z</time>
      </trkpt>
      <trkpt lat="-2.571604" lon="-78.792450">
        <ele>3185.00</ele>
        <time>2018-09-08T21:16:43Z</time>
      </trkpt>
      <trkpt lat="-2.571526" lon="-78.792381">
        <ele>3185.00</ele>
        <time>2018-09-08T21:16:44Z</time>
      </trkpt>
      <trkpt lat="-2.571451" lon="-78.792328">
        <ele>3185.00</ele>
        <time>2018-09-08T21:16:45Z</time>
      </trkpt>
      <trkpt lat="-2.571367" lon="-78.792282">
        <ele>3185.00</ele>
        <time>2018-09-08T21:16:46Z</time>
      </trkpt>
      <trkpt lat="-2.571275" lon="-78.792282">
        <ele>3185.00</ele>
        <time>2018-09-08T21:16:47Z</time>
      </trkpt>
      <trkpt lat="-2.571188" lon="-78.792328">
        <ele>3185.00</ele>
        <time>2018-09-08T21:16:48Z</time>
      </trkpt>
      <trkpt lat="-2.571116" lon="-78.792397">
        <ele>3185.00</ele>
        <time>2018-09-08T21:16:49Z</time>
      </trkpt>
      <trkpt lat="-2.571039" lon="-78.792442">
        <ele>3185.00</ele>
        <time>2018-09-08T21:16:50Z</time>
      </trkpt>
      <trkpt lat="-2.570955" lon="-78.792465">
        <ele>3186.00</ele>
        <time>2018-09-08T21:16:51Z</time>
      </trkpt>
      <trkpt lat="-2.570880" lon="-78.792450">
        <ele>3186.00</ele>
        <time>2018-09-08T21:16:52Z</time>
      </trkpt>
      <trkpt lat="-2.570803" lon="-78.792450">
        <ele>3185.00</ele>
        <time>2018-09-08T21:16:53Z</time>
      </trkpt>
      <trkpt lat="-2.570727" lon="-78.792488">
        <ele>3185.00</ele>
        <time>2018-09-08T21:16:54Z</time>
      </trkpt>
      <trkpt lat="-2.570676" lon="-78.792572">
        <ele>3185.00</ele>
        <time>2018-09-08T21:16:55Z</time>
      </trkpt>
      <trkpt lat="-2.570658" lon="-78.792664">
        <ele>3186.00</ele>
        <time>2018-09-08T21:16:56Z</time>
      </trkpt>
      <trkpt lat="-2.570612" lon="-78.792740">
        <ele>3186.00</ele>
        <time>2018-09-08T21:16:57Z</time>
      </trkpt>
      <trkpt lat="-2.570532" lon="-78.792786">
        <ele>3186.00</ele>
        <time>2018-09-08T21:16:58Z</time>
      </trkpt>
      <trkpt lat="-2.570429" lon="-78.792763">
        <ele>3186.00</ele>
        <time>2018-09-08T21:16:59Z</time>
      </trkpt>
      <trkpt lat="-2.570329" lon="-78.792717">
        <ele>3186.00</ele>
        <time>2018-09-08T21:17:00Z</time>
      </trkpt>
      <trkpt lat="-2.570249" lon="-78.792625">
        <ele>3186.00</ele>
        <time>2018-09-08T21:17:01Z</time>
      </trkpt>
      <trkpt lat="-2.570164" lon="-78.792534">
        <ele>3186.00</ele>
        <time>2018-09-08T21:17:02Z</time>
      </trkpt>
      <trkpt lat="-2.570064" lon="-78.792450">
        <ele>3186.00</ele>
        <time>2018-09-08T21:17:03Z</time>
      </trkpt>
      <trkpt lat="-2.569959" lon="-78.792389">
        <ele>3187.00</ele>
        <time>2018-09-08T21:17:04Z</time>
      </trkpt>
      <trkpt lat="-2.569875" lon="-78.792343">
        <ele>3187.00</ele>
        <time>2018-09-08T21:17:05Z</time>
      </trkpt>
      <trkpt lat="-2.569806" lon="-78.792320">
        <ele>3187.00</ele>
        <time>2018-09-08T21:17:06Z</time>
      </trkpt>
      <trkpt lat="-2.569743" lon="-78.792336">
        <ele>3188.00</ele>
        <time>2018-09-08T21:17:07Z</time>
      </trkpt>
      <trkpt lat="-2.569699" lon="-78.792412">
        <ele>3188.00</ele>
        <time>2018-09-08T21:17:08Z</time>
      </trkpt>
      <trkpt lat="-2.569665" lon="-78.792503">
        <ele>3188.00</ele>
        <time>2018-09-08T21:17:09Z</time>
      </trkpt>
      <trkpt lat="-2.569623" lon="-78.792603">
        <ele>3189.00</ele>
        <time>2018-09-08T21:17:10Z</time>
      </trkpt>
      <trkpt lat="-2.569573" lon="-78.792709">
        <ele>3189.00</ele>
        <time>2018-09-08T21:17:11Z</time>
      </trkpt>
      <trkpt lat="-2.569546" lon="-78.792847">
        <ele>3190.00</ele>
        <time>2018-09-08T21:17:12Z</time>
      </trkpt>
      <trkpt lat="-2.569531" lon="-78.792961">
        <ele>3191.00</ele>
        <time>2018-09-08T21:17:13Z</time>
      </trkpt>
      <trkpt lat="-2.569510" lon="-78.793068">
        <ele>3192.00</ele>
        <time>2018-09-08T21:17:14Z</time>
      </trkpt>
      <trkpt lat="-2.569509" lon="-78.793167">
        <ele>3193.00</ele>
        <time>2018-09-08T21:17:15Z</time>
      </trkpt>
      <trkpt lat="-2.569545" lon="-78.793243">
        <ele>3194.00</ele>
        <time>2018-09-08T21:17:16Z</time>
      </trkpt>
      <trkpt lat="-2.569584" lon="-78.793312">
        <ele>3194.00</ele>
        <time>2018-09-08T21:17:17Z</time>
      </trkpt>
      <trkpt lat="-2.569604" lon="-78.793388">
        <ele>3194.00</ele>
        <time>2018-09-08T21:17:18Z</time>
      </trkpt>
      <trkpt lat="-2.569580" lon="-78.793465">
        <ele>3195.00</ele>
        <time>2018-09-08T21:17:19Z</time>
      </trkpt>
      <trkpt lat="-2.569562" lon="-78.793556">
        <ele>3195.00</ele>
        <time>2018-09-08T21:17:20Z</time>
      </trkpt>
      <trkpt lat="-2.569542" lon="-78.793648">
        <ele>3195.00</ele>
        <time>2018-09-08T21:17:21Z</time>
      </trkpt>
      <trkpt lat="-2.569580" lon="-78.793724">
        <ele>3195.00</ele>
        <time>2018-09-08T21:17:22Z</time>
      </trkpt>
      <trkpt lat="-2.569633" lon="-78.793793">
        <ele>3195.00</ele>
        <time>2018-09-08T21:17:23Z</time>
      </trkpt>
      <trkpt lat="-2.569680" lon="-78.793884">
        <ele>3195.00</ele>
        <time>2018-09-08T21:17:24Z</time>
      </trkpt>
      <trkpt lat="-2.569693" lon="-78.793983">
        <ele>3195.00</ele>
        <time>2018-09-08T21:17:25Z</time>
      </trkpt>
      <trkpt lat="-2.569690" lon="-78.794098">
        <ele>3195.00</ele>
        <time>2018-09-08T21:17:26Z</time>
      </trkpt>
      <trkpt lat="-2.569715" lon="-78.794220">
        <ele>3195.00</ele>
        <time>2018-09-08T21:17:27Z</time>
      </trkpt>
      <trkpt lat="-2.569757" lon="-78.794327">
        <ele>3196.00</ele>
        <time>2018-09-08T21:17:28Z</time>
      </trkpt>
      <trkpt lat="-2.569755" lon="-78.794434">
        <ele>3196.00</ele>
        <time>2018-09-08T21:17:29Z</time>
      </trkpt>
      <trkpt lat="-2.569726" lon="-78.794518">
        <ele>3197.00</ele>
        <time>2018-09-08T21:17:30Z</time>
      </trkpt>
      <trkpt lat="-2.569645" lon="-78.794548">
        <ele>3198.00</ele>
        <time>2018-09-08T21:17:31Z</time>
      </trkpt>
      <trkpt lat="-2.569547" lon="-78.794563">
        <ele>3198.00</ele>
        <time>2018-09-08T21:17:32Z</time>
      </trkpt>
      <trkpt lat="-2.569438" lon="-78.794563">
        <ele>3198.00</ele>
        <time>2018-09-08T21:17:33Z</time>
      </trkpt>
      <trkpt lat="-2.569335" lon="-78.794525">
        <ele>3199.00</ele>
        <time>2018-09-08T21:17:34Z</time>
      </trkpt>
      <trkpt lat="-2.569222" lon="-78.794540">
        <ele>3199.00</ele>
        <time>2018-09-08T21:17:35Z</time>
      </trkpt>
      <trkpt lat="-2.569116" lon="-78.794586">
        <ele>3199.00</ele>
        <time>2018-09-08T21:17:36Z</time>
      </trkpt>
      <trkpt lat="-2.569032" lon="-78.794640">
        <ele>3200.00</ele>
        <time>2018-09-08T21:17:37Z</time>
      </trkpt>
      <trkpt lat="-2.568937" lon="-78.794647">
        <ele>3200.00</ele>
        <time>2018-09-08T21:17:38Z</time>
      </trkpt>
      <trkpt lat="-2.568841" lon="-78.794670">
        <ele>3199.00</ele>
        <time>2018-09-08T21:17:39Z</time>
      </trkpt>
      <trkpt lat="-2.568758" lon="-78.794731">
        <ele>3199.00</ele>
        <time>2018-09-08T21:17:40Z</time>
      </trkpt>
      <trkpt lat="-2.568699" lon="-78.794807">
        <ele>3199.00</ele>
        <time>2018-09-08T21:17:41Z</time>
      </trkpt>
      <trkpt lat="-2.568634" lon="-78.794884">
        <ele>3199.00</ele>
        <time>2018-09-08T21:17:42Z</time>
      </trkpt>
      <trkpt lat="-2.568577" lon="-78.794960">
        <ele>3199.00</ele>
        <time>2018-09-08T21:17:43Z</time>
      </trkpt>
      <trkpt lat="-2.568530" lon="-78.795029">
        <ele>3200.00</ele>
        <time>2018-09-08T21:17:44Z</time>
      </trkpt>
      <trkpt lat="-2.568508" lon="-78.795090">
        <ele>3200.00</ele>
        <time>2018-09-08T21:17:45Z</time>
      </trkpt>
      <trkpt lat="-2.568501" lon="-78.795143">
        <ele>3200.00</ele>
        <time>2018-09-08T21:17:46Z</time>
      </trkpt>
      <trkpt lat="-2.568481" lon="-78.795219">
        <ele>3200.00</ele>
        <time>2018-09-08T21:17:47Z</time>
      </trkpt>
      <trkpt lat="-2.568469" lon="-78.795303">
        <ele>3199.00</ele>
        <time>2018-09-08T21:17:48Z</time>
      </trkpt>
      <trkpt lat="-2.568516" lon="-78.795395">
        <ele>3197.00</ele>
        <time>2018-09-08T21:17:49Z</time>
      </trkpt>
      <trkpt lat="-2.568619" lon="-78.795448">
        <ele>3195.00</ele>
        <time>2018-09-08T21:17:50Z</time>
      </trkpt>
      <trkpt lat="-2.568697" lon="-78.795540">
        <ele>3191.00</ele>
        <time>2018-09-08T21:17:51Z</time>
      </trkpt>
      <trkpt lat="-2.568794" lon="-78.795654">
        <ele>3188.00</ele>
        <time>2018-09-08T21:17:52Z</time>
      </trkpt>
      <trkpt lat="-2.568907" lon="-78.795769">
        <ele>3186.00</ele>
        <time>2018-09-08T21:17:53Z</time>
      </trkpt>
      <trkpt lat="-2.569012" lon="-78.795876">
        <ele>3184.00</ele>
        <time>2018-09-08T21:17:54Z</time>
      </trkpt>
      <trkpt lat="-2.569102" lon="-78.795967">
        <ele>3182.00</ele>
        <time>2018-09-08T21:17:55Z</time>
      </trkpt>
      <trkpt lat="-2.569204" lon="-78.796074">
        <ele>3181.00</ele>
        <time>2018-09-08T21:17:56Z</time>
      </trkpt>
      <trkpt lat="-2.569275" lon="-78.796181">
        <ele>3181.00</ele>
        <time>2018-09-08T21:17:57Z</time>
      </trkpt>
      <trkpt lat="-2.569304" lon="-78.796295">
        <ele>3181.00</ele>
        <time>2018-09-08T21:17:58Z</time>
      </trkpt>
      <trkpt lat="-2.569316" lon="-78.796425">
        <ele>3182.00</ele>
        <time>2018-09-08T21:17:59Z</time>
      </trkpt>
      <trkpt lat="-2.569348" lon="-78.796555">
        <ele>3183.00</ele>
        <time>2018-09-08T21:18:00Z</time>
      </trkpt>
      <trkpt lat="-2.569386" lon="-78.796646">
        <ele>3185.00</ele>
        <time>2018-09-08T21:18:01Z</time>
      </trkpt>
      <trkpt lat="-2.569396" lon="-78.796730">
        <ele>3186.00</ele>
        <time>2018-09-08T21:18:02Z</time>
      </trkpt>
      <trkpt lat="-2.569369" lon="-78.796814">
        <ele>3187.00</ele>
        <time>2018-09-08T21:18:03Z</time>
      </trkpt>
      <trkpt lat="-2.569330" lon="-78.796913">
        <ele>3188.00</ele>
        <time>2018-09-08T21:18:04Z</time>
      </trkpt>
      <trkpt lat="-2.569316" lon="-78.796997">
        <ele>3189.00</ele>
        <time>2018-09-08T21:18:05Z</time>
      </trkpt>
      <trkpt lat="-2.569348" lon="-78.797081">
        <ele>3190.00</ele>
        <time>2018-09-08T21:18:06Z</time>
      </trkpt>
      <trkpt lat="-2.569402" lon="-78.797165">
        <ele>3191.00</ele>
        <time>2018-09-08T21:18:07Z</time>
      </trkpt>
      <trkpt lat="-2.569468" lon="-78.797272">
        <ele>3192.00</ele>
        <time>2018-09-08T21:18:08Z</time>
      </trkpt>
      <trkpt lat="-2.569521" lon="-78.797394">
        <ele>3192.00</ele>
        <time>2018-09-08T21:18:09Z</time>
      </trkpt>
      <trkpt lat="-2.569560" lon="-78.797501">
        <ele>3192.00</ele>
        <time>2018-09-08T21:18:10Z</time>
      </trkpt>
      <trkpt lat="-2.569613" lon="-78.797607">
        <ele>3193.00</ele>
        <time>2018-09-08T21:18:11Z</time>
      </trkpt>
      <trkpt lat="-2.569699" lon="-78.797691">
        <ele>3193.00</ele>
        <time>2018-09-08T21:18:12Z</time>
      </trkpt>
      <trkpt lat="-2.569814" lon="-78.797752">
        <ele>3194.00</ele>
        <time>2018-09-08T21:18:13Z</time>
      </trkpt>
      <trkpt lat="-2.569923" lon="-78.797829">
        <ele>3194.00</ele>
        <time>2018-09-08T21:18:14Z</time>
      </trkpt>
      <trkpt lat="-2.570016" lon="-78.797935">
        <ele>3194.00</ele>
        <time>2018-09-08T21:18:15Z</time>
      </trkpt>
      <trkpt lat="-2.570096" lon="-78.798035">
        <ele>3195.00</ele>
        <time>2018-09-08T21:18:16Z</time>
      </trkpt>
      <trkpt lat="-2.570168" lon="-78.798126">
        <ele>3195.00</ele>
        <time>2018-09-08T21:18:17Z</time>
      </trkpt>
      <trkpt lat="-2.570255" lon="-78.798210">
        <ele>3195.00</ele>
        <time>2018-09-08T21:18:18Z</time>
      </trkpt>
      <trkpt lat="-2.570356" lon="-78.798279">
        <ele>3195.00</ele>
        <time>2018-09-08T21:18:19Z</time>
      </trkpt>
      <trkpt lat="-2.570454" lon="-78.798317">
        <ele>3194.00</ele>
        <time>2018-09-08T21:18:20Z</time>
      </trkpt>
      <trkpt lat="-2.570533" lon="-78.798386">
        <ele>3194.00</ele>
        <time>2018-09-08T21:18:21Z</time>
      </trkpt>
      <trkpt lat="-2.570585" lon="-78.798492">
        <ele>3194.00</ele>
        <time>2018-09-08T21:18:22Z</time>
      </trkpt>
      <trkpt lat="-2.570632" lon="-78.798584">
        <ele>3194.00</ele>
        <time>2018-09-08T21:18:23Z</time>
      </trkpt>
      <trkpt lat="-2.570670" lon="-78.798683">
        <ele>3194.00</ele>
        <time>2018-09-08T21:18:24Z</time>
      </trkpt>
      <trkpt lat="-2.570676" lon="-78.798782">
        <ele>3194.00</ele>
        <time>2018-09-08T21:18:25Z</time>
      </trkpt>
      <trkpt lat="-2.570652" lon="-78.798882">
        <ele>3194.00</ele>
        <time>2018-09-08T21:18:26Z</time>
      </trkpt>
      <trkpt lat="-2.570614" lon="-78.798981">
        <ele>3194.00</ele>
        <time>2018-09-08T21:18:27Z</time>
      </trkpt>
      <trkpt lat="-2.570580" lon="-78.799057">
        <ele>3193.00</ele>
        <time>2018-09-08T21:18:28Z</time>
      </trkpt>
      <trkpt lat="-2.570588" lon="-78.799149">
        <ele>3193.00</ele>
        <time>2018-09-08T21:18:29Z</time>
      </trkpt>
      <trkpt lat="-2.570645" lon="-78.799232">
        <ele>3193.00</ele>
        <time>2018-09-08T21:18:30Z</time>
      </trkpt>
      <trkpt lat="-2.570713" lon="-78.799324">
        <ele>3193.00</ele>
        <time>2018-09-08T21:18:31Z</time>
      </trkpt>
      <trkpt lat="-2.570787" lon="-78.799416">
        <ele>3192.00</ele>
        <time>2018-09-08T21:18:32Z</time>
      </trkpt>
      <trkpt lat="-2.570868" lon="-78.799492">
        <ele>3192.00</ele>
        <time>2018-09-08T21:18:33Z</time>
      </trkpt>
      <trkpt lat="-2.570975" lon="-78.799515">
        <ele>3192.00</ele>
        <time>2018-09-08T21:18:34Z</time>
      </trkpt>
      <trkpt lat="-2.571110" lon="-78.799500">
        <ele>3192.00</ele>
        <time>2018-09-08T21:18:35Z</time>
      </trkpt>
      <trkpt lat="-2.571246" lon="-78.799500">
        <ele>3191.00</ele>
        <time>2018-09-08T21:18:36Z</time>
      </trkpt>
      <trkpt lat="-2.571369" lon="-78.799515">
        <ele>3191.00</ele>
        <time>2018-09-08T21:18:37Z</time>
      </trkpt>
      <trkpt lat="-2.571472" lon="-78.799530">
        <ele>3190.00</ele>
        <time>2018-09-08T21:18:38Z</time>
      </trkpt>
      <trkpt lat="-2.571544" lon="-78.799568">
        <ele>3190.00</ele>
        <time>2018-09-08T21:18:39Z</time>
      </trkpt>
      <trkpt lat="-2.571592" lon="-78.799629">
        <ele>3189.00</ele>
        <time>2018-09-08T21:18:40Z</time>
      </trkpt>
      <trkpt lat="-2.571605" lon="-78.799721">
        <ele>3189.00</ele>
        <time>2018-09-08T21:18:41Z</time>
      </trkpt>
      <trkpt lat="-2.571591" lon="-78.799843">
        <ele>3188.00</ele>
        <time>2018-09-08T21:18:42Z</time>
      </trkpt>
      <trkpt lat="-2.571575" lon="-78.799980">
        <ele>3188.00</ele>
        <time>2018-09-08T21:18:43Z</time>
      </trkpt>
      <trkpt lat="-2.571558" lon="-78.800117">
        <ele>3188.00</ele>
        <time>2018-09-08T21:18:44Z</time>
      </trkpt>
      <trkpt lat="-2.571544" lon="-78.800270">
        <ele>3188.00</ele>
        <time>2018-09-08T21:18:45Z</time>
      </trkpt>
      <trkpt lat="-2.571531" lon="-78.800392">
        <ele>3188.00</ele>
        <time>2018-09-08T21:18:46Z</time>
      </trkpt>
      <trkpt lat="-2.571534" lon="-78.800514">
        <ele>3189.00</ele>
        <time>2018-09-08T21:18:47Z</time>
      </trkpt>
      <trkpt lat="-2.571563" lon="-78.800629">
        <ele>3189.00</ele>
        <time>2018-09-08T21:18:48Z</time>
      </trkpt>
      <trkpt lat="-2.571615" lon="-78.800743">
        <ele>3189.00</ele>
        <time>2018-09-08T21:18:49Z</time>
      </trkpt>
      <trkpt lat="-2.571677" lon="-78.800873">
        <ele>3189.00</ele>
        <time>2018-09-08T21:18:50Z</time>
      </trkpt>
      <trkpt lat="-2.571734" lon="-78.801003">
        <ele>3189.00</ele>
        <time>2018-09-08T21:18:51Z</time>
      </trkpt>
      <trkpt lat="-2.571804" lon="-78.801109">
        <ele>3190.00</ele>
        <time>2018-09-08T21:18:52Z</time>
      </trkpt>
      <trkpt lat="-2.571909" lon="-78.801208">
        <ele>3190.00</ele>
        <time>2018-09-08T21:18:53Z</time>
      </trkpt>
      <trkpt lat="-2.572033" lon="-78.801292">
        <ele>3190.00</ele>
        <time>2018-09-08T21:18:54Z</time>
      </trkpt>
      <trkpt lat="-2.572163" lon="-78.801353">
        <ele>3189.00</ele>
        <time>2018-09-08T21:18:55Z</time>
      </trkpt>
      <trkpt lat="-2.572281" lon="-78.801414">
        <ele>3189.00</ele>
        <time>2018-09-08T21:18:56Z</time>
      </trkpt>
      <trkpt lat="-2.572373" lon="-78.801476">
        <ele>3189.00</ele>
        <time>2018-09-08T21:18:57Z</time>
      </trkpt>
      <trkpt lat="-2.572438" lon="-78.801567">
        <ele>3188.00</ele>
        <time>2018-09-08T21:18:58Z</time>
      </trkpt>
      <trkpt lat="-2.572483" lon="-78.801659">
        <ele>3188.00</ele>
        <time>2018-09-08T21:18:59Z</time>
      </trkpt>
      <trkpt lat="-2.572500" lon="-78.801765">
        <ele>3188.00</ele>
        <time>2018-09-08T21:19:00Z</time>
      </trkpt>
      <trkpt lat="-2.572520" lon="-78.801872">
        <ele>3188.00</ele>
        <time>2018-09-08T21:19:01Z</time>
      </trkpt>
      <trkpt lat="-2.572584" lon="-78.801971">
        <ele>3187.00</ele>
        <time>2018-09-08T21:19:02Z</time>
      </trkpt>
      <trkpt lat="-2.572657" lon="-78.802078">
        <ele>3187.00</ele>
        <time>2018-09-08T21:19:03Z</time>
      </trkpt>
      <trkpt lat="-2.572722" lon="-78.802208">
        <ele>3187.00</ele>
        <time>2018-09-08T21:19:04Z</time>
      </trkpt>
      <trkpt lat="-2.572782" lon="-78.802345">
        <ele>3187.00</ele>
        <time>2018-09-08T21:19:05Z</time>
      </trkpt>
      <trkpt lat="-2.572846" lon="-78.802490">
        <ele>3187.00</ele>
        <time>2018-09-08T21:19:06Z</time>
      </trkpt>
      <trkpt lat="-2.572906" lon="-78.802620">
        <ele>3187.00</ele>
        <time>2018-09-08T21:19:07Z</time>
      </trkpt>
      <trkpt lat="-2.572944" lon="-78.802750">
        <ele>3187.00</ele>
        <time>2018-09-08T21:19:08Z</time>
      </trkpt>
      <trkpt lat="-2.572997" lon="-78.802864">
        <ele>3186.00</ele>
        <time>2018-09-08T21:19:09Z</time>
      </trkpt>
      <trkpt lat="-2.573084" lon="-78.802971">
        <ele>3186.00</ele>
        <time>2018-09-08T21:19:10Z</time>
      </trkpt>
      <trkpt lat="-2.573171" lon="-78.803078">
        <ele>3186.00</ele>
        <time>2018-09-08T21:19:11Z</time>
      </trkpt>
      <trkpt lat="-2.573242" lon="-78.803192">
        <ele>3186.00</ele>
        <time>2018-09-08T21:19:12Z</time>
      </trkpt>
      <trkpt lat="-2.573284" lon="-78.803299">
        <ele>3186.00</ele>
        <time>2018-09-08T21:19:13Z</time>
      </trkpt>
      <trkpt lat="-2.573311" lon="-78.803398">
        <ele>3185.00</ele>
        <time>2018-09-08T21:19:14Z</time>
      </trkpt>
      <trkpt lat="-2.573298" lon="-78.803505">
        <ele>3185.00</ele>
        <time>2018-09-08T21:19:15Z</time>
      </trkpt>
      <trkpt lat="-2.573261" lon="-78.803627">
        <ele>3185.00</ele>
        <time>2018-09-08T21:19:16Z</time>
      </trkpt>
      <trkpt lat="-2.573204" lon="-78.803757">
        <ele>3185.00</ele>
        <time>2018-09-08T21:19:17Z</time>
      </trkpt>
      <trkpt lat="-2.573136" lon="-78.803886">
        <ele>3185.00</ele>
        <time>2018-09-08T21:19:18Z</time>
      </trkpt>
      <trkpt lat="-2.573071" lon="-78.803986">
        <ele>3184.00</ele>
        <time>2018-09-08T21:19:19Z</time>
      </trkpt>
      <trkpt lat="-2.573034" lon="-78.804100">
        <ele>3184.00</ele>
        <time>2018-09-08T21:19:20Z</time>
      </trkpt>
      <trkpt lat="-2.573030" lon="-78.804199">
        <ele>3184.00</ele>
        <time>2018-09-08T21:19:21Z</time>
      </trkpt>
      <trkpt lat="-2.573016" lon="-78.804314">
        <ele>3184.00</ele>
        <time>2018-09-08T21:19:22Z</time>
      </trkpt>
      <trkpt lat="-2.572974" lon="-78.804420">
        <ele>3184.00</ele>
        <time>2018-09-08T21:19:23Z</time>
      </trkpt>
      <trkpt lat="-2.572877" lon="-78.804504">
        <ele>3184.00</ele>
        <time>2018-09-08T21:19:24Z</time>
      </trkpt>
      <trkpt lat="-2.572761" lon="-78.804588">
        <ele>3184.00</ele>
        <time>2018-09-08T21:19:25Z</time>
      </trkpt>
      <trkpt lat="-2.572642" lon="-78.804634">
        <ele>3184.00</ele>
        <time>2018-09-08T21:19:26Z</time>
      </trkpt>
      <trkpt lat="-2.572525" lon="-78.804665">
        <ele>3184.00</ele>
        <time>2018-09-08T21:19:27Z</time>
      </trkpt>
      <trkpt lat="-2.572431" lon="-78.804695">
        <ele>3184.00</ele>
        <time>2018-09-08T21:19:28Z</time>
      </trkpt>
      <trkpt lat="-2.572351" lon="-78.804749">
        <ele>3184.00</ele>
        <time>2018-09-08T21:19:29Z</time>
      </trkpt>
      <trkpt lat="-2.572303" lon="-78.804817">
        <ele>3184.00</ele>
        <time>2018-09-08T21:19:30Z</time>
      </trkpt>
      <trkpt lat="-2.572309" lon="-78.804901">
        <ele>3185.00</ele>
        <time>2018-09-08T21:19:31Z</time>
      </trkpt>
      <trkpt lat="-2.572342" lon="-78.805008">
        <ele>3185.00</ele>
        <time>2018-09-08T21:19:32Z</time>
      </trkpt>
      <trkpt lat="-2.572351" lon="-78.805115">
        <ele>3185.00</ele>
        <time>2018-09-08T21:19:33Z</time>
      </trkpt>
      <trkpt lat="-2.572319" lon="-78.805199">
        <ele>3185.00</ele>
        <time>2018-09-08T21:19:34Z</time>
      </trkpt>
      <trkpt lat="-2.572256" lon="-78.805305">
        <ele>3185.00</ele>
        <time>2018-09-08T21:19:35Z</time>
      </trkpt>
      <trkpt lat="-2.572193" lon="-78.805428">
        <ele>3185.00</ele>
        <time>2018-09-08T21:19:36Z</time>
      </trkpt>
      <trkpt lat="-2.572155" lon="-78.805557">
        <ele>3185.00</ele>
        <time>2018-09-08T21:19:37Z</time>
      </trkpt>
      <trkpt lat="-2.572133" lon="-78.805664">
        <ele>3185.00</ele>
        <time>2018-09-08T21:19:38Z</time>
      </trkpt>
      <trkpt lat="-2.572103" lon="-78.805763">
        <ele>3185.00</ele>
        <time>2018-09-08T21:19:39Z</time>
      </trkpt>
      <trkpt lat="-2.572049" lon="-78.805878">
        <ele>3185.00</ele>
        <time>2018-09-08T21:19:40Z</time>
      </trkpt>
      <trkpt lat="-2.571987" lon="-78.806000">
        <ele>3185.00</ele>
        <time>2018-09-08T21:19:41Z</time>
      </trkpt>
      <trkpt lat="-2.571936" lon="-78.806122">
        <ele>3184.00</ele>
        <time>2018-09-08T21:19:42Z</time>
      </trkpt>
      <trkpt lat="-2.571935" lon="-78.806259">
        <ele>3184.00</ele>
        <time>2018-09-08T21:19:43Z</time>
      </trkpt>
      <trkpt lat="-2.571967" lon="-78.806396">
        <ele>3184.00</ele>
        <time>2018-09-08T21:19:44Z</time>
      </trkpt>
      <trkpt lat="-2.572002" lon="-78.806549">
        <ele>3184.00</ele>
        <time>2018-09-08T21:19:45Z</time>
      </trkpt>
      <trkpt lat="-2.572023" lon="-78.806686">
        <ele>3184.00</ele>
        <time>2018-09-08T21:19:46Z</time>
      </trkpt>
      <trkpt lat="-2.572048" lon="-78.806808">
        <ele>3183.00</ele>
        <time>2018-09-08T21:19:47Z</time>
      </trkpt>
      <trkpt lat="-2.572095" lon="-78.806915">
        <ele>3183.00</ele>
        <time>2018-09-08T21:19:48Z</time>
      </trkpt>
      <trkpt lat="-2.572177" lon="-78.806999">
        <ele>3183.00</ele>
        <time>2018-09-08T21:19:49Z</time>
      </trkpt>
      <trkpt lat="-2.572292" lon="-78.807060">
        <ele>3183.00</ele>
        <time>2018-09-08T21:19:50Z</time>
      </trkpt>
      <trkpt lat="-2.572419" lon="-78.807106">
        <ele>3182.00</ele>
        <time>2018-09-08T21:19:51Z</time>
      </trkpt>
      <trkpt lat="-2.572559" lon="-78.807137">
        <ele>3182.00</ele>
        <time>2018-09-08T21:19:52Z</time>
      </trkpt>
      <trkpt lat="-2.572701" lon="-78.807182">
        <ele>3182.00</ele>
        <time>2018-09-08T21:19:53Z</time>
      </trkpt>
      <trkpt lat="-2.572833" lon="-78.807243">
        <ele>3182.00</ele>
        <time>2018-09-08T21:19:54Z</time>
      </trkpt>
      <trkpt lat="-2.572948" lon="-78.807304">
        <ele>3182.00</ele>
        <time>2018-09-08T21:19:55Z</time>
      </trkpt>
      <trkpt lat="-2.573052" lon="-78.807388">
        <ele>3182.00</ele>
        <time>2018-09-08T21:19:56Z</time>
      </trkpt>
      <trkpt lat="-2.573177" lon="-78.807419">
        <ele>3182.00</ele>
        <time>2018-09-08T21:19:57Z</time>
      </trkpt>
      <trkpt lat="-2.573316" lon="-78.807449">
        <ele>3182.00</ele>
        <time>2018-09-08T21:19:58Z</time>
      </trkpt>
      <trkpt lat="-2.573439" lon="-78.807442">
        <ele>3182.00</ele>
        <time>2018-09-08T21:19:59Z</time>
      </trkpt>
      <trkpt lat="-2.573540" lon="-78.807449">
        <ele>3182.00</ele>
        <time>2018-09-08T21:20:00Z</time>
      </trkpt>
      <trkpt lat="-2.573618" lon="-78.807495">
        <ele>3183.00</ele>
        <time>2018-09-08T21:20:01Z</time>
      </trkpt>
      <trkpt lat="-2.573681" lon="-78.807571">
        <ele>3183.00</ele>
        <time>2018-09-08T21:20:02Z</time>
      </trkpt>
      <trkpt lat="-2.573764" lon="-78.807602">
        <ele>3183.00</ele>
        <time>2018-09-08T21:20:03Z</time>
      </trkpt>
      <trkpt lat="-2.573864" lon="-78.807579">
        <ele>3183.00</ele>
        <time>2018-09-08T21:20:04Z</time>
      </trkpt>
      <trkpt lat="-2.573981" lon="-78.807571">
        <ele>3183.00</ele>
        <time>2018-09-08T21:20:05Z</time>
      </trkpt>
      <trkpt lat="-2.574108" lon="-78.807571">
        <ele>3184.00</ele>
        <time>2018-09-08T21:20:06Z</time>
      </trkpt>
      <trkpt lat="-2.574239" lon="-78.807594">
        <ele>3184.00</ele>
        <time>2018-09-08T21:20:07Z</time>
      </trkpt>
      <trkpt lat="-2.574369" lon="-78.807617">
        <ele>3184.00</ele>
        <time>2018-09-08T21:20:08Z</time>
      </trkpt>
      <trkpt lat="-2.574493" lon="-78.807671">
        <ele>3184.00</ele>
        <time>2018-09-08T21:20:09Z</time>
      </trkpt>
      <trkpt lat="-2.574604" lon="-78.807739">
        <ele>3184.00</ele>
        <time>2018-09-08T21:20:10Z</time>
      </trkpt>
      <trkpt lat="-2.574723" lon="-78.807816">
        <ele>3184.00</ele>
        <time>2018-09-08T21:20:11Z</time>
      </trkpt>
      <trkpt lat="-2.574855" lon="-78.807861">
        <ele>3184.00</ele>
        <time>2018-09-08T21:20:12Z</time>
      </trkpt>
      <trkpt lat="-2.574987" lon="-78.807899">
        <ele>3184.00</ele>
        <time>2018-09-08T21:20:13Z</time>
      </trkpt>
      <trkpt lat="-2.575091" lon="-78.807930">
        <ele>3184.00</ele>
        <time>2018-09-08T21:20:14Z</time>
      </trkpt>
      <trkpt lat="-2.575174" lon="-78.807976">
        <ele>3184.00</ele>
        <time>2018-09-08T21:20:15Z</time>
      </trkpt>
      <trkpt lat="-2.575234" lon="-78.808037">
        <ele>3184.00</ele>
        <time>2018-09-08T21:20:16Z</time>
      </trkpt>
      <trkpt lat="-2.575274" lon="-78.808144">
        <ele>3184.00</ele>
        <time>2018-09-08T21:20:17Z</time>
      </trkpt>
      <trkpt lat="-2.575335" lon="-78.808220">
        <ele>3184.00</ele>
        <time>2018-09-08T21:20:18Z</time>
      </trkpt>
      <trkpt lat="-2.575426" lon="-78.808281">
        <ele>3184.00</ele>
        <time>2018-09-08T21:20:19Z</time>
      </trkpt>
      <trkpt lat="-2.575539" lon="-78.808304">
        <ele>3184.00</ele>
        <time>2018-09-08T21:20:20Z</time>
      </trkpt>
      <trkpt lat="-2.575656" lon="-78.808281">
        <ele>3184.00</ele>
        <time>2018-09-08T21:20:21Z</time>
      </trkpt>
      <trkpt lat="-2.575778" lon="-78.808258">
        <ele>3184.00</ele>
        <time>2018-09-08T21:20:22Z</time>
      </trkpt>
      <trkpt lat="-2.575900" lon="-78.808258">
        <ele>3184.00</ele>
        <time>2018-09-08T21:20:23Z</time>
      </trkpt>
      <trkpt lat="-2.576018" lon="-78.808273">
        <ele>3184.00</ele>
        <time>2018-09-08T21:20:24Z</time>
      </trkpt>
      <trkpt lat="-2.576119" lon="-78.808319">
        <ele>3184.00</ele>
        <time>2018-09-08T21:20:25Z</time>
      </trkpt>
      <trkpt lat="-2.576200" lon="-78.808365">
        <ele>3184.00</ele>
        <time>2018-09-08T21:20:26Z</time>
      </trkpt>
      <trkpt lat="-2.576274" lon="-78.808411">
        <ele>3184.00</ele>
        <time>2018-09-08T21:20:27Z</time>
      </trkpt>
      <trkpt lat="-2.576334" lon="-78.808434">
        <ele>3184.00</ele>
        <time>2018-09-08T21:20:28Z</time>
      </trkpt>
      <trkpt lat="-2.576396" lon="-78.808472">
        <ele>3184.00</ele>
        <time>2018-09-08T21:20:29Z</time>
      </trkpt>
      <trkpt lat="-2.576467" lon="-78.808517">
        <ele>3184.00</ele>
        <time>2018-09-08T21:20:30Z</time>
      </trkpt>
      <trkpt lat="-2.576551" lon="-78.808578">
        <ele>3184.00</ele>
        <time>2018-09-08T21:20:31Z</time>
      </trkpt>
      <trkpt lat="-2.576644" lon="-78.808670">
        <ele>3184.00</ele>
        <time>2018-09-08T21:20:32Z</time>
      </trkpt>
      <trkpt lat="-2.576739" lon="-78.808739">
        <ele>3184.00</ele>
        <time>2018-09-08T21:20:33Z</time>
      </trkpt>
      <trkpt lat="-2.576831" lon="-78.808777">
        <ele>3184.00</ele>
        <time>2018-09-08T21:20:34Z</time>
      </trkpt>
      <trkpt lat="-2.576926" lon="-78.808777">
        <ele>3184.00</ele>
        <time>2018-09-08T21:20:35Z</time>
      </trkpt>
      <trkpt lat="-2.577029" lon="-78.808739">
        <ele>3184.00</ele>
        <time>2018-09-08T21:20:36Z</time>
      </trkpt>
      <trkpt lat="-2.577140" lon="-78.808701">
        <ele>3184.00</ele>
        <time>2018-09-08T21:20:37Z</time>
      </trkpt>
      <trkpt lat="-2.577238" lon="-78.808647">
        <ele>3183.00</ele>
        <time>2018-09-08T21:20:38Z</time>
      </trkpt>
      <trkpt lat="-2.577307" lon="-78.808594">
        <ele>3183.00</ele>
        <time>2018-09-08T21:20:39Z</time>
      </trkpt>
      <trkpt lat="-2.577364" lon="-78.808533">
        <ele>3183.00</ele>
        <time>2018-09-08T21:20:40Z</time>
      </trkpt>
      <trkpt lat="-2.577419" lon="-78.808479">
        <ele>3183.00</ele>
        <time>2018-09-08T21:20:41Z</time>
      </trkpt>
      <trkpt lat="-2.577473" lon="-78.808434">
        <ele>3182.00</ele>
        <time>2018-09-08T21:20:42Z</time>
      </trkpt>
      <trkpt lat="-2.577522" lon="-78.808411">
        <ele>3182.00</ele>
        <time>2018-09-08T21:20:43Z</time>
      </trkpt>
      <trkpt lat="-2.577564" lon="-78.808388">
        <ele>3182.00</ele>
        <time>2018-09-08T21:20:44Z</time>
      </trkpt>
      <trkpt lat="-2.577608" lon="-78.808372">
        <ele>3182.00</ele>
        <time>2018-09-08T21:20:45Z</time>
      </trkpt>
      <trkpt lat="-2.577661" lon="-78.808372">
        <ele>3181.00</ele>
        <time>2018-09-08T21:20:46Z</time>
      </trkpt>
      <trkpt lat="-2.577725" lon="-78.808380">
        <ele>3181.00</ele>
        <time>2018-09-08T21:20:47Z</time>
      </trkpt>
      <trkpt lat="-2.577796" lon="-78.808403">
        <ele>3181.00</ele>
        <time>2018-09-08T21:20:48Z</time>
      </trkpt>
      <trkpt lat="-2.577863" lon="-78.808426">
        <ele>3181.00</ele>
        <time>2018-09-08T21:20:49Z</time>
      </trkpt>
      <trkpt lat="-2.577921" lon="-78.808464">
        <ele>3180.00</ele>
        <time>2018-09-08T21:20:50Z</time>
      </trkpt>
      <trkpt lat="-2.577977" lon="-78.808495">
        <ele>3180.00</ele>
        <time>2018-09-08T21:20:51Z</time>
      </trkpt>
      <trkpt lat="-2.578046" lon="-78.808525">
        <ele>3180.00</ele>
        <time>2018-09-08T21:20:52Z</time>
      </trkpt>
      <trkpt lat="-2.578141" lon="-78.808548">
        <ele>3180.00</ele>
        <time>2018-09-08T21:20:53Z</time>
      </trkpt>
      <trkpt lat="-2.578247" lon="-78.808586">
        <ele>3179.00</ele>
        <time>2018-09-08T21:20:54Z</time>
      </trkpt>
      <trkpt lat="-2.578370" lon="-78.808624">
        <ele>3179.00</ele>
        <time>2018-09-08T21:20:55Z</time>
      </trkpt>
      <trkpt lat="-2.578499" lon="-78.808647">
        <ele>3178.00</ele>
        <time>2018-09-08T21:20:56Z</time>
      </trkpt>
      <trkpt lat="-2.578615" lon="-78.808655">
        <ele>3178.00</ele>
        <time>2018-09-08T21:20:57Z</time>
      </trkpt>
      <trkpt lat="-2.578705" lon="-78.808670">
        <ele>3178.00</ele>
        <time>2018-09-08T21:20:58Z</time>
      </trkpt>
      <trkpt lat="-2.578774" lon="-78.808701">
        <ele>3177.00</ele>
        <time>2018-09-08T21:20:59Z</time>
      </trkpt>
      <trkpt lat="-2.578816" lon="-78.808762">
        <ele>3177.00</ele>
        <time>2018-09-08T21:21:00Z</time>
      </trkpt>
      <trkpt lat="-2.578827" lon="-78.808868">
        <ele>3177.00</ele>
        <time>2018-09-08T21:21:01Z</time>
      </trkpt>
      <trkpt lat="-2.578839" lon="-78.808975">
        <ele>3176.00</ele>
        <time>2018-09-08T21:21:02Z</time>
      </trkpt>
      <trkpt lat="-2.578904" lon="-78.809074">
        <ele>3176.00</ele>
        <time>2018-09-08T21:21:03Z</time>
      </trkpt>
      <trkpt lat="-2.578993" lon="-78.809174">
        <ele>3176.00</ele>
        <time>2018-09-08T21:21:04Z</time>
      </trkpt>
      <trkpt lat="-2.579102" lon="-78.809273">
        <ele>3175.00</ele>
        <time>2018-09-08T21:21:05Z</time>
      </trkpt>
      <trkpt lat="-2.579227" lon="-78.809357">
        <ele>3175.00</ele>
        <time>2018-09-08T21:21:06Z</time>
      </trkpt>
      <trkpt lat="-2.579360" lon="-78.809425">
        <ele>3175.00</ele>
        <time>2018-09-08T21:21:07Z</time>
      </trkpt>
      <trkpt lat="-2.579506" lon="-78.809464">
        <ele>3175.00</ele>
        <time>2018-09-08T21:21:08Z</time>
      </trkpt>
      <trkpt lat="-2.579663" lon="-78.809509">
        <ele>3174.00</ele>
        <time>2018-09-08T21:21:09Z</time>
      </trkpt>
      <trkpt lat="-2.579814" lon="-78.809563">
        <ele>3174.00</ele>
        <time>2018-09-08T21:21:10Z</time>
      </trkpt>
      <trkpt lat="-2.579957" lon="-78.809608">
        <ele>3174.00</ele>
        <time>2018-09-08T21:21:11Z</time>
      </trkpt>
      <trkpt lat="-2.580087" lon="-78.809639">
        <ele>3174.00</ele>
        <time>2018-09-08T21:21:12Z</time>
      </trkpt>
      <trkpt lat="-2.580187" lon="-78.809654">
        <ele>3173.00</ele>
        <time>2018-09-08T21:21:13Z</time>
      </trkpt>
      <trkpt lat="-2.580270" lon="-78.809692">
        <ele>3173.00</ele>
        <time>2018-09-08T21:21:14Z</time>
      </trkpt>
      <trkpt lat="-2.580348" lon="-78.809761">
        <ele>3173.00</ele>
        <time>2018-09-08T21:21:15Z</time>
      </trkpt>
      <trkpt lat="-2.580444" lon="-78.809830">
        <ele>3173.00</ele>
        <time>2018-09-08T21:21:16Z</time>
      </trkpt>
      <trkpt lat="-2.580547" lon="-78.809891">
        <ele>3173.00</ele>
        <time>2018-09-08T21:21:17Z</time>
      </trkpt>
      <trkpt lat="-2.580652" lon="-78.809944">
        <ele>3173.00</ele>
        <time>2018-09-08T21:21:18Z</time>
      </trkpt>
      <trkpt lat="-2.580751" lon="-78.810020">
        <ele>3173.00</ele>
        <time>2018-09-08T21:21:19Z</time>
      </trkpt>
      <trkpt lat="-2.580873" lon="-78.810097">
        <ele>3173.00</ele>
        <time>2018-09-08T21:21:20Z</time>
      </trkpt>
      <trkpt lat="-2.580999" lon="-78.810196">
        <ele>3172.00</ele>
        <time>2018-09-08T21:21:21Z</time>
      </trkpt>
      <trkpt lat="-2.581129" lon="-78.810295">
        <ele>3172.00</ele>
        <time>2018-09-08T21:21:22Z</time>
      </trkpt>
      <trkpt lat="-2.581251" lon="-78.810379">
        <ele>3172.00</ele>
        <time>2018-09-08T21:21:23Z</time>
      </trkpt>
      <trkpt lat="-2.581361" lon="-78.810471">
        <ele>3172.00</ele>
        <time>2018-09-08T21:21:24Z</time>
      </trkpt>
      <trkpt lat="-2.581478" lon="-78.810562">
        <ele>3171.00</ele>
        <time>2018-09-08T21:21:25Z</time>
      </trkpt>
      <trkpt lat="-2.581611" lon="-78.810623">
        <ele>3171.00</ele>
        <time>2018-09-08T21:21:26Z</time>
      </trkpt>
      <trkpt lat="-2.581743" lon="-78.810692">
        <ele>3171.00</ele>
        <time>2018-09-08T21:21:27Z</time>
      </trkpt>
      <trkpt lat="-2.581864" lon="-78.810776">
        <ele>3170.00</ele>
        <time>2018-09-08T21:21:28Z</time>
      </trkpt>
      <trkpt lat="-2.581973" lon="-78.810860">
        <ele>3170.00</ele>
        <time>2018-09-08T21:21:29Z</time>
      </trkpt>
      <trkpt lat="-2.582064" lon="-78.810936">
        <ele>3169.00</ele>
        <time>2018-09-08T21:21:30Z</time>
      </trkpt>
      <trkpt lat="-2.582139" lon="-78.810997">
        <ele>3169.00</ele>
        <time>2018-09-08T21:21:31Z</time>
      </trkpt>
      <trkpt lat="-2.582197" lon="-78.811066">
        <ele>3168.00</ele>
        <time>2018-09-08T21:21:32Z</time>
      </trkpt>
      <trkpt lat="-2.582243" lon="-78.811150">
        <ele>3168.00</ele>
        <time>2018-09-08T21:21:33Z</time>
      </trkpt>
      <trkpt lat="-2.582280" lon="-78.811234">
        <ele>3167.00</ele>
        <time>2018-09-08T21:21:34Z</time>
      </trkpt>
      <trkpt lat="-2.582309" lon="-78.811333">
        <ele>3166.00</ele>
        <time>2018-09-08T21:21:35Z</time>
      </trkpt>
      <trkpt lat="-2.582338" lon="-78.811432">
        <ele>3166.00</ele>
        <time>2018-09-08T21:21:36Z</time>
      </trkpt>
      <trkpt lat="-2.582362" lon="-78.811508">
        <ele>3165.00</ele>
        <time>2018-09-08T21:21:37Z</time>
      </trkpt>
      <trkpt lat="-2.582386" lon="-78.811615">
        <ele>3164.00</ele>
        <time>2018-09-08T21:21:38Z</time>
      </trkpt>
      <trkpt lat="-2.582417" lon="-78.811714">
        <ele>3163.00</ele>
        <time>2018-09-08T21:21:39Z</time>
      </trkpt>
      <trkpt lat="-2.582444" lon="-78.811798">
        <ele>3163.00</ele>
        <time>2018-09-08T21:21:40Z</time>
      </trkpt>
      <trkpt lat="-2.582454" lon="-78.811874">
        <ele>3162.00</ele>
        <time>2018-09-08T21:21:41Z</time>
      </trkpt>
      <trkpt lat="-2.582443" lon="-78.811958">
        <ele>3161.00</ele>
        <time>2018-09-08T21:21:42Z</time>
      </trkpt>
      <trkpt lat="-2.582427" lon="-78.812027">
        <ele>3161.00</ele>
        <time>2018-09-08T21:21:43Z</time>
      </trkpt>
      <trkpt lat="-2.582417" lon="-78.812088">
        <ele>3160.00</ele>
        <time>2018-09-08T21:21:44Z</time>
      </trkpt>
      <trkpt lat="-2.582411" lon="-78.812157">
        <ele>3159.00</ele>
        <time>2018-09-08T21:21:45Z</time>
      </trkpt>
      <trkpt lat="-2.582424" lon="-78.812241">
        <ele>3159.00</ele>
        <time>2018-09-08T21:21:46Z</time>
      </trkpt>
      <trkpt lat="-2.582461" lon="-78.812309">
        <ele>3159.00</ele>
        <time>2018-09-08T21:21:47Z</time>
      </trkpt>
      <trkpt lat="-2.582513" lon="-78.812386">
        <ele>3158.00</ele>
        <time>2018-09-08T21:21:48Z</time>
      </trkpt>
      <trkpt lat="-2.582573" lon="-78.812439">
        <ele>3158.00</ele>
        <time>2018-09-08T21:21:49Z</time>
      </trkpt>
      <trkpt lat="-2.582624" lon="-78.812508">
        <ele>3158.00</ele>
        <time>2018-09-08T21:21:50Z</time>
      </trkpt>
      <trkpt lat="-2.582657" lon="-78.812584">
        <ele>3157.00</ele>
        <time>2018-09-08T21:21:51Z</time>
      </trkpt>
      <trkpt lat="-2.582679" lon="-78.812683">
        <ele>3157.00</ele>
        <time>2018-09-08T21:21:52Z</time>
      </trkpt>
      <trkpt lat="-2.582686" lon="-78.812767">
        <ele>3156.00</ele>
        <time>2018-09-08T21:21:53Z</time>
      </trkpt>
      <trkpt lat="-2.582692" lon="-78.812836">
        <ele>3156.00</ele>
        <time>2018-09-08T21:21:54Z</time>
      </trkpt>
      <trkpt lat="-2.582707" lon="-78.812897">
        <ele>3156.00</ele>
        <time>2018-09-08T21:21:55Z</time>
      </trkpt>
      <trkpt lat="-2.582724" lon="-78.812950">
        <ele>3156.00</ele>
        <time>2018-09-08T21:21:56Z</time>
      </trkpt>
      <trkpt lat="-2.582741" lon="-78.812996">
        <ele>3156.00</ele>
        <time>2018-09-08T21:21:57Z</time>
      </trkpt>
      <trkpt lat="-2.582752" lon="-78.813019">
        <ele>3156.00</ele>
        <time>2018-09-08T21:21:58Z</time>
      </trkpt>
      <trkpt lat="-2.582765" lon="-78.813057">
        <ele>3156.00</ele>
        <time>2018-09-08T21:21:59Z</time>
      </trkpt>
      <trkpt lat="-2.582779" lon="-78.813103">
        <ele>3156.00</ele>
        <time>2018-09-08T21:22:00Z</time>
      </trkpt>
      <trkpt lat="-2.582793" lon="-78.813148">
        <ele>3156.00</ele>
        <time>2018-09-08T21:22:01Z</time>
      </trkpt>
      <trkpt lat="-2.582807" lon="-78.813194">
        <ele>3156.00</ele>
        <time>2018-09-08T21:22:02Z</time>
      </trkpt>
      <trkpt lat="-2.582820" lon="-78.813232">
        <ele>3155.00</ele>
        <time>2018-09-08T21:22:03Z</time>
      </trkpt>
      <trkpt lat="-2.582833" lon="-78.813278">
        <ele>3155.00</ele>
        <time>2018-09-08T21:22:04Z</time>
      </trkpt>
      <trkpt lat="-2.582846" lon="-78.813339">
        <ele>3155.00</ele>
        <time>2018-09-08T21:22:05Z</time>
      </trkpt>
      <trkpt lat="-2.582856" lon="-78.813423">
        <ele>3155.00</ele>
        <time>2018-09-08T21:22:06Z</time>
      </trkpt>
      <trkpt lat="-2.582863" lon="-78.813515">
        <ele>3154.00</ele>
        <time>2018-09-08T21:22:07Z</time>
      </trkpt>
      <trkpt lat="-2.582873" lon="-78.813606">
        <ele>3154.00</ele>
        <time>2018-09-08T21:22:08Z</time>
      </trkpt>
      <trkpt lat="-2.582879" lon="-78.813705">
        <ele>3154.00</ele>
        <time>2018-09-08T21:22:09Z</time>
      </trkpt>
      <trkpt lat="-2.582880" lon="-78.813805">
        <ele>3153.00</ele>
        <time>2018-09-08T21:22:10Z</time>
      </trkpt>
      <trkpt lat="-2.582873" lon="-78.813904">
        <ele>3153.00</ele>
        <time>2018-09-08T21:22:11Z</time>
      </trkpt>
      <trkpt lat="-2.582863" lon="-78.814003">
        <ele>3152.00</ele>
        <time>2018-09-08T21:22:12Z</time>
      </trkpt>
      <trkpt lat="-2.582856" lon="-78.814110">
        <ele>3152.00</ele>
        <time>2018-09-08T21:22:13Z</time>
      </trkpt>
      <trkpt lat="-2.582861" lon="-78.814217">
        <ele>3152.00</ele>
        <time>2018-09-08T21:22:14Z</time>
      </trkpt>
      <trkpt lat="-2.582875" lon="-78.814331">
        <ele>3151.00</ele>
        <time>2018-09-08T21:22:15Z</time>
      </trkpt>
      <trkpt lat="-2.582892" lon="-78.814445">
        <ele>3151.00</ele>
        <time>2018-09-08T21:22:16Z</time>
      </trkpt>
      <trkpt lat="-2.582914" lon="-78.814560">
        <ele>3151.00</ele>
        <time>2018-09-08T21:22:17Z</time>
      </trkpt>
      <trkpt lat="-2.582931" lon="-78.814659">
        <ele>3151.00</ele>
        <time>2018-09-08T21:22:18Z</time>
      </trkpt>
      <trkpt lat="-2.582935" lon="-78.814743">
        <ele>3150.00</ele>
        <time>2018-09-08T21:22:19Z</time>
      </trkpt>
      <trkpt lat="-2.582906" lon="-78.814835">
        <ele>3150.00</ele>
        <time>2018-09-08T21:22:20Z</time>
      </trkpt>
      <trkpt lat="-2.582848" lon="-78.814926">
        <ele>3150.00</ele>
        <time>2018-09-08T21:22:21Z</time>
      </trkpt>
      <trkpt lat="-2.582803" lon="-78.815025">
        <ele>3150.00</ele>
        <time>2018-09-08T21:22:22Z</time>
      </trkpt>
      <trkpt lat="-2.582778" lon="-78.815132">
        <ele>3149.00</ele>
        <time>2018-09-08T21:22:23Z</time>
      </trkpt>
      <trkpt lat="-2.582766" lon="-78.815247">
        <ele>3149.00</ele>
        <time>2018-09-08T21:22:24Z</time>
      </trkpt>
      <trkpt lat="-2.582745" lon="-78.815361">
        <ele>3149.00</ele>
        <time>2018-09-08T21:22:25Z</time>
      </trkpt>
      <trkpt lat="-2.582726" lon="-78.815483">
        <ele>3149.00</ele>
        <time>2018-09-08T21:22:26Z</time>
      </trkpt>
      <trkpt lat="-2.582713" lon="-78.815605">
        <ele>3149.00</ele>
        <time>2018-09-08T21:22:27Z</time>
      </trkpt>
      <trkpt lat="-2.582709" lon="-78.815735">
        <ele>3149.00</ele>
        <time>2018-09-08T21:22:28Z</time>
      </trkpt>
      <trkpt lat="-2.582699" lon="-78.815857">
        <ele>3149.00</ele>
        <time>2018-09-08T21:22:29Z</time>
      </trkpt>
      <trkpt lat="-2.582685" lon="-78.815971">
        <ele>3149.00</ele>
        <time>2018-09-08T21:22:30Z</time>
      </trkpt>
      <trkpt lat="-2.582670" lon="-78.816086">
        <ele>3149.00</ele>
        <time>2018-09-08T21:22:31Z</time>
      </trkpt>
      <trkpt lat="-2.582654" lon="-78.816208">
        <ele>3149.00</ele>
        <time>2018-09-08T21:22:32Z</time>
      </trkpt>
      <trkpt lat="-2.582639" lon="-78.816315">
        <ele>3149.00</ele>
        <time>2018-09-08T21:22:33Z</time>
      </trkpt>
      <trkpt lat="-2.582625" lon="-78.816406">
        <ele>3149.00</ele>
        <time>2018-09-08T21:22:34Z</time>
      </trkpt>
      <trkpt lat="-2.582626" lon="-78.816505">
        <ele>3149.00</ele>
        <time>2018-09-08T21:22:35Z</time>
      </trkpt>
      <trkpt lat="-2.582651" lon="-78.816612">
        <ele>3149.00</ele>
        <time>2018-09-08T21:22:36Z</time>
      </trkpt>
      <trkpt lat="-2.582688" lon="-78.816704">
        <ele>3148.00</ele>
        <time>2018-09-08T21:22:37Z</time>
      </trkpt>
      <trkpt lat="-2.582722" lon="-78.816780">
        <ele>3148.00</ele>
        <time>2018-09-08T21:22:38Z</time>
      </trkpt>
      <trkpt lat="-2.582743" lon="-78.816864">
        <ele>3148.00</ele>
        <time>2018-09-08T21:22:39Z</time>
      </trkpt>
      <trkpt lat="-2.582745" lon="-78.816948">
        <ele>3148.00</ele>
        <time>2018-09-08T21:22:40Z</time>
      </trkpt>
      <trkpt lat="-2.582738" lon="-78.817047">
        <ele>3148.00</ele>
        <time>2018-09-08T21:22:41Z</time>
      </trkpt>
      <trkpt lat="-2.582722" lon="-78.817154">
        <ele>3148.00</ele>
        <time>2018-09-08T21:22:42Z</time>
      </trkpt>
      <trkpt lat="-2.582703" lon="-78.817268">
        <ele>3148.00</ele>
        <time>2018-09-08T21:22:43Z</time>
      </trkpt>
      <trkpt lat="-2.582682" lon="-78.817368">
        <ele>3148.00</ele>
        <time>2018-09-08T21:22:44Z</time>
      </trkpt>
      <trkpt lat="-2.582659" lon="-78.817482">
        <ele>3148.00</ele>
        <time>2018-09-08T21:22:45Z</time>
      </trkpt>
      <trkpt lat="-2.582630" lon="-78.817596">
        <ele>3148.00</ele>
        <time>2018-09-08T21:22:46Z</time>
      </trkpt>
      <trkpt lat="-2.582590" lon="-78.817719">
        <ele>3147.00</ele>
        <time>2018-09-08T21:22:47Z</time>
      </trkpt>
      <trkpt lat="-2.582533" lon="-78.817825">
        <ele>3147.00</ele>
        <time>2018-09-08T21:22:48Z</time>
      </trkpt>
      <trkpt lat="-2.582469" lon="-78.817917">
        <ele>3147.00</ele>
        <time>2018-09-08T21:22:49Z</time>
      </trkpt>
      <trkpt lat="-2.582411" lon="-78.818001">
        <ele>3147.00</ele>
        <time>2018-09-08T21:22:50Z</time>
      </trkpt>
      <trkpt lat="-2.582362" lon="-78.818069">
        <ele>3147.00</ele>
        <time>2018-09-08T21:22:51Z</time>
      </trkpt>
      <trkpt lat="-2.582325" lon="-78.818123">
        <ele>3147.00</ele>
        <time>2018-09-08T21:22:52Z</time>
      </trkpt>
      <trkpt lat="-2.582301" lon="-78.818169">
        <ele>3147.00</ele>
        <time>2018-09-08T21:22:53Z</time>
      </trkpt>
      <trkpt lat="-2.582282" lon="-78.818222">
        <ele>3147.00</ele>
        <time>2018-09-08T21:22:54Z</time>
      </trkpt>
      <trkpt lat="-2.582281" lon="-78.818306">
        <ele>3147.00</ele>
        <time>2018-09-08T21:22:55Z</time>
      </trkpt>
      <trkpt lat="-2.582300" lon="-78.818390">
        <ele>3147.00</ele>
        <time>2018-09-08T21:22:56Z</time>
      </trkpt>
      <trkpt lat="-2.582353" lon="-78.818497">
        <ele>3147.00</ele>
        <time>2018-09-08T21:22:57Z</time>
      </trkpt>
      <trkpt lat="-2.582431" lon="-78.818581">
        <ele>3147.00</ele>
        <time>2018-09-08T21:22:58Z</time>
      </trkpt>
      <trkpt lat="-2.582511" lon="-78.818649">
        <ele>3147.00</ele>
        <time>2018-09-08T21:22:59Z</time>
      </trkpt>
      <trkpt lat="-2.582587" lon="-78.818718">
        <ele>3147.00</ele>
        <time>2018-09-08T21:23:00Z</time>
      </trkpt>
      <trkpt lat="-2.582663" lon="-78.818779">
        <ele>3147.00</ele>
        <time>2018-09-08T21:23:01Z</time>
      </trkpt>
      <trkpt lat="-2.582742" lon="-78.818855">
        <ele>3147.00</ele>
        <time>2018-09-08T21:23:02Z</time>
      </trkpt>
      <trkpt lat="-2.582829" lon="-78.818932">
        <ele>3147.00</ele>
        <time>2018-09-08T21:23:03Z</time>
      </trkpt>
      <trkpt lat="-2.582917" lon="-78.819008">
        <ele>3147.00</ele>
        <time>2018-09-08T21:23:04Z</time>
      </trkpt>
      <trkpt lat="-2.582993" lon="-78.819069">
        <ele>3147.00</ele>
        <time>2018-09-08T21:23:05Z</time>
      </trkpt>
      <trkpt lat="-2.583055" lon="-78.819122">
        <ele>3147.00</ele>
        <time>2018-09-08T21:23:06Z</time>
      </trkpt>
      <trkpt lat="-2.583099" lon="-78.819183">
        <ele>3147.00</ele>
        <time>2018-09-08T21:23:07Z</time>
      </trkpt>
      <trkpt lat="-2.583141" lon="-78.819237">
        <ele>3147.00</ele>
        <time>2018-09-08T21:23:08Z</time>
      </trkpt>
      <trkpt lat="-2.583189" lon="-78.819298">
        <ele>3147.00</ele>
        <time>2018-09-08T21:23:09Z</time>
      </trkpt>
      <trkpt lat="-2.583242" lon="-78.819344">
        <ele>3147.00</ele>
        <time>2018-09-08T21:23:10Z</time>
      </trkpt>
      <trkpt lat="-2.583292" lon="-78.819366">
        <ele>3147.00</ele>
        <time>2018-09-08T21:23:11Z</time>
      </trkpt>
      <trkpt lat="-2.583327" lon="-78.819374">
        <ele>3147.00</ele>
        <time>2018-09-08T21:23:12Z</time>
      </trkpt>
      <trkpt lat="-2.583327" lon="-78.819374">
        <ele>3147.00</ele>
        <time>2018-09-08T21:23:13Z</time>
      </trkpt>
      <trkpt lat="-2.583327" lon="-78.819374">
        <ele>3147.00</ele>
        <time>2018-09-08T21:23:14Z</time>
      </trkpt>
      <trkpt lat="-2.583370" lon="-78.819389">
        <ele>3147.00</ele>
        <time>2018-09-08T21:23:15Z</time>
      </trkpt>
      <trkpt lat="-2.583396" lon="-78.819397">
        <ele>3147.00</ele>
        <time>2018-09-08T21:23:16Z</time>
      </trkpt>
      <trkpt lat="-2.583435" lon="-78.819397">
        <ele>3147.00</ele>
        <time>2018-09-08T21:23:17Z</time>
      </trkpt>
      <trkpt lat="-2.583487" lon="-78.819389">
        <ele>3147.00</ele>
        <time>2018-09-08T21:23:18Z</time>
      </trkpt>
      <trkpt lat="-2.583539" lon="-78.819366">
        <ele>3146.00</ele>
        <time>2018-09-08T21:23:19Z</time>
      </trkpt>
      <trkpt lat="-2.583590" lon="-78.819351">
        <ele>3146.00</ele>
        <time>2018-09-08T21:23:20Z</time>
      </trkpt>
      <trkpt lat="-2.583590" lon="-78.819351">
        <ele>3146.00</ele>
        <time>2018-09-08T21:23:21Z</time>
      </trkpt>
      <trkpt lat="-2.583590" lon="-78.819351">
        <ele>3146.00</ele>
        <time>2018-09-08T21:23:22Z</time>
      </trkpt>
      <trkpt lat="-2.583590" lon="-78.819351">
        <ele>3146.00</ele>
        <time>2018-09-08T21:23:23Z</time>
      </trkpt>
      <trkpt lat="-2.583590" lon="-78.819351">
        <ele>3146.00</ele>
        <time>2018-09-08T21:23:24Z</time>
      </trkpt>
      <trkpt lat="-2.583590" lon="-78.819351">
        <ele>3146.00</ele>
        <time>2018-09-08T21:23:25Z</time>
      </trkpt>
      <trkpt lat="-2.583590" lon="-78.819351">
        <ele>3146.00</ele>
        <time>2018-09-08T21:23:26Z</time>
      </trkpt>
      <trkpt lat="-2.583590" lon="-78.819351">
        <ele>3146.00</ele>
        <time>2018-09-08T21:23:27Z</time>
      </trkpt>
      <trkpt lat="-2.583590" lon="-78.819351">
        <ele>3146.00</ele>
        <time>2018-09-08T21:23:28Z</time>
      </trkpt>
      <trkpt lat="-2.583590" lon="-78.819351">
        <ele>3146.00</ele>
        <time>2018-09-08T21:23:29Z</time>
      </trkpt>
      <trkpt lat="-2.583644" lon="-78.819336">
        <ele>3146.00</ele>
        <time>2018-09-08T21:23:30Z</time>
      </trkpt>
      <trkpt lat="-2.583644" lon="-78.819336">
        <ele>3146.00</ele>
        <time>2018-09-08T21:23:31Z</time>
      </trkpt>
      <trkpt lat="-2.583644" lon="-78.819336">
        <ele>3146.00</ele>
        <time>2018-09-08T21:23:32Z</time>
      </trkpt>
      <trkpt lat="-2.583644" lon="-78.819336">
        <ele>3146.00</ele>
        <time>2018-09-08T21:23:33Z</time>
      </trkpt>
      <trkpt lat="-2.583644" lon="-78.819336">
        <ele>3146.00</ele>
        <time>2018-09-08T21:23:34Z</time>
      </trkpt>
      <trkpt lat="-2.583644" lon="-78.819336">
        <ele>3146.00</ele>
        <time>2018-09-08T21:23:35Z</time>
      </trkpt>
      <trkpt lat="-2.583644" lon="-78.819336">
        <ele>3146.00</ele>
        <time>2018-09-08T21:23:36Z</time>
      </trkpt>
      <trkpt lat="-2.583644" lon="-78.819336">
        <ele>3146.00</ele>
        <time>2018-09-08T21:23:37Z</time>
      </trkpt>
      <trkpt lat="-2.583644" lon="-78.819336">
        <ele>3147.00</ele>
        <time>2018-09-08T21:23:38Z</time>
      </trkpt>
      <trkpt lat="-2.583644" lon="-78.819336">
        <ele>3147.00</ele>
        <time>2018-09-08T21:23:39Z</time>
      </trkpt>
      <trkpt lat="-2.583644" lon="-78.819336">
        <ele>3147.00</ele>
        <time>2018-09-08T21:23:40Z</time>
      </trkpt>
      <trkpt lat="-2.583644" lon="-78.819336">
        <ele>3147.00</ele>
        <time>2018-09-08T21:23:41Z</time>
      </trkpt>
      <trkpt lat="-2.583644" lon="-78.819336">
        <ele>3147.00</ele>
        <time>2018-09-08T21:23:42Z</time>
      </trkpt>
      <trkpt lat="-2.583644" lon="-78.819336">
        <ele>3147.00</ele>
        <time>2018-09-08T21:23:43Z</time>
      </trkpt>
      <trkpt lat="-2.583644" lon="-78.819336">
        <ele>3147.00</ele>
        <time>2018-09-08T21:23:44Z</time>
      </trkpt>
      <trkpt lat="-2.583644" lon="-78.819336">
        <ele>3147.00</ele>
        <time>2018-09-08T21:23:45Z</time>
      </trkpt>
      <trkpt lat="-2.583644" lon="-78.819336">
        <ele>3147.00</ele>
        <time>2018-09-08T21:23:46Z</time>
      </trkpt>
      <trkpt lat="-2.583644" lon="-78.819336">
        <ele>3147.00</ele>
        <time>2018-09-08T21:23:47Z</time>
      </trkpt>
      <trkpt lat="-2.583644" lon="-78.819336">
        <ele>3147.00</ele>
        <time>2018-09-08T21:23:48Z</time>
      </trkpt>
      <trkpt lat="-2.583644" lon="-78.819336">
        <ele>3147.00</ele>
        <time>2018-09-08T21:23:49Z</time>
      </trkpt>
      <trkpt lat="-2.583644" lon="-78.819336">
        <ele>3147.00</ele>
        <time>2018-09-08T21:23:50Z</time>
      </trkpt>
      <trkpt lat="-2.583644" lon="-78.819336">
        <ele>3147.00</ele>
        <time>2018-09-08T21:23:51Z</time>
      </trkpt>
      <trkpt lat="-2.583644" lon="-78.819336">
        <ele>3147.00</ele>
        <time>2018-09-08T21:23:52Z</time>
      </trkpt>
      <trkpt lat="-2.583644" lon="-78.819336">
        <ele>3147.00</ele>
        <time>2018-09-08T21:23:53Z</time>
      </trkpt>
      <trkpt lat="-2.583671" lon="-78.819313">
        <ele>3147.00</ele>
        <time>2018-09-08T21:23:54Z</time>
      </trkpt>
      <trkpt lat="-2.583691" lon="-78.819313">
        <ele>3147.00</ele>
        <time>2018-09-08T21:23:55Z</time>
      </trkpt>
      <trkpt lat="-2.583715" lon="-78.819336">
        <ele>3147.00</ele>
        <time>2018-09-08T21:23:56Z</time>
      </trkpt>
      <trkpt lat="-2.583725" lon="-78.819359">
        <ele>3148.00</ele>
        <time>2018-09-08T21:23:57Z</time>
      </trkpt>
      <trkpt lat="-2.583721" lon="-78.819389">
        <ele>3148.00</ele>
        <time>2018-09-08T21:23:58Z</time>
      </trkpt>
      <trkpt lat="-2.583728" lon="-78.819420">
        <ele>3149.00</ele>
        <time>2018-09-08T21:23:59Z</time>
      </trkpt>
      <trkpt lat="-2.583733" lon="-78.819458">
        <ele>3150.00</ele>
        <time>2018-09-08T21:24:00Z</time>
      </trkpt>
      <trkpt lat="-2.583735" lon="-78.819504">
        <ele>3151.00</ele>
        <time>2018-09-08T21:24:01Z</time>
      </trkpt>
      <trkpt lat="-2.583734" lon="-78.819557">
        <ele>3151.00</ele>
        <time>2018-09-08T21:24:02Z</time>
      </trkpt>
      <trkpt lat="-2.583739" lon="-78.819603">
        <ele>3151.00</ele>
        <time>2018-09-08T21:24:03Z</time>
      </trkpt>
      <trkpt lat="-2.583744" lon="-78.819656">
        <ele>3152.00</ele>
        <time>2018-09-08T21:24:04Z</time>
      </trkpt>
      <trkpt lat="-2.583762" lon="-78.819687">
        <ele>3152.00</ele>
        <time>2018-09-08T21:24:05Z</time>
      </trkpt>
      <trkpt lat="-2.583787" lon="-78.819733">
        <ele>3152.00</ele>
        <time>2018-09-08T21:24:06Z</time>
      </trkpt>
      <trkpt lat="-2.583816" lon="-78.819771">
        <ele>3152.00</ele>
        <time>2018-09-08T21:24:07Z</time>
      </trkpt>
      <trkpt lat="-2.583849" lon="-78.819801">
        <ele>3151.00</ele>
        <time>2018-09-08T21:24:08Z</time>
      </trkpt>
      <trkpt lat="-2.583884" lon="-78.819870">
        <ele>3151.00</ele>
        <time>2018-09-08T21:24:09Z</time>
      </trkpt>
      <trkpt lat="-2.583918" lon="-78.819954">
        <ele>3151.00</ele>
        <time>2018-09-08T21:24:10Z</time>
      </trkpt>
      <trkpt lat="-2.583950" lon="-78.820061">
        <ele>3151.00</ele>
        <time>2018-09-08T21:24:11Z</time>
      </trkpt>
      <trkpt lat="-2.583987" lon="-78.820168">
        <ele>3151.00</ele>
        <time>2018-09-08T21:24:12Z</time>
      </trkpt>
      <trkpt lat="-2.584025" lon="-78.820274">
        <ele>3151.00</ele>
        <time>2018-09-08T21:24:13Z</time>
      </trkpt>
      <trkpt lat="-2.584064" lon="-78.820381">
        <ele>3151.00</ele>
        <time>2018-09-08T21:24:14Z</time>
      </trkpt>
      <trkpt lat="-2.584102" lon="-78.820480">
        <ele>3151.00</ele>
        <time>2018-09-08T21:24:15Z</time>
      </trkpt>
      <trkpt lat="-2.584138" lon="-78.820580">
        <ele>3151.00</ele>
        <time>2018-09-08T21:24:16Z</time>
      </trkpt>
      <trkpt lat="-2.584154" lon="-78.820679">
        <ele>3151.00</ele>
        <time>2018-09-08T21:24:17Z</time>
      </trkpt>
      <trkpt lat="-2.584148" lon="-78.820770">
        <ele>3151.00</ele>
        <time>2018-09-08T21:24:18Z</time>
      </trkpt>
      <trkpt lat="-2.584093" lon="-78.820869">
        <ele>3151.00</ele>
        <time>2018-09-08T21:24:19Z</time>
      </trkpt>
      <trkpt lat="-2.584038" lon="-78.820976">
        <ele>3151.00</ele>
        <time>2018-09-08T21:24:20Z</time>
      </trkpt>
      <trkpt lat="-2.583997" lon="-78.821091">
        <ele>3151.00</ele>
        <time>2018-09-08T21:24:21Z</time>
      </trkpt>
      <trkpt lat="-2.583986" lon="-78.821228">
        <ele>3151.00</ele>
        <time>2018-09-08T21:24:22Z</time>
      </trkpt>
      <trkpt lat="-2.583981" lon="-78.821365">
        <ele>3150.00</ele>
        <time>2018-09-08T21:24:23Z</time>
      </trkpt>
      <trkpt lat="-2.583966" lon="-78.821510">
        <ele>3150.00</ele>
        <time>2018-09-08T21:24:24Z</time>
      </trkpt>
      <trkpt lat="-2.583942" lon="-78.821671">
        <ele>3150.00</ele>
        <time>2018-09-08T21:24:25Z</time>
      </trkpt>
      <trkpt lat="-2.583924" lon="-78.821831">
        <ele>3150.00</ele>
        <time>2018-09-08T21:24:26Z</time>
      </trkpt>
      <trkpt lat="-2.583916" lon="-78.821999">
        <ele>3150.00</ele>
        <time>2018-09-08T21:24:27Z</time>
      </trkpt>
      <trkpt lat="-2.583916" lon="-78.822159">
        <ele>3150.00</ele>
        <time>2018-09-08T21:24:28Z</time>
      </trkpt>
      <trkpt lat="-2.583920" lon="-78.822319">
        <ele>3150.00</ele>
        <time>2018-09-08T21:24:29Z</time>
      </trkpt>
      <trkpt lat="-2.583942" lon="-78.822464">
        <ele>3149.00</ele>
        <time>2018-09-08T21:24:30Z</time>
      </trkpt>
      <trkpt lat="-2.583961" lon="-78.822586">
        <ele>3149.00</ele>
        <time>2018-09-08T21:24:31Z</time>
      </trkpt>
      <trkpt lat="-2.583955" lon="-78.822723">
        <ele>3149.00</ele>
        <time>2018-09-08T21:24:32Z</time>
      </trkpt>
      <trkpt lat="-2.583931" lon="-78.822853">
        <ele>3149.00</ele>
        <time>2018-09-08T21:24:33Z</time>
      </trkpt>
      <trkpt lat="-2.583910" lon="-78.822998">
        <ele>3149.00</ele>
        <time>2018-09-08T21:24:34Z</time>
      </trkpt>
      <trkpt lat="-2.583917" lon="-78.823143">
        <ele>3149.00</ele>
        <time>2018-09-08T21:24:35Z</time>
      </trkpt>
      <trkpt lat="-2.583927" lon="-78.823318">
        <ele>3148.00</ele>
        <time>2018-09-08T21:24:36Z</time>
      </trkpt>
      <trkpt lat="-2.583932" lon="-78.823486">
        <ele>3148.00</ele>
        <time>2018-09-08T21:24:37Z</time>
      </trkpt>
      <trkpt lat="-2.583939" lon="-78.823654">
        <ele>3148.00</ele>
        <time>2018-09-08T21:24:38Z</time>
      </trkpt>
      <trkpt lat="-2.583950" lon="-78.823822">
        <ele>3148.00</ele>
        <time>2018-09-08T21:24:39Z</time>
      </trkpt>
      <trkpt lat="-2.583973" lon="-78.823990">
        <ele>3148.00</ele>
        <time>2018-09-08T21:24:40Z</time>
      </trkpt>
      <trkpt lat="-2.584012" lon="-78.824158">
        <ele>3148.00</ele>
        <time>2018-09-08T21:24:41Z</time>
      </trkpt>
      <trkpt lat="-2.584049" lon="-78.824326">
        <ele>3148.00</ele>
        <time>2018-09-08T21:24:42Z</time>
      </trkpt>
      <trkpt lat="-2.584070" lon="-78.824501">
        <ele>3148.00</ele>
        <time>2018-09-08T21:24:43Z</time>
      </trkpt>
      <trkpt lat="-2.584091" lon="-78.824669">
        <ele>3148.00</ele>
        <time>2018-09-08T21:24:44Z</time>
      </trkpt>
      <trkpt lat="-2.584099" lon="-78.824821">
        <ele>3148.00</ele>
        <time>2018-09-08T21:24:45Z</time>
      </trkpt>
      <trkpt lat="-2.584095" lon="-78.824944">
        <ele>3148.00</ele>
        <time>2018-09-08T21:24:46Z</time>
      </trkpt>
      <trkpt lat="-2.584088" lon="-78.825043">
        <ele>3148.00</ele>
        <time>2018-09-08T21:24:47Z</time>
      </trkpt>
      <trkpt lat="-2.584071" lon="-78.825157">
        <ele>3149.00</ele>
        <time>2018-09-08T21:24:48Z</time>
      </trkpt>
      <trkpt lat="-2.584041" lon="-78.825272">
        <ele>3149.00</ele>
        <time>2018-09-08T21:24:49Z</time>
      </trkpt>
      <trkpt lat="-2.584007" lon="-78.825417">
        <ele>3149.00</ele>
        <time>2018-09-08T21:24:50Z</time>
      </trkpt>
      <trkpt lat="-2.583970" lon="-78.825554">
        <ele>3149.00</ele>
        <time>2018-09-08T21:24:51Z</time>
      </trkpt>
      <trkpt lat="-2.583930" lon="-78.825699">
        <ele>3149.00</ele>
        <time>2018-09-08T21:24:52Z</time>
      </trkpt>
      <trkpt lat="-2.583888" lon="-78.825851">
        <ele>3149.00</ele>
        <time>2018-09-08T21:24:53Z</time>
      </trkpt>
      <trkpt lat="-2.583851" lon="-78.825996">
        <ele>3149.00</ele>
        <time>2018-09-08T21:24:54Z</time>
      </trkpt>
      <trkpt lat="-2.583815" lon="-78.826157">
        <ele>3149.00</ele>
        <time>2018-09-08T21:24:55Z</time>
      </trkpt>
      <trkpt lat="-2.583780" lon="-78.826309">
        <ele>3149.00</ele>
        <time>2018-09-08T21:24:56Z</time>
      </trkpt>
      <trkpt lat="-2.583746" lon="-78.826439">
        <ele>3149.00</ele>
        <time>2018-09-08T21:24:57Z</time>
      </trkpt>
      <trkpt lat="-2.583711" lon="-78.826561">
        <ele>3149.00</ele>
        <time>2018-09-08T21:24:58Z</time>
      </trkpt>
      <trkpt lat="-2.583632" lon="-78.826668">
        <ele>3149.00</ele>
        <time>2018-09-08T21:24:59Z</time>
      </trkpt>
      <trkpt lat="-2.583518" lon="-78.826767">
        <ele>3149.00</ele>
        <time>2018-09-08T21:25:00Z</time>
      </trkpt>
      <trkpt lat="-2.583369" lon="-78.826828">
        <ele>3149.00</ele>
        <time>2018-09-08T21:25:01Z</time>
      </trkpt>
      <trkpt lat="-2.583203" lon="-78.826881">
        <ele>3149.00</ele>
        <time>2018-09-08T21:25:02Z</time>
      </trkpt>
      <trkpt lat="-2.583053" lon="-78.826927">
        <ele>3149.00</ele>
        <time>2018-09-08T21:25:03Z</time>
      </trkpt>
      <trkpt lat="-2.582915" lon="-78.826965">
        <ele>3149.00</ele>
        <time>2018-09-08T21:25:04Z</time>
      </trkpt>
      <trkpt lat="-2.582788" lon="-78.827019">
        <ele>3149.00</ele>
        <time>2018-09-08T21:25:05Z</time>
      </trkpt>
      <trkpt lat="-2.582685" lon="-78.827118">
        <ele>3149.00</ele>
        <time>2018-09-08T21:25:06Z</time>
      </trkpt>
      <trkpt lat="-2.582591" lon="-78.827225">
        <ele>3149.00</ele>
        <time>2018-09-08T21:25:07Z</time>
      </trkpt>
      <trkpt lat="-2.582500" lon="-78.827324">
        <ele>3149.00</ele>
        <time>2018-09-08T21:25:08Z</time>
      </trkpt>
      <trkpt lat="-2.582411" lon="-78.827438">
        <ele>3149.00</ele>
        <time>2018-09-08T21:25:09Z</time>
      </trkpt>
      <trkpt lat="-2.582330" lon="-78.827576">
        <ele>3149.00</ele>
        <time>2018-09-08T21:25:10Z</time>
      </trkpt>
      <trkpt lat="-2.582250" lon="-78.827721">
        <ele>3149.00</ele>
        <time>2018-09-08T21:25:11Z</time>
      </trkpt>
      <trkpt lat="-2.582165" lon="-78.827873">
        <ele>3150.00</ele>
        <time>2018-09-08T21:25:12Z</time>
      </trkpt>
      <trkpt lat="-2.582071" lon="-78.828033">
        <ele>3150.00</ele>
        <time>2018-09-08T21:25:13Z</time>
      </trkpt>
      <trkpt lat="-2.581973" lon="-78.828186">
        <ele>3150.00</ele>
        <time>2018-09-08T21:25:14Z</time>
      </trkpt>
      <trkpt lat="-2.581880" lon="-78.828331">
        <ele>3150.00</ele>
        <time>2018-09-08T21:25:15Z</time>
      </trkpt>
      <trkpt lat="-2.581794" lon="-78.828453">
        <ele>3150.00</ele>
        <time>2018-09-08T21:25:16Z</time>
      </trkpt>
      <trkpt lat="-2.581713" lon="-78.828568">
        <ele>3150.00</ele>
        <time>2018-09-08T21:25:17Z</time>
      </trkpt>
      <trkpt lat="-2.581630" lon="-78.828682">
        <ele>3150.00</ele>
        <time>2018-09-08T21:25:18Z</time>
      </trkpt>
      <trkpt lat="-2.581530" lon="-78.828781">
        <ele>3150.00</ele>
        <time>2018-09-08T21:25:19Z</time>
      </trkpt>
      <trkpt lat="-2.581418" lon="-78.828865">
        <ele>3150.00</ele>
        <time>2018-09-08T21:25:20Z</time>
      </trkpt>
      <trkpt lat="-2.581320" lon="-78.828957">
        <ele>3150.00</ele>
        <time>2018-09-08T21:25:21Z</time>
      </trkpt>
      <trkpt lat="-2.581231" lon="-78.829063">
        <ele>3150.00</ele>
        <time>2018-09-08T21:25:22Z</time>
      </trkpt>
      <trkpt lat="-2.581124" lon="-78.829170">
        <ele>3149.00</ele>
        <time>2018-09-08T21:25:23Z</time>
      </trkpt>
      <trkpt lat="-2.580988" lon="-78.829254">
        <ele>3149.00</ele>
        <time>2018-09-08T21:25:24Z</time>
      </trkpt>
      <trkpt lat="-2.580851" lon="-78.829323">
        <ele>3149.00</ele>
        <time>2018-09-08T21:25:25Z</time>
      </trkpt>
      <trkpt lat="-2.580734" lon="-78.829384">
        <ele>3149.00</ele>
        <time>2018-09-08T21:25:26Z</time>
      </trkpt>
      <trkpt lat="-2.580641" lon="-78.829453">
        <ele>3149.00</ele>
        <time>2018-09-08T21:25:27Z</time>
      </trkpt>
      <trkpt lat="-2.580557" lon="-78.829521">
        <ele>3149.00</ele>
        <time>2018-09-08T21:25:28Z</time>
      </trkpt>
      <trkpt lat="-2.580497" lon="-78.829597">
        <ele>3148.00</ele>
        <time>2018-09-08T21:25:29Z</time>
      </trkpt>
      <trkpt lat="-2.580438" lon="-78.829689">
        <ele>3148.00</ele>
        <time>2018-09-08T21:25:30Z</time>
      </trkpt>
      <trkpt lat="-2.580393" lon="-78.829796">
        <ele>3148.00</ele>
        <time>2018-09-08T21:25:31Z</time>
      </trkpt>
      <trkpt lat="-2.580359" lon="-78.829895">
        <ele>3148.00</ele>
        <time>2018-09-08T21:25:32Z</time>
      </trkpt>
      <trkpt lat="-2.580324" lon="-78.829979">
        <ele>3148.00</ele>
        <time>2018-09-08T21:25:33Z</time>
      </trkpt>
      <trkpt lat="-2.580291" lon="-78.830055">
        <ele>3148.00</ele>
        <time>2018-09-08T21:25:34Z</time>
      </trkpt>
      <trkpt lat="-2.580256" lon="-78.830116">
        <ele>3147.00</ele>
        <time>2018-09-08T21:25:35Z</time>
      </trkpt>
      <trkpt lat="-2.580216" lon="-78.830154">
        <ele>3147.00</ele>
        <time>2018-09-08T21:25:36Z</time>
      </trkpt>
      <trkpt lat="-2.580178" lon="-78.830185">
        <ele>3147.00</ele>
        <time>2018-09-08T21:25:37Z</time>
      </trkpt>
      <trkpt lat="-2.580154" lon="-78.830215">
        <ele>3147.00</ele>
        <time>2018-09-08T21:25:38Z</time>
      </trkpt>
      <trkpt lat="-2.580144" lon="-78.830246">
        <ele>3147.00</ele>
        <time>2018-09-08T21:25:39Z</time>
      </trkpt>
      <trkpt lat="-2.580141" lon="-78.830284">
        <ele>3147.00</ele>
        <time>2018-09-08T21:25:40Z</time>
      </trkpt>
      <trkpt lat="-2.580134" lon="-78.830330">
        <ele>3147.00</ele>
        <time>2018-09-08T21:25:41Z</time>
      </trkpt>
      <trkpt lat="-2.580119" lon="-78.830376">
        <ele>3147.00</ele>
        <time>2018-09-08T21:25:42Z</time>
      </trkpt>
      <trkpt lat="-2.580106" lon="-78.830421">
        <ele>3147.00</ele>
        <time>2018-09-08T21:25:43Z</time>
      </trkpt>
      <trkpt lat="-2.580094" lon="-78.830460">
        <ele>3147.00</ele>
        <time>2018-09-08T21:25:44Z</time>
      </trkpt>
      <trkpt lat="-2.580083" lon="-78.830498">
        <ele>3147.00</ele>
        <time>2018-09-08T21:25:45Z</time>
      </trkpt>
      <trkpt lat="-2.580073" lon="-78.830551">
        <ele>3146.00</ele>
        <time>2018-09-08T21:25:46Z</time>
      </trkpt>
      <trkpt lat="-2.580063" lon="-78.830605">
        <ele>3146.00</ele>
        <time>2018-09-08T21:25:47Z</time>
      </trkpt>
      <trkpt lat="-2.580051" lon="-78.830658">
        <ele>3145.00</ele>
        <time>2018-09-08T21:25:48Z</time>
      </trkpt>
      <trkpt lat="-2.580034" lon="-78.830711">
        <ele>3145.00</ele>
        <time>2018-09-08T21:25:49Z</time>
      </trkpt>
      <trkpt lat="-2.580014" lon="-78.830765">
        <ele>3144.00</ele>
        <time>2018-09-08T21:25:50Z</time>
      </trkpt>
      <trkpt lat="-2.579985" lon="-78.830818">
        <ele>3144.00</ele>
        <time>2018-09-08T21:25:51Z</time>
      </trkpt>
      <trkpt lat="-2.579954" lon="-78.830864">
        <ele>3144.00</ele>
        <time>2018-09-08T21:25:52Z</time>
      </trkpt>
      <trkpt lat="-2.579954" lon="-78.830864">
        <ele>3144.00</ele>
        <time>2018-09-08T21:25:53Z</time>
      </trkpt>
      <trkpt lat="-2.579954" lon="-78.830864">
        <ele>3144.00</ele>
        <time>2018-09-08T21:25:54Z</time>
      </trkpt>
      <trkpt lat="-2.579954" lon="-78.830864">
        <ele>3144.00</ele>
        <time>2018-09-08T21:25:55Z</time>
      </trkpt>
      <trkpt lat="-2.579954" lon="-78.830864">
        <ele>3144.00</ele>
        <time>2018-09-08T21:25:56Z</time>
      </trkpt>
      <trkpt lat="-2.579954" lon="-78.830864">
        <ele>3144.00</ele>
        <time>2018-09-08T21:25:57Z</time>
      </trkpt>
      <trkpt lat="-2.579954" lon="-78.830864">
        <ele>3144.00</ele>
        <time>2018-09-08T21:25:58Z</time>
      </trkpt>
      <trkpt lat="-2.579954" lon="-78.830864">
        <ele>3144.00</ele>
        <time>2018-09-08T21:25:59Z</time>
      </trkpt>
      <trkpt lat="-2.579954" lon="-78.830864">
        <ele>3144.00</ele>
        <time>2018-09-08T21:26:00Z</time>
      </trkpt>
      <trkpt lat="-2.579895" lon="-78.830910">
        <ele>3144.00</ele>
        <time>2018-09-08T21:26:01Z</time>
      </trkpt>
      <trkpt lat="-2.579895" lon="-78.830910">
        <ele>3144.00</ele>
        <time>2018-09-08T21:26:02Z</time>
      </trkpt>
      <trkpt lat="-2.579856" lon="-78.830879">
        <ele>3144.00</ele>
        <time>2018-09-08T21:26:03Z</time>
      </trkpt>
      <trkpt lat="-2.579842" lon="-78.830856">
        <ele>3145.00</ele>
        <time>2018-09-08T21:26:04Z</time>
      </trkpt>
      <trkpt lat="-2.579832" lon="-78.830818">
        <ele>3145.00</ele>
        <time>2018-09-08T21:26:05Z</time>
      </trkpt>
      <trkpt lat="-2.579807" lon="-78.830757">
        <ele>3146.00</ele>
        <time>2018-09-08T21:26:06Z</time>
      </trkpt>
      <trkpt lat="-2.579782" lon="-78.830681">
        <ele>3146.00</ele>
        <time>2018-09-08T21:26:07Z</time>
      </trkpt>
      <trkpt lat="-2.579754" lon="-78.830612">
        <ele>3147.00</ele>
        <time>2018-09-08T21:26:08Z</time>
      </trkpt>
      <trkpt lat="-2.579726" lon="-78.830551">
        <ele>3147.00</ele>
        <time>2018-09-08T21:26:09Z</time>
      </trkpt>
      <trkpt lat="-2.579701" lon="-78.830505">
        <ele>3147.00</ele>
        <time>2018-09-08T21:26:10Z</time>
      </trkpt>
      <trkpt lat="-2.579681" lon="-78.830482">
        <ele>3147.00</ele>
        <time>2018-09-08T21:26:11Z</time>
      </trkpt>
      <trkpt lat="-2.579667" lon="-78.830452">
        <ele>3147.00</ele>
        <time>2018-09-08T21:26:12Z</time>
      </trkpt>
      <trkpt lat="-2.579659" lon="-78.830437">
        <ele>3147.00</ele>
        <time>2018-09-08T21:26:13Z</time>
      </trkpt>
      <trkpt lat="-2.579648" lon="-78.830399">
        <ele>3147.00</ele>
        <time>2018-09-08T21:26:14Z</time>
      </trkpt>
      <trkpt lat="-2.579642" lon="-78.830376">
        <ele>3147.00</ele>
        <time>2018-09-08T21:26:15Z</time>
      </trkpt>
      <trkpt lat="-2.579637" lon="-78.830345">
        <ele>3147.00</ele>
        <time>2018-09-08T21:26:16Z</time>
      </trkpt>
      <trkpt lat="-2.579634" lon="-78.830315">
        <ele>3147.00</ele>
        <time>2018-09-08T21:26:17Z</time>
      </trkpt>
      <trkpt lat="-2.579634" lon="-78.830315">
        <ele>3147.00</ele>
        <time>2018-09-08T21:26:18Z</time>
      </trkpt>
      <trkpt lat="-2.579651" lon="-78.830246">
        <ele>3147.00</ele>
        <time>2018-09-08T21:26:19Z</time>
      </trkpt>
      <trkpt lat="-2.579653" lon="-78.830231">
        <ele>3147.00</ele>
        <time>2018-09-08T21:26:20Z</time>
      </trkpt>
      <trkpt lat="-2.579657" lon="-78.830208">
        <ele>3147.00</ele>
        <time>2018-09-08T21:26:21Z</time>
      </trkpt>
      <trkpt lat="-2.579659" lon="-78.830170">
        <ele>3147.00</ele>
        <time>2018-09-08T21:26:22Z</time>
      </trkpt>
      <trkpt lat="-2.579660" lon="-78.830139">
        <ele>3147.00</ele>
        <time>2018-09-08T21:26:23Z</time>
      </trkpt>
      <trkpt lat="-2.579654" lon="-78.830116">
        <ele>3147.00</ele>
        <time>2018-09-08T21:26:24Z</time>
      </trkpt>
      <trkpt lat="-2.579654" lon="-78.830116">
        <ele>3147.00</ele>
        <time>2018-09-08T21:26:25Z</time>
      </trkpt>
      <trkpt lat="-2.579616" lon="-78.830070">
        <ele>3147.00</ele>
        <time>2018-09-08T21:26:26Z</time>
      </trkpt>
      <trkpt lat="-2.579588" lon="-78.830055">
        <ele>3147.00</ele>
        <time>2018-09-08T21:26:27Z</time>
      </trkpt>
      <trkpt lat="-2.579557" lon="-78.830048">
        <ele>3147.00</ele>
        <time>2018-09-08T21:26:28Z</time>
      </trkpt>
      <trkpt lat="-2.579527" lon="-78.830055">
        <ele>3147.00</ele>
        <time>2018-09-08T21:26:29Z</time>
      </trkpt>
      <trkpt lat="-2.579527" lon="-78.830055">
        <ele>3147.00</ele>
        <time>2018-09-08T21:26:30Z</time>
      </trkpt>
      <trkpt lat="-2.579527" lon="-78.830055">
        <ele>3147.00</ele>
        <time>2018-09-08T21:26:31Z</time>
      </trkpt>
      <trkpt lat="-2.579495" lon="-78.830086">
        <ele>3147.00</ele>
        <time>2018-09-08T21:26:32Z</time>
      </trkpt>
      <trkpt lat="-2.579495" lon="-78.830086">
        <ele>3147.00</ele>
        <time>2018-09-08T21:26:33Z</time>
      </trkpt>
      <trkpt lat="-2.579495" lon="-78.830086">
        <ele>3147.00</ele>
        <time>2018-09-08T21:26:34Z</time>
      </trkpt>
      <trkpt lat="-2.579495" lon="-78.830086">
        <ele>3147.00</ele>
        <time>2018-09-08T21:26:35Z</time>
      </trkpt>
      <trkpt lat="-2.579495" lon="-78.830086">
        <ele>3146.00</ele>
        <time>2018-09-08T21:26:36Z</time>
      </trkpt>
      <trkpt lat="-2.579495" lon="-78.830086">
        <ele>3146.00</ele>
        <time>2018-09-08T21:26:37Z</time>
      </trkpt>
      <trkpt lat="-2.579495" lon="-78.830086">
        <ele>3146.00</ele>
        <time>2018-09-08T21:26:38Z</time>
      </trkpt>
      <trkpt lat="-2.579495" lon="-78.830086">
        <ele>3146.00</ele>
        <time>2018-09-08T21:26:39Z</time>
      </trkpt>
      <trkpt lat="-2.579495" lon="-78.830086">
        <ele>3146.00</ele>
        <time>2018-09-08T21:26:40Z</time>
      </trkpt>
      <trkpt lat="-2.579495" lon="-78.830086">
        <ele>3146.00</ele>
        <time>2018-09-08T21:26:41Z</time>
      </trkpt>
      <trkpt lat="-2.579495" lon="-78.830086">
        <ele>3146.00</ele>
        <time>2018-09-08T21:26:42Z</time>
      </trkpt>
      <trkpt lat="-2.579495" lon="-78.830086">
        <ele>3146.00</ele>
        <time>2018-09-08T21:26:43Z</time>
      </trkpt>
      <trkpt lat="-2.579495" lon="-78.830086">
        <ele>3146.00</ele>
        <time>2018-09-08T21:26:44Z</time>
      </trkpt>
      <trkpt lat="-2.579495" lon="-78.830086">
        <ele>3146.00</ele>
        <time>2018-09-08T21:26:45Z</time>
      </trkpt>
      <trkpt lat="-2.579495" lon="-78.830086">
        <ele>3146.00</ele>
        <time>2018-09-08T21:26:46Z</time>
      </trkpt>
      <trkpt lat="-2.579495" lon="-78.830086">
        <ele>3146.00</ele>
        <time>2018-09-08T21:26:47Z</time>
      </trkpt>
      <trkpt lat="-2.579495" lon="-78.830086">
        <ele>3146.00</ele>
        <time>2018-09-08T21:26:48Z</time>
      </trkpt>
      <trkpt lat="-2.579495" lon="-78.830086">
        <ele>3146.00</ele>
        <time>2018-09-08T21:26:49Z</time>
      </trkpt>
      <trkpt lat="-2.579495" lon="-78.830086">
        <ele>3146.00</ele>
        <time>2018-09-08T21:26:50Z</time>
      </trkpt>
      <trkpt lat="-2.579495" lon="-78.830086">
        <ele>3146.00</ele>
        <time>2018-09-08T21:26:51Z</time>
      </trkpt>
      <trkpt lat="-2.579495" lon="-78.830086">
        <ele>3146.00</ele>
        <time>2018-09-08T21:26:52Z</time>
      </trkpt>
      <trkpt lat="-2.579495" lon="-78.830086">
        <ele>3146.00</ele>
        <time>2018-09-08T21:26:53Z</time>
      </trkpt>
      <trkpt lat="-2.579495" lon="-78.830086">
        <ele>3146.00</ele>
        <time>2018-09-08T21:26:54Z</time>
      </trkpt>
      <trkpt lat="-2.579491" lon="-78.830116">
        <ele>3145.00</ele>
        <time>2018-09-08T21:26:55Z</time>
      </trkpt>
      <trkpt lat="-2.579491" lon="-78.830154">
        <ele>3145.00</ele>
        <time>2018-09-08T21:26:56Z</time>
      </trkpt>
      <trkpt lat="-2.579512" lon="-78.830185">
        <ele>3145.00</ele>
        <time>2018-09-08T21:26:57Z</time>
      </trkpt>
      <trkpt lat="-2.579535" lon="-78.830223">
        <ele>3145.00</ele>
        <time>2018-09-08T21:26:58Z</time>
      </trkpt>
      <trkpt lat="-2.579535" lon="-78.830223">
        <ele>3144.00</ele>
        <time>2018-09-08T21:26:59Z</time>
      </trkpt>
      <trkpt lat="-2.579572" lon="-78.830269">
        <ele>3144.00</ele>
        <time>2018-09-08T21:27:00Z</time>
      </trkpt>
      <trkpt lat="-2.579572" lon="-78.830269">
        <ele>3144.00</ele>
        <time>2018-09-08T21:27:01Z</time>
      </trkpt>
      <trkpt lat="-2.579572" lon="-78.830269">
        <ele>3144.00</ele>
        <time>2018-09-08T21:27:02Z</time>
      </trkpt>
      <trkpt lat="-2.579572" lon="-78.830269">
        <ele>3144.00</ele>
        <time>2018-09-08T21:27:03Z</time>
      </trkpt>
      <trkpt lat="-2.579572" lon="-78.830269">
        <ele>3144.00</ele>
        <time>2018-09-08T21:27:04Z</time>
      </trkpt>
      <trkpt lat="-2.579572" lon="-78.830269">
        <ele>3144.00</ele>
        <time>2018-09-08T21:27:05Z</time>
      </trkpt>
      <trkpt lat="-2.579572" lon="-78.830269">
        <ele>3144.00</ele>
        <time>2018-09-08T21:27:06Z</time>
      </trkpt>
      <trkpt lat="-2.579572" lon="-78.830269">
        <ele>3144.00</ele>
        <time>2018-09-08T21:27:07Z</time>
      </trkpt>
      <trkpt lat="-2.579572" lon="-78.830269">
        <ele>3144.00</ele>
        <time>2018-09-08T21:27:08Z</time>
      </trkpt>
      <trkpt lat="-2.579572" lon="-78.830269">
        <ele>3144.00</ele>
        <time>2018-09-08T21:27:09Z</time>
      </trkpt>
      <trkpt lat="-2.579572" lon="-78.830269">
        <ele>3144.00</ele>
        <time>2018-09-08T21:27:10Z</time>
      </trkpt>
      <trkpt lat="-2.579572" lon="-78.830269">
        <ele>3144.00</ele>
        <time>2018-09-08T21:27:11Z</time>
      </trkpt>
      <trkpt lat="-2.579572" lon="-78.830269">
        <ele>3144.00</ele>
        <time>2018-09-08T21:27:12Z</time>
      </trkpt>
      <trkpt lat="-2.579572" lon="-78.830269">
        <ele>3144.00</ele>
        <time>2018-09-08T21:27:13Z</time>
      </trkpt>
      <trkpt lat="-2.579572" lon="-78.830269">
        <ele>3144.00</ele>
        <time>2018-09-08T21:27:14Z</time>
      </trkpt>
      <trkpt lat="-2.579572" lon="-78.830269">
        <ele>3144.00</ele>
        <time>2018-09-08T21:27:15Z</time>
      </trkpt>
      <trkpt lat="-2.579572" lon="-78.830269">
        <ele>3144.00</ele>
        <time>2018-09-08T21:27:16Z</time>
      </trkpt>
      <trkpt lat="-2.579572" lon="-78.830269">
        <ele>3144.00</ele>
        <time>2018-09-08T21:27:17Z</time>
      </trkpt>
      <trkpt lat="-2.579572" lon="-78.830269">
        <ele>3144.00</ele>
        <time>2018-09-08T21:27:18Z</time>
      </trkpt>
      <trkpt lat="-2.579572" lon="-78.830269">
        <ele>3144.00</ele>
        <time>2018-09-08T21:27:19Z</time>
      </trkpt>
      <trkpt lat="-2.579572" lon="-78.830269">
        <ele>3144.00</ele>
        <time>2018-09-08T21:27:20Z</time>
      </trkpt>
      <trkpt lat="-2.579572" lon="-78.830269">
        <ele>3144.00</ele>
        <time>2018-09-08T21:27:21Z</time>
      </trkpt>
      <trkpt lat="-2.579572" lon="-78.830269">
        <ele>3144.00</ele>
        <time>2018-09-08T21:27:22Z</time>
      </trkpt>
      <trkpt lat="-2.579572" lon="-78.830269">
        <ele>3144.00</ele>
        <time>2018-09-08T21:27:23Z</time>
      </trkpt>
      <trkpt lat="-2.579572" lon="-78.830269">
        <ele>3144.00</ele>
        <time>2018-09-08T21:27:24Z</time>
      </trkpt>
      <trkpt lat="-2.579572" lon="-78.830269">
        <ele>3144.00</ele>
        <time>2018-09-08T21:27:25Z</time>
      </trkpt>
      <trkpt lat="-2.579572" lon="-78.830269">
        <ele>3143.00</ele>
        <time>2018-09-08T21:27:26Z</time>
      </trkpt>
      <trkpt lat="-2.579572" lon="-78.830269">
        <ele>3143.00</ele>
        <time>2018-09-08T21:27:27Z</time>
      </trkpt>
      <trkpt lat="-2.579572" lon="-78.830269">
        <ele>3143.00</ele>
        <time>2018-09-08T21:27:28Z</time>
      </trkpt>
      <trkpt lat="-2.579572" lon="-78.830269">
        <ele>3143.00</ele>
        <time>2018-09-08T21:27:29Z</time>
      </trkpt>
      <trkpt lat="-2.579572" lon="-78.830269">
        <ele>3143.00</ele>
        <time>2018-09-08T21:27:30Z</time>
      </trkpt>
      <trkpt lat="-2.579572" lon="-78.830269">
        <ele>3143.00</ele>
        <time>2018-09-08T21:27:31Z</time>
      </trkpt>
      <trkpt lat="-2.579572" lon="-78.830269">
        <ele>3143.00</ele>
        <time>2018-09-08T21:27:32Z</time>
      </trkpt>
      <trkpt lat="-2.579572" lon="-78.830269">
        <ele>3143.00</ele>
        <time>2018-09-08T21:27:33Z</time>
      </trkpt>
      <trkpt lat="-2.579572" lon="-78.830269">
        <ele>3143.00</ele>
        <time>2018-09-08T21:27:34Z</time>
      </trkpt>
      <trkpt lat="-2.579572" lon="-78.830269">
        <ele>3143.00</ele>
        <time>2018-09-08T21:27:35Z</time>
      </trkpt>
      <trkpt lat="-2.579572" lon="-78.830269">
        <ele>3143.00</ele>
        <time>2018-09-08T21:27:36Z</time>
      </trkpt>
      <trkpt lat="-2.579572" lon="-78.830269">
        <ele>3143.00</ele>
        <time>2018-09-08T21:27:37Z</time>
      </trkpt>
      <trkpt lat="-2.579572" lon="-78.830269">
        <ele>3143.00</ele>
        <time>2018-09-08T21:27:38Z</time>
      </trkpt>
      <trkpt lat="-2.579572" lon="-78.830269">
        <ele>3143.00</ele>
        <time>2018-09-08T21:27:39Z</time>
      </trkpt>
      <trkpt lat="-2.579572" lon="-78.830269">
        <ele>3143.00</ele>
        <time>2018-09-08T21:27:40Z</time>
      </trkpt>
      <trkpt lat="-2.579572" lon="-78.830269">
        <ele>3143.00</ele>
        <time>2018-09-08T21:27:41Z</time>
      </trkpt>
      <trkpt lat="-2.579572" lon="-78.830269">
        <ele>3143.00</ele>
        <time>2018-09-08T21:27:42Z</time>
      </trkpt>
      <trkpt lat="-2.579572" lon="-78.830269">
        <ele>3143.00</ele>
        <time>2018-09-08T21:27:43Z</time>
      </trkpt>
      <trkpt lat="-2.579572" lon="-78.830269">
        <ele>3143.00</ele>
        <time>2018-09-08T21:27:44Z</time>
      </trkpt>
      <trkpt lat="-2.579572" lon="-78.830269">
        <ele>3143.00</ele>
        <time>2018-09-08T21:27:45Z</time>
      </trkpt>
      <trkpt lat="-2.579572" lon="-78.830269">
        <ele>3143.00</ele>
        <time>2018-09-08T21:27:46Z</time>
      </trkpt>
      <trkpt lat="-2.579572" lon="-78.830269">
        <ele>3143.00</ele>
        <time>2018-09-08T21:27:47Z</time>
      </trkpt>
      <trkpt lat="-2.579572" lon="-78.830269">
        <ele>3143.00</ele>
        <time>2018-09-08T21:27:48Z</time>
      </trkpt>
      <trkpt lat="-2.579572" lon="-78.830269">
        <ele>3143.00</ele>
        <time>2018-09-08T21:27:49Z</time>
      </trkpt>
      <trkpt lat="-2.579572" lon="-78.830269">
        <ele>3143.00</ele>
        <time>2018-09-08T21:27:50Z</time>
      </trkpt>
      <trkpt lat="-2.579623" lon="-78.830269">
        <ele>3143.00</ele>
        <time>2018-09-08T21:27:51Z</time>
      </trkpt>
      <trkpt lat="-2.579623" lon="-78.830269">
        <ele>3143.00</ele>
        <time>2018-09-08T21:27:52Z</time>
      </trkpt>
      <trkpt lat="-2.579623" lon="-78.830269">
        <ele>3143.00</ele>
        <time>2018-09-08T21:27:53Z</time>
      </trkpt>
      <trkpt lat="-2.579623" lon="-78.830269">
        <ele>3142.00</ele>
        <time>2018-09-08T21:27:54Z</time>
      </trkpt>
      <trkpt lat="-2.579623" lon="-78.830269">
        <ele>3142.00</ele>
        <time>2018-09-08T21:27:55Z</time>
      </trkpt>
      <trkpt lat="-2.579623" lon="-78.830269">
        <ele>3142.00</ele>
        <time>2018-09-08T21:27:56Z</time>
      </trkpt>
      <trkpt lat="-2.579623" lon="-78.830269">
        <ele>3142.00</ele>
        <time>2018-09-08T21:27:57Z</time>
      </trkpt>
      <trkpt lat="-2.579623" lon="-78.830269">
        <ele>3142.00</ele>
        <time>2018-09-08T21:27:58Z</time>
      </trkpt>
      <trkpt lat="-2.579623" lon="-78.830269">
        <ele>3142.00</ele>
        <time>2018-09-08T21:27:59Z</time>
      </trkpt>
      <trkpt lat="-2.579623" lon="-78.830269">
        <ele>3142.00</ele>
        <time>2018-09-08T21:28:00Z</time>
      </trkpt>
      <trkpt lat="-2.579623" lon="-78.830269">
        <ele>3142.00</ele>
        <time>2018-09-08T21:28:01Z</time>
      </trkpt>
      <trkpt lat="-2.579623" lon="-78.830269">
        <ele>3142.00</ele>
        <time>2018-09-08T21:28:02Z</time>
      </trkpt>
      <trkpt lat="-2.579623" lon="-78.830269">
        <ele>3142.00</ele>
        <time>2018-09-08T21:28:03Z</time>
      </trkpt>
      <trkpt lat="-2.579623" lon="-78.830269">
        <ele>3142.00</ele>
        <time>2018-09-08T21:28:04Z</time>
      </trkpt>
      <trkpt lat="-2.579623" lon="-78.830269">
        <ele>3142.00</ele>
        <time>2018-09-08T21:28:05Z</time>
      </trkpt>
      <trkpt lat="-2.579623" lon="-78.830269">
        <ele>3142.00</ele>
        <time>2018-09-08T21:28:06Z</time>
      </trkpt>
      <trkpt lat="-2.579623" lon="-78.830269">
        <ele>3142.00</ele>
        <time>2018-09-08T21:28:07Z</time>
      </trkpt>
      <trkpt lat="-2.579623" lon="-78.830269">
        <ele>3142.00</ele>
        <time>2018-09-08T21:28:08Z</time>
      </trkpt>
      <trkpt lat="-2.579623" lon="-78.830269">
        <ele>3142.00</ele>
        <time>2018-09-08T21:28:09Z</time>
      </trkpt>
      <trkpt lat="-2.579623" lon="-78.830269">
        <ele>3142.00</ele>
        <time>2018-09-08T21:28:10Z</time>
      </trkpt>
      <trkpt lat="-2.579623" lon="-78.830269">
        <ele>3142.00</ele>
        <time>2018-09-08T21:28:11Z</time>
      </trkpt>
      <trkpt lat="-2.579623" lon="-78.830269">
        <ele>3142.00</ele>
        <time>2018-09-08T21:28:12Z</time>
      </trkpt>
      <trkpt lat="-2.579623" lon="-78.830269">
        <ele>3142.00</ele>
        <time>2018-09-08T21:28:13Z</time>
      </trkpt>
      <trkpt lat="-2.579623" lon="-78.830269">
        <ele>3142.00</ele>
        <time>2018-09-08T21:28:14Z</time>
      </trkpt>
      <trkpt lat="-2.579623" lon="-78.830269">
        <ele>3142.00</ele>
        <time>2018-09-08T21:28:15Z</time>
      </trkpt>
      <trkpt lat="-2.579623" lon="-78.830269">
        <ele>3142.00</ele>
        <time>2018-09-08T21:28:16Z</time>
      </trkpt>
      <trkpt lat="-2.579623" lon="-78.830269">
        <ele>3142.00</ele>
        <time>2018-09-08T21:28:17Z</time>
      </trkpt>
      <trkpt lat="-2.579623" lon="-78.830269">
        <ele>3142.00</ele>
        <time>2018-09-08T21:28:18Z</time>
      </trkpt>
      <trkpt lat="-2.579623" lon="-78.830269">
        <ele>3142.00</ele>
        <time>2018-09-08T21:28:19Z</time>
      </trkpt>
      <trkpt lat="-2.579623" lon="-78.830269">
        <ele>3142.00</ele>
        <time>2018-09-08T21:28:20Z</time>
      </trkpt>
      <trkpt lat="-2.579623" lon="-78.830269">
        <ele>3142.00</ele>
        <time>2018-09-08T21:28:21Z</time>
      </trkpt>
      <trkpt lat="-2.579623" lon="-78.830269">
        <ele>3141.00</ele>
        <time>2018-09-08T21:28:22Z</time>
      </trkpt>
      <trkpt lat="-2.579623" lon="-78.830269">
        <ele>3141.00</ele>
        <time>2018-09-08T21:28:23Z</time>
      </trkpt>
      <trkpt lat="-2.579623" lon="-78.830269">
        <ele>3141.00</ele>
        <time>2018-09-08T21:28:24Z</time>
      </trkpt>
      <trkpt lat="-2.579623" lon="-78.830269">
        <ele>3141.00</ele>
        <time>2018-09-08T21:28:25Z</time>
      </trkpt>
      <trkpt lat="-2.579623" lon="-78.830269">
        <ele>3141.00</ele>
        <time>2018-09-08T21:28:26Z</time>
      </trkpt>
      <trkpt lat="-2.579623" lon="-78.830269">
        <ele>3141.00</ele>
        <time>2018-09-08T21:28:27Z</time>
      </trkpt>
      <trkpt lat="-2.579623" lon="-78.830269">
        <ele>3141.00</ele>
        <time>2018-09-08T21:28:28Z</time>
      </trkpt>
      <trkpt lat="-2.579623" lon="-78.830269">
        <ele>3141.00</ele>
        <time>2018-09-08T21:28:29Z</time>
      </trkpt>
      <trkpt lat="-2.579623" lon="-78.830269">
        <ele>3141.00</ele>
        <time>2018-09-08T21:28:30Z</time>
      </trkpt>
      <trkpt lat="-2.579623" lon="-78.830269">
        <ele>3141.00</ele>
        <time>2018-09-08T21:28:31Z</time>
      </trkpt>
      <trkpt lat="-2.579623" lon="-78.830269">
        <ele>3141.00</ele>
        <time>2018-09-08T21:28:32Z</time>
      </trkpt>
      <trkpt lat="-2.579623" lon="-78.830269">
        <ele>3141.00</ele>
        <time>2018-09-08T21:28:33Z</time>
      </trkpt>
      <trkpt lat="-2.579623" lon="-78.830269">
        <ele>3141.00</ele>
        <time>2018-09-08T21:28:34Z</time>
      </trkpt>
      <trkpt lat="-2.579623" lon="-78.830269">
        <ele>3141.00</ele>
        <time>2018-09-08T21:28:35Z</time>
      </trkpt>
      <trkpt lat="-2.579623" lon="-78.830269">
        <ele>3140.00</ele>
        <time>2018-09-08T21:28:36Z</time>
      </trkpt>
      <trkpt lat="-2.579623" lon="-78.830269">
        <ele>3140.00</ele>
        <time>2018-09-08T21:28:37Z</time>
      </trkpt>
      <trkpt lat="-2.579623" lon="-78.830269">
        <ele>3140.00</ele>
        <time>2018-09-08T21:28:38Z</time>
      </trkpt>
      <trkpt lat="-2.579623" lon="-78.830269">
        <ele>3140.00</ele>
        <time>2018-09-08T21:28:39Z</time>
      </trkpt>
      <trkpt lat="-2.579616" lon="-78.830246">
        <ele>3140.00</ele>
        <time>2018-09-08T21:28:40Z</time>
      </trkpt>
      <trkpt lat="-2.579616" lon="-78.830246">
        <ele>3140.00</ele>
        <time>2018-09-08T21:28:41Z</time>
      </trkpt>
      <trkpt lat="-2.579616" lon="-78.830246">
        <ele>3140.00</ele>
        <time>2018-09-08T21:28:42Z</time>
      </trkpt>
      <trkpt lat="-2.579616" lon="-78.830246">
        <ele>3140.00</ele>
        <time>2018-09-08T21:28:43Z</time>
      </trkpt>
      <trkpt lat="-2.579615" lon="-78.830246">
        <ele>3140.00</ele>
        <time>2018-09-08T21:28:44Z</time>
      </trkpt>
      <trkpt lat="-2.579620" lon="-78.830261">
        <ele>3140.00</ele>
        <time>2018-09-08T21:28:45Z</time>
      </trkpt>
      <trkpt lat="-2.579641" lon="-78.830284">
        <ele>3136.00</ele>
        <time>2018-09-08T21:28:46Z</time>
      </trkpt>
      <trkpt lat="-2.579662" lon="-78.830330">
        <ele>3136.00</ele>
        <time>2018-09-08T21:28:47Z</time>
      </trkpt>
      <trkpt lat="-2.579649" lon="-78.830368">
        <ele>3134.00</ele>
        <time>2018-09-08T21:28:48Z</time>
      </trkpt>
      <trkpt lat="-2.579611" lon="-78.830383">
        <ele>3132.00</ele>
        <time>2018-09-08T21:28:49Z</time>
      </trkpt>
      <trkpt lat="-2.579535" lon="-78.830391">
        <ele>3130.00</ele>
        <time>2018-09-08T21:28:50Z</time>
      </trkpt>
      <trkpt lat="-2.579436" lon="-78.830376">
        <ele>3129.00</ele>
        <time>2018-09-08T21:28:51Z</time>
      </trkpt>
      <trkpt lat="-2.579328" lon="-78.830345">
        <ele>3128.00</ele>
        <time>2018-09-08T21:28:52Z</time>
      </trkpt>
      <trkpt lat="-2.579205" lon="-78.830299">
        <ele>3127.00</ele>
        <time>2018-09-08T21:28:53Z</time>
      </trkpt>
      <trkpt lat="-2.579077" lon="-78.830261">
        <ele>3127.00</ele>
        <time>2018-09-08T21:28:54Z</time>
      </trkpt>
      <trkpt lat="-2.578946" lon="-78.830223">
        <ele>3126.00</ele>
        <time>2018-09-08T21:28:55Z</time>
      </trkpt>
      <trkpt lat="-2.578811" lon="-78.830177">
        <ele>3126.00</ele>
        <time>2018-09-08T21:28:56Z</time>
      </trkpt>
      <trkpt lat="-2.578679" lon="-78.830132">
        <ele>3125.00</ele>
        <time>2018-09-08T21:28:57Z</time>
      </trkpt>
      <trkpt lat="-2.578548" lon="-78.830086">
        <ele>3125.00</ele>
        <time>2018-09-08T21:28:58Z</time>
      </trkpt>
      <trkpt lat="-2.578415" lon="-78.830032">
        <ele>3125.00</ele>
        <time>2018-09-08T21:28:59Z</time>
      </trkpt>
      <trkpt lat="-2.578280" lon="-78.829964">
        <ele>3125.00</ele>
        <time>2018-09-08T21:29:00Z</time>
      </trkpt>
      <trkpt lat="-2.578142" lon="-78.829895">
        <ele>3125.00</ele>
        <time>2018-09-08T21:29:01Z</time>
      </trkpt>
      <trkpt lat="-2.577999" lon="-78.829811">
        <ele>3124.00</ele>
        <time>2018-09-08T21:29:02Z</time>
      </trkpt>
      <trkpt lat="-2.577847" lon="-78.829735">
        <ele>3124.00</ele>
        <time>2018-09-08T21:29:03Z</time>
      </trkpt>
      <trkpt lat="-2.577700" lon="-78.829651">
        <ele>3124.00</ele>
        <time>2018-09-08T21:29:04Z</time>
      </trkpt>
      <trkpt lat="-2.577559" lon="-78.829567">
        <ele>3124.00</ele>
        <time>2018-09-08T21:29:05Z</time>
      </trkpt>
      <trkpt lat="-2.577431" lon="-78.829475">
        <ele>3124.00</ele>
        <time>2018-09-08T21:29:06Z</time>
      </trkpt>
      <trkpt lat="-2.577324" lon="-78.829376">
        <ele>3124.00</ele>
        <time>2018-09-08T21:29:07Z</time>
      </trkpt>
      <trkpt lat="-2.577236" lon="-78.829277">
        <ele>3124.00</ele>
        <time>2018-09-08T21:29:08Z</time>
      </trkpt>
      <trkpt lat="-2.577164" lon="-78.829185">
        <ele>3124.00</ele>
        <time>2018-09-08T21:29:09Z</time>
      </trkpt>
      <trkpt lat="-2.577108" lon="-78.829063">
        <ele>3124.00</ele>
        <time>2018-09-08T21:29:10Z</time>
      </trkpt>
      <trkpt lat="-2.577049" lon="-78.828949">
        <ele>3124.00</ele>
        <time>2018-09-08T21:29:11Z</time>
      </trkpt>
      <trkpt lat="-2.576961" lon="-78.828842">
        <ele>3124.00</ele>
        <time>2018-09-08T21:29:12Z</time>
      </trkpt>
      <trkpt lat="-2.576851" lon="-78.828758">
        <ele>3124.00</ele>
        <time>2018-09-08T21:29:13Z</time>
      </trkpt>
      <trkpt lat="-2.576731" lon="-78.828705">
        <ele>3124.00</ele>
        <time>2018-09-08T21:29:14Z</time>
      </trkpt>
      <trkpt lat="-2.576593" lon="-78.828667">
        <ele>3124.00</ele>
        <time>2018-09-08T21:29:15Z</time>
      </trkpt>
      <trkpt lat="-2.576447" lon="-78.828651">
        <ele>3124.00</ele>
        <time>2018-09-08T21:29:16Z</time>
      </trkpt>
      <trkpt lat="-2.576290" lon="-78.828629">
        <ele>3124.00</ele>
        <time>2018-09-08T21:29:17Z</time>
      </trkpt>
      <trkpt lat="-2.576124" lon="-78.828613">
        <ele>3125.00</ele>
        <time>2018-09-08T21:29:18Z</time>
      </trkpt>
      <trkpt lat="-2.575953" lon="-78.828590">
        <ele>3125.00</ele>
        <time>2018-09-08T21:29:19Z</time>
      </trkpt>
      <trkpt lat="-2.575779" lon="-78.828552">
        <ele>3125.00</ele>
        <time>2018-09-08T21:29:20Z</time>
      </trkpt>
      <trkpt lat="-2.575606" lon="-78.828506">
        <ele>3125.00</ele>
        <time>2018-09-08T21:29:21Z</time>
      </trkpt>
      <trkpt lat="-2.575437" lon="-78.828453">
        <ele>3125.00</ele>
        <time>2018-09-08T21:29:22Z</time>
      </trkpt>
      <trkpt lat="-2.575271" lon="-78.828400">
        <ele>3125.00</ele>
        <time>2018-09-08T21:29:23Z</time>
      </trkpt>
      <trkpt lat="-2.575111" lon="-78.828339">
        <ele>3125.00</ele>
        <time>2018-09-08T21:29:24Z</time>
      </trkpt>
      <trkpt lat="-2.574954" lon="-78.828285">
        <ele>3125.00</ele>
        <time>2018-09-08T21:29:25Z</time>
      </trkpt>
      <trkpt lat="-2.574805" lon="-78.828224">
        <ele>3125.00</ele>
        <time>2018-09-08T21:29:26Z</time>
      </trkpt>
      <trkpt lat="-2.574679" lon="-78.828148">
        <ele>3125.00</ele>
        <time>2018-09-08T21:29:27Z</time>
      </trkpt>
      <trkpt lat="-2.574567" lon="-78.828072">
        <ele>3125.00</ele>
        <time>2018-09-08T21:29:28Z</time>
      </trkpt>
      <trkpt lat="-2.574471" lon="-78.827980">
        <ele>3125.00</ele>
        <time>2018-09-08T21:29:29Z</time>
      </trkpt>
      <trkpt lat="-2.574373" lon="-78.827896">
        <ele>3125.00</ele>
        <time>2018-09-08T21:29:30Z</time>
      </trkpt>
      <trkpt lat="-2.574265" lon="-78.827805">
        <ele>3125.00</ele>
        <time>2018-09-08T21:29:31Z</time>
      </trkpt>
      <trkpt lat="-2.574146" lon="-78.827713">
        <ele>3125.00</ele>
        <time>2018-09-08T21:29:32Z</time>
      </trkpt>
      <trkpt lat="-2.574023" lon="-78.827644">
        <ele>3125.00</ele>
        <time>2018-09-08T21:29:33Z</time>
      </trkpt>
      <trkpt lat="-2.573914" lon="-78.827576">
        <ele>3126.00</ele>
        <time>2018-09-08T21:29:34Z</time>
      </trkpt>
      <trkpt lat="-2.573834" lon="-78.827522">
        <ele>3126.00</ele>
        <time>2018-09-08T21:29:35Z</time>
      </trkpt>
      <trkpt lat="-2.573774" lon="-78.827484">
        <ele>3126.00</ele>
        <time>2018-09-08T21:29:36Z</time>
      </trkpt>
      <trkpt lat="-2.573726" lon="-78.827461">
        <ele>3126.00</ele>
        <time>2018-09-08T21:29:37Z</time>
      </trkpt>
      <trkpt lat="-2.573681" lon="-78.827431">
        <ele>3126.00</ele>
        <time>2018-09-08T21:29:38Z</time>
      </trkpt>
      <trkpt lat="-2.573632" lon="-78.827393">
        <ele>3126.00</ele>
        <time>2018-09-08T21:29:39Z</time>
      </trkpt>
      <trkpt lat="-2.573582" lon="-78.827370">
        <ele>3126.00</ele>
        <time>2018-09-08T21:29:40Z</time>
      </trkpt>
      <trkpt lat="-2.573542" lon="-78.827332">
        <ele>3126.00</ele>
        <time>2018-09-08T21:29:41Z</time>
      </trkpt>
      <trkpt lat="-2.573508" lon="-78.827301">
        <ele>3126.00</ele>
        <time>2018-09-08T21:29:42Z</time>
      </trkpt>
      <trkpt lat="-2.573469" lon="-78.827271">
        <ele>3126.00</ele>
        <time>2018-09-08T21:29:43Z</time>
      </trkpt>
      <trkpt lat="-2.573431" lon="-78.827232">
        <ele>3126.00</ele>
        <time>2018-09-08T21:29:44Z</time>
      </trkpt>
      <trkpt lat="-2.573398" lon="-78.827202">
        <ele>3126.00</ele>
        <time>2018-09-08T21:29:45Z</time>
      </trkpt>
      <trkpt lat="-2.573367" lon="-78.827164">
        <ele>3126.00</ele>
        <time>2018-09-08T21:29:46Z</time>
      </trkpt>
      <trkpt lat="-2.573342" lon="-78.827141">
        <ele>3126.00</ele>
        <time>2018-09-08T21:29:47Z</time>
      </trkpt>
      <trkpt lat="-2.573323" lon="-78.827110">
        <ele>3126.00</ele>
        <time>2018-09-08T21:29:48Z</time>
      </trkpt>
      <trkpt lat="-2.573323" lon="-78.827110">
        <ele>3126.00</ele>
        <time>2018-09-08T21:29:49Z</time>
      </trkpt>
      <trkpt lat="-2.573323" lon="-78.827110">
        <ele>3126.00</ele>
        <time>2018-09-08T21:29:50Z</time>
      </trkpt>
      <trkpt lat="-2.573323" lon="-78.827110">
        <ele>3126.00</ele>
        <time>2018-09-08T21:29:51Z</time>
      </trkpt>
      <trkpt lat="-2.573286" lon="-78.827065">
        <ele>3126.00</ele>
        <time>2018-09-08T21:29:52Z</time>
      </trkpt>
      <trkpt lat="-2.573286" lon="-78.827065">
        <ele>3126.00</ele>
        <time>2018-09-08T21:29:53Z</time>
      </trkpt>
      <trkpt lat="-2.573286" lon="-78.827065">
        <ele>3126.00</ele>
        <time>2018-09-08T21:29:54Z</time>
      </trkpt>
      <trkpt lat="-2.573286" lon="-78.827065">
        <ele>3126.00</ele>
        <time>2018-09-08T21:29:55Z</time>
      </trkpt>
      <trkpt lat="-2.573286" lon="-78.827065">
        <ele>3126.00</ele>
        <time>2018-09-08T21:29:56Z</time>
      </trkpt>
      <trkpt lat="-2.573245" lon="-78.827019">
        <ele>3126.00</ele>
        <time>2018-09-08T21:29:57Z</time>
      </trkpt>
      <trkpt lat="-2.573245" lon="-78.827019">
        <ele>3126.00</ele>
        <time>2018-09-08T21:29:58Z</time>
      </trkpt>
      <trkpt lat="-2.573245" lon="-78.827019">
        <ele>3126.00</ele>
        <time>2018-09-08T21:29:59Z</time>
      </trkpt>
      <trkpt lat="-2.573245" lon="-78.827019">
        <ele>3126.00</ele>
        <time>2018-09-08T21:30:00Z</time>
      </trkpt>
      <trkpt lat="-2.573245" lon="-78.827019">
        <ele>3126.00</ele>
        <time>2018-09-08T21:30:01Z</time>
      </trkpt>
      <trkpt lat="-2.573245" lon="-78.827019">
        <ele>3126.00</ele>
        <time>2018-09-08T21:30:02Z</time>
      </trkpt>
      <trkpt lat="-2.573245" lon="-78.827019">
        <ele>3126.00</ele>
        <time>2018-09-08T21:30:03Z</time>
      </trkpt>
      <trkpt lat="-2.573245" lon="-78.827019">
        <ele>3126.00</ele>
        <time>2018-09-08T21:30:04Z</time>
      </trkpt>
      <trkpt lat="-2.573245" lon="-78.827019">
        <ele>3126.00</ele>
        <time>2018-09-08T21:30:05Z</time>
      </trkpt>
      <trkpt lat="-2.573245" lon="-78.827019">
        <ele>3126.00</ele>
        <time>2018-09-08T21:30:06Z</time>
      </trkpt>
      <trkpt lat="-2.573245" lon="-78.827019">
        <ele>3126.00</ele>
        <time>2018-09-08T21:30:07Z</time>
      </trkpt>
      <trkpt lat="-2.573245" lon="-78.827019">
        <ele>3126.00</ele>
        <time>2018-09-08T21:30:08Z</time>
      </trkpt>
      <trkpt lat="-2.573245" lon="-78.827019">
        <ele>3126.00</ele>
        <time>2018-09-08T21:30:09Z</time>
      </trkpt>
      <trkpt lat="-2.573245" lon="-78.827019">
        <ele>3126.00</ele>
        <time>2018-09-08T21:30:10Z</time>
      </trkpt>
      <trkpt lat="-2.573245" lon="-78.827019">
        <ele>3126.00</ele>
        <time>2018-09-08T21:30:11Z</time>
      </trkpt>
      <trkpt lat="-2.573245" lon="-78.827019">
        <ele>3126.00</ele>
        <time>2018-09-08T21:30:12Z</time>
      </trkpt>
      <trkpt lat="-2.573245" lon="-78.827019">
        <ele>3126.00</ele>
        <time>2018-09-08T21:30:13Z</time>
      </trkpt>
      <trkpt lat="-2.573245" lon="-78.827019">
        <ele>3126.00</ele>
        <time>2018-09-08T21:30:14Z</time>
      </trkpt>
      <trkpt lat="-2.573225" lon="-78.826988">
        <ele>3126.00</ele>
        <time>2018-09-08T21:30:15Z</time>
      </trkpt>
      <trkpt lat="-2.573196" lon="-78.826950">
        <ele>3126.00</ele>
        <time>2018-09-08T21:30:16Z</time>
      </trkpt>
      <trkpt lat="-2.573159" lon="-78.826889">
        <ele>3126.00</ele>
        <time>2018-09-08T21:30:17Z</time>
      </trkpt>
      <trkpt lat="-2.573108" lon="-78.826836">
        <ele>3126.00</ele>
        <time>2018-09-08T21:30:18Z</time>
      </trkpt>
      <trkpt lat="-2.573066" lon="-78.826782">
        <ele>3126.00</ele>
        <time>2018-09-08T21:30:19Z</time>
      </trkpt>
      <trkpt lat="-2.573032" lon="-78.826714">
        <ele>3126.00</ele>
        <time>2018-09-08T21:30:20Z</time>
      </trkpt>
      <trkpt lat="-2.573008" lon="-78.826630">
        <ele>3126.00</ele>
        <time>2018-09-08T21:30:21Z</time>
      </trkpt>
      <trkpt lat="-2.572996" lon="-78.826546">
        <ele>3126.00</ele>
        <time>2018-09-08T21:30:22Z</time>
      </trkpt>
      <trkpt lat="-2.573000" lon="-78.826447">
        <ele>3126.00</ele>
        <time>2018-09-08T21:30:23Z</time>
      </trkpt>
      <trkpt lat="-2.573015" lon="-78.826355">
        <ele>3126.00</ele>
        <time>2018-09-08T21:30:24Z</time>
      </trkpt>
      <trkpt lat="-2.573015" lon="-78.826263">
        <ele>3127.00</ele>
        <time>2018-09-08T21:30:25Z</time>
      </trkpt>
      <trkpt lat="-2.572980" lon="-78.826180">
        <ele>3127.00</ele>
        <time>2018-09-08T21:30:26Z</time>
      </trkpt>
      <trkpt lat="-2.572915" lon="-78.826096">
        <ele>3127.00</ele>
        <time>2018-09-08T21:30:27Z</time>
      </trkpt>
      <trkpt lat="-2.572845" lon="-78.826019">
        <ele>3127.00</ele>
        <time>2018-09-08T21:30:28Z</time>
      </trkpt>
      <trkpt lat="-2.572769" lon="-78.825935">
        <ele>3127.00</ele>
        <time>2018-09-08T21:30:29Z</time>
      </trkpt>
      <trkpt lat="-2.572690" lon="-78.825867">
        <ele>3127.00</ele>
        <time>2018-09-08T21:30:30Z</time>
      </trkpt>
      <trkpt lat="-2.572616" lon="-78.825806">
        <ele>3128.00</ele>
        <time>2018-09-08T21:30:31Z</time>
      </trkpt>
      <trkpt lat="-2.572547" lon="-78.825737">
        <ele>3128.00</ele>
        <time>2018-09-08T21:30:32Z</time>
      </trkpt>
      <trkpt lat="-2.572478" lon="-78.825668">
        <ele>3128.00</ele>
        <time>2018-09-08T21:30:33Z</time>
      </trkpt>
      <trkpt lat="-2.572407" lon="-78.825600">
        <ele>3128.00</ele>
        <time>2018-09-08T21:30:35Z</time>
      </trkpt>
      <trkpt lat="-2.572342" lon="-78.825546">
        <ele>3128.00</ele>
        <time>2018-09-08T21:30:36Z</time>
      </trkpt>
      <trkpt lat="-2.572288" lon="-78.825485">
        <ele>3128.00</ele>
        <time>2018-09-08T21:30:37Z</time>
      </trkpt>
      <trkpt lat="-2.572246" lon="-78.825439">
        <ele>3128.00</ele>
        <time>2018-09-08T21:30:38Z</time>
      </trkpt>
      <trkpt lat="-2.572211" lon="-78.825401">
        <ele>3128.00</ele>
        <time>2018-09-08T21:30:39Z</time>
      </trkpt>
      <trkpt lat="-2.572190" lon="-78.825386">
        <ele>3128.00</ele>
        <time>2018-09-08T21:30:40Z</time>
      </trkpt>
      <trkpt lat="-2.572178" lon="-78.825378">
        <ele>3128.00</ele>
        <time>2018-09-08T21:30:41Z</time>
      </trkpt>
      <trkpt lat="-2.572178" lon="-78.825378">
        <ele>3128.00</ele>
        <time>2018-09-08T21:30:42Z</time>
      </trkpt>
      <trkpt lat="-2.572178" lon="-78.825378">
        <ele>3128.00</ele>
        <time>2018-09-08T21:30:43Z</time>
      </trkpt>
      <trkpt lat="-2.572178" lon="-78.825378">
        <ele>3128.00</ele>
        <time>2018-09-08T21:30:44Z</time>
      </trkpt>
      <trkpt lat="-2.572178" lon="-78.825378">
        <ele>3128.00</ele>
        <time>2018-09-08T21:30:45Z</time>
      </trkpt>
      <trkpt lat="-2.572178" lon="-78.825378">
        <ele>3128.00</ele>
        <time>2018-09-08T21:30:46Z</time>
      </trkpt>
      <trkpt lat="-2.572178" lon="-78.825378">
        <ele>3128.00</ele>
        <time>2018-09-08T21:30:47Z</time>
      </trkpt>
      <trkpt lat="-2.572178" lon="-78.825378">
        <ele>3128.00</ele>
        <time>2018-09-08T21:30:48Z</time>
      </trkpt>
      <trkpt lat="-2.572178" lon="-78.825378">
        <ele>3128.00</ele>
        <time>2018-09-08T21:30:49Z</time>
      </trkpt>
      <trkpt lat="-2.572178" lon="-78.825378">
        <ele>3128.00</ele>
        <time>2018-09-08T21:30:50Z</time>
      </trkpt>
      <trkpt lat="-2.572178" lon="-78.825378">
        <ele>3128.00</ele>
        <time>2018-09-08T21:30:51Z</time>
      </trkpt>
      <trkpt lat="-2.572178" lon="-78.825378">
        <ele>3128.00</ele>
        <time>2018-09-08T21:30:52Z</time>
      </trkpt>
      <trkpt lat="-2.572178" lon="-78.825378">
        <ele>3128.00</ele>
        <time>2018-09-08T21:30:53Z</time>
      </trkpt>
      <trkpt lat="-2.572178" lon="-78.825378">
        <ele>3128.00</ele>
        <time>2018-09-08T21:30:54Z</time>
      </trkpt>
      <trkpt lat="-2.572178" lon="-78.825378">
        <ele>3128.00</ele>
        <time>2018-09-08T21:30:55Z</time>
      </trkpt>
      <trkpt lat="-2.572178" lon="-78.825378">
        <ele>3128.00</ele>
        <time>2018-09-08T21:30:56Z</time>
      </trkpt>
      <trkpt lat="-2.572178" lon="-78.825378">
        <ele>3128.00</ele>
        <time>2018-09-08T21:30:57Z</time>
      </trkpt>
      <trkpt lat="-2.572178" lon="-78.825378">
        <ele>3128.00</ele>
        <time>2018-09-08T21:30:58Z</time>
      </trkpt>
      <trkpt lat="-2.572178" lon="-78.825378">
        <ele>3128.00</ele>
        <time>2018-09-08T21:30:59Z</time>
      </trkpt>
      <trkpt lat="-2.572178" lon="-78.825378">
        <ele>3128.00</ele>
        <time>2018-09-08T21:31:00Z</time>
      </trkpt>
      <trkpt lat="-2.572178" lon="-78.825378">
        <ele>3128.00</ele>
        <time>2018-09-08T21:31:01Z</time>
      </trkpt>
      <trkpt lat="-2.572178" lon="-78.825378">
        <ele>3128.00</ele>
        <time>2018-09-08T21:31:02Z</time>
      </trkpt>
      <trkpt lat="-2.572178" lon="-78.825378">
        <ele>3128.00</ele>
        <time>2018-09-08T21:31:03Z</time>
      </trkpt>
      <trkpt lat="-2.572146" lon="-78.825333">
        <ele>3128.00</ele>
        <time>2018-09-08T21:31:04Z</time>
      </trkpt>
      <trkpt lat="-2.572146" lon="-78.825333">
        <ele>3128.00</ele>
        <time>2018-09-08T21:31:05Z</time>
      </trkpt>
      <trkpt lat="-2.572146" lon="-78.825333">
        <ele>3128.00</ele>
        <time>2018-09-08T21:31:06Z</time>
      </trkpt>
      <trkpt lat="-2.572146" lon="-78.825333">
        <ele>3128.00</ele>
        <time>2018-09-08T21:31:07Z</time>
      </trkpt>
      <trkpt lat="-2.572146" lon="-78.825333">
        <ele>3128.00</ele>
        <time>2018-09-08T21:31:08Z</time>
      </trkpt>
      <trkpt lat="-2.572146" lon="-78.825333">
        <ele>3128.00</ele>
        <time>2018-09-08T21:31:09Z</time>
      </trkpt>
      <trkpt lat="-2.572146" lon="-78.825333">
        <ele>3128.00</ele>
        <time>2018-09-08T21:31:10Z</time>
      </trkpt>
      <trkpt lat="-2.572146" lon="-78.825333">
        <ele>3128.00</ele>
        <time>2018-09-08T21:31:11Z</time>
      </trkpt>
      <trkpt lat="-2.572146" lon="-78.825333">
        <ele>3128.00</ele>
        <time>2018-09-08T21:31:12Z</time>
      </trkpt>
      <trkpt lat="-2.572146" lon="-78.825333">
        <ele>3128.00</ele>
        <time>2018-09-08T21:31:13Z</time>
      </trkpt>
      <trkpt lat="-2.572146" lon="-78.825333">
        <ele>3128.00</ele>
        <time>2018-09-08T21:31:14Z</time>
      </trkpt>
      <trkpt lat="-2.572146" lon="-78.825333">
        <ele>3128.00</ele>
        <time>2018-09-08T21:31:15Z</time>
      </trkpt>
      <trkpt lat="-2.572146" lon="-78.825333">
        <ele>3128.00</ele>
        <time>2018-09-08T21:31:16Z</time>
      </trkpt>
      <trkpt lat="-2.572146" lon="-78.825333">
        <ele>3128.00</ele>
        <time>2018-09-08T21:31:17Z</time>
      </trkpt>
      <trkpt lat="-2.572146" lon="-78.825333">
        <ele>3128.00</ele>
        <time>2018-09-08T21:31:18Z</time>
      </trkpt>
      <trkpt lat="-2.572146" lon="-78.825333">
        <ele>3128.00</ele>
        <time>2018-09-08T21:31:19Z</time>
      </trkpt>
      <trkpt lat="-2.572146" lon="-78.825333">
        <ele>3128.00</ele>
        <time>2018-09-08T21:31:20Z</time>
      </trkpt>
      <trkpt lat="-2.572146" lon="-78.825333">
        <ele>3128.00</ele>
        <time>2018-09-08T21:31:21Z</time>
      </trkpt>
      <trkpt lat="-2.572146" lon="-78.825333">
        <ele>3128.00</ele>
        <time>2018-09-08T21:31:22Z</time>
      </trkpt>
      <trkpt lat="-2.572146" lon="-78.825333">
        <ele>3128.00</ele>
        <time>2018-09-08T21:31:23Z</time>
      </trkpt>
      <trkpt lat="-2.572146" lon="-78.825333">
        <ele>3128.00</ele>
        <time>2018-09-08T21:31:24Z</time>
      </trkpt>
      <trkpt lat="-2.572146" lon="-78.825333">
        <ele>3128.00</ele>
        <time>2018-09-08T21:31:25Z</time>
      </trkpt>
      <trkpt lat="-2.572146" lon="-78.825333">
        <ele>3128.00</ele>
        <time>2018-09-08T21:31:26Z</time>
      </trkpt>
      <trkpt lat="-2.572146" lon="-78.825333">
        <ele>3128.00</ele>
        <time>2018-09-08T21:31:27Z</time>
      </trkpt>
      <trkpt lat="-2.572146" lon="-78.825333">
        <ele>3128.00</ele>
        <time>2018-09-08T21:31:28Z</time>
      </trkpt>
      <trkpt lat="-2.572146" lon="-78.825333">
        <ele>3128.00</ele>
        <time>2018-09-08T21:31:29Z</time>
      </trkpt>
      <trkpt lat="-2.572146" lon="-78.825333">
        <ele>3128.00</ele>
        <time>2018-09-08T21:31:30Z</time>
      </trkpt>
      <trkpt lat="-2.572146" lon="-78.825333">
        <ele>3128.00</ele>
        <time>2018-09-08T21:31:31Z</time>
      </trkpt>
      <trkpt lat="-2.572146" lon="-78.825333">
        <ele>3128.00</ele>
        <time>2018-09-08T21:31:32Z</time>
      </trkpt>
      <trkpt lat="-2.572146" lon="-78.825333">
        <ele>3128.00</ele>
        <time>2018-09-08T21:31:33Z</time>
      </trkpt>
      <trkpt lat="-2.572146" lon="-78.825333">
        <ele>3128.00</ele>
        <time>2018-09-08T21:31:34Z</time>
      </trkpt>
      <trkpt lat="-2.572146" lon="-78.825333">
        <ele>3128.00</ele>
        <time>2018-09-08T21:31:35Z</time>
      </trkpt>
      <trkpt lat="-2.572146" lon="-78.825333">
        <ele>3128.00</ele>
        <time>2018-09-08T21:31:36Z</time>
      </trkpt>
      <trkpt lat="-2.572146" lon="-78.825333">
        <ele>3128.00</ele>
        <time>2018-09-08T21:31:37Z</time>
      </trkpt>
      <trkpt lat="-2.572146" lon="-78.825333">
        <ele>3128.00</ele>
        <time>2018-09-08T21:31:38Z</time>
      </trkpt>
      <trkpt lat="-2.572146" lon="-78.825333">
        <ele>3128.00</ele>
        <time>2018-09-08T21:31:39Z</time>
      </trkpt>
      <trkpt lat="-2.572146" lon="-78.825333">
        <ele>3128.00</ele>
        <time>2018-09-08T21:31:40Z</time>
      </trkpt>
      <trkpt lat="-2.572146" lon="-78.825333">
        <ele>3128.00</ele>
        <time>2018-09-08T21:31:41Z</time>
      </trkpt>
      <trkpt lat="-2.572146" lon="-78.825333">
        <ele>3128.00</ele>
        <time>2018-09-08T21:31:42Z</time>
      </trkpt>
      <trkpt lat="-2.572146" lon="-78.825333">
        <ele>3128.00</ele>
        <time>2018-09-08T21:31:43Z</time>
      </trkpt>
      <trkpt lat="-2.572146" lon="-78.825333">
        <ele>3128.00</ele>
        <time>2018-09-08T21:31:44Z</time>
      </trkpt>
      <trkpt lat="-2.572146" lon="-78.825333">
        <ele>3128.00</ele>
        <time>2018-09-08T21:31:45Z</time>
      </trkpt>
      <trkpt lat="-2.572146" lon="-78.825333">
        <ele>3128.00</ele>
        <time>2018-09-08T21:31:46Z</time>
      </trkpt>
      <trkpt lat="-2.572146" lon="-78.825333">
        <ele>3128.00</ele>
        <time>2018-09-08T21:31:47Z</time>
      </trkpt>
      <trkpt lat="-2.572146" lon="-78.825333">
        <ele>3128.00</ele>
        <time>2018-09-08T21:31:48Z</time>
      </trkpt>
      <trkpt lat="-2.572146" lon="-78.825333">
        <ele>3128.00</ele>
        <time>2018-09-08T21:31:49Z</time>
      </trkpt>
      <trkpt lat="-2.572146" lon="-78.825333">
        <ele>3128.00</ele>
        <time>2018-09-08T21:31:50Z</time>
      </trkpt>
      <trkpt lat="-2.572146" lon="-78.825333">
        <ele>3128.00</ele>
        <time>2018-09-08T21:31:51Z</time>
      </trkpt>
      <trkpt lat="-2.572146" lon="-78.825333">
        <ele>3128.00</ele>
        <time>2018-09-08T21:31:52Z</time>
      </trkpt>
      <trkpt lat="-2.572146" lon="-78.825333">
        <ele>3128.00</ele>
        <time>2018-09-08T21:31:53Z</time>
      </trkpt>
      <trkpt lat="-2.572146" lon="-78.825333">
        <ele>3128.00</ele>
        <time>2018-09-08T21:31:54Z</time>
      </trkpt>
      <trkpt lat="-2.572146" lon="-78.825333">
        <ele>3128.00</ele>
        <time>2018-09-08T21:31:55Z</time>
      </trkpt>
      <trkpt lat="-2.572146" lon="-78.825333">
        <ele>3128.00</ele>
        <time>2018-09-08T21:31:56Z</time>
      </trkpt>
      <trkpt lat="-2.572146" lon="-78.825333">
        <ele>3128.00</ele>
        <time>2018-09-08T21:31:57Z</time>
      </trkpt>
      <trkpt lat="-2.572146" lon="-78.825333">
        <ele>3128.00</ele>
        <time>2018-09-08T21:31:58Z</time>
      </trkpt>
      <trkpt lat="-2.572146" lon="-78.825333">
        <ele>3128.00</ele>
        <time>2018-09-08T21:31:59Z</time>
      </trkpt>
      <trkpt lat="-2.572100" lon="-78.825294">
        <ele>3128.00</ele>
        <time>2018-09-08T21:32:00Z</time>
      </trkpt>
      <trkpt lat="-2.572100" lon="-78.825294">
        <ele>3128.00</ele>
        <time>2018-09-08T21:32:01Z</time>
      </trkpt>
      <trkpt lat="-2.572100" lon="-78.825294">
        <ele>3129.00</ele>
        <time>2018-09-08T21:32:02Z</time>
      </trkpt>
      <trkpt lat="-2.572100" lon="-78.825294">
        <ele>3129.00</ele>
        <time>2018-09-08T21:32:03Z</time>
      </trkpt>
      <trkpt lat="-2.572100" lon="-78.825294">
        <ele>3129.00</ele>
        <time>2018-09-08T21:32:04Z</time>
      </trkpt>
      <trkpt lat="-2.572100" lon="-78.825294">
        <ele>3129.00</ele>
        <time>2018-09-08T21:32:05Z</time>
      </trkpt>
      <trkpt lat="-2.572100" lon="-78.825294">
        <ele>3129.00</ele>
        <time>2018-09-08T21:32:06Z</time>
      </trkpt>
      <trkpt lat="-2.572100" lon="-78.825294">
        <ele>3129.00</ele>
        <time>2018-09-08T21:32:07Z</time>
      </trkpt>
      <trkpt lat="-2.572100" lon="-78.825294">
        <ele>3129.00</ele>
        <time>2018-09-08T21:32:08Z</time>
      </trkpt>
      <trkpt lat="-2.572100" lon="-78.825294">
        <ele>3129.00</ele>
        <time>2018-09-08T21:32:09Z</time>
      </trkpt>
      <trkpt lat="-2.572100" lon="-78.825294">
        <ele>3129.00</ele>
        <time>2018-09-08T21:32:10Z</time>
      </trkpt>
      <trkpt lat="-2.572083" lon="-78.825287">
        <ele>3129.00</ele>
        <time>2018-09-08T21:32:11Z</time>
      </trkpt>
      <trkpt lat="-2.572052" lon="-78.825279">
        <ele>3129.00</ele>
        <time>2018-09-08T21:32:12Z</time>
      </trkpt>
      <trkpt lat="-2.572002" lon="-78.825264">
        <ele>3131.00</ele>
        <time>2018-09-08T21:32:13Z</time>
      </trkpt>
      <trkpt lat="-2.571913" lon="-78.825233">
        <ele>3133.00</ele>
        <time>2018-09-08T21:32:14Z</time>
      </trkpt>
      <trkpt lat="-2.571805" lon="-78.825211">
        <ele>3134.00</ele>
        <time>2018-09-08T21:32:15Z</time>
      </trkpt>
      <trkpt lat="-2.571679" lon="-78.825180">
        <ele>3135.00</ele>
        <time>2018-09-08T21:32:16Z</time>
      </trkpt>
      <trkpt lat="-2.571546" lon="-78.825172">
        <ele>3136.00</ele>
        <time>2018-09-08T21:32:17Z</time>
      </trkpt>
      <trkpt lat="-2.571433" lon="-78.825165">
        <ele>3137.00</ele>
        <time>2018-09-08T21:32:18Z</time>
      </trkpt>
      <trkpt lat="-2.571344" lon="-78.825134">
        <ele>3137.00</ele>
        <time>2018-09-08T21:32:19Z</time>
      </trkpt>
      <trkpt lat="-2.571261" lon="-78.825119">
        <ele>3137.00</ele>
        <time>2018-09-08T21:32:20Z</time>
      </trkpt>
      <trkpt lat="-2.571186" lon="-78.825119">
        <ele>3138.00</ele>
        <time>2018-09-08T21:32:21Z</time>
      </trkpt>
      <trkpt lat="-2.571123" lon="-78.825134">
        <ele>3138.00</ele>
        <time>2018-09-08T21:32:22Z</time>
      </trkpt>
      <trkpt lat="-2.571071" lon="-78.825165">
        <ele>3138.00</ele>
        <time>2018-09-08T21:32:23Z</time>
      </trkpt>
      <trkpt lat="-2.571019" lon="-78.825188">
        <ele>3138.00</ele>
        <time>2018-09-08T21:32:24Z</time>
      </trkpt>
      <trkpt lat="-2.570961" lon="-78.825211">
        <ele>3138.00</ele>
        <time>2018-09-08T21:32:25Z</time>
      </trkpt>
      <trkpt lat="-2.570886" lon="-78.825211">
        <ele>3139.00</ele>
        <time>2018-09-08T21:32:26Z</time>
      </trkpt>
      <trkpt lat="-2.570787" lon="-78.825188">
        <ele>3139.00</ele>
        <time>2018-09-08T21:32:27Z</time>
      </trkpt>
      <trkpt lat="-2.570672" lon="-78.825172">
        <ele>3139.00</ele>
        <time>2018-09-08T21:32:28Z</time>
      </trkpt>
      <trkpt lat="-2.570558" lon="-78.825172">
        <ele>3139.00</ele>
        <time>2018-09-08T21:32:29Z</time>
      </trkpt>
      <trkpt lat="-2.570451" lon="-78.825180">
        <ele>3138.00</ele>
        <time>2018-09-08T21:32:30Z</time>
      </trkpt>
      <trkpt lat="-2.570351" lon="-78.825188">
        <ele>3138.00</ele>
        <time>2018-09-08T21:32:31Z</time>
      </trkpt>
      <trkpt lat="-2.570255" lon="-78.825226">
        <ele>3138.00</ele>
        <time>2018-09-08T21:32:32Z</time>
      </trkpt>
      <trkpt lat="-2.570165" lon="-78.825256">
        <ele>3138.00</ele>
        <time>2018-09-08T21:32:33Z</time>
      </trkpt>
      <trkpt lat="-2.570073" lon="-78.825272">
        <ele>3138.00</ele>
        <time>2018-09-08T21:32:34Z</time>
      </trkpt>
      <trkpt lat="-2.569983" lon="-78.825279">
        <ele>3138.00</ele>
        <time>2018-09-08T21:32:35Z</time>
      </trkpt>
      <trkpt lat="-2.569893" lon="-78.825279">
        <ele>3138.00</ele>
        <time>2018-09-08T21:32:36Z</time>
      </trkpt>
      <trkpt lat="-2.569806" lon="-78.825256">
        <ele>3138.00</ele>
        <time>2018-09-08T21:32:37Z</time>
      </trkpt>
      <trkpt lat="-2.569724" lon="-78.825211">
        <ele>3138.00</ele>
        <time>2018-09-08T21:32:38Z</time>
      </trkpt>
      <trkpt lat="-2.569647" lon="-78.825157">
        <ele>3138.00</ele>
        <time>2018-09-08T21:32:39Z</time>
      </trkpt>
      <trkpt lat="-2.569569" lon="-78.825081">
        <ele>3138.00</ele>
        <time>2018-09-08T21:32:40Z</time>
      </trkpt>
      <trkpt lat="-2.569493" lon="-78.825020">
        <ele>3138.00</ele>
        <time>2018-09-08T21:32:41Z</time>
      </trkpt>
      <trkpt lat="-2.569423" lon="-78.824951">
        <ele>3138.00</ele>
        <time>2018-09-08T21:32:42Z</time>
      </trkpt>
      <trkpt lat="-2.569349" lon="-78.824875">
        <ele>3138.00</ele>
        <time>2018-09-08T21:32:43Z</time>
      </trkpt>
      <trkpt lat="-2.569269" lon="-78.824791">
        <ele>3138.00</ele>
        <time>2018-09-08T21:32:44Z</time>
      </trkpt>
      <trkpt lat="-2.569183" lon="-78.824722">
        <ele>3138.00</ele>
        <time>2018-09-08T21:32:45Z</time>
      </trkpt>
      <trkpt lat="-2.569099" lon="-78.824646">
        <ele>3138.00</ele>
        <time>2018-09-08T21:32:46Z</time>
      </trkpt>
      <trkpt lat="-2.569021" lon="-78.824570">
        <ele>3137.00</ele>
        <time>2018-09-08T21:32:47Z</time>
      </trkpt>
      <trkpt lat="-2.568948" lon="-78.824501">
        <ele>3137.00</ele>
        <time>2018-09-08T21:32:48Z</time>
      </trkpt>
      <trkpt lat="-2.568880" lon="-78.824432">
        <ele>3137.00</ele>
        <time>2018-09-08T21:32:49Z</time>
      </trkpt>
      <trkpt lat="-2.568808" lon="-78.824394">
        <ele>3137.00</ele>
        <time>2018-09-08T21:32:50Z</time>
      </trkpt>
      <trkpt lat="-2.568731" lon="-78.824348">
        <ele>3137.00</ele>
        <time>2018-09-08T21:32:51Z</time>
      </trkpt>
      <trkpt lat="-2.568640" lon="-78.824318">
        <ele>3137.00</ele>
        <time>2018-09-08T21:32:52Z</time>
      </trkpt>
      <trkpt lat="-2.568530" lon="-78.824303">
        <ele>3137.00</ele>
        <time>2018-09-08T21:32:53Z</time>
      </trkpt>
      <trkpt lat="-2.568408" lon="-78.824295">
        <ele>3136.00</ele>
        <time>2018-09-08T21:32:54Z</time>
      </trkpt>
      <trkpt lat="-2.568285" lon="-78.824272">
        <ele>3136.00</ele>
        <time>2018-09-08T21:32:55Z</time>
      </trkpt>
      <trkpt lat="-2.568165" lon="-78.824249">
        <ele>3136.00</ele>
        <time>2018-09-08T21:32:56Z</time>
      </trkpt>
      <trkpt lat="-2.568048" lon="-78.824203">
        <ele>3136.00</ele>
        <time>2018-09-08T21:32:57Z</time>
      </trkpt>
      <trkpt lat="-2.567932" lon="-78.824127">
        <ele>3136.00</ele>
        <time>2018-09-08T21:32:58Z</time>
      </trkpt>
      <trkpt lat="-2.567823" lon="-78.824028">
        <ele>3136.00</ele>
        <time>2018-09-08T21:32:59Z</time>
      </trkpt>
      <trkpt lat="-2.567718" lon="-78.823914">
        <ele>3136.00</ele>
        <time>2018-09-08T21:33:00Z</time>
      </trkpt>
      <trkpt lat="-2.567617" lon="-78.823799">
        <ele>3136.00</ele>
        <time>2018-09-08T21:33:01Z</time>
      </trkpt>
      <trkpt lat="-2.567521" lon="-78.823677">
        <ele>3136.00</ele>
        <time>2018-09-08T21:33:02Z</time>
      </trkpt>
      <trkpt lat="-2.567425" lon="-78.823563">
        <ele>3136.00</ele>
        <time>2018-09-08T21:33:03Z</time>
      </trkpt>
      <trkpt lat="-2.567323" lon="-78.823463">
        <ele>3136.00</ele>
        <time>2018-09-08T21:33:04Z</time>
      </trkpt>
      <trkpt lat="-2.567228" lon="-78.823372">
        <ele>3136.00</ele>
        <time>2018-09-08T21:33:05Z</time>
      </trkpt>
      <trkpt lat="-2.567133" lon="-78.823288">
        <ele>3136.00</ele>
        <time>2018-09-08T21:33:06Z</time>
      </trkpt>
      <trkpt lat="-2.567026" lon="-78.823212">
        <ele>3136.00</ele>
        <time>2018-09-08T21:33:07Z</time>
      </trkpt>
      <trkpt lat="-2.566905" lon="-78.823135">
        <ele>3136.00</ele>
        <time>2018-09-08T21:33:08Z</time>
      </trkpt>
      <trkpt lat="-2.566778" lon="-78.823074">
        <ele>3136.00</ele>
        <time>2018-09-08T21:33:09Z</time>
      </trkpt>
      <trkpt lat="-2.566663" lon="-78.823021">
        <ele>3136.00</ele>
        <time>2018-09-08T21:33:10Z</time>
      </trkpt>
      <trkpt lat="-2.566567" lon="-78.822960">
        <ele>3136.00</ele>
        <time>2018-09-08T21:33:11Z</time>
      </trkpt>
      <trkpt lat="-2.566492" lon="-78.822891">
        <ele>3136.00</ele>
        <time>2018-09-08T21:33:12Z</time>
      </trkpt>
      <trkpt lat="-2.566427" lon="-78.822830">
        <ele>3136.00</ele>
        <time>2018-09-08T21:33:13Z</time>
      </trkpt>
      <trkpt lat="-2.566351" lon="-78.822777">
        <ele>3136.00</ele>
        <time>2018-09-08T21:33:14Z</time>
      </trkpt>
      <trkpt lat="-2.566257" lon="-78.822739">
        <ele>3136.00</ele>
        <time>2018-09-08T21:33:15Z</time>
      </trkpt>
      <trkpt lat="-2.566145" lon="-78.822723">
        <ele>3136.00</ele>
        <time>2018-09-08T21:33:16Z</time>
      </trkpt>
      <trkpt lat="-2.566016" lon="-78.822723">
        <ele>3136.00</ele>
        <time>2018-09-08T21:33:17Z</time>
      </trkpt>
      <trkpt lat="-2.565883" lon="-78.822731">
        <ele>3136.00</ele>
        <time>2018-09-08T21:33:18Z</time>
      </trkpt>
      <trkpt lat="-2.565754" lon="-78.822723">
        <ele>3136.00</ele>
        <time>2018-09-08T21:33:19Z</time>
      </trkpt>
      <trkpt lat="-2.565631" lon="-78.822708">
        <ele>3136.00</ele>
        <time>2018-09-08T21:33:20Z</time>
      </trkpt>
      <trkpt lat="-2.565504" lon="-78.822693">
        <ele>3137.00</ele>
        <time>2018-09-08T21:33:21Z</time>
      </trkpt>
      <trkpt lat="-2.565372" lon="-78.822670">
        <ele>3137.00</ele>
        <time>2018-09-08T21:33:22Z</time>
      </trkpt>
      <trkpt lat="-2.565240" lon="-78.822632">
        <ele>3137.00</ele>
        <time>2018-09-08T21:33:23Z</time>
      </trkpt>
      <trkpt lat="-2.565113" lon="-78.822578">
        <ele>3137.00</ele>
        <time>2018-09-08T21:33:24Z</time>
      </trkpt>
      <trkpt lat="-2.564989" lon="-78.822510">
        <ele>3137.00</ele>
        <time>2018-09-08T21:33:25Z</time>
      </trkpt>
      <trkpt lat="-2.564873" lon="-78.822411">
        <ele>3137.00</ele>
        <time>2018-09-08T21:33:26Z</time>
      </trkpt>
      <trkpt lat="-2.564757" lon="-78.822311">
        <ele>3137.00</ele>
        <time>2018-09-08T21:33:27Z</time>
      </trkpt>
      <trkpt lat="-2.564647" lon="-78.822212">
        <ele>3137.00</ele>
        <time>2018-09-08T21:33:28Z</time>
      </trkpt>
      <trkpt lat="-2.564541" lon="-78.822113">
        <ele>3137.00</ele>
        <time>2018-09-08T21:33:29Z</time>
      </trkpt>
      <trkpt lat="-2.564435" lon="-78.821999">
        <ele>3138.00</ele>
        <time>2018-09-08T21:33:30Z</time>
      </trkpt>
      <trkpt lat="-2.564329" lon="-78.821884">
        <ele>3138.00</ele>
        <time>2018-09-08T21:33:31Z</time>
      </trkpt>
      <trkpt lat="-2.564223" lon="-78.821739">
        <ele>3138.00</ele>
        <time>2018-09-08T21:33:32Z</time>
      </trkpt>
      <trkpt lat="-2.564122" lon="-78.821602">
        <ele>3138.00</ele>
        <time>2018-09-08T21:33:33Z</time>
      </trkpt>
      <trkpt lat="-2.564031" lon="-78.821457">
        <ele>3138.00</ele>
        <time>2018-09-08T21:33:34Z</time>
      </trkpt>
      <trkpt lat="-2.563941" lon="-78.821312">
        <ele>3138.00</ele>
        <time>2018-09-08T21:33:35Z</time>
      </trkpt>
      <trkpt lat="-2.563853" lon="-78.821175">
        <ele>3139.00</ele>
        <time>2018-09-08T21:33:36Z</time>
      </trkpt>
      <trkpt lat="-2.563772" lon="-78.821022">
        <ele>3139.00</ele>
        <time>2018-09-08T21:33:37Z</time>
      </trkpt>
      <trkpt lat="-2.563701" lon="-78.820900">
        <ele>3139.00</ele>
        <time>2018-09-08T21:33:38Z</time>
      </trkpt>
      <trkpt lat="-2.563642" lon="-78.820793">
        <ele>3139.00</ele>
        <time>2018-09-08T21:33:39Z</time>
      </trkpt>
      <trkpt lat="-2.563593" lon="-78.820694">
        <ele>3139.00</ele>
        <time>2018-09-08T21:33:40Z</time>
      </trkpt>
      <trkpt lat="-2.563534" lon="-78.820610">
        <ele>3139.00</ele>
        <time>2018-09-08T21:33:41Z</time>
      </trkpt>
      <trkpt lat="-2.563469" lon="-78.820541">
        <ele>3140.00</ele>
        <time>2018-09-08T21:33:42Z</time>
      </trkpt>
      <trkpt lat="-2.563378" lon="-78.820503">
        <ele>3140.00</ele>
        <time>2018-09-08T21:33:43Z</time>
      </trkpt>
      <trkpt lat="-2.563277" lon="-78.820503">
        <ele>3140.00</ele>
        <time>2018-09-08T21:33:44Z</time>
      </trkpt>
      <trkpt lat="-2.563182" lon="-78.820549">
        <ele>3140.00</ele>
        <time>2018-09-08T21:33:45Z</time>
      </trkpt>
      <trkpt lat="-2.563087" lon="-78.820625">
        <ele>3140.00</ele>
        <time>2018-09-08T21:33:46Z</time>
      </trkpt>
      <trkpt lat="-2.562978" lon="-78.820694">
        <ele>3140.00</ele>
        <time>2018-09-08T21:33:47Z</time>
      </trkpt>
      <trkpt lat="-2.562853" lon="-78.820747">
        <ele>3140.00</ele>
        <time>2018-09-08T21:33:48Z</time>
      </trkpt>
      <trkpt lat="-2.562725" lon="-78.820808">
        <ele>3140.00</ele>
        <time>2018-09-08T21:33:49Z</time>
      </trkpt>
      <trkpt lat="-2.562616" lon="-78.820877">
        <ele>3141.00</ele>
        <time>2018-09-08T21:33:50Z</time>
      </trkpt>
      <trkpt lat="-2.562499" lon="-78.820923">
        <ele>3141.00</ele>
        <time>2018-09-08T21:33:51Z</time>
      </trkpt>
      <trkpt lat="-2.562359" lon="-78.820953">
        <ele>3141.00</ele>
        <time>2018-09-08T21:33:52Z</time>
      </trkpt>
      <trkpt lat="-2.562210" lon="-78.820961">
        <ele>3141.00</ele>
        <time>2018-09-08T21:33:53Z</time>
      </trkpt>
      <trkpt lat="-2.562050" lon="-78.820946">
        <ele>3141.00</ele>
        <time>2018-09-08T21:33:54Z</time>
      </trkpt>
      <trkpt lat="-2.561885" lon="-78.820908">
        <ele>3142.00</ele>
        <time>2018-09-08T21:33:55Z</time>
      </trkpt>
      <trkpt lat="-2.561715" lon="-78.820862">
        <ele>3142.00</ele>
        <time>2018-09-08T21:33:56Z</time>
      </trkpt>
      <trkpt lat="-2.561537" lon="-78.820808">
        <ele>3142.00</ele>
        <time>2018-09-08T21:33:57Z</time>
      </trkpt>
      <trkpt lat="-2.561359" lon="-78.820763">
        <ele>3143.00</ele>
        <time>2018-09-08T21:33:58Z</time>
      </trkpt>
      <trkpt lat="-2.561190" lon="-78.820709">
        <ele>3143.00</ele>
        <time>2018-09-08T21:33:59Z</time>
      </trkpt>
      <trkpt lat="-2.561035" lon="-78.820663">
        <ele>3143.00</ele>
        <time>2018-09-08T21:34:00Z</time>
      </trkpt>
      <trkpt lat="-2.560893" lon="-78.820610">
        <ele>3143.00</ele>
        <time>2018-09-08T21:34:01Z</time>
      </trkpt>
      <trkpt lat="-2.560765" lon="-78.820541">
        <ele>3144.00</ele>
        <time>2018-09-08T21:34:02Z</time>
      </trkpt>
      <trkpt lat="-2.560660" lon="-78.820427">
        <ele>3144.00</ele>
        <time>2018-09-08T21:34:03Z</time>
      </trkpt>
      <trkpt lat="-2.560583" lon="-78.820305">
        <ele>3144.00</ele>
        <time>2018-09-08T21:34:04Z</time>
      </trkpt>
      <trkpt lat="-2.560512" lon="-78.820168">
        <ele>3145.00</ele>
        <time>2018-09-08T21:34:05Z</time>
      </trkpt>
      <trkpt lat="-2.560440" lon="-78.820038">
        <ele>3145.00</ele>
        <time>2018-09-08T21:34:06Z</time>
      </trkpt>
      <trkpt lat="-2.560360" lon="-78.819901">
        <ele>3145.00</ele>
        <time>2018-09-08T21:34:07Z</time>
      </trkpt>
      <trkpt lat="-2.560257" lon="-78.819771">
        <ele>3145.00</ele>
        <time>2018-09-08T21:34:08Z</time>
      </trkpt>
      <trkpt lat="-2.560129" lon="-78.819656">
        <ele>3146.00</ele>
        <time>2018-09-08T21:34:09Z</time>
      </trkpt>
      <trkpt lat="-2.559985" lon="-78.819550">
        <ele>3146.00</ele>
        <time>2018-09-08T21:34:10Z</time>
      </trkpt>
      <trkpt lat="-2.559845" lon="-78.819427">
        <ele>3146.00</ele>
        <time>2018-09-08T21:34:11Z</time>
      </trkpt>
      <trkpt lat="-2.559711" lon="-78.819336">
        <ele>3146.00</ele>
        <time>2018-09-08T21:34:12Z</time>
      </trkpt>
      <trkpt lat="-2.559594" lon="-78.819229">
        <ele>3146.00</ele>
        <time>2018-09-08T21:34:13Z</time>
      </trkpt>
      <trkpt lat="-2.559490" lon="-78.819099">
        <ele>3146.00</ele>
        <time>2018-09-08T21:34:14Z</time>
      </trkpt>
      <trkpt lat="-2.559408" lon="-78.818985">
        <ele>3147.00</ele>
        <time>2018-09-08T21:34:15Z</time>
      </trkpt>
      <trkpt lat="-2.559338" lon="-78.818878">
        <ele>3147.00</ele>
        <time>2018-09-08T21:34:16Z</time>
      </trkpt>
      <trkpt lat="-2.559262" lon="-78.818802">
        <ele>3147.00</ele>
        <time>2018-09-08T21:34:17Z</time>
      </trkpt>
      <trkpt lat="-2.559150" lon="-78.818741">
        <ele>3147.00</ele>
        <time>2018-09-08T21:34:18Z</time>
      </trkpt>
      <trkpt lat="-2.559020" lon="-78.818687">
        <ele>3148.00</ele>
        <time>2018-09-08T21:34:19Z</time>
      </trkpt>
      <trkpt lat="-2.558882" lon="-78.818649">
        <ele>3148.00</ele>
        <time>2018-09-08T21:34:20Z</time>
      </trkpt>
      <trkpt lat="-2.558742" lon="-78.818611">
        <ele>3149.00</ele>
        <time>2018-09-08T21:34:21Z</time>
      </trkpt>
      <trkpt lat="-2.558608" lon="-78.818581">
        <ele>3149.00</ele>
        <time>2018-09-08T21:34:22Z</time>
      </trkpt>
      <trkpt lat="-2.558493" lon="-78.818542">
        <ele>3149.00</ele>
        <time>2018-09-08T21:34:23Z</time>
      </trkpt>
      <trkpt lat="-2.558387" lon="-78.818489">
        <ele>3150.00</ele>
        <time>2018-09-08T21:34:24Z</time>
      </trkpt>
      <trkpt lat="-2.558273" lon="-78.818474">
        <ele>3150.00</ele>
        <time>2018-09-08T21:34:25Z</time>
      </trkpt>
      <trkpt lat="-2.558148" lon="-78.818489">
        <ele>3151.00</ele>
        <time>2018-09-08T21:34:26Z</time>
      </trkpt>
      <trkpt lat="-2.558021" lon="-78.818527">
        <ele>3151.00</ele>
        <time>2018-09-08T21:34:27Z</time>
      </trkpt>
      <trkpt lat="-2.557889" lon="-78.818558">
        <ele>3152.00</ele>
        <time>2018-09-08T21:34:28Z</time>
      </trkpt>
      <trkpt lat="-2.557744" lon="-78.818542">
        <ele>3152.00</ele>
        <time>2018-09-08T21:34:29Z</time>
      </trkpt>
      <trkpt lat="-2.557586" lon="-78.818512">
        <ele>3152.00</ele>
        <time>2018-09-08T21:34:30Z</time>
      </trkpt>
      <trkpt lat="-2.557428" lon="-78.818489">
        <ele>3152.00</ele>
        <time>2018-09-08T21:34:31Z</time>
      </trkpt>
      <trkpt lat="-2.557284" lon="-78.818481">
        <ele>3153.00</ele>
        <time>2018-09-08T21:34:32Z</time>
      </trkpt>
      <trkpt lat="-2.557142" lon="-78.818481">
        <ele>3153.00</ele>
        <time>2018-09-08T21:34:33Z</time>
      </trkpt>
      <trkpt lat="-2.556995" lon="-78.818504">
        <ele>3153.00</ele>
        <time>2018-09-08T21:34:34Z</time>
      </trkpt>
      <trkpt lat="-2.556846" lon="-78.818550">
        <ele>3153.00</ele>
        <time>2018-09-08T21:34:35Z</time>
      </trkpt>
      <trkpt lat="-2.556718" lon="-78.818581">
        <ele>3153.00</ele>
        <time>2018-09-08T21:34:36Z</time>
      </trkpt>
      <trkpt lat="-2.556608" lon="-78.818604">
        <ele>3153.00</ele>
        <time>2018-09-08T21:34:37Z</time>
      </trkpt>
      <trkpt lat="-2.556515" lon="-78.818619">
        <ele>3153.00</ele>
        <time>2018-09-08T21:34:38Z</time>
      </trkpt>
      <trkpt lat="-2.556432" lon="-78.818657">
        <ele>3153.00</ele>
        <time>2018-09-08T21:34:39Z</time>
      </trkpt>
      <trkpt lat="-2.556358" lon="-78.818726">
        <ele>3153.00</ele>
        <time>2018-09-08T21:34:40Z</time>
      </trkpt>
      <trkpt lat="-2.556294" lon="-78.818802">
        <ele>3153.00</ele>
        <time>2018-09-08T21:34:41Z</time>
      </trkpt>
      <trkpt lat="-2.556213" lon="-78.818855">
        <ele>3153.00</ele>
        <time>2018-09-08T21:34:42Z</time>
      </trkpt>
      <trkpt lat="-2.556110" lon="-78.818871">
        <ele>3153.00</ele>
        <time>2018-09-08T21:34:43Z</time>
      </trkpt>
      <trkpt lat="-2.555994" lon="-78.818855">
        <ele>3153.00</ele>
        <time>2018-09-08T21:34:44Z</time>
      </trkpt>
      <trkpt lat="-2.555871" lon="-78.818817">
        <ele>3153.00</ele>
        <time>2018-09-08T21:34:45Z</time>
      </trkpt>
      <trkpt lat="-2.555754" lon="-78.818802">
        <ele>3153.00</ele>
        <time>2018-09-08T21:34:46Z</time>
      </trkpt>
      <trkpt lat="-2.555648" lon="-78.818794">
        <ele>3153.00</ele>
        <time>2018-09-08T21:34:47Z</time>
      </trkpt>
      <trkpt lat="-2.555541" lon="-78.818764">
        <ele>3152.00</ele>
        <time>2018-09-08T21:34:48Z</time>
      </trkpt>
      <trkpt lat="-2.555433" lon="-78.818703">
        <ele>3152.00</ele>
        <time>2018-09-08T21:34:49Z</time>
      </trkpt>
      <trkpt lat="-2.555320" lon="-78.818649">
        <ele>3152.00</ele>
        <time>2018-09-08T21:34:50Z</time>
      </trkpt>
      <trkpt lat="-2.555229" lon="-78.818604">
        <ele>3152.00</ele>
        <time>2018-09-08T21:34:51Z</time>
      </trkpt>
      <trkpt lat="-2.555156" lon="-78.818581">
        <ele>3152.00</ele>
        <time>2018-09-08T21:34:52Z</time>
      </trkpt>
      <trkpt lat="-2.555105" lon="-78.818565">
        <ele>3152.00</ele>
        <time>2018-09-08T21:34:53Z</time>
      </trkpt>
      <trkpt lat="-2.555065" lon="-78.818558">
        <ele>3152.00</ele>
        <time>2018-09-08T21:34:54Z</time>
      </trkpt>
      <trkpt lat="-2.555024" lon="-78.818550">
        <ele>3152.00</ele>
        <time>2018-09-08T21:34:55Z</time>
      </trkpt>
      <trkpt lat="-2.554989" lon="-78.818550">
        <ele>3152.00</ele>
        <time>2018-09-08T21:34:56Z</time>
      </trkpt>
      <trkpt lat="-2.554951" lon="-78.818550">
        <ele>3152.00</ele>
        <time>2018-09-08T21:34:57Z</time>
      </trkpt>
      <trkpt lat="-2.554906" lon="-78.818542">
        <ele>3152.00</ele>
        <time>2018-09-08T21:34:58Z</time>
      </trkpt>
      <trkpt lat="-2.554856" lon="-78.818535">
        <ele>3152.00</ele>
        <time>2018-09-08T21:34:59Z</time>
      </trkpt>
      <trkpt lat="-2.554791" lon="-78.818535">
        <ele>3152.00</ele>
        <time>2018-09-08T21:35:00Z</time>
      </trkpt>
      <trkpt lat="-2.554713" lon="-78.818527">
        <ele>3151.00</ele>
        <time>2018-09-08T21:35:01Z</time>
      </trkpt>
      <trkpt lat="-2.554618" lon="-78.818504">
        <ele>3151.00</ele>
        <time>2018-09-08T21:35:02Z</time>
      </trkpt>
      <trkpt lat="-2.554511" lon="-78.818474">
        <ele>3151.00</ele>
        <time>2018-09-08T21:35:03Z</time>
      </trkpt>
      <trkpt lat="-2.554397" lon="-78.818436">
        <ele>3151.00</ele>
        <time>2018-09-08T21:35:04Z</time>
      </trkpt>
      <trkpt lat="-2.554275" lon="-78.818390">
        <ele>3151.00</ele>
        <time>2018-09-08T21:35:05Z</time>
      </trkpt>
      <trkpt lat="-2.554148" lon="-78.818329">
        <ele>3151.00</ele>
        <time>2018-09-08T21:35:06Z</time>
      </trkpt>
      <trkpt lat="-2.554023" lon="-78.818260">
        <ele>3151.00</ele>
        <time>2018-09-08T21:35:07Z</time>
      </trkpt>
      <trkpt lat="-2.553899" lon="-78.818199">
        <ele>3152.00</ele>
        <time>2018-09-08T21:35:08Z</time>
      </trkpt>
      <trkpt lat="-2.553787" lon="-78.818123">
        <ele>3152.00</ele>
        <time>2018-09-08T21:35:09Z</time>
      </trkpt>
      <trkpt lat="-2.553692" lon="-78.818024">
        <ele>3152.00</ele>
        <time>2018-09-08T21:35:10Z</time>
      </trkpt>
      <trkpt lat="-2.553613" lon="-78.817902">
        <ele>3152.00</ele>
        <time>2018-09-08T21:35:11Z</time>
      </trkpt>
      <trkpt lat="-2.553574" lon="-78.817749">
        <ele>3152.00</ele>
        <time>2018-09-08T21:35:12Z</time>
      </trkpt>
      <trkpt lat="-2.553562" lon="-78.817596">
        <ele>3152.00</ele>
        <time>2018-09-08T21:35:13Z</time>
      </trkpt>
      <trkpt lat="-2.553547" lon="-78.817459">
        <ele>3152.00</ele>
        <time>2018-09-08T21:35:14Z</time>
      </trkpt>
      <trkpt lat="-2.553533" lon="-78.817307">
        <ele>3152.00</ele>
        <time>2018-09-08T21:35:15Z</time>
      </trkpt>
      <trkpt lat="-2.553517" lon="-78.817184">
        <ele>3152.00</ele>
        <time>2018-09-08T21:35:16Z</time>
      </trkpt>
      <trkpt lat="-2.553491" lon="-78.817078">
        <ele>3153.00</ele>
        <time>2018-09-08T21:35:17Z</time>
      </trkpt>
      <trkpt lat="-2.553445" lon="-78.816971">
        <ele>3153.00</ele>
        <time>2018-09-08T21:35:18Z</time>
      </trkpt>
      <trkpt lat="-2.553365" lon="-78.816872">
        <ele>3153.00</ele>
        <time>2018-09-08T21:35:19Z</time>
      </trkpt>
      <trkpt lat="-2.553268" lon="-78.816765">
        <ele>3153.00</ele>
        <time>2018-09-08T21:35:20Z</time>
      </trkpt>
      <trkpt lat="-2.553154" lon="-78.816673">
        <ele>3154.00</ele>
        <time>2018-09-08T21:35:21Z</time>
      </trkpt>
      <trkpt lat="-2.553029" lon="-78.816612">
        <ele>3154.00</ele>
        <time>2018-09-08T21:35:22Z</time>
      </trkpt>
      <trkpt lat="-2.552898" lon="-78.816566">
        <ele>3154.00</ele>
        <time>2018-09-08T21:35:23Z</time>
      </trkpt>
      <trkpt lat="-2.552765" lon="-78.816505">
        <ele>3154.00</ele>
        <time>2018-09-08T21:35:24Z</time>
      </trkpt>
      <trkpt lat="-2.552636" lon="-78.816429">
        <ele>3154.00</ele>
        <time>2018-09-08T21:35:25Z</time>
      </trkpt>
      <trkpt lat="-2.552508" lon="-78.816322">
        <ele>3154.00</ele>
        <time>2018-09-08T21:35:26Z</time>
      </trkpt>
      <trkpt lat="-2.552375" lon="-78.816208">
        <ele>3155.00</ele>
        <time>2018-09-08T21:35:27Z</time>
      </trkpt>
      <trkpt lat="-2.552241" lon="-78.816086">
        <ele>3155.00</ele>
        <time>2018-09-08T21:35:28Z</time>
      </trkpt>
      <trkpt lat="-2.552111" lon="-78.815964">
        <ele>3155.00</ele>
        <time>2018-09-08T21:35:29Z</time>
      </trkpt>
      <trkpt lat="-2.551988" lon="-78.815842">
        <ele>3155.00</ele>
        <time>2018-09-08T21:35:30Z</time>
      </trkpt>
      <trkpt lat="-2.551881" lon="-78.815712">
        <ele>3155.00</ele>
        <time>2018-09-08T21:35:31Z</time>
      </trkpt>
      <trkpt lat="-2.551791" lon="-78.815590">
        <ele>3156.00</ele>
        <time>2018-09-08T21:35:32Z</time>
      </trkpt>
      <trkpt lat="-2.551727" lon="-78.815453">
        <ele>3156.00</ele>
        <time>2018-09-08T21:35:33Z</time>
      </trkpt>
      <trkpt lat="-2.551696" lon="-78.815292">
        <ele>3156.00</ele>
        <time>2018-09-08T21:35:34Z</time>
      </trkpt>
      <trkpt lat="-2.551676" lon="-78.815132">
        <ele>3156.00</ele>
        <time>2018-09-08T21:35:35Z</time>
      </trkpt>
      <trkpt lat="-2.551652" lon="-78.814972">
        <ele>3156.00</ele>
        <time>2018-09-08T21:35:36Z</time>
      </trkpt>
      <trkpt lat="-2.551620" lon="-78.814812">
        <ele>3157.00</ele>
        <time>2018-09-08T21:35:37Z</time>
      </trkpt>
      <trkpt lat="-2.551573" lon="-78.814651">
        <ele>3157.00</ele>
        <time>2018-09-08T21:35:38Z</time>
      </trkpt>
      <trkpt lat="-2.551523" lon="-78.814507">
        <ele>3157.00</ele>
        <time>2018-09-08T21:35:39Z</time>
      </trkpt>
      <trkpt lat="-2.551477" lon="-78.814384">
        <ele>3158.00</ele>
        <time>2018-09-08T21:35:40Z</time>
      </trkpt>
      <trkpt lat="-2.551425" lon="-78.814285">
        <ele>3158.00</ele>
        <time>2018-09-08T21:35:41Z</time>
      </trkpt>
      <trkpt lat="-2.551344" lon="-78.814194">
        <ele>3159.00</ele>
        <time>2018-09-08T21:35:42Z</time>
      </trkpt>
      <trkpt lat="-2.551238" lon="-78.814125">
        <ele>3159.00</ele>
        <time>2018-09-08T21:35:43Z</time>
      </trkpt>
      <trkpt lat="-2.551120" lon="-78.814079">
        <ele>3159.00</ele>
        <time>2018-09-08T21:35:44Z</time>
      </trkpt>
      <trkpt lat="-2.550992" lon="-78.814079">
        <ele>3160.00</ele>
        <time>2018-09-08T21:35:45Z</time>
      </trkpt>
      <trkpt lat="-2.550864" lon="-78.814110">
        <ele>3161.00</ele>
        <time>2018-09-08T21:35:46Z</time>
      </trkpt>
      <trkpt lat="-2.550732" lon="-78.814163">
        <ele>3161.00</ele>
        <time>2018-09-08T21:35:47Z</time>
      </trkpt>
      <trkpt lat="-2.550592" lon="-78.814194">
        <ele>3162.00</ele>
        <time>2018-09-08T21:35:48Z</time>
      </trkpt>
      <trkpt lat="-2.550441" lon="-78.814217">
        <ele>3163.00</ele>
        <time>2018-09-08T21:35:49Z</time>
      </trkpt>
      <trkpt lat="-2.550292" lon="-78.814224">
        <ele>3164.00</ele>
        <time>2018-09-08T21:35:50Z</time>
      </trkpt>
      <trkpt lat="-2.550138" lon="-78.814217">
        <ele>3165.00</ele>
        <time>2018-09-08T21:35:51Z</time>
      </trkpt>
      <trkpt lat="-2.549987" lon="-78.814186">
        <ele>3166.00</ele>
        <time>2018-09-08T21:35:52Z</time>
      </trkpt>
      <trkpt lat="-2.549870" lon="-78.814178">
        <ele>3167.00</ele>
        <time>2018-09-08T21:35:53Z</time>
      </trkpt>
      <trkpt lat="-2.549777" lon="-78.814171">
        <ele>3167.00</ele>
        <time>2018-09-08T21:35:54Z</time>
      </trkpt>
      <trkpt lat="-2.549685" lon="-78.814163">
        <ele>3168.00</ele>
        <time>2018-09-08T21:35:55Z</time>
      </trkpt>
      <trkpt lat="-2.549584" lon="-78.814171">
        <ele>3169.00</ele>
        <time>2018-09-08T21:35:56Z</time>
      </trkpt>
      <trkpt lat="-2.549476" lon="-78.814171">
        <ele>3169.00</ele>
        <time>2018-09-08T21:35:57Z</time>
      </trkpt>
      <trkpt lat="-2.549382" lon="-78.814178">
        <ele>3170.00</ele>
        <time>2018-09-08T21:35:58Z</time>
      </trkpt>
      <trkpt lat="-2.549309" lon="-78.814194">
        <ele>3170.00</ele>
        <time>2018-09-08T21:35:59Z</time>
      </trkpt>
      <trkpt lat="-2.549264" lon="-78.814201">
        <ele>3170.00</ele>
        <time>2018-09-08T21:36:00Z</time>
      </trkpt>
      <trkpt lat="-2.549240" lon="-78.814217">
        <ele>3170.00</ele>
        <time>2018-09-08T21:36:01Z</time>
      </trkpt>
      <trkpt lat="-2.549222" lon="-78.814224">
        <ele>3170.00</ele>
        <time>2018-09-08T21:36:02Z</time>
      </trkpt>
      <trkpt lat="-2.549201" lon="-78.814247">
        <ele>3171.00</ele>
        <time>2018-09-08T21:36:03Z</time>
      </trkpt>
      <trkpt lat="-2.549191" lon="-78.814293">
        <ele>3172.00</ele>
        <time>2018-09-08T21:36:04Z</time>
      </trkpt>
      <trkpt lat="-2.549201" lon="-78.814331">
        <ele>3172.00</ele>
        <time>2018-09-08T21:36:05Z</time>
      </trkpt>
      <trkpt lat="-2.549201" lon="-78.814331">
        <ele>3172.00</ele>
        <time>2018-09-08T21:36:06Z</time>
      </trkpt>
      <trkpt lat="-2.549201" lon="-78.814331">
        <ele>3172.00</ele>
        <time>2018-09-08T21:36:07Z</time>
      </trkpt>
      <trkpt lat="-2.549201" lon="-78.814331">
        <ele>3172.00</ele>
        <time>2018-09-08T21:36:08Z</time>
      </trkpt>
      <trkpt lat="-2.549201" lon="-78.814331">
        <ele>3172.00</ele>
        <time>2018-09-08T21:36:09Z</time>
      </trkpt>
      <trkpt lat="-2.549201" lon="-78.814331">
        <ele>3172.00</ele>
        <time>2018-09-08T21:36:10Z</time>
      </trkpt>
      <trkpt lat="-2.549238" lon="-78.814354">
        <ele>3172.00</ele>
        <time>2018-09-08T21:36:11Z</time>
      </trkpt>
      <trkpt lat="-2.549259" lon="-78.814354">
        <ele>3172.00</ele>
        <time>2018-09-08T21:36:12Z</time>
      </trkpt>
      <trkpt lat="-2.549289" lon="-78.814346">
        <ele>3172.00</ele>
        <time>2018-09-08T21:36:13Z</time>
      </trkpt>
      <trkpt lat="-2.549289" lon="-78.814346">
        <ele>3172.00</ele>
        <time>2018-09-08T21:36:14Z</time>
      </trkpt>
      <trkpt lat="-2.549289" lon="-78.814346">
        <ele>3172.00</ele>
        <time>2018-09-08T21:36:15Z</time>
      </trkpt>
      <trkpt lat="-2.549289" lon="-78.814346">
        <ele>3172.00</ele>
        <time>2018-09-08T21:36:16Z</time>
      </trkpt>
      <trkpt lat="-2.549289" lon="-78.814346">
        <ele>3172.00</ele>
        <time>2018-09-08T21:36:17Z</time>
      </trkpt>
      <trkpt lat="-2.549305" lon="-78.814346">
        <ele>3172.00</ele>
        <time>2018-09-08T21:36:18Z</time>
      </trkpt>
      <trkpt lat="-2.549305" lon="-78.814346">
        <ele>3172.00</ele>
        <time>2018-09-08T21:36:19Z</time>
      </trkpt>
      <trkpt lat="-2.549305" lon="-78.814346">
        <ele>3172.00</ele>
        <time>2018-09-08T21:36:20Z</time>
      </trkpt>
      <trkpt lat="-2.549305" lon="-78.814346">
        <ele>3172.00</ele>
        <time>2018-09-08T21:36:21Z</time>
      </trkpt>
      <trkpt lat="-2.549307" lon="-78.814339">
        <ele>3172.00</ele>
        <time>2018-09-08T21:36:22Z</time>
      </trkpt>
      <trkpt lat="-2.549309" lon="-78.814331">
        <ele>3172.00</ele>
        <time>2018-09-08T21:36:23Z</time>
      </trkpt>
      <trkpt lat="-2.549307" lon="-78.814301">
        <ele>3172.00</ele>
        <time>2018-09-08T21:36:24Z</time>
      </trkpt>
      <trkpt lat="-2.549294" lon="-78.814278">
        <ele>3173.00</ele>
        <time>2018-09-08T21:36:25Z</time>
      </trkpt>
      <trkpt lat="-2.549277" lon="-78.814247">
        <ele>3173.00</ele>
        <time>2018-09-08T21:36:26Z</time>
      </trkpt>
      <trkpt lat="-2.549263" lon="-78.814240">
        <ele>3173.00</ele>
        <time>2018-09-08T21:36:27Z</time>
      </trkpt>
      <trkpt lat="-2.549240" lon="-78.814232">
        <ele>3173.00</ele>
        <time>2018-09-08T21:36:28Z</time>
      </trkpt>
      <trkpt lat="-2.549200" lon="-78.814217">
        <ele>3174.00</ele>
        <time>2018-09-08T21:36:29Z</time>
      </trkpt>
      <trkpt lat="-2.549140" lon="-78.814201">
        <ele>3175.00</ele>
        <time>2018-09-08T21:36:30Z</time>
      </trkpt>
      <trkpt lat="-2.549061" lon="-78.814194">
        <ele>3176.00</ele>
        <time>2018-09-08T21:36:31Z</time>
      </trkpt>
      <trkpt lat="-2.548978" lon="-78.814186">
        <ele>3177.00</ele>
        <time>2018-09-08T21:36:32Z</time>
      </trkpt>
      <trkpt lat="-2.548899" lon="-78.814186">
        <ele>3177.00</ele>
        <time>2018-09-08T21:36:33Z</time>
      </trkpt>
      <trkpt lat="-2.548819" lon="-78.814178">
        <ele>3178.00</ele>
        <time>2018-09-08T21:36:34Z</time>
      </trkpt>
      <trkpt lat="-2.548723" lon="-78.814171">
        <ele>3179.00</ele>
        <time>2018-09-08T21:36:35Z</time>
      </trkpt>
      <trkpt lat="-2.548617" lon="-78.814178">
        <ele>3179.00</ele>
        <time>2018-09-08T21:36:36Z</time>
      </trkpt>
      <trkpt lat="-2.548507" lon="-78.814217">
        <ele>3180.00</ele>
        <time>2018-09-08T21:36:37Z</time>
      </trkpt>
      <trkpt lat="-2.548396" lon="-78.814247">
        <ele>3180.00</ele>
        <time>2018-09-08T21:36:38Z</time>
      </trkpt>
      <trkpt lat="-2.548277" lon="-78.814270">
        <ele>3181.00</ele>
        <time>2018-09-08T21:36:39Z</time>
      </trkpt>
      <trkpt lat="-2.548155" lon="-78.814240">
        <ele>3181.00</ele>
        <time>2018-09-08T21:36:40Z</time>
      </trkpt>
      <trkpt lat="-2.548024" lon="-78.814217">
        <ele>3182.00</ele>
        <time>2018-09-08T21:36:41Z</time>
      </trkpt>
      <trkpt lat="-2.547899" lon="-78.814186">
        <ele>3182.00</ele>
        <time>2018-09-08T21:36:42Z</time>
      </trkpt>
      <trkpt lat="-2.547788" lon="-78.814148">
        <ele>3182.00</ele>
        <time>2018-09-08T21:36:43Z</time>
      </trkpt>
      <trkpt lat="-2.547692" lon="-78.814087">
        <ele>3182.00</ele>
        <time>2018-09-08T21:36:44Z</time>
      </trkpt>
      <trkpt lat="-2.547626" lon="-78.813988">
        <ele>3183.00</ele>
        <time>2018-09-08T21:36:45Z</time>
      </trkpt>
      <trkpt lat="-2.547588" lon="-78.813896">
        <ele>3183.00</ele>
        <time>2018-09-08T21:36:46Z</time>
      </trkpt>
      <trkpt lat="-2.547543" lon="-78.813820">
        <ele>3183.00</ele>
        <time>2018-09-08T21:36:47Z</time>
      </trkpt>
      <trkpt lat="-2.547472" lon="-78.813774">
        <ele>3184.00</ele>
        <time>2018-09-08T21:36:48Z</time>
      </trkpt>
      <trkpt lat="-2.547374" lon="-78.813736">
        <ele>3184.00</ele>
        <time>2018-09-08T21:36:49Z</time>
      </trkpt>
      <trkpt lat="-2.547256" lon="-78.813690">
        <ele>3184.00</ele>
        <time>2018-09-08T21:36:50Z</time>
      </trkpt>
      <trkpt lat="-2.547171" lon="-78.813652">
        <ele>3184.00</ele>
        <time>2018-09-08T21:36:51Z</time>
      </trkpt>
      <trkpt lat="-2.547096" lon="-78.813622">
        <ele>3185.00</ele>
        <time>2018-09-08T21:36:52Z</time>
      </trkpt>
      <trkpt lat="-2.547038" lon="-78.813599">
        <ele>3185.00</ele>
        <time>2018-09-08T21:36:53Z</time>
      </trkpt>
      <trkpt lat="-2.546998" lon="-78.813583">
        <ele>3185.00</ele>
        <time>2018-09-08T21:36:54Z</time>
      </trkpt>
      <trkpt lat="-2.546967" lon="-78.813568">
        <ele>3185.00</ele>
        <time>2018-09-08T21:36:55Z</time>
      </trkpt>
      <trkpt lat="-2.546967" lon="-78.813568">
        <ele>3185.00</ele>
        <time>2018-09-08T21:36:56Z</time>
      </trkpt>
      <trkpt lat="-2.546967" lon="-78.813568">
        <ele>3185.00</ele>
        <time>2018-09-08T21:36:57Z</time>
      </trkpt>
      <trkpt lat="-2.546967" lon="-78.813568">
        <ele>3185.00</ele>
        <time>2018-09-08T21:36:58Z</time>
      </trkpt>
      <trkpt lat="-2.546967" lon="-78.813568">
        <ele>3185.00</ele>
        <time>2018-09-08T21:36:59Z</time>
      </trkpt>
      <trkpt lat="-2.546967" lon="-78.813568">
        <ele>3185.00</ele>
        <time>2018-09-08T21:37:00Z</time>
      </trkpt>
      <trkpt lat="-2.546967" lon="-78.813568">
        <ele>3185.00</ele>
        <time>2018-09-08T21:37:01Z</time>
      </trkpt>
      <trkpt lat="-2.546967" lon="-78.813568">
        <ele>3185.00</ele>
        <time>2018-09-08T21:37:02Z</time>
      </trkpt>
      <trkpt lat="-2.546967" lon="-78.813568">
        <ele>3185.00</ele>
        <time>2018-09-08T21:37:03Z</time>
      </trkpt>
      <trkpt lat="-2.546967" lon="-78.813568">
        <ele>3185.00</ele>
        <time>2018-09-08T21:37:04Z</time>
      </trkpt>
      <trkpt lat="-2.546967" lon="-78.813568">
        <ele>3185.00</ele>
        <time>2018-09-08T21:37:05Z</time>
      </trkpt>
      <trkpt lat="-2.546967" lon="-78.813568">
        <ele>3185.00</ele>
        <time>2018-09-08T21:37:06Z</time>
      </trkpt>
      <trkpt lat="-2.546967" lon="-78.813568">
        <ele>3185.00</ele>
        <time>2018-09-08T21:37:07Z</time>
      </trkpt>
      <trkpt lat="-2.546967" lon="-78.813568">
        <ele>3185.00</ele>
        <time>2018-09-08T21:37:08Z</time>
      </trkpt>
      <trkpt lat="-2.546967" lon="-78.813568">
        <ele>3185.00</ele>
        <time>2018-09-08T21:37:09Z</time>
      </trkpt>
      <trkpt lat="-2.546967" lon="-78.813568">
        <ele>3185.00</ele>
        <time>2018-09-08T21:37:10Z</time>
      </trkpt>
      <trkpt lat="-2.546967" lon="-78.813568">
        <ele>3185.00</ele>
        <time>2018-09-08T21:37:11Z</time>
      </trkpt>
      <trkpt lat="-2.546967" lon="-78.813568">
        <ele>3185.00</ele>
        <time>2018-09-08T21:37:12Z</time>
      </trkpt>
      <trkpt lat="-2.546967" lon="-78.813568">
        <ele>3185.00</ele>
        <time>2018-09-08T21:37:13Z</time>
      </trkpt>
      <trkpt lat="-2.546967" lon="-78.813568">
        <ele>3185.00</ele>
        <time>2018-09-08T21:37:14Z</time>
      </trkpt>
      <trkpt lat="-2.546967" lon="-78.813568">
        <ele>3185.00</ele>
        <time>2018-09-08T21:37:15Z</time>
      </trkpt>
      <trkpt lat="-2.546967" lon="-78.813568">
        <ele>3185.00</ele>
        <time>2018-09-08T21:37:16Z</time>
      </trkpt>
      <trkpt lat="-2.546967" lon="-78.813568">
        <ele>3185.00</ele>
        <time>2018-09-08T21:37:17Z</time>
      </trkpt>
      <trkpt lat="-2.546967" lon="-78.813568">
        <ele>3185.00</ele>
        <time>2018-09-08T21:37:18Z</time>
      </trkpt>
      <trkpt lat="-2.546967" lon="-78.813568">
        <ele>3185.00</ele>
        <time>2018-09-08T21:37:19Z</time>
      </trkpt>
      <trkpt lat="-2.546967" lon="-78.813568">
        <ele>3185.00</ele>
        <time>2018-09-08T21:37:20Z</time>
      </trkpt>
      <trkpt lat="-2.546967" lon="-78.813568">
        <ele>3185.00</ele>
        <time>2018-09-08T21:37:21Z</time>
      </trkpt>
      <trkpt lat="-2.546967" lon="-78.813568">
        <ele>3185.00</ele>
        <time>2018-09-08T21:37:22Z</time>
      </trkpt>
      <trkpt lat="-2.546967" lon="-78.813568">
        <ele>3185.00</ele>
        <time>2018-09-08T21:37:23Z</time>
      </trkpt>
      <trkpt lat="-2.546967" lon="-78.813568">
        <ele>3185.00</ele>
        <time>2018-09-08T21:37:24Z</time>
      </trkpt>
      <trkpt lat="-2.546967" lon="-78.813568">
        <ele>3185.00</ele>
        <time>2018-09-08T21:37:25Z</time>
      </trkpt>
      <trkpt lat="-2.546967" lon="-78.813568">
        <ele>3185.00</ele>
        <time>2018-09-08T21:37:26Z</time>
      </trkpt>
      <trkpt lat="-2.546967" lon="-78.813568">
        <ele>3185.00</ele>
        <time>2018-09-08T21:37:27Z</time>
      </trkpt>
      <trkpt lat="-2.546967" lon="-78.813568">
        <ele>3185.00</ele>
        <time>2018-09-08T21:37:28Z</time>
      </trkpt>
      <trkpt lat="-2.546967" lon="-78.813568">
        <ele>3185.00</ele>
        <time>2018-09-08T21:37:29Z</time>
      </trkpt>
      <trkpt lat="-2.546967" lon="-78.813568">
        <ele>3185.00</ele>
        <time>2018-09-08T21:37:30Z</time>
      </trkpt>
      <trkpt lat="-2.546967" lon="-78.813568">
        <ele>3185.00</ele>
        <time>2018-09-08T21:37:31Z</time>
      </trkpt>
      <trkpt lat="-2.546967" lon="-78.813568">
        <ele>3185.00</ele>
        <time>2018-09-08T21:37:32Z</time>
      </trkpt>
      <trkpt lat="-2.546967" lon="-78.813568">
        <ele>3185.00</ele>
        <time>2018-09-08T21:37:33Z</time>
      </trkpt>
      <trkpt lat="-2.546967" lon="-78.813568">
        <ele>3185.00</ele>
        <time>2018-09-08T21:37:34Z</time>
      </trkpt>
      <trkpt lat="-2.546967" lon="-78.813568">
        <ele>3185.00</ele>
        <time>2018-09-08T21:37:35Z</time>
      </trkpt>
      <trkpt lat="-2.546967" lon="-78.813568">
        <ele>3185.00</ele>
        <time>2018-09-08T21:37:36Z</time>
      </trkpt>
      <trkpt lat="-2.546967" lon="-78.813568">
        <ele>3185.00</ele>
        <time>2018-09-08T21:37:37Z</time>
      </trkpt>
      <trkpt lat="-2.546967" lon="-78.813568">
        <ele>3185.00</ele>
        <time>2018-09-08T21:37:38Z</time>
      </trkpt>
      <trkpt lat="-2.546967" lon="-78.813568">
        <ele>3185.00</ele>
        <time>2018-09-08T21:37:39Z</time>
      </trkpt>
      <trkpt lat="-2.546967" lon="-78.813568">
        <ele>3185.00</ele>
        <time>2018-09-08T21:37:40Z</time>
      </trkpt>
      <trkpt lat="-2.546967" lon="-78.813568">
        <ele>3185.00</ele>
        <time>2018-09-08T21:37:41Z</time>
      </trkpt>
      <trkpt lat="-2.546967" lon="-78.813568">
        <ele>3185.00</ele>
        <time>2018-09-08T21:37:42Z</time>
      </trkpt>
      <trkpt lat="-2.546967" lon="-78.813568">
        <ele>3185.00</ele>
        <time>2018-09-08T21:37:43Z</time>
      </trkpt>
      <trkpt lat="-2.546967" lon="-78.813568">
        <ele>3185.00</ele>
        <time>2018-09-08T21:37:44Z</time>
      </trkpt>
      <trkpt lat="-2.546967" lon="-78.813568">
        <ele>3185.00</ele>
        <time>2018-09-08T21:37:45Z</time>
      </trkpt>
      <trkpt lat="-2.546967" lon="-78.813568">
        <ele>3185.00</ele>
        <time>2018-09-08T21:37:46Z</time>
      </trkpt>
      <trkpt lat="-2.546967" lon="-78.813568">
        <ele>3185.00</ele>
        <time>2018-09-08T21:37:47Z</time>
      </trkpt>
      <trkpt lat="-2.546967" lon="-78.813568">
        <ele>3185.00</ele>
        <time>2018-09-08T21:37:48Z</time>
      </trkpt>
      <trkpt lat="-2.546967" lon="-78.813568">
        <ele>3185.00</ele>
        <time>2018-09-08T21:37:49Z</time>
      </trkpt>
      <trkpt lat="-2.546967" lon="-78.813568">
        <ele>3185.00</ele>
        <time>2018-09-08T21:37:50Z</time>
      </trkpt>
      <trkpt lat="-2.546967" lon="-78.813568">
        <ele>3185.00</ele>
        <time>2018-09-08T21:37:51Z</time>
      </trkpt>
      <trkpt lat="-2.546967" lon="-78.813568">
        <ele>3185.00</ele>
        <time>2018-09-08T21:37:52Z</time>
      </trkpt>
      <trkpt lat="-2.546967" lon="-78.813568">
        <ele>3185.00</ele>
        <time>2018-09-08T21:37:53Z</time>
      </trkpt>
      <trkpt lat="-2.546967" lon="-78.813568">
        <ele>3185.00</ele>
        <time>2018-09-08T21:37:54Z</time>
      </trkpt>
      <trkpt lat="-2.546967" lon="-78.813568">
        <ele>3185.00</ele>
        <time>2018-09-08T21:37:55Z</time>
      </trkpt>
      <trkpt lat="-2.546967" lon="-78.813568">
        <ele>3185.00</ele>
        <time>2018-09-08T21:37:56Z</time>
      </trkpt>
      <trkpt lat="-2.546967" lon="-78.813568">
        <ele>3185.00</ele>
        <time>2018-09-08T21:37:57Z</time>
      </trkpt>
      <trkpt lat="-2.546967" lon="-78.813568">
        <ele>3185.00</ele>
        <time>2018-09-08T21:37:58Z</time>
      </trkpt>
      <trkpt lat="-2.546946" lon="-78.813568">
        <ele>3185.00</ele>
        <time>2018-09-08T21:37:59Z</time>
      </trkpt>
      <trkpt lat="-2.546946" lon="-78.813568">
        <ele>3185.00</ele>
        <time>2018-09-08T21:38:00Z</time>
      </trkpt>
      <trkpt lat="-2.546946" lon="-78.813568">
        <ele>3185.00</ele>
        <time>2018-09-08T21:38:01Z</time>
      </trkpt>
      <trkpt lat="-2.546947" lon="-78.813576">
        <ele>3185.00</ele>
        <time>2018-09-08T21:38:02Z</time>
      </trkpt>
      <trkpt lat="-2.546949" lon="-78.813568">
        <ele>3185.00</ele>
        <time>2018-09-08T21:38:03Z</time>
      </trkpt>
      <trkpt lat="-2.546951" lon="-78.813576">
        <ele>3185.00</ele>
        <time>2018-09-08T21:38:04Z</time>
      </trkpt>
      <trkpt lat="-2.546952" lon="-78.813576">
        <ele>3185.00</ele>
        <time>2018-09-08T21:38:05Z</time>
      </trkpt>
      <trkpt lat="-2.546953" lon="-78.813576">
        <ele>3185.00</ele>
        <time>2018-09-08T21:38:06Z</time>
      </trkpt>
      <trkpt lat="-2.546953" lon="-78.813576">
        <ele>3185.00</ele>
        <time>2018-09-08T21:38:07Z</time>
      </trkpt>
      <trkpt lat="-2.546957" lon="-78.813576">
        <ele>3185.00</ele>
        <time>2018-09-08T21:38:08Z</time>
      </trkpt>
      <trkpt lat="-2.546966" lon="-78.813576">
        <ele>3185.00</ele>
        <time>2018-09-08T21:38:09Z</time>
      </trkpt>
      <trkpt lat="-2.546975" lon="-78.813576">
        <ele>3185.00</ele>
        <time>2018-09-08T21:38:10Z</time>
      </trkpt>
      <trkpt lat="-2.546985" lon="-78.813591">
        <ele>3185.00</ele>
        <time>2018-09-08T21:38:11Z</time>
      </trkpt>
      <trkpt lat="-2.546988" lon="-78.813591">
        <ele>3185.00</ele>
        <time>2018-09-08T21:38:12Z</time>
      </trkpt>
      <trkpt lat="-2.546990" lon="-78.813599">
        <ele>3185.00</ele>
        <time>2018-09-08T21:38:13Z</time>
      </trkpt>
      <trkpt lat="-2.546993" lon="-78.813599">
        <ele>3185.00</ele>
        <time>2018-09-08T21:38:14Z</time>
      </trkpt>
      <trkpt lat="-2.546996" lon="-78.813599">
        <ele>3185.00</ele>
        <time>2018-09-08T21:38:15Z</time>
      </trkpt>
      <trkpt lat="-2.546996" lon="-78.813606">
        <ele>3185.00</ele>
        <time>2018-09-08T21:38:16Z</time>
      </trkpt>
      <trkpt lat="-2.546996" lon="-78.813606">
        <ele>3185.00</ele>
        <time>2018-09-08T21:38:17Z</time>
      </trkpt>
      <trkpt lat="-2.546995" lon="-78.813606">
        <ele>3185.00</ele>
        <time>2018-09-08T21:38:18Z</time>
      </trkpt>
      <trkpt lat="-2.546995" lon="-78.813606">
        <ele>3185.00</ele>
        <time>2018-09-08T21:38:19Z</time>
      </trkpt>
      <trkpt lat="-2.546994" lon="-78.813606">
        <ele>3185.00</ele>
        <time>2018-09-08T21:38:20Z</time>
      </trkpt>
      <trkpt lat="-2.546994" lon="-78.813606">
        <ele>3185.00</ele>
        <time>2018-09-08T21:38:21Z</time>
      </trkpt>
      <trkpt lat="-2.546994" lon="-78.813606">
        <ele>3185.00</ele>
        <time>2018-09-08T21:38:22Z</time>
      </trkpt>
      <trkpt lat="-2.546994" lon="-78.813606">
        <ele>3185.00</ele>
        <time>2018-09-08T21:38:23Z</time>
      </trkpt>
      <trkpt lat="-2.546993" lon="-78.813606">
        <ele>3185.00</ele>
        <time>2018-09-08T21:38:24Z</time>
      </trkpt>
      <trkpt lat="-2.546993" lon="-78.813606">
        <ele>3185.00</ele>
        <time>2018-09-08T21:38:25Z</time>
      </trkpt>
      <trkpt lat="-2.546993" lon="-78.813606">
        <ele>3185.00</ele>
        <time>2018-09-08T21:38:26Z</time>
      </trkpt>
      <trkpt lat="-2.546993" lon="-78.813606">
        <ele>3185.00</ele>
        <time>2018-09-08T21:38:27Z</time>
      </trkpt>
      <trkpt lat="-2.546993" lon="-78.813606">
        <ele>3185.00</ele>
        <time>2018-09-08T21:38:28Z</time>
      </trkpt>
      <trkpt lat="-2.546993" lon="-78.813606">
        <ele>3185.00</ele>
        <time>2018-09-08T21:38:29Z</time>
      </trkpt>
      <trkpt lat="-2.546993" lon="-78.813606">
        <ele>3185.00</ele>
        <time>2018-09-08T21:38:30Z</time>
      </trkpt>
      <trkpt lat="-2.546994" lon="-78.813606">
        <ele>3185.00</ele>
        <time>2018-09-08T21:38:31Z</time>
      </trkpt>
      <trkpt lat="-2.546994" lon="-78.813606">
        <ele>3185.00</ele>
        <time>2018-09-08T21:38:32Z</time>
      </trkpt>
      <trkpt lat="-2.546994" lon="-78.813606">
        <ele>3185.00</ele>
        <time>2018-09-08T21:38:33Z</time>
      </trkpt>
      <trkpt lat="-2.546994" lon="-78.813606">
        <ele>3185.00</ele>
        <time>2018-09-08T21:38:34Z</time>
      </trkpt>
      <trkpt lat="-2.546994" lon="-78.813606">
        <ele>3185.00</ele>
        <time>2018-09-08T21:38:35Z</time>
      </trkpt>
      <trkpt lat="-2.546994" lon="-78.813606">
        <ele>3185.00</ele>
        <time>2018-09-08T21:38:36Z</time>
      </trkpt>
      <trkpt lat="-2.546994" lon="-78.813606">
        <ele>3185.00</ele>
        <time>2018-09-08T21:38:37Z</time>
      </trkpt>
      <trkpt lat="-2.546994" lon="-78.813606">
        <ele>3185.00</ele>
        <time>2018-09-08T21:38:38Z</time>
      </trkpt>
      <trkpt lat="-2.546994" lon="-78.813606">
        <ele>3185.00</ele>
        <time>2018-09-08T21:38:39Z</time>
      </trkpt>
      <trkpt lat="-2.546994" lon="-78.813606">
        <ele>3185.00</ele>
        <time>2018-09-08T21:38:40Z</time>
      </trkpt>
      <trkpt lat="-2.546994" lon="-78.813606">
        <ele>3185.00</ele>
        <time>2018-09-08T21:38:41Z</time>
      </trkpt>
      <trkpt lat="-2.546994" lon="-78.813606">
        <ele>3185.00</ele>
        <time>2018-09-08T21:38:42Z</time>
      </trkpt>
      <trkpt lat="-2.546994" lon="-78.813606">
        <ele>3185.00</ele>
        <time>2018-09-08T21:38:43Z</time>
      </trkpt>
      <trkpt lat="-2.546995" lon="-78.813599">
        <ele>3185.00</ele>
        <time>2018-09-08T21:38:44Z</time>
      </trkpt>
      <trkpt lat="-2.546996" lon="-78.813599">
        <ele>3185.00</ele>
        <time>2018-09-08T21:38:45Z</time>
      </trkpt>
      <trkpt lat="-2.546994" lon="-78.813599">
        <ele>3185.00</ele>
        <time>2018-09-08T21:38:46Z</time>
      </trkpt>
      <trkpt lat="-2.546987" lon="-78.813599">
        <ele>3185.00</ele>
        <time>2018-09-08T21:38:47Z</time>
      </trkpt>
      <trkpt lat="-2.546984" lon="-78.813599">
        <ele>3186.00</ele>
        <time>2018-09-08T21:38:48Z</time>
      </trkpt>
      <trkpt lat="-2.546976" lon="-78.813606">
        <ele>3186.00</ele>
        <time>2018-09-08T21:38:49Z</time>
      </trkpt>
      <trkpt lat="-2.546999" lon="-78.813606">
        <ele>3186.00</ele>
        <time>2018-09-08T21:38:50Z</time>
      </trkpt>
      <trkpt lat="-2.547022" lon="-78.813599">
        <ele>3186.00</ele>
        <time>2018-09-08T21:38:51Z</time>
      </trkpt>
      <trkpt lat="-2.547023" lon="-78.813599">
        <ele>3186.00</ele>
        <time>2018-09-08T21:38:52Z</time>
      </trkpt>
      <trkpt lat="-2.547023" lon="-78.813599">
        <ele>3186.00</ele>
        <time>2018-09-08T21:38:53Z</time>
      </trkpt>
      <trkpt lat="-2.547024" lon="-78.813599">
        <ele>3186.00</ele>
        <time>2018-09-08T21:38:54Z</time>
      </trkpt>
      <trkpt lat="-2.547019" lon="-78.813599">
        <ele>3186.00</ele>
        <time>2018-09-08T21:38:55Z</time>
      </trkpt>
      <trkpt lat="-2.547020" lon="-78.813599">
        <ele>3186.00</ele>
        <time>2018-09-08T21:38:56Z</time>
      </trkpt>
      <trkpt lat="-2.547011" lon="-78.813591">
        <ele>3186.00</ele>
        <time>2018-09-08T21:38:57Z</time>
      </trkpt>
      <trkpt lat="-2.547018" lon="-78.813591">
        <ele>3186.00</ele>
        <time>2018-09-08T21:38:58Z</time>
      </trkpt>
      <trkpt lat="-2.547018" lon="-78.813591">
        <ele>3186.00</ele>
        <time>2018-09-08T21:38:59Z</time>
      </trkpt>
      <trkpt lat="-2.547013" lon="-78.813591">
        <ele>3186.00</ele>
        <time>2018-09-08T21:39:00Z</time>
      </trkpt>
      <trkpt lat="-2.547003" lon="-78.813599">
        <ele>3186.00</ele>
        <time>2018-09-08T21:39:01Z</time>
      </trkpt>
      <trkpt lat="-2.546991" lon="-78.813591">
        <ele>3186.00</ele>
        <time>2018-09-08T21:39:02Z</time>
      </trkpt>
      <trkpt lat="-2.546982" lon="-78.813599">
        <ele>3186.00</ele>
        <time>2018-09-08T21:39:03Z</time>
      </trkpt>
      <trkpt lat="-2.546972" lon="-78.813591">
        <ele>3186.00</ele>
        <time>2018-09-08T21:39:04Z</time>
      </trkpt>
      <trkpt lat="-2.546964" lon="-78.813599">
        <ele>3186.00</ele>
        <time>2018-09-08T21:39:05Z</time>
      </trkpt>
      <trkpt lat="-2.546963" lon="-78.813606">
        <ele>3186.00</ele>
        <time>2018-09-08T21:39:06Z</time>
      </trkpt>
      <trkpt lat="-2.546958" lon="-78.813599">
        <ele>3186.00</ele>
        <time>2018-09-08T21:39:07Z</time>
      </trkpt>
      <trkpt lat="-2.546956" lon="-78.813599">
        <ele>3186.00</ele>
        <time>2018-09-08T21:39:08Z</time>
      </trkpt>
      <trkpt lat="-2.546955" lon="-78.813591">
        <ele>3186.00</ele>
        <time>2018-09-08T21:39:09Z</time>
      </trkpt>
      <trkpt lat="-2.546936" lon="-78.813583">
        <ele>3186.00</ele>
        <time>2018-09-08T21:39:10Z</time>
      </trkpt>
      <trkpt lat="-2.546930" lon="-78.813576">
        <ele>3186.00</ele>
        <time>2018-09-08T21:39:11Z</time>
      </trkpt>
      <trkpt lat="-2.546926" lon="-78.813576">
        <ele>3186.00</ele>
        <time>2018-09-08T21:39:12Z</time>
      </trkpt>
      <trkpt lat="-2.546925" lon="-78.813568">
        <ele>3186.00</ele>
        <time>2018-09-08T21:39:13Z</time>
      </trkpt>
      <trkpt lat="-2.546926" lon="-78.813568">
        <ele>3186.00</ele>
        <time>2018-09-08T21:39:14Z</time>
      </trkpt>
      <trkpt lat="-2.546928" lon="-78.813553">
        <ele>3187.00</ele>
        <time>2018-09-08T21:39:15Z</time>
      </trkpt>
      <trkpt lat="-2.546929" lon="-78.813553">
        <ele>3187.00</ele>
        <time>2018-09-08T21:39:16Z</time>
      </trkpt>
      <trkpt lat="-2.546930" lon="-78.813553">
        <ele>3187.00</ele>
        <time>2018-09-08T21:39:17Z</time>
      </trkpt>
      <trkpt lat="-2.546932" lon="-78.813545">
        <ele>3187.00</ele>
        <time>2018-09-08T21:39:18Z</time>
      </trkpt>
      <trkpt lat="-2.546935" lon="-78.813545">
        <ele>3187.00</ele>
        <time>2018-09-08T21:39:19Z</time>
      </trkpt>
      <trkpt lat="-2.546932" lon="-78.813553">
        <ele>3187.00</ele>
        <time>2018-09-08T21:39:20Z</time>
      </trkpt>
      <trkpt lat="-2.546932" lon="-78.813553">
        <ele>3187.00</ele>
        <time>2018-09-08T21:39:21Z</time>
      </trkpt>
      <trkpt lat="-2.546934" lon="-78.813553">
        <ele>3187.00</ele>
        <time>2018-09-08T21:39:22Z</time>
      </trkpt>
      <trkpt lat="-2.546935" lon="-78.813553">
        <ele>3187.00</ele>
        <time>2018-09-08T21:39:23Z</time>
      </trkpt>
      <trkpt lat="-2.546935" lon="-78.813553">
        <ele>3187.00</ele>
        <time>2018-09-08T21:39:24Z</time>
      </trkpt>
      <trkpt lat="-2.546935" lon="-78.813553">
        <ele>3187.00</ele>
        <time>2018-09-08T21:39:25Z</time>
      </trkpt>
      <trkpt lat="-2.546935" lon="-78.813553">
        <ele>3187.00</ele>
        <time>2018-09-08T21:39:26Z</time>
      </trkpt>
      <trkpt lat="-2.546934" lon="-78.813553">
        <ele>3187.00</ele>
        <time>2018-09-08T21:39:27Z</time>
      </trkpt>
      <trkpt lat="-2.546934" lon="-78.813553">
        <ele>3187.00</ele>
        <time>2018-09-08T21:39:28Z</time>
      </trkpt>
      <trkpt lat="-2.546934" lon="-78.813545">
        <ele>3187.00</ele>
        <time>2018-09-08T21:39:29Z</time>
      </trkpt>
      <trkpt lat="-2.546932" lon="-78.813545">
        <ele>3187.00</ele>
        <time>2018-09-08T21:39:30Z</time>
      </trkpt>
      <trkpt lat="-2.546932" lon="-78.813545">
        <ele>3187.00</ele>
        <time>2018-09-08T21:39:31Z</time>
      </trkpt>
      <trkpt lat="-2.546932" lon="-78.813545">
        <ele>3187.00</ele>
        <time>2018-09-08T21:39:32Z</time>
      </trkpt>
      <trkpt lat="-2.546932" lon="-78.813545">
        <ele>3187.00</ele>
        <time>2018-09-08T21:39:33Z</time>
      </trkpt>
      <trkpt lat="-2.546932" lon="-78.813545">
        <ele>3187.00</ele>
        <time>2018-09-08T21:39:34Z</time>
      </trkpt>
      <trkpt lat="-2.546930" lon="-78.813545">
        <ele>3187.00</ele>
        <time>2018-09-08T21:39:35Z</time>
      </trkpt>
      <trkpt lat="-2.546932" lon="-78.813538">
        <ele>3187.00</ele>
        <time>2018-09-08T21:39:36Z</time>
      </trkpt>
      <trkpt lat="-2.546929" lon="-78.813538">
        <ele>3187.00</ele>
        <time>2018-09-08T21:39:37Z</time>
      </trkpt>
      <trkpt lat="-2.546924" lon="-78.813538">
        <ele>3187.00</ele>
        <time>2018-09-08T21:39:38Z</time>
      </trkpt>
      <trkpt lat="-2.546925" lon="-78.813538">
        <ele>3187.00</ele>
        <time>2018-09-08T21:39:39Z</time>
      </trkpt>
      <trkpt lat="-2.546925" lon="-78.813538">
        <ele>3187.00</ele>
        <time>2018-09-08T21:39:40Z</time>
      </trkpt>
      <trkpt lat="-2.546925" lon="-78.813538">
        <ele>3187.00</ele>
        <time>2018-09-08T21:39:41Z</time>
      </trkpt>
      <trkpt lat="-2.546925" lon="-78.813538">
        <ele>3187.00</ele>
        <time>2018-09-08T21:39:42Z</time>
      </trkpt>
      <trkpt lat="-2.546925" lon="-78.813538">
        <ele>3187.00</ele>
        <time>2018-09-08T21:39:43Z</time>
      </trkpt>
      <trkpt lat="-2.546926" lon="-78.813538">
        <ele>3187.00</ele>
        <time>2018-09-08T21:39:44Z</time>
      </trkpt>
      <trkpt lat="-2.546926" lon="-78.813538">
        <ele>3187.00</ele>
        <time>2018-09-08T21:39:45Z</time>
      </trkpt>
      <trkpt lat="-2.546926" lon="-78.813538">
        <ele>3187.00</ele>
        <time>2018-09-08T21:39:46Z</time>
      </trkpt>
      <trkpt lat="-2.546926" lon="-78.813530">
        <ele>3187.00</ele>
        <time>2018-09-08T21:39:47Z</time>
      </trkpt>
      <trkpt lat="-2.546926" lon="-78.813530">
        <ele>3187.00</ele>
        <time>2018-09-08T21:39:48Z</time>
      </trkpt>
      <trkpt lat="-2.546928" lon="-78.813530">
        <ele>3187.00</ele>
        <time>2018-09-08T21:39:49Z</time>
      </trkpt>
      <trkpt lat="-2.546928" lon="-78.813530">
        <ele>3187.00</ele>
        <time>2018-09-08T21:39:50Z</time>
      </trkpt>
      <trkpt lat="-2.546928" lon="-78.813530">
        <ele>3187.00</ele>
        <time>2018-09-08T21:39:51Z</time>
      </trkpt>
      <trkpt lat="-2.546928" lon="-78.813530">
        <ele>3187.00</ele>
        <time>2018-09-08T21:39:52Z</time>
      </trkpt>
      <trkpt lat="-2.546928" lon="-78.813530">
        <ele>3187.00</ele>
        <time>2018-09-08T21:39:53Z</time>
      </trkpt>
      <trkpt lat="-2.546928" lon="-78.813530">
        <ele>3187.00</ele>
        <time>2018-09-08T21:39:54Z</time>
      </trkpt>
      <trkpt lat="-2.546928" lon="-78.813530">
        <ele>3187.00</ele>
        <time>2018-09-08T21:39:55Z</time>
      </trkpt>
      <trkpt lat="-2.546928" lon="-78.813530">
        <ele>3187.00</ele>
        <time>2018-09-08T21:39:56Z</time>
      </trkpt>
      <trkpt lat="-2.546928" lon="-78.813530">
        <ele>3187.00</ele>
        <time>2018-09-08T21:39:57Z</time>
      </trkpt>
      <trkpt lat="-2.546928" lon="-78.813530">
        <ele>3187.00</ele>
        <time>2018-09-08T21:39:58Z</time>
      </trkpt>
      <trkpt lat="-2.546928" lon="-78.813530">
        <ele>3187.00</ele>
        <time>2018-09-08T21:39:59Z</time>
      </trkpt>
      <trkpt lat="-2.546928" lon="-78.813530">
        <ele>3187.00</ele>
        <time>2018-09-08T21:40:00Z</time>
      </trkpt>
      <trkpt lat="-2.546928" lon="-78.813530">
        <ele>3187.00</ele>
        <time>2018-09-08T21:40:01Z</time>
      </trkpt>
      <trkpt lat="-2.546928" lon="-78.813530">
        <ele>3187.00</ele>
        <time>2018-09-08T21:40:02Z</time>
      </trkpt>
      <trkpt lat="-2.546928" lon="-78.813530">
        <ele>3187.00</ele>
        <time>2018-09-08T21:40:03Z</time>
      </trkpt>
      <trkpt lat="-2.546928" lon="-78.813530">
        <ele>3187.00</ele>
        <time>2018-09-08T21:40:04Z</time>
      </trkpt>
      <trkpt lat="-2.546928" lon="-78.813530">
        <ele>3187.00</ele>
        <time>2018-09-08T21:40:05Z</time>
      </trkpt>
      <trkpt lat="-2.546928" lon="-78.813530">
        <ele>3187.00</ele>
        <time>2018-09-08T21:40:06Z</time>
      </trkpt>
      <trkpt lat="-2.546928" lon="-78.813530">
        <ele>3187.00</ele>
        <time>2018-09-08T21:40:07Z</time>
      </trkpt>
      <trkpt lat="-2.546928" lon="-78.813530">
        <ele>3187.00</ele>
        <time>2018-09-08T21:40:08Z</time>
      </trkpt>
      <trkpt lat="-2.546928" lon="-78.813522">
        <ele>3187.00</ele>
        <time>2018-09-08T21:40:09Z</time>
      </trkpt>
      <trkpt lat="-2.546928" lon="-78.813522">
        <ele>3187.00</ele>
        <time>2018-09-08T21:40:10Z</time>
      </trkpt>
      <trkpt lat="-2.546928" lon="-78.813522">
        <ele>3187.00</ele>
        <time>2018-09-08T21:40:11Z</time>
      </trkpt>
      <trkpt lat="-2.546929" lon="-78.813522">
        <ele>3187.00</ele>
        <time>2018-09-08T21:40:12Z</time>
      </trkpt>
      <trkpt lat="-2.546929" lon="-78.813522">
        <ele>3187.00</ele>
        <time>2018-09-08T21:40:13Z</time>
      </trkpt>
      <trkpt lat="-2.546929" lon="-78.813522">
        <ele>3187.00</ele>
        <time>2018-09-08T21:40:14Z</time>
      </trkpt>
      <trkpt lat="-2.546929" lon="-78.813522">
        <ele>3187.00</ele>
        <time>2018-09-08T21:40:15Z</time>
      </trkpt>
      <trkpt lat="-2.548657" lon="-78.813805">
        <ele>3183.00</ele>
        <time>2018-09-08T21:51:14Z</time>
      </trkpt>
      <trkpt lat="-2.548615" lon="-78.813759">
        <ele>3181.00</ele>
        <time>2018-09-08T21:51:15Z</time>
      </trkpt>
      <trkpt lat="-2.548578" lon="-78.813721">
        <ele>3181.00</ele>
        <time>2018-09-08T21:51:16Z</time>
      </trkpt>
      <trkpt lat="-2.548546" lon="-78.813690">
        <ele>3180.00</ele>
        <time>2018-09-08T21:51:17Z</time>
      </trkpt>
      <trkpt lat="-2.548517" lon="-78.813660">
        <ele>3178.00</ele>
        <time>2018-09-08T21:51:18Z</time>
      </trkpt>
      <trkpt lat="-2.548489" lon="-78.813637">
        <ele>3178.00</ele>
        <time>2018-09-08T21:51:19Z</time>
      </trkpt>
      <trkpt lat="-2.548460" lon="-78.813606">
        <ele>3179.00</ele>
        <time>2018-09-08T21:51:20Z</time>
      </trkpt>
      <trkpt lat="-2.548434" lon="-78.813576">
        <ele>3179.00</ele>
        <time>2018-09-08T21:51:21Z</time>
      </trkpt>
      <trkpt lat="-2.548406" lon="-78.813545">
        <ele>3180.00</ele>
        <time>2018-09-08T21:51:22Z</time>
      </trkpt>
      <trkpt lat="-2.548372" lon="-78.813522">
        <ele>3180.00</ele>
        <time>2018-09-08T21:51:23Z</time>
      </trkpt>
      <trkpt lat="-2.548345" lon="-78.813499">
        <ele>3180.00</ele>
        <time>2018-09-08T21:51:24Z</time>
      </trkpt>
      <trkpt lat="-2.548315" lon="-78.813477">
        <ele>3179.00</ele>
        <time>2018-09-08T21:51:25Z</time>
      </trkpt>
      <trkpt lat="-2.548285" lon="-78.813446">
        <ele>3180.00</ele>
        <time>2018-09-08T21:51:26Z</time>
      </trkpt>
      <trkpt lat="-2.548253" lon="-78.813423">
        <ele>3179.00</ele>
        <time>2018-09-08T21:51:27Z</time>
      </trkpt>
      <trkpt lat="-2.548223" lon="-78.813393">
        <ele>3179.00</ele>
        <time>2018-09-08T21:51:28Z</time>
      </trkpt>
      <trkpt lat="-2.548188" lon="-78.813377">
        <ele>3179.00</ele>
        <time>2018-09-08T21:51:29Z</time>
      </trkpt>
      <trkpt lat="-2.548158" lon="-78.813354">
        <ele>3179.00</ele>
        <time>2018-09-08T21:51:30Z</time>
      </trkpt>
      <trkpt lat="-2.548131" lon="-78.813316">
        <ele>3178.00</ele>
        <time>2018-09-08T21:51:31Z</time>
      </trkpt>
      <trkpt lat="-2.548103" lon="-78.813278">
        <ele>3178.00</ele>
        <time>2018-09-08T21:51:32Z</time>
      </trkpt>
      <trkpt lat="-2.548076" lon="-78.813248">
        <ele>3178.00</ele>
        <time>2018-09-08T21:51:33Z</time>
      </trkpt>
      <trkpt lat="-2.548048" lon="-78.813210">
        <ele>3178.00</ele>
        <time>2018-09-08T21:51:34Z</time>
      </trkpt>
      <trkpt lat="-2.548014" lon="-78.813171">
        <ele>3178.00</ele>
        <time>2018-09-08T21:51:35Z</time>
      </trkpt>
      <trkpt lat="-2.547979" lon="-78.813148">
        <ele>3178.00</ele>
        <time>2018-09-08T21:51:36Z</time>
      </trkpt>
      <trkpt lat="-2.547941" lon="-78.813110">
        <ele>3177.00</ele>
        <time>2018-09-08T21:51:37Z</time>
      </trkpt>
      <trkpt lat="-2.547903" lon="-78.813072">
        <ele>3177.00</ele>
        <time>2018-09-08T21:51:38Z</time>
      </trkpt>
      <trkpt lat="-2.547876" lon="-78.813042">
        <ele>3176.00</ele>
        <time>2018-09-08T21:51:39Z</time>
      </trkpt>
      <trkpt lat="-2.547848" lon="-78.813004">
        <ele>3176.00</ele>
        <time>2018-09-08T21:51:40Z</time>
      </trkpt>
      <trkpt lat="-2.547822" lon="-78.812981">
        <ele>3176.00</ele>
        <time>2018-09-08T21:51:41Z</time>
      </trkpt>
      <trkpt lat="-2.547802" lon="-78.812943">
        <ele>3176.00</ele>
        <time>2018-09-08T21:51:42Z</time>
      </trkpt>
      <trkpt lat="-2.547782" lon="-78.812912">
        <ele>3176.00</ele>
        <time>2018-09-08T21:51:43Z</time>
      </trkpt>
      <trkpt lat="-2.547772" lon="-78.812904">
        <ele>3176.00</ele>
        <time>2018-09-08T21:51:44Z</time>
      </trkpt>
      <trkpt lat="-2.547768" lon="-78.812897">
        <ele>3176.00</ele>
        <time>2018-09-08T21:51:45Z</time>
      </trkpt>
      <trkpt lat="-2.547766" lon="-78.812897">
        <ele>3176.00</ele>
        <time>2018-09-08T21:51:46Z</time>
      </trkpt>
      <trkpt lat="-2.547766" lon="-78.812897">
        <ele>3176.00</ele>
        <time>2018-09-08T21:51:47Z</time>
      </trkpt>
      <trkpt lat="-2.547765" lon="-78.812897">
        <ele>3176.00</ele>
        <time>2018-09-08T21:51:48Z</time>
      </trkpt>
      <trkpt lat="-2.547765" lon="-78.812897">
        <ele>3176.00</ele>
        <time>2018-09-08T21:51:49Z</time>
      </trkpt>
      <trkpt lat="-2.547765" lon="-78.812897">
        <ele>3176.00</ele>
        <time>2018-09-08T21:51:50Z</time>
      </trkpt>
      <trkpt lat="-2.547765" lon="-78.812897">
        <ele>3176.00</ele>
        <time>2018-09-08T21:51:52Z</time>
      </trkpt>
      <trkpt lat="-2.547765" lon="-78.812897">
        <ele>3176.00</ele>
        <time>2018-09-08T21:51:53Z</time>
      </trkpt>
      <trkpt lat="-2.547764" lon="-78.812889">
        <ele>3176.00</ele>
        <time>2018-09-08T21:51:54Z</time>
      </trkpt>
      <trkpt lat="-2.547764" lon="-78.812889">
        <ele>3176.00</ele>
        <time>2018-09-08T21:51:55Z</time>
      </trkpt>
      <trkpt lat="-2.547764" lon="-78.812889">
        <ele>3176.00</ele>
        <time>2018-09-08T21:51:56Z</time>
      </trkpt>
      <trkpt lat="-2.547764" lon="-78.812889">
        <ele>3176.00</ele>
        <time>2018-09-08T21:51:57Z</time>
      </trkpt>
      <trkpt lat="-2.547763" lon="-78.812889">
        <ele>3176.00</ele>
        <time>2018-09-08T21:51:58Z</time>
      </trkpt>
      <trkpt lat="-2.547763" lon="-78.812889">
        <ele>3176.00</ele>
        <time>2018-09-08T21:51:59Z</time>
      </trkpt>
      <trkpt lat="-2.547763" lon="-78.812889">
        <ele>3176.00</ele>
        <time>2018-09-08T21:52:00Z</time>
      </trkpt>
      <trkpt lat="-2.547762" lon="-78.812889">
        <ele>3176.00</ele>
        <time>2018-09-08T21:52:01Z</time>
      </trkpt>
      <trkpt lat="-2.547762" lon="-78.812889">
        <ele>3176.00</ele>
        <time>2018-09-08T21:52:02Z</time>
      </trkpt>
      <trkpt lat="-2.547762" lon="-78.812889">
        <ele>3176.00</ele>
        <time>2018-09-08T21:52:03Z</time>
      </trkpt>
      <trkpt lat="-2.547763" lon="-78.812889">
        <ele>3176.00</ele>
        <time>2018-09-08T21:52:04Z</time>
      </trkpt>
      <trkpt lat="-2.547763" lon="-78.812889">
        <ele>3176.00</ele>
        <time>2018-09-08T21:52:05Z</time>
      </trkpt>
      <trkpt lat="-2.547760" lon="-78.812889">
        <ele>3176.00</ele>
        <time>2018-09-08T21:52:06Z</time>
      </trkpt>
      <trkpt lat="-2.547759" lon="-78.812889">
        <ele>3176.00</ele>
        <time>2018-09-08T21:52:07Z</time>
      </trkpt>
      <trkpt lat="-2.547756" lon="-78.812889">
        <ele>3176.00</ele>
        <time>2018-09-08T21:52:08Z</time>
      </trkpt>
      <trkpt lat="-2.547754" lon="-78.812889">
        <ele>3176.00</ele>
        <time>2018-09-08T21:52:09Z</time>
      </trkpt>
      <trkpt lat="-2.547753" lon="-78.812889">
        <ele>3176.00</ele>
        <time>2018-09-08T21:52:10Z</time>
      </trkpt>
      <trkpt lat="-2.547754" lon="-78.812889">
        <ele>3176.00</ele>
        <time>2018-09-08T21:52:11Z</time>
      </trkpt>
      <trkpt lat="-2.547751" lon="-78.812889">
        <ele>3176.00</ele>
        <time>2018-09-08T21:52:12Z</time>
      </trkpt>
      <trkpt lat="-2.547749" lon="-78.812889">
        <ele>3176.00</ele>
        <time>2018-09-08T21:52:13Z</time>
      </trkpt>
      <trkpt lat="-2.547749" lon="-78.812889">
        <ele>3176.00</ele>
        <time>2018-09-08T21:52:14Z</time>
      </trkpt>
      <trkpt lat="-2.547749" lon="-78.812889">
        <ele>3176.00</ele>
        <time>2018-09-08T21:52:15Z</time>
      </trkpt>
      <trkpt lat="-2.547750" lon="-78.812889">
        <ele>3176.00</ele>
        <time>2018-09-08T21:52:16Z</time>
      </trkpt>
      <trkpt lat="-2.547750" lon="-78.812897">
        <ele>3176.00</ele>
        <time>2018-09-08T21:52:17Z</time>
      </trkpt>
      <trkpt lat="-2.547750" lon="-78.812897">
        <ele>3176.00</ele>
        <time>2018-09-08T21:52:18Z</time>
      </trkpt>
      <trkpt lat="-2.547750" lon="-78.812889">
        <ele>3176.00</ele>
        <time>2018-09-08T21:52:19Z</time>
      </trkpt>
      <trkpt lat="-2.547751" lon="-78.812889">
        <ele>3176.00</ele>
        <time>2018-09-08T21:52:20Z</time>
      </trkpt>
      <trkpt lat="-2.547751" lon="-78.812889">
        <ele>3176.00</ele>
        <time>2018-09-08T21:52:21Z</time>
      </trkpt>
      <trkpt lat="-2.547753" lon="-78.812889">
        <ele>3176.00</ele>
        <time>2018-09-08T21:52:22Z</time>
      </trkpt>
      <trkpt lat="-2.547753" lon="-78.812889">
        <ele>3176.00</ele>
        <time>2018-09-08T21:52:23Z</time>
      </trkpt>
      <trkpt lat="-2.547754" lon="-78.812889">
        <ele>3176.00</ele>
        <time>2018-09-08T21:52:24Z</time>
      </trkpt>
      <trkpt lat="-2.547754" lon="-78.812889">
        <ele>3176.00</ele>
        <time>2018-09-08T21:52:25Z</time>
      </trkpt>
      <trkpt lat="-2.547755" lon="-78.812889">
        <ele>3176.00</ele>
        <time>2018-09-08T21:52:26Z</time>
      </trkpt>
      <trkpt lat="-2.547755" lon="-78.812889">
        <ele>3176.00</ele>
        <time>2018-09-08T21:52:27Z</time>
      </trkpt>
      <trkpt lat="-2.547755" lon="-78.812889">
        <ele>3176.00</ele>
        <time>2018-09-08T21:52:28Z</time>
      </trkpt>
      <trkpt lat="-2.547756" lon="-78.812889">
        <ele>3176.00</ele>
        <time>2018-09-08T21:52:29Z</time>
      </trkpt>
      <trkpt lat="-2.547756" lon="-78.812889">
        <ele>3176.00</ele>
        <time>2018-09-08T21:52:30Z</time>
      </trkpt>
      <trkpt lat="-2.547756" lon="-78.812889">
        <ele>3176.00</ele>
        <time>2018-09-08T21:52:31Z</time>
      </trkpt>
      <trkpt lat="-2.547757" lon="-78.812889">
        <ele>3176.00</ele>
        <time>2018-09-08T21:52:32Z</time>
      </trkpt>
      <trkpt lat="-2.547757" lon="-78.812889">
        <ele>3176.00</ele>
        <time>2018-09-08T21:52:33Z</time>
      </trkpt>
      <trkpt lat="-2.547757" lon="-78.812889">
        <ele>3176.00</ele>
        <time>2018-09-08T21:52:34Z</time>
      </trkpt>
      <trkpt lat="-2.547756" lon="-78.812889">
        <ele>3176.00</ele>
        <time>2018-09-08T21:52:35Z</time>
      </trkpt>
      <trkpt lat="-2.547756" lon="-78.812889">
        <ele>3176.00</ele>
        <time>2018-09-08T21:52:36Z</time>
      </trkpt>
      <trkpt lat="-2.547755" lon="-78.812889">
        <ele>3176.00</ele>
        <time>2018-09-08T21:52:37Z</time>
      </trkpt>
      <trkpt lat="-2.547755" lon="-78.812889">
        <ele>3176.00</ele>
        <time>2018-09-08T21:52:38Z</time>
      </trkpt>
      <trkpt lat="-2.547755" lon="-78.812889">
        <ele>3176.00</ele>
        <time>2018-09-08T21:52:39Z</time>
      </trkpt>
      <trkpt lat="-2.547755" lon="-78.812889">
        <ele>3176.00</ele>
        <time>2018-09-08T21:52:40Z</time>
      </trkpt>
      <trkpt lat="-2.547755" lon="-78.812889">
        <ele>3176.00</ele>
        <time>2018-09-08T21:52:41Z</time>
      </trkpt>
      <trkpt lat="-2.547755" lon="-78.812889">
        <ele>3176.00</ele>
        <time>2018-09-08T21:52:42Z</time>
      </trkpt>
      <trkpt lat="-2.547755" lon="-78.812889">
        <ele>3176.00</ele>
        <time>2018-09-08T21:52:43Z</time>
      </trkpt>
      <trkpt lat="-2.547755" lon="-78.812889">
        <ele>3176.00</ele>
        <time>2018-09-08T21:52:44Z</time>
      </trkpt>
      <trkpt lat="-2.547755" lon="-78.812889">
        <ele>3176.00</ele>
        <time>2018-09-08T21:52:45Z</time>
      </trkpt>
      <trkpt lat="-2.547755" lon="-78.812889">
        <ele>3176.00</ele>
        <time>2018-09-08T21:52:46Z</time>
      </trkpt>
      <trkpt lat="-2.547755" lon="-78.812889">
        <ele>3176.00</ele>
        <time>2018-09-08T21:52:47Z</time>
      </trkpt>
      <trkpt lat="-2.547755" lon="-78.812889">
        <ele>3176.00</ele>
        <time>2018-09-08T21:52:48Z</time>
      </trkpt>
      <trkpt lat="-2.547755" lon="-78.812889">
        <ele>3176.00</ele>
        <time>2018-09-08T21:52:49Z</time>
      </trkpt>
      <trkpt lat="-2.547755" lon="-78.812889">
        <ele>3176.00</ele>
        <time>2018-09-08T21:52:50Z</time>
      </trkpt>
      <trkpt lat="-2.547755" lon="-78.812889">
        <ele>3176.00</ele>
        <time>2018-09-08T21:52:51Z</time>
      </trkpt>
      <trkpt lat="-2.547755" lon="-78.812889">
        <ele>3176.00</ele>
        <time>2018-09-08T21:52:52Z</time>
      </trkpt>
      <trkpt lat="-2.547755" lon="-78.812889">
        <ele>3176.00</ele>
        <time>2018-09-08T21:52:53Z</time>
      </trkpt>
      <trkpt lat="-2.547756" lon="-78.812889">
        <ele>3176.00</ele>
        <time>2018-09-08T21:52:54Z</time>
      </trkpt>
      <trkpt lat="-2.547756" lon="-78.812889">
        <ele>3176.00</ele>
        <time>2018-09-08T21:52:55Z</time>
      </trkpt>
      <trkpt lat="-2.547756" lon="-78.812889">
        <ele>3176.00</ele>
        <time>2018-09-08T21:52:56Z</time>
      </trkpt>
      <trkpt lat="-2.547756" lon="-78.812889">
        <ele>3176.00</ele>
        <time>2018-09-08T21:52:57Z</time>
      </trkpt>
      <trkpt lat="-2.547756" lon="-78.812889">
        <ele>3176.00</ele>
        <time>2018-09-08T21:52:58Z</time>
      </trkpt>
      <trkpt lat="-2.547756" lon="-78.812889">
        <ele>3176.00</ele>
        <time>2018-09-08T21:52:59Z</time>
      </trkpt>
      <trkpt lat="-2.547756" lon="-78.812889">
        <ele>3176.00</ele>
        <time>2018-09-08T21:53:00Z</time>
      </trkpt>
      <trkpt lat="-2.547756" lon="-78.812889">
        <ele>3176.00</ele>
        <time>2018-09-08T21:53:01Z</time>
      </trkpt>
      <trkpt lat="-2.547756" lon="-78.812889">
        <ele>3176.00</ele>
        <time>2018-09-08T21:53:02Z</time>
      </trkpt>
      <trkpt lat="-2.547755" lon="-78.812889">
        <ele>3176.00</ele>
        <time>2018-09-08T21:53:03Z</time>
      </trkpt>
      <trkpt lat="-2.547755" lon="-78.812889">
        <ele>3176.00</ele>
        <time>2018-09-08T21:53:04Z</time>
      </trkpt>
      <trkpt lat="-2.547755" lon="-78.812889">
        <ele>3176.00</ele>
        <time>2018-09-08T21:53:05Z</time>
      </trkpt>
      <trkpt lat="-2.547755" lon="-78.812889">
        <ele>3176.00</ele>
        <time>2018-09-08T21:53:06Z</time>
      </trkpt>
      <trkpt lat="-2.547755" lon="-78.812889">
        <ele>3176.00</ele>
        <time>2018-09-08T21:53:07Z</time>
      </trkpt>
      <trkpt lat="-2.547755" lon="-78.812889">
        <ele>3176.00</ele>
        <time>2018-09-08T21:53:08Z</time>
      </trkpt>
      <trkpt lat="-2.547755" lon="-78.812889">
        <ele>3176.00</ele>
        <time>2018-09-08T21:53:09Z</time>
      </trkpt>
      <trkpt lat="-2.547755" lon="-78.812889">
        <ele>3176.00</ele>
        <time>2018-09-08T21:53:10Z</time>
      </trkpt>
      <trkpt lat="-2.547755" lon="-78.812889">
        <ele>3176.00</ele>
        <time>2018-09-08T21:53:11Z</time>
      </trkpt>
      <trkpt lat="-2.547755" lon="-78.812889">
        <ele>3176.00</ele>
        <time>2018-09-08T21:53:12Z</time>
      </trkpt>
      <trkpt lat="-2.547755" lon="-78.812889">
        <ele>3176.00</ele>
        <time>2018-09-08T21:53:13Z</time>
      </trkpt>
      <trkpt lat="-2.547755" lon="-78.812889">
        <ele>3176.00</ele>
        <time>2018-09-08T21:53:14Z</time>
      </trkpt>
      <trkpt lat="-2.547756" lon="-78.812889">
        <ele>3176.00</ele>
        <time>2018-09-08T21:53:15Z</time>
      </trkpt>
      <trkpt lat="-2.547757" lon="-78.812889">
        <ele>3176.00</ele>
        <time>2018-09-08T21:53:16Z</time>
      </trkpt>
      <trkpt lat="-2.547757" lon="-78.812889">
        <ele>3176.00</ele>
        <time>2018-09-08T21:53:17Z</time>
      </trkpt>
      <trkpt lat="-2.547754" lon="-78.812889">
        <ele>3176.00</ele>
        <time>2018-09-08T21:53:18Z</time>
      </trkpt>
      <trkpt lat="-2.547736" lon="-78.812874">
        <ele>3176.00</ele>
        <time>2018-09-08T21:53:19Z</time>
      </trkpt>
      <trkpt lat="-2.547723" lon="-78.812851">
        <ele>3176.00</ele>
        <time>2018-09-08T21:53:20Z</time>
      </trkpt>
      <trkpt lat="-2.547712" lon="-78.812843">
        <ele>3176.00</ele>
        <time>2018-09-08T21:53:21Z</time>
      </trkpt>
      <trkpt lat="-2.547692" lon="-78.812820">
        <ele>3176.00</ele>
        <time>2018-09-08T21:53:22Z</time>
      </trkpt>
      <trkpt lat="-2.547660" lon="-78.812782">
        <ele>3176.00</ele>
        <time>2018-09-08T21:53:23Z</time>
      </trkpt>
      <trkpt lat="-2.547627" lon="-78.812737">
        <ele>3176.00</ele>
        <time>2018-09-08T21:53:24Z</time>
      </trkpt>
      <trkpt lat="-2.547596" lon="-78.812706">
        <ele>3176.00</ele>
        <time>2018-09-08T21:53:25Z</time>
      </trkpt>
      <trkpt lat="-2.547570" lon="-78.812675">
        <ele>3176.00</ele>
        <time>2018-09-08T21:53:26Z</time>
      </trkpt>
      <trkpt lat="-2.547546" lon="-78.812653">
        <ele>3176.00</ele>
        <time>2018-09-08T21:53:27Z</time>
      </trkpt>
      <trkpt lat="-2.547529" lon="-78.812630">
        <ele>3176.00</ele>
        <time>2018-09-08T21:53:28Z</time>
      </trkpt>
      <trkpt lat="-2.547518" lon="-78.812622">
        <ele>3176.00</ele>
        <time>2018-09-08T21:53:29Z</time>
      </trkpt>
      <trkpt lat="-2.547514" lon="-78.812614">
        <ele>3176.00</ele>
        <time>2018-09-08T21:53:30Z</time>
      </trkpt>
      <trkpt lat="-2.547514" lon="-78.812614">
        <ele>3176.00</ele>
        <time>2018-09-08T21:53:31Z</time>
      </trkpt>
      <trkpt lat="-2.547514" lon="-78.812614">
        <ele>3176.00</ele>
        <time>2018-09-08T21:53:32Z</time>
      </trkpt>
      <trkpt lat="-2.547514" lon="-78.812614">
        <ele>3176.00</ele>
        <time>2018-09-08T21:53:33Z</time>
      </trkpt>
      <trkpt lat="-2.547514" lon="-78.812614">
        <ele>3176.00</ele>
        <time>2018-09-08T21:53:34Z</time>
      </trkpt>
      <trkpt lat="-2.547514" lon="-78.812614">
        <ele>3176.00</ele>
        <time>2018-09-08T21:53:35Z</time>
      </trkpt>
      <trkpt lat="-2.547514" lon="-78.812614">
        <ele>3176.00</ele>
        <time>2018-09-08T21:53:36Z</time>
      </trkpt>
      <trkpt lat="-2.547514" lon="-78.812614">
        <ele>3176.00</ele>
        <time>2018-09-08T21:53:37Z</time>
      </trkpt>
      <trkpt lat="-2.547514" lon="-78.812614">
        <ele>3176.00</ele>
        <time>2018-09-08T21:53:38Z</time>
      </trkpt>
      <trkpt lat="-2.547514" lon="-78.812614">
        <ele>3176.00</ele>
        <time>2018-09-08T21:53:39Z</time>
      </trkpt>
      <trkpt lat="-2.547514" lon="-78.812614">
        <ele>3176.00</ele>
        <time>2018-09-08T21:53:40Z</time>
      </trkpt>
      <trkpt lat="-2.547514" lon="-78.812614">
        <ele>3176.00</ele>
        <time>2018-09-08T21:53:41Z</time>
      </trkpt>
      <trkpt lat="-2.547514" lon="-78.812614">
        <ele>3176.00</ele>
        <time>2018-09-08T21:53:42Z</time>
      </trkpt>
      <trkpt lat="-2.547514" lon="-78.812614">
        <ele>3176.00</ele>
        <time>2018-09-08T21:53:43Z</time>
      </trkpt>
      <trkpt lat="-2.547514" lon="-78.812614">
        <ele>3176.00</ele>
        <time>2018-09-08T21:53:44Z</time>
      </trkpt>
      <trkpt lat="-2.547514" lon="-78.812614">
        <ele>3176.00</ele>
        <time>2018-09-08T21:53:45Z</time>
      </trkpt>
      <trkpt lat="-2.547514" lon="-78.812614">
        <ele>3176.00</ele>
        <time>2018-09-08T21:53:46Z</time>
      </trkpt>
      <trkpt lat="-2.547514" lon="-78.812614">
        <ele>3176.00</ele>
        <time>2018-09-08T21:53:47Z</time>
      </trkpt>
      <trkpt lat="-2.547514" lon="-78.812614">
        <ele>3176.00</ele>
        <time>2018-09-08T21:53:48Z</time>
      </trkpt>
      <trkpt lat="-2.547514" lon="-78.812614">
        <ele>3176.00</ele>
        <time>2018-09-08T21:53:49Z</time>
      </trkpt>
      <trkpt lat="-2.547514" lon="-78.812614">
        <ele>3176.00</ele>
        <time>2018-09-08T21:53:50Z</time>
      </trkpt>
      <trkpt lat="-2.547514" lon="-78.812614">
        <ele>3176.00</ele>
        <time>2018-09-08T21:53:51Z</time>
      </trkpt>
      <trkpt lat="-2.547514" lon="-78.812614">
        <ele>3176.00</ele>
        <time>2018-09-08T21:53:52Z</time>
      </trkpt>
      <trkpt lat="-2.547514" lon="-78.812614">
        <ele>3176.00</ele>
        <time>2018-09-08T21:53:53Z</time>
      </trkpt>
      <trkpt lat="-2.547514" lon="-78.812614">
        <ele>3176.00</ele>
        <time>2018-09-08T21:53:54Z</time>
      </trkpt>
      <trkpt lat="-2.547514" lon="-78.812614">
        <ele>3176.00</ele>
        <time>2018-09-08T21:53:55Z</time>
      </trkpt>
      <trkpt lat="-2.547514" lon="-78.812614">
        <ele>3176.00</ele>
        <time>2018-09-08T21:53:56Z</time>
      </trkpt>
      <trkpt lat="-2.547514" lon="-78.812614">
        <ele>3176.00</ele>
        <time>2018-09-08T21:53:57Z</time>
      </trkpt>
      <trkpt lat="-2.547514" lon="-78.812614">
        <ele>3176.00</ele>
        <time>2018-09-08T21:53:58Z</time>
      </trkpt>
      <trkpt lat="-2.547514" lon="-78.812614">
        <ele>3176.00</ele>
        <time>2018-09-08T21:53:59Z</time>
      </trkpt>
      <trkpt lat="-2.547514" lon="-78.812614">
        <ele>3176.00</ele>
        <time>2018-09-08T21:54:00Z</time>
      </trkpt>
      <trkpt lat="-2.547501" lon="-78.812607">
        <ele>3176.00</ele>
        <time>2018-09-08T21:54:01Z</time>
      </trkpt>
      <trkpt lat="-2.547482" lon="-78.812576">
        <ele>3176.00</ele>
        <time>2018-09-08T21:54:02Z</time>
      </trkpt>
      <trkpt lat="-2.547462" lon="-78.812553">
        <ele>3176.00</ele>
        <time>2018-09-08T21:54:03Z</time>
      </trkpt>
      <trkpt lat="-2.547436" lon="-78.812515">
        <ele>3176.00</ele>
        <time>2018-09-08T21:54:04Z</time>
      </trkpt>
      <trkpt lat="-2.547408" lon="-78.812492">
        <ele>3176.00</ele>
        <time>2018-09-08T21:54:05Z</time>
      </trkpt>
      <trkpt lat="-2.547375" lon="-78.812454">
        <ele>3176.00</ele>
        <time>2018-09-08T21:54:06Z</time>
      </trkpt>
      <trkpt lat="-2.547344" lon="-78.812408">
        <ele>3176.00</ele>
        <time>2018-09-08T21:54:07Z</time>
      </trkpt>
      <trkpt lat="-2.547317" lon="-78.812363">
        <ele>3176.00</ele>
        <time>2018-09-08T21:54:08Z</time>
      </trkpt>
      <trkpt lat="-2.547292" lon="-78.812340">
        <ele>3176.00</ele>
        <time>2018-09-08T21:54:09Z</time>
      </trkpt>
      <trkpt lat="-2.547273" lon="-78.812309">
        <ele>3176.00</ele>
        <time>2018-09-08T21:54:10Z</time>
      </trkpt>
      <trkpt lat="-2.547263" lon="-78.812294">
        <ele>3176.00</ele>
        <time>2018-09-08T21:54:11Z</time>
      </trkpt>
      <trkpt lat="-2.547263" lon="-78.812294">
        <ele>3176.00</ele>
        <time>2018-09-08T21:54:12Z</time>
      </trkpt>
      <trkpt lat="-2.547263" lon="-78.812294">
        <ele>3176.00</ele>
        <time>2018-09-08T21:54:13Z</time>
      </trkpt>
      <trkpt lat="-2.547263" lon="-78.812294">
        <ele>3176.00</ele>
        <time>2018-09-08T21:54:14Z</time>
      </trkpt>
      <trkpt lat="-2.547263" lon="-78.812294">
        <ele>3176.00</ele>
        <time>2018-09-08T21:54:15Z</time>
      </trkpt>
      <trkpt lat="-2.547263" lon="-78.812294">
        <ele>3176.00</ele>
        <time>2018-09-08T21:54:16Z</time>
      </trkpt>
      <trkpt lat="-2.547263" lon="-78.812294">
        <ele>3176.00</ele>
        <time>2018-09-08T21:54:17Z</time>
      </trkpt>
      <trkpt lat="-2.547263" lon="-78.812294">
        <ele>3176.00</ele>
        <time>2018-09-08T21:54:18Z</time>
      </trkpt>
      <trkpt lat="-2.547263" lon="-78.812294">
        <ele>3176.00</ele>
        <time>2018-09-08T21:54:19Z</time>
      </trkpt>
      <trkpt lat="-2.547263" lon="-78.812294">
        <ele>3176.00</ele>
        <time>2018-09-08T21:54:20Z</time>
      </trkpt>
      <trkpt lat="-2.547263" lon="-78.812294">
        <ele>3176.00</ele>
        <time>2018-09-08T21:54:21Z</time>
      </trkpt>
      <trkpt lat="-2.547256" lon="-78.812286">
        <ele>3176.00</ele>
        <time>2018-09-08T21:54:22Z</time>
      </trkpt>
      <trkpt lat="-2.547000" lon="-78.812073">
        <ele>3176.00</ele>
        <time>2018-09-08T21:54:33Z</time>
      </trkpt>
      <trkpt lat="-2.546956" lon="-78.812035">
        <ele>3176.00</ele>
        <time>2018-09-08T21:54:34Z</time>
      </trkpt>
      <trkpt lat="-2.546925" lon="-78.812012">
        <ele>3176.00</ele>
        <time>2018-09-08T21:54:35Z</time>
      </trkpt>
      <trkpt lat="-2.546896" lon="-78.811974">
        <ele>3176.00</ele>
        <time>2018-09-08T21:54:36Z</time>
      </trkpt>
      <trkpt lat="-2.546875" lon="-78.811943">
        <ele>3176.00</ele>
        <time>2018-09-08T21:54:37Z</time>
      </trkpt>
      <trkpt lat="-2.546860" lon="-78.811928">
        <ele>3176.00</ele>
        <time>2018-09-08T21:54:38Z</time>
      </trkpt>
      <trkpt lat="-2.546844" lon="-78.811913">
        <ele>3176.00</ele>
        <time>2018-09-08T21:54:39Z</time>
      </trkpt>
      <trkpt lat="-2.546812" lon="-78.811867">
        <ele>3176.00</ele>
        <time>2018-09-08T21:54:40Z</time>
      </trkpt>
      <trkpt lat="-2.546787" lon="-78.811813">
        <ele>3176.00</ele>
        <time>2018-09-08T21:54:41Z</time>
      </trkpt>
      <trkpt lat="-2.546764" lon="-78.811752">
        <ele>3176.00</ele>
        <time>2018-09-08T21:54:42Z</time>
      </trkpt>
      <trkpt lat="-2.546749" lon="-78.811714">
        <ele>3176.00</ele>
        <time>2018-09-08T21:54:43Z</time>
      </trkpt>
      <trkpt lat="-2.546698" lon="-78.811653">
        <ele>3176.00</ele>
        <time>2018-09-08T21:54:44Z</time>
      </trkpt>
      <trkpt lat="-2.546634" lon="-78.811539">
        <ele>3176.00</ele>
        <time>2018-09-08T21:54:46Z</time>
      </trkpt>
      <trkpt lat="-2.546605" lon="-78.811485">
        <ele>3176.00</ele>
        <time>2018-09-08T21:54:47Z</time>
      </trkpt>
      <trkpt lat="-2.546589" lon="-78.811447">
        <ele>3176.00</ele>
        <time>2018-09-08T21:54:48Z</time>
      </trkpt>
      <trkpt lat="-2.546589" lon="-78.811447">
        <ele>3176.00</ele>
        <time>2018-09-08T21:54:49Z</time>
      </trkpt>
      <trkpt lat="-2.546589" lon="-78.811447">
        <ele>3176.00</ele>
        <time>2018-09-08T21:54:50Z</time>
      </trkpt>
      <trkpt lat="-2.546589" lon="-78.811447">
        <ele>3176.00</ele>
        <time>2018-09-08T21:54:51Z</time>
      </trkpt>
      <trkpt lat="-2.546588" lon="-78.811447">
        <ele>3176.00</ele>
        <time>2018-09-08T21:54:52Z</time>
      </trkpt>
      <trkpt lat="-2.546557" lon="-78.811401">
        <ele>3176.00</ele>
        <time>2018-09-08T21:54:53Z</time>
      </trkpt>
      <trkpt lat="-2.546375" lon="-78.811043">
        <ele>3176.00</ele>
        <time>2018-09-08T21:54:59Z</time>
      </trkpt>
      <trkpt lat="-2.546357" lon="-78.810966">
        <ele>3176.00</ele>
        <time>2018-09-08T21:55:00Z</time>
      </trkpt>
      <trkpt lat="-2.546333" lon="-78.810898">
        <ele>3176.00</ele>
        <time>2018-09-08T21:55:01Z</time>
      </trkpt>
      <trkpt lat="-2.546303" lon="-78.810822">
        <ele>3176.00</ele>
        <time>2018-09-08T21:55:02Z</time>
      </trkpt>
      <trkpt lat="-2.546269" lon="-78.810738">
        <ele>3176.00</ele>
        <time>2018-09-08T21:55:03Z</time>
      </trkpt>
      <trkpt lat="-2.546227" lon="-78.810631">
        <ele>3176.00</ele>
        <time>2018-09-08T21:55:04Z</time>
      </trkpt>
      <trkpt lat="-2.546190" lon="-78.810524">
        <ele>3176.00</ele>
        <time>2018-09-08T21:55:05Z</time>
      </trkpt>
      <trkpt lat="-2.546166" lon="-78.810463">
        <ele>3176.00</ele>
        <time>2018-09-08T21:55:06Z</time>
      </trkpt>
      <trkpt lat="-2.546153" lon="-78.810417">
        <ele>3176.00</ele>
        <time>2018-09-08T21:55:07Z</time>
      </trkpt>
      <trkpt lat="-2.546146" lon="-78.810394">
        <ele>3176.00</ele>
        <time>2018-09-08T21:55:08Z</time>
      </trkpt>
      <trkpt lat="-2.546137" lon="-78.810364">
        <ele>3176.00</ele>
        <time>2018-09-08T21:55:09Z</time>
      </trkpt>
      <trkpt lat="-2.546131" lon="-78.810326">
        <ele>3176.00</ele>
        <time>2018-09-08T21:55:10Z</time>
      </trkpt>
      <trkpt lat="-2.546121" lon="-78.810303">
        <ele>3176.00</ele>
        <time>2018-09-08T21:55:11Z</time>
      </trkpt>
      <trkpt lat="-2.546106" lon="-78.810249">
        <ele>3176.00</ele>
        <time>2018-09-08T21:55:12Z</time>
      </trkpt>
      <trkpt lat="-2.546086" lon="-78.810188">
        <ele>3176.00</ele>
        <time>2018-09-08T21:55:13Z</time>
      </trkpt>
      <trkpt lat="-2.546063" lon="-78.810127">
        <ele>3176.00</ele>
        <time>2018-09-08T21:55:14Z</time>
      </trkpt>
      <trkpt lat="-2.546034" lon="-78.810059">
        <ele>3176.00</ele>
        <time>2018-09-08T21:55:15Z</time>
      </trkpt>
      <trkpt lat="-2.546011" lon="-78.809982">
        <ele>3176.00</ele>
        <time>2018-09-08T21:55:16Z</time>
      </trkpt>
      <trkpt lat="-2.545994" lon="-78.809914">
        <ele>3175.00</ele>
        <time>2018-09-08T21:55:17Z</time>
      </trkpt>
      <trkpt lat="-2.545979" lon="-78.809830">
        <ele>3175.00</ele>
        <time>2018-09-08T21:55:18Z</time>
      </trkpt>
      <trkpt lat="-2.545967" lon="-78.809753">
        <ele>3175.00</ele>
        <time>2018-09-08T21:55:19Z</time>
      </trkpt>
      <trkpt lat="-2.545955" lon="-78.809669">
        <ele>3175.00</ele>
        <time>2018-09-08T21:55:20Z</time>
      </trkpt>
      <trkpt lat="-2.545944" lon="-78.809593">
        <ele>3175.00</ele>
        <time>2018-09-08T21:55:21Z</time>
      </trkpt>
      <trkpt lat="-2.545931" lon="-78.809517">
        <ele>3175.00</ele>
        <time>2018-09-08T21:55:22Z</time>
      </trkpt>
      <trkpt lat="-2.545918" lon="-78.809448">
        <ele>3175.00</ele>
        <time>2018-09-08T21:55:23Z</time>
      </trkpt>
      <trkpt lat="-2.545907" lon="-78.809380">
        <ele>3175.00</ele>
        <time>2018-09-08T21:55:24Z</time>
      </trkpt>
      <trkpt lat="-2.545903" lon="-78.809303">
        <ele>3175.00</ele>
        <time>2018-09-08T21:55:25Z</time>
      </trkpt>
      <trkpt lat="-2.545902" lon="-78.809235">
        <ele>3175.00</ele>
        <time>2018-09-08T21:55:26Z</time>
      </trkpt>
      <trkpt lat="-2.545899" lon="-78.809166">
        <ele>3175.00</ele>
        <time>2018-09-08T21:55:27Z</time>
      </trkpt>
      <trkpt lat="-2.545894" lon="-78.809105">
        <ele>3175.00</ele>
        <time>2018-09-08T21:55:28Z</time>
      </trkpt>
      <trkpt lat="-2.545881" lon="-78.809052">
        <ele>3175.00</ele>
        <time>2018-09-08T21:55:29Z</time>
      </trkpt>
      <trkpt lat="-2.545858" lon="-78.808990">
        <ele>3175.00</ele>
        <time>2018-09-08T21:55:30Z</time>
      </trkpt>
      <trkpt lat="-2.545831" lon="-78.808937">
        <ele>3175.00</ele>
        <time>2018-09-08T21:55:31Z</time>
      </trkpt>
      <trkpt lat="-2.545806" lon="-78.808891">
        <ele>3175.00</ele>
        <time>2018-09-08T21:55:32Z</time>
      </trkpt>
      <trkpt lat="-2.545788" lon="-78.808838">
        <ele>3175.00</ele>
        <time>2018-09-08T21:55:33Z</time>
      </trkpt>
      <trkpt lat="-2.545771" lon="-78.808792">
        <ele>3175.00</ele>
        <time>2018-09-08T21:55:34Z</time>
      </trkpt>
      <trkpt lat="-2.545754" lon="-78.808754">
        <ele>3175.00</ele>
        <time>2018-09-08T21:55:35Z</time>
      </trkpt>
      <trkpt lat="-2.545742" lon="-78.808723">
        <ele>3175.00</ele>
        <time>2018-09-08T21:55:36Z</time>
      </trkpt>
      <trkpt lat="-2.545733" lon="-78.808685">
        <ele>3175.00</ele>
        <time>2018-09-08T21:55:37Z</time>
      </trkpt>
      <trkpt lat="-2.545728" lon="-78.808670">
        <ele>3175.00</ele>
        <time>2018-09-08T21:55:38Z</time>
      </trkpt>
      <trkpt lat="-2.545728" lon="-78.808655">
        <ele>3175.00</ele>
        <time>2018-09-08T21:55:39Z</time>
      </trkpt>
      <trkpt lat="-2.545728" lon="-78.808655">
        <ele>3175.00</ele>
        <time>2018-09-08T21:55:40Z</time>
      </trkpt>
      <trkpt lat="-2.545728" lon="-78.808655">
        <ele>3175.00</ele>
        <time>2018-09-08T21:55:41Z</time>
      </trkpt>
      <trkpt lat="-2.545728" lon="-78.808655">
        <ele>3175.00</ele>
        <time>2018-09-08T21:55:42Z</time>
      </trkpt>
      <trkpt lat="-2.545728" lon="-78.808655">
        <ele>3175.00</ele>
        <time>2018-09-08T21:55:43Z</time>
      </trkpt>
      <trkpt lat="-2.545728" lon="-78.808655">
        <ele>3175.00</ele>
        <time>2018-09-08T21:55:44Z</time>
      </trkpt>
      <trkpt lat="-2.545728" lon="-78.808655">
        <ele>3175.00</ele>
        <time>2018-09-08T21:55:45Z</time>
      </trkpt>
      <trkpt lat="-2.545728" lon="-78.808655">
        <ele>3175.00</ele>
        <time>2018-09-08T21:55:46Z</time>
      </trkpt>
      <trkpt lat="-2.545737" lon="-78.808670">
        <ele>3175.00</ele>
        <time>2018-09-08T21:55:47Z</time>
      </trkpt>
      <trkpt lat="-2.545738" lon="-78.808655">
        <ele>3175.00</ele>
        <time>2018-09-08T21:55:48Z</time>
      </trkpt>
      <trkpt lat="-2.545738" lon="-78.808655">
        <ele>3175.00</ele>
        <time>2018-09-08T21:55:49Z</time>
      </trkpt>
      <trkpt lat="-2.545738" lon="-78.808655">
        <ele>3175.00</ele>
        <time>2018-09-08T21:55:50Z</time>
      </trkpt>
      <trkpt lat="-2.545743" lon="-78.808640">
        <ele>3175.00</ele>
        <time>2018-09-08T21:55:51Z</time>
      </trkpt>
      <trkpt lat="-2.545743" lon="-78.808624">
        <ele>3175.00</ele>
        <time>2018-09-08T21:55:52Z</time>
      </trkpt>
      <trkpt lat="-2.545744" lon="-78.808601">
        <ele>3175.00</ele>
        <time>2018-09-08T21:55:53Z</time>
      </trkpt>
      <trkpt lat="-2.545746" lon="-78.808578">
        <ele>3175.00</ele>
        <time>2018-09-08T21:55:54Z</time>
      </trkpt>
      <trkpt lat="-2.545745" lon="-78.808548">
        <ele>3175.00</ele>
        <time>2018-09-08T21:55:55Z</time>
      </trkpt>
      <trkpt lat="-2.545742" lon="-78.808525">
        <ele>3175.00</ele>
        <time>2018-09-08T21:55:56Z</time>
      </trkpt>
      <trkpt lat="-2.545738" lon="-78.808487">
        <ele>3175.00</ele>
        <time>2018-09-08T21:55:57Z</time>
      </trkpt>
      <trkpt lat="-2.545738" lon="-78.808464">
        <ele>3175.00</ele>
        <time>2018-09-08T21:55:58Z</time>
      </trkpt>
      <trkpt lat="-2.545739" lon="-78.808426">
        <ele>3175.00</ele>
        <time>2018-09-08T21:55:59Z</time>
      </trkpt>
      <trkpt lat="-2.545740" lon="-78.808411">
        <ele>3174.00</ele>
        <time>2018-09-08T21:56:00Z</time>
      </trkpt>
      <trkpt lat="-2.545741" lon="-78.808380">
        <ele>3174.00</ele>
        <time>2018-09-08T21:56:01Z</time>
      </trkpt>
      <trkpt lat="-2.545741" lon="-78.808365">
        <ele>3174.00</ele>
        <time>2018-09-08T21:56:02Z</time>
      </trkpt>
      <trkpt lat="-2.545746" lon="-78.808319">
        <ele>3174.00</ele>
        <time>2018-09-08T21:56:05Z</time>
      </trkpt>
      <trkpt lat="-2.545747" lon="-78.808319">
        <ele>3174.00</ele>
        <time>2018-09-08T21:56:06Z</time>
      </trkpt>
      <trkpt lat="-2.545747" lon="-78.808311">
        <ele>3174.00</ele>
        <time>2018-09-08T21:56:07Z</time>
      </trkpt>
      <trkpt lat="-2.545747" lon="-78.808311">
        <ele>3174.00</ele>
        <time>2018-09-08T21:56:08Z</time>
      </trkpt>
      <trkpt lat="-2.545746" lon="-78.808304">
        <ele>3174.00</ele>
        <time>2018-09-08T21:56:09Z</time>
      </trkpt>
      <trkpt lat="-2.545743" lon="-78.808296">
        <ele>3174.00</ele>
        <time>2018-09-08T21:56:10Z</time>
      </trkpt>
      <trkpt lat="-2.545746" lon="-78.808311">
        <ele>3174.00</ele>
        <time>2018-09-08T21:56:11Z</time>
      </trkpt>
      <trkpt lat="-2.545744" lon="-78.808311">
        <ele>3174.00</ele>
        <time>2018-09-08T21:56:12Z</time>
      </trkpt>
      <trkpt lat="-2.545724" lon="-78.808334">
        <ele>3174.00</ele>
        <time>2018-09-08T21:56:13Z</time>
      </trkpt>
      <trkpt lat="-2.545721" lon="-78.808334">
        <ele>3174.00</ele>
        <time>2018-09-08T21:56:14Z</time>
      </trkpt>
      <trkpt lat="-2.545714" lon="-78.808327">
        <ele>3174.00</ele>
        <time>2018-09-08T21:56:15Z</time>
      </trkpt>
      <trkpt lat="-2.545708" lon="-78.808319">
        <ele>3174.00</ele>
        <time>2018-09-08T21:56:16Z</time>
      </trkpt>
      <trkpt lat="-2.545715" lon="-78.808327">
        <ele>3174.00</ele>
        <time>2018-09-08T21:56:17Z</time>
      </trkpt>
      <trkpt lat="-2.545717" lon="-78.808327">
        <ele>3174.00</ele>
        <time>2018-09-08T21:56:18Z</time>
      </trkpt>
      <trkpt lat="-2.545718" lon="-78.808327">
        <ele>3174.00</ele>
        <time>2018-09-08T21:56:19Z</time>
      </trkpt>
      <trkpt lat="-2.545719" lon="-78.808327">
        <ele>3174.00</ele>
        <time>2018-09-08T21:56:20Z</time>
      </trkpt>
      <trkpt lat="-2.545719" lon="-78.808327">
        <ele>3174.00</ele>
        <time>2018-09-08T21:56:21Z</time>
      </trkpt>
      <trkpt lat="-2.545720" lon="-78.808327">
        <ele>3174.00</ele>
        <time>2018-09-08T21:56:22Z</time>
      </trkpt>
      <trkpt lat="-2.545722" lon="-78.808327">
        <ele>3174.00</ele>
        <time>2018-09-08T21:56:23Z</time>
      </trkpt>
      <trkpt lat="-2.545722" lon="-78.808327">
        <ele>3174.00</ele>
        <time>2018-09-08T21:56:24Z</time>
      </trkpt>
      <trkpt lat="-2.545723" lon="-78.808327">
        <ele>3174.00</ele>
        <time>2018-09-08T21:56:25Z</time>
      </trkpt>
      <trkpt lat="-2.545726" lon="-78.808334">
        <ele>3174.00</ele>
        <time>2018-09-08T21:56:26Z</time>
      </trkpt>
      <trkpt lat="-2.545729" lon="-78.808334">
        <ele>3174.00</ele>
        <time>2018-09-08T21:56:27Z</time>
      </trkpt>
      <trkpt lat="-2.545730" lon="-78.808334">
        <ele>3174.00</ele>
        <time>2018-09-08T21:56:28Z</time>
      </trkpt>
      <trkpt lat="-2.545732" lon="-78.808334">
        <ele>3174.00</ele>
        <time>2018-09-08T21:56:29Z</time>
      </trkpt>
      <trkpt lat="-2.545733" lon="-78.808334">
        <ele>3174.00</ele>
        <time>2018-09-08T21:56:30Z</time>
      </trkpt>
      <trkpt lat="-2.545733" lon="-78.808334">
        <ele>3174.00</ele>
        <time>2018-09-08T21:56:31Z</time>
      </trkpt>
      <trkpt lat="-2.545736" lon="-78.808334">
        <ele>3174.00</ele>
        <time>2018-09-08T21:56:32Z</time>
      </trkpt>
      <trkpt lat="-2.545738" lon="-78.808350">
        <ele>3174.00</ele>
        <time>2018-09-08T21:56:33Z</time>
      </trkpt>
      <trkpt lat="-2.545738" lon="-78.808334">
        <ele>3174.00</ele>
        <time>2018-09-08T21:56:34Z</time>
      </trkpt>
      <trkpt lat="-2.545739" lon="-78.808350">
        <ele>3174.00</ele>
        <time>2018-09-08T21:56:35Z</time>
      </trkpt>
      <trkpt lat="-2.545738" lon="-78.808334">
        <ele>3174.00</ele>
        <time>2018-09-08T21:56:36Z</time>
      </trkpt>
      <trkpt lat="-2.545740" lon="-78.808350">
        <ele>3174.00</ele>
        <time>2018-09-08T21:56:37Z</time>
      </trkpt>
      <trkpt lat="-2.545741" lon="-78.808350">
        <ele>3174.00</ele>
        <time>2018-09-08T21:56:38Z</time>
      </trkpt>
      <trkpt lat="-2.545745" lon="-78.808350">
        <ele>3174.00</ele>
        <time>2018-09-08T21:56:39Z</time>
      </trkpt>
      <trkpt lat="-2.545746" lon="-78.808350">
        <ele>3174.00</ele>
        <time>2018-09-08T21:56:40Z</time>
      </trkpt>
      <trkpt lat="-2.545746" lon="-78.808350">
        <ele>3174.00</ele>
        <time>2018-09-08T21:56:41Z</time>
      </trkpt>
      <trkpt lat="-2.545746" lon="-78.808350">
        <ele>3174.00</ele>
        <time>2018-09-08T21:56:42Z</time>
      </trkpt>
      <trkpt lat="-2.545747" lon="-78.808350">
        <ele>3174.00</ele>
        <time>2018-09-08T21:56:43Z</time>
      </trkpt>
      <trkpt lat="-2.545747" lon="-78.808350">
        <ele>3174.00</ele>
        <time>2018-09-08T21:56:44Z</time>
      </trkpt>
      <trkpt lat="-2.545747" lon="-78.808350">
        <ele>3174.00</ele>
        <time>2018-09-08T21:56:45Z</time>
      </trkpt>
      <trkpt lat="-2.545748" lon="-78.808350">
        <ele>3174.00</ele>
        <time>2018-09-08T21:56:46Z</time>
      </trkpt>
      <trkpt lat="-2.545749" lon="-78.808350">
        <ele>3174.00</ele>
        <time>2018-09-08T21:56:47Z</time>
      </trkpt>
      <trkpt lat="-2.545751" lon="-78.808334">
        <ele>3174.00</ele>
        <time>2018-09-08T21:56:48Z</time>
      </trkpt>
      <trkpt lat="-2.545747" lon="-78.808327">
        <ele>3174.00</ele>
        <time>2018-09-08T21:56:49Z</time>
      </trkpt>
      <trkpt lat="-2.545746" lon="-78.808311">
        <ele>3174.00</ele>
        <time>2018-09-08T21:56:50Z</time>
      </trkpt>
      <trkpt lat="-2.545743" lon="-78.808304">
        <ele>3174.00</ele>
        <time>2018-09-08T21:56:51Z</time>
      </trkpt>
      <trkpt lat="-2.545742" lon="-78.808296">
        <ele>3174.00</ele>
        <time>2018-09-08T21:56:52Z</time>
      </trkpt>
      <trkpt lat="-2.545745" lon="-78.808273">
        <ele>3174.00</ele>
        <time>2018-09-08T21:56:53Z</time>
      </trkpt>
      <trkpt lat="-2.545754" lon="-78.808258">
        <ele>3174.00</ele>
        <time>2018-09-08T21:56:54Z</time>
      </trkpt>
      <trkpt lat="-2.545767" lon="-78.808258">
        <ele>3174.00</ele>
        <time>2018-09-08T21:56:55Z</time>
      </trkpt>
      <trkpt lat="-2.545780" lon="-78.808250">
        <ele>3174.00</ele>
        <time>2018-09-08T21:56:56Z</time>
      </trkpt>
      <trkpt lat="-2.545791" lon="-78.808250">
        <ele>3174.00</ele>
        <time>2018-09-08T21:56:57Z</time>
      </trkpt>
      <trkpt lat="-2.545801" lon="-78.808258">
        <ele>3174.00</ele>
        <time>2018-09-08T21:56:58Z</time>
      </trkpt>
      <trkpt lat="-2.545813" lon="-78.808258">
        <ele>3174.00</ele>
        <time>2018-09-08T21:56:59Z</time>
      </trkpt>
      <trkpt lat="-2.545825" lon="-78.808250">
        <ele>3174.00</ele>
        <time>2018-09-08T21:57:00Z</time>
      </trkpt>
      <trkpt lat="-2.545839" lon="-78.808250">
        <ele>3174.00</ele>
        <time>2018-09-08T21:57:01Z</time>
      </trkpt>
      <trkpt lat="-2.545845" lon="-78.808250">
        <ele>3174.00</ele>
        <time>2018-09-08T21:57:02Z</time>
      </trkpt>
      <trkpt lat="-2.545853" lon="-78.808258">
        <ele>3174.00</ele>
        <time>2018-09-08T21:57:03Z</time>
      </trkpt>
      <trkpt lat="-2.545861" lon="-78.808258">
        <ele>3174.00</ele>
        <time>2018-09-08T21:57:04Z</time>
      </trkpt>
      <trkpt lat="-2.545867" lon="-78.808266">
        <ele>3174.00</ele>
        <time>2018-09-08T21:57:05Z</time>
      </trkpt>
      <trkpt lat="-2.545883" lon="-78.808266">
        <ele>3174.00</ele>
        <time>2018-09-08T21:57:06Z</time>
      </trkpt>
      <trkpt lat="-2.545894" lon="-78.808266">
        <ele>3174.00</ele>
        <time>2018-09-08T21:57:07Z</time>
      </trkpt>
      <trkpt lat="-2.545903" lon="-78.808266">
        <ele>3174.00</ele>
        <time>2018-09-08T21:57:08Z</time>
      </trkpt>
      <trkpt lat="-2.545911" lon="-78.808266">
        <ele>3174.00</ele>
        <time>2018-09-08T21:57:09Z</time>
      </trkpt>
      <trkpt lat="-2.545913" lon="-78.808266">
        <ele>3174.00</ele>
        <time>2018-09-08T21:57:10Z</time>
      </trkpt>
      <trkpt lat="-2.545909" lon="-78.808266">
        <ele>3174.00</ele>
        <time>2018-09-08T21:57:11Z</time>
      </trkpt>
      <trkpt lat="-2.545910" lon="-78.808266">
        <ele>3174.00</ele>
        <time>2018-09-08T21:57:12Z</time>
      </trkpt>
      <trkpt lat="-2.545911" lon="-78.808266">
        <ele>3174.00</ele>
        <time>2018-09-08T21:57:13Z</time>
      </trkpt>
      <trkpt lat="-2.545911" lon="-78.808266">
        <ele>3174.00</ele>
        <time>2018-09-08T21:57:14Z</time>
      </trkpt>
      <trkpt lat="-2.545911" lon="-78.808273">
        <ele>3174.00</ele>
        <time>2018-09-08T21:57:15Z</time>
      </trkpt>
      <trkpt lat="-2.545911" lon="-78.808273">
        <ele>3174.00</ele>
        <time>2018-09-08T21:57:16Z</time>
      </trkpt>
      <trkpt lat="-2.545911" lon="-78.808273">
        <ele>3174.00</ele>
        <time>2018-09-08T21:57:17Z</time>
      </trkpt>
      <trkpt lat="-2.545910" lon="-78.808273">
        <ele>3174.00</ele>
        <time>2018-09-08T21:57:18Z</time>
      </trkpt>
      <trkpt lat="-2.545910" lon="-78.808273">
        <ele>3174.00</ele>
        <time>2018-09-08T21:57:19Z</time>
      </trkpt>
      <trkpt lat="-2.545910" lon="-78.808273">
        <ele>3174.00</ele>
        <time>2018-09-08T21:57:20Z</time>
      </trkpt>
      <trkpt lat="-2.545910" lon="-78.808273">
        <ele>3174.00</ele>
        <time>2018-09-08T21:57:21Z</time>
      </trkpt>
      <trkpt lat="-2.545910" lon="-78.808273">
        <ele>3174.00</ele>
        <time>2018-09-08T21:57:22Z</time>
      </trkpt>
      <trkpt lat="-2.545910" lon="-78.808273">
        <ele>3174.00</ele>
        <time>2018-09-08T21:57:23Z</time>
      </trkpt>
      <trkpt lat="-2.545912" lon="-78.808273">
        <ele>3174.00</ele>
        <time>2018-09-08T21:57:24Z</time>
      </trkpt>
      <trkpt lat="-2.545902" lon="-78.808273">
        <ele>3174.00</ele>
        <time>2018-09-08T21:57:25Z</time>
      </trkpt>
      <trkpt lat="-2.545899" lon="-78.808273">
        <ele>3174.00</ele>
        <time>2018-09-08T21:57:26Z</time>
      </trkpt>
      <trkpt lat="-2.545897" lon="-78.808266">
        <ele>3174.00</ele>
        <time>2018-09-08T21:57:27Z</time>
      </trkpt>
      <trkpt lat="-2.545896" lon="-78.808266">
        <ele>3174.00</ele>
        <time>2018-09-08T21:57:28Z</time>
      </trkpt>
      <trkpt lat="-2.545898" lon="-78.808273">
        <ele>3174.00</ele>
        <time>2018-09-08T21:57:29Z</time>
      </trkpt>
      <trkpt lat="-2.545904" lon="-78.808273">
        <ele>3174.00</ele>
        <time>2018-09-08T21:57:30Z</time>
      </trkpt>
      <trkpt lat="-2.545914" lon="-78.808281">
        <ele>3174.00</ele>
        <time>2018-09-08T21:57:31Z</time>
      </trkpt>
      <trkpt lat="-2.545919" lon="-78.808281">
        <ele>3174.00</ele>
        <time>2018-09-08T21:57:32Z</time>
      </trkpt>
      <trkpt lat="-2.545933" lon="-78.808296">
        <ele>3174.00</ele>
        <time>2018-09-08T21:57:33Z</time>
      </trkpt>
      <trkpt lat="-2.545949" lon="-78.808304">
        <ele>3174.00</ele>
        <time>2018-09-08T21:57:34Z</time>
      </trkpt>
      <trkpt lat="-2.545955" lon="-78.808304">
        <ele>3174.00</ele>
        <time>2018-09-08T21:57:35Z</time>
      </trkpt>
      <trkpt lat="-2.545962" lon="-78.808304">
        <ele>3174.00</ele>
        <time>2018-09-08T21:57:36Z</time>
      </trkpt>
      <trkpt lat="-2.545972" lon="-78.808311">
        <ele>3174.00</ele>
        <time>2018-09-08T21:57:37Z</time>
      </trkpt>
      <trkpt lat="-2.545984" lon="-78.808311">
        <ele>3174.00</ele>
        <time>2018-09-08T21:57:38Z</time>
      </trkpt>
      <trkpt lat="-2.545993" lon="-78.808304">
        <ele>3174.00</ele>
        <time>2018-09-08T21:57:39Z</time>
      </trkpt>
      <trkpt lat="-2.545999" lon="-78.808304">
        <ele>3174.00</ele>
        <time>2018-09-08T21:57:40Z</time>
      </trkpt>
      <trkpt lat="-2.546009" lon="-78.808281">
        <ele>3174.00</ele>
        <time>2018-09-08T21:57:41Z</time>
      </trkpt>
      <trkpt lat="-2.546020" lon="-78.808273">
        <ele>3174.00</ele>
        <time>2018-09-08T21:57:42Z</time>
      </trkpt>
      <trkpt lat="-2.546028" lon="-78.808266">
        <ele>3174.00</ele>
        <time>2018-09-08T21:57:43Z</time>
      </trkpt>
      <trkpt lat="-2.546035" lon="-78.808250">
        <ele>3174.00</ele>
        <time>2018-09-08T21:57:44Z</time>
      </trkpt>
      <trkpt lat="-2.546039" lon="-78.808243">
        <ele>3174.00</ele>
        <time>2018-09-08T21:57:45Z</time>
      </trkpt>
      <trkpt lat="-2.546041" lon="-78.808228">
        <ele>3174.00</ele>
        <time>2018-09-08T21:57:46Z</time>
      </trkpt>
      <trkpt lat="-2.546041" lon="-78.808228">
        <ele>3174.00</ele>
        <time>2018-09-08T21:57:47Z</time>
      </trkpt>
      <trkpt lat="-2.546041" lon="-78.808228">
        <ele>3174.00</ele>
        <time>2018-09-08T21:57:48Z</time>
      </trkpt>
      <trkpt lat="-2.546041" lon="-78.808228">
        <ele>3174.00</ele>
        <time>2018-09-08T21:57:49Z</time>
      </trkpt>
      <trkpt lat="-2.546041" lon="-78.808228">
        <ele>3174.00</ele>
        <time>2018-09-08T21:57:50Z</time>
      </trkpt>
      <trkpt lat="-2.546041" lon="-78.808228">
        <ele>3174.00</ele>
        <time>2018-09-08T21:57:51Z</time>
      </trkpt>
      <trkpt lat="-2.546041" lon="-78.808228">
        <ele>3174.00</ele>
        <time>2018-09-08T21:57:52Z</time>
      </trkpt>
      <trkpt lat="-2.546042" lon="-78.808228">
        <ele>3174.00</ele>
        <time>2018-09-08T21:57:53Z</time>
      </trkpt>
      <trkpt lat="-2.546042" lon="-78.808228">
        <ele>3174.00</ele>
        <time>2018-09-08T21:57:54Z</time>
      </trkpt>
      <trkpt lat="-2.546042" lon="-78.808220">
        <ele>3174.00</ele>
        <time>2018-09-08T21:57:55Z</time>
      </trkpt>
      <trkpt lat="-2.546045" lon="-78.808220">
        <ele>3174.00</ele>
        <time>2018-09-08T21:57:56Z</time>
      </trkpt>
      <trkpt lat="-2.546048" lon="-78.808212">
        <ele>3174.00</ele>
        <time>2018-09-08T21:57:57Z</time>
      </trkpt>
      <trkpt lat="-2.546049" lon="-78.808212">
        <ele>3174.00</ele>
        <time>2018-09-08T21:57:58Z</time>
      </trkpt>
      <trkpt lat="-2.546054" lon="-78.808197">
        <ele>3174.00</ele>
        <time>2018-09-08T21:57:59Z</time>
      </trkpt>
      <trkpt lat="-2.546059" lon="-78.808197">
        <ele>3174.00</ele>
        <time>2018-09-08T21:58:00Z</time>
      </trkpt>
      <trkpt lat="-2.546064" lon="-78.808174">
        <ele>3174.00</ele>
        <time>2018-09-08T21:58:01Z</time>
      </trkpt>
      <trkpt lat="-2.546066" lon="-78.808174">
        <ele>3174.00</ele>
        <time>2018-09-08T21:58:02Z</time>
      </trkpt>
      <trkpt lat="-2.546067" lon="-78.808167">
        <ele>3174.00</ele>
        <time>2018-09-08T21:58:03Z</time>
      </trkpt>
      <trkpt lat="-2.546067" lon="-78.808167">
        <ele>3174.00</ele>
        <time>2018-09-08T21:58:04Z</time>
      </trkpt>
      <trkpt lat="-2.546069" lon="-78.808167">
        <ele>3174.00</ele>
        <time>2018-09-08T21:58:05Z</time>
      </trkpt>
      <trkpt lat="-2.546073" lon="-78.808167">
        <ele>3174.00</ele>
        <time>2018-09-08T21:58:06Z</time>
      </trkpt>
      <trkpt lat="-2.546073" lon="-78.808167">
        <ele>3174.00</ele>
        <time>2018-09-08T21:58:07Z</time>
      </trkpt>
      <trkpt lat="-2.546074" lon="-78.808159">
        <ele>3174.00</ele>
        <time>2018-09-08T21:58:08Z</time>
      </trkpt>
      <trkpt lat="-2.546076" lon="-78.808159">
        <ele>3174.00</ele>
        <time>2018-09-08T21:58:09Z</time>
      </trkpt>
      <trkpt lat="-2.546080" lon="-78.808151">
        <ele>3174.00</ele>
        <time>2018-09-08T21:58:10Z</time>
      </trkpt>
      <trkpt lat="-2.546086" lon="-78.808144">
        <ele>3174.00</ele>
        <time>2018-09-08T21:58:11Z</time>
      </trkpt>
      <trkpt lat="-2.546089" lon="-78.808136">
        <ele>3173.00</ele>
        <time>2018-09-08T21:58:12Z</time>
      </trkpt>
      <trkpt lat="-2.546096" lon="-78.808121">
        <ele>3173.00</ele>
        <time>2018-09-08T21:58:13Z</time>
      </trkpt>
      <trkpt lat="-2.546099" lon="-78.808121">
        <ele>3173.00</ele>
        <time>2018-09-08T21:58:14Z</time>
      </trkpt>
      <trkpt lat="-2.546104" lon="-78.808113">
        <ele>3173.00</ele>
        <time>2018-09-08T21:58:15Z</time>
      </trkpt>
      <trkpt lat="-2.546108" lon="-78.808113">
        <ele>3173.00</ele>
        <time>2018-09-08T21:58:16Z</time>
      </trkpt>
      <trkpt lat="-2.546121" lon="-78.808098">
        <ele>3173.00</ele>
        <time>2018-09-08T21:58:17Z</time>
      </trkpt>
      <trkpt lat="-2.546135" lon="-78.808090">
        <ele>3173.00</ele>
        <time>2018-09-08T21:58:18Z</time>
      </trkpt>
      <trkpt lat="-2.546166" lon="-78.808067">
        <ele>3173.00</ele>
        <time>2018-09-08T21:58:20Z</time>
      </trkpt>
      <trkpt lat="-2.546181" lon="-78.808052">
        <ele>3173.00</ele>
        <time>2018-09-08T21:58:21Z</time>
      </trkpt>
      <trkpt lat="-2.546196" lon="-78.808044">
        <ele>3173.00</ele>
        <time>2018-09-08T21:58:22Z</time>
      </trkpt>
      <trkpt lat="-2.546210" lon="-78.808029">
        <ele>3173.00</ele>
        <time>2018-09-08T21:58:23Z</time>
      </trkpt>
      <trkpt lat="-2.546219" lon="-78.808006">
        <ele>3173.00</ele>
        <time>2018-09-08T21:58:24Z</time>
      </trkpt>
      <trkpt lat="-2.546229" lon="-78.807991">
        <ele>3173.00</ele>
        <time>2018-09-08T21:58:25Z</time>
      </trkpt>
      <trkpt lat="-2.546237" lon="-78.807968">
        <ele>3173.00</ele>
        <time>2018-09-08T21:58:26Z</time>
      </trkpt>
      <trkpt lat="-2.546246" lon="-78.807945">
        <ele>3173.00</ele>
        <time>2018-09-08T21:58:27Z</time>
      </trkpt>
      <trkpt lat="-2.546252" lon="-78.807922">
        <ele>3173.00</ele>
        <time>2018-09-08T21:58:28Z</time>
      </trkpt>
      <trkpt lat="-2.546255" lon="-78.807892">
        <ele>3173.00</ele>
        <time>2018-09-08T21:58:29Z</time>
      </trkpt>
      <trkpt lat="-2.546257" lon="-78.807869">
        <ele>3173.00</ele>
        <time>2018-09-08T21:58:30Z</time>
      </trkpt>
      <trkpt lat="-2.546261" lon="-78.807846">
        <ele>3173.00</ele>
        <time>2018-09-08T21:58:31Z</time>
      </trkpt>
      <trkpt lat="-2.546265" lon="-78.807831">
        <ele>3173.00</ele>
        <time>2018-09-08T21:58:32Z</time>
      </trkpt>
      <trkpt lat="-2.546270" lon="-78.807816">
        <ele>3173.00</ele>
        <time>2018-09-08T21:58:33Z</time>
      </trkpt>
      <trkpt lat="-2.546274" lon="-78.807808">
        <ele>3173.00</ele>
        <time>2018-09-08T21:58:34Z</time>
      </trkpt>
      <trkpt lat="-2.546276" lon="-78.807785">
        <ele>3173.00</ele>
        <time>2018-09-08T21:58:35Z</time>
      </trkpt>
      <trkpt lat="-2.546281" lon="-78.807777">
        <ele>3173.00</ele>
        <time>2018-09-08T21:58:36Z</time>
      </trkpt>
      <trkpt lat="-2.546285" lon="-78.807762">
        <ele>3173.00</ele>
        <time>2018-09-08T21:58:37Z</time>
      </trkpt>
      <trkpt lat="-2.546287" lon="-78.807732">
        <ele>3173.00</ele>
        <time>2018-09-08T21:58:38Z</time>
      </trkpt>
      <trkpt lat="-2.546285" lon="-78.807716">
        <ele>3173.00</ele>
        <time>2018-09-08T21:58:39Z</time>
      </trkpt>
      <trkpt lat="-2.546283" lon="-78.807686">
        <ele>3173.00</ele>
        <time>2018-09-08T21:58:40Z</time>
      </trkpt>
      <trkpt lat="-2.546281" lon="-78.807671">
        <ele>3173.00</ele>
        <time>2018-09-08T21:58:41Z</time>
      </trkpt>
      <trkpt lat="-2.546275" lon="-78.807648">
        <ele>3173.00</ele>
        <time>2018-09-08T21:58:42Z</time>
      </trkpt>
      <trkpt lat="-2.546265" lon="-78.807594">
        <ele>3173.00</ele>
        <time>2018-09-08T21:58:44Z</time>
      </trkpt>
      <trkpt lat="-2.546261" lon="-78.807571">
        <ele>3173.00</ele>
        <time>2018-09-08T21:58:45Z</time>
      </trkpt>
      <trkpt lat="-2.546256" lon="-78.807556">
        <ele>3173.00</ele>
        <time>2018-09-08T21:58:46Z</time>
      </trkpt>
      <trkpt lat="-2.546253" lon="-78.807549">
        <ele>3173.00</ele>
        <time>2018-09-08T21:58:47Z</time>
      </trkpt>
      <trkpt lat="-2.546250" lon="-78.807526">
        <ele>3173.00</ele>
        <time>2018-09-08T21:58:48Z</time>
      </trkpt>
      <trkpt lat="-2.546246" lon="-78.807518">
        <ele>3173.00</ele>
        <time>2018-09-08T21:58:49Z</time>
      </trkpt>
      <trkpt lat="-2.546243" lon="-78.807518">
        <ele>3173.00</ele>
        <time>2018-09-08T21:58:50Z</time>
      </trkpt>
      <trkpt lat="-2.546242" lon="-78.807518">
        <ele>3173.00</ele>
        <time>2018-09-08T21:58:51Z</time>
      </trkpt>
      <trkpt lat="-2.546242" lon="-78.807518">
        <ele>3173.00</ele>
        <time>2018-09-08T21:58:52Z</time>
      </trkpt>
      <trkpt lat="-2.546242" lon="-78.807518">
        <ele>3173.00</ele>
        <time>2018-09-08T21:58:53Z</time>
      </trkpt>
      <trkpt lat="-2.546241" lon="-78.807518">
        <ele>3173.00</ele>
        <time>2018-09-08T21:58:54Z</time>
      </trkpt>
      <trkpt lat="-2.546241" lon="-78.807518">
        <ele>3173.00</ele>
        <time>2018-09-08T21:58:55Z</time>
      </trkpt>
      <trkpt lat="-2.546241" lon="-78.807518">
        <ele>3173.00</ele>
        <time>2018-09-08T21:58:56Z</time>
      </trkpt>
      <trkpt lat="-2.546240" lon="-78.807518">
        <ele>3173.00</ele>
        <time>2018-09-08T21:58:57Z</time>
      </trkpt>
      <trkpt lat="-2.546239" lon="-78.807510">
        <ele>3173.00</ele>
        <time>2018-09-08T21:58:58Z</time>
      </trkpt>
      <trkpt lat="-2.546239" lon="-78.807503">
        <ele>3173.00</ele>
        <time>2018-09-08T21:58:59Z</time>
      </trkpt>
      <trkpt lat="-2.546241" lon="-78.807495">
        <ele>3173.00</ele>
        <time>2018-09-08T21:59:00Z</time>
      </trkpt>
      <trkpt lat="-2.546241" lon="-78.807495">
        <ele>3173.00</ele>
        <time>2018-09-08T21:59:01Z</time>
      </trkpt>
      <trkpt lat="-2.546242" lon="-78.807495">
        <ele>3173.00</ele>
        <time>2018-09-08T21:59:02Z</time>
      </trkpt>
      <trkpt lat="-2.546241" lon="-78.807487">
        <ele>3173.00</ele>
        <time>2018-09-08T21:59:03Z</time>
      </trkpt>
      <trkpt lat="-2.546242" lon="-78.807487">
        <ele>3173.00</ele>
        <time>2018-09-08T21:59:04Z</time>
      </trkpt>
      <trkpt lat="-2.546244" lon="-78.807472">
        <ele>3173.00</ele>
        <time>2018-09-08T21:59:05Z</time>
      </trkpt>
      <trkpt lat="-2.546245" lon="-78.807472">
        <ele>3173.00</ele>
        <time>2018-09-08T21:59:06Z</time>
      </trkpt>
      <trkpt lat="-2.546247" lon="-78.807465">
        <ele>3173.00</ele>
        <time>2018-09-08T21:59:07Z</time>
      </trkpt>
      <trkpt lat="-2.546350" lon="-78.807358">
        <ele>3165.00</ele>
        <time>2018-09-08T21:59:15Z</time>
      </trkpt>
      <trkpt lat="-2.546273" lon="-78.807343">
        <ele>3168.00</ele>
        <time>2018-09-08T21:59:16Z</time>
      </trkpt>
      <trkpt lat="-2.546291" lon="-78.807304">
        <ele>3172.00</ele>
        <time>2018-09-08T21:59:17Z</time>
      </trkpt>
      <trkpt lat="-2.546303" lon="-78.807281">
        <ele>3171.00</ele>
        <time>2018-09-08T21:59:18Z</time>
      </trkpt>
      <trkpt lat="-2.546329" lon="-78.807274">
        <ele>3169.00</ele>
        <time>2018-09-08T21:59:19Z</time>
      </trkpt>
      <trkpt lat="-2.546346" lon="-78.807274">
        <ele>3157.00</ele>
        <time>2018-09-08T21:59:20Z</time>
      </trkpt>
      <trkpt lat="-2.546349" lon="-78.807274">
        <ele>3159.00</ele>
        <time>2018-09-08T21:59:21Z</time>
      </trkpt>
      <trkpt lat="-2.546345" lon="-78.807243">
        <ele>3165.00</ele>
        <time>2018-09-08T21:59:22Z</time>
      </trkpt>
      <trkpt lat="-2.546353" lon="-78.807228">
        <ele>3167.00</ele>
        <time>2018-09-08T21:59:23Z</time>
      </trkpt>
      <trkpt lat="-2.546363" lon="-78.807198">
        <ele>3168.00</ele>
        <time>2018-09-08T21:59:24Z</time>
      </trkpt>
      <trkpt lat="-2.546374" lon="-78.807167">
        <ele>3170.00</ele>
        <time>2018-09-08T21:59:25Z</time>
      </trkpt>
      <trkpt lat="-2.546381" lon="-78.807137">
        <ele>3172.00</ele>
        <time>2018-09-08T21:59:26Z</time>
      </trkpt>
      <trkpt lat="-2.546389" lon="-78.807121">
        <ele>3172.00</ele>
        <time>2018-09-08T21:59:27Z</time>
      </trkpt>
      <trkpt lat="-2.546405" lon="-78.807114">
        <ele>3173.00</ele>
        <time>2018-09-08T21:59:28Z</time>
      </trkpt>
      <trkpt lat="-2.546417" lon="-78.807106">
        <ele>3173.00</ele>
        <time>2018-09-08T21:59:29Z</time>
      </trkpt>
      <trkpt lat="-2.546429" lon="-78.807091">
        <ele>3173.00</ele>
        <time>2018-09-08T21:59:30Z</time>
      </trkpt>
      <trkpt lat="-2.546444" lon="-78.807091">
        <ele>3174.00</ele>
        <time>2018-09-08T21:59:31Z</time>
      </trkpt>
      <trkpt lat="-2.546454" lon="-78.807091">
        <ele>3174.00</ele>
        <time>2018-09-08T21:59:32Z</time>
      </trkpt>
      <trkpt lat="-2.546464" lon="-78.807091">
        <ele>3173.00</ele>
        <time>2018-09-08T21:59:33Z</time>
      </trkpt>
      <trkpt lat="-2.546471" lon="-78.807091">
        <ele>3173.00</ele>
        <time>2018-09-08T21:59:34Z</time>
      </trkpt>
      <trkpt lat="-2.546471" lon="-78.807091">
        <ele>3172.00</ele>
        <time>2018-09-08T21:59:35Z</time>
      </trkpt>
      <trkpt lat="-2.546470" lon="-78.807091">
        <ele>3172.00</ele>
        <time>2018-09-08T21:59:36Z</time>
      </trkpt>
      <trkpt lat="-2.546469" lon="-78.807091">
        <ele>3172.00</ele>
        <time>2018-09-08T21:59:37Z</time>
      </trkpt>
      <trkpt lat="-2.546468" lon="-78.807091">
        <ele>3172.00</ele>
        <time>2018-09-08T21:59:38Z</time>
      </trkpt>
      <trkpt lat="-2.546468" lon="-78.807091">
        <ele>3172.00</ele>
        <time>2018-09-08T21:59:39Z</time>
      </trkpt>
      <trkpt lat="-2.546468" lon="-78.807106">
        <ele>3172.00</ele>
        <time>2018-09-08T21:59:40Z</time>
      </trkpt>
      <trkpt lat="-2.546468" lon="-78.807106">
        <ele>3172.00</ele>
        <time>2018-09-08T21:59:41Z</time>
      </trkpt>
      <trkpt lat="-2.546468" lon="-78.807106">
        <ele>3172.00</ele>
        <time>2018-09-08T21:59:42Z</time>
      </trkpt>
      <trkpt lat="-2.546468" lon="-78.807106">
        <ele>3172.00</ele>
        <time>2018-09-08T21:59:43Z</time>
      </trkpt>
      <trkpt lat="-2.546468" lon="-78.807106">
        <ele>3172.00</ele>
        <time>2018-09-08T21:59:44Z</time>
      </trkpt>
      <trkpt lat="-2.546468" lon="-78.807106">
        <ele>3173.00</ele>
        <time>2018-09-08T21:59:45Z</time>
      </trkpt>
      <trkpt lat="-2.546468" lon="-78.807106">
        <ele>3173.00</ele>
        <time>2018-09-08T21:59:46Z</time>
      </trkpt>
      <trkpt lat="-2.546468" lon="-78.807106">
        <ele>3173.00</ele>
        <time>2018-09-08T21:59:47Z</time>
      </trkpt>
      <trkpt lat="-2.546468" lon="-78.807106">
        <ele>3173.00</ele>
        <time>2018-09-08T21:59:48Z</time>
      </trkpt>
      <trkpt lat="-2.546468" lon="-78.807106">
        <ele>3173.00</ele>
        <time>2018-09-08T21:59:49Z</time>
      </trkpt>
      <trkpt lat="-2.546486" lon="-78.807106">
        <ele>3173.00</ele>
        <time>2018-09-08T21:59:50Z</time>
      </trkpt>
      <trkpt lat="-2.546486" lon="-78.807106">
        <ele>3173.00</ele>
        <time>2018-09-08T21:59:51Z</time>
      </trkpt>
      <trkpt lat="-2.546486" lon="-78.807106">
        <ele>3173.00</ele>
        <time>2018-09-08T21:59:52Z</time>
      </trkpt>
      <trkpt lat="-2.546486" lon="-78.807106">
        <ele>3173.00</ele>
        <time>2018-09-08T21:59:53Z</time>
      </trkpt>
      <trkpt lat="-2.546486" lon="-78.807106">
        <ele>3173.00</ele>
        <time>2018-09-08T21:59:54Z</time>
      </trkpt>
      <trkpt lat="-2.546486" lon="-78.807106">
        <ele>3173.00</ele>
        <time>2018-09-08T21:59:55Z</time>
      </trkpt>
      <trkpt lat="-2.546486" lon="-78.807106">
        <ele>3173.00</ele>
        <time>2018-09-08T21:59:56Z</time>
      </trkpt>
      <trkpt lat="-2.546486" lon="-78.807106">
        <ele>3173.00</ele>
        <time>2018-09-08T21:59:57Z</time>
      </trkpt>
      <trkpt lat="-2.546486" lon="-78.807106">
        <ele>3173.00</ele>
        <time>2018-09-08T21:59:58Z</time>
      </trkpt>
      <trkpt lat="-2.546486" lon="-78.807106">
        <ele>3173.00</ele>
        <time>2018-09-08T21:59:59Z</time>
      </trkpt>
      <trkpt lat="-2.546486" lon="-78.807106">
        <ele>3173.00</ele>
        <time>2018-09-08T22:00:00Z</time>
      </trkpt>
      <trkpt lat="-2.546486" lon="-78.807106">
        <ele>3173.00</ele>
        <time>2018-09-08T22:00:01Z</time>
      </trkpt>
      <trkpt lat="-2.546486" lon="-78.807106">
        <ele>3173.00</ele>
        <time>2018-09-08T22:00:02Z</time>
      </trkpt>
      <trkpt lat="-2.546486" lon="-78.807106">
        <ele>3173.00</ele>
        <time>2018-09-08T22:00:03Z</time>
      </trkpt>
      <trkpt lat="-2.546486" lon="-78.807106">
        <ele>3173.00</ele>
        <time>2018-09-08T22:00:04Z</time>
      </trkpt>
      <trkpt lat="-2.546486" lon="-78.807106">
        <ele>3173.00</ele>
        <time>2018-09-08T22:00:05Z</time>
      </trkpt>
      <trkpt lat="-2.546486" lon="-78.807106">
        <ele>3173.00</ele>
        <time>2018-09-08T22:00:06Z</time>
      </trkpt>
      <trkpt lat="-2.546486" lon="-78.807106">
        <ele>3174.00</ele>
        <time>2018-09-08T22:00:07Z</time>
      </trkpt>
      <trkpt lat="-2.546486" lon="-78.807106">
        <ele>3174.00</ele>
        <time>2018-09-08T22:00:08Z</time>
      </trkpt>
      <trkpt lat="-2.546486" lon="-78.807106">
        <ele>3174.00</ele>
        <time>2018-09-08T22:00:09Z</time>
      </trkpt>
      <trkpt lat="-2.546487" lon="-78.807106">
        <ele>3174.00</ele>
        <time>2018-09-08T22:00:10Z</time>
      </trkpt>
      <trkpt lat="-2.546486" lon="-78.807106">
        <ele>3174.00</ele>
        <time>2018-09-08T22:00:11Z</time>
      </trkpt>
      <trkpt lat="-2.546486" lon="-78.807106">
        <ele>3174.00</ele>
        <time>2018-09-08T22:00:12Z</time>
      </trkpt>
      <trkpt lat="-2.546485" lon="-78.807106">
        <ele>3174.00</ele>
        <time>2018-09-08T22:00:13Z</time>
      </trkpt>
      <trkpt lat="-2.546485" lon="-78.807106">
        <ele>3174.00</ele>
        <time>2018-09-08T22:00:14Z</time>
      </trkpt>
      <trkpt lat="-2.546485" lon="-78.807106">
        <ele>3174.00</ele>
        <time>2018-09-08T22:00:15Z</time>
      </trkpt>
      <trkpt lat="-2.546485" lon="-78.807106">
        <ele>3174.00</ele>
        <time>2018-09-08T22:00:16Z</time>
      </trkpt>
      <trkpt lat="-2.546485" lon="-78.807106">
        <ele>3174.00</ele>
        <time>2018-09-08T22:00:17Z</time>
      </trkpt>
      <trkpt lat="-2.546485" lon="-78.807106">
        <ele>3174.00</ele>
        <time>2018-09-08T22:00:18Z</time>
      </trkpt>
      <trkpt lat="-2.546485" lon="-78.807106">
        <ele>3174.00</ele>
        <time>2018-09-08T22:00:19Z</time>
      </trkpt>
      <trkpt lat="-2.546485" lon="-78.807106">
        <ele>3174.00</ele>
        <time>2018-09-08T22:00:20Z</time>
      </trkpt>
      <trkpt lat="-2.546485" lon="-78.807106">
        <ele>3174.00</ele>
        <time>2018-09-08T22:00:21Z</time>
      </trkpt>
      <trkpt lat="-2.546484" lon="-78.807106">
        <ele>3174.00</ele>
        <time>2018-09-08T22:00:22Z</time>
      </trkpt>
      <trkpt lat="-2.546484" lon="-78.807106">
        <ele>3174.00</ele>
        <time>2018-09-08T22:00:23Z</time>
      </trkpt>
      <trkpt lat="-2.546484" lon="-78.807106">
        <ele>3174.00</ele>
        <time>2018-09-08T22:00:24Z</time>
      </trkpt>
      <trkpt lat="-2.546483" lon="-78.807106">
        <ele>3174.00</ele>
        <time>2018-09-08T22:00:25Z</time>
      </trkpt>
      <trkpt lat="-2.546482" lon="-78.807106">
        <ele>3174.00</ele>
        <time>2018-09-08T22:00:26Z</time>
      </trkpt>
      <trkpt lat="-2.546482" lon="-78.807114">
        <ele>3174.00</ele>
        <time>2018-09-08T22:00:27Z</time>
      </trkpt>
      <trkpt lat="-2.546481" lon="-78.807114">
        <ele>3174.00</ele>
        <time>2018-09-08T22:00:28Z</time>
      </trkpt>
      <trkpt lat="-2.546481" lon="-78.807114">
        <ele>3174.00</ele>
        <time>2018-09-08T22:00:29Z</time>
      </trkpt>
      <trkpt lat="-2.546480" lon="-78.807114">
        <ele>3174.00</ele>
        <time>2018-09-08T22:00:30Z</time>
      </trkpt>
      <trkpt lat="-2.546480" lon="-78.807106">
        <ele>3174.00</ele>
        <time>2018-09-08T22:00:31Z</time>
      </trkpt>
      <trkpt lat="-2.546480" lon="-78.807106">
        <ele>3174.00</ele>
        <time>2018-09-08T22:00:32Z</time>
      </trkpt>
      <trkpt lat="-2.546480" lon="-78.807114">
        <ele>3174.00</ele>
        <time>2018-09-08T22:00:33Z</time>
      </trkpt>
      <trkpt lat="-2.546480" lon="-78.807114">
        <ele>3174.00</ele>
        <time>2018-09-08T22:00:34Z</time>
      </trkpt>
      <trkpt lat="-2.546480" lon="-78.807114">
        <ele>3174.00</ele>
        <time>2018-09-08T22:00:35Z</time>
      </trkpt>
      <trkpt lat="-2.546479" lon="-78.807114">
        <ele>3174.00</ele>
        <time>2018-09-08T22:00:36Z</time>
      </trkpt>
      <trkpt lat="-2.546479" lon="-78.807114">
        <ele>3174.00</ele>
        <time>2018-09-08T22:00:37Z</time>
      </trkpt>
      <trkpt lat="-2.546479" lon="-78.807114">
        <ele>3174.00</ele>
        <time>2018-09-08T22:00:38Z</time>
      </trkpt>
      <trkpt lat="-2.546479" lon="-78.807114">
        <ele>3174.00</ele>
        <time>2018-09-08T22:00:39Z</time>
      </trkpt>
      <trkpt lat="-2.546480" lon="-78.807114">
        <ele>3174.00</ele>
        <time>2018-09-08T22:00:40Z</time>
      </trkpt>
      <trkpt lat="-2.546480" lon="-78.807114">
        <ele>3174.00</ele>
        <time>2018-09-08T22:00:41Z</time>
      </trkpt>
      <trkpt lat="-2.546480" lon="-78.807114">
        <ele>3174.00</ele>
        <time>2018-09-08T22:00:42Z</time>
      </trkpt>
      <trkpt lat="-2.546480" lon="-78.807114">
        <ele>3174.00</ele>
        <time>2018-09-08T22:00:43Z</time>
      </trkpt>
      <trkpt lat="-2.546481" lon="-78.807114">
        <ele>3174.00</ele>
        <time>2018-09-08T22:00:44Z</time>
      </trkpt>
      <trkpt lat="-2.546481" lon="-78.807114">
        <ele>3174.00</ele>
        <time>2018-09-08T22:00:45Z</time>
      </trkpt>
      <trkpt lat="-2.546480" lon="-78.807114">
        <ele>3174.00</ele>
        <time>2018-09-08T22:00:46Z</time>
      </trkpt>
      <trkpt lat="-2.546485" lon="-78.807114">
        <ele>3174.00</ele>
        <time>2018-09-08T22:00:47Z</time>
      </trkpt>
      <trkpt lat="-2.546503" lon="-78.807106">
        <ele>3174.00</ele>
        <time>2018-09-08T22:00:48Z</time>
      </trkpt>
      <trkpt lat="-2.546526" lon="-78.807083">
        <ele>3174.00</ele>
        <time>2018-09-08T22:00:49Z</time>
      </trkpt>
      <trkpt lat="-2.546544" lon="-78.807076">
        <ele>3174.00</ele>
        <time>2018-09-08T22:00:50Z</time>
      </trkpt>
      <trkpt lat="-2.546548" lon="-78.807076">
        <ele>3174.00</ele>
        <time>2018-09-08T22:00:51Z</time>
      </trkpt>
      <trkpt lat="-2.546551" lon="-78.807068">
        <ele>3174.00</ele>
        <time>2018-09-08T22:00:52Z</time>
      </trkpt>
      <trkpt lat="-2.546555" lon="-78.807068">
        <ele>3174.00</ele>
        <time>2018-09-08T22:00:53Z</time>
      </trkpt>
      <trkpt lat="-2.546556" lon="-78.807068">
        <ele>3174.00</ele>
        <time>2018-09-08T22:00:54Z</time>
      </trkpt>
      <trkpt lat="-2.546556" lon="-78.807068">
        <ele>3174.00</ele>
        <time>2018-09-08T22:00:55Z</time>
      </trkpt>
      <trkpt lat="-2.546556" lon="-78.807068">
        <ele>3174.00</ele>
        <time>2018-09-08T22:00:56Z</time>
      </trkpt>
      <trkpt lat="-2.546557" lon="-78.807068">
        <ele>3174.00</ele>
        <time>2018-09-08T22:00:57Z</time>
      </trkpt>
      <trkpt lat="-2.546557" lon="-78.807068">
        <ele>3174.00</ele>
        <time>2018-09-08T22:00:58Z</time>
      </trkpt>
      <trkpt lat="-2.546558" lon="-78.807068">
        <ele>3174.00</ele>
        <time>2018-09-08T22:00:59Z</time>
      </trkpt>
      <trkpt lat="-2.546558" lon="-78.807068">
        <ele>3174.00</ele>
        <time>2018-09-08T22:01:00Z</time>
      </trkpt>
      <trkpt lat="-2.546559" lon="-78.807060">
        <ele>3174.00</ele>
        <time>2018-09-08T22:01:01Z</time>
      </trkpt>
      <trkpt lat="-2.546559" lon="-78.807060">
        <ele>3174.00</ele>
        <time>2018-09-08T22:01:02Z</time>
      </trkpt>
      <trkpt lat="-2.546559" lon="-78.807060">
        <ele>3174.00</ele>
        <time>2018-09-08T22:01:03Z</time>
      </trkpt>
      <trkpt lat="-2.546560" lon="-78.807060">
        <ele>3174.00</ele>
        <time>2018-09-08T22:01:04Z</time>
      </trkpt>
      <trkpt lat="-2.546561" lon="-78.807060">
        <ele>3174.00</ele>
        <time>2018-09-08T22:01:05Z</time>
      </trkpt>
      <trkpt lat="-2.546561" lon="-78.807060">
        <ele>3174.00</ele>
        <time>2018-09-08T22:01:06Z</time>
      </trkpt>
      <trkpt lat="-2.546561" lon="-78.807060">
        <ele>3174.00</ele>
        <time>2018-09-08T22:01:07Z</time>
      </trkpt>
      <trkpt lat="-2.546561" lon="-78.807060">
        <ele>3174.00</ele>
        <time>2018-09-08T22:01:08Z</time>
      </trkpt>
      <trkpt lat="-2.546561" lon="-78.807060">
        <ele>3174.00</ele>
        <time>2018-09-08T22:01:09Z</time>
      </trkpt>
      <trkpt lat="-2.546562" lon="-78.807060">
        <ele>3174.00</ele>
        <time>2018-09-08T22:01:10Z</time>
      </trkpt>
      <trkpt lat="-2.546562" lon="-78.807060">
        <ele>3174.00</ele>
        <time>2018-09-08T22:01:11Z</time>
      </trkpt>
      <trkpt lat="-2.546563" lon="-78.807060">
        <ele>3174.00</ele>
        <time>2018-09-08T22:01:12Z</time>
      </trkpt>
      <trkpt lat="-2.546564" lon="-78.807060">
        <ele>3174.00</ele>
        <time>2018-09-08T22:01:13Z</time>
      </trkpt>
      <trkpt lat="-2.546564" lon="-78.807060">
        <ele>3174.00</ele>
        <time>2018-09-08T22:01:14Z</time>
      </trkpt>
      <trkpt lat="-2.546564" lon="-78.807060">
        <ele>3174.00</ele>
        <time>2018-09-08T22:01:15Z</time>
      </trkpt>
      <trkpt lat="-2.546565" lon="-78.807060">
        <ele>3174.00</ele>
        <time>2018-09-08T22:01:16Z</time>
      </trkpt>
      <trkpt lat="-2.546565" lon="-78.807060">
        <ele>3174.00</ele>
        <time>2018-09-08T22:01:17Z</time>
      </trkpt>
      <trkpt lat="-2.546566" lon="-78.807060">
        <ele>3174.00</ele>
        <time>2018-09-08T22:01:18Z</time>
      </trkpt>
      <trkpt lat="-2.546566" lon="-78.807060">
        <ele>3174.00</ele>
        <time>2018-09-08T22:01:19Z</time>
      </trkpt>
      <trkpt lat="-2.546566" lon="-78.807060">
        <ele>3174.00</ele>
        <time>2018-09-08T22:01:20Z</time>
      </trkpt>
      <trkpt lat="-2.546567" lon="-78.807060">
        <ele>3174.00</ele>
        <time>2018-09-08T22:01:21Z</time>
      </trkpt>
      <trkpt lat="-2.546568" lon="-78.807060">
        <ele>3174.00</ele>
        <time>2018-09-08T22:01:22Z</time>
      </trkpt>
      <trkpt lat="-2.546569" lon="-78.807060">
        <ele>3174.00</ele>
        <time>2018-09-08T22:01:23Z</time>
      </trkpt>
      <trkpt lat="-2.546570" lon="-78.807060">
        <ele>3174.00</ele>
        <time>2018-09-08T22:01:24Z</time>
      </trkpt>
      <trkpt lat="-2.546570" lon="-78.807060">
        <ele>3174.00</ele>
        <time>2018-09-08T22:01:25Z</time>
      </trkpt>
      <trkpt lat="-2.546572" lon="-78.807060">
        <ele>3174.00</ele>
        <time>2018-09-08T22:01:26Z</time>
      </trkpt>
      <trkpt lat="-2.546575" lon="-78.807060">
        <ele>3174.00</ele>
        <time>2018-09-08T22:01:27Z</time>
      </trkpt>
      <trkpt lat="-2.546575" lon="-78.807060">
        <ele>3174.00</ele>
        <time>2018-09-08T22:01:28Z</time>
      </trkpt>
      <trkpt lat="-2.546575" lon="-78.807060">
        <ele>3174.00</ele>
        <time>2018-09-08T22:01:29Z</time>
      </trkpt>
      <trkpt lat="-2.546575" lon="-78.807053">
        <ele>3174.00</ele>
        <time>2018-09-08T22:01:30Z</time>
      </trkpt>
      <trkpt lat="-2.546577" lon="-78.807053">
        <ele>3174.00</ele>
        <time>2018-09-08T22:01:31Z</time>
      </trkpt>
      <trkpt lat="-2.546572" lon="-78.807060">
        <ele>3174.00</ele>
        <time>2018-09-08T22:01:32Z</time>
      </trkpt>
      <trkpt lat="-2.546559" lon="-78.807068">
        <ele>3174.00</ele>
        <time>2018-09-08T22:01:33Z</time>
      </trkpt>
      <trkpt lat="-2.546549" lon="-78.807068">
        <ele>3174.00</ele>
        <time>2018-09-08T22:01:34Z</time>
      </trkpt>
      <trkpt lat="-2.546537" lon="-78.807076">
        <ele>3174.00</ele>
        <time>2018-09-08T22:01:35Z</time>
      </trkpt>
      <trkpt lat="-2.546526" lon="-78.807068">
        <ele>3174.00</ele>
        <time>2018-09-08T22:01:36Z</time>
      </trkpt>
      <trkpt lat="-2.546519" lon="-78.807068">
        <ele>3174.00</ele>
        <time>2018-09-08T22:01:37Z</time>
      </trkpt>
      <trkpt lat="-2.546515" lon="-78.807068">
        <ele>3174.00</ele>
        <time>2018-09-08T22:01:38Z</time>
      </trkpt>
      <trkpt lat="-2.546515" lon="-78.807068">
        <ele>3174.00</ele>
        <time>2018-09-08T22:01:39Z</time>
      </trkpt>
      <trkpt lat="-2.546514" lon="-78.807068">
        <ele>3174.00</ele>
        <time>2018-09-08T22:01:40Z</time>
      </trkpt>
      <trkpt lat="-2.546515" lon="-78.807068">
        <ele>3174.00</ele>
        <time>2018-09-08T22:01:41Z</time>
      </trkpt>
      <trkpt lat="-2.546517" lon="-78.807076">
        <ele>3174.00</ele>
        <time>2018-09-08T22:01:42Z</time>
      </trkpt>
      <trkpt lat="-2.546525" lon="-78.807106">
        <ele>3174.00</ele>
        <time>2018-09-08T22:01:43Z</time>
      </trkpt>
      <trkpt lat="-2.546527" lon="-78.807175">
        <ele>3174.00</ele>
        <time>2018-09-08T22:01:44Z</time>
      </trkpt>
      <trkpt lat="-2.546527" lon="-78.807274">
        <ele>3174.00</ele>
        <time>2018-09-08T22:01:45Z</time>
      </trkpt>
      <trkpt lat="-2.546533" lon="-78.807365">
        <ele>3174.00</ele>
        <time>2018-09-08T22:01:46Z</time>
      </trkpt>
      <trkpt lat="-2.546547" lon="-78.807457">
        <ele>3174.00</ele>
        <time>2018-09-08T22:01:47Z</time>
      </trkpt>
      <trkpt lat="-2.546577" lon="-78.807549">
        <ele>3174.00</ele>
        <time>2018-09-08T22:01:48Z</time>
      </trkpt>
      <trkpt lat="-2.546620" lon="-78.807625">
        <ele>3174.00</ele>
        <time>2018-09-08T22:01:49Z</time>
      </trkpt>
      <trkpt lat="-2.546680" lon="-78.807709">
        <ele>3174.00</ele>
        <time>2018-09-08T22:01:50Z</time>
      </trkpt>
      <trkpt lat="-2.546747" lon="-78.807785">
        <ele>3174.00</ele>
        <time>2018-09-08T22:01:51Z</time>
      </trkpt>
      <trkpt lat="-2.546806" lon="-78.807869">
        <ele>3174.00</ele>
        <time>2018-09-08T22:01:52Z</time>
      </trkpt>
      <trkpt lat="-2.546865" lon="-78.807945">
        <ele>3175.00</ele>
        <time>2018-09-08T22:01:53Z</time>
      </trkpt>
      <trkpt lat="-2.546930" lon="-78.808029">
        <ele>3175.00</ele>
        <time>2018-09-08T22:01:54Z</time>
      </trkpt>
      <trkpt lat="-2.547004" lon="-78.808105">
        <ele>3175.00</ele>
        <time>2018-09-08T22:01:55Z</time>
      </trkpt>
      <trkpt lat="-2.547079" lon="-78.808174">
        <ele>3175.00</ele>
        <time>2018-09-08T22:01:56Z</time>
      </trkpt>
      <trkpt lat="-2.547136" lon="-78.808243">
        <ele>3175.00</ele>
        <time>2018-09-08T22:01:57Z</time>
      </trkpt>
      <trkpt lat="-2.547182" lon="-78.808296">
        <ele>3175.00</ele>
        <time>2018-09-08T22:01:58Z</time>
      </trkpt>
      <trkpt lat="-2.547217" lon="-78.808334">
        <ele>3176.00</ele>
        <time>2018-09-08T22:01:59Z</time>
      </trkpt>
      <trkpt lat="-2.547253" lon="-78.808372">
        <ele>3176.00</ele>
        <time>2018-09-08T22:02:00Z</time>
      </trkpt>
      <trkpt lat="-2.547290" lon="-78.808418">
        <ele>3176.00</ele>
        <time>2018-09-08T22:02:01Z</time>
      </trkpt>
      <trkpt lat="-2.547327" lon="-78.808456">
        <ele>3177.00</ele>
        <time>2018-09-08T22:02:02Z</time>
      </trkpt>
      <trkpt lat="-2.547361" lon="-78.808487">
        <ele>3177.00</ele>
        <time>2018-09-08T22:02:03Z</time>
      </trkpt>
      <trkpt lat="-2.547392" lon="-78.808525">
        <ele>3177.00</ele>
        <time>2018-09-08T22:02:04Z</time>
      </trkpt>
      <trkpt lat="-2.547421" lon="-78.808548">
        <ele>3177.00</ele>
        <time>2018-09-08T22:02:05Z</time>
      </trkpt>
      <trkpt lat="-2.547447" lon="-78.808578">
        <ele>3177.00</ele>
        <time>2018-09-08T22:02:06Z</time>
      </trkpt>
      <trkpt lat="-2.547474" lon="-78.808594">
        <ele>3177.00</ele>
        <time>2018-09-08T22:02:07Z</time>
      </trkpt>
      <trkpt lat="-2.547498" lon="-78.808624">
        <ele>3177.00</ele>
        <time>2018-09-08T22:02:08Z</time>
      </trkpt>
      <trkpt lat="-2.547520" lon="-78.808647">
        <ele>3177.00</ele>
        <time>2018-09-08T22:02:09Z</time>
      </trkpt>
      <trkpt lat="-2.547544" lon="-78.808678">
        <ele>3177.00</ele>
        <time>2018-09-08T22:02:10Z</time>
      </trkpt>
      <trkpt lat="-2.547569" lon="-78.808693">
        <ele>3177.00</ele>
        <time>2018-09-08T22:02:11Z</time>
      </trkpt>
      <trkpt lat="-2.547595" lon="-78.808723">
        <ele>3178.00</ele>
        <time>2018-09-08T22:02:12Z</time>
      </trkpt>
      <trkpt lat="-2.547620" lon="-78.808739">
        <ele>3178.00</ele>
        <time>2018-09-08T22:02:13Z</time>
      </trkpt>
      <trkpt lat="-2.547646" lon="-78.808762">
        <ele>3178.00</ele>
        <time>2018-09-08T22:02:14Z</time>
      </trkpt>
      <trkpt lat="-2.547674" lon="-78.808792">
        <ele>3179.00</ele>
        <time>2018-09-08T22:02:15Z</time>
      </trkpt>
      <trkpt lat="-2.547705" lon="-78.808815">
        <ele>3180.00</ele>
        <time>2018-09-08T22:02:16Z</time>
      </trkpt>
      <trkpt lat="-2.547735" lon="-78.808846">
        <ele>3181.00</ele>
        <time>2018-09-08T22:02:17Z</time>
      </trkpt>
      <trkpt lat="-2.547761" lon="-78.808868">
        <ele>3181.00</ele>
        <time>2018-09-08T22:02:18Z</time>
      </trkpt>
      <trkpt lat="-2.547785" lon="-78.808899">
        <ele>3181.00</ele>
        <time>2018-09-08T22:02:19Z</time>
      </trkpt>
      <trkpt lat="-2.547816" lon="-78.808922">
        <ele>3182.00</ele>
        <time>2018-09-08T22:02:20Z</time>
      </trkpt>
      <trkpt lat="-2.547857" lon="-78.808952">
        <ele>3183.00</ele>
        <time>2018-09-08T22:02:21Z</time>
      </trkpt>
      <trkpt lat="-2.547892" lon="-78.808968">
        <ele>3183.00</ele>
        <time>2018-09-08T22:02:22Z</time>
      </trkpt>
      <trkpt lat="-2.547924" lon="-78.808990">
        <ele>3184.00</ele>
        <time>2018-09-08T22:02:23Z</time>
      </trkpt>
      <trkpt lat="-2.547956" lon="-78.809006">
        <ele>3184.00</ele>
        <time>2018-09-08T22:02:24Z</time>
      </trkpt>
      <trkpt lat="-2.547987" lon="-78.809021">
        <ele>3185.00</ele>
        <time>2018-09-08T22:02:25Z</time>
      </trkpt>
      <trkpt lat="-2.548026" lon="-78.809052">
        <ele>3186.00</ele>
        <time>2018-09-08T22:02:26Z</time>
      </trkpt>
      <trkpt lat="-2.548063" lon="-78.809059">
        <ele>3186.00</ele>
        <time>2018-09-08T22:02:27Z</time>
      </trkpt>
      <trkpt lat="-2.548098" lon="-78.809074">
        <ele>3187.00</ele>
        <time>2018-09-08T22:02:28Z</time>
      </trkpt>
      <trkpt lat="-2.548137" lon="-78.809090">
        <ele>3188.00</ele>
        <time>2018-09-08T22:02:29Z</time>
      </trkpt>
      <trkpt lat="-2.548181" lon="-78.809113">
        <ele>3189.00</ele>
        <time>2018-09-08T22:02:30Z</time>
      </trkpt>
      <trkpt lat="-2.548225" lon="-78.809128">
        <ele>3189.00</ele>
        <time>2018-09-08T22:02:31Z</time>
      </trkpt>
      <trkpt lat="-2.548261" lon="-78.809143">
        <ele>3190.00</ele>
        <time>2018-09-08T22:02:32Z</time>
      </trkpt>
      <trkpt lat="-2.548297" lon="-78.809166">
        <ele>3191.00</ele>
        <time>2018-09-08T22:02:33Z</time>
      </trkpt>
      <trkpt lat="-2.548337" lon="-78.809181">
        <ele>3191.00</ele>
        <time>2018-09-08T22:02:34Z</time>
      </trkpt>
      <trkpt lat="-2.548376" lon="-78.809189">
        <ele>3192.00</ele>
        <time>2018-09-08T22:02:35Z</time>
      </trkpt>
      <trkpt lat="-2.548418" lon="-78.809212">
        <ele>3192.00</ele>
        <time>2018-09-08T22:02:36Z</time>
      </trkpt>
      <trkpt lat="-2.548460" lon="-78.809219">
        <ele>3192.00</ele>
        <time>2018-09-08T22:02:37Z</time>
      </trkpt>
      <trkpt lat="-2.548498" lon="-78.809227">
        <ele>3193.00</ele>
        <time>2018-09-08T22:02:38Z</time>
      </trkpt>
      <trkpt lat="-2.548539" lon="-78.809235">
        <ele>3193.00</ele>
        <time>2018-09-08T22:02:39Z</time>
      </trkpt>
      <trkpt lat="-2.548581" lon="-78.809235">
        <ele>3194.00</ele>
        <time>2018-09-08T22:02:40Z</time>
      </trkpt>
      <trkpt lat="-2.548626" lon="-78.809242">
        <ele>3194.00</ele>
        <time>2018-09-08T22:02:41Z</time>
      </trkpt>
      <trkpt lat="-2.548675" lon="-78.809250">
        <ele>3195.00</ele>
        <time>2018-09-08T22:02:42Z</time>
      </trkpt>
      <trkpt lat="-2.548716" lon="-78.809273">
        <ele>3196.00</ele>
        <time>2018-09-08T22:02:43Z</time>
      </trkpt>
      <trkpt lat="-2.548754" lon="-78.809288">
        <ele>3196.00</ele>
        <time>2018-09-08T22:02:44Z</time>
      </trkpt>
      <trkpt lat="-2.548785" lon="-78.809319">
        <ele>3197.00</ele>
        <time>2018-09-08T22:02:45Z</time>
      </trkpt>
      <trkpt lat="-2.548816" lon="-78.809349">
        <ele>3198.00</ele>
        <time>2018-09-08T22:02:46Z</time>
      </trkpt>
      <trkpt lat="-2.548844" lon="-78.809395">
        <ele>3198.00</ele>
        <time>2018-09-08T22:02:47Z</time>
      </trkpt>
      <trkpt lat="-2.548865" lon="-78.809433">
        <ele>3199.00</ele>
        <time>2018-09-08T22:02:48Z</time>
      </trkpt>
      <trkpt lat="-2.548889" lon="-78.809479">
        <ele>3199.00</ele>
        <time>2018-09-08T22:02:49Z</time>
      </trkpt>
      <trkpt lat="-2.548917" lon="-78.809509">
        <ele>3199.00</ele>
        <time>2018-09-08T22:02:50Z</time>
      </trkpt>
      <trkpt lat="-2.548940" lon="-78.809547">
        <ele>3200.00</ele>
        <time>2018-09-08T22:02:51Z</time>
      </trkpt>
      <trkpt lat="-2.548964" lon="-78.809593">
        <ele>3200.00</ele>
        <time>2018-09-08T22:02:52Z</time>
      </trkpt>
      <trkpt lat="-2.548984" lon="-78.809624">
        <ele>3200.00</ele>
        <time>2018-09-08T22:02:53Z</time>
      </trkpt>
      <trkpt lat="-2.549009" lon="-78.809662">
        <ele>3200.00</ele>
        <time>2018-09-08T22:02:54Z</time>
      </trkpt>
      <trkpt lat="-2.549046" lon="-78.809715">
        <ele>3201.00</ele>
        <time>2018-09-08T22:02:55Z</time>
      </trkpt>
      <trkpt lat="-2.549085" lon="-78.809761">
        <ele>3201.00</ele>
        <time>2018-09-08T22:02:56Z</time>
      </trkpt>
      <trkpt lat="-2.549135" lon="-78.809814">
        <ele>3201.00</ele>
        <time>2018-09-08T22:02:57Z</time>
      </trkpt>
      <trkpt lat="-2.549211" lon="-78.809860">
        <ele>3201.00</ele>
        <time>2018-09-08T22:02:58Z</time>
      </trkpt>
      <trkpt lat="-2.549306" lon="-78.809914">
        <ele>3202.00</ele>
        <time>2018-09-08T22:02:59Z</time>
      </trkpt>
      <trkpt lat="-2.549423" lon="-78.809944">
        <ele>3202.00</ele>
        <time>2018-09-08T22:03:00Z</time>
      </trkpt>
      <trkpt lat="-2.549519" lon="-78.809982">
        <ele>3202.00</ele>
        <time>2018-09-08T22:03:01Z</time>
      </trkpt>
      <trkpt lat="-2.549599" lon="-78.810020">
        <ele>3202.00</ele>
        <time>2018-09-08T22:03:02Z</time>
      </trkpt>
      <trkpt lat="-2.549667" lon="-78.810059">
        <ele>3203.00</ele>
        <time>2018-09-08T22:03:03Z</time>
      </trkpt>
      <trkpt lat="-2.549744" lon="-78.810104">
        <ele>3203.00</ele>
        <time>2018-09-08T22:03:04Z</time>
      </trkpt>
      <trkpt lat="-2.549839" lon="-78.810143">
        <ele>3203.00</ele>
        <time>2018-09-08T22:03:05Z</time>
      </trkpt>
      <trkpt lat="-2.549939" lon="-78.810196">
        <ele>3203.00</ele>
        <time>2018-09-08T22:03:06Z</time>
      </trkpt>
      <trkpt lat="-2.550029" lon="-78.810272">
        <ele>3203.00</ele>
        <time>2018-09-08T22:03:07Z</time>
      </trkpt>
      <trkpt lat="-2.550102" lon="-78.810379">
        <ele>3204.00</ele>
        <time>2018-09-08T22:03:08Z</time>
      </trkpt>
      <trkpt lat="-2.550166" lon="-78.810478">
        <ele>3204.00</ele>
        <time>2018-09-08T22:03:09Z</time>
      </trkpt>
      <trkpt lat="-2.550225" lon="-78.810585">
        <ele>3204.00</ele>
        <time>2018-09-08T22:03:10Z</time>
      </trkpt>
      <trkpt lat="-2.550281" lon="-78.810677">
        <ele>3204.00</ele>
        <time>2018-09-08T22:03:11Z</time>
      </trkpt>
      <trkpt lat="-2.550345" lon="-78.810768">
        <ele>3204.00</ele>
        <time>2018-09-08T22:03:12Z</time>
      </trkpt>
      <trkpt lat="-2.550424" lon="-78.810860">
        <ele>3204.00</ele>
        <time>2018-09-08T22:03:13Z</time>
      </trkpt>
      <trkpt lat="-2.550502" lon="-78.810959">
        <ele>3204.00</ele>
        <time>2018-09-08T22:03:14Z</time>
      </trkpt>
      <trkpt lat="-2.550565" lon="-78.811050">
        <ele>3204.00</ele>
        <time>2018-09-08T22:03:15Z</time>
      </trkpt>
      <trkpt lat="-2.550632" lon="-78.811119">
        <ele>3204.00</ele>
        <time>2018-09-08T22:03:16Z</time>
      </trkpt>
      <trkpt lat="-2.550722" lon="-78.811188">
        <ele>3204.00</ele>
        <time>2018-09-08T22:03:17Z</time>
      </trkpt>
      <trkpt lat="-2.550819" lon="-78.811264">
        <ele>3204.00</ele>
        <time>2018-09-08T22:03:18Z</time>
      </trkpt>
      <trkpt lat="-2.550913" lon="-78.811333">
        <ele>3203.00</ele>
        <time>2018-09-08T22:03:19Z</time>
      </trkpt>
      <trkpt lat="-2.550992" lon="-78.811394">
        <ele>3203.00</ele>
        <time>2018-09-08T22:03:20Z</time>
      </trkpt>
      <trkpt lat="-2.551058" lon="-78.811440">
        <ele>3202.00</ele>
        <time>2018-09-08T22:03:21Z</time>
      </trkpt>
      <trkpt lat="-2.551129" lon="-78.811478">
        <ele>3202.00</ele>
        <time>2018-09-08T22:03:22Z</time>
      </trkpt>
      <trkpt lat="-2.551201" lon="-78.811485">
        <ele>3201.00</ele>
        <time>2018-09-08T22:03:23Z</time>
      </trkpt>
      <trkpt lat="-2.551268" lon="-78.811493">
        <ele>3201.00</ele>
        <time>2018-09-08T22:03:24Z</time>
      </trkpt>
      <trkpt lat="-2.551324" lon="-78.811523">
        <ele>3201.00</ele>
        <time>2018-09-08T22:03:25Z</time>
      </trkpt>
      <trkpt lat="-2.551360" lon="-78.811577">
        <ele>3201.00</ele>
        <time>2018-09-08T22:03:26Z</time>
      </trkpt>
      <trkpt lat="-2.551367" lon="-78.811653">
        <ele>3200.00</ele>
        <time>2018-09-08T22:03:27Z</time>
      </trkpt>
      <trkpt lat="-2.551374" lon="-78.811737">
        <ele>3200.00</ele>
        <time>2018-09-08T22:03:28Z</time>
      </trkpt>
      <trkpt lat="-2.551397" lon="-78.811806">
        <ele>3200.00</ele>
        <time>2018-09-08T22:03:29Z</time>
      </trkpt>
      <trkpt lat="-2.551450" lon="-78.811867">
        <ele>3200.00</ele>
        <time>2018-09-08T22:03:30Z</time>
      </trkpt>
      <trkpt lat="-2.551525" lon="-78.811928">
        <ele>3200.00</ele>
        <time>2018-09-08T22:03:31Z</time>
      </trkpt>
      <trkpt lat="-2.551607" lon="-78.812012">
        <ele>3200.00</ele>
        <time>2018-09-08T22:03:32Z</time>
      </trkpt>
      <trkpt lat="-2.551689" lon="-78.812096">
        <ele>3200.00</ele>
        <time>2018-09-08T22:03:33Z</time>
      </trkpt>
      <trkpt lat="-2.551768" lon="-78.812187">
        <ele>3200.00</ele>
        <time>2018-09-08T22:03:34Z</time>
      </trkpt>
      <trkpt lat="-2.551847" lon="-78.812263">
        <ele>3200.00</ele>
        <time>2018-09-08T22:03:35Z</time>
      </trkpt>
      <trkpt lat="-2.551915" lon="-78.812363">
        <ele>3199.00</ele>
        <time>2018-09-08T22:03:36Z</time>
      </trkpt>
      <trkpt lat="-2.551959" lon="-78.812462">
        <ele>3199.00</ele>
        <time>2018-09-08T22:03:37Z</time>
      </trkpt>
      <trkpt lat="-2.551999" lon="-78.812561">
        <ele>3199.00</ele>
        <time>2018-09-08T22:03:38Z</time>
      </trkpt>
      <trkpt lat="-2.552041" lon="-78.812653">
        <ele>3199.00</ele>
        <time>2018-09-08T22:03:39Z</time>
      </trkpt>
      <trkpt lat="-2.552079" lon="-78.812737">
        <ele>3198.00</ele>
        <time>2018-09-08T22:03:40Z</time>
      </trkpt>
      <trkpt lat="-2.552087" lon="-78.812828">
        <ele>3198.00</ele>
        <time>2018-09-08T22:03:41Z</time>
      </trkpt>
      <trkpt lat="-2.552093" lon="-78.812904">
        <ele>3198.00</ele>
        <time>2018-09-08T22:03:42Z</time>
      </trkpt>
      <trkpt lat="-2.552045" lon="-78.813004">
        <ele>3198.00</ele>
        <time>2018-09-08T22:03:43Z</time>
      </trkpt>
      <trkpt lat="-2.551979" lon="-78.813110">
        <ele>3197.00</ele>
        <time>2018-09-08T22:03:44Z</time>
      </trkpt>
      <trkpt lat="-2.551917" lon="-78.813194">
        <ele>3197.00</ele>
        <time>2018-09-08T22:03:45Z</time>
      </trkpt>
      <trkpt lat="-2.551875" lon="-78.813263">
        <ele>3197.00</ele>
        <time>2018-09-08T22:03:46Z</time>
      </trkpt>
      <trkpt lat="-2.551842" lon="-78.813332">
        <ele>3196.00</ele>
        <time>2018-09-08T22:03:47Z</time>
      </trkpt>
      <trkpt lat="-2.551809" lon="-78.813408">
        <ele>3196.00</ele>
        <time>2018-09-08T22:03:48Z</time>
      </trkpt>
      <trkpt lat="-2.551775" lon="-78.813484">
        <ele>3195.00</ele>
        <time>2018-09-08T22:03:49Z</time>
      </trkpt>
      <trkpt lat="-2.551729" lon="-78.813576">
        <ele>3195.00</ele>
        <time>2018-09-08T22:03:50Z</time>
      </trkpt>
      <trkpt lat="-2.551669" lon="-78.813637">
        <ele>3195.00</ele>
        <time>2018-09-08T22:03:51Z</time>
      </trkpt>
      <trkpt lat="-2.551599" lon="-78.813690">
        <ele>3194.00</ele>
        <time>2018-09-08T22:03:52Z</time>
      </trkpt>
      <trkpt lat="-2.551523" lon="-78.813736">
        <ele>3194.00</ele>
        <time>2018-09-08T22:03:53Z</time>
      </trkpt>
      <trkpt lat="-2.551436" lon="-78.813789">
        <ele>3194.00</ele>
        <time>2018-09-08T22:03:54Z</time>
      </trkpt>
      <trkpt lat="-2.551345" lon="-78.813843">
        <ele>3193.00</ele>
        <time>2018-09-08T22:03:55Z</time>
      </trkpt>
      <trkpt lat="-2.551250" lon="-78.813904">
        <ele>3193.00</ele>
        <time>2018-09-08T22:03:56Z</time>
      </trkpt>
      <trkpt lat="-2.551158" lon="-78.813957">
        <ele>3193.00</ele>
        <time>2018-09-08T22:03:57Z</time>
      </trkpt>
      <trkpt lat="-2.551061" lon="-78.814011">
        <ele>3192.00</ele>
        <time>2018-09-08T22:03:58Z</time>
      </trkpt>
      <trkpt lat="-2.550960" lon="-78.814056">
        <ele>3192.00</ele>
        <time>2018-09-08T22:03:59Z</time>
      </trkpt>
      <trkpt lat="-2.550854" lon="-78.814125">
        <ele>3192.00</ele>
        <time>2018-09-08T22:04:00Z</time>
      </trkpt>
      <trkpt lat="-2.550750" lon="-78.814186">
        <ele>3192.00</ele>
        <time>2018-09-08T22:04:01Z</time>
      </trkpt>
      <trkpt lat="-2.550663" lon="-78.814232">
        <ele>3191.00</ele>
        <time>2018-09-08T22:04:02Z</time>
      </trkpt>
      <trkpt lat="-2.550594" lon="-78.814255">
        <ele>3191.00</ele>
        <time>2018-09-08T22:04:03Z</time>
      </trkpt>
      <trkpt lat="-2.550560" lon="-78.814293">
        <ele>3191.00</ele>
        <time>2018-09-08T22:04:04Z</time>
      </trkpt>
      <trkpt lat="-2.550556" lon="-78.814323">
        <ele>3191.00</ele>
        <time>2018-09-08T22:04:05Z</time>
      </trkpt>
      <trkpt lat="-2.550586" lon="-78.814346">
        <ele>3191.00</ele>
        <time>2018-09-08T22:04:06Z</time>
      </trkpt>
      <trkpt lat="-2.550644" lon="-78.814339">
        <ele>3190.00</ele>
        <time>2018-09-08T22:04:07Z</time>
      </trkpt>
      <trkpt lat="-2.550735" lon="-78.814308">
        <ele>3190.00</ele>
        <time>2018-09-08T22:04:08Z</time>
      </trkpt>
      <trkpt lat="-2.550836" lon="-78.814255">
        <ele>3189.00</ele>
        <time>2018-09-08T22:04:09Z</time>
      </trkpt>
      <trkpt lat="-2.550954" lon="-78.814224">
        <ele>3189.00</ele>
        <time>2018-09-08T22:04:10Z</time>
      </trkpt>
      <trkpt lat="-2.551080" lon="-78.814194">
        <ele>3188.00</ele>
        <time>2018-09-08T22:04:11Z</time>
      </trkpt>
      <trkpt lat="-2.551204" lon="-78.814201">
        <ele>3188.00</ele>
        <time>2018-09-08T22:04:12Z</time>
      </trkpt>
      <trkpt lat="-2.551320" lon="-78.814232">
        <ele>3187.00</ele>
        <time>2018-09-08T22:04:13Z</time>
      </trkpt>
      <trkpt lat="-2.551425" lon="-78.814293">
        <ele>3187.00</ele>
        <time>2018-09-08T22:04:14Z</time>
      </trkpt>
      <trkpt lat="-2.551507" lon="-78.814392">
        <ele>3186.00</ele>
        <time>2018-09-08T22:04:15Z</time>
      </trkpt>
      <trkpt lat="-2.551575" lon="-78.814537">
        <ele>3185.00</ele>
        <time>2018-09-08T22:04:16Z</time>
      </trkpt>
      <trkpt lat="-2.551630" lon="-78.814682">
        <ele>3185.00</ele>
        <time>2018-09-08T22:04:17Z</time>
      </trkpt>
      <trkpt lat="-2.551677" lon="-78.814842">
        <ele>3184.00</ele>
        <time>2018-09-08T22:04:18Z</time>
      </trkpt>
      <trkpt lat="-2.551719" lon="-78.815002">
        <ele>3183.00</ele>
        <time>2018-09-08T22:04:19Z</time>
      </trkpt>
      <trkpt lat="-2.551749" lon="-78.815163">
        <ele>3183.00</ele>
        <time>2018-09-08T22:04:20Z</time>
      </trkpt>
      <trkpt lat="-2.551773" lon="-78.815315">
        <ele>3182.00</ele>
        <time>2018-09-08T22:04:21Z</time>
      </trkpt>
      <trkpt lat="-2.551793" lon="-78.815460">
        <ele>3180.00</ele>
        <time>2018-09-08T22:04:22Z</time>
      </trkpt>
      <trkpt lat="-2.551825" lon="-78.815582">
        <ele>3179.00</ele>
        <time>2018-09-08T22:04:23Z</time>
      </trkpt>
      <trkpt lat="-2.551879" lon="-78.815704">
        <ele>3178.00</ele>
        <time>2018-09-08T22:04:24Z</time>
      </trkpt>
      <trkpt lat="-2.551967" lon="-78.815819">
        <ele>3177.00</ele>
        <time>2018-09-08T22:04:25Z</time>
      </trkpt>
      <trkpt lat="-2.552074" lon="-78.815948">
        <ele>3176.00</ele>
        <time>2018-09-08T22:04:26Z</time>
      </trkpt>
      <trkpt lat="-2.552188" lon="-78.816071">
        <ele>3176.00</ele>
        <time>2018-09-08T22:04:27Z</time>
      </trkpt>
      <trkpt lat="-2.552303" lon="-78.816193">
        <ele>3175.00</ele>
        <time>2018-09-08T22:04:28Z</time>
      </trkpt>
      <trkpt lat="-2.552428" lon="-78.816322">
        <ele>3174.00</ele>
        <time>2018-09-08T22:04:29Z</time>
      </trkpt>
      <trkpt lat="-2.552556" lon="-78.816429">
        <ele>3174.00</ele>
        <time>2018-09-08T22:04:30Z</time>
      </trkpt>
      <trkpt lat="-2.552674" lon="-78.816536">
        <ele>3173.00</ele>
        <time>2018-09-08T22:04:31Z</time>
      </trkpt>
      <trkpt lat="-2.552780" lon="-78.816612">
        <ele>3173.00</ele>
        <time>2018-09-08T22:04:32Z</time>
      </trkpt>
      <trkpt lat="-2.552890" lon="-78.816673">
        <ele>3173.00</ele>
        <time>2018-09-08T22:04:33Z</time>
      </trkpt>
      <trkpt lat="-2.553011" lon="-78.816719">
        <ele>3172.00</ele>
        <time>2018-09-08T22:04:34Z</time>
      </trkpt>
      <trkpt lat="-2.553121" lon="-78.816757">
        <ele>3172.00</ele>
        <time>2018-09-08T22:04:35Z</time>
      </trkpt>
      <trkpt lat="-2.553211" lon="-78.816803">
        <ele>3172.00</ele>
        <time>2018-09-08T22:04:36Z</time>
      </trkpt>
      <trkpt lat="-2.553303" lon="-78.816841">
        <ele>3171.00</ele>
        <time>2018-09-08T22:04:37Z</time>
      </trkpt>
      <trkpt lat="-2.553396" lon="-78.816917">
        <ele>3171.00</ele>
        <time>2018-09-08T22:04:38Z</time>
      </trkpt>
      <trkpt lat="-2.553482" lon="-78.816994">
        <ele>3171.00</ele>
        <time>2018-09-08T22:04:39Z</time>
      </trkpt>
      <trkpt lat="-2.553549" lon="-78.817085">
        <ele>3170.00</ele>
        <time>2018-09-08T22:04:40Z</time>
      </trkpt>
      <trkpt lat="-2.553597" lon="-78.817184">
        <ele>3170.00</ele>
        <time>2018-09-08T22:04:41Z</time>
      </trkpt>
      <trkpt lat="-2.553634" lon="-78.817299">
        <ele>3170.00</ele>
        <time>2018-09-08T22:04:42Z</time>
      </trkpt>
      <trkpt lat="-2.553663" lon="-78.817436">
        <ele>3169.00</ele>
        <time>2018-09-08T22:04:43Z</time>
      </trkpt>
      <trkpt lat="-2.553679" lon="-78.817589">
        <ele>3169.00</ele>
        <time>2018-09-08T22:04:44Z</time>
      </trkpt>
      <trkpt lat="-2.553694" lon="-78.817741">
        <ele>3169.00</ele>
        <time>2018-09-08T22:04:45Z</time>
      </trkpt>
      <trkpt lat="-2.553703" lon="-78.817879">
        <ele>3169.00</ele>
        <time>2018-09-08T22:04:46Z</time>
      </trkpt>
      <trkpt lat="-2.553720" lon="-78.818001">
        <ele>3168.00</ele>
        <time>2018-09-08T22:04:47Z</time>
      </trkpt>
      <trkpt lat="-2.553763" lon="-78.818115">
        <ele>3168.00</ele>
        <time>2018-09-08T22:04:48Z</time>
      </trkpt>
      <trkpt lat="-2.553848" lon="-78.818222">
        <ele>3168.00</ele>
        <time>2018-09-08T22:04:49Z</time>
      </trkpt>
      <trkpt lat="-2.553963" lon="-78.818329">
        <ele>3168.00</ele>
        <time>2018-09-08T22:04:50Z</time>
      </trkpt>
      <trkpt lat="-2.554107" lon="-78.818420">
        <ele>3168.00</ele>
        <time>2018-09-08T22:04:51Z</time>
      </trkpt>
      <trkpt lat="-2.554264" lon="-78.818489">
        <ele>3167.00</ele>
        <time>2018-09-08T22:04:52Z</time>
      </trkpt>
      <trkpt lat="-2.554437" lon="-78.818550">
        <ele>3167.00</ele>
        <time>2018-09-08T22:04:53Z</time>
      </trkpt>
      <trkpt lat="-2.554617" lon="-78.818604">
        <ele>3167.00</ele>
        <time>2018-09-08T22:04:54Z</time>
      </trkpt>
      <trkpt lat="-2.554794" lon="-78.818642">
        <ele>3167.00</ele>
        <time>2018-09-08T22:04:55Z</time>
      </trkpt>
      <trkpt lat="-2.554953" lon="-78.818657">
        <ele>3166.00</ele>
        <time>2018-09-08T22:04:56Z</time>
      </trkpt>
      <trkpt lat="-2.555096" lon="-78.818672">
        <ele>3166.00</ele>
        <time>2018-09-08T22:04:57Z</time>
      </trkpt>
      <trkpt lat="-2.555232" lon="-78.818672">
        <ele>3166.00</ele>
        <time>2018-09-08T22:04:58Z</time>
      </trkpt>
      <trkpt lat="-2.555371" lon="-78.818703">
        <ele>3166.00</ele>
        <time>2018-09-08T22:04:59Z</time>
      </trkpt>
      <trkpt lat="-2.555511" lon="-78.818756">
        <ele>3166.00</ele>
        <time>2018-09-08T22:05:00Z</time>
      </trkpt>
      <trkpt lat="-2.555634" lon="-78.818810">
        <ele>3167.00</ele>
        <time>2018-09-08T22:05:01Z</time>
      </trkpt>
      <trkpt lat="-2.555739" lon="-78.818863">
        <ele>3167.00</ele>
        <time>2018-09-08T22:05:02Z</time>
      </trkpt>
      <trkpt lat="-2.555848" lon="-78.818886">
        <ele>3166.00</ele>
        <time>2018-09-08T22:05:03Z</time>
      </trkpt>
      <trkpt lat="-2.555964" lon="-78.818886">
        <ele>3166.00</ele>
        <time>2018-09-08T22:05:04Z</time>
      </trkpt>
      <trkpt lat="-2.556081" lon="-78.818916">
        <ele>3166.00</ele>
        <time>2018-09-08T22:05:05Z</time>
      </trkpt>
      <trkpt lat="-2.556184" lon="-78.818939">
        <ele>3166.00</ele>
        <time>2018-09-08T22:05:06Z</time>
      </trkpt>
      <trkpt lat="-2.556279" lon="-78.818954">
        <ele>3166.00</ele>
        <time>2018-09-08T22:05:07Z</time>
      </trkpt>
      <trkpt lat="-2.556373" lon="-78.818924">
        <ele>3166.00</ele>
        <time>2018-09-08T22:05:08Z</time>
      </trkpt>
      <trkpt lat="-2.556452" lon="-78.818871">
        <ele>3166.00</ele>
        <time>2018-09-08T22:05:09Z</time>
      </trkpt>
      <trkpt lat="-2.556521" lon="-78.818794">
        <ele>3166.00</ele>
        <time>2018-09-08T22:05:10Z</time>
      </trkpt>
      <trkpt lat="-2.556603" lon="-78.818718">
        <ele>3166.00</ele>
        <time>2018-09-08T22:05:11Z</time>
      </trkpt>
      <trkpt lat="-2.556709" lon="-78.818665">
        <ele>3166.00</ele>
        <time>2018-09-08T22:05:12Z</time>
      </trkpt>
      <trkpt lat="-2.556841" lon="-78.818619">
        <ele>3167.00</ele>
        <time>2018-09-08T22:05:13Z</time>
      </trkpt>
      <trkpt lat="-2.556971" lon="-78.818596">
        <ele>3168.00</ele>
        <time>2018-09-08T22:05:14Z</time>
      </trkpt>
      <trkpt lat="-2.557105" lon="-78.818550">
        <ele>3169.00</ele>
        <time>2018-09-08T22:05:15Z</time>
      </trkpt>
      <trkpt lat="-2.557249" lon="-78.818527">
        <ele>3170.00</ele>
        <time>2018-09-08T22:05:16Z</time>
      </trkpt>
      <trkpt lat="-2.557400" lon="-78.818512">
        <ele>3170.00</ele>
        <time>2018-09-08T22:05:17Z</time>
      </trkpt>
      <trkpt lat="-2.557558" lon="-78.818535">
        <ele>3170.00</ele>
        <time>2018-09-08T22:05:18Z</time>
      </trkpt>
      <trkpt lat="-2.557709" lon="-78.818558">
        <ele>3170.00</ele>
        <time>2018-09-08T22:05:19Z</time>
      </trkpt>
      <trkpt lat="-2.557850" lon="-78.818596">
        <ele>3170.00</ele>
        <time>2018-09-08T22:05:20Z</time>
      </trkpt>
      <trkpt lat="-2.557989" lon="-78.818611">
        <ele>3170.00</ele>
        <time>2018-09-08T22:05:21Z</time>
      </trkpt>
      <trkpt lat="-2.558128" lon="-78.818604">
        <ele>3170.00</ele>
        <time>2018-09-08T22:05:22Z</time>
      </trkpt>
      <trkpt lat="-2.558253" lon="-78.818581">
        <ele>3170.00</ele>
        <time>2018-09-08T22:05:23Z</time>
      </trkpt>
      <trkpt lat="-2.558366" lon="-78.818558">
        <ele>3170.00</ele>
        <time>2018-09-08T22:05:24Z</time>
      </trkpt>
      <trkpt lat="-2.558481" lon="-78.818558">
        <ele>3170.00</ele>
        <time>2018-09-08T22:05:25Z</time>
      </trkpt>
      <trkpt lat="-2.558601" lon="-78.818588">
        <ele>3170.00</ele>
        <time>2018-09-08T22:05:26Z</time>
      </trkpt>
      <trkpt lat="-2.558722" lon="-78.818649">
        <ele>3170.00</ele>
        <time>2018-09-08T22:05:27Z</time>
      </trkpt>
      <trkpt lat="-2.558857" lon="-78.818703">
        <ele>3170.00</ele>
        <time>2018-09-08T22:05:28Z</time>
      </trkpt>
      <trkpt lat="-2.558994" lon="-78.818741">
        <ele>3170.00</ele>
        <time>2018-09-08T22:05:29Z</time>
      </trkpt>
      <trkpt lat="-2.559124" lon="-78.818764">
        <ele>3170.00</ele>
        <time>2018-09-08T22:05:30Z</time>
      </trkpt>
      <trkpt lat="-2.559246" lon="-78.818802">
        <ele>3169.00</ele>
        <time>2018-09-08T22:05:31Z</time>
      </trkpt>
      <trkpt lat="-2.559355" lon="-78.818855">
        <ele>3168.00</ele>
        <time>2018-09-08T22:05:32Z</time>
      </trkpt>
      <trkpt lat="-2.559444" lon="-78.818932">
        <ele>3168.00</ele>
        <time>2018-09-08T22:05:33Z</time>
      </trkpt>
      <trkpt lat="-2.559520" lon="-78.819046">
        <ele>3167.00</ele>
        <time>2018-09-08T22:05:34Z</time>
      </trkpt>
      <trkpt lat="-2.559596" lon="-78.819168">
        <ele>3167.00</ele>
        <time>2018-09-08T22:05:35Z</time>
      </trkpt>
      <trkpt lat="-2.559678" lon="-78.819275">
        <ele>3167.00</ele>
        <time>2018-09-08T22:05:36Z</time>
      </trkpt>
      <trkpt lat="-2.559768" lon="-78.819351">
        <ele>3166.00</ele>
        <time>2018-09-08T22:05:37Z</time>
      </trkpt>
      <trkpt lat="-2.559868" lon="-78.819427">
        <ele>3166.00</ele>
        <time>2018-09-08T22:05:38Z</time>
      </trkpt>
      <trkpt lat="-2.559977" lon="-78.819504">
        <ele>3166.00</ele>
        <time>2018-09-08T22:05:39Z</time>
      </trkpt>
      <trkpt lat="-2.560083" lon="-78.819572">
        <ele>3165.00</ele>
        <time>2018-09-08T22:05:40Z</time>
      </trkpt>
      <trkpt lat="-2.560181" lon="-78.819656">
        <ele>3165.00</ele>
        <time>2018-09-08T22:05:41Z</time>
      </trkpt>
      <trkpt lat="-2.560272" lon="-78.819733">
        <ele>3165.00</ele>
        <time>2018-09-08T22:05:42Z</time>
      </trkpt>
      <trkpt lat="-2.560356" lon="-78.819801">
        <ele>3164.00</ele>
        <time>2018-09-08T22:05:43Z</time>
      </trkpt>
      <trkpt lat="-2.560428" lon="-78.819885">
        <ele>3164.00</ele>
        <time>2018-09-08T22:05:44Z</time>
      </trkpt>
      <trkpt lat="-2.560485" lon="-78.819977">
        <ele>3164.00</ele>
        <time>2018-09-08T22:05:45Z</time>
      </trkpt>
      <trkpt lat="-2.560534" lon="-78.820053">
        <ele>3164.00</ele>
        <time>2018-09-08T22:05:46Z</time>
      </trkpt>
      <trkpt lat="-2.560577" lon="-78.820137">
        <ele>3163.00</ele>
        <time>2018-09-08T22:05:47Z</time>
      </trkpt>
      <trkpt lat="-2.560620" lon="-78.820213">
        <ele>3163.00</ele>
        <time>2018-09-08T22:05:48Z</time>
      </trkpt>
      <trkpt lat="-2.560661" lon="-78.820282">
        <ele>3163.00</ele>
        <time>2018-09-08T22:05:49Z</time>
      </trkpt>
      <trkpt lat="-2.560699" lon="-78.820358">
        <ele>3162.00</ele>
        <time>2018-09-08T22:05:50Z</time>
      </trkpt>
      <trkpt lat="-2.560739" lon="-78.820427">
        <ele>3162.00</ele>
        <time>2018-09-08T22:05:51Z</time>
      </trkpt>
      <trkpt lat="-2.560784" lon="-78.820496">
        <ele>3161.00</ele>
        <time>2018-09-08T22:05:52Z</time>
      </trkpt>
      <trkpt lat="-2.560839" lon="-78.820557">
        <ele>3161.00</ele>
        <time>2018-09-08T22:05:53Z</time>
      </trkpt>
      <trkpt lat="-2.560901" lon="-78.820610">
        <ele>3161.00</ele>
        <time>2018-09-08T22:05:54Z</time>
      </trkpt>
      <trkpt lat="-2.560969" lon="-78.820648">
        <ele>3161.00</ele>
        <time>2018-09-08T22:05:55Z</time>
      </trkpt>
      <trkpt lat="-2.561041" lon="-78.820686">
        <ele>3160.00</ele>
        <time>2018-09-08T22:05:56Z</time>
      </trkpt>
      <trkpt lat="-2.561114" lon="-78.820709">
        <ele>3160.00</ele>
        <time>2018-09-08T22:05:57Z</time>
      </trkpt>
      <trkpt lat="-2.561189" lon="-78.820732">
        <ele>3160.00</ele>
        <time>2018-09-08T22:05:58Z</time>
      </trkpt>
      <trkpt lat="-2.561265" lon="-78.820747">
        <ele>3160.00</ele>
        <time>2018-09-08T22:05:59Z</time>
      </trkpt>
      <trkpt lat="-2.561341" lon="-78.820770">
        <ele>3160.00</ele>
        <time>2018-09-08T22:06:00Z</time>
      </trkpt>
      <trkpt lat="-2.561420" lon="-78.820793">
        <ele>3160.00</ele>
        <time>2018-09-08T22:06:01Z</time>
      </trkpt>
      <trkpt lat="-2.561508" lon="-78.820816">
        <ele>3160.00</ele>
        <time>2018-09-08T22:06:02Z</time>
      </trkpt>
      <trkpt lat="-2.561607" lon="-78.820847">
        <ele>3160.00</ele>
        <time>2018-09-08T22:06:03Z</time>
      </trkpt>
      <trkpt lat="-2.561715" lon="-78.820869">
        <ele>3159.00</ele>
        <time>2018-09-08T22:06:04Z</time>
      </trkpt>
      <trkpt lat="-2.561832" lon="-78.820915">
        <ele>3159.00</ele>
        <time>2018-09-08T22:06:05Z</time>
      </trkpt>
      <trkpt lat="-2.561960" lon="-78.820961">
        <ele>3159.00</ele>
        <time>2018-09-08T22:06:06Z</time>
      </trkpt>
      <trkpt lat="-2.562101" lon="-78.820999">
        <ele>3159.00</ele>
        <time>2018-09-08T22:06:07Z</time>
      </trkpt>
      <trkpt lat="-2.562247" lon="-78.821007">
        <ele>3159.00</ele>
        <time>2018-09-08T22:06:08Z</time>
      </trkpt>
      <trkpt lat="-2.562382" lon="-78.821007">
        <ele>3159.00</ele>
        <time>2018-09-08T22:06:09Z</time>
      </trkpt>
      <trkpt lat="-2.562495" lon="-78.820999">
        <ele>3158.00</ele>
        <time>2018-09-08T22:06:10Z</time>
      </trkpt>
      <trkpt lat="-2.562602" lon="-78.820969">
        <ele>3158.00</ele>
        <time>2018-09-08T22:06:11Z</time>
      </trkpt>
      <trkpt lat="-2.562711" lon="-78.820900">
        <ele>3158.00</ele>
        <time>2018-09-08T22:06:12Z</time>
      </trkpt>
      <trkpt lat="-2.562830" lon="-78.820839">
        <ele>3158.00</ele>
        <time>2018-09-08T22:06:13Z</time>
      </trkpt>
      <trkpt lat="-2.562957" lon="-78.820786">
        <ele>3158.00</ele>
        <time>2018-09-08T22:06:14Z</time>
      </trkpt>
      <trkpt lat="-2.563072" lon="-78.820732">
        <ele>3158.00</ele>
        <time>2018-09-08T22:06:15Z</time>
      </trkpt>
      <trkpt lat="-2.563170" lon="-78.820656">
        <ele>3158.00</ele>
        <time>2018-09-08T22:06:16Z</time>
      </trkpt>
      <trkpt lat="-2.563253" lon="-78.820587">
        <ele>3158.00</ele>
        <time>2018-09-08T22:06:17Z</time>
      </trkpt>
      <trkpt lat="-2.563336" lon="-78.820541">
        <ele>3158.00</ele>
        <time>2018-09-08T22:06:18Z</time>
      </trkpt>
      <trkpt lat="-2.563429" lon="-78.820526">
        <ele>3158.00</ele>
        <time>2018-09-08T22:06:19Z</time>
      </trkpt>
      <trkpt lat="-2.563534" lon="-78.820534">
        <ele>3158.00</ele>
        <time>2018-09-08T22:06:20Z</time>
      </trkpt>
      <trkpt lat="-2.563632" lon="-78.820587">
        <ele>3158.00</ele>
        <time>2018-09-08T22:06:21Z</time>
      </trkpt>
      <trkpt lat="-2.563701" lon="-78.820702">
        <ele>3157.00</ele>
        <time>2018-09-08T22:06:22Z</time>
      </trkpt>
      <trkpt lat="-2.563767" lon="-78.820824">
        <ele>3157.00</ele>
        <time>2018-09-08T22:06:23Z</time>
      </trkpt>
      <trkpt lat="-2.563841" lon="-78.820961">
        <ele>3157.00</ele>
        <time>2018-09-08T22:06:24Z</time>
      </trkpt>
      <trkpt lat="-2.563920" lon="-78.821106">
        <ele>3157.00</ele>
        <time>2018-09-08T22:06:25Z</time>
      </trkpt>
      <trkpt lat="-2.564006" lon="-78.821243">
        <ele>3157.00</ele>
        <time>2018-09-08T22:06:26Z</time>
      </trkpt>
      <trkpt lat="-2.564098" lon="-78.821396">
        <ele>3157.00</ele>
        <time>2018-09-08T22:06:27Z</time>
      </trkpt>
      <trkpt lat="-2.564193" lon="-78.821548">
        <ele>3157.00</ele>
        <time>2018-09-08T22:06:28Z</time>
      </trkpt>
      <trkpt lat="-2.564297" lon="-78.821701">
        <ele>3156.00</ele>
        <time>2018-09-08T22:06:29Z</time>
      </trkpt>
      <trkpt lat="-2.564408" lon="-78.821838">
        <ele>3156.00</ele>
        <time>2018-09-08T22:06:30Z</time>
      </trkpt>
      <trkpt lat="-2.564512" lon="-78.821968">
        <ele>3156.00</ele>
        <time>2018-09-08T22:06:31Z</time>
      </trkpt>
      <trkpt lat="-2.564619" lon="-78.822090">
        <ele>3155.00</ele>
        <time>2018-09-08T22:06:32Z</time>
      </trkpt>
      <trkpt lat="-2.564739" lon="-78.822197">
        <ele>3155.00</ele>
        <time>2018-09-08T22:06:33Z</time>
      </trkpt>
      <trkpt lat="-2.564859" lon="-78.822311">
        <ele>3155.00</ele>
        <time>2018-09-08T22:06:34Z</time>
      </trkpt>
      <trkpt lat="-2.564968" lon="-78.822418">
        <ele>3154.00</ele>
        <time>2018-09-08T22:06:35Z</time>
      </trkpt>
      <trkpt lat="-2.565063" lon="-78.822495">
        <ele>3154.00</ele>
        <time>2018-09-08T22:06:36Z</time>
      </trkpt>
      <trkpt lat="-2.565156" lon="-78.822578">
        <ele>3154.00</ele>
        <time>2018-09-08T22:06:37Z</time>
      </trkpt>
      <trkpt lat="-2.565273" lon="-78.822639">
        <ele>3153.00</ele>
        <time>2018-09-08T22:06:38Z</time>
      </trkpt>
      <trkpt lat="-2.565406" lon="-78.822678">
        <ele>3153.00</ele>
        <time>2018-09-08T22:06:39Z</time>
      </trkpt>
      <trkpt lat="-2.565533" lon="-78.822701">
        <ele>3152.00</ele>
        <time>2018-09-08T22:06:40Z</time>
      </trkpt>
      <trkpt lat="-2.565649" lon="-78.822731">
        <ele>3152.00</ele>
        <time>2018-09-08T22:06:41Z</time>
      </trkpt>
      <trkpt lat="-2.565762" lon="-78.822739">
        <ele>3151.00</ele>
        <time>2018-09-08T22:06:42Z</time>
      </trkpt>
      <trkpt lat="-2.565881" lon="-78.822739">
        <ele>3151.00</ele>
        <time>2018-09-08T22:06:43Z</time>
      </trkpt>
      <trkpt lat="-2.566008" lon="-78.822739">
        <ele>3150.00</ele>
        <time>2018-09-08T22:06:44Z</time>
      </trkpt>
      <trkpt lat="-2.566139" lon="-78.822739">
        <ele>3150.00</ele>
        <time>2018-09-08T22:06:45Z</time>
      </trkpt>
      <trkpt lat="-2.566259" lon="-78.822746">
        <ele>3149.00</ele>
        <time>2018-09-08T22:06:46Z</time>
      </trkpt>
      <trkpt lat="-2.566368" lon="-78.822762">
        <ele>3149.00</ele>
        <time>2018-09-08T22:06:47Z</time>
      </trkpt>
      <trkpt lat="-2.566464" lon="-78.822807">
        <ele>3149.00</ele>
        <time>2018-09-08T22:06:48Z</time>
      </trkpt>
      <trkpt lat="-2.566550" lon="-78.822884">
        <ele>3149.00</ele>
        <time>2018-09-08T22:06:49Z</time>
      </trkpt>
      <trkpt lat="-2.566636" lon="-78.822968">
        <ele>3148.00</ele>
        <time>2018-09-08T22:06:50Z</time>
      </trkpt>
      <trkpt lat="-2.566740" lon="-78.823051">
        <ele>3148.00</ele>
        <time>2018-09-08T22:06:51Z</time>
      </trkpt>
      <trkpt lat="-2.566859" lon="-78.823128">
        <ele>3148.00</ele>
        <time>2018-09-08T22:06:52Z</time>
      </trkpt>
      <trkpt lat="-2.566987" lon="-78.823189">
        <ele>3148.00</ele>
        <time>2018-09-08T22:06:53Z</time>
      </trkpt>
      <trkpt lat="-2.567115" lon="-78.823273">
        <ele>3148.00</ele>
        <time>2018-09-08T22:06:54Z</time>
      </trkpt>
      <trkpt lat="-2.567240" lon="-78.823380">
        <ele>3147.00</ele>
        <time>2018-09-08T22:06:55Z</time>
      </trkpt>
      <trkpt lat="-2.567365" lon="-78.823494">
        <ele>3147.00</ele>
        <time>2018-09-08T22:06:56Z</time>
      </trkpt>
      <trkpt lat="-2.567492" lon="-78.823616">
        <ele>3147.00</ele>
        <time>2018-09-08T22:06:57Z</time>
      </trkpt>
      <trkpt lat="-2.567612" lon="-78.823753">
        <ele>3147.00</ele>
        <time>2018-09-08T22:06:58Z</time>
      </trkpt>
      <trkpt lat="-2.567729" lon="-78.823891">
        <ele>3147.00</ele>
        <time>2018-09-08T22:06:59Z</time>
      </trkpt>
      <trkpt lat="-2.567841" lon="-78.824005">
        <ele>3146.00</ele>
        <time>2018-09-08T22:07:00Z</time>
      </trkpt>
      <trkpt lat="-2.567951" lon="-78.824112">
        <ele>3146.00</ele>
        <time>2018-09-08T22:07:01Z</time>
      </trkpt>
      <trkpt lat="-2.568063" lon="-78.824196">
        <ele>3146.00</ele>
        <time>2018-09-08T22:07:02Z</time>
      </trkpt>
      <trkpt lat="-2.568173" lon="-78.824257">
        <ele>3146.00</ele>
        <time>2018-09-08T22:07:03Z</time>
      </trkpt>
      <trkpt lat="-2.568288" lon="-78.824303">
        <ele>3145.00</ele>
        <time>2018-09-08T22:07:04Z</time>
      </trkpt>
      <trkpt lat="-2.568416" lon="-78.824318">
        <ele>3145.00</ele>
        <time>2018-09-08T22:07:05Z</time>
      </trkpt>
      <trkpt lat="-2.568540" lon="-78.824326">
        <ele>3145.00</ele>
        <time>2018-09-08T22:07:06Z</time>
      </trkpt>
      <trkpt lat="-2.568654" lon="-78.824348">
        <ele>3145.00</ele>
        <time>2018-09-08T22:07:07Z</time>
      </trkpt>
      <trkpt lat="-2.568768" lon="-78.824364">
        <ele>3145.00</ele>
        <time>2018-09-08T22:07:08Z</time>
      </trkpt>
      <trkpt lat="-2.568882" lon="-78.824409">
        <ele>3145.00</ele>
        <time>2018-09-08T22:07:09Z</time>
      </trkpt>
      <trkpt lat="-2.568992" lon="-78.824478">
        <ele>3145.00</ele>
        <time>2018-09-08T22:07:10Z</time>
      </trkpt>
      <trkpt lat="-2.569093" lon="-78.824585">
        <ele>3144.00</ele>
        <time>2018-09-08T22:07:11Z</time>
      </trkpt>
      <trkpt lat="-2.569205" lon="-78.824692">
        <ele>3144.00</ele>
        <time>2018-09-08T22:07:12Z</time>
      </trkpt>
      <trkpt lat="-2.569324" lon="-78.824806">
        <ele>3144.00</ele>
        <time>2018-09-08T22:07:13Z</time>
      </trkpt>
      <trkpt lat="-2.569444" lon="-78.824921">
        <ele>3143.00</ele>
        <time>2018-09-08T22:07:14Z</time>
      </trkpt>
      <trkpt lat="-2.569553" lon="-78.825027">
        <ele>3143.00</ele>
        <time>2018-09-08T22:07:15Z</time>
      </trkpt>
      <trkpt lat="-2.569651" lon="-78.825127">
        <ele>3143.00</ele>
        <time>2018-09-08T22:07:16Z</time>
      </trkpt>
      <trkpt lat="-2.569757" lon="-78.825211">
        <ele>3142.00</ele>
        <time>2018-09-08T22:07:17Z</time>
      </trkpt>
      <trkpt lat="-2.569863" lon="-78.825272">
        <ele>3142.00</ele>
        <time>2018-09-08T22:07:18Z</time>
      </trkpt>
      <trkpt lat="-2.569971" lon="-78.825310">
        <ele>3141.00</ele>
        <time>2018-09-08T22:07:19Z</time>
      </trkpt>
      <trkpt lat="-2.570089" lon="-78.825325">
        <ele>3141.00</ele>
        <time>2018-09-08T22:07:20Z</time>
      </trkpt>
      <trkpt lat="-2.570211" lon="-78.825294">
        <ele>3141.00</ele>
        <time>2018-09-08T22:07:21Z</time>
      </trkpt>
      <trkpt lat="-2.570319" lon="-78.825264">
        <ele>3141.00</ele>
        <time>2018-09-08T22:07:22Z</time>
      </trkpt>
      <trkpt lat="-2.570415" lon="-78.825226">
        <ele>3140.00</ele>
        <time>2018-09-08T22:07:23Z</time>
      </trkpt>
      <trkpt lat="-2.570525" lon="-78.825188">
        <ele>3140.00</ele>
        <time>2018-09-08T22:07:24Z</time>
      </trkpt>
      <trkpt lat="-2.570654" lon="-78.825172">
        <ele>3140.00</ele>
        <time>2018-09-08T22:07:25Z</time>
      </trkpt>
      <trkpt lat="-2.570791" lon="-78.825172">
        <ele>3140.00</ele>
        <time>2018-09-08T22:07:26Z</time>
      </trkpt>
      <trkpt lat="-2.570913" lon="-78.825203">
        <ele>3140.00</ele>
        <time>2018-09-08T22:07:27Z</time>
      </trkpt>
      <trkpt lat="-2.571009" lon="-78.825211">
        <ele>3140.00</ele>
        <time>2018-09-08T22:07:28Z</time>
      </trkpt>
      <trkpt lat="-2.571088" lon="-78.825211">
        <ele>3140.00</ele>
        <time>2018-09-08T22:07:29Z</time>
      </trkpt>
      <trkpt lat="-2.571159" lon="-78.825180">
        <ele>3140.00</ele>
        <time>2018-09-08T22:07:30Z</time>
      </trkpt>
      <trkpt lat="-2.571244" lon="-78.825157">
        <ele>3140.00</ele>
        <time>2018-09-08T22:07:31Z</time>
      </trkpt>
      <trkpt lat="-2.571352" lon="-78.825157">
        <ele>3140.00</ele>
        <time>2018-09-08T22:07:32Z</time>
      </trkpt>
      <trkpt lat="-2.571466" lon="-78.825180">
        <ele>3140.00</ele>
        <time>2018-09-08T22:07:33Z</time>
      </trkpt>
      <trkpt lat="-2.571588" lon="-78.825211">
        <ele>3141.00</ele>
        <time>2018-09-08T22:07:34Z</time>
      </trkpt>
      <trkpt lat="-2.571719" lon="-78.825218">
        <ele>3141.00</ele>
        <time>2018-09-08T22:07:35Z</time>
      </trkpt>
      <trkpt lat="-2.571859" lon="-78.825233">
        <ele>3141.00</ele>
        <time>2018-09-08T22:07:36Z</time>
      </trkpt>
      <trkpt lat="-2.572000" lon="-78.825272">
        <ele>3142.00</ele>
        <time>2018-09-08T22:07:37Z</time>
      </trkpt>
      <trkpt lat="-2.572133" lon="-78.825340">
        <ele>3141.00</ele>
        <time>2018-09-08T22:07:38Z</time>
      </trkpt>
      <trkpt lat="-2.572253" lon="-78.825439">
        <ele>3141.00</ele>
        <time>2018-09-08T22:07:39Z</time>
      </trkpt>
      <trkpt lat="-2.572371" lon="-78.825539">
        <ele>3141.00</ele>
        <time>2018-09-08T22:07:40Z</time>
      </trkpt>
      <trkpt lat="-2.572486" lon="-78.825645">
        <ele>3140.00</ele>
        <time>2018-09-08T22:07:41Z</time>
      </trkpt>
      <trkpt lat="-2.572598" lon="-78.825752">
        <ele>3140.00</ele>
        <time>2018-09-08T22:07:42Z</time>
      </trkpt>
      <trkpt lat="-2.572698" lon="-78.825867">
        <ele>3140.00</ele>
        <time>2018-09-08T22:07:43Z</time>
      </trkpt>
      <trkpt lat="-2.572791" lon="-78.825974">
        <ele>3140.00</ele>
        <time>2018-09-08T22:07:44Z</time>
      </trkpt>
      <trkpt lat="-2.572874" lon="-78.826065">
        <ele>3140.00</ele>
        <time>2018-09-08T22:07:45Z</time>
      </trkpt>
      <trkpt lat="-2.572945" lon="-78.826141">
        <ele>3140.00</ele>
        <time>2018-09-08T22:07:46Z</time>
      </trkpt>
      <trkpt lat="-2.572996" lon="-78.826233">
        <ele>3140.00</ele>
        <time>2018-09-08T22:07:47Z</time>
      </trkpt>
      <trkpt lat="-2.573017" lon="-78.826347">
        <ele>3140.00</ele>
        <time>2018-09-08T22:07:48Z</time>
      </trkpt>
      <trkpt lat="-2.573001" lon="-78.826469">
        <ele>3139.00</ele>
        <time>2018-09-08T22:07:49Z</time>
      </trkpt>
      <trkpt lat="-2.572982" lon="-78.826584">
        <ele>3139.00</ele>
        <time>2018-09-08T22:07:50Z</time>
      </trkpt>
      <trkpt lat="-2.573005" lon="-78.826691">
        <ele>3139.00</ele>
        <time>2018-09-08T22:07:51Z</time>
      </trkpt>
      <trkpt lat="-2.573046" lon="-78.826790">
        <ele>3139.00</ele>
        <time>2018-09-08T22:07:52Z</time>
      </trkpt>
      <trkpt lat="-2.573117" lon="-78.826881">
        <ele>3138.00</ele>
        <time>2018-09-08T22:07:53Z</time>
      </trkpt>
      <trkpt lat="-2.573203" lon="-78.826965">
        <ele>3138.00</ele>
        <time>2018-09-08T22:07:54Z</time>
      </trkpt>
      <trkpt lat="-2.573304" lon="-78.827065">
        <ele>3138.00</ele>
        <time>2018-09-08T22:07:55Z</time>
      </trkpt>
      <trkpt lat="-2.573399" lon="-78.827171">
        <ele>3138.00</ele>
        <time>2018-09-08T22:07:56Z</time>
      </trkpt>
      <trkpt lat="-2.573485" lon="-78.827263">
        <ele>3138.00</ele>
        <time>2018-09-08T22:07:57Z</time>
      </trkpt>
      <trkpt lat="-2.573580" lon="-78.827339">
        <ele>3138.00</ele>
        <time>2018-09-08T22:07:58Z</time>
      </trkpt>
      <trkpt lat="-2.573691" lon="-78.827423">
        <ele>3137.00</ele>
        <time>2018-09-08T22:07:59Z</time>
      </trkpt>
      <trkpt lat="-2.573824" lon="-78.827499">
        <ele>3137.00</ele>
        <time>2018-09-08T22:08:00Z</time>
      </trkpt>
      <trkpt lat="-2.573968" lon="-78.827583">
        <ele>3137.00</ele>
        <time>2018-09-08T22:08:01Z</time>
      </trkpt>
      <trkpt lat="-2.574111" lon="-78.827675">
        <ele>3137.00</ele>
        <time>2018-09-08T22:08:02Z</time>
      </trkpt>
      <trkpt lat="-2.574253" lon="-78.827766">
        <ele>3137.00</ele>
        <time>2018-09-08T22:08:03Z</time>
      </trkpt>
      <trkpt lat="-2.574382" lon="-78.827873">
        <ele>3138.00</ele>
        <time>2018-09-08T22:08:04Z</time>
      </trkpt>
      <trkpt lat="-2.574492" lon="-78.827972">
        <ele>3137.00</ele>
        <time>2018-09-08T22:08:05Z</time>
      </trkpt>
      <trkpt lat="-2.574588" lon="-78.828064">
        <ele>3137.00</ele>
        <time>2018-09-08T22:08:06Z</time>
      </trkpt>
      <trkpt lat="-2.574682" lon="-78.828140">
        <ele>3137.00</ele>
        <time>2018-09-08T22:08:07Z</time>
      </trkpt>
      <trkpt lat="-2.574797" lon="-78.828224">
        <ele>3137.00</ele>
        <time>2018-09-08T22:08:08Z</time>
      </trkpt>
      <trkpt lat="-2.574934" lon="-78.828285">
        <ele>3136.00</ele>
        <time>2018-09-08T22:08:09Z</time>
      </trkpt>
      <trkpt lat="-2.575083" lon="-78.828354">
        <ele>3136.00</ele>
        <time>2018-09-08T22:08:10Z</time>
      </trkpt>
      <trkpt lat="-2.575244" lon="-78.828415">
        <ele>3136.00</ele>
        <time>2018-09-08T22:08:11Z</time>
      </trkpt>
      <trkpt lat="-2.575413" lon="-78.828461">
        <ele>3135.00</ele>
        <time>2018-09-08T22:08:12Z</time>
      </trkpt>
      <trkpt lat="-2.575584" lon="-78.828514">
        <ele>3135.00</ele>
        <time>2018-09-08T22:08:13Z</time>
      </trkpt>
      <trkpt lat="-2.575763" lon="-78.828568">
        <ele>3135.00</ele>
        <time>2018-09-08T22:08:14Z</time>
      </trkpt>
      <trkpt lat="-2.575949" lon="-78.828613">
        <ele>3135.00</ele>
        <time>2018-09-08T22:08:15Z</time>
      </trkpt>
      <trkpt lat="-2.576136" lon="-78.828651">
        <ele>3135.00</ele>
        <time>2018-09-08T22:08:16Z</time>
      </trkpt>
      <trkpt lat="-2.576309" lon="-78.828667">
        <ele>3134.00</ele>
        <time>2018-09-08T22:08:17Z</time>
      </trkpt>
      <trkpt lat="-2.576463" lon="-78.828682">
        <ele>3134.00</ele>
        <time>2018-09-08T22:08:18Z</time>
      </trkpt>
      <trkpt lat="-2.576602" lon="-78.828690">
        <ele>3134.00</ele>
        <time>2018-09-08T22:08:19Z</time>
      </trkpt>
      <trkpt lat="-2.576723" lon="-78.828720">
        <ele>3134.00</ele>
        <time>2018-09-08T22:08:20Z</time>
      </trkpt>
      <trkpt lat="-2.576842" lon="-78.828758">
        <ele>3134.00</ele>
        <time>2018-09-08T22:08:21Z</time>
      </trkpt>
      <trkpt lat="-2.576957" lon="-78.828819">
        <ele>3134.00</ele>
        <time>2018-09-08T22:08:22Z</time>
      </trkpt>
      <trkpt lat="-2.577054" lon="-78.828896">
        <ele>3133.00</ele>
        <time>2018-09-08T22:08:23Z</time>
      </trkpt>
      <trkpt lat="-2.577128" lon="-78.828987">
        <ele>3133.00</ele>
        <time>2018-09-08T22:08:24Z</time>
      </trkpt>
      <trkpt lat="-2.577183" lon="-78.829094">
        <ele>3133.00</ele>
        <time>2018-09-08T22:08:25Z</time>
      </trkpt>
      <trkpt lat="-2.577224" lon="-78.829201">
        <ele>3133.00</ele>
        <time>2018-09-08T22:08:26Z</time>
      </trkpt>
      <trkpt lat="-2.577272" lon="-78.829277">
        <ele>3132.00</ele>
        <time>2018-09-08T22:08:27Z</time>
      </trkpt>
      <trkpt lat="-2.577351" lon="-78.829369">
        <ele>3132.00</ele>
        <time>2018-09-08T22:08:28Z</time>
      </trkpt>
      <trkpt lat="-2.577457" lon="-78.829453">
        <ele>3132.00</ele>
        <time>2018-09-08T22:08:29Z</time>
      </trkpt>
      <trkpt lat="-2.577580" lon="-78.829529">
        <ele>3132.00</ele>
        <time>2018-09-08T22:08:30Z</time>
      </trkpt>
      <trkpt lat="-2.577708" lon="-78.829605">
        <ele>3132.00</ele>
        <time>2018-09-08T22:08:31Z</time>
      </trkpt>
      <trkpt lat="-2.577840" lon="-78.829681">
        <ele>3132.00</ele>
        <time>2018-09-08T22:08:32Z</time>
      </trkpt>
      <trkpt lat="-2.577973" lon="-78.829758">
        <ele>3132.00</ele>
        <time>2018-09-08T22:08:33Z</time>
      </trkpt>
      <trkpt lat="-2.578101" lon="-78.829834">
        <ele>3132.00</ele>
        <time>2018-09-08T22:08:34Z</time>
      </trkpt>
      <trkpt lat="-2.578216" lon="-78.829887">
        <ele>3132.00</ele>
        <time>2018-09-08T22:08:35Z</time>
      </trkpt>
      <trkpt lat="-2.578312" lon="-78.829948">
        <ele>3132.00</ele>
        <time>2018-09-08T22:08:36Z</time>
      </trkpt>
      <trkpt lat="-2.578410" lon="-78.830002">
        <ele>3132.00</ele>
        <time>2018-09-08T22:08:37Z</time>
      </trkpt>
      <trkpt lat="-2.578523" lon="-78.830063">
        <ele>3132.00</ele>
        <time>2018-09-08T22:08:38Z</time>
      </trkpt>
      <trkpt lat="-2.578654" lon="-78.830109">
        <ele>3132.00</ele>
        <time>2018-09-08T22:08:39Z</time>
      </trkpt>
      <trkpt lat="-2.578799" lon="-78.830154">
        <ele>3131.00</ele>
        <time>2018-09-08T22:08:40Z</time>
      </trkpt>
      <trkpt lat="-2.578944" lon="-78.830208">
        <ele>3131.00</ele>
        <time>2018-09-08T22:08:41Z</time>
      </trkpt>
      <trkpt lat="-2.579086" lon="-78.830269">
        <ele>3131.00</ele>
        <time>2018-09-08T22:08:42Z</time>
      </trkpt>
      <trkpt lat="-2.579214" lon="-78.830315">
        <ele>3131.00</ele>
        <time>2018-09-08T22:08:43Z</time>
      </trkpt>
      <trkpt lat="-2.579327" lon="-78.830353">
        <ele>3131.00</ele>
        <time>2018-09-08T22:08:44Z</time>
      </trkpt>
      <trkpt lat="-2.579429" lon="-78.830391">
        <ele>3130.00</ele>
        <time>2018-09-08T22:08:45Z</time>
      </trkpt>
      <trkpt lat="-2.579518" lon="-78.830421">
        <ele>3131.00</ele>
        <time>2018-09-08T22:08:46Z</time>
      </trkpt>
      <trkpt lat="-2.579587" lon="-78.830437">
        <ele>3131.00</ele>
        <time>2018-09-08T22:08:47Z</time>
      </trkpt>
      <trkpt lat="-2.579630" lon="-78.830429">
        <ele>3131.00</ele>
        <time>2018-09-08T22:08:48Z</time>
      </trkpt>
      <trkpt lat="-2.579630" lon="-78.830429">
        <ele>3131.00</ele>
        <time>2018-09-08T22:08:49Z</time>
      </trkpt>
      <trkpt lat="-2.579678" lon="-78.830421">
        <ele>3131.00</ele>
        <time>2018-09-08T22:08:50Z</time>
      </trkpt>
      <trkpt lat="-2.579717" lon="-78.830437">
        <ele>3131.00</ele>
        <time>2018-09-08T22:08:51Z</time>
      </trkpt>
      <trkpt lat="-2.579766" lon="-78.830475">
        <ele>3131.00</ele>
        <time>2018-09-08T22:08:52Z</time>
      </trkpt>
      <trkpt lat="-2.579812" lon="-78.830551">
        <ele>3131.00</ele>
        <time>2018-09-08T22:08:53Z</time>
      </trkpt>
      <trkpt lat="-2.579845" lon="-78.830658">
        <ele>3130.00</ele>
        <time>2018-09-08T22:08:54Z</time>
      </trkpt>
      <trkpt lat="-2.579880" lon="-78.830750">
        <ele>3130.00</ele>
        <time>2018-09-08T22:08:55Z</time>
      </trkpt>
      <trkpt lat="-2.579911" lon="-78.830803">
        <ele>3130.00</ele>
        <time>2018-09-08T22:08:56Z</time>
      </trkpt>
      <trkpt lat="-2.579947" lon="-78.830841">
        <ele>3130.00</ele>
        <time>2018-09-08T22:08:57Z</time>
      </trkpt>
      <trkpt lat="-2.580000" lon="-78.830833">
        <ele>3130.00</ele>
        <time>2018-09-08T22:08:58Z</time>
      </trkpt>
      <trkpt lat="-2.580040" lon="-78.830772">
        <ele>3130.00</ele>
        <time>2018-09-08T22:08:59Z</time>
      </trkpt>
      <trkpt lat="-2.580075" lon="-78.830696">
        <ele>3130.00</ele>
        <time>2018-09-08T22:09:00Z</time>
      </trkpt>
      <trkpt lat="-2.580107" lon="-78.830605">
        <ele>3130.00</ele>
        <time>2018-09-08T22:09:01Z</time>
      </trkpt>
      <trkpt lat="-2.580140" lon="-78.830498">
        <ele>3130.00</ele>
        <time>2018-09-08T22:09:02Z</time>
      </trkpt>
      <trkpt lat="-2.580173" lon="-78.830391">
        <ele>3130.00</ele>
        <time>2018-09-08T22:09:03Z</time>
      </trkpt>
      <trkpt lat="-2.580202" lon="-78.830292">
        <ele>3130.00</ele>
        <time>2018-09-08T22:09:04Z</time>
      </trkpt>
      <trkpt lat="-2.580232" lon="-78.830177">
        <ele>3130.00</ele>
        <time>2018-09-08T22:09:05Z</time>
      </trkpt>
      <trkpt lat="-2.580300" lon="-78.830070">
        <ele>3130.00</ele>
        <time>2018-09-08T22:09:06Z</time>
      </trkpt>
      <trkpt lat="-2.580385" lon="-78.829964">
        <ele>3130.00</ele>
        <time>2018-09-08T22:09:07Z</time>
      </trkpt>
      <trkpt lat="-2.580467" lon="-78.829834">
        <ele>3130.00</ele>
        <time>2018-09-08T22:09:08Z</time>
      </trkpt>
      <trkpt lat="-2.580521" lon="-78.829697">
        <ele>3129.00</ele>
        <time>2018-09-08T22:09:09Z</time>
      </trkpt>
      <trkpt lat="-2.580560" lon="-78.829575">
        <ele>3130.00</ele>
        <time>2018-09-08T22:09:10Z</time>
      </trkpt>
      <trkpt lat="-2.580623" lon="-78.829460">
        <ele>3130.00</ele>
        <time>2018-09-08T22:09:11Z</time>
      </trkpt>
      <trkpt lat="-2.580711" lon="-78.829361">
        <ele>3130.00</ele>
        <time>2018-09-08T22:09:12Z</time>
      </trkpt>
      <trkpt lat="-2.580812" lon="-78.829269">
        <ele>3131.00</ele>
        <time>2018-09-08T22:09:13Z</time>
      </trkpt>
      <trkpt lat="-2.580929" lon="-78.829201">
        <ele>3131.00</ele>
        <time>2018-09-08T22:09:14Z</time>
      </trkpt>
      <trkpt lat="-2.581052" lon="-78.829140">
        <ele>3132.00</ele>
        <time>2018-09-08T22:09:15Z</time>
      </trkpt>
      <trkpt lat="-2.581174" lon="-78.829063">
        <ele>3133.00</ele>
        <time>2018-09-08T22:09:16Z</time>
      </trkpt>
      <trkpt lat="-2.581281" lon="-78.828987">
        <ele>3133.00</ele>
        <time>2018-09-08T22:09:17Z</time>
      </trkpt>
      <trkpt lat="-2.581363" lon="-78.828888">
        <ele>3134.00</ele>
        <time>2018-09-08T22:09:18Z</time>
      </trkpt>
      <trkpt lat="-2.581434" lon="-78.828789">
        <ele>3135.00</ele>
        <time>2018-09-08T22:09:19Z</time>
      </trkpt>
      <trkpt lat="-2.581521" lon="-78.828712">
        <ele>3136.00</ele>
        <time>2018-09-08T22:09:20Z</time>
      </trkpt>
      <trkpt lat="-2.581630" lon="-78.828644">
        <ele>3136.00</ele>
        <time>2018-09-08T22:09:21Z</time>
      </trkpt>
      <trkpt lat="-2.581735" lon="-78.828560">
        <ele>3137.00</ele>
        <time>2018-09-08T22:09:22Z</time>
      </trkpt>
      <trkpt lat="-2.581821" lon="-78.828453">
        <ele>3138.00</ele>
        <time>2018-09-08T22:09:23Z</time>
      </trkpt>
      <trkpt lat="-2.581899" lon="-78.828339">
        <ele>3139.00</ele>
        <time>2018-09-08T22:09:24Z</time>
      </trkpt>
      <trkpt lat="-2.581975" lon="-78.828224">
        <ele>3140.00</ele>
        <time>2018-09-08T22:09:25Z</time>
      </trkpt>
      <trkpt lat="-2.582055" lon="-78.828094">
        <ele>3141.00</ele>
        <time>2018-09-08T22:09:26Z</time>
      </trkpt>
      <trkpt lat="-2.582133" lon="-78.827972">
        <ele>3141.00</ele>
        <time>2018-09-08T22:09:27Z</time>
      </trkpt>
      <trkpt lat="-2.582204" lon="-78.827843">
        <ele>3142.00</ele>
        <time>2018-09-08T22:09:28Z</time>
      </trkpt>
      <trkpt lat="-2.582277" lon="-78.827698">
        <ele>3143.00</ele>
        <time>2018-09-08T22:09:29Z</time>
      </trkpt>
      <trkpt lat="-2.582353" lon="-78.827568">
        <ele>3143.00</ele>
        <time>2018-09-08T22:09:30Z</time>
      </trkpt>
      <trkpt lat="-2.582430" lon="-78.827431">
        <ele>3144.00</ele>
        <time>2018-09-08T22:09:31Z</time>
      </trkpt>
      <trkpt lat="-2.582503" lon="-78.827316">
        <ele>3144.00</ele>
        <time>2018-09-08T22:09:32Z</time>
      </trkpt>
      <trkpt lat="-2.582588" lon="-78.827209">
        <ele>3145.00</ele>
        <time>2018-09-08T22:09:33Z</time>
      </trkpt>
      <trkpt lat="-2.582684" lon="-78.827110">
        <ele>3145.00</ele>
        <time>2018-09-08T22:09:34Z</time>
      </trkpt>
      <trkpt lat="-2.582789" lon="-78.827011">
        <ele>3145.00</ele>
        <time>2018-09-08T22:09:35Z</time>
      </trkpt>
      <trkpt lat="-2.582909" lon="-78.826935">
        <ele>3146.00</ele>
        <time>2018-09-08T22:09:36Z</time>
      </trkpt>
      <trkpt lat="-2.583051" lon="-78.826889">
        <ele>3146.00</ele>
        <time>2018-09-08T22:09:37Z</time>
      </trkpt>
      <trkpt lat="-2.583200" lon="-78.826843">
        <ele>3146.00</ele>
        <time>2018-09-08T22:09:38Z</time>
      </trkpt>
      <trkpt lat="-2.583340" lon="-78.826797">
        <ele>3147.00</ele>
        <time>2018-09-08T22:09:39Z</time>
      </trkpt>
      <trkpt lat="-2.583462" lon="-78.826736">
        <ele>3147.00</ele>
        <time>2018-09-08T22:09:40Z</time>
      </trkpt>
      <trkpt lat="-2.583564" lon="-78.826668">
        <ele>3147.00</ele>
        <time>2018-09-08T22:09:41Z</time>
      </trkpt>
      <trkpt lat="-2.583651" lon="-78.826569">
        <ele>3148.00</ele>
        <time>2018-09-08T22:09:42Z</time>
      </trkpt>
      <trkpt lat="-2.583718" lon="-78.826447">
        <ele>3148.00</ele>
        <time>2018-09-08T22:09:43Z</time>
      </trkpt>
      <trkpt lat="-2.583747" lon="-78.826294">
        <ele>3148.00</ele>
        <time>2018-09-08T22:09:44Z</time>
      </trkpt>
      <trkpt lat="-2.583780" lon="-78.826134">
        <ele>3149.00</ele>
        <time>2018-09-08T22:09:45Z</time>
      </trkpt>
      <trkpt lat="-2.583812" lon="-78.825966">
        <ele>3149.00</ele>
        <time>2018-09-08T22:09:46Z</time>
      </trkpt>
      <trkpt lat="-2.583853" lon="-78.825798">
        <ele>3149.00</ele>
        <time>2018-09-08T22:09:47Z</time>
      </trkpt>
      <trkpt lat="-2.583895" lon="-78.825630">
        <ele>3149.00</ele>
        <time>2018-09-08T22:09:48Z</time>
      </trkpt>
      <trkpt lat="-2.583937" lon="-78.825470">
        <ele>3149.00</ele>
        <time>2018-09-08T22:09:49Z</time>
      </trkpt>
      <trkpt lat="-2.583978" lon="-78.825317">
        <ele>3149.00</ele>
        <time>2018-09-08T22:09:50Z</time>
      </trkpt>
      <trkpt lat="-2.584013" lon="-78.825165">
        <ele>3149.00</ele>
        <time>2018-09-08T22:09:51Z</time>
      </trkpt>
      <trkpt lat="-2.584035" lon="-78.825027">
        <ele>3150.00</ele>
        <time>2018-09-08T22:09:52Z</time>
      </trkpt>
      <trkpt lat="-2.584051" lon="-78.824890">
        <ele>3149.00</ele>
        <time>2018-09-08T22:09:53Z</time>
      </trkpt>
      <trkpt lat="-2.584063" lon="-78.824738">
        <ele>3149.00</ele>
        <time>2018-09-08T22:09:54Z</time>
      </trkpt>
      <trkpt lat="-2.584070" lon="-78.824570">
        <ele>3148.00</ele>
        <time>2018-09-08T22:09:55Z</time>
      </trkpt>
      <trkpt lat="-2.584072" lon="-78.824379">
        <ele>3147.00</ele>
        <time>2018-09-08T22:09:56Z</time>
      </trkpt>
      <trkpt lat="-2.584061" lon="-78.824203">
        <ele>3147.00</ele>
        <time>2018-09-08T22:09:57Z</time>
      </trkpt>
      <trkpt lat="-2.584031" lon="-78.824020">
        <ele>3146.00</ele>
        <time>2018-09-08T22:09:58Z</time>
      </trkpt>
      <trkpt lat="-2.583994" lon="-78.823830">
        <ele>3146.00</ele>
        <time>2018-09-08T22:09:59Z</time>
      </trkpt>
      <trkpt lat="-2.583964" lon="-78.823647">
        <ele>3145.00</ele>
        <time>2018-09-08T22:10:00Z</time>
      </trkpt>
      <trkpt lat="-2.583952" lon="-78.823448">
        <ele>3145.00</ele>
        <time>2018-09-08T22:10:01Z</time>
      </trkpt>
      <trkpt lat="-2.583940" lon="-78.823273">
        <ele>3144.00</ele>
        <time>2018-09-08T22:10:02Z</time>
      </trkpt>
      <trkpt lat="-2.583930" lon="-78.823105">
        <ele>3144.00</ele>
        <time>2018-09-08T22:10:03Z</time>
      </trkpt>
      <trkpt lat="-2.583920" lon="-78.822960">
        <ele>3144.00</ele>
        <time>2018-09-08T22:10:04Z</time>
      </trkpt>
      <trkpt lat="-2.583924" lon="-78.822807">
        <ele>3143.00</ele>
        <time>2018-09-08T22:10:05Z</time>
      </trkpt>
      <trkpt lat="-2.583949" lon="-78.822655">
        <ele>3143.00</ele>
        <time>2018-09-08T22:10:06Z</time>
      </trkpt>
      <trkpt lat="-2.583969" lon="-78.822510">
        <ele>3143.00</ele>
        <time>2018-09-08T22:10:07Z</time>
      </trkpt>
      <trkpt lat="-2.583964" lon="-78.822350">
        <ele>3143.00</ele>
        <time>2018-09-08T22:10:08Z</time>
      </trkpt>
      <trkpt lat="-2.583941" lon="-78.822189">
        <ele>3143.00</ele>
        <time>2018-09-08T22:10:09Z</time>
      </trkpt>
      <trkpt lat="-2.583929" lon="-78.822021">
        <ele>3143.00</ele>
        <time>2018-09-08T22:10:10Z</time>
      </trkpt>
      <trkpt lat="-2.583932" lon="-78.821838">
        <ele>3143.00</ele>
        <time>2018-09-08T22:10:11Z</time>
      </trkpt>
      <trkpt lat="-2.583935" lon="-78.821671">
        <ele>3144.00</ele>
        <time>2018-09-08T22:10:12Z</time>
      </trkpt>
      <trkpt lat="-2.583949" lon="-78.821510">
        <ele>3144.00</ele>
        <time>2018-09-08T22:10:13Z</time>
      </trkpt>
      <trkpt lat="-2.583961" lon="-78.821358">
        <ele>3144.00</ele>
        <time>2018-09-08T22:10:14Z</time>
      </trkpt>
      <trkpt lat="-2.583975" lon="-78.821198">
        <ele>3145.00</ele>
        <time>2018-09-08T22:10:15Z</time>
      </trkpt>
      <trkpt lat="-2.583992" lon="-78.821068">
        <ele>3145.00</ele>
        <time>2018-09-08T22:10:16Z</time>
      </trkpt>
      <trkpt lat="-2.584015" lon="-78.820946">
        <ele>3145.00</ele>
        <time>2018-09-08T22:10:17Z</time>
      </trkpt>
      <trkpt lat="-2.584056" lon="-78.820839">
        <ele>3145.00</ele>
        <time>2018-09-08T22:10:18Z</time>
      </trkpt>
      <trkpt lat="-2.584106" lon="-78.820747">
        <ele>3145.00</ele>
        <time>2018-09-08T22:10:19Z</time>
      </trkpt>
      <trkpt lat="-2.584144" lon="-78.820663">
        <ele>3145.00</ele>
        <time>2018-09-08T22:10:20Z</time>
      </trkpt>
      <trkpt lat="-2.584154" lon="-78.820580">
        <ele>3145.00</ele>
        <time>2018-09-08T22:10:21Z</time>
      </trkpt>
      <trkpt lat="-2.584125" lon="-78.820473">
        <ele>3145.00</ele>
        <time>2018-09-08T22:10:22Z</time>
      </trkpt>
      <trkpt lat="-2.584080" lon="-78.820358">
        <ele>3145.00</ele>
        <time>2018-09-08T22:10:23Z</time>
      </trkpt>
      <trkpt lat="-2.584034" lon="-78.820251">
        <ele>3144.00</ele>
        <time>2018-09-08T22:10:24Z</time>
      </trkpt>
      <trkpt lat="-2.583992" lon="-78.820145">
        <ele>3144.00</ele>
        <time>2018-09-08T22:10:25Z</time>
      </trkpt>
      <trkpt lat="-2.583960" lon="-78.820038">
        <ele>3144.00</ele>
        <time>2018-09-08T22:10:26Z</time>
      </trkpt>
      <trkpt lat="-2.583928" lon="-78.819931">
        <ele>3144.00</ele>
        <time>2018-09-08T22:10:27Z</time>
      </trkpt>
      <trkpt lat="-2.583902" lon="-78.819847">
        <ele>3143.00</ele>
        <time>2018-09-08T22:10:28Z</time>
      </trkpt>
      <trkpt lat="-2.583882" lon="-78.819778">
        <ele>3142.00</ele>
        <time>2018-09-08T22:10:29Z</time>
      </trkpt>
      <trkpt lat="-2.583867" lon="-78.819710">
        <ele>3142.00</ele>
        <time>2018-09-08T22:10:30Z</time>
      </trkpt>
      <trkpt lat="-2.583863" lon="-78.819626">
        <ele>3142.00</ele>
        <time>2018-09-08T22:10:31Z</time>
      </trkpt>
      <trkpt lat="-2.583871" lon="-78.819527">
        <ele>3142.00</ele>
        <time>2018-09-08T22:10:32Z</time>
      </trkpt>
      <trkpt lat="-2.583875" lon="-78.819427">
        <ele>3142.00</ele>
        <time>2018-09-08T22:10:33Z</time>
      </trkpt>
      <trkpt lat="-2.583877" lon="-78.819359">
        <ele>3142.00</ele>
        <time>2018-09-08T22:10:34Z</time>
      </trkpt>
      <trkpt lat="-2.583874" lon="-78.819313">
        <ele>3142.00</ele>
        <time>2018-09-08T22:10:35Z</time>
      </trkpt>
      <trkpt lat="-2.583874" lon="-78.819313">
        <ele>3142.00</ele>
        <time>2018-09-08T22:10:36Z</time>
      </trkpt>
      <trkpt lat="-2.583874" lon="-78.819313">
        <ele>3142.00</ele>
        <time>2018-09-08T22:10:37Z</time>
      </trkpt>
      <trkpt lat="-2.583874" lon="-78.819313">
        <ele>3142.00</ele>
        <time>2018-09-08T22:10:38Z</time>
      </trkpt>
      <trkpt lat="-2.583874" lon="-78.819313">
        <ele>3142.00</ele>
        <time>2018-09-08T22:10:39Z</time>
      </trkpt>
      <trkpt lat="-2.583874" lon="-78.819313">
        <ele>3142.00</ele>
        <time>2018-09-08T22:10:40Z</time>
      </trkpt>
      <trkpt lat="-2.583855" lon="-78.819275">
        <ele>3142.00</ele>
        <time>2018-09-08T22:10:41Z</time>
      </trkpt>
      <trkpt lat="-2.583855" lon="-78.819275">
        <ele>3142.00</ele>
        <time>2018-09-08T22:10:42Z</time>
      </trkpt>
      <trkpt lat="-2.583855" lon="-78.819275">
        <ele>3142.00</ele>
        <time>2018-09-08T22:10:43Z</time>
      </trkpt>
      <trkpt lat="-2.583855" lon="-78.819275">
        <ele>3142.00</ele>
        <time>2018-09-08T22:10:44Z</time>
      </trkpt>
      <trkpt lat="-2.583855" lon="-78.819275">
        <ele>3142.00</ele>
        <time>2018-09-08T22:10:45Z</time>
      </trkpt>
      <trkpt lat="-2.583855" lon="-78.819275">
        <ele>3142.00</ele>
        <time>2018-09-08T22:10:46Z</time>
      </trkpt>
      <trkpt lat="-2.583855" lon="-78.819275">
        <ele>3142.00</ele>
        <time>2018-09-08T22:10:47Z</time>
      </trkpt>
      <trkpt lat="-2.583855" lon="-78.819275">
        <ele>3142.00</ele>
        <time>2018-09-08T22:10:48Z</time>
      </trkpt>
      <trkpt lat="-2.583855" lon="-78.819275">
        <ele>3142.00</ele>
        <time>2018-09-08T22:10:49Z</time>
      </trkpt>
      <trkpt lat="-2.583853" lon="-78.819244">
        <ele>3142.00</ele>
        <time>2018-09-08T22:10:50Z</time>
      </trkpt>
      <trkpt lat="-2.583843" lon="-78.819199">
        <ele>3142.00</ele>
        <time>2018-09-08T22:10:51Z</time>
      </trkpt>
      <trkpt lat="-2.583823" lon="-78.819130">
        <ele>3143.00</ele>
        <time>2018-09-08T22:10:52Z</time>
      </trkpt>
      <trkpt lat="-2.583792" lon="-78.819046">
        <ele>3143.00</ele>
        <time>2018-09-08T22:10:53Z</time>
      </trkpt>
      <trkpt lat="-2.583759" lon="-78.818962">
        <ele>3143.00</ele>
        <time>2018-09-08T22:10:54Z</time>
      </trkpt>
      <trkpt lat="-2.583735" lon="-78.818855">
        <ele>3143.00</ele>
        <time>2018-09-08T22:10:55Z</time>
      </trkpt>
      <trkpt lat="-2.583707" lon="-78.818741">
        <ele>3143.00</ele>
        <time>2018-09-08T22:10:56Z</time>
      </trkpt>
      <trkpt lat="-2.583682" lon="-78.818619">
        <ele>3144.00</ele>
        <time>2018-09-08T22:10:57Z</time>
      </trkpt>
      <trkpt lat="-2.583661" lon="-78.818504">
        <ele>3144.00</ele>
        <time>2018-09-08T22:10:58Z</time>
      </trkpt>
      <trkpt lat="-2.583646" lon="-78.818375">
        <ele>3144.00</ele>
        <time>2018-09-08T22:10:59Z</time>
      </trkpt>
      <trkpt lat="-2.583637" lon="-78.818237">
        <ele>3144.00</ele>
        <time>2018-09-08T22:11:00Z</time>
      </trkpt>
      <trkpt lat="-2.583636" lon="-78.818115">
        <ele>3144.00</ele>
        <time>2018-09-08T22:11:01Z</time>
      </trkpt>
      <trkpt lat="-2.583630" lon="-78.818008">
        <ele>3144.00</ele>
        <time>2018-09-08T22:11:02Z</time>
      </trkpt>
      <trkpt lat="-2.583627" lon="-78.817909">
        <ele>3145.00</ele>
        <time>2018-09-08T22:11:03Z</time>
      </trkpt>
      <trkpt lat="-2.583633" lon="-78.817825">
        <ele>3145.00</ele>
        <time>2018-09-08T22:11:04Z</time>
      </trkpt>
      <trkpt lat="-2.583637" lon="-78.817726">
        <ele>3145.00</ele>
        <time>2018-09-08T22:11:05Z</time>
      </trkpt>
      <trkpt lat="-2.583649" lon="-78.817642">
        <ele>3145.00</ele>
        <time>2018-09-08T22:11:06Z</time>
      </trkpt>
      <trkpt lat="-2.583659" lon="-78.817581">
        <ele>3145.00</ele>
        <time>2018-09-08T22:11:07Z</time>
      </trkpt>
      <trkpt lat="-2.583673" lon="-78.817520">
        <ele>3145.00</ele>
        <time>2018-09-08T22:11:08Z</time>
      </trkpt>
      <trkpt lat="-2.583693" lon="-78.817459">
        <ele>3145.00</ele>
        <time>2018-09-08T22:11:09Z</time>
      </trkpt>
      <trkpt lat="-2.583719" lon="-78.817398">
        <ele>3145.00</ele>
        <time>2018-09-08T22:11:10Z</time>
      </trkpt>
      <trkpt lat="-2.583745" lon="-78.817352">
        <ele>3145.00</ele>
        <time>2018-09-08T22:11:11Z</time>
      </trkpt>
      <trkpt lat="-2.583779" lon="-78.817299">
        <ele>3145.00</ele>
        <time>2018-09-08T22:11:12Z</time>
      </trkpt>
      <trkpt lat="-2.583815" lon="-78.817261">
        <ele>3145.00</ele>
        <time>2018-09-08T22:11:13Z</time>
      </trkpt>
      <trkpt lat="-2.583844" lon="-78.817215">
        <ele>3145.00</ele>
        <time>2018-09-08T22:11:14Z</time>
      </trkpt>
      <trkpt lat="-2.583870" lon="-78.817162">
        <ele>3145.00</ele>
        <time>2018-09-08T22:11:15Z</time>
      </trkpt>
      <trkpt lat="-2.583899" lon="-78.817108">
        <ele>3146.00</ele>
        <time>2018-09-08T22:11:16Z</time>
      </trkpt>
      <trkpt lat="-2.583935" lon="-78.817055">
        <ele>3146.00</ele>
        <time>2018-09-08T22:11:17Z</time>
      </trkpt>
      <trkpt lat="-2.583972" lon="-78.817017">
        <ele>3146.00</ele>
        <time>2018-09-08T22:11:18Z</time>
      </trkpt>
      <trkpt lat="-2.584001" lon="-78.816978">
        <ele>3146.00</ele>
        <time>2018-09-08T22:11:19Z</time>
      </trkpt>
      <trkpt lat="-2.584023" lon="-78.816925">
        <ele>3145.00</ele>
        <time>2018-09-08T22:11:20Z</time>
      </trkpt>
      <trkpt lat="-2.584043" lon="-78.816864">
        <ele>3145.00</ele>
        <time>2018-09-08T22:11:21Z</time>
      </trkpt>
      <trkpt lat="-2.584065" lon="-78.816788">
        <ele>3145.00</ele>
        <time>2018-09-08T22:11:22Z</time>
      </trkpt>
      <trkpt lat="-2.584087" lon="-78.816719">
        <ele>3145.00</ele>
        <time>2018-09-08T22:11:23Z</time>
      </trkpt>
      <trkpt lat="-2.584111" lon="-78.816658">
        <ele>3145.00</ele>
        <time>2018-09-08T22:11:24Z</time>
      </trkpt>
      <trkpt lat="-2.584127" lon="-78.816589">
        <ele>3145.00</ele>
        <time>2018-09-08T22:11:25Z</time>
      </trkpt>
      <trkpt lat="-2.584141" lon="-78.816505">
        <ele>3145.00</ele>
        <time>2018-09-08T22:11:26Z</time>
      </trkpt>
      <trkpt lat="-2.584143" lon="-78.816437">
        <ele>3145.00</ele>
        <time>2018-09-08T22:11:27Z</time>
      </trkpt>
      <trkpt lat="-2.584147" lon="-78.816368">
        <ele>3145.00</ele>
        <time>2018-09-08T22:11:28Z</time>
      </trkpt>
      <trkpt lat="-2.584161" lon="-78.816292">
        <ele>3146.00</ele>
        <time>2018-09-08T22:11:29Z</time>
      </trkpt>
      <trkpt lat="-2.584180" lon="-78.816223">
        <ele>3146.00</ele>
        <time>2018-09-08T22:11:30Z</time>
      </trkpt>
      <trkpt lat="-2.584213" lon="-78.816154">
        <ele>3146.00</ele>
        <time>2018-09-08T22:11:31Z</time>
      </trkpt>
      <trkpt lat="-2.584242" lon="-78.816071">
        <ele>3147.00</ele>
        <time>2018-09-08T22:11:32Z</time>
      </trkpt>
      <trkpt lat="-2.584260" lon="-78.816002">
        <ele>3147.00</ele>
        <time>2018-09-08T22:11:33Z</time>
      </trkpt>
      <trkpt lat="-2.584280" lon="-78.815948">
        <ele>3147.00</ele>
        <time>2018-09-08T22:11:34Z</time>
      </trkpt>
      <trkpt lat="-2.584295" lon="-78.815903">
        <ele>3147.00</ele>
        <time>2018-09-08T22:11:35Z</time>
      </trkpt>
      <trkpt lat="-2.584299" lon="-78.815849">
        <ele>3147.00</ele>
        <time>2018-09-08T22:11:36Z</time>
      </trkpt>
      <trkpt lat="-2.584316" lon="-78.815788">
        <ele>3147.00</ele>
        <time>2018-09-08T22:11:37Z</time>
      </trkpt>
      <trkpt lat="-2.584332" lon="-78.815727">
        <ele>3147.00</ele>
        <time>2018-09-08T22:11:38Z</time>
      </trkpt>
      <trkpt lat="-2.584345" lon="-78.815659">
        <ele>3147.00</ele>
        <time>2018-09-08T22:11:39Z</time>
      </trkpt>
      <trkpt lat="-2.584352" lon="-78.815590">
        <ele>3147.00</ele>
        <time>2018-09-08T22:11:40Z</time>
      </trkpt>
      <trkpt lat="-2.584347" lon="-78.815529">
        <ele>3147.00</ele>
        <time>2018-09-08T22:11:41Z</time>
      </trkpt>
      <trkpt lat="-2.584336" lon="-78.815468">
        <ele>3148.00</ele>
        <time>2018-09-08T22:11:42Z</time>
      </trkpt>
      <trkpt lat="-2.584316" lon="-78.815407">
        <ele>3147.00</ele>
        <time>2018-09-08T22:11:43Z</time>
      </trkpt>
      <trkpt lat="-2.584286" lon="-78.815346">
        <ele>3147.00</ele>
        <time>2018-09-08T22:11:44Z</time>
      </trkpt>
      <trkpt lat="-2.584253" lon="-78.815277">
        <ele>3147.00</ele>
        <time>2018-09-08T22:11:45Z</time>
      </trkpt>
      <trkpt lat="-2.584221" lon="-78.815216">
        <ele>3147.00</ele>
        <time>2018-09-08T22:11:46Z</time>
      </trkpt>
      <trkpt lat="-2.584198" lon="-78.815147">
        <ele>3147.00</ele>
        <time>2018-09-08T22:11:47Z</time>
      </trkpt>
      <trkpt lat="-2.584187" lon="-78.815079">
        <ele>3147.00</ele>
        <time>2018-09-08T22:11:48Z</time>
      </trkpt>
      <trkpt lat="-2.584186" lon="-78.815010">
        <ele>3147.00</ele>
        <time>2018-09-08T22:11:49Z</time>
      </trkpt>
      <trkpt lat="-2.584181" lon="-78.814957">
        <ele>3147.00</ele>
        <time>2018-09-08T22:11:50Z</time>
      </trkpt>
      <trkpt lat="-2.584170" lon="-78.814896">
        <ele>3147.00</ele>
        <time>2018-09-08T22:11:51Z</time>
      </trkpt>
      <trkpt lat="-2.584163" lon="-78.814835">
        <ele>3147.00</ele>
        <time>2018-09-08T22:11:52Z</time>
      </trkpt>
      <trkpt lat="-2.584148" lon="-78.814781">
        <ele>3147.00</ele>
        <time>2018-09-08T22:11:53Z</time>
      </trkpt>
      <trkpt lat="-2.584131" lon="-78.814720">
        <ele>3147.00</ele>
        <time>2018-09-08T22:11:54Z</time>
      </trkpt>
      <trkpt lat="-2.584124" lon="-78.814659">
        <ele>3147.00</ele>
        <time>2018-09-08T22:11:55Z</time>
      </trkpt>
      <trkpt lat="-2.584121" lon="-78.814598">
        <ele>3147.00</ele>
        <time>2018-09-08T22:11:56Z</time>
      </trkpt>
      <trkpt lat="-2.584128" lon="-78.814537">
        <ele>3147.00</ele>
        <time>2018-09-08T22:11:57Z</time>
      </trkpt>
      <trkpt lat="-2.584141" lon="-78.814468">
        <ele>3147.00</ele>
        <time>2018-09-08T22:11:58Z</time>
      </trkpt>
      <trkpt lat="-2.584157" lon="-78.814400">
        <ele>3147.00</ele>
        <time>2018-09-08T22:11:59Z</time>
      </trkpt>
      <trkpt lat="-2.584176" lon="-78.814339">
        <ele>3147.00</ele>
        <time>2018-09-08T22:12:00Z</time>
      </trkpt>
      <trkpt lat="-2.584198" lon="-78.814278">
        <ele>3148.00</ele>
        <time>2018-09-08T22:12:01Z</time>
      </trkpt>
      <trkpt lat="-2.584223" lon="-78.814201">
        <ele>3148.00</ele>
        <time>2018-09-08T22:12:02Z</time>
      </trkpt>
      <trkpt lat="-2.584253" lon="-78.814140">
        <ele>3148.00</ele>
        <time>2018-09-08T22:12:03Z</time>
      </trkpt>
      <trkpt lat="-2.584284" lon="-78.814079">
        <ele>3149.00</ele>
        <time>2018-09-08T22:12:04Z</time>
      </trkpt>
      <trkpt lat="-2.584316" lon="-78.814018">
        <ele>3149.00</ele>
        <time>2018-09-08T22:12:05Z</time>
      </trkpt>
      <trkpt lat="-2.584349" lon="-78.813950">
        <ele>3149.00</ele>
        <time>2018-09-08T22:12:06Z</time>
      </trkpt>
      <trkpt lat="-2.584381" lon="-78.813873">
        <ele>3150.00</ele>
        <time>2018-09-08T22:12:07Z</time>
      </trkpt>
      <trkpt lat="-2.584410" lon="-78.813805">
        <ele>3150.00</ele>
        <time>2018-09-08T22:12:08Z</time>
      </trkpt>
      <trkpt lat="-2.584440" lon="-78.813744">
        <ele>3150.00</ele>
        <time>2018-09-08T22:12:09Z</time>
      </trkpt>
      <trkpt lat="-2.584470" lon="-78.813683">
        <ele>3150.00</ele>
        <time>2018-09-08T22:12:10Z</time>
      </trkpt>
      <trkpt lat="-2.584501" lon="-78.813606">
        <ele>3151.00</ele>
        <time>2018-09-08T22:12:11Z</time>
      </trkpt>
      <trkpt lat="-2.584534" lon="-78.813530">
        <ele>3151.00</ele>
        <time>2018-09-08T22:12:12Z</time>
      </trkpt>
      <trkpt lat="-2.584564" lon="-78.813438">
        <ele>3151.00</ele>
        <time>2018-09-08T22:12:13Z</time>
      </trkpt>
      <trkpt lat="-2.584583" lon="-78.813354">
        <ele>3151.00</ele>
        <time>2018-09-08T22:12:14Z</time>
      </trkpt>
      <trkpt lat="-2.584584" lon="-78.813263">
        <ele>3152.00</ele>
        <time>2018-09-08T22:12:15Z</time>
      </trkpt>
      <trkpt lat="-2.584576" lon="-78.813179">
        <ele>3152.00</ele>
        <time>2018-09-08T22:12:16Z</time>
      </trkpt>
      <trkpt lat="-2.584569" lon="-78.813103">
        <ele>3152.00</ele>
        <time>2018-09-08T22:12:17Z</time>
      </trkpt>
      <trkpt lat="-2.584572" lon="-78.813004">
        <ele>3153.00</ele>
        <time>2018-09-08T22:12:18Z</time>
      </trkpt>
      <trkpt lat="-2.584588" lon="-78.812904">
        <ele>3153.00</ele>
        <time>2018-09-08T22:12:19Z</time>
      </trkpt>
      <trkpt lat="-2.584606" lon="-78.812790">
        <ele>3154.00</ele>
        <time>2018-09-08T22:12:20Z</time>
      </trkpt>
      <trkpt lat="-2.584631" lon="-78.812675">
        <ele>3154.00</ele>
        <time>2018-09-08T22:12:21Z</time>
      </trkpt>
      <trkpt lat="-2.584658" lon="-78.812561">
        <ele>3154.00</ele>
        <time>2018-09-08T22:12:22Z</time>
      </trkpt>
      <trkpt lat="-2.584696" lon="-78.812424">
        <ele>3155.00</ele>
        <time>2018-09-08T22:12:23Z</time>
      </trkpt>
      <trkpt lat="-2.584742" lon="-78.812294">
        <ele>3155.00</ele>
        <time>2018-09-08T22:12:24Z</time>
      </trkpt>
      <trkpt lat="-2.584793" lon="-78.812157">
        <ele>3155.00</ele>
        <time>2018-09-08T22:12:25Z</time>
      </trkpt>
      <trkpt lat="-2.584837" lon="-78.812019">
        <ele>3155.00</ele>
        <time>2018-09-08T22:12:26Z</time>
      </trkpt>
      <trkpt lat="-2.584867" lon="-78.811874">
        <ele>3156.00</ele>
        <time>2018-09-08T22:12:27Z</time>
      </trkpt>
      <trkpt lat="-2.584897" lon="-78.811737">
        <ele>3156.00</ele>
        <time>2018-09-08T22:12:28Z</time>
      </trkpt>
      <trkpt lat="-2.584926" lon="-78.811607">
        <ele>3156.00</ele>
        <time>2018-09-08T22:12:29Z</time>
      </trkpt>
      <trkpt lat="-2.584960" lon="-78.811501">
        <ele>3156.00</ele>
        <time>2018-09-08T22:12:30Z</time>
      </trkpt>
      <trkpt lat="-2.584997" lon="-78.811424">
        <ele>3157.00</ele>
        <time>2018-09-08T22:12:31Z</time>
      </trkpt>
      <trkpt lat="-2.585047" lon="-78.811348">
        <ele>3157.00</ele>
        <time>2018-09-08T22:12:32Z</time>
      </trkpt>
      <trkpt lat="-2.585117" lon="-78.811279">
        <ele>3157.00</ele>
        <time>2018-09-08T22:12:33Z</time>
      </trkpt>
      <trkpt lat="-2.585197" lon="-78.811218">
        <ele>3157.00</ele>
        <time>2018-09-08T22:12:34Z</time>
      </trkpt>
      <trkpt lat="-2.585273" lon="-78.811172">
        <ele>3157.00</ele>
        <time>2018-09-08T22:12:35Z</time>
      </trkpt>
      <trkpt lat="-2.585359" lon="-78.811157">
        <ele>3156.00</ele>
        <time>2018-09-08T22:12:36Z</time>
      </trkpt>
      <trkpt lat="-2.585462" lon="-78.811157">
        <ele>3156.00</ele>
        <time>2018-09-08T22:12:37Z</time>
      </trkpt>
      <trkpt lat="-2.585564" lon="-78.811188">
        <ele>3156.00</ele>
        <time>2018-09-08T22:12:38Z</time>
      </trkpt>
      <trkpt lat="-2.585657" lon="-78.811234">
        <ele>3155.00</ele>
        <time>2018-09-08T22:12:39Z</time>
      </trkpt>
      <trkpt lat="-2.585746" lon="-78.811272">
        <ele>3155.00</ele>
        <time>2018-09-08T22:12:40Z</time>
      </trkpt>
      <trkpt lat="-2.585844" lon="-78.811272">
        <ele>3155.00</ele>
        <time>2018-09-08T22:12:41Z</time>
      </trkpt>
      <trkpt lat="-2.585950" lon="-78.811234">
        <ele>3154.00</ele>
        <time>2018-09-08T22:12:42Z</time>
      </trkpt>
      <trkpt lat="-2.586049" lon="-78.811172">
        <ele>3154.00</ele>
        <time>2018-09-08T22:12:43Z</time>
      </trkpt>
      <trkpt lat="-2.586150" lon="-78.811119">
        <ele>3154.00</ele>
        <time>2018-09-08T22:12:44Z</time>
      </trkpt>
      <trkpt lat="-2.586262" lon="-78.811081">
        <ele>3154.00</ele>
        <time>2018-09-08T22:12:45Z</time>
      </trkpt>
      <trkpt lat="-2.586392" lon="-78.811066">
        <ele>3153.00</ele>
        <time>2018-09-08T22:12:46Z</time>
      </trkpt>
      <trkpt lat="-2.586529" lon="-78.811050">
        <ele>3153.00</ele>
        <time>2018-09-08T22:12:47Z</time>
      </trkpt>
      <trkpt lat="-2.586659" lon="-78.811020">
        <ele>3153.00</ele>
        <time>2018-09-08T22:12:48Z</time>
      </trkpt>
      <trkpt lat="-2.586777" lon="-78.810997">
        <ele>3152.00</ele>
        <time>2018-09-08T22:12:49Z</time>
      </trkpt>
      <trkpt lat="-2.586895" lon="-78.810966">
        <ele>3152.00</ele>
        <time>2018-09-08T22:12:50Z</time>
      </trkpt>
      <trkpt lat="-2.587015" lon="-78.810913">
        <ele>3152.00</ele>
        <time>2018-09-08T22:12:51Z</time>
      </trkpt>
      <trkpt lat="-2.587124" lon="-78.810837">
        <ele>3152.00</ele>
        <time>2018-09-08T22:12:52Z</time>
      </trkpt>
      <trkpt lat="-2.587229" lon="-78.810768">
        <ele>3152.00</ele>
        <time>2018-09-08T22:12:53Z</time>
      </trkpt>
      <trkpt lat="-2.587332" lon="-78.810722">
        <ele>3152.00</ele>
        <time>2018-09-08T22:12:54Z</time>
      </trkpt>
      <trkpt lat="-2.587449" lon="-78.810715">
        <ele>3153.00</ele>
        <time>2018-09-08T22:12:55Z</time>
      </trkpt>
      <trkpt lat="-2.587580" lon="-78.810722">
        <ele>3153.00</ele>
        <time>2018-09-08T22:12:56Z</time>
      </trkpt>
      <trkpt lat="-2.587714" lon="-78.810715">
        <ele>3153.00</ele>
        <time>2018-09-08T22:12:57Z</time>
      </trkpt>
      <trkpt lat="-2.587839" lon="-78.810684">
        <ele>3153.00</ele>
        <time>2018-09-08T22:12:58Z</time>
      </trkpt>
      <trkpt lat="-2.587948" lon="-78.810631">
        <ele>3153.00</ele>
        <time>2018-09-08T22:12:59Z</time>
      </trkpt>
      <trkpt lat="-2.588038" lon="-78.810539">
        <ele>3153.00</ele>
        <time>2018-09-08T22:13:00Z</time>
      </trkpt>
      <trkpt lat="-2.588106" lon="-78.810432">
        <ele>3153.00</ele>
        <time>2018-09-08T22:13:01Z</time>
      </trkpt>
      <trkpt lat="-2.588182" lon="-78.810326">
        <ele>3153.00</ele>
        <time>2018-09-08T22:13:02Z</time>
      </trkpt>
      <trkpt lat="-2.588256" lon="-78.810249">
        <ele>3153.00</ele>
        <time>2018-09-08T22:13:03Z</time>
      </trkpt>
      <trkpt lat="-2.588332" lon="-78.810188">
        <ele>3153.00</ele>
        <time>2018-09-08T22:13:04Z</time>
      </trkpt>
      <trkpt lat="-2.588423" lon="-78.810143">
        <ele>3153.00</ele>
        <time>2018-09-08T22:13:05Z</time>
      </trkpt>
      <trkpt lat="-2.588539" lon="-78.810127">
        <ele>3153.00</ele>
        <time>2018-09-08T22:13:06Z</time>
      </trkpt>
      <trkpt lat="-2.588669" lon="-78.810112">
        <ele>3153.00</ele>
        <time>2018-09-08T22:13:07Z</time>
      </trkpt>
      <trkpt lat="-2.588808" lon="-78.810127">
        <ele>3153.00</ele>
        <time>2018-09-08T22:13:08Z</time>
      </trkpt>
      <trkpt lat="-2.588949" lon="-78.810143">
        <ele>3154.00</ele>
        <time>2018-09-08T22:13:09Z</time>
      </trkpt>
      <trkpt lat="-2.589091" lon="-78.810135">
        <ele>3154.00</ele>
        <time>2018-09-08T22:13:10Z</time>
      </trkpt>
      <trkpt lat="-2.589231" lon="-78.810104">
        <ele>3154.00</ele>
        <time>2018-09-08T22:13:11Z</time>
      </trkpt>
      <trkpt lat="-2.589368" lon="-78.810043">
        <ele>3154.00</ele>
        <time>2018-09-08T22:13:12Z</time>
      </trkpt>
      <trkpt lat="-2.589507" lon="-78.809975">
        <ele>3154.00</ele>
        <time>2018-09-08T22:13:13Z</time>
      </trkpt>
      <trkpt lat="-2.589646" lon="-78.809906">
        <ele>3154.00</ele>
        <time>2018-09-08T22:13:14Z</time>
      </trkpt>
      <trkpt lat="-2.589772" lon="-78.809860">
        <ele>3154.00</ele>
        <time>2018-09-08T22:13:15Z</time>
      </trkpt>
      <trkpt lat="-2.589880" lon="-78.809807">
        <ele>3154.00</ele>
        <time>2018-09-08T22:13:16Z</time>
      </trkpt>
      <trkpt lat="-2.589978" lon="-78.809723">
        <ele>3154.00</ele>
        <time>2018-09-08T22:13:17Z</time>
      </trkpt>
      <trkpt lat="-2.590052" lon="-78.809608">
        <ele>3154.00</ele>
        <time>2018-09-08T22:13:18Z</time>
      </trkpt>
      <trkpt lat="-2.590118" lon="-78.809479">
        <ele>3154.00</ele>
        <time>2018-09-08T22:13:19Z</time>
      </trkpt>
      <trkpt lat="-2.590189" lon="-78.809341">
        <ele>3154.00</ele>
        <time>2018-09-08T22:13:20Z</time>
      </trkpt>
      <trkpt lat="-2.590268" lon="-78.809196">
        <ele>3154.00</ele>
        <time>2018-09-08T22:13:21Z</time>
      </trkpt>
      <trkpt lat="-2.590354" lon="-78.809059">
        <ele>3155.00</ele>
        <time>2018-09-08T22:13:22Z</time>
      </trkpt>
      <trkpt lat="-2.590437" lon="-78.808922">
        <ele>3155.00</ele>
        <time>2018-09-08T22:13:23Z</time>
      </trkpt>
      <trkpt lat="-2.590510" lon="-78.808807">
        <ele>3155.00</ele>
        <time>2018-09-08T22:13:24Z</time>
      </trkpt>
      <trkpt lat="-2.590568" lon="-78.808708">
        <ele>3155.00</ele>
        <time>2018-09-08T22:13:25Z</time>
      </trkpt>
      <trkpt lat="-2.590608" lon="-78.808624">
        <ele>3155.00</ele>
        <time>2018-09-08T22:13:26Z</time>
      </trkpt>
      <trkpt lat="-2.590612" lon="-78.808533">
        <ele>3155.00</ele>
        <time>2018-09-08T22:13:27Z</time>
      </trkpt>
      <trkpt lat="-2.590586" lon="-78.808456">
        <ele>3155.00</ele>
        <time>2018-09-08T22:13:28Z</time>
      </trkpt>
      <trkpt lat="-2.590524" lon="-78.808380">
        <ele>3155.00</ele>
        <time>2018-09-08T22:13:29Z</time>
      </trkpt>
      <trkpt lat="-2.590444" lon="-78.808311">
        <ele>3155.00</ele>
        <time>2018-09-08T22:13:30Z</time>
      </trkpt>
      <trkpt lat="-2.590351" lon="-78.808228">
        <ele>3155.00</ele>
        <time>2018-09-08T22:13:31Z</time>
      </trkpt>
      <trkpt lat="-2.590240" lon="-78.808151">
        <ele>3155.00</ele>
        <time>2018-09-08T22:13:32Z</time>
      </trkpt>
      <trkpt lat="-2.590131" lon="-78.808067">
        <ele>3155.00</ele>
        <time>2018-09-08T22:13:33Z</time>
      </trkpt>
      <trkpt lat="-2.590031" lon="-78.807983">
        <ele>3156.00</ele>
        <time>2018-09-08T22:13:34Z</time>
      </trkpt>
      <trkpt lat="-2.589948" lon="-78.807915">
        <ele>3156.00</ele>
        <time>2018-09-08T22:13:35Z</time>
      </trkpt>
      <trkpt lat="-2.589886" lon="-78.807838">
        <ele>3156.00</ele>
        <time>2018-09-08T22:13:36Z</time>
      </trkpt>
      <trkpt lat="-2.589847" lon="-78.807755">
        <ele>3156.00</ele>
        <time>2018-09-08T22:13:37Z</time>
      </trkpt>
      <trkpt lat="-2.589837" lon="-78.807648">
        <ele>3156.00</ele>
        <time>2018-09-08T22:13:38Z</time>
      </trkpt>
      <trkpt lat="-2.589845" lon="-78.807541">
        <ele>3156.00</ele>
        <time>2018-09-08T22:13:39Z</time>
      </trkpt>
      <trkpt lat="-2.589891" lon="-78.807442">
        <ele>3156.00</ele>
        <time>2018-09-08T22:13:40Z</time>
      </trkpt>
      <trkpt lat="-2.589964" lon="-78.807358">
        <ele>3156.00</ele>
        <time>2018-09-08T22:13:41Z</time>
      </trkpt>
      <trkpt lat="-2.590066" lon="-78.807297">
        <ele>3157.00</ele>
        <time>2018-09-08T22:13:42Z</time>
      </trkpt>
      <trkpt lat="-2.590192" lon="-78.807243">
        <ele>3157.00</ele>
        <time>2018-09-08T22:13:43Z</time>
      </trkpt>
      <trkpt lat="-2.590330" lon="-78.807198">
        <ele>3157.00</ele>
        <time>2018-09-08T22:13:44Z</time>
      </trkpt>
      <trkpt lat="-2.590472" lon="-78.807152">
        <ele>3157.00</ele>
        <time>2018-09-08T22:13:45Z</time>
      </trkpt>
      <trkpt lat="-2.590611" lon="-78.807114">
        <ele>3157.00</ele>
        <time>2018-09-08T22:13:46Z</time>
      </trkpt>
      <trkpt lat="-2.590748" lon="-78.807060">
        <ele>3157.00</ele>
        <time>2018-09-08T22:13:47Z</time>
      </trkpt>
      <trkpt lat="-2.590869" lon="-78.806999">
        <ele>3157.00</ele>
        <time>2018-09-08T22:13:48Z</time>
      </trkpt>
      <trkpt lat="-2.590966" lon="-78.806946">
        <ele>3157.00</ele>
        <time>2018-09-08T22:13:49Z</time>
      </trkpt>
      <trkpt lat="-2.591056" lon="-78.806908">
        <ele>3157.00</ele>
        <time>2018-09-08T22:13:50Z</time>
      </trkpt>
      <trkpt lat="-2.591161" lon="-78.806892">
        <ele>3157.00</ele>
        <time>2018-09-08T22:13:51Z</time>
      </trkpt>
      <trkpt lat="-2.591282" lon="-78.806900">
        <ele>3157.00</ele>
        <time>2018-09-08T22:13:52Z</time>
      </trkpt>
      <trkpt lat="-2.591415" lon="-78.806931">
        <ele>3157.00</ele>
        <time>2018-09-08T22:13:53Z</time>
      </trkpt>
      <trkpt lat="-2.591547" lon="-78.806999">
        <ele>3157.00</ele>
        <time>2018-09-08T22:13:54Z</time>
      </trkpt>
      <trkpt lat="-2.591676" lon="-78.807068">
        <ele>3157.00</ele>
        <time>2018-09-08T22:13:55Z</time>
      </trkpt>
      <trkpt lat="-2.591798" lon="-78.807129">
        <ele>3157.00</ele>
        <time>2018-09-08T22:13:56Z</time>
      </trkpt>
      <trkpt lat="-2.591901" lon="-78.807190">
        <ele>3157.00</ele>
        <time>2018-09-08T22:13:57Z</time>
      </trkpt>
      <trkpt lat="-2.591995" lon="-78.807236">
        <ele>3157.00</ele>
        <time>2018-09-08T22:13:58Z</time>
      </trkpt>
      <trkpt lat="-2.592101" lon="-78.807274">
        <ele>3157.00</ele>
        <time>2018-09-08T22:13:59Z</time>
      </trkpt>
      <trkpt lat="-2.592227" lon="-78.807274">
        <ele>3157.00</ele>
        <time>2018-09-08T22:14:00Z</time>
      </trkpt>
      <trkpt lat="-2.592348" lon="-78.807251">
        <ele>3156.00</ele>
        <time>2018-09-08T22:14:01Z</time>
      </trkpt>
      <trkpt lat="-2.592447" lon="-78.807220">
        <ele>3156.00</ele>
        <time>2018-09-08T22:14:02Z</time>
      </trkpt>
      <trkpt lat="-2.592529" lon="-78.807152">
        <ele>3156.00</ele>
        <time>2018-09-08T22:14:03Z</time>
      </trkpt>
      <trkpt lat="-2.592606" lon="-78.807076">
        <ele>3156.00</ele>
        <time>2018-09-08T22:14:04Z</time>
      </trkpt>
      <trkpt lat="-2.592698" lon="-78.806984">
        <ele>3156.00</ele>
        <time>2018-09-08T22:14:05Z</time>
      </trkpt>
      <trkpt lat="-2.592798" lon="-78.806900">
        <ele>3155.00</ele>
        <time>2018-09-08T22:14:06Z</time>
      </trkpt>
      <trkpt lat="-2.592876" lon="-78.806786">
        <ele>3156.00</ele>
        <time>2018-09-08T22:14:07Z</time>
      </trkpt>
      <trkpt lat="-2.592928" lon="-78.806664">
        <ele>3156.00</ele>
        <time>2018-09-08T22:14:08Z</time>
      </trkpt>
      <trkpt lat="-2.592961" lon="-78.806580">
        <ele>3156.00</ele>
        <time>2018-09-08T22:14:09Z</time>
      </trkpt>
      <trkpt lat="-2.592998" lon="-78.806519">
        <ele>3156.00</ele>
        <time>2018-09-08T22:14:10Z</time>
      </trkpt>
      <trkpt lat="-2.593060" lon="-78.806465">
        <ele>3157.00</ele>
        <time>2018-09-08T22:14:11Z</time>
      </trkpt>
      <trkpt lat="-2.593145" lon="-78.806473">
        <ele>3157.00</ele>
        <time>2018-09-08T22:14:12Z</time>
      </trkpt>
      <trkpt lat="-2.593228" lon="-78.806526">
        <ele>3157.00</ele>
        <time>2018-09-08T22:14:13Z</time>
      </trkpt>
      <trkpt lat="-2.593301" lon="-78.806602">
        <ele>3158.00</ele>
        <time>2018-09-08T22:14:14Z</time>
      </trkpt>
      <trkpt lat="-2.593378" lon="-78.806686">
        <ele>3158.00</ele>
        <time>2018-09-08T22:14:15Z</time>
      </trkpt>
      <trkpt lat="-2.593461" lon="-78.806770">
        <ele>3159.00</ele>
        <time>2018-09-08T22:14:16Z</time>
      </trkpt>
      <trkpt lat="-2.593541" lon="-78.806824">
        <ele>3159.00</ele>
        <time>2018-09-08T22:14:17Z</time>
      </trkpt>
      <trkpt lat="-2.593616" lon="-78.806854">
        <ele>3159.00</ele>
        <time>2018-09-08T22:14:18Z</time>
      </trkpt>
      <trkpt lat="-2.593693" lon="-78.806839">
        <ele>3160.00</ele>
        <time>2018-09-08T22:14:19Z</time>
      </trkpt>
      <trkpt lat="-2.593748" lon="-78.806763">
        <ele>3160.00</ele>
        <time>2018-09-08T22:14:20Z</time>
      </trkpt>
      <trkpt lat="-2.593740" lon="-78.806664">
        <ele>3160.00</ele>
        <time>2018-09-08T22:14:21Z</time>
      </trkpt>
      <trkpt lat="-2.593729" lon="-78.806557">
        <ele>3160.00</ele>
        <time>2018-09-08T22:14:22Z</time>
      </trkpt>
      <trkpt lat="-2.593735" lon="-78.806450">
        <ele>3160.00</ele>
        <time>2018-09-08T22:14:23Z</time>
      </trkpt>
      <trkpt lat="-2.593768" lon="-78.806366">
        <ele>3160.00</ele>
        <time>2018-09-08T22:14:24Z</time>
      </trkpt>
      <trkpt lat="-2.593839" lon="-78.806305">
        <ele>3160.00</ele>
        <time>2018-09-08T22:14:25Z</time>
      </trkpt>
      <trkpt lat="-2.593940" lon="-78.806267">
        <ele>3161.00</ele>
        <time>2018-09-08T22:14:26Z</time>
      </trkpt>
      <trkpt lat="-2.594050" lon="-78.806229">
        <ele>3161.00</ele>
        <time>2018-09-08T22:14:27Z</time>
      </trkpt>
      <trkpt lat="-2.594149" lon="-78.806198">
        <ele>3161.00</ele>
        <time>2018-09-08T22:14:28Z</time>
      </trkpt>
      <trkpt lat="-2.594222" lon="-78.806137">
        <ele>3162.00</ele>
        <time>2018-09-08T22:14:29Z</time>
      </trkpt>
      <trkpt lat="-2.594235" lon="-78.806038">
        <ele>3162.00</ele>
        <time>2018-09-08T22:14:30Z</time>
      </trkpt>
      <trkpt lat="-2.594192" lon="-78.805946">
        <ele>3161.00</ele>
        <time>2018-09-08T22:14:31Z</time>
      </trkpt>
      <trkpt lat="-2.594117" lon="-78.805885">
        <ele>3162.00</ele>
        <time>2018-09-08T22:14:32Z</time>
      </trkpt>
      <trkpt lat="-2.594065" lon="-78.805817">
        <ele>3162.00</ele>
        <time>2018-09-08T22:14:33Z</time>
      </trkpt>
      <trkpt lat="-2.594040" lon="-78.805725">
        <ele>3162.00</ele>
        <time>2018-09-08T22:14:34Z</time>
      </trkpt>
      <trkpt lat="-2.594066" lon="-78.805634">
        <ele>3162.00</ele>
        <time>2018-09-08T22:14:35Z</time>
      </trkpt>
      <trkpt lat="-2.594136" lon="-78.805565">
        <ele>3163.00</ele>
        <time>2018-09-08T22:14:36Z</time>
      </trkpt>
      <trkpt lat="-2.594218" lon="-78.805511">
        <ele>3164.00</ele>
        <time>2018-09-08T22:14:37Z</time>
      </trkpt>
      <trkpt lat="-2.594302" lon="-78.805466">
        <ele>3164.00</ele>
        <time>2018-09-08T22:14:38Z</time>
      </trkpt>
      <trkpt lat="-2.594342" lon="-78.805389">
        <ele>3165.00</ele>
        <time>2018-09-08T22:14:39Z</time>
      </trkpt>
      <trkpt lat="-2.594331" lon="-78.805290">
        <ele>3165.00</ele>
        <time>2018-09-08T22:14:40Z</time>
      </trkpt>
      <trkpt lat="-2.594275" lon="-78.805191">
        <ele>3165.00</ele>
        <time>2018-09-08T22:14:41Z</time>
      </trkpt>
      <trkpt lat="-2.594186" lon="-78.805130">
        <ele>3165.00</ele>
        <time>2018-09-08T22:14:42Z</time>
      </trkpt>
      <trkpt lat="-2.594079" lon="-78.805077">
        <ele>3165.00</ele>
        <time>2018-09-08T22:14:43Z</time>
      </trkpt>
      <trkpt lat="-2.593959" lon="-78.805038">
        <ele>3165.00</ele>
        <time>2018-09-08T22:14:44Z</time>
      </trkpt>
      <trkpt lat="-2.593828" lon="-78.805031">
        <ele>3166.00</ele>
        <time>2018-09-08T22:14:45Z</time>
      </trkpt>
      <trkpt lat="-2.593699" lon="-78.805016">
        <ele>3166.00</ele>
        <time>2018-09-08T22:14:46Z</time>
      </trkpt>
      <trkpt lat="-2.593585" lon="-78.804970">
        <ele>3166.00</ele>
        <time>2018-09-08T22:14:47Z</time>
      </trkpt>
      <trkpt lat="-2.593473" lon="-78.804916">
        <ele>3166.00</ele>
        <time>2018-09-08T22:14:48Z</time>
      </trkpt>
      <trkpt lat="-2.593379" lon="-78.804855">
        <ele>3167.00</ele>
        <time>2018-09-08T22:14:49Z</time>
      </trkpt>
      <trkpt lat="-2.593298" lon="-78.804794">
        <ele>3167.00</ele>
        <time>2018-09-08T22:14:50Z</time>
      </trkpt>
      <trkpt lat="-2.593226" lon="-78.804710">
        <ele>3168.00</ele>
        <time>2018-09-08T22:14:51Z</time>
      </trkpt>
      <trkpt lat="-2.593164" lon="-78.804611">
        <ele>3169.00</ele>
        <time>2018-09-08T22:14:52Z</time>
      </trkpt>
      <trkpt lat="-2.593108" lon="-78.804512">
        <ele>3169.00</ele>
        <time>2018-09-08T22:14:53Z</time>
      </trkpt>
      <trkpt lat="-2.593050" lon="-78.804405">
        <ele>3170.00</ele>
        <time>2018-09-08T22:14:54Z</time>
      </trkpt>
      <trkpt lat="-2.592980" lon="-78.804321">
        <ele>3171.00</ele>
        <time>2018-09-08T22:14:55Z</time>
      </trkpt>
      <trkpt lat="-2.592909" lon="-78.804253">
        <ele>3171.00</ele>
        <time>2018-09-08T22:14:56Z</time>
      </trkpt>
      <trkpt lat="-2.592851" lon="-78.804184">
        <ele>3172.00</ele>
        <time>2018-09-08T22:14:57Z</time>
      </trkpt>
      <trkpt lat="-2.592810" lon="-78.804123">
        <ele>3172.00</ele>
        <time>2018-09-08T22:14:58Z</time>
      </trkpt>
      <trkpt lat="-2.592804" lon="-78.804062">
        <ele>3172.00</ele>
        <time>2018-09-08T22:14:59Z</time>
      </trkpt>
      <trkpt lat="-2.592840" lon="-78.803993">
        <ele>3172.00</ele>
        <time>2018-09-08T22:15:00Z</time>
      </trkpt>
      <trkpt lat="-2.592924" lon="-78.803932">
        <ele>3171.00</ele>
        <time>2018-09-08T22:15:01Z</time>
      </trkpt>
      <trkpt lat="-2.593043" lon="-78.803879">
        <ele>3171.00</ele>
        <time>2018-09-08T22:15:02Z</time>
      </trkpt>
      <trkpt lat="-2.593183" lon="-78.803825">
        <ele>3171.00</ele>
        <time>2018-09-08T22:15:03Z</time>
      </trkpt>
      <trkpt lat="-2.593326" lon="-78.803787">
        <ele>3170.00</ele>
        <time>2018-09-08T22:15:04Z</time>
      </trkpt>
      <trkpt lat="-2.593455" lon="-78.803772">
        <ele>3170.00</ele>
        <time>2018-09-08T22:15:05Z</time>
      </trkpt>
      <trkpt lat="-2.593565" lon="-78.803749">
        <ele>3171.00</ele>
        <time>2018-09-08T22:15:06Z</time>
      </trkpt>
      <trkpt lat="-2.593663" lon="-78.803703">
        <ele>3171.00</ele>
        <time>2018-09-08T22:15:07Z</time>
      </trkpt>
      <trkpt lat="-2.593754" lon="-78.803650">
        <ele>3171.00</ele>
        <time>2018-09-08T22:15:08Z</time>
      </trkpt>
      <trkpt lat="-2.593842" lon="-78.803589">
        <ele>3170.00</ele>
        <time>2018-09-08T22:15:09Z</time>
      </trkpt>
      <trkpt lat="-2.593926" lon="-78.803513">
        <ele>3169.00</ele>
        <time>2018-09-08T22:15:10Z</time>
      </trkpt>
      <trkpt lat="-2.594003" lon="-78.803421">
        <ele>3169.00</ele>
        <time>2018-09-08T22:15:11Z</time>
      </trkpt>
      <trkpt lat="-2.594071" lon="-78.803337">
        <ele>3169.00</ele>
        <time>2018-09-08T22:15:12Z</time>
      </trkpt>
      <trkpt lat="-2.594141" lon="-78.803268">
        <ele>3168.00</ele>
        <time>2018-09-08T22:15:13Z</time>
      </trkpt>
      <trkpt lat="-2.594226" lon="-78.803238">
        <ele>3168.00</ele>
        <time>2018-09-08T22:15:14Z</time>
      </trkpt>
      <trkpt lat="-2.594323" lon="-78.803207">
        <ele>3168.00</ele>
        <time>2018-09-08T22:15:15Z</time>
      </trkpt>
      <trkpt lat="-2.594426" lon="-78.803185">
        <ele>3167.00</ele>
        <time>2018-09-08T22:15:16Z</time>
      </trkpt>
      <trkpt lat="-2.594534" lon="-78.803162">
        <ele>3167.00</ele>
        <time>2018-09-08T22:15:17Z</time>
      </trkpt>
      <trkpt lat="-2.594647" lon="-78.803146">
        <ele>3166.00</ele>
        <time>2018-09-08T22:15:18Z</time>
      </trkpt>
      <trkpt lat="-2.594758" lon="-78.803123">
        <ele>3166.00</ele>
        <time>2018-09-08T22:15:19Z</time>
      </trkpt>
      <trkpt lat="-2.594860" lon="-78.803078">
        <ele>3166.00</ele>
        <time>2018-09-08T22:15:20Z</time>
      </trkpt>
      <trkpt lat="-2.594950" lon="-78.803024">
        <ele>3165.00</ele>
        <time>2018-09-08T22:15:21Z</time>
      </trkpt>
      <trkpt lat="-2.595031" lon="-78.802948">
        <ele>3166.00</ele>
        <time>2018-09-08T22:15:22Z</time>
      </trkpt>
      <trkpt lat="-2.595104" lon="-78.802864">
        <ele>3166.00</ele>
        <time>2018-09-08T22:15:23Z</time>
      </trkpt>
      <trkpt lat="-2.595166" lon="-78.802750">
        <ele>3166.00</ele>
        <time>2018-09-08T22:15:24Z</time>
      </trkpt>
      <trkpt lat="-2.595217" lon="-78.802643">
        <ele>3166.00</ele>
        <time>2018-09-08T22:15:25Z</time>
      </trkpt>
      <trkpt lat="-2.595256" lon="-78.802521">
        <ele>3166.00</ele>
        <time>2018-09-08T22:15:26Z</time>
      </trkpt>
      <trkpt lat="-2.595264" lon="-78.802406">
        <ele>3166.00</ele>
        <time>2018-09-08T22:15:27Z</time>
      </trkpt>
      <trkpt lat="-2.595246" lon="-78.802284">
        <ele>3166.00</ele>
        <time>2018-09-08T22:15:28Z</time>
      </trkpt>
      <trkpt lat="-2.595183" lon="-78.802177">
        <ele>3166.00</ele>
        <time>2018-09-08T22:15:29Z</time>
      </trkpt>
      <trkpt lat="-2.595085" lon="-78.802101">
        <ele>3167.00</ele>
        <time>2018-09-08T22:15:30Z</time>
      </trkpt>
      <trkpt lat="-2.594985" lon="-78.802025">
        <ele>3167.00</ele>
        <time>2018-09-08T22:15:31Z</time>
      </trkpt>
      <trkpt lat="-2.594882" lon="-78.801956">
        <ele>3168.00</ele>
        <time>2018-09-08T22:15:32Z</time>
      </trkpt>
      <trkpt lat="-2.594789" lon="-78.801865">
        <ele>3169.00</ele>
        <time>2018-09-08T22:15:33Z</time>
      </trkpt>
      <trkpt lat="-2.594707" lon="-78.801765">
        <ele>3170.00</ele>
        <time>2018-09-08T22:15:34Z</time>
      </trkpt>
      <trkpt lat="-2.594637" lon="-78.801682">
        <ele>3171.00</ele>
        <time>2018-09-08T22:15:35Z</time>
      </trkpt>
      <trkpt lat="-2.594581" lon="-78.801590">
        <ele>3171.00</ele>
        <time>2018-09-08T22:15:36Z</time>
      </trkpt>
      <trkpt lat="-2.594528" lon="-78.801491">
        <ele>3172.00</ele>
        <time>2018-09-08T22:15:37Z</time>
      </trkpt>
      <trkpt lat="-2.594481" lon="-78.801407">
        <ele>3172.00</ele>
        <time>2018-09-08T22:15:38Z</time>
      </trkpt>
      <trkpt lat="-2.594437" lon="-78.801315">
        <ele>3173.00</ele>
        <time>2018-09-08T22:15:39Z</time>
      </trkpt>
      <trkpt lat="-2.594408" lon="-78.801216">
        <ele>3173.00</ele>
        <time>2018-09-08T22:15:40Z</time>
      </trkpt>
      <trkpt lat="-2.594414" lon="-78.801117">
        <ele>3173.00</ele>
        <time>2018-09-08T22:15:41Z</time>
      </trkpt>
      <trkpt lat="-2.594457" lon="-78.801033">
        <ele>3173.00</ele>
        <time>2018-09-08T22:15:42Z</time>
      </trkpt>
      <trkpt lat="-2.594524" lon="-78.800949">
        <ele>3173.00</ele>
        <time>2018-09-08T22:15:43Z</time>
      </trkpt>
      <trkpt lat="-2.594620" lon="-78.800888">
        <ele>3173.00</ele>
        <time>2018-09-08T22:15:44Z</time>
      </trkpt>
      <trkpt lat="-2.594736" lon="-78.800842">
        <ele>3172.00</ele>
        <time>2018-09-08T22:15:45Z</time>
      </trkpt>
      <trkpt lat="-2.594866" lon="-78.800827">
        <ele>3172.00</ele>
        <time>2018-09-08T22:15:46Z</time>
      </trkpt>
      <trkpt lat="-2.594996" lon="-78.800819">
        <ele>3172.00</ele>
        <time>2018-09-08T22:15:47Z</time>
      </trkpt>
      <trkpt lat="-2.595128" lon="-78.800827">
        <ele>3171.00</ele>
        <time>2018-09-08T22:15:48Z</time>
      </trkpt>
      <trkpt lat="-2.595262" lon="-78.800850">
        <ele>3170.00</ele>
        <time>2018-09-08T22:15:49Z</time>
      </trkpt>
      <trkpt lat="-2.595387" lon="-78.800880">
        <ele>3170.00</ele>
        <time>2018-09-08T22:15:50Z</time>
      </trkpt>
      <trkpt lat="-2.595504" lon="-78.800888">
        <ele>3169.00</ele>
        <time>2018-09-08T22:15:51Z</time>
      </trkpt>
      <trkpt lat="-2.595618" lon="-78.800873">
        <ele>3169.00</ele>
        <time>2018-09-08T22:15:52Z</time>
      </trkpt>
      <trkpt lat="-2.595727" lon="-78.800812">
        <ele>3168.00</ele>
        <time>2018-09-08T22:15:53Z</time>
      </trkpt>
      <trkpt lat="-2.595834" lon="-78.800743">
        <ele>3168.00</ele>
        <time>2018-09-08T22:15:54Z</time>
      </trkpt>
      <trkpt lat="-2.595935" lon="-78.800690">
        <ele>3168.00</ele>
        <time>2018-09-08T22:15:55Z</time>
      </trkpt>
      <trkpt lat="-2.596016" lon="-78.800629">
        <ele>3168.00</ele>
        <time>2018-09-08T22:15:56Z</time>
      </trkpt>
      <trkpt lat="-2.596077" lon="-78.800552">
        <ele>3168.00</ele>
        <time>2018-09-08T22:15:57Z</time>
      </trkpt>
      <trkpt lat="-2.596105" lon="-78.800446">
        <ele>3168.00</ele>
        <time>2018-09-08T22:15:58Z</time>
      </trkpt>
      <trkpt lat="-2.596117" lon="-78.800323">
        <ele>3168.00</ele>
        <time>2018-09-08T22:15:59Z</time>
      </trkpt>
      <trkpt lat="-2.596101" lon="-78.800194">
        <ele>3168.00</ele>
        <time>2018-09-08T22:16:00Z</time>
      </trkpt>
      <trkpt lat="-2.596054" lon="-78.800079">
        <ele>3168.00</ele>
        <time>2018-09-08T22:16:01Z</time>
      </trkpt>
      <trkpt lat="-2.595972" lon="-78.799973">
        <ele>3168.00</ele>
        <time>2018-09-08T22:16:02Z</time>
      </trkpt>
      <trkpt lat="-2.595893" lon="-78.799866">
        <ele>3168.00</ele>
        <time>2018-09-08T22:16:03Z</time>
      </trkpt>
      <trkpt lat="-2.595825" lon="-78.799759">
        <ele>3169.00</ele>
        <time>2018-09-08T22:16:04Z</time>
      </trkpt>
      <trkpt lat="-2.595760" lon="-78.799660">
        <ele>3169.00</ele>
        <time>2018-09-08T22:16:05Z</time>
      </trkpt>
      <trkpt lat="-2.595710" lon="-78.799568">
        <ele>3169.00</ele>
        <time>2018-09-08T22:16:06Z</time>
      </trkpt>
      <trkpt lat="-2.595690" lon="-78.799461">
        <ele>3169.00</ele>
        <time>2018-09-08T22:16:07Z</time>
      </trkpt>
      <trkpt lat="-2.595700" lon="-78.799362">
        <ele>3169.00</ele>
        <time>2018-09-08T22:16:08Z</time>
      </trkpt>
      <trkpt lat="-2.595739" lon="-78.799278">
        <ele>3169.00</ele>
        <time>2018-09-08T22:16:09Z</time>
      </trkpt>
      <trkpt lat="-2.595803" lon="-78.799210">
        <ele>3169.00</ele>
        <time>2018-09-08T22:16:10Z</time>
      </trkpt>
      <trkpt lat="-2.595905" lon="-78.799171">
        <ele>3169.00</ele>
        <time>2018-09-08T22:16:11Z</time>
      </trkpt>
      <trkpt lat="-2.596021" lon="-78.799126">
        <ele>3169.00</ele>
        <time>2018-09-08T22:16:12Z</time>
      </trkpt>
      <trkpt lat="-2.596135" lon="-78.799049">
        <ele>3168.00</ele>
        <time>2018-09-08T22:16:13Z</time>
      </trkpt>
      <trkpt lat="-2.596250" lon="-78.798950">
        <ele>3168.00</ele>
        <time>2018-09-08T22:16:14Z</time>
      </trkpt>
      <trkpt lat="-2.596323" lon="-78.798805">
        <ele>3168.00</ele>
        <time>2018-09-08T22:16:15Z</time>
      </trkpt>
      <trkpt lat="-2.596388" lon="-78.798691">
        <ele>3168.00</ele>
        <time>2018-09-08T22:16:16Z</time>
      </trkpt>
      <trkpt lat="-2.596422" lon="-78.798584">
        <ele>3169.00</ele>
        <time>2018-09-08T22:16:17Z</time>
      </trkpt>
      <trkpt lat="-2.596407" lon="-78.798477">
        <ele>3169.00</ele>
        <time>2018-09-08T22:16:18Z</time>
      </trkpt>
      <trkpt lat="-2.596344" lon="-78.798370">
        <ele>3170.00</ele>
        <time>2018-09-08T22:16:19Z</time>
      </trkpt>
      <trkpt lat="-2.596272" lon="-78.798256">
        <ele>3170.00</ele>
        <time>2018-09-08T22:16:20Z</time>
      </trkpt>
      <trkpt lat="-2.596189" lon="-78.798149">
        <ele>3170.00</ele>
        <time>2018-09-08T22:16:21Z</time>
      </trkpt>
      <trkpt lat="-2.596105" lon="-78.798042">
        <ele>3170.00</ele>
        <time>2018-09-08T22:16:22Z</time>
      </trkpt>
      <trkpt lat="-2.596030" lon="-78.797966">
        <ele>3170.00</ele>
        <time>2018-09-08T22:16:23Z</time>
      </trkpt>
      <trkpt lat="-2.595956" lon="-78.797890">
        <ele>3170.00</ele>
        <time>2018-09-08T22:16:24Z</time>
      </trkpt>
      <trkpt lat="-2.595872" lon="-78.797836">
        <ele>3170.00</ele>
        <time>2018-09-08T22:16:25Z</time>
      </trkpt>
      <trkpt lat="-2.595784" lon="-78.797813">
        <ele>3170.00</ele>
        <time>2018-09-08T22:16:26Z</time>
      </trkpt>
      <trkpt lat="-2.595704" lon="-78.797783">
        <ele>3171.00</ele>
        <time>2018-09-08T22:16:27Z</time>
      </trkpt>
      <trkpt lat="-2.595640" lon="-78.797745">
        <ele>3171.00</ele>
        <time>2018-09-08T22:16:28Z</time>
      </trkpt>
      <trkpt lat="-2.595576" lon="-78.797668">
        <ele>3171.00</ele>
        <time>2018-09-08T22:16:29Z</time>
      </trkpt>
      <trkpt lat="-2.595508" lon="-78.797592">
        <ele>3171.00</ele>
        <time>2018-09-08T22:16:30Z</time>
      </trkpt>
      <trkpt lat="-2.595455" lon="-78.797501">
        <ele>3171.00</ele>
        <time>2018-09-08T22:16:31Z</time>
      </trkpt>
      <trkpt lat="-2.595415" lon="-78.797417">
        <ele>3171.00</ele>
        <time>2018-09-08T22:16:32Z</time>
      </trkpt>
      <trkpt lat="-2.595417" lon="-78.797318">
        <ele>3171.00</ele>
        <time>2018-09-08T22:16:33Z</time>
      </trkpt>
      <trkpt lat="-2.595438" lon="-78.797211">
        <ele>3171.00</ele>
        <time>2018-09-08T22:16:34Z</time>
      </trkpt>
      <trkpt lat="-2.595475" lon="-78.797096">
        <ele>3171.00</ele>
        <time>2018-09-08T22:16:35Z</time>
      </trkpt>
      <trkpt lat="-2.595523" lon="-78.796997">
        <ele>3170.00</ele>
        <time>2018-09-08T22:16:36Z</time>
      </trkpt>
      <trkpt lat="-2.595581" lon="-78.796906">
        <ele>3169.00</ele>
        <time>2018-09-08T22:16:37Z</time>
      </trkpt>
      <trkpt lat="-2.595661" lon="-78.796814">
        <ele>3169.00</ele>
        <time>2018-09-08T22:16:38Z</time>
      </trkpt>
      <trkpt lat="-2.595736" lon="-78.796715">
        <ele>3168.00</ele>
        <time>2018-09-08T22:16:39Z</time>
      </trkpt>
      <trkpt lat="-2.595772" lon="-78.796577">
        <ele>3168.00</ele>
        <time>2018-09-08T22:16:40Z</time>
      </trkpt>
      <trkpt lat="-2.595798" lon="-78.796471">
        <ele>3168.00</ele>
        <time>2018-09-08T22:16:41Z</time>
      </trkpt>
      <trkpt lat="-2.595821" lon="-78.796379">
        <ele>3167.00</ele>
        <time>2018-09-08T22:16:42Z</time>
      </trkpt>
      <trkpt lat="-2.595870" lon="-78.796318">
        <ele>3167.00</ele>
        <time>2018-09-08T22:16:43Z</time>
      </trkpt>
      <trkpt lat="-2.595952" lon="-78.796257">
        <ele>3167.00</ele>
        <time>2018-09-08T22:16:44Z</time>
      </trkpt>
      <trkpt lat="-2.596048" lon="-78.796211">
        <ele>3167.00</ele>
        <time>2018-09-08T22:16:45Z</time>
      </trkpt>
      <trkpt lat="-2.596117" lon="-78.796150">
        <ele>3167.00</ele>
        <time>2018-09-08T22:16:46Z</time>
      </trkpt>
      <trkpt lat="-2.596136" lon="-78.796051">
        <ele>3167.00</ele>
        <time>2018-09-08T22:16:47Z</time>
      </trkpt>
      <trkpt lat="-2.596122" lon="-78.795944">
        <ele>3167.00</ele>
        <time>2018-09-08T22:16:48Z</time>
      </trkpt>
      <trkpt lat="-2.596023" lon="-78.795898">
        <ele>3167.00</ele>
        <time>2018-09-08T22:16:49Z</time>
      </trkpt>
      <trkpt lat="-2.595939" lon="-78.795822">
        <ele>3167.00</ele>
        <time>2018-09-08T22:16:50Z</time>
      </trkpt>
      <trkpt lat="-2.595880" lon="-78.795723">
        <ele>3167.00</ele>
        <time>2018-09-08T22:16:51Z</time>
      </trkpt>
      <trkpt lat="-2.595836" lon="-78.795609">
        <ele>3167.00</ele>
        <time>2018-09-08T22:16:52Z</time>
      </trkpt>
      <trkpt lat="-2.595806" lon="-78.795494">
        <ele>3167.00</ele>
        <time>2018-09-08T22:16:53Z</time>
      </trkpt>
      <trkpt lat="-2.595792" lon="-78.795380">
        <ele>3167.00</ele>
        <time>2018-09-08T22:16:54Z</time>
      </trkpt>
      <trkpt lat="-2.595785" lon="-78.795288">
        <ele>3167.00</ele>
        <time>2018-09-08T22:16:55Z</time>
      </trkpt>
      <trkpt lat="-2.595802" lon="-78.795212">
        <ele>3167.00</ele>
        <time>2018-09-08T22:16:56Z</time>
      </trkpt>
      <trkpt lat="-2.595856" lon="-78.795135">
        <ele>3166.00</ele>
        <time>2018-09-08T22:16:57Z</time>
      </trkpt>
      <trkpt lat="-2.595949" lon="-78.795090">
        <ele>3166.00</ele>
        <time>2018-09-08T22:16:58Z</time>
      </trkpt>
      <trkpt lat="-2.596067" lon="-78.795059">
        <ele>3166.00</ele>
        <time>2018-09-08T22:16:59Z</time>
      </trkpt>
      <trkpt lat="-2.596197" lon="-78.795006">
        <ele>3166.00</ele>
        <time>2018-09-08T22:17:00Z</time>
      </trkpt>
      <trkpt lat="-2.596323" lon="-78.794960">
        <ele>3166.00</ele>
        <time>2018-09-08T22:17:01Z</time>
      </trkpt>
      <trkpt lat="-2.596432" lon="-78.794914">
        <ele>3166.00</ele>
        <time>2018-09-08T22:17:02Z</time>
      </trkpt>
      <trkpt lat="-2.596521" lon="-78.794884">
        <ele>3166.00</ele>
        <time>2018-09-08T22:17:03Z</time>
      </trkpt>
      <trkpt lat="-2.596578" lon="-78.794830">
        <ele>3167.00</ele>
        <time>2018-09-08T22:17:04Z</time>
      </trkpt>
      <trkpt lat="-2.596594" lon="-78.794746">
        <ele>3167.00</ele>
        <time>2018-09-08T22:17:05Z</time>
      </trkpt>
      <trkpt lat="-2.596575" lon="-78.794655">
        <ele>3167.00</ele>
        <time>2018-09-08T22:17:06Z</time>
      </trkpt>
      <trkpt lat="-2.596553" lon="-78.794548">
        <ele>3167.00</ele>
        <time>2018-09-08T22:17:07Z</time>
      </trkpt>
      <trkpt lat="-2.596521" lon="-78.794434">
        <ele>3167.00</ele>
        <time>2018-09-08T22:17:08Z</time>
      </trkpt>
      <trkpt lat="-2.596489" lon="-78.794304">
        <ele>3168.00</ele>
        <time>2018-09-08T22:17:09Z</time>
      </trkpt>
      <trkpt lat="-2.596442" lon="-78.794174">
        <ele>3168.00</ele>
        <time>2018-09-08T22:17:10Z</time>
      </trkpt>
      <trkpt lat="-2.596386" lon="-78.794060">
        <ele>3168.00</ele>
        <time>2018-09-08T22:17:11Z</time>
      </trkpt>
      <trkpt lat="-2.596339" lon="-78.793968">
        <ele>3169.00</ele>
        <time>2018-09-08T22:17:12Z</time>
      </trkpt>
      <trkpt lat="-2.596309" lon="-78.793861">
        <ele>3169.00</ele>
        <time>2018-09-08T22:17:13Z</time>
      </trkpt>
      <trkpt lat="-2.596303" lon="-78.793724">
        <ele>3169.00</ele>
        <time>2018-09-08T22:17:14Z</time>
      </trkpt>
      <trkpt lat="-2.596288" lon="-78.793602">
        <ele>3169.00</ele>
        <time>2018-09-08T22:17:15Z</time>
      </trkpt>
      <trkpt lat="-2.596263" lon="-78.793503">
        <ele>3169.00</ele>
        <time>2018-09-08T22:17:16Z</time>
      </trkpt>
      <trkpt lat="-2.596245" lon="-78.793419">
        <ele>3169.00</ele>
        <time>2018-09-08T22:17:17Z</time>
      </trkpt>
      <trkpt lat="-2.596255" lon="-78.793343">
        <ele>3170.00</ele>
        <time>2018-09-08T22:17:18Z</time>
      </trkpt>
      <trkpt lat="-2.596285" lon="-78.793236">
        <ele>3170.00</ele>
        <time>2018-09-08T22:17:19Z</time>
      </trkpt>
      <trkpt lat="-2.596327" lon="-78.793129">
        <ele>3169.00</ele>
        <time>2018-09-08T22:17:20Z</time>
      </trkpt>
      <trkpt lat="-2.596370" lon="-78.793015">
        <ele>3169.00</ele>
        <time>2018-09-08T22:17:21Z</time>
      </trkpt>
      <trkpt lat="-2.596409" lon="-78.792915">
        <ele>3168.00</ele>
        <time>2018-09-08T22:17:22Z</time>
      </trkpt>
      <trkpt lat="-2.596431" lon="-78.792816">
        <ele>3168.00</ele>
        <time>2018-09-08T22:17:23Z</time>
      </trkpt>
      <trkpt lat="-2.596439" lon="-78.792732">
        <ele>3168.00</ele>
        <time>2018-09-08T22:17:24Z</time>
      </trkpt>
      <trkpt lat="-2.596427" lon="-78.792641">
        <ele>3168.00</ele>
        <time>2018-09-08T22:17:25Z</time>
      </trkpt>
      <trkpt lat="-2.596413" lon="-78.792557">
        <ele>3168.00</ele>
        <time>2018-09-08T22:17:26Z</time>
      </trkpt>
      <trkpt lat="-2.596400" lon="-78.792480">
        <ele>3168.00</ele>
        <time>2018-09-08T22:17:27Z</time>
      </trkpt>
      <trkpt lat="-2.596390" lon="-78.792412">
        <ele>3168.00</ele>
        <time>2018-09-08T22:17:28Z</time>
      </trkpt>
      <trkpt lat="-2.596387" lon="-78.792336">
        <ele>3168.00</ele>
        <time>2018-09-08T22:17:29Z</time>
      </trkpt>
      <trkpt lat="-2.596383" lon="-78.792267">
        <ele>3168.00</ele>
        <time>2018-09-08T22:17:30Z</time>
      </trkpt>
      <trkpt lat="-2.596378" lon="-78.792198">
        <ele>3168.00</ele>
        <time>2018-09-08T22:17:31Z</time>
      </trkpt>
      <trkpt lat="-2.596371" lon="-78.792122">
        <ele>3168.00</ele>
        <time>2018-09-08T22:17:32Z</time>
      </trkpt>
      <trkpt lat="-2.596358" lon="-78.792061">
        <ele>3168.00</ele>
        <time>2018-09-08T22:17:33Z</time>
      </trkpt>
      <trkpt lat="-2.596329" lon="-78.791992">
        <ele>3168.00</ele>
        <time>2018-09-08T22:17:34Z</time>
      </trkpt>
      <trkpt lat="-2.596290" lon="-78.791939">
        <ele>3167.00</ele>
        <time>2018-09-08T22:17:35Z</time>
      </trkpt>
      <trkpt lat="-2.596246" lon="-78.791901">
        <ele>3167.00</ele>
        <time>2018-09-08T22:17:36Z</time>
      </trkpt>
      <trkpt lat="-2.596194" lon="-78.791878">
        <ele>3167.00</ele>
        <time>2018-09-08T22:17:37Z</time>
      </trkpt>
      <trkpt lat="-2.596132" lon="-78.791870">
        <ele>3166.00</ele>
        <time>2018-09-08T22:17:38Z</time>
      </trkpt>
      <trkpt lat="-2.596077" lon="-78.791885">
        <ele>3166.00</ele>
        <time>2018-09-08T22:17:39Z</time>
      </trkpt>
      <trkpt lat="-2.596032" lon="-78.791931">
        <ele>3165.00</ele>
        <time>2018-09-08T22:17:40Z</time>
      </trkpt>
      <trkpt lat="-2.595986" lon="-78.791985">
        <ele>3165.00</ele>
        <time>2018-09-08T22:17:41Z</time>
      </trkpt>
      <trkpt lat="-2.595942" lon="-78.792038">
        <ele>3165.00</ele>
        <time>2018-09-08T22:17:42Z</time>
      </trkpt>
      <trkpt lat="-2.595892" lon="-78.792084">
        <ele>3165.00</ele>
        <time>2018-09-08T22:17:43Z</time>
      </trkpt>
      <trkpt lat="-2.595840" lon="-78.792114">
        <ele>3166.00</ele>
        <time>2018-09-08T22:17:44Z</time>
      </trkpt>
      <trkpt lat="-2.595783" lon="-78.792152">
        <ele>3167.00</ele>
        <time>2018-09-08T22:17:45Z</time>
      </trkpt>
      <trkpt lat="-2.595716" lon="-78.792168">
        <ele>3167.00</ele>
        <time>2018-09-08T22:17:46Z</time>
      </trkpt>
      <trkpt lat="-2.595651" lon="-78.792175">
        <ele>3168.00</ele>
        <time>2018-09-08T22:17:47Z</time>
      </trkpt>
      <trkpt lat="-2.595589" lon="-78.792168">
        <ele>3169.00</ele>
        <time>2018-09-08T22:17:48Z</time>
      </trkpt>
      <trkpt lat="-2.595526" lon="-78.792160">
        <ele>3169.00</ele>
        <time>2018-09-08T22:17:49Z</time>
      </trkpt>
      <trkpt lat="-2.595463" lon="-78.792145">
        <ele>3170.00</ele>
        <time>2018-09-08T22:17:50Z</time>
      </trkpt>
      <trkpt lat="-2.595403" lon="-78.792145">
        <ele>3170.00</ele>
        <time>2018-09-08T22:17:51Z</time>
      </trkpt>
      <trkpt lat="-2.595345" lon="-78.792152">
        <ele>3170.00</ele>
        <time>2018-09-08T22:17:52Z</time>
      </trkpt>
      <trkpt lat="-2.595273" lon="-78.792175">
        <ele>3170.00</ele>
        <time>2018-09-08T22:17:53Z</time>
      </trkpt>
      <trkpt lat="-2.595186" lon="-78.792206">
        <ele>3171.00</ele>
        <time>2018-09-08T22:17:54Z</time>
      </trkpt>
      <trkpt lat="-2.595093" lon="-78.792252">
        <ele>3171.00</ele>
        <time>2018-09-08T22:17:55Z</time>
      </trkpt>
      <trkpt lat="-2.595012" lon="-78.792328">
        <ele>3171.00</ele>
        <time>2018-09-08T22:17:56Z</time>
      </trkpt>
      <trkpt lat="-2.594939" lon="-78.792419">
        <ele>3171.00</ele>
        <time>2018-09-08T22:17:57Z</time>
      </trkpt>
      <trkpt lat="-2.594872" lon="-78.792480">
        <ele>3171.00</ele>
        <time>2018-09-08T22:17:58Z</time>
      </trkpt>
      <trkpt lat="-2.594802" lon="-78.792519">
        <ele>3171.00</ele>
        <time>2018-09-08T22:17:59Z</time>
      </trkpt>
      <trkpt lat="-2.594719" lon="-78.792526">
        <ele>3171.00</ele>
        <time>2018-09-08T22:18:00Z</time>
      </trkpt>
      <trkpt lat="-2.594619" lon="-78.792519">
        <ele>3172.00</ele>
        <time>2018-09-08T22:18:01Z</time>
      </trkpt>
      <trkpt lat="-2.594509" lon="-78.792488">
        <ele>3172.00</ele>
        <time>2018-09-08T22:18:02Z</time>
      </trkpt>
      <trkpt lat="-2.594392" lon="-78.792473">
        <ele>3172.00</ele>
        <time>2018-09-08T22:18:03Z</time>
      </trkpt>
      <trkpt lat="-2.594268" lon="-78.792465">
        <ele>3173.00</ele>
        <time>2018-09-08T22:18:04Z</time>
      </trkpt>
      <trkpt lat="-2.594139" lon="-78.792450">
        <ele>3173.00</ele>
        <time>2018-09-08T22:18:05Z</time>
      </trkpt>
      <trkpt lat="-2.594007" lon="-78.792442">
        <ele>3174.00</ele>
        <time>2018-09-08T22:18:06Z</time>
      </trkpt>
      <trkpt lat="-2.593871" lon="-78.792427">
        <ele>3174.00</ele>
        <time>2018-09-08T22:18:07Z</time>
      </trkpt>
      <trkpt lat="-2.593732" lon="-78.792419">
        <ele>3175.00</ele>
        <time>2018-09-08T22:18:08Z</time>
      </trkpt>
      <trkpt lat="-2.593589" lon="-78.792427">
        <ele>3176.00</ele>
        <time>2018-09-08T22:18:09Z</time>
      </trkpt>
      <trkpt lat="-2.593444" lon="-78.792450">
        <ele>3176.00</ele>
        <time>2018-09-08T22:18:10Z</time>
      </trkpt>
      <trkpt lat="-2.593299" lon="-78.792480">
        <ele>3177.00</ele>
        <time>2018-09-08T22:18:11Z</time>
      </trkpt>
      <trkpt lat="-2.593153" lon="-78.792503">
        <ele>3177.00</ele>
        <time>2018-09-08T22:18:12Z</time>
      </trkpt>
      <trkpt lat="-2.593006" lon="-78.792534">
        <ele>3178.00</ele>
        <time>2018-09-08T22:18:13Z</time>
      </trkpt>
      <trkpt lat="-2.592854" lon="-78.792549">
        <ele>3179.00</ele>
        <time>2018-09-08T22:18:14Z</time>
      </trkpt>
      <trkpt lat="-2.592707" lon="-78.792572">
        <ele>3179.00</ele>
        <time>2018-09-08T22:18:15Z</time>
      </trkpt>
      <trkpt lat="-2.592572" lon="-78.792557">
        <ele>3180.00</ele>
        <time>2018-09-08T22:18:16Z</time>
      </trkpt>
      <trkpt lat="-2.592443" lon="-78.792534">
        <ele>3181.00</ele>
        <time>2018-09-08T22:18:17Z</time>
      </trkpt>
      <trkpt lat="-2.592330" lon="-78.792526">
        <ele>3181.00</ele>
        <time>2018-09-08T22:18:18Z</time>
      </trkpt>
      <trkpt lat="-2.592232" lon="-78.792534">
        <ele>3182.00</ele>
        <time>2018-09-08T22:18:19Z</time>
      </trkpt>
      <trkpt lat="-2.592150" lon="-78.792572">
        <ele>3182.00</ele>
        <time>2018-09-08T22:18:20Z</time>
      </trkpt>
      <trkpt lat="-2.592130" lon="-78.792648">
        <ele>3183.00</ele>
        <time>2018-09-08T22:18:21Z</time>
      </trkpt>
      <trkpt lat="-2.592113" lon="-78.792732">
        <ele>3183.00</ele>
        <time>2018-09-08T22:18:22Z</time>
      </trkpt>
      <trkpt lat="-2.592078" lon="-78.792793">
        <ele>3183.00</ele>
        <time>2018-09-08T22:18:23Z</time>
      </trkpt>
      <trkpt lat="-2.591993" lon="-78.792824">
        <ele>3184.00</ele>
        <time>2018-09-08T22:18:24Z</time>
      </trkpt>
      <trkpt lat="-2.591890" lon="-78.792862">
        <ele>3184.00</ele>
        <time>2018-09-08T22:18:25Z</time>
      </trkpt>
      <trkpt lat="-2.591780" lon="-78.792870">
        <ele>3185.00</ele>
        <time>2018-09-08T22:18:26Z</time>
      </trkpt>
      <trkpt lat="-2.591668" lon="-78.792847">
        <ele>3185.00</ele>
        <time>2018-09-08T22:18:27Z</time>
      </trkpt>
      <trkpt lat="-2.591553" lon="-78.792809">
        <ele>3186.00</ele>
        <time>2018-09-08T22:18:28Z</time>
      </trkpt>
      <trkpt lat="-2.591430" lon="-78.792786">
        <ele>3186.00</ele>
        <time>2018-09-08T22:18:29Z</time>
      </trkpt>
      <trkpt lat="-2.591302" lon="-78.792763">
        <ele>3186.00</ele>
        <time>2018-09-08T22:18:30Z</time>
      </trkpt>
      <trkpt lat="-2.591172" lon="-78.792732">
        <ele>3187.00</ele>
        <time>2018-09-08T22:18:31Z</time>
      </trkpt>
      <trkpt lat="-2.591044" lon="-78.792709">
        <ele>3188.00</ele>
        <time>2018-09-08T22:18:32Z</time>
      </trkpt>
      <trkpt lat="-2.590927" lon="-78.792694">
        <ele>3190.00</ele>
        <time>2018-09-08T22:18:33Z</time>
      </trkpt>
      <trkpt lat="-2.590817" lon="-78.792679">
        <ele>3192.00</ele>
        <time>2018-09-08T22:18:34Z</time>
      </trkpt>
      <trkpt lat="-2.590703" lon="-78.792656">
        <ele>3193.00</ele>
        <time>2018-09-08T22:18:35Z</time>
      </trkpt>
      <trkpt lat="-2.590579" lon="-78.792633">
        <ele>3195.00</ele>
        <time>2018-09-08T22:18:36Z</time>
      </trkpt>
      <trkpt lat="-2.590449" lon="-78.792603">
        <ele>3196.00</ele>
        <time>2018-09-08T22:18:37Z</time>
      </trkpt>
      <trkpt lat="-2.590322" lon="-78.792580">
        <ele>3198.00</ele>
        <time>2018-09-08T22:18:38Z</time>
      </trkpt>
      <trkpt lat="-2.590208" lon="-78.792557">
        <ele>3199.00</ele>
        <time>2018-09-08T22:18:39Z</time>
      </trkpt>
      <trkpt lat="-2.590115" lon="-78.792534">
        <ele>3200.00</ele>
        <time>2018-09-08T22:18:40Z</time>
      </trkpt>
      <trkpt lat="-2.590037" lon="-78.792519">
        <ele>3200.00</ele>
        <time>2018-09-08T22:18:41Z</time>
      </trkpt>
      <trkpt lat="-2.589960" lon="-78.792496">
        <ele>3201.00</ele>
        <time>2018-09-08T22:18:42Z</time>
      </trkpt>
      <trkpt lat="-2.589878" lon="-78.792519">
        <ele>3201.00</ele>
        <time>2018-09-08T22:18:43Z</time>
      </trkpt>
      <trkpt lat="-2.589789" lon="-78.792549">
        <ele>3202.00</ele>
        <time>2018-09-08T22:18:44Z</time>
      </trkpt>
      <trkpt lat="-2.589709" lon="-78.792603">
        <ele>3202.00</ele>
        <time>2018-09-08T22:18:45Z</time>
      </trkpt>
      <trkpt lat="-2.589644" lon="-78.792633">
        <ele>3203.00</ele>
        <time>2018-09-08T22:18:46Z</time>
      </trkpt>
      <trkpt lat="-2.589601" lon="-78.792648">
        <ele>3203.00</ele>
        <time>2018-09-08T22:18:47Z</time>
      </trkpt>
      <trkpt lat="-2.589567" lon="-78.792664">
        <ele>3203.00</ele>
        <time>2018-09-08T22:18:48Z</time>
      </trkpt>
      <trkpt lat="-2.589531" lon="-78.792686">
        <ele>3203.00</ele>
        <time>2018-09-08T22:18:49Z</time>
      </trkpt>
      <trkpt lat="-2.589486" lon="-78.792702">
        <ele>3204.00</ele>
        <time>2018-09-08T22:18:50Z</time>
      </trkpt>
      <trkpt lat="-2.589435" lon="-78.792694">
        <ele>3204.00</ele>
        <time>2018-09-08T22:18:51Z</time>
      </trkpt>
      <trkpt lat="-2.589389" lon="-78.792656">
        <ele>3205.00</ele>
        <time>2018-09-08T22:18:52Z</time>
      </trkpt>
      <trkpt lat="-2.589345" lon="-78.792595">
        <ele>3205.00</ele>
        <time>2018-09-08T22:18:53Z</time>
      </trkpt>
      <trkpt lat="-2.589305" lon="-78.792496">
        <ele>3205.00</ele>
        <time>2018-09-08T22:18:54Z</time>
      </trkpt>
      <trkpt lat="-2.589254" lon="-78.792389">
        <ele>3205.00</ele>
        <time>2018-09-08T22:18:55Z</time>
      </trkpt>
      <trkpt lat="-2.589190" lon="-78.792313">
        <ele>3204.00</ele>
        <time>2018-09-08T22:18:56Z</time>
      </trkpt>
      <trkpt lat="-2.589105" lon="-78.792252">
        <ele>3203.00</ele>
        <time>2018-09-08T22:18:57Z</time>
      </trkpt>
      <trkpt lat="-2.589010" lon="-78.792206">
        <ele>3202.00</ele>
        <time>2018-09-08T22:18:58Z</time>
      </trkpt>
      <trkpt lat="-2.588931" lon="-78.792168">
        <ele>3201.00</ele>
        <time>2018-09-08T22:18:59Z</time>
      </trkpt>
      <trkpt lat="-2.588876" lon="-78.792137">
        <ele>3201.00</ele>
        <time>2018-09-08T22:19:00Z</time>
      </trkpt>
      <trkpt lat="-2.588837" lon="-78.792084">
        <ele>3200.00</ele>
        <time>2018-09-08T22:19:01Z</time>
      </trkpt>
      <trkpt lat="-2.588815" lon="-78.792015">
        <ele>3200.00</ele>
        <time>2018-09-08T22:19:02Z</time>
      </trkpt>
      <trkpt lat="-2.588818" lon="-78.791946">
        <ele>3199.00</ele>
        <time>2018-09-08T22:19:03Z</time>
      </trkpt>
      <trkpt lat="-2.588868" lon="-78.791870">
        <ele>3199.00</ele>
        <time>2018-09-08T22:19:04Z</time>
      </trkpt>
      <trkpt lat="-2.588942" lon="-78.791779">
        <ele>3199.00</ele>
        <time>2018-09-08T22:19:05Z</time>
      </trkpt>
      <trkpt lat="-2.589015" lon="-78.791672">
        <ele>3198.00</ele>
        <time>2018-09-08T22:19:06Z</time>
      </trkpt>
      <trkpt lat="-2.589080" lon="-78.791565">
        <ele>3198.00</ele>
        <time>2018-09-08T22:19:07Z</time>
      </trkpt>
      <trkpt lat="-2.589143" lon="-78.791466">
        <ele>3198.00</ele>
        <time>2018-09-08T22:19:08Z</time>
      </trkpt>
      <trkpt lat="-2.589206" lon="-78.791412">
        <ele>3197.00</ele>
        <time>2018-09-08T22:19:09Z</time>
      </trkpt>
      <trkpt lat="-2.589292" lon="-78.791397">
        <ele>3196.00</ele>
        <time>2018-09-08T22:19:10Z</time>
      </trkpt>
      <trkpt lat="-2.589387" lon="-78.791412">
        <ele>3196.00</ele>
        <time>2018-09-08T22:19:11Z</time>
      </trkpt>
      <trkpt lat="-2.589483" lon="-78.791420">
        <ele>3195.00</ele>
        <time>2018-09-08T22:19:12Z</time>
      </trkpt>
      <trkpt lat="-2.589574" lon="-78.791397">
        <ele>3195.00</ele>
        <time>2018-09-08T22:19:13Z</time>
      </trkpt>
      <trkpt lat="-2.589665" lon="-78.791336">
        <ele>3195.00</ele>
        <time>2018-09-08T22:19:14Z</time>
      </trkpt>
      <trkpt lat="-2.589742" lon="-78.791252">
        <ele>3194.00</ele>
        <time>2018-09-08T22:19:15Z</time>
      </trkpt>
      <trkpt lat="-2.589808" lon="-78.791176">
        <ele>3194.00</ele>
        <time>2018-09-08T22:19:16Z</time>
      </trkpt>
      <trkpt lat="-2.589870" lon="-78.791115">
        <ele>3194.00</ele>
        <time>2018-09-08T22:19:17Z</time>
      </trkpt>
      <trkpt lat="-2.589949" lon="-78.791077">
        <ele>3193.00</ele>
        <time>2018-09-08T22:19:18Z</time>
      </trkpt>
      <trkpt lat="-2.590033" lon="-78.791069">
        <ele>3193.00</ele>
        <time>2018-09-08T22:19:19Z</time>
      </trkpt>
      <trkpt lat="-2.590110" lon="-78.791039">
        <ele>3193.00</ele>
        <time>2018-09-08T22:19:20Z</time>
      </trkpt>
      <trkpt lat="-2.590173" lon="-78.790977">
        <ele>3192.00</ele>
        <time>2018-09-08T22:19:21Z</time>
      </trkpt>
      <trkpt lat="-2.590206" lon="-78.790901">
        <ele>3192.00</ele>
        <time>2018-09-08T22:19:22Z</time>
      </trkpt>
      <trkpt lat="-2.590209" lon="-78.790817">
        <ele>3192.00</ele>
        <time>2018-09-08T22:19:23Z</time>
      </trkpt>
      <trkpt lat="-2.590179" lon="-78.790726">
        <ele>3191.00</ele>
        <time>2018-09-08T22:19:24Z</time>
      </trkpt>
      <trkpt lat="-2.590121" lon="-78.790642">
        <ele>3191.00</ele>
        <time>2018-09-08T22:19:25Z</time>
      </trkpt>
      <trkpt lat="-2.590046" lon="-78.790558">
        <ele>3191.00</ele>
        <time>2018-09-08T22:19:26Z</time>
      </trkpt>
      <trkpt lat="-2.589985" lon="-78.790459">
        <ele>3191.00</ele>
        <time>2018-09-08T22:19:27Z</time>
      </trkpt>
      <trkpt lat="-2.589923" lon="-78.790375">
        <ele>3190.00</ele>
        <time>2018-09-08T22:19:28Z</time>
      </trkpt>
      <trkpt lat="-2.589865" lon="-78.790291">
        <ele>3189.00</ele>
        <time>2018-09-08T22:19:29Z</time>
      </trkpt>
      <trkpt lat="-2.589824" lon="-78.790207">
        <ele>3189.00</ele>
        <time>2018-09-08T22:19:30Z</time>
      </trkpt>
      <trkpt lat="-2.589797" lon="-78.790123">
        <ele>3188.00</ele>
        <time>2018-09-08T22:19:31Z</time>
      </trkpt>
      <trkpt lat="-2.589799" lon="-78.790047">
        <ele>3188.00</ele>
        <time>2018-09-08T22:19:32Z</time>
      </trkpt>
      <trkpt lat="-2.589826" lon="-78.789970">
        <ele>3187.00</ele>
        <time>2018-09-08T22:19:33Z</time>
      </trkpt>
      <trkpt lat="-2.589883" lon="-78.789917">
        <ele>3186.00</ele>
        <time>2018-09-08T22:19:34Z</time>
      </trkpt>
      <trkpt lat="-2.589913" lon="-78.789879">
        <ele>3186.00</ele>
        <time>2018-09-08T22:19:35Z</time>
      </trkpt>
      <trkpt lat="-2.589919" lon="-78.789825">
        <ele>3186.00</ele>
        <time>2018-09-08T22:19:36Z</time>
      </trkpt>
      <trkpt lat="-2.589875" lon="-78.789757">
        <ele>3186.00</ele>
        <time>2018-09-08T22:19:37Z</time>
      </trkpt>
      <trkpt lat="-2.589798" lon="-78.789688">
        <ele>3186.00</ele>
        <time>2018-09-08T22:19:38Z</time>
      </trkpt>
      <trkpt lat="-2.589720" lon="-78.789612">
        <ele>3186.00</ele>
        <time>2018-09-08T22:19:39Z</time>
      </trkpt>
      <trkpt lat="-2.589662" lon="-78.789520">
        <ele>3185.00</ele>
        <time>2018-09-08T22:19:40Z</time>
      </trkpt>
      <trkpt lat="-2.589633" lon="-78.789436">
        <ele>3185.00</ele>
        <time>2018-09-08T22:19:41Z</time>
      </trkpt>
      <trkpt lat="-2.589630" lon="-78.789352">
        <ele>3184.00</ele>
        <time>2018-09-08T22:19:42Z</time>
      </trkpt>
      <trkpt lat="-2.589636" lon="-78.789291">
        <ele>3184.00</ele>
        <time>2018-09-08T22:19:43Z</time>
      </trkpt>
      <trkpt lat="-2.589702" lon="-78.789238">
        <ele>3184.00</ele>
        <time>2018-09-08T22:19:44Z</time>
      </trkpt>
      <trkpt lat="-2.589764" lon="-78.789154">
        <ele>3184.00</ele>
        <time>2018-09-08T22:19:45Z</time>
      </trkpt>
      <trkpt lat="-2.589781" lon="-78.789055">
        <ele>3184.00</ele>
        <time>2018-09-08T22:19:46Z</time>
      </trkpt>
      <trkpt lat="-2.589741" lon="-78.788948">
        <ele>3184.00</ele>
        <time>2018-09-08T22:19:47Z</time>
      </trkpt>
      <trkpt lat="-2.589656" lon="-78.788864">
        <ele>3183.00</ele>
        <time>2018-09-08T22:19:48Z</time>
      </trkpt>
      <trkpt lat="-2.589581" lon="-78.788788">
        <ele>3183.00</ele>
        <time>2018-09-08T22:19:49Z</time>
      </trkpt>
      <trkpt lat="-2.589523" lon="-78.788727">
        <ele>3182.00</ele>
        <time>2018-09-08T22:19:50Z</time>
      </trkpt>
      <trkpt lat="-2.589481" lon="-78.788643">
        <ele>3181.00</ele>
        <time>2018-09-08T22:19:51Z</time>
      </trkpt>
      <trkpt lat="-2.589454" lon="-78.788513">
        <ele>3180.00</ele>
        <time>2018-09-08T22:19:52Z</time>
      </trkpt>
      <trkpt lat="-2.589423" lon="-78.788368">
        <ele>3180.00</ele>
        <time>2018-09-08T22:19:53Z</time>
      </trkpt>
      <trkpt lat="-2.589385" lon="-78.788216">
        <ele>3180.00</ele>
        <time>2018-09-08T22:19:54Z</time>
      </trkpt>
      <trkpt lat="-2.589352" lon="-78.788063">
        <ele>3180.00</ele>
        <time>2018-09-08T22:19:55Z</time>
      </trkpt>
      <trkpt lat="-2.589337" lon="-78.787926">
        <ele>3179.00</ele>
        <time>2018-09-08T22:19:56Z</time>
      </trkpt>
      <trkpt lat="-2.589340" lon="-78.787796">
        <ele>3179.00</ele>
        <time>2018-09-08T22:19:57Z</time>
      </trkpt>
      <trkpt lat="-2.589335" lon="-78.787659">
        <ele>3179.00</ele>
        <time>2018-09-08T22:19:58Z</time>
      </trkpt>
      <trkpt lat="-2.589306" lon="-78.787521">
        <ele>3179.00</ele>
        <time>2018-09-08T22:19:59Z</time>
      </trkpt>
      <trkpt lat="-2.589227" lon="-78.787399">
        <ele>3179.00</ele>
        <time>2018-09-08T22:20:00Z</time>
      </trkpt>
      <trkpt lat="-2.589126" lon="-78.787277">
        <ele>3179.00</ele>
        <time>2018-09-08T22:20:01Z</time>
      </trkpt>
      <trkpt lat="-2.589018" lon="-78.787186">
        <ele>3180.00</ele>
        <time>2018-09-08T22:20:02Z</time>
      </trkpt>
      <trkpt lat="-2.588912" lon="-78.787094">
        <ele>3181.00</ele>
        <time>2018-09-08T22:20:03Z</time>
      </trkpt>
      <trkpt lat="-2.588801" lon="-78.787003">
        <ele>3182.00</ele>
        <time>2018-09-08T22:20:04Z</time>
      </trkpt>
      <trkpt lat="-2.588689" lon="-78.786926">
        <ele>3182.00</ele>
        <time>2018-09-08T22:20:05Z</time>
      </trkpt>
      <trkpt lat="-2.588591" lon="-78.786865">
        <ele>3183.00</ele>
        <time>2018-09-08T22:20:06Z</time>
      </trkpt>
      <trkpt lat="-2.588518" lon="-78.786797">
        <ele>3183.00</ele>
        <time>2018-09-08T22:20:07Z</time>
      </trkpt>
      <trkpt lat="-2.588466" lon="-78.786728">
        <ele>3183.00</ele>
        <time>2018-09-08T22:20:08Z</time>
      </trkpt>
      <trkpt lat="-2.588439" lon="-78.786621">
        <ele>3183.00</ele>
        <time>2018-09-08T22:20:09Z</time>
      </trkpt>
      <trkpt lat="-2.588436" lon="-78.786522">
        <ele>3183.00</ele>
        <time>2018-09-08T22:20:10Z</time>
      </trkpt>
      <trkpt lat="-2.588469" lon="-78.786407">
        <ele>3183.00</ele>
        <time>2018-09-08T22:20:11Z</time>
      </trkpt>
      <trkpt lat="-2.588497" lon="-78.786293">
        <ele>3182.00</ele>
        <time>2018-09-08T22:20:12Z</time>
      </trkpt>
      <trkpt lat="-2.588509" lon="-78.786186">
        <ele>3182.00</ele>
        <time>2018-09-08T22:20:13Z</time>
      </trkpt>
      <trkpt lat="-2.588517" lon="-78.786079">
        <ele>3181.00</ele>
        <time>2018-09-08T22:20:14Z</time>
      </trkpt>
      <trkpt lat="-2.588528" lon="-78.785965">
        <ele>3181.00</ele>
        <time>2018-09-08T22:20:15Z</time>
      </trkpt>
      <trkpt lat="-2.588537" lon="-78.785866">
        <ele>3181.00</ele>
        <time>2018-09-08T22:20:16Z</time>
      </trkpt>
      <trkpt lat="-2.588550" lon="-78.785789">
        <ele>3180.00</ele>
        <time>2018-09-08T22:20:17Z</time>
      </trkpt>
      <trkpt lat="-2.588560" lon="-78.785706">
        <ele>3180.00</ele>
        <time>2018-09-08T22:20:18Z</time>
      </trkpt>
      <trkpt lat="-2.588571" lon="-78.785629">
        <ele>3179.00</ele>
        <time>2018-09-08T22:20:19Z</time>
      </trkpt>
      <trkpt lat="-2.588582" lon="-78.785545">
        <ele>3178.00</ele>
        <time>2018-09-08T22:20:20Z</time>
      </trkpt>
      <trkpt lat="-2.588586" lon="-78.785492">
        <ele>3178.00</ele>
        <time>2018-09-08T22:20:21Z</time>
      </trkpt>
      <trkpt lat="-2.588583" lon="-78.785461">
        <ele>3178.00</ele>
        <time>2018-09-08T22:20:22Z</time>
      </trkpt>
      <trkpt lat="-2.588558" lon="-78.785423">
        <ele>3177.00</ele>
        <time>2018-09-08T22:20:23Z</time>
      </trkpt>
      <trkpt lat="-2.588525" lon="-78.785393">
        <ele>3176.00</ele>
        <time>2018-09-08T22:20:24Z</time>
      </trkpt>
      <trkpt lat="-2.588472" lon="-78.785378">
        <ele>3175.00</ele>
        <time>2018-09-08T22:20:25Z</time>
      </trkpt>
      <trkpt lat="-2.588407" lon="-78.785370">
        <ele>3174.00</ele>
        <time>2018-09-08T22:20:26Z</time>
      </trkpt>
      <trkpt lat="-2.588334" lon="-78.785355">
        <ele>3174.00</ele>
        <time>2018-09-08T22:20:27Z</time>
      </trkpt>
      <trkpt lat="-2.588243" lon="-78.785324">
        <ele>3173.00</ele>
        <time>2018-09-08T22:20:28Z</time>
      </trkpt>
      <trkpt lat="-2.588140" lon="-78.785301">
        <ele>3173.00</ele>
        <time>2018-09-08T22:20:29Z</time>
      </trkpt>
      <trkpt lat="-2.588022" lon="-78.785263">
        <ele>3172.00</ele>
        <time>2018-09-08T22:20:30Z</time>
      </trkpt>
      <trkpt lat="-2.587894" lon="-78.785225">
        <ele>3172.00</ele>
        <time>2018-09-08T22:20:31Z</time>
      </trkpt>
      <trkpt lat="-2.587759" lon="-78.785194">
        <ele>3171.00</ele>
        <time>2018-09-08T22:20:32Z</time>
      </trkpt>
      <trkpt lat="-2.587630" lon="-78.785149">
        <ele>3171.00</ele>
        <time>2018-09-08T22:20:33Z</time>
      </trkpt>
      <trkpt lat="-2.587506" lon="-78.785118">
        <ele>3170.00</ele>
        <time>2018-09-08T22:20:34Z</time>
      </trkpt>
      <trkpt lat="-2.587370" lon="-78.785118">
        <ele>3170.00</ele>
        <time>2018-09-08T22:20:35Z</time>
      </trkpt>
      <trkpt lat="-2.587222" lon="-78.785118">
        <ele>3169.00</ele>
        <time>2018-09-08T22:20:36Z</time>
      </trkpt>
      <trkpt lat="-2.587069" lon="-78.785103">
        <ele>3169.00</ele>
        <time>2018-09-08T22:20:37Z</time>
      </trkpt>
      <trkpt lat="-2.586917" lon="-78.785049">
        <ele>3168.00</ele>
        <time>2018-09-08T22:20:38Z</time>
      </trkpt>
      <trkpt lat="-2.586763" lon="-78.784996">
        <ele>3168.00</ele>
        <time>2018-09-08T22:20:39Z</time>
      </trkpt>
      <trkpt lat="-2.586599" lon="-78.784943">
        <ele>3168.00</ele>
        <time>2018-09-08T22:20:40Z</time>
      </trkpt>
      <trkpt lat="-2.586430" lon="-78.784882">
        <ele>3167.00</ele>
        <time>2018-09-08T22:20:41Z</time>
      </trkpt>
      <trkpt lat="-2.586257" lon="-78.784821">
        <ele>3167.00</ele>
        <time>2018-09-08T22:20:42Z</time>
      </trkpt>
      <trkpt lat="-2.586088" lon="-78.784767">
        <ele>3167.00</ele>
        <time>2018-09-08T22:20:43Z</time>
      </trkpt>
      <trkpt lat="-2.585921" lon="-78.784691">
        <ele>3167.00</ele>
        <time>2018-09-08T22:20:44Z</time>
      </trkpt>
      <trkpt lat="-2.585757" lon="-78.784630">
        <ele>3166.00</ele>
        <time>2018-09-08T22:20:45Z</time>
      </trkpt>
      <trkpt lat="-2.585607" lon="-78.784584">
        <ele>3166.00</ele>
        <time>2018-09-08T22:20:46Z</time>
      </trkpt>
      <trkpt lat="-2.585475" lon="-78.784531">
        <ele>3166.00</ele>
        <time>2018-09-08T22:20:47Z</time>
      </trkpt>
      <trkpt lat="-2.585357" lon="-78.784492">
        <ele>3165.00</ele>
        <time>2018-09-08T22:20:48Z</time>
      </trkpt>
      <trkpt lat="-2.585253" lon="-78.784447">
        <ele>3165.00</ele>
        <time>2018-09-08T22:20:49Z</time>
      </trkpt>
      <trkpt lat="-2.585157" lon="-78.784416">
        <ele>3165.00</ele>
        <time>2018-09-08T22:20:50Z</time>
      </trkpt>
      <trkpt lat="-2.585058" lon="-78.784439">
        <ele>3164.00</ele>
        <time>2018-09-08T22:20:51Z</time>
      </trkpt>
      <trkpt lat="-2.584957" lon="-78.784492">
        <ele>3164.00</ele>
        <time>2018-09-08T22:20:52Z</time>
      </trkpt>
      <trkpt lat="-2.584860" lon="-78.784561">
        <ele>3164.00</ele>
        <time>2018-09-08T22:20:53Z</time>
      </trkpt>
      <trkpt lat="-2.584768" lon="-78.784630">
        <ele>3164.00</ele>
        <time>2018-09-08T22:20:54Z</time>
      </trkpt>
      <trkpt lat="-2.584667" lon="-78.784676">
        <ele>3163.00</ele>
        <time>2018-09-08T22:20:55Z</time>
      </trkpt>
      <trkpt lat="-2.584560" lon="-78.784714">
        <ele>3163.00</ele>
        <time>2018-09-08T22:20:56Z</time>
      </trkpt>
      <trkpt lat="-2.584459" lon="-78.784752">
        <ele>3163.00</ele>
        <time>2018-09-08T22:20:57Z</time>
      </trkpt>
      <trkpt lat="-2.584391" lon="-78.784843">
        <ele>3163.00</ele>
        <time>2018-09-08T22:20:58Z</time>
      </trkpt>
      <trkpt lat="-2.584357" lon="-78.784943">
        <ele>3163.00</ele>
        <time>2018-09-08T22:20:59Z</time>
      </trkpt>
      <trkpt lat="-2.584321" lon="-78.785042">
        <ele>3163.00</ele>
        <time>2018-09-08T22:21:00Z</time>
      </trkpt>
      <trkpt lat="-2.584264" lon="-78.785141">
        <ele>3163.00</ele>
        <time>2018-09-08T22:21:01Z</time>
      </trkpt>
      <trkpt lat="-2.584190" lon="-78.785210">
        <ele>3163.00</ele>
        <time>2018-09-08T22:21:02Z</time>
      </trkpt>
      <trkpt lat="-2.584101" lon="-78.785263">
        <ele>3163.00</ele>
        <time>2018-09-08T22:21:03Z</time>
      </trkpt>
      <trkpt lat="-2.584006" lon="-78.785278">
        <ele>3163.00</ele>
        <time>2018-09-08T22:21:04Z</time>
      </trkpt>
      <trkpt lat="-2.583894" lon="-78.785255">
        <ele>3163.00</ele>
        <time>2018-09-08T22:21:05Z</time>
      </trkpt>
      <trkpt lat="-2.583766" lon="-78.785217">
        <ele>3163.00</ele>
        <time>2018-09-08T22:21:06Z</time>
      </trkpt>
      <trkpt lat="-2.583631" lon="-78.785194">
        <ele>3163.00</ele>
        <time>2018-09-08T22:21:07Z</time>
      </trkpt>
      <trkpt lat="-2.583491" lon="-78.785164">
        <ele>3163.00</ele>
        <time>2018-09-08T22:21:08Z</time>
      </trkpt>
      <trkpt lat="-2.583340" lon="-78.785172">
        <ele>3163.00</ele>
        <time>2018-09-08T22:21:09Z</time>
      </trkpt>
      <trkpt lat="-2.583189" lon="-78.785210">
        <ele>3163.00</ele>
        <time>2018-09-08T22:21:10Z</time>
      </trkpt>
      <trkpt lat="-2.583044" lon="-78.785263">
        <ele>3163.00</ele>
        <time>2018-09-08T22:21:11Z</time>
      </trkpt>
      <trkpt lat="-2.582899" lon="-78.785309">
        <ele>3163.00</ele>
        <time>2018-09-08T22:21:12Z</time>
      </trkpt>
      <trkpt lat="-2.582760" lon="-78.785362">
        <ele>3163.00</ele>
        <time>2018-09-08T22:21:13Z</time>
      </trkpt>
      <trkpt lat="-2.582638" lon="-78.785423">
        <ele>3164.00</ele>
        <time>2018-09-08T22:21:14Z</time>
      </trkpt>
      <trkpt lat="-2.582542" lon="-78.785492">
        <ele>3164.00</ele>
        <time>2018-09-08T22:21:15Z</time>
      </trkpt>
      <trkpt lat="-2.582463" lon="-78.785553">
        <ele>3165.00</ele>
        <time>2018-09-08T22:21:16Z</time>
      </trkpt>
      <trkpt lat="-2.582378" lon="-78.785591">
        <ele>3165.00</ele>
        <time>2018-09-08T22:21:17Z</time>
      </trkpt>
      <trkpt lat="-2.582274" lon="-78.785606">
        <ele>3165.00</ele>
        <time>2018-09-08T22:21:18Z</time>
      </trkpt>
      <trkpt lat="-2.582167" lon="-78.785591">
        <ele>3166.00</ele>
        <time>2018-09-08T22:21:19Z</time>
      </trkpt>
      <trkpt lat="-2.582078" lon="-78.785568">
        <ele>3166.00</ele>
        <time>2018-09-08T22:21:20Z</time>
      </trkpt>
      <trkpt lat="-2.582009" lon="-78.785530">
        <ele>3166.00</ele>
        <time>2018-09-08T22:21:21Z</time>
      </trkpt>
      <trkpt lat="-2.581942" lon="-78.785477">
        <ele>3166.00</ele>
        <time>2018-09-08T22:21:22Z</time>
      </trkpt>
      <trkpt lat="-2.581870" lon="-78.785393">
        <ele>3166.00</ele>
        <time>2018-09-08T22:21:23Z</time>
      </trkpt>
      <trkpt lat="-2.581800" lon="-78.785309">
        <ele>3166.00</ele>
        <time>2018-09-08T22:21:24Z</time>
      </trkpt>
      <trkpt lat="-2.581741" lon="-78.785210">
        <ele>3166.00</ele>
        <time>2018-09-08T22:21:25Z</time>
      </trkpt>
      <trkpt lat="-2.581690" lon="-78.785103">
        <ele>3165.00</ele>
        <time>2018-09-08T22:21:26Z</time>
      </trkpt>
      <trkpt lat="-2.581655" lon="-78.784981">
        <ele>3164.00</ele>
        <time>2018-09-08T22:21:27Z</time>
      </trkpt>
      <trkpt lat="-2.581627" lon="-78.784851">
        <ele>3164.00</ele>
        <time>2018-09-08T22:21:28Z</time>
      </trkpt>
      <trkpt lat="-2.581582" lon="-78.784729">
        <ele>3163.00</ele>
        <time>2018-09-08T22:21:29Z</time>
      </trkpt>
      <trkpt lat="-2.581522" lon="-78.784615">
        <ele>3163.00</ele>
        <time>2018-09-08T22:21:30Z</time>
      </trkpt>
      <trkpt lat="-2.581437" lon="-78.784508">
        <ele>3162.00</ele>
        <time>2018-09-08T22:21:31Z</time>
      </trkpt>
      <trkpt lat="-2.581324" lon="-78.784409">
        <ele>3162.00</ele>
        <time>2018-09-08T22:21:32Z</time>
      </trkpt>
      <trkpt lat="-2.581210" lon="-78.784332">
        <ele>3161.00</ele>
        <time>2018-09-08T22:21:33Z</time>
      </trkpt>
      <trkpt lat="-2.581094" lon="-78.784279">
        <ele>3161.00</ele>
        <time>2018-09-08T22:21:34Z</time>
      </trkpt>
      <trkpt lat="-2.580977" lon="-78.784241">
        <ele>3161.00</ele>
        <time>2018-09-08T22:21:35Z</time>
      </trkpt>
      <trkpt lat="-2.580867" lon="-78.784203">
        <ele>3161.00</ele>
        <time>2018-09-08T22:21:36Z</time>
      </trkpt>
      <trkpt lat="-2.580774" lon="-78.784134">
        <ele>3161.00</ele>
        <time>2018-09-08T22:21:37Z</time>
      </trkpt>
      <trkpt lat="-2.580691" lon="-78.784050">
        <ele>3161.00</ele>
        <time>2018-09-08T22:21:38Z</time>
      </trkpt>
      <trkpt lat="-2.580592" lon="-78.783974">
        <ele>3161.00</ele>
        <time>2018-09-08T22:21:39Z</time>
      </trkpt>
      <trkpt lat="-2.580475" lon="-78.783936">
        <ele>3161.00</ele>
        <time>2018-09-08T22:21:40Z</time>
      </trkpt>
      <trkpt lat="-2.580342" lon="-78.783920">
        <ele>3163.00</ele>
        <time>2018-09-08T22:21:41Z</time>
      </trkpt>
      <trkpt lat="-2.580216" lon="-78.783920">
        <ele>3164.00</ele>
        <time>2018-09-08T22:21:42Z</time>
      </trkpt>
      <trkpt lat="-2.580089" lon="-78.783905">
        <ele>3165.00</ele>
        <time>2018-09-08T22:21:43Z</time>
      </trkpt>
      <trkpt lat="-2.579966" lon="-78.783867">
        <ele>3166.00</ele>
        <time>2018-09-08T22:21:44Z</time>
      </trkpt>
      <trkpt lat="-2.579854" lon="-78.783806">
        <ele>3167.00</ele>
        <time>2018-09-08T22:21:45Z</time>
      </trkpt>
      <trkpt lat="-2.579752" lon="-78.783745">
        <ele>3167.00</ele>
        <time>2018-09-08T22:21:46Z</time>
      </trkpt>
      <trkpt lat="-2.579664" lon="-78.783661">
        <ele>3168.00</ele>
        <time>2018-09-08T22:21:47Z</time>
      </trkpt>
      <trkpt lat="-2.579595" lon="-78.783585">
        <ele>3168.00</ele>
        <time>2018-09-08T22:21:48Z</time>
      </trkpt>
      <trkpt lat="-2.579542" lon="-78.783501">
        <ele>3168.00</ele>
        <time>2018-09-08T22:21:49Z</time>
      </trkpt>
      <trkpt lat="-2.579504" lon="-78.783417">
        <ele>3168.00</ele>
        <time>2018-09-08T22:21:50Z</time>
      </trkpt>
      <trkpt lat="-2.579483" lon="-78.783310">
        <ele>3168.00</ele>
        <time>2018-09-08T22:21:51Z</time>
      </trkpt>
      <trkpt lat="-2.579480" lon="-78.783180">
        <ele>3168.00</ele>
        <time>2018-09-08T22:21:52Z</time>
      </trkpt>
      <trkpt lat="-2.579511" lon="-78.783058">
        <ele>3169.00</ele>
        <time>2018-09-08T22:21:53Z</time>
      </trkpt>
      <trkpt lat="-2.579562" lon="-78.782921">
        <ele>3168.00</ele>
        <time>2018-09-08T22:21:54Z</time>
      </trkpt>
      <trkpt lat="-2.579607" lon="-78.782799">
        <ele>3167.00</ele>
        <time>2018-09-08T22:21:55Z</time>
      </trkpt>
      <trkpt lat="-2.579643" lon="-78.782677">
        <ele>3165.00</ele>
        <time>2018-09-08T22:21:56Z</time>
      </trkpt>
      <trkpt lat="-2.579693" lon="-78.782555">
        <ele>3164.00</ele>
        <time>2018-09-08T22:21:57Z</time>
      </trkpt>
      <trkpt lat="-2.579764" lon="-78.782425">
        <ele>3163.00</ele>
        <time>2018-09-08T22:21:58Z</time>
      </trkpt>
      <trkpt lat="-2.579827" lon="-78.782303">
        <ele>3163.00</ele>
        <time>2018-09-08T22:21:59Z</time>
      </trkpt>
      <trkpt lat="-2.579860" lon="-78.782158">
        <ele>3162.00</ele>
        <time>2018-09-08T22:22:00Z</time>
      </trkpt>
      <trkpt lat="-2.579860" lon="-78.782021">
        <ele>3162.00</ele>
        <time>2018-09-08T22:22:01Z</time>
      </trkpt>
      <trkpt lat="-2.579844" lon="-78.781876">
        <ele>3162.00</ele>
        <time>2018-09-08T22:22:02Z</time>
      </trkpt>
      <trkpt lat="-2.579835" lon="-78.781731">
        <ele>3162.00</ele>
        <time>2018-09-08T22:22:03Z</time>
      </trkpt>
      <trkpt lat="-2.579839" lon="-78.781609">
        <ele>3162.00</ele>
        <time>2018-09-08T22:22:04Z</time>
      </trkpt>
      <trkpt lat="-2.579857" lon="-78.781494">
        <ele>3162.00</ele>
        <time>2018-09-08T22:22:05Z</time>
      </trkpt>
      <trkpt lat="-2.579876" lon="-78.781380">
        <ele>3162.00</ele>
        <time>2018-09-08T22:22:06Z</time>
      </trkpt>
      <trkpt lat="-2.579887" lon="-78.781250">
        <ele>3162.00</ele>
        <time>2018-09-08T22:22:07Z</time>
      </trkpt>
      <trkpt lat="-2.579881" lon="-78.781113">
        <ele>3163.00</ele>
        <time>2018-09-08T22:22:08Z</time>
      </trkpt>
      <trkpt lat="-2.579834" lon="-78.780975">
        <ele>3163.00</ele>
        <time>2018-09-08T22:22:09Z</time>
      </trkpt>
      <trkpt lat="-2.579766" lon="-78.780853">
        <ele>3163.00</ele>
        <time>2018-09-08T22:22:10Z</time>
      </trkpt>
      <trkpt lat="-2.579701" lon="-78.780762">
        <ele>3163.00</ele>
        <time>2018-09-08T22:22:11Z</time>
      </trkpt>
      <trkpt lat="-2.579629" lon="-78.780685">
        <ele>3163.00</ele>
        <time>2018-09-08T22:22:12Z</time>
      </trkpt>
      <trkpt lat="-2.579534" lon="-78.780624">
        <ele>3163.00</ele>
        <time>2018-09-08T22:22:13Z</time>
      </trkpt>
      <trkpt lat="-2.579414" lon="-78.780586">
        <ele>3163.00</ele>
        <time>2018-09-08T22:22:14Z</time>
      </trkpt>
      <trkpt lat="-2.579280" lon="-78.780571">
        <ele>3164.00</ele>
        <time>2018-09-08T22:22:15Z</time>
      </trkpt>
      <trkpt lat="-2.579143" lon="-78.780579">
        <ele>3164.00</ele>
        <time>2018-09-08T22:22:16Z</time>
      </trkpt>
      <trkpt lat="-2.579011" lon="-78.780594">
        <ele>3164.00</ele>
        <time>2018-09-08T22:22:17Z</time>
      </trkpt>
      <trkpt lat="-2.578876" lon="-78.780586">
        <ele>3164.00</ele>
        <time>2018-09-08T22:22:18Z</time>
      </trkpt>
      <trkpt lat="-2.578726" lon="-78.780579">
        <ele>3164.00</ele>
        <time>2018-09-08T22:22:19Z</time>
      </trkpt>
      <trkpt lat="-2.578568" lon="-78.780571">
        <ele>3164.00</ele>
        <time>2018-09-08T22:22:20Z</time>
      </trkpt>
      <trkpt lat="-2.578419" lon="-78.780571">
        <ele>3163.00</ele>
        <time>2018-09-08T22:22:21Z</time>
      </trkpt>
      <trkpt lat="-2.578281" lon="-78.780571">
        <ele>3163.00</ele>
        <time>2018-09-08T22:22:22Z</time>
      </trkpt>
      <trkpt lat="-2.578142" lon="-78.780602">
        <ele>3162.00</ele>
        <time>2018-09-08T22:22:23Z</time>
      </trkpt>
      <trkpt lat="-2.578001" lon="-78.780655">
        <ele>3162.00</ele>
        <time>2018-09-08T22:22:24Z</time>
      </trkpt>
      <trkpt lat="-2.577856" lon="-78.780731">
        <ele>3162.00</ele>
        <time>2018-09-08T22:22:25Z</time>
      </trkpt>
      <trkpt lat="-2.577715" lon="-78.780830">
        <ele>3162.00</ele>
        <time>2018-09-08T22:22:26Z</time>
      </trkpt>
      <trkpt lat="-2.577586" lon="-78.780914">
        <ele>3161.00</ele>
        <time>2018-09-08T22:22:27Z</time>
      </trkpt>
      <trkpt lat="-2.577484" lon="-78.780998">
        <ele>3162.00</ele>
        <time>2018-09-08T22:22:28Z</time>
      </trkpt>
      <trkpt lat="-2.577403" lon="-78.781067">
        <ele>3162.00</ele>
        <time>2018-09-08T22:22:29Z</time>
      </trkpt>
      <trkpt lat="-2.577329" lon="-78.781120">
        <ele>3162.00</ele>
        <time>2018-09-08T22:22:30Z</time>
      </trkpt>
      <trkpt lat="-2.577242" lon="-78.781143">
        <ele>3162.00</ele>
        <time>2018-09-08T22:22:31Z</time>
      </trkpt>
      <trkpt lat="-2.577137" lon="-78.781158">
        <ele>3162.00</ele>
        <time>2018-09-08T22:22:32Z</time>
      </trkpt>
      <trkpt lat="-2.577031" lon="-78.781128">
        <ele>3162.00</ele>
        <time>2018-09-08T22:22:33Z</time>
      </trkpt>
      <trkpt lat="-2.576931" lon="-78.781075">
        <ele>3162.00</ele>
        <time>2018-09-08T22:22:34Z</time>
      </trkpt>
      <trkpt lat="-2.576839" lon="-78.781006">
        <ele>3161.00</ele>
        <time>2018-09-08T22:22:35Z</time>
      </trkpt>
      <trkpt lat="-2.576747" lon="-78.780899">
        <ele>3161.00</ele>
        <time>2018-09-08T22:22:36Z</time>
      </trkpt>
      <trkpt lat="-2.576649" lon="-78.780777">
        <ele>3161.00</ele>
        <time>2018-09-08T22:22:37Z</time>
      </trkpt>
      <trkpt lat="-2.576544" lon="-78.780655">
        <ele>3161.00</ele>
        <time>2018-09-08T22:22:38Z</time>
      </trkpt>
      <trkpt lat="-2.576435" lon="-78.780540">
        <ele>3161.00</ele>
        <time>2018-09-08T22:22:39Z</time>
      </trkpt>
      <trkpt lat="-2.576322" lon="-78.780426">
        <ele>3161.00</ele>
        <time>2018-09-08T22:22:40Z</time>
      </trkpt>
      <trkpt lat="-2.576197" lon="-78.780312">
        <ele>3161.00</ele>
        <time>2018-09-08T22:22:41Z</time>
      </trkpt>
      <trkpt lat="-2.576076" lon="-78.780197">
        <ele>3161.00</ele>
        <time>2018-09-08T22:22:42Z</time>
      </trkpt>
      <trkpt lat="-2.575972" lon="-78.780098">
        <ele>3161.00</ele>
        <time>2018-09-08T22:22:43Z</time>
      </trkpt>
      <trkpt lat="-2.575881" lon="-78.780029">
        <ele>3161.00</ele>
        <time>2018-09-08T22:22:44Z</time>
      </trkpt>
      <trkpt lat="-2.575778" lon="-78.779976">
        <ele>3161.00</ele>
        <time>2018-09-08T22:22:45Z</time>
      </trkpt>
      <trkpt lat="-2.575657" lon="-78.779961">
        <ele>3161.00</ele>
        <time>2018-09-08T22:22:46Z</time>
      </trkpt>
      <trkpt lat="-2.575532" lon="-78.779961">
        <ele>3161.00</ele>
        <time>2018-09-08T22:22:47Z</time>
      </trkpt>
      <trkpt lat="-2.575410" lon="-78.779991">
        <ele>3161.00</ele>
        <time>2018-09-08T22:22:48Z</time>
      </trkpt>
      <trkpt lat="-2.575321" lon="-78.780067">
        <ele>3161.00</ele>
        <time>2018-09-08T22:22:49Z</time>
      </trkpt>
      <trkpt lat="-2.575246" lon="-78.780167">
        <ele>3161.00</ele>
        <time>2018-09-08T22:22:50Z</time>
      </trkpt>
      <trkpt lat="-2.575186" lon="-78.780296">
        <ele>3162.00</ele>
        <time>2018-09-08T22:22:51Z</time>
      </trkpt>
      <trkpt lat="-2.575127" lon="-78.780426">
        <ele>3161.00</ele>
        <time>2018-09-08T22:22:52Z</time>
      </trkpt>
      <trkpt lat="-2.575054" lon="-78.780563">
        <ele>3161.00</ele>
        <time>2018-09-08T22:22:53Z</time>
      </trkpt>
      <trkpt lat="-2.574960" lon="-78.780701">
        <ele>3161.00</ele>
        <time>2018-09-08T22:22:54Z</time>
      </trkpt>
      <trkpt lat="-2.574860" lon="-78.780846">
        <ele>3161.00</ele>
        <time>2018-09-08T22:22:55Z</time>
      </trkpt>
      <trkpt lat="-2.574776" lon="-78.780998">
        <ele>3162.00</ele>
        <time>2018-09-08T22:22:56Z</time>
      </trkpt>
      <trkpt lat="-2.574708" lon="-78.781143">
        <ele>3162.00</ele>
        <time>2018-09-08T22:22:57Z</time>
      </trkpt>
      <trkpt lat="-2.574642" lon="-78.781273">
        <ele>3163.00</ele>
        <time>2018-09-08T22:22:58Z</time>
      </trkpt>
      <trkpt lat="-2.574589" lon="-78.781403">
        <ele>3164.00</ele>
        <time>2018-09-08T22:22:59Z</time>
      </trkpt>
      <trkpt lat="-2.574539" lon="-78.781532">
        <ele>3164.00</ele>
        <time>2018-09-08T22:23:00Z</time>
      </trkpt>
      <trkpt lat="-2.574477" lon="-78.781662">
        <ele>3164.00</ele>
        <time>2018-09-08T22:23:01Z</time>
      </trkpt>
      <trkpt lat="-2.574409" lon="-78.781799">
        <ele>3164.00</ele>
        <time>2018-09-08T22:23:02Z</time>
      </trkpt>
      <trkpt lat="-2.574347" lon="-78.781921">
        <ele>3164.00</ele>
        <time>2018-09-08T22:23:03Z</time>
      </trkpt>
      <trkpt lat="-2.574286" lon="-78.782028">
        <ele>3164.00</ele>
        <time>2018-09-08T22:23:04Z</time>
      </trkpt>
      <trkpt lat="-2.574213" lon="-78.782127">
        <ele>3164.00</ele>
        <time>2018-09-08T22:23:05Z</time>
      </trkpt>
      <trkpt lat="-2.574138" lon="-78.782204">
        <ele>3164.00</ele>
        <time>2018-09-08T22:23:06Z</time>
      </trkpt>
      <trkpt lat="-2.574077" lon="-78.782265">
        <ele>3164.00</ele>
        <time>2018-09-08T22:23:07Z</time>
      </trkpt>
      <trkpt lat="-2.574038" lon="-78.782318">
        <ele>3163.00</ele>
        <time>2018-09-08T22:23:08Z</time>
      </trkpt>
      <trkpt lat="-2.574057" lon="-78.782394">
        <ele>3163.00</ele>
        <time>2018-09-08T22:23:09Z</time>
      </trkpt>
      <trkpt lat="-2.574118" lon="-78.782463">
        <ele>3163.00</ele>
        <time>2018-09-08T22:23:10Z</time>
      </trkpt>
      <trkpt lat="-2.574208" lon="-78.782532">
        <ele>3163.00</ele>
        <time>2018-09-08T22:23:11Z</time>
      </trkpt>
      <trkpt lat="-2.574310" lon="-78.782593">
        <ele>3163.00</ele>
        <time>2018-09-08T22:23:12Z</time>
      </trkpt>
      <trkpt lat="-2.574419" lon="-78.782669">
        <ele>3163.00</ele>
        <time>2018-09-08T22:23:13Z</time>
      </trkpt>
      <trkpt lat="-2.574512" lon="-78.782722">
        <ele>3163.00</ele>
        <time>2018-09-08T22:23:14Z</time>
      </trkpt>
      <trkpt lat="-2.574589" lon="-78.782776">
        <ele>3163.00</ele>
        <time>2018-09-08T22:23:15Z</time>
      </trkpt>
      <trkpt lat="-2.574640" lon="-78.782829">
        <ele>3164.00</ele>
        <time>2018-09-08T22:23:16Z</time>
      </trkpt>
      <trkpt lat="-2.574668" lon="-78.782883">
        <ele>3164.00</ele>
        <time>2018-09-08T22:23:17Z</time>
      </trkpt>
      <trkpt lat="-2.574673" lon="-78.782921">
        <ele>3164.00</ele>
        <time>2018-09-08T22:23:18Z</time>
      </trkpt>
      <trkpt lat="-2.574655" lon="-78.782967">
        <ele>3164.00</ele>
        <time>2018-09-08T22:23:19Z</time>
      </trkpt>
      <trkpt lat="-2.574609" lon="-78.783012">
        <ele>3164.00</ele>
        <time>2018-09-08T22:23:20Z</time>
      </trkpt>
      <trkpt lat="-2.574535" lon="-78.783066">
        <ele>3164.00</ele>
        <time>2018-09-08T22:23:21Z</time>
      </trkpt>
      <trkpt lat="-2.574445" lon="-78.783119">
        <ele>3163.00</ele>
        <time>2018-09-08T22:23:22Z</time>
      </trkpt>
      <trkpt lat="-2.574346" lon="-78.783165">
        <ele>3163.00</ele>
        <time>2018-09-08T22:23:23Z</time>
      </trkpt>
      <trkpt lat="-2.574232" lon="-78.783188">
        <ele>3163.00</ele>
        <time>2018-09-08T22:23:24Z</time>
      </trkpt>
      <trkpt lat="-2.574097" lon="-78.783203">
        <ele>3163.00</ele>
        <time>2018-09-08T22:23:25Z</time>
      </trkpt>
      <trkpt lat="-2.573950" lon="-78.783203">
        <ele>3162.00</ele>
        <time>2018-09-08T22:23:26Z</time>
      </trkpt>
      <trkpt lat="-2.573796" lon="-78.783180">
        <ele>3162.00</ele>
        <time>2018-09-08T22:23:27Z</time>
      </trkpt>
      <trkpt lat="-2.573651" lon="-78.783173">
        <ele>3161.00</ele>
        <time>2018-09-08T22:23:28Z</time>
      </trkpt>
      <trkpt lat="-2.573526" lon="-78.783173">
        <ele>3161.00</ele>
        <time>2018-09-08T22:23:29Z</time>
      </trkpt>
      <trkpt lat="-2.573410" lon="-78.783188">
        <ele>3160.00</ele>
        <time>2018-09-08T22:23:30Z</time>
      </trkpt>
      <trkpt lat="-2.573299" lon="-78.783241">
        <ele>3160.00</ele>
        <time>2018-09-08T22:23:31Z</time>
      </trkpt>
      <trkpt lat="-2.573202" lon="-78.783340">
        <ele>3160.00</ele>
        <time>2018-09-08T22:23:32Z</time>
      </trkpt>
      <trkpt lat="-2.573131" lon="-78.783455">
        <ele>3160.00</ele>
        <time>2018-09-08T22:23:33Z</time>
      </trkpt>
      <trkpt lat="-2.573070" lon="-78.783554">
        <ele>3160.00</ele>
        <time>2018-09-08T22:23:34Z</time>
      </trkpt>
      <trkpt lat="-2.573004" lon="-78.783638">
        <ele>3160.00</ele>
        <time>2018-09-08T22:23:35Z</time>
      </trkpt>
      <trkpt lat="-2.572926" lon="-78.783707">
        <ele>3160.00</ele>
        <time>2018-09-08T22:23:36Z</time>
      </trkpt>
      <trkpt lat="-2.572826" lon="-78.783768">
        <ele>3160.00</ele>
        <time>2018-09-08T22:23:37Z</time>
      </trkpt>
      <trkpt lat="-2.572701" lon="-78.783813">
        <ele>3159.00</ele>
        <time>2018-09-08T22:23:38Z</time>
      </trkpt>
      <trkpt lat="-2.572566" lon="-78.783836">
        <ele>3159.00</ele>
        <time>2018-09-08T22:23:39Z</time>
      </trkpt>
      <trkpt lat="-2.572436" lon="-78.783875">
        <ele>3159.00</ele>
        <time>2018-09-08T22:23:40Z</time>
      </trkpt>
      <trkpt lat="-2.572315" lon="-78.783928">
        <ele>3160.00</ele>
        <time>2018-09-08T22:23:41Z</time>
      </trkpt>
      <trkpt lat="-2.572232" lon="-78.783997">
        <ele>3160.00</ele>
        <time>2018-09-08T22:23:42Z</time>
      </trkpt>
      <trkpt lat="-2.572165" lon="-78.784096">
        <ele>3161.00</ele>
        <time>2018-09-08T22:23:43Z</time>
      </trkpt>
      <trkpt lat="-2.572135" lon="-78.784210">
        <ele>3161.00</ele>
        <time>2018-09-08T22:23:44Z</time>
      </trkpt>
      <trkpt lat="-2.572114" lon="-78.784340">
        <ele>3161.00</ele>
        <time>2018-09-08T22:23:45Z</time>
      </trkpt>
      <trkpt lat="-2.572095" lon="-78.784447">
        <ele>3162.00</ele>
        <time>2018-09-08T22:23:46Z</time>
      </trkpt>
      <trkpt lat="-2.572032" lon="-78.784546">
        <ele>3162.00</ele>
        <time>2018-09-08T22:23:47Z</time>
      </trkpt>
      <trkpt lat="-2.571940" lon="-78.784630">
        <ele>3162.00</ele>
        <time>2018-09-08T22:23:48Z</time>
      </trkpt>
      <trkpt lat="-2.571834" lon="-78.784729">
        <ele>3162.00</ele>
        <time>2018-09-08T22:23:49Z</time>
      </trkpt>
      <trkpt lat="-2.571722" lon="-78.784828">
        <ele>3162.00</ele>
        <time>2018-09-08T22:23:50Z</time>
      </trkpt>
      <trkpt lat="-2.571599" lon="-78.784912">
        <ele>3162.00</ele>
        <time>2018-09-08T22:23:51Z</time>
      </trkpt>
      <trkpt lat="-2.571461" lon="-78.785004">
        <ele>3162.00</ele>
        <time>2018-09-08T22:23:52Z</time>
      </trkpt>
      <trkpt lat="-2.571312" lon="-78.785088">
        <ele>3162.00</ele>
        <time>2018-09-08T22:23:53Z</time>
      </trkpt>
      <trkpt lat="-2.571160" lon="-78.785164">
        <ele>3162.00</ele>
        <time>2018-09-08T22:23:54Z</time>
      </trkpt>
      <trkpt lat="-2.571009" lon="-78.785255">
        <ele>3162.00</ele>
        <time>2018-09-08T22:23:55Z</time>
      </trkpt>
      <trkpt lat="-2.570857" lon="-78.785339">
        <ele>3163.00</ele>
        <time>2018-09-08T22:23:56Z</time>
      </trkpt>
      <trkpt lat="-2.570709" lon="-78.785439">
        <ele>3163.00</ele>
        <time>2018-09-08T22:23:57Z</time>
      </trkpt>
      <trkpt lat="-2.570582" lon="-78.785522">
        <ele>3163.00</ele>
        <time>2018-09-08T22:23:58Z</time>
      </trkpt>
      <trkpt lat="-2.570481" lon="-78.785583">
        <ele>3164.00</ele>
        <time>2018-09-08T22:23:59Z</time>
      </trkpt>
      <trkpt lat="-2.570404" lon="-78.785614">
        <ele>3164.00</ele>
        <time>2018-09-08T22:24:00Z</time>
      </trkpt>
      <trkpt lat="-2.570353" lon="-78.785645">
        <ele>3164.00</ele>
        <time>2018-09-08T22:24:01Z</time>
      </trkpt>
      <trkpt lat="-2.570353" lon="-78.785645">
        <ele>3164.00</ele>
        <time>2018-09-08T22:24:02Z</time>
      </trkpt>
      <trkpt lat="-2.570353" lon="-78.785645">
        <ele>3164.00</ele>
        <time>2018-09-08T22:24:03Z</time>
      </trkpt>
      <trkpt lat="-2.570353" lon="-78.785645">
        <ele>3164.00</ele>
        <time>2018-09-08T22:24:04Z</time>
      </trkpt>
      <trkpt lat="-2.570353" lon="-78.785645">
        <ele>3164.00</ele>
        <time>2018-09-08T22:24:05Z</time>
      </trkpt>
      <trkpt lat="-2.570353" lon="-78.785645">
        <ele>3164.00</ele>
        <time>2018-09-08T22:24:06Z</time>
      </trkpt>
      <trkpt lat="-2.570353" lon="-78.785645">
        <ele>3164.00</ele>
        <time>2018-09-08T22:24:07Z</time>
      </trkpt>
      <trkpt lat="-2.570303" lon="-78.785683">
        <ele>3164.00</ele>
        <time>2018-09-08T22:24:08Z</time>
      </trkpt>
      <trkpt lat="-2.570271" lon="-78.785698">
        <ele>3164.00</ele>
        <time>2018-09-08T22:24:09Z</time>
      </trkpt>
      <trkpt lat="-2.570224" lon="-78.785721">
        <ele>3164.00</ele>
        <time>2018-09-08T22:24:10Z</time>
      </trkpt>
      <trkpt lat="-2.570162" lon="-78.785759">
        <ele>3164.00</ele>
        <time>2018-09-08T22:24:11Z</time>
      </trkpt>
      <trkpt lat="-2.570090" lon="-78.785797">
        <ele>3164.00</ele>
        <time>2018-09-08T22:24:12Z</time>
      </trkpt>
      <trkpt lat="-2.570014" lon="-78.785828">
        <ele>3164.00</ele>
        <time>2018-09-08T22:24:13Z</time>
      </trkpt>
      <trkpt lat="-2.569939" lon="-78.785873">
        <ele>3164.00</ele>
        <time>2018-09-08T22:24:14Z</time>
      </trkpt>
      <trkpt lat="-2.569865" lon="-78.785919">
        <ele>3164.00</ele>
        <time>2018-09-08T22:24:15Z</time>
      </trkpt>
      <trkpt lat="-2.569790" lon="-78.785957">
        <ele>3164.00</ele>
        <time>2018-09-08T22:24:16Z</time>
      </trkpt>
      <trkpt lat="-2.569717" lon="-78.786003">
        <ele>3164.00</ele>
        <time>2018-09-08T22:24:17Z</time>
      </trkpt>
      <trkpt lat="-2.569644" lon="-78.786034">
        <ele>3165.00</ele>
        <time>2018-09-08T22:24:18Z</time>
      </trkpt>
      <trkpt lat="-2.569571" lon="-78.786079">
        <ele>3165.00</ele>
        <time>2018-09-08T22:24:19Z</time>
      </trkpt>
      <trkpt lat="-2.569497" lon="-78.786118">
        <ele>3165.00</ele>
        <time>2018-09-08T22:24:20Z</time>
      </trkpt>
      <trkpt lat="-2.569421" lon="-78.786163">
        <ele>3165.00</ele>
        <time>2018-09-08T22:24:21Z</time>
      </trkpt>
      <trkpt lat="-2.569341" lon="-78.786201">
        <ele>3165.00</ele>
        <time>2018-09-08T22:24:22Z</time>
      </trkpt>
      <trkpt lat="-2.569258" lon="-78.786247">
        <ele>3166.00</ele>
        <time>2018-09-08T22:24:23Z</time>
      </trkpt>
      <trkpt lat="-2.569175" lon="-78.786293">
        <ele>3166.00</ele>
        <time>2018-09-08T22:24:24Z</time>
      </trkpt>
      <trkpt lat="-2.569093" lon="-78.786339">
        <ele>3166.00</ele>
        <time>2018-09-08T22:24:25Z</time>
      </trkpt>
      <trkpt lat="-2.569019" lon="-78.786377">
        <ele>3166.00</ele>
        <time>2018-09-08T22:24:26Z</time>
      </trkpt>
      <trkpt lat="-2.568959" lon="-78.786415">
        <ele>3166.00</ele>
        <time>2018-09-08T22:24:27Z</time>
      </trkpt>
      <trkpt lat="-2.568921" lon="-78.786453">
        <ele>3166.00</ele>
        <time>2018-09-08T22:24:28Z</time>
      </trkpt>
      <trkpt lat="-2.568899" lon="-78.786491">
        <ele>3166.00</ele>
        <time>2018-09-08T22:24:29Z</time>
      </trkpt>
      <trkpt lat="-2.568899" lon="-78.786522">
        <ele>3166.00</ele>
        <time>2018-09-08T22:24:30Z</time>
      </trkpt>
      <trkpt lat="-2.568899" lon="-78.786522">
        <ele>3166.00</ele>
        <time>2018-09-08T22:24:31Z</time>
      </trkpt>
      <trkpt lat="-2.568899" lon="-78.786522">
        <ele>3166.00</ele>
        <time>2018-09-08T22:24:32Z</time>
      </trkpt>
      <trkpt lat="-2.568899" lon="-78.786522">
        <ele>3166.00</ele>
        <time>2018-09-08T22:24:33Z</time>
      </trkpt>
      <trkpt lat="-2.568899" lon="-78.786522">
        <ele>3166.00</ele>
        <time>2018-09-08T22:24:34Z</time>
      </trkpt>
      <trkpt lat="-2.568899" lon="-78.786522">
        <ele>3166.00</ele>
        <time>2018-09-08T22:24:35Z</time>
      </trkpt>
      <trkpt lat="-2.568899" lon="-78.786522">
        <ele>3166.00</ele>
        <time>2018-09-08T22:24:36Z</time>
      </trkpt>
      <trkpt lat="-2.568899" lon="-78.786522">
        <ele>3166.00</ele>
        <time>2018-09-08T22:24:37Z</time>
      </trkpt>
      <trkpt lat="-2.568899" lon="-78.786522">
        <ele>3166.00</ele>
        <time>2018-09-08T22:24:38Z</time>
      </trkpt>
      <trkpt lat="-2.568899" lon="-78.786522">
        <ele>3166.00</ele>
        <time>2018-09-08T22:24:39Z</time>
      </trkpt>
      <trkpt lat="-2.568899" lon="-78.786522">
        <ele>3166.00</ele>
        <time>2018-09-08T22:24:40Z</time>
      </trkpt>
      <trkpt lat="-2.568899" lon="-78.786522">
        <ele>3166.00</ele>
        <time>2018-09-08T22:24:41Z</time>
      </trkpt>
      <trkpt lat="-2.568899" lon="-78.786522">
        <ele>3166.00</ele>
        <time>2018-09-08T22:24:42Z</time>
      </trkpt>
      <trkpt lat="-2.568899" lon="-78.786522">
        <ele>3166.00</ele>
        <time>2018-09-08T22:24:43Z</time>
      </trkpt>
      <trkpt lat="-2.568899" lon="-78.786522">
        <ele>3166.00</ele>
        <time>2018-09-08T22:24:44Z</time>
      </trkpt>
      <trkpt lat="-2.568899" lon="-78.786522">
        <ele>3166.00</ele>
        <time>2018-09-08T22:24:45Z</time>
      </trkpt>
      <trkpt lat="-2.568899" lon="-78.786522">
        <ele>3167.00</ele>
        <time>2018-09-08T22:24:46Z</time>
      </trkpt>
      <trkpt lat="-2.568899" lon="-78.786522">
        <ele>3167.00</ele>
        <time>2018-09-08T22:24:47Z</time>
      </trkpt>
      <trkpt lat="-2.568899" lon="-78.786522">
        <ele>3167.00</ele>
        <time>2018-09-08T22:24:48Z</time>
      </trkpt>
      <trkpt lat="-2.568899" lon="-78.786522">
        <ele>3167.00</ele>
        <time>2018-09-08T22:24:49Z</time>
      </trkpt>
      <trkpt lat="-2.568899" lon="-78.786522">
        <ele>3167.00</ele>
        <time>2018-09-08T22:24:50Z</time>
      </trkpt>
      <trkpt lat="-2.568899" lon="-78.786522">
        <ele>3167.00</ele>
        <time>2018-09-08T22:24:51Z</time>
      </trkpt>
      <trkpt lat="-2.568899" lon="-78.786522">
        <ele>3167.00</ele>
        <time>2018-09-08T22:24:52Z</time>
      </trkpt>
      <trkpt lat="-2.568899" lon="-78.786522">
        <ele>3167.00</ele>
        <time>2018-09-08T22:24:53Z</time>
      </trkpt>
      <trkpt lat="-2.568899" lon="-78.786522">
        <ele>3167.00</ele>
        <time>2018-09-08T22:24:54Z</time>
      </trkpt>
      <trkpt lat="-2.568899" lon="-78.786522">
        <ele>3167.00</ele>
        <time>2018-09-08T22:24:55Z</time>
      </trkpt>
      <trkpt lat="-2.568969" lon="-78.786507">
        <ele>3167.00</ele>
        <time>2018-09-08T22:24:56Z</time>
      </trkpt>
      <trkpt lat="-2.569024" lon="-78.786484">
        <ele>3167.00</ele>
        <time>2018-09-08T22:24:57Z</time>
      </trkpt>
      <trkpt lat="-2.569083" lon="-78.786446">
        <ele>3167.00</ele>
        <time>2018-09-08T22:24:58Z</time>
      </trkpt>
      <trkpt lat="-2.569145" lon="-78.786385">
        <ele>3166.00</ele>
        <time>2018-09-08T22:24:59Z</time>
      </trkpt>
      <trkpt lat="-2.569214" lon="-78.786308">
        <ele>3166.00</ele>
        <time>2018-09-08T22:25:00Z</time>
      </trkpt>
      <trkpt lat="-2.569288" lon="-78.786247">
        <ele>3166.00</ele>
        <time>2018-09-08T22:25:01Z</time>
      </trkpt>
      <trkpt lat="-2.569365" lon="-78.786194">
        <ele>3165.00</ele>
        <time>2018-09-08T22:25:02Z</time>
      </trkpt>
      <trkpt lat="-2.569444" lon="-78.786140">
        <ele>3165.00</ele>
        <time>2018-09-08T22:25:03Z</time>
      </trkpt>
      <trkpt lat="-2.569528" lon="-78.786087">
        <ele>3165.00</ele>
        <time>2018-09-08T22:25:04Z</time>
      </trkpt>
      <trkpt lat="-2.569616" lon="-78.786034">
        <ele>3165.00</ele>
        <time>2018-09-08T22:25:05Z</time>
      </trkpt>
      <trkpt lat="-2.569706" lon="-78.785980">
        <ele>3165.00</ele>
        <time>2018-09-08T22:25:06Z</time>
      </trkpt>
      <trkpt lat="-2.569801" lon="-78.785919">
        <ele>3165.00</ele>
        <time>2018-09-08T22:25:07Z</time>
      </trkpt>
      <trkpt lat="-2.569901" lon="-78.785858">
        <ele>3165.00</ele>
        <time>2018-09-08T22:25:08Z</time>
      </trkpt>
      <trkpt lat="-2.570008" lon="-78.785805">
        <ele>3165.00</ele>
        <time>2018-09-08T22:25:09Z</time>
      </trkpt>
      <trkpt lat="-2.570116" lon="-78.785744">
        <ele>3165.00</ele>
        <time>2018-09-08T22:25:10Z</time>
      </trkpt>
      <trkpt lat="-2.570220" lon="-78.785683">
        <ele>3165.00</ele>
        <time>2018-09-08T22:25:11Z</time>
      </trkpt>
      <trkpt lat="-2.570326" lon="-78.785629">
        <ele>3164.00</ele>
        <time>2018-09-08T22:25:12Z</time>
      </trkpt>
      <trkpt lat="-2.570435" lon="-78.785568">
        <ele>3164.00</ele>
        <time>2018-09-08T22:25:13Z</time>
      </trkpt>
      <trkpt lat="-2.570541" lon="-78.785500">
        <ele>3164.00</ele>
        <time>2018-09-08T22:25:14Z</time>
      </trkpt>
      <trkpt lat="-2.570640" lon="-78.785446">
        <ele>3164.00</ele>
        <time>2018-09-08T22:25:16Z</time>
      </trkpt>
      <trkpt lat="-2.570738" lon="-78.785385">
        <ele>3164.00</ele>
        <time>2018-09-08T22:25:17Z</time>
      </trkpt>
      <trkpt lat="-2.570834" lon="-78.785332">
        <ele>3165.00</ele>
        <time>2018-09-08T22:25:18Z</time>
      </trkpt>
      <trkpt lat="-2.570925" lon="-78.785278">
        <ele>3165.00</ele>
        <time>2018-09-08T22:25:19Z</time>
      </trkpt>
      <trkpt lat="-2.571012" lon="-78.785233">
        <ele>3165.00</ele>
        <time>2018-09-08T22:25:20Z</time>
      </trkpt>
      <trkpt lat="-2.571091" lon="-78.785179">
        <ele>3165.00</ele>
        <time>2018-09-08T22:25:21Z</time>
      </trkpt>
      <trkpt lat="-2.571167" lon="-78.785141">
        <ele>3165.00</ele>
        <time>2018-09-08T22:25:22Z</time>
      </trkpt>
      <trkpt lat="-2.571239" lon="-78.785095">
        <ele>3164.00</ele>
        <time>2018-09-08T22:25:23Z</time>
      </trkpt>
      <trkpt lat="-2.571306" lon="-78.785057">
        <ele>3164.00</ele>
        <time>2018-09-08T22:25:24Z</time>
      </trkpt>
      <trkpt lat="-2.571367" lon="-78.785019">
        <ele>3164.00</ele>
        <time>2018-09-08T22:25:25Z</time>
      </trkpt>
      <trkpt lat="-2.571417" lon="-78.784996">
        <ele>3164.00</ele>
        <time>2018-09-08T22:25:26Z</time>
      </trkpt>
      <trkpt lat="-2.571454" lon="-78.784966">
        <ele>3164.00</ele>
        <time>2018-09-08T22:25:27Z</time>
      </trkpt>
      <trkpt lat="-2.571483" lon="-78.784950">
        <ele>3164.00</ele>
        <time>2018-09-08T22:25:28Z</time>
      </trkpt>
      <trkpt lat="-2.571504" lon="-78.784943">
        <ele>3164.00</ele>
        <time>2018-09-08T22:25:29Z</time>
      </trkpt>
      <trkpt lat="-2.571517" lon="-78.784935">
        <ele>3164.00</ele>
        <time>2018-09-08T22:25:30Z</time>
      </trkpt>
      <trkpt lat="-2.571523" lon="-78.784927">
        <ele>3164.00</ele>
        <time>2018-09-08T22:25:31Z</time>
      </trkpt>
      <trkpt lat="-2.571530" lon="-78.784927">
        <ele>3164.00</ele>
        <time>2018-09-08T22:25:32Z</time>
      </trkpt>
      <trkpt lat="-2.571548" lon="-78.784912">
        <ele>3165.00</ele>
        <time>2018-09-08T22:25:33Z</time>
      </trkpt>
      <trkpt lat="-2.571579" lon="-78.784889">
        <ele>3165.00</ele>
        <time>2018-09-08T22:25:34Z</time>
      </trkpt>
      <trkpt lat="-2.571623" lon="-78.784859">
        <ele>3165.00</ele>
        <time>2018-09-08T22:25:35Z</time>
      </trkpt>
      <trkpt lat="-2.571677" lon="-78.784821">
        <ele>3165.00</ele>
        <time>2018-09-08T22:25:36Z</time>
      </trkpt>
      <trkpt lat="-2.571737" lon="-78.784767">
        <ele>3165.00</ele>
        <time>2018-09-08T22:25:37Z</time>
      </trkpt>
      <trkpt lat="-2.571803" lon="-78.784714">
        <ele>3165.00</ele>
        <time>2018-09-08T22:25:38Z</time>
      </trkpt>
      <trkpt lat="-2.571877" lon="-78.784645">
        <ele>3165.00</ele>
        <time>2018-09-08T22:25:39Z</time>
      </trkpt>
      <trkpt lat="-2.571956" lon="-78.784584">
        <ele>3165.00</ele>
        <time>2018-09-08T22:25:40Z</time>
      </trkpt>
      <trkpt lat="-2.572026" lon="-78.784515">
        <ele>3165.00</ele>
        <time>2018-09-08T22:25:41Z</time>
      </trkpt>
      <trkpt lat="-2.572087" lon="-78.784454">
        <ele>3165.00</ele>
        <time>2018-09-08T22:25:42Z</time>
      </trkpt>
      <trkpt lat="-2.572129" lon="-78.784386">
        <ele>3165.00</ele>
        <time>2018-09-08T22:25:43Z</time>
      </trkpt>
      <trkpt lat="-2.572151" lon="-78.784286">
        <ele>3165.00</ele>
        <time>2018-09-08T22:25:44Z</time>
      </trkpt>
      <trkpt lat="-2.572161" lon="-78.784180">
        <ele>3165.00</ele>
        <time>2018-09-08T22:25:45Z</time>
      </trkpt>
      <trkpt lat="-2.572180" lon="-78.784073">
        <ele>3165.00</ele>
        <time>2018-09-08T22:25:46Z</time>
      </trkpt>
      <trkpt lat="-2.572228" lon="-78.783981">
        <ele>3165.00</ele>
        <time>2018-09-08T22:25:47Z</time>
      </trkpt>
      <trkpt lat="-2.572314" lon="-78.783905">
        <ele>3165.00</ele>
        <time>2018-09-08T22:25:48Z</time>
      </trkpt>
      <trkpt lat="-2.572421" lon="-78.783852">
        <ele>3165.00</ele>
        <time>2018-09-08T22:25:49Z</time>
      </trkpt>
      <trkpt lat="-2.572543" lon="-78.783806">
        <ele>3165.00</ele>
        <time>2018-09-08T22:25:50Z</time>
      </trkpt>
      <trkpt lat="-2.572670" lon="-78.783798">
        <ele>3165.00</ele>
        <time>2018-09-08T22:25:51Z</time>
      </trkpt>
      <trkpt lat="-2.572785" lon="-78.783775">
        <ele>3165.00</ele>
        <time>2018-09-08T22:25:52Z</time>
      </trkpt>
      <trkpt lat="-2.572887" lon="-78.783760">
        <ele>3164.00</ele>
        <time>2018-09-08T22:25:53Z</time>
      </trkpt>
      <trkpt lat="-2.572978" lon="-78.783707">
        <ele>3164.00</ele>
        <time>2018-09-08T22:25:54Z</time>
      </trkpt>
      <trkpt lat="-2.573061" lon="-78.783630">
        <ele>3164.00</ele>
        <time>2018-09-08T22:25:55Z</time>
      </trkpt>
      <trkpt lat="-2.573127" lon="-78.783524">
        <ele>3164.00</ele>
        <time>2018-09-08T22:25:56Z</time>
      </trkpt>
      <trkpt lat="-2.573187" lon="-78.783401">
        <ele>3164.00</ele>
        <time>2018-09-08T22:25:57Z</time>
      </trkpt>
      <trkpt lat="-2.573251" lon="-78.783318">
        <ele>3164.00</ele>
        <time>2018-09-08T22:25:58Z</time>
      </trkpt>
      <trkpt lat="-2.573338" lon="-78.783234">
        <ele>3164.00</ele>
        <time>2018-09-08T22:25:59Z</time>
      </trkpt>
      <trkpt lat="-2.573458" lon="-78.783173">
        <ele>3164.00</ele>
        <time>2018-09-08T22:26:00Z</time>
      </trkpt>
      <trkpt lat="-2.573597" lon="-78.783127">
        <ele>3165.00</ele>
        <time>2018-09-08T22:26:01Z</time>
      </trkpt>
      <trkpt lat="-2.573739" lon="-78.783127">
        <ele>3165.00</ele>
        <time>2018-09-08T22:26:02Z</time>
      </trkpt>
      <trkpt lat="-2.573873" lon="-78.783127">
        <ele>3166.00</ele>
        <time>2018-09-08T22:26:03Z</time>
      </trkpt>
      <trkpt lat="-2.574003" lon="-78.783127">
        <ele>3166.00</ele>
        <time>2018-09-08T22:26:04Z</time>
      </trkpt>
      <trkpt lat="-2.574126" lon="-78.783127">
        <ele>3167.00</ele>
        <time>2018-09-08T22:26:05Z</time>
      </trkpt>
      <trkpt lat="-2.574239" lon="-78.783127">
        <ele>3168.00</ele>
        <time>2018-09-08T22:26:06Z</time>
      </trkpt>
      <trkpt lat="-2.574349" lon="-78.783127">
        <ele>3168.00</ele>
        <time>2018-09-08T22:26:07Z</time>
      </trkpt>
      <trkpt lat="-2.574457" lon="-78.783096">
        <ele>3169.00</ele>
        <time>2018-09-08T22:26:08Z</time>
      </trkpt>
      <trkpt lat="-2.574543" lon="-78.783051">
        <ele>3169.00</ele>
        <time>2018-09-08T22:26:09Z</time>
      </trkpt>
      <trkpt lat="-2.574612" lon="-78.783012">
        <ele>3169.00</ele>
        <time>2018-09-08T22:26:10Z</time>
      </trkpt>
      <trkpt lat="-2.574661" lon="-78.782967">
        <ele>3169.00</ele>
        <time>2018-09-08T22:26:11Z</time>
      </trkpt>
      <trkpt lat="-2.574689" lon="-78.782913">
        <ele>3169.00</ele>
        <time>2018-09-08T22:26:12Z</time>
      </trkpt>
      <trkpt lat="-2.574689" lon="-78.782845">
        <ele>3169.00</ele>
        <time>2018-09-08T22:26:13Z</time>
      </trkpt>
      <trkpt lat="-2.574657" lon="-78.782753">
        <ele>3169.00</ele>
        <time>2018-09-08T22:26:14Z</time>
      </trkpt>
      <trkpt lat="-2.574586" lon="-78.782661">
        <ele>3169.00</ele>
        <time>2018-09-08T22:26:15Z</time>
      </trkpt>
      <trkpt lat="-2.574499" lon="-78.782562">
        <ele>3168.00</ele>
        <time>2018-09-08T22:26:16Z</time>
      </trkpt>
      <trkpt lat="-2.574404" lon="-78.782463">
        <ele>3168.00</ele>
        <time>2018-09-08T22:26:17Z</time>
      </trkpt>
      <trkpt lat="-2.574325" lon="-78.782372">
        <ele>3168.00</ele>
        <time>2018-09-08T22:26:18Z</time>
      </trkpt>
      <trkpt lat="-2.574245" lon="-78.782310">
        <ele>3167.00</ele>
        <time>2018-09-08T22:26:19Z</time>
      </trkpt>
      <trkpt lat="-2.574179" lon="-78.782257">
        <ele>3167.00</ele>
        <time>2018-09-08T22:26:20Z</time>
      </trkpt>
      <trkpt lat="-2.574137" lon="-78.782211">
        <ele>3166.00</ele>
        <time>2018-09-08T22:26:21Z</time>
      </trkpt>
      <trkpt lat="-2.574140" lon="-78.782150">
        <ele>3166.00</ele>
        <time>2018-09-08T22:26:22Z</time>
      </trkpt>
      <trkpt lat="-2.574192" lon="-78.782089">
        <ele>3166.00</ele>
        <time>2018-09-08T22:26:23Z</time>
      </trkpt>
      <trkpt lat="-2.574273" lon="-78.782043">
        <ele>3166.00</ele>
        <time>2018-09-08T22:26:24Z</time>
      </trkpt>
      <trkpt lat="-2.574359" lon="-78.781982">
        <ele>3166.00</ele>
        <time>2018-09-08T22:26:25Z</time>
      </trkpt>
      <trkpt lat="-2.574435" lon="-78.781891">
        <ele>3165.00</ele>
        <time>2018-09-08T22:26:26Z</time>
      </trkpt>
      <trkpt lat="-2.574506" lon="-78.781799">
        <ele>3165.00</ele>
        <time>2018-09-08T22:26:27Z</time>
      </trkpt>
      <trkpt lat="-2.574568" lon="-78.781677">
        <ele>3166.00</ele>
        <time>2018-09-08T22:26:28Z</time>
      </trkpt>
      <trkpt lat="-2.574616" lon="-78.781586">
        <ele>3166.00</ele>
        <time>2018-09-08T22:26:29Z</time>
      </trkpt>
      <trkpt lat="-2.574644" lon="-78.781494">
        <ele>3166.00</ele>
        <time>2018-09-08T22:26:30Z</time>
      </trkpt>
      <trkpt lat="-2.574662" lon="-78.781425">
        <ele>3166.00</ele>
        <time>2018-09-08T22:26:31Z</time>
      </trkpt>
      <trkpt lat="-2.574672" lon="-78.781380">
        <ele>3166.00</ele>
        <time>2018-09-08T22:26:32Z</time>
      </trkpt>
      <trkpt lat="-2.574682" lon="-78.781349">
        <ele>3166.00</ele>
        <time>2018-09-08T22:26:33Z</time>
      </trkpt>
      <trkpt lat="-2.574682" lon="-78.781349">
        <ele>3166.00</ele>
        <time>2018-09-08T22:26:34Z</time>
      </trkpt>
      <trkpt lat="-2.574682" lon="-78.781349">
        <ele>3166.00</ele>
        <time>2018-09-08T22:26:35Z</time>
      </trkpt>
      <trkpt lat="-2.574682" lon="-78.781349">
        <ele>3166.00</ele>
        <time>2018-09-08T22:26:36Z</time>
      </trkpt>
      <trkpt lat="-2.574682" lon="-78.781349">
        <ele>3166.00</ele>
        <time>2018-09-08T22:26:37Z</time>
      </trkpt>
      <trkpt lat="-2.574682" lon="-78.781349">
        <ele>3166.00</ele>
        <time>2018-09-08T22:26:38Z</time>
      </trkpt>
      <trkpt lat="-2.574682" lon="-78.781349">
        <ele>3166.00</ele>
        <time>2018-09-08T22:26:39Z</time>
      </trkpt>
      <trkpt lat="-2.574682" lon="-78.781349">
        <ele>3166.00</ele>
        <time>2018-09-08T22:26:40Z</time>
      </trkpt>
      <trkpt lat="-2.574682" lon="-78.781349">
        <ele>3166.00</ele>
        <time>2018-09-08T22:26:41Z</time>
      </trkpt>
      <trkpt lat="-2.574682" lon="-78.781349">
        <ele>3166.00</ele>
        <time>2018-09-08T22:26:42Z</time>
      </trkpt>
      <trkpt lat="-2.574682" lon="-78.781349">
        <ele>3166.00</ele>
        <time>2018-09-08T22:26:43Z</time>
      </trkpt>
      <trkpt lat="-2.574682" lon="-78.781349">
        <ele>3166.00</ele>
        <time>2018-09-08T22:26:44Z</time>
      </trkpt>
      <trkpt lat="-2.574682" lon="-78.781349">
        <ele>3166.00</ele>
        <time>2018-09-08T22:26:45Z</time>
      </trkpt>
      <trkpt lat="-2.574682" lon="-78.781349">
        <ele>3166.00</ele>
        <time>2018-09-08T22:26:46Z</time>
      </trkpt>
      <trkpt lat="-2.574682" lon="-78.781349">
        <ele>3166.00</ele>
        <time>2018-09-08T22:26:47Z</time>
      </trkpt>
      <trkpt lat="-2.574682" lon="-78.781349">
        <ele>3166.00</ele>
        <time>2018-09-08T22:26:48Z</time>
      </trkpt>
      <trkpt lat="-2.574672" lon="-78.781334">
        <ele>3166.00</ele>
        <time>2018-09-08T22:26:49Z</time>
      </trkpt>
      <trkpt lat="-2.574668" lon="-78.781303">
        <ele>3167.00</ele>
        <time>2018-09-08T22:26:50Z</time>
      </trkpt>
      <trkpt lat="-2.574666" lon="-78.781250">
        <ele>3167.00</ele>
        <time>2018-09-08T22:26:51Z</time>
      </trkpt>
      <trkpt lat="-2.574667" lon="-78.781189">
        <ele>3167.00</ele>
        <time>2018-09-08T22:26:52Z</time>
      </trkpt>
      <trkpt lat="-2.574652" lon="-78.781113">
        <ele>3167.00</ele>
        <time>2018-09-08T22:26:53Z</time>
      </trkpt>
      <trkpt lat="-2.574619" lon="-78.781029">
        <ele>3167.00</ele>
        <time>2018-09-08T22:26:54Z</time>
      </trkpt>
      <trkpt lat="-2.574573" lon="-78.780945">
        <ele>3167.00</ele>
        <time>2018-09-08T22:26:55Z</time>
      </trkpt>
      <trkpt lat="-2.574529" lon="-78.780853">
        <ele>3168.00</ele>
        <time>2018-09-08T22:26:56Z</time>
      </trkpt>
      <trkpt lat="-2.574501" lon="-78.780777">
        <ele>3168.00</ele>
        <time>2018-09-08T22:26:57Z</time>
      </trkpt>
      <trkpt lat="-2.574509" lon="-78.780678">
        <ele>3168.00</ele>
        <time>2018-09-08T22:26:58Z</time>
      </trkpt>
      <trkpt lat="-2.574564" lon="-78.780617">
        <ele>3168.00</ele>
        <time>2018-09-08T22:26:59Z</time>
      </trkpt>
      <trkpt lat="-2.574616" lon="-78.780540">
        <ele>3168.00</ele>
        <time>2018-09-08T22:27:00Z</time>
      </trkpt>
      <trkpt lat="-2.574674" lon="-78.780472">
        <ele>3168.00</ele>
        <time>2018-09-08T22:27:01Z</time>
      </trkpt>
      <trkpt lat="-2.574764" lon="-78.780441">
        <ele>3169.00</ele>
        <time>2018-09-08T22:27:02Z</time>
      </trkpt>
      <trkpt lat="-2.574855" lon="-78.780434">
        <ele>3169.00</ele>
        <time>2018-09-08T22:27:03Z</time>
      </trkpt>
      <trkpt lat="-2.574926" lon="-78.780418">
        <ele>3169.00</ele>
        <time>2018-09-08T22:27:04Z</time>
      </trkpt>
      <trkpt lat="-2.574984" lon="-78.780365">
        <ele>3169.00</ele>
        <time>2018-09-08T22:27:05Z</time>
      </trkpt>
      <trkpt lat="-2.575028" lon="-78.780296">
        <ele>3169.00</ele>
        <time>2018-09-08T22:27:06Z</time>
      </trkpt>
      <trkpt lat="-2.575062" lon="-78.780212">
        <ele>3169.00</ele>
        <time>2018-09-08T22:27:07Z</time>
      </trkpt>
      <trkpt lat="-2.575098" lon="-78.780121">
        <ele>3169.00</ele>
        <time>2018-09-08T22:27:08Z</time>
      </trkpt>
      <trkpt lat="-2.575128" lon="-78.780045">
        <ele>3169.00</ele>
        <time>2018-09-08T22:27:09Z</time>
      </trkpt>
      <trkpt lat="-2.575170" lon="-78.779953">
        <ele>3169.00</ele>
        <time>2018-09-08T22:27:10Z</time>
      </trkpt>
      <trkpt lat="-2.575224" lon="-78.779900">
        <ele>3169.00</ele>
        <time>2018-09-08T22:27:11Z</time>
      </trkpt>
      <trkpt lat="-2.575273" lon="-78.779839">
        <ele>3169.00</ele>
        <time>2018-09-08T22:27:12Z</time>
      </trkpt>
      <trkpt lat="-2.575305" lon="-78.779778">
        <ele>3169.00</ele>
        <time>2018-09-08T22:27:13Z</time>
      </trkpt>
      <trkpt lat="-2.575283" lon="-78.779709">
        <ele>3169.00</ele>
        <time>2018-09-08T22:27:14Z</time>
      </trkpt>
      <trkpt lat="-2.575254" lon="-78.779617">
        <ele>3169.00</ele>
        <time>2018-09-08T22:27:15Z</time>
      </trkpt>
      <trkpt lat="-2.575227" lon="-78.779518">
        <ele>3169.00</ele>
        <time>2018-09-08T22:27:16Z</time>
      </trkpt>
      <trkpt lat="-2.575222" lon="-78.779404">
        <ele>3170.00</ele>
        <time>2018-09-08T22:27:17Z</time>
      </trkpt>
      <trkpt lat="-2.575213" lon="-78.779289">
        <ele>3171.00</ele>
        <time>2018-09-08T22:27:18Z</time>
      </trkpt>
      <trkpt lat="-2.575198" lon="-78.779175">
        <ele>3172.00</ele>
        <time>2018-09-08T22:27:19Z</time>
      </trkpt>
      <trkpt lat="-2.575177" lon="-78.779068">
        <ele>3173.00</ele>
        <time>2018-09-08T22:27:20Z</time>
      </trkpt>
      <trkpt lat="-2.575149" lon="-78.778976">
        <ele>3174.00</ele>
        <time>2018-09-08T22:27:21Z</time>
      </trkpt>
      <trkpt lat="-2.575125" lon="-78.778908">
        <ele>3174.00</ele>
        <time>2018-09-08T22:27:22Z</time>
      </trkpt>
      <trkpt lat="-2.575124" lon="-78.778824">
        <ele>3175.00</ele>
        <time>2018-09-08T22:27:23Z</time>
      </trkpt>
      <trkpt lat="-2.575146" lon="-78.778740">
        <ele>3175.00</ele>
        <time>2018-09-08T22:27:24Z</time>
      </trkpt>
      <trkpt lat="-2.575176" lon="-78.778648">
        <ele>3176.00</ele>
        <time>2018-09-08T22:27:25Z</time>
      </trkpt>
      <trkpt lat="-2.575200" lon="-78.778542">
        <ele>3176.00</ele>
        <time>2018-09-08T22:27:26Z</time>
      </trkpt>
      <trkpt lat="-2.575219" lon="-78.778442">
        <ele>3176.00</ele>
        <time>2018-09-08T22:27:27Z</time>
      </trkpt>
      <trkpt lat="-2.575232" lon="-78.778343">
        <ele>3176.00</ele>
        <time>2018-09-08T22:27:28Z</time>
      </trkpt>
      <trkpt lat="-2.575241" lon="-78.778259">
        <ele>3176.00</ele>
        <time>2018-09-08T22:27:29Z</time>
      </trkpt>
      <trkpt lat="-2.575258" lon="-78.778183">
        <ele>3177.00</ele>
        <time>2018-09-08T22:27:30Z</time>
      </trkpt>
      <trkpt lat="-2.575312" lon="-78.778130">
        <ele>3177.00</ele>
        <time>2018-09-08T22:27:31Z</time>
      </trkpt>
      <trkpt lat="-2.575391" lon="-78.778099">
        <ele>3178.00</ele>
        <time>2018-09-08T22:27:32Z</time>
      </trkpt>
      <trkpt lat="-2.575472" lon="-78.778091">
        <ele>3178.00</ele>
        <time>2018-09-08T22:27:33Z</time>
      </trkpt>
      <trkpt lat="-2.575535" lon="-78.778084">
        <ele>3179.00</ele>
        <time>2018-09-08T22:27:34Z</time>
      </trkpt>
      <trkpt lat="-2.575576" lon="-78.778053">
        <ele>3180.00</ele>
        <time>2018-09-08T22:27:35Z</time>
      </trkpt>
      <trkpt lat="-2.575598" lon="-78.778000">
        <ele>3180.00</ele>
        <time>2018-09-08T22:27:36Z</time>
      </trkpt>
      <trkpt lat="-2.575610" lon="-78.777931">
        <ele>3181.00</ele>
        <time>2018-09-08T22:27:37Z</time>
      </trkpt>
      <trkpt lat="-2.575616" lon="-78.777847">
        <ele>3181.00</ele>
        <time>2018-09-08T22:27:38Z</time>
      </trkpt>
      <trkpt lat="-2.575618" lon="-78.777763">
        <ele>3182.00</ele>
        <time>2018-09-08T22:27:39Z</time>
      </trkpt>
      <trkpt lat="-2.575623" lon="-78.777679">
        <ele>3182.00</ele>
        <time>2018-09-08T22:27:40Z</time>
      </trkpt>
      <trkpt lat="-2.575650" lon="-78.777626">
        <ele>3182.00</ele>
        <time>2018-09-08T22:27:41Z</time>
      </trkpt>
      <trkpt lat="-2.575680" lon="-78.777557">
        <ele>3183.00</ele>
        <time>2018-09-08T22:27:42Z</time>
      </trkpt>
      <trkpt lat="-2.575719" lon="-78.777504">
        <ele>3183.00</ele>
        <time>2018-09-08T22:27:43Z</time>
      </trkpt>
      <trkpt lat="-2.575735" lon="-78.777428">
        <ele>3183.00</ele>
        <time>2018-09-08T22:27:44Z</time>
      </trkpt>
      <trkpt lat="-2.575744" lon="-78.777367">
        <ele>3183.00</ele>
        <time>2018-09-08T22:27:45Z</time>
      </trkpt>
      <trkpt lat="-2.575735" lon="-78.777298">
        <ele>3183.00</ele>
        <time>2018-09-08T22:27:46Z</time>
      </trkpt>
      <trkpt lat="-2.575716" lon="-78.777229">
        <ele>3183.00</ele>
        <time>2018-09-08T22:27:47Z</time>
      </trkpt>
      <trkpt lat="-2.575663" lon="-78.777176">
        <ele>3183.00</ele>
        <time>2018-09-08T22:27:48Z</time>
      </trkpt>
      <trkpt lat="-2.575594" lon="-78.777115">
        <ele>3182.00</ele>
        <time>2018-09-08T22:27:49Z</time>
      </trkpt>
      <trkpt lat="-2.575530" lon="-78.777039">
        <ele>3181.00</ele>
        <time>2018-09-08T22:27:50Z</time>
      </trkpt>
      <trkpt lat="-2.575495" lon="-78.776962">
        <ele>3180.00</ele>
        <time>2018-09-08T22:27:51Z</time>
      </trkpt>
      <trkpt lat="-2.575464" lon="-78.776863">
        <ele>3180.00</ele>
        <time>2018-09-08T22:27:52Z</time>
      </trkpt>
      <trkpt lat="-2.575451" lon="-78.776772">
        <ele>3179.00</ele>
        <time>2018-09-08T22:27:53Z</time>
      </trkpt>
      <trkpt lat="-2.575454" lon="-78.776688">
        <ele>3178.00</ele>
        <time>2018-09-08T22:27:54Z</time>
      </trkpt>
      <trkpt lat="-2.575456" lon="-78.776611">
        <ele>3177.00</ele>
        <time>2018-09-08T22:27:55Z</time>
      </trkpt>
      <trkpt lat="-2.575459" lon="-78.776543">
        <ele>3176.00</ele>
        <time>2018-09-08T22:27:56Z</time>
      </trkpt>
      <trkpt lat="-2.575462" lon="-78.776489">
        <ele>3176.00</ele>
        <time>2018-09-08T22:27:57Z</time>
      </trkpt>
      <trkpt lat="-2.575464" lon="-78.776459">
        <ele>3176.00</ele>
        <time>2018-09-08T22:27:58Z</time>
      </trkpt>
      <trkpt lat="-2.575466" lon="-78.776436">
        <ele>3176.00</ele>
        <time>2018-09-08T22:27:59Z</time>
      </trkpt>
      <trkpt lat="-2.575480" lon="-78.776398">
        <ele>3176.00</ele>
        <time>2018-09-08T22:28:00Z</time>
      </trkpt>
      <trkpt lat="-2.575502" lon="-78.776367">
        <ele>3177.00</ele>
        <time>2018-09-08T22:28:01Z</time>
      </trkpt>
      <trkpt lat="-2.575544" lon="-78.776321">
        <ele>3177.00</ele>
        <time>2018-09-08T22:28:02Z</time>
      </trkpt>
      <trkpt lat="-2.575604" lon="-78.776276">
        <ele>3178.00</ele>
        <time>2018-09-08T22:28:03Z</time>
      </trkpt>
      <trkpt lat="-2.575683" lon="-78.776230">
        <ele>3178.00</ele>
        <time>2018-09-08T22:28:04Z</time>
      </trkpt>
      <trkpt lat="-2.575776" lon="-78.776184">
        <ele>3178.00</ele>
        <time>2018-09-08T22:28:05Z</time>
      </trkpt>
      <trkpt lat="-2.575878" lon="-78.776161">
        <ele>3179.00</ele>
        <time>2018-09-08T22:28:06Z</time>
      </trkpt>
      <trkpt lat="-2.575965" lon="-78.776154">
        <ele>3179.00</ele>
        <time>2018-09-08T22:28:07Z</time>
      </trkpt>
      <trkpt lat="-2.576025" lon="-78.776154">
        <ele>3180.00</ele>
        <time>2018-09-08T22:28:08Z</time>
      </trkpt>
      <trkpt lat="-2.576068" lon="-78.776154">
        <ele>3180.00</ele>
        <time>2018-09-08T22:28:09Z</time>
      </trkpt>
      <trkpt lat="-2.576115" lon="-78.776131">
        <ele>3180.00</ele>
        <time>2018-09-08T22:28:10Z</time>
      </trkpt>
      <trkpt lat="-2.576175" lon="-78.776093">
        <ele>3180.00</ele>
        <time>2018-09-08T22:28:11Z</time>
      </trkpt>
      <trkpt lat="-2.576241" lon="-78.776039">
        <ele>3181.00</ele>
        <time>2018-09-08T22:28:12Z</time>
      </trkpt>
      <trkpt lat="-2.576313" lon="-78.775955">
        <ele>3181.00</ele>
        <time>2018-09-08T22:28:13Z</time>
      </trkpt>
      <trkpt lat="-2.576386" lon="-78.775887">
        <ele>3181.00</ele>
        <time>2018-09-08T22:28:14Z</time>
      </trkpt>
      <trkpt lat="-2.576442" lon="-78.775841">
        <ele>3181.00</ele>
        <time>2018-09-08T22:28:15Z</time>
      </trkpt>
      <trkpt lat="-2.576481" lon="-78.775826">
        <ele>3181.00</ele>
        <time>2018-09-08T22:28:16Z</time>
      </trkpt>
      <trkpt lat="-2.576509" lon="-78.775803">
        <ele>3181.00</ele>
        <time>2018-09-08T22:28:17Z</time>
      </trkpt>
      <trkpt lat="-2.576539" lon="-78.775787">
        <ele>3181.00</ele>
        <time>2018-09-08T22:28:18Z</time>
      </trkpt>
      <trkpt lat="-2.576572" lon="-78.775772">
        <ele>3181.00</ele>
        <time>2018-09-08T22:28:19Z</time>
      </trkpt>
      <trkpt lat="-2.576603" lon="-78.775757">
        <ele>3181.00</ele>
        <time>2018-09-08T22:28:20Z</time>
      </trkpt>
      <trkpt lat="-2.576625" lon="-78.775742">
        <ele>3181.00</ele>
        <time>2018-09-08T22:28:21Z</time>
      </trkpt>
      <trkpt lat="-2.576648" lon="-78.775726">
        <ele>3181.00</ele>
        <time>2018-09-08T22:28:22Z</time>
      </trkpt>
      <trkpt lat="-2.576670" lon="-78.775719">
        <ele>3181.00</ele>
        <time>2018-09-08T22:28:23Z</time>
      </trkpt>
      <trkpt lat="-2.576692" lon="-78.775688">
        <ele>3181.00</ele>
        <time>2018-09-08T22:28:24Z</time>
      </trkpt>
      <trkpt lat="-2.576714" lon="-78.775665">
        <ele>3181.00</ele>
        <time>2018-09-08T22:28:25Z</time>
      </trkpt>
      <trkpt lat="-2.576735" lon="-78.775642">
        <ele>3181.00</ele>
        <time>2018-09-08T22:28:26Z</time>
      </trkpt>
      <trkpt lat="-2.576756" lon="-78.775620">
        <ele>3181.00</ele>
        <time>2018-09-08T22:28:27Z</time>
      </trkpt>
      <trkpt lat="-2.576780" lon="-78.775589">
        <ele>3181.00</ele>
        <time>2018-09-08T22:28:28Z</time>
      </trkpt>
      <trkpt lat="-2.576800" lon="-78.775566">
        <ele>3181.00</ele>
        <time>2018-09-08T22:28:29Z</time>
      </trkpt>
      <trkpt lat="-2.576815" lon="-78.775543">
        <ele>3181.00</ele>
        <time>2018-09-08T22:28:30Z</time>
      </trkpt>
      <trkpt lat="-2.576829" lon="-78.775536">
        <ele>3181.00</ele>
        <time>2018-09-08T22:28:31Z</time>
      </trkpt>
      <trkpt lat="-2.576844" lon="-78.775543">
        <ele>3181.00</ele>
        <time>2018-09-08T22:28:32Z</time>
      </trkpt>
      <trkpt lat="-2.576856" lon="-78.775558">
        <ele>3181.00</ele>
        <time>2018-09-08T22:28:33Z</time>
      </trkpt>
      <trkpt lat="-2.576856" lon="-78.775558">
        <ele>3181.00</ele>
        <time>2018-09-08T22:28:34Z</time>
      </trkpt>
      <trkpt lat="-2.576856" lon="-78.775558">
        <ele>3181.00</ele>
        <time>2018-09-08T22:28:35Z</time>
      </trkpt>
      <trkpt lat="-2.576856" lon="-78.775558">
        <ele>3181.00</ele>
        <time>2018-09-08T22:28:36Z</time>
      </trkpt>
      <trkpt lat="-2.576856" lon="-78.775558">
        <ele>3181.00</ele>
        <time>2018-09-08T22:28:37Z</time>
      </trkpt>
      <trkpt lat="-2.576856" lon="-78.775558">
        <ele>3181.00</ele>
        <time>2018-09-08T22:28:38Z</time>
      </trkpt>
      <trkpt lat="-2.576856" lon="-78.775558">
        <ele>3181.00</ele>
        <time>2018-09-08T22:28:39Z</time>
      </trkpt>
      <trkpt lat="-2.576856" lon="-78.775558">
        <ele>3181.00</ele>
        <time>2018-09-08T22:28:40Z</time>
      </trkpt>
      <trkpt lat="-2.576856" lon="-78.775558">
        <ele>3181.00</ele>
        <time>2018-09-08T22:28:41Z</time>
      </trkpt>
      <trkpt lat="-2.576856" lon="-78.775558">
        <ele>3181.00</ele>
        <time>2018-09-08T22:28:42Z</time>
      </trkpt>
      <trkpt lat="-2.576856" lon="-78.775558">
        <ele>3181.00</ele>
        <time>2018-09-08T22:28:43Z</time>
      </trkpt>
      <trkpt lat="-2.576856" lon="-78.775558">
        <ele>3181.00</ele>
        <time>2018-09-08T22:28:44Z</time>
      </trkpt>
      <trkpt lat="-2.576856" lon="-78.775558">
        <ele>3181.00</ele>
        <time>2018-09-08T22:28:45Z</time>
      </trkpt>
      <trkpt lat="-2.576856" lon="-78.775558">
        <ele>3181.00</ele>
        <time>2018-09-08T22:28:46Z</time>
      </trkpt>
      <trkpt lat="-2.576856" lon="-78.775558">
        <ele>3181.00</ele>
        <time>2018-09-08T22:28:47Z</time>
      </trkpt>
      <trkpt lat="-2.576856" lon="-78.775558">
        <ele>3181.00</ele>
        <time>2018-09-08T22:28:48Z</time>
      </trkpt>
      <trkpt lat="-2.576856" lon="-78.775558">
        <ele>3181.00</ele>
        <time>2018-09-08T22:28:49Z</time>
      </trkpt>
      <trkpt lat="-2.576856" lon="-78.775558">
        <ele>3181.00</ele>
        <time>2018-09-08T22:28:50Z</time>
      </trkpt>
      <trkpt lat="-2.576856" lon="-78.775558">
        <ele>3181.00</ele>
        <time>2018-09-08T22:28:51Z</time>
      </trkpt>
      <trkpt lat="-2.576856" lon="-78.775543">
        <ele>3181.00</ele>
        <time>2018-09-08T22:28:52Z</time>
      </trkpt>
      <trkpt lat="-2.576843" lon="-78.775566">
        <ele>3181.00</ele>
        <time>2018-09-08T22:28:53Z</time>
      </trkpt>
      <trkpt lat="-2.576810" lon="-78.775597">
        <ele>3181.00</ele>
        <time>2018-09-08T22:28:54Z</time>
      </trkpt>
      <trkpt lat="-2.576760" lon="-78.775650">
        <ele>3181.00</ele>
        <time>2018-09-08T22:28:55Z</time>
      </trkpt>
      <trkpt lat="-2.576705" lon="-78.775719">
        <ele>3182.00</ele>
        <time>2018-09-08T22:28:56Z</time>
      </trkpt>
      <trkpt lat="-2.576642" lon="-78.775757">
        <ele>3182.00</ele>
        <time>2018-09-08T22:28:57Z</time>
      </trkpt>
      <trkpt lat="-2.576577" lon="-78.775795">
        <ele>3182.00</ele>
        <time>2018-09-08T22:28:58Z</time>
      </trkpt>
      <trkpt lat="-2.576522" lon="-78.775826">
        <ele>3182.00</ele>
        <time>2018-09-08T22:28:59Z</time>
      </trkpt>
      <trkpt lat="-2.576468" lon="-78.775841">
        <ele>3182.00</ele>
        <time>2018-09-08T22:29:00Z</time>
      </trkpt>
      <trkpt lat="-2.576410" lon="-78.775864">
        <ele>3182.00</ele>
        <time>2018-09-08T22:29:01Z</time>
      </trkpt>
      <trkpt lat="-2.576349" lon="-78.775902">
        <ele>3182.00</ele>
        <time>2018-09-08T22:29:02Z</time>
      </trkpt>
      <trkpt lat="-2.576293" lon="-78.775955">
        <ele>3182.00</ele>
        <time>2018-09-08T22:29:03Z</time>
      </trkpt>
      <trkpt lat="-2.576244" lon="-78.776009">
        <ele>3182.00</ele>
        <time>2018-09-08T22:29:04Z</time>
      </trkpt>
      <trkpt lat="-2.576190" lon="-78.776062">
        <ele>3182.00</ele>
        <time>2018-09-08T22:29:05Z</time>
      </trkpt>
      <trkpt lat="-2.576134" lon="-78.776108">
        <ele>3182.00</ele>
        <time>2018-09-08T22:29:06Z</time>
      </trkpt>
      <trkpt lat="-2.576080" lon="-78.776154">
        <ele>3182.00</ele>
        <time>2018-09-08T22:29:07Z</time>
      </trkpt>
      <trkpt lat="-2.576020" lon="-78.776169">
        <ele>3182.00</ele>
        <time>2018-09-08T22:29:08Z</time>
      </trkpt>
      <trkpt lat="-2.575957" lon="-78.776176">
        <ele>3182.00</ele>
        <time>2018-09-08T22:29:09Z</time>
      </trkpt>
      <trkpt lat="-2.575884" lon="-78.776176">
        <ele>3183.00</ele>
        <time>2018-09-08T22:29:10Z</time>
      </trkpt>
      <trkpt lat="-2.575798" lon="-78.776199">
        <ele>3183.00</ele>
        <time>2018-09-08T22:29:11Z</time>
      </trkpt>
      <trkpt lat="-2.575709" lon="-78.776230">
        <ele>3183.00</ele>
        <time>2018-09-08T22:29:12Z</time>
      </trkpt>
      <trkpt lat="-2.575628" lon="-78.776268">
        <ele>3183.00</ele>
        <time>2018-09-08T22:29:13Z</time>
      </trkpt>
      <trkpt lat="-2.575571" lon="-78.776299">
        <ele>3183.00</ele>
        <time>2018-09-08T22:29:14Z</time>
      </trkpt>
      <trkpt lat="-2.575530" lon="-78.776344">
        <ele>3183.00</ele>
        <time>2018-09-08T22:29:15Z</time>
      </trkpt>
      <trkpt lat="-2.575501" lon="-78.776382">
        <ele>3183.00</ele>
        <time>2018-09-08T22:29:16Z</time>
      </trkpt>
      <trkpt lat="-2.575487" lon="-78.776405">
        <ele>3183.00</ele>
        <time>2018-09-08T22:29:17Z</time>
      </trkpt>
      <trkpt lat="-2.575477" lon="-78.776436">
        <ele>3183.00</ele>
        <time>2018-09-08T22:29:18Z</time>
      </trkpt>
      <trkpt lat="-2.575468" lon="-78.776474">
        <ele>3182.00</ele>
        <time>2018-09-08T22:29:19Z</time>
      </trkpt>
      <trkpt lat="-2.575461" lon="-78.776527">
        <ele>3182.00</ele>
        <time>2018-09-08T22:29:20Z</time>
      </trkpt>
      <trkpt lat="-2.575454" lon="-78.776588">
        <ele>3182.00</ele>
        <time>2018-09-08T22:29:21Z</time>
      </trkpt>
      <trkpt lat="-2.575448" lon="-78.776665">
        <ele>3182.00</ele>
        <time>2018-09-08T22:29:22Z</time>
      </trkpt>
      <trkpt lat="-2.575443" lon="-78.776764">
        <ele>3182.00</ele>
        <time>2018-09-08T22:29:23Z</time>
      </trkpt>
      <trkpt lat="-2.575451" lon="-78.776863">
        <ele>3183.00</ele>
        <time>2018-09-08T22:29:24Z</time>
      </trkpt>
      <trkpt lat="-2.575472" lon="-78.776962">
        <ele>3183.00</ele>
        <time>2018-09-08T22:29:25Z</time>
      </trkpt>
      <trkpt lat="-2.575510" lon="-78.777039">
        <ele>3184.00</ele>
        <time>2018-09-08T22:29:26Z</time>
      </trkpt>
      <trkpt lat="-2.575567" lon="-78.777100">
        <ele>3184.00</ele>
        <time>2018-09-08T22:29:27Z</time>
      </trkpt>
      <trkpt lat="-2.575634" lon="-78.777145">
        <ele>3185.00</ele>
        <time>2018-09-08T22:29:28Z</time>
      </trkpt>
      <trkpt lat="-2.575700" lon="-78.777184">
        <ele>3185.00</ele>
        <time>2018-09-08T22:29:29Z</time>
      </trkpt>
      <trkpt lat="-2.575756" lon="-78.777214">
        <ele>3186.00</ele>
        <time>2018-09-08T22:29:30Z</time>
      </trkpt>
      <trkpt lat="-2.575793" lon="-78.777260">
        <ele>3186.00</ele>
        <time>2018-09-08T22:29:31Z</time>
      </trkpt>
      <trkpt lat="-2.575811" lon="-78.777321">
        <ele>3186.00</ele>
        <time>2018-09-08T22:29:32Z</time>
      </trkpt>
      <trkpt lat="-2.575810" lon="-78.777390">
        <ele>3187.00</ele>
        <time>2018-09-08T22:29:33Z</time>
      </trkpt>
      <trkpt lat="-2.575787" lon="-78.777458">
        <ele>3187.00</ele>
        <time>2018-09-08T22:29:34Z</time>
      </trkpt>
      <trkpt lat="-2.575749" lon="-78.777519">
        <ele>3187.00</ele>
        <time>2018-09-08T22:29:35Z</time>
      </trkpt>
      <trkpt lat="-2.575705" lon="-78.777580">
        <ele>3187.00</ele>
        <time>2018-09-08T22:29:36Z</time>
      </trkpt>
      <trkpt lat="-2.575666" lon="-78.777657">
        <ele>3187.00</ele>
        <time>2018-09-08T22:29:37Z</time>
      </trkpt>
      <trkpt lat="-2.575647" lon="-78.777748">
        <ele>3187.00</ele>
        <time>2018-09-08T22:29:38Z</time>
      </trkpt>
      <trkpt lat="-2.575650" lon="-78.777840">
        <ele>3187.00</ele>
        <time>2018-09-08T22:29:39Z</time>
      </trkpt>
      <trkpt lat="-2.575645" lon="-78.777924">
        <ele>3186.00</ele>
        <time>2018-09-08T22:29:40Z</time>
      </trkpt>
      <trkpt lat="-2.575634" lon="-78.777985">
        <ele>3186.00</ele>
        <time>2018-09-08T22:29:41Z</time>
      </trkpt>
      <trkpt lat="-2.575611" lon="-78.778038">
        <ele>3186.00</ele>
        <time>2018-09-08T22:29:42Z</time>
      </trkpt>
      <trkpt lat="-2.575555" lon="-78.778069">
        <ele>3186.00</ele>
        <time>2018-09-08T22:29:43Z</time>
      </trkpt>
      <trkpt lat="-2.575464" lon="-78.778091">
        <ele>3186.00</ele>
        <time>2018-09-08T22:29:44Z</time>
      </trkpt>
      <trkpt lat="-2.575369" lon="-78.778107">
        <ele>3186.00</ele>
        <time>2018-09-08T22:29:45Z</time>
      </trkpt>
      <trkpt lat="-2.575293" lon="-78.778160">
        <ele>3186.00</ele>
        <time>2018-09-08T22:29:46Z</time>
      </trkpt>
      <trkpt lat="-2.575244" lon="-78.778229">
        <ele>3186.00</ele>
        <time>2018-09-08T22:29:47Z</time>
      </trkpt>
      <trkpt lat="-2.575222" lon="-78.778320">
        <ele>3186.00</ele>
        <time>2018-09-08T22:29:48Z</time>
      </trkpt>
      <trkpt lat="-2.575212" lon="-78.778419">
        <ele>3186.00</ele>
        <time>2018-09-08T22:29:49Z</time>
      </trkpt>
      <trkpt lat="-2.575191" lon="-78.778503">
        <ele>3185.00</ele>
        <time>2018-09-08T22:29:50Z</time>
      </trkpt>
      <trkpt lat="-2.575163" lon="-78.778603">
        <ele>3185.00</ele>
        <time>2018-09-08T22:29:51Z</time>
      </trkpt>
      <trkpt lat="-2.575140" lon="-78.778702">
        <ele>3185.00</ele>
        <time>2018-09-08T22:29:52Z</time>
      </trkpt>
      <trkpt lat="-2.575121" lon="-78.778786">
        <ele>3185.00</ele>
        <time>2018-09-08T22:29:53Z</time>
      </trkpt>
      <trkpt lat="-2.575108" lon="-78.778862">
        <ele>3184.00</ele>
        <time>2018-09-08T22:29:54Z</time>
      </trkpt>
      <trkpt lat="-2.575123" lon="-78.778954">
        <ele>3184.00</ele>
        <time>2018-09-08T22:29:55Z</time>
      </trkpt>
      <trkpt lat="-2.575160" lon="-78.779037">
        <ele>3184.00</ele>
        <time>2018-09-08T22:29:56Z</time>
      </trkpt>
      <trkpt lat="-2.575179" lon="-78.779129">
        <ele>3184.00</ele>
        <time>2018-09-08T22:29:57Z</time>
      </trkpt>
      <trkpt lat="-2.575186" lon="-78.779205">
        <ele>3183.00</ele>
        <time>2018-09-08T22:29:58Z</time>
      </trkpt>
      <trkpt lat="-2.575174" lon="-78.779282">
        <ele>3183.00</ele>
        <time>2018-09-08T22:29:59Z</time>
      </trkpt>
      <trkpt lat="-2.575194" lon="-78.779366">
        <ele>3182.00</ele>
        <time>2018-09-08T22:30:00Z</time>
      </trkpt>
      <trkpt lat="-2.575212" lon="-78.779472">
        <ele>3181.00</ele>
        <time>2018-09-08T22:30:01Z</time>
      </trkpt>
      <trkpt lat="-2.575224" lon="-78.779572">
        <ele>3181.00</ele>
        <time>2018-09-08T22:30:02Z</time>
      </trkpt>
      <trkpt lat="-2.575236" lon="-78.779663">
        <ele>3181.00</ele>
        <time>2018-09-08T22:30:03Z</time>
      </trkpt>
      <trkpt lat="-2.575244" lon="-78.779732">
        <ele>3180.00</ele>
        <time>2018-09-08T22:30:04Z</time>
      </trkpt>
      <trkpt lat="-2.575239" lon="-78.779793">
        <ele>3180.00</ele>
        <time>2018-09-08T22:30:05Z</time>
      </trkpt>
      <trkpt lat="-2.575209" lon="-78.779869">
        <ele>3180.00</ele>
        <time>2018-09-08T22:30:06Z</time>
      </trkpt>
      <trkpt lat="-2.575156" lon="-78.779945">
        <ele>3180.00</ele>
        <time>2018-09-08T22:30:07Z</time>
      </trkpt>
      <trkpt lat="-2.575109" lon="-78.780029">
        <ele>3180.00</ele>
        <time>2018-09-08T22:30:08Z</time>
      </trkpt>
      <trkpt lat="-2.575078" lon="-78.780113">
        <ele>3180.00</ele>
        <time>2018-09-08T22:30:09Z</time>
      </trkpt>
      <trkpt lat="-2.575052" lon="-78.780205">
        <ele>3180.00</ele>
        <time>2018-09-08T22:30:10Z</time>
      </trkpt>
      <trkpt lat="-2.575014" lon="-78.780296">
        <ele>3180.00</ele>
        <time>2018-09-08T22:30:11Z</time>
      </trkpt>
      <trkpt lat="-2.574976" lon="-78.780365">
        <ele>3180.00</ele>
        <time>2018-09-08T22:30:12Z</time>
      </trkpt>
      <trkpt lat="-2.574935" lon="-78.780411">
        <ele>3180.00</ele>
        <time>2018-09-08T22:30:13Z</time>
      </trkpt>
      <trkpt lat="-2.574886" lon="-78.780434">
        <ele>3180.00</ele>
        <time>2018-09-08T22:30:14Z</time>
      </trkpt>
      <trkpt lat="-2.574806" lon="-78.780441">
        <ele>3180.00</ele>
        <time>2018-09-08T22:30:15Z</time>
      </trkpt>
      <trkpt lat="-2.574721" lon="-78.780464">
        <ele>3180.00</ele>
        <time>2018-09-08T22:30:16Z</time>
      </trkpt>
      <trkpt lat="-2.574657" lon="-78.780495">
        <ele>3179.00</ele>
        <time>2018-09-08T22:30:17Z</time>
      </trkpt>
      <trkpt lat="-2.574611" lon="-78.780563">
        <ele>3179.00</ele>
        <time>2018-09-08T22:30:18Z</time>
      </trkpt>
      <trkpt lat="-2.574565" lon="-78.780647">
        <ele>3178.00</ele>
        <time>2018-09-08T22:30:19Z</time>
      </trkpt>
      <trkpt lat="-2.574527" lon="-78.780724">
        <ele>3178.00</ele>
        <time>2018-09-08T22:30:20Z</time>
      </trkpt>
      <trkpt lat="-2.574499" lon="-78.780785">
        <ele>3178.00</ele>
        <time>2018-09-08T22:30:21Z</time>
      </trkpt>
      <trkpt lat="-2.574502" lon="-78.780861">
        <ele>3177.00</ele>
        <time>2018-09-08T22:30:22Z</time>
      </trkpt>
      <trkpt lat="-2.574543" lon="-78.780945">
        <ele>3177.00</ele>
        <time>2018-09-08T22:30:23Z</time>
      </trkpt>
      <trkpt lat="-2.574585" lon="-78.781029">
        <ele>3176.00</ele>
        <time>2018-09-08T22:30:24Z</time>
      </trkpt>
      <trkpt lat="-2.574616" lon="-78.781090">
        <ele>3176.00</ele>
        <time>2018-09-08T22:30:25Z</time>
      </trkpt>
      <trkpt lat="-2.574637" lon="-78.781158">
        <ele>3175.00</ele>
        <time>2018-09-08T22:30:26Z</time>
      </trkpt>
      <trkpt lat="-2.574641" lon="-78.781212">
        <ele>3175.00</ele>
        <time>2018-09-08T22:30:27Z</time>
      </trkpt>
      <trkpt lat="-2.574635" lon="-78.781242">
        <ele>3175.00</ele>
        <time>2018-09-08T22:30:28Z</time>
      </trkpt>
      <trkpt lat="-2.574627" lon="-78.781265">
        <ele>3175.00</ele>
        <time>2018-09-08T22:30:29Z</time>
      </trkpt>
      <trkpt lat="-2.574636" lon="-78.781273">
        <ele>3175.00</ele>
        <time>2018-09-08T22:30:30Z</time>
      </trkpt>
      <trkpt lat="-2.574654" lon="-78.781273">
        <ele>3175.00</ele>
        <time>2018-09-08T22:30:31Z</time>
      </trkpt>
      <trkpt lat="-2.574654" lon="-78.781273">
        <ele>3175.00</ele>
        <time>2018-09-08T22:30:32Z</time>
      </trkpt>
      <trkpt lat="-2.574654" lon="-78.781273">
        <ele>3175.00</ele>
        <time>2018-09-08T22:30:33Z</time>
      </trkpt>
      <trkpt lat="-2.574654" lon="-78.781273">
        <ele>3175.00</ele>
        <time>2018-09-08T22:30:34Z</time>
      </trkpt>
      <trkpt lat="-2.574654" lon="-78.781273">
        <ele>3175.00</ele>
        <time>2018-09-08T22:30:35Z</time>
      </trkpt>
      <trkpt lat="-2.574654" lon="-78.781273">
        <ele>3175.00</ele>
        <time>2018-09-08T22:30:36Z</time>
      </trkpt>
      <trkpt lat="-2.574654" lon="-78.781273">
        <ele>3175.00</ele>
        <time>2018-09-08T22:30:37Z</time>
      </trkpt>
      <trkpt lat="-2.574654" lon="-78.781273">
        <ele>3175.00</ele>
        <time>2018-09-08T22:30:38Z</time>
      </trkpt>
      <trkpt lat="-2.574654" lon="-78.781273">
        <ele>3175.00</ele>
        <time>2018-09-08T22:30:39Z</time>
      </trkpt>
      <trkpt lat="-2.574654" lon="-78.781273">
        <ele>3175.00</ele>
        <time>2018-09-08T22:30:40Z</time>
      </trkpt>
      <trkpt lat="-2.574654" lon="-78.781273">
        <ele>3175.00</ele>
        <time>2018-09-08T22:30:41Z</time>
      </trkpt>
      <trkpt lat="-2.574654" lon="-78.781273">
        <ele>3175.00</ele>
        <time>2018-09-08T22:30:42Z</time>
      </trkpt>
      <trkpt lat="-2.574654" lon="-78.781273">
        <ele>3175.00</ele>
        <time>2018-09-08T22:30:43Z</time>
      </trkpt>
      <trkpt lat="-2.574654" lon="-78.781273">
        <ele>3175.00</ele>
        <time>2018-09-08T22:30:44Z</time>
      </trkpt>
      <trkpt lat="-2.574654" lon="-78.781273">
        <ele>3175.00</ele>
        <time>2018-09-08T22:30:45Z</time>
      </trkpt>
      <trkpt lat="-2.574654" lon="-78.781273">
        <ele>3175.00</ele>
        <time>2018-09-08T22:30:46Z</time>
      </trkpt>
      <trkpt lat="-2.574654" lon="-78.781273">
        <ele>3175.00</ele>
        <time>2018-09-08T22:30:47Z</time>
      </trkpt>
      <trkpt lat="-2.574689" lon="-78.781273">
        <ele>3175.00</ele>
        <time>2018-09-08T22:30:48Z</time>
      </trkpt>
      <trkpt lat="-2.574689" lon="-78.781273">
        <ele>3175.00</ele>
        <time>2018-09-08T22:30:49Z</time>
      </trkpt>
      <trkpt lat="-2.574689" lon="-78.781273">
        <ele>3175.00</ele>
        <time>2018-09-08T22:30:50Z</time>
      </trkpt>
      <trkpt lat="-2.574689" lon="-78.781273">
        <ele>3175.00</ele>
        <time>2018-09-08T22:30:51Z</time>
      </trkpt>
      <trkpt lat="-2.574689" lon="-78.781273">
        <ele>3175.00</ele>
        <time>2018-09-08T22:30:52Z</time>
      </trkpt>
      <trkpt lat="-2.574689" lon="-78.781273">
        <ele>3175.00</ele>
        <time>2018-09-08T22:30:53Z</time>
      </trkpt>
      <trkpt lat="-2.574689" lon="-78.781273">
        <ele>3175.00</ele>
        <time>2018-09-08T22:30:54Z</time>
      </trkpt>
      <trkpt lat="-2.574684" lon="-78.781281">
        <ele>3176.00</ele>
        <time>2018-09-08T22:30:55Z</time>
      </trkpt>
      <trkpt lat="-2.574686" lon="-78.781235">
        <ele>3176.00</ele>
        <time>2018-09-08T22:30:56Z</time>
      </trkpt>
      <trkpt lat="-2.574689" lon="-78.781181">
        <ele>3176.00</ele>
        <time>2018-09-08T22:30:57Z</time>
      </trkpt>
      <trkpt lat="-2.574709" lon="-78.781128">
        <ele>3176.00</ele>
        <time>2018-09-08T22:30:58Z</time>
      </trkpt>
      <trkpt lat="-2.574744" lon="-78.781036">
        <ele>3176.00</ele>
        <time>2018-09-08T22:30:59Z</time>
      </trkpt>
      <trkpt lat="-2.574842" lon="-78.780884">
        <ele>3176.00</ele>
        <time>2018-09-08T22:31:00Z</time>
      </trkpt>
      <trkpt lat="-2.574915" lon="-78.780746">
        <ele>3176.00</ele>
        <time>2018-09-08T22:31:01Z</time>
      </trkpt>
      <trkpt lat="-2.574985" lon="-78.780586">
        <ele>3176.00</ele>
        <time>2018-09-08T22:31:02Z</time>
      </trkpt>
      <trkpt lat="-2.575054" lon="-78.780464">
        <ele>3176.00</ele>
        <time>2018-09-08T22:31:03Z</time>
      </trkpt>
      <trkpt lat="-2.575114" lon="-78.780334">
        <ele>3176.00</ele>
        <time>2018-09-08T22:31:04Z</time>
      </trkpt>
      <trkpt lat="-2.575167" lon="-78.780228">
        <ele>3176.00</ele>
        <time>2018-09-08T22:31:05Z</time>
      </trkpt>
      <trkpt lat="-2.575233" lon="-78.780151">
        <ele>3176.00</ele>
        <time>2018-09-08T22:31:06Z</time>
      </trkpt>
      <trkpt lat="-2.575335" lon="-78.780090">
        <ele>3176.00</ele>
        <time>2018-09-08T22:31:07Z</time>
      </trkpt>
      <trkpt lat="-2.575451" lon="-78.780060">
        <ele>3176.00</ele>
        <time>2018-09-08T22:31:08Z</time>
      </trkpt>
      <trkpt lat="-2.575580" lon="-78.780045">
        <ele>3176.00</ele>
        <time>2018-09-08T22:31:09Z</time>
      </trkpt>
      <trkpt lat="-2.575704" lon="-78.780052">
        <ele>3176.00</ele>
        <time>2018-09-08T22:31:10Z</time>
      </trkpt>
      <trkpt lat="-2.575808" lon="-78.780083">
        <ele>3176.00</ele>
        <time>2018-09-08T22:31:11Z</time>
      </trkpt>
      <trkpt lat="-2.575898" lon="-78.780144">
        <ele>3176.00</ele>
        <time>2018-09-08T22:31:12Z</time>
      </trkpt>
      <trkpt lat="-2.575997" lon="-78.780220">
        <ele>3176.00</ele>
        <time>2018-09-08T22:31:13Z</time>
      </trkpt>
      <trkpt lat="-2.576108" lon="-78.780319">
        <ele>3176.00</ele>
        <time>2018-09-08T22:31:14Z</time>
      </trkpt>
      <trkpt lat="-2.576236" lon="-78.780434">
        <ele>3176.00</ele>
        <time>2018-09-08T22:31:15Z</time>
      </trkpt>
      <trkpt lat="-2.576358" lon="-78.780548">
        <ele>3176.00</ele>
        <time>2018-09-08T22:31:16Z</time>
      </trkpt>
      <trkpt lat="-2.576474" lon="-78.780678">
        <ele>3176.00</ele>
        <time>2018-09-08T22:31:17Z</time>
      </trkpt>
      <trkpt lat="-2.576580" lon="-78.780800">
        <ele>3176.00</ele>
        <time>2018-09-08T22:31:18Z</time>
      </trkpt>
      <trkpt lat="-2.576674" lon="-78.780914">
        <ele>3176.00</ele>
        <time>2018-09-08T22:31:19Z</time>
      </trkpt>
      <trkpt lat="-2.576772" lon="-78.781029">
        <ele>3176.00</ele>
        <time>2018-09-08T22:31:20Z</time>
      </trkpt>
      <trkpt lat="-2.576880" lon="-78.781136">
        <ele>3176.00</ele>
        <time>2018-09-08T22:31:21Z</time>
      </trkpt>
      <trkpt lat="-2.576998" lon="-78.781235">
        <ele>3176.00</ele>
        <time>2018-09-08T22:31:22Z</time>
      </trkpt>
      <trkpt lat="-2.577132" lon="-78.781296">
        <ele>3176.00</ele>
        <time>2018-09-08T22:31:23Z</time>
      </trkpt>
      <trkpt lat="-2.577271" lon="-78.781319">
        <ele>3176.00</ele>
        <time>2018-09-08T22:31:24Z</time>
      </trkpt>
      <trkpt lat="-2.577360" lon="-78.781288">
        <ele>3176.00</ele>
        <time>2018-09-08T22:31:25Z</time>
      </trkpt>
      <trkpt lat="-2.577441" lon="-78.781227">
        <ele>3176.00</ele>
        <time>2018-09-08T22:31:26Z</time>
      </trkpt>
      <trkpt lat="-2.577524" lon="-78.781158">
        <ele>3176.00</ele>
        <time>2018-09-08T22:31:27Z</time>
      </trkpt>
      <trkpt lat="-2.577623" lon="-78.781082">
        <ele>3176.00</ele>
        <time>2018-09-08T22:31:28Z</time>
      </trkpt>
      <trkpt lat="-2.577750" lon="-78.781006">
        <ele>3176.00</ele>
        <time>2018-09-08T22:31:29Z</time>
      </trkpt>
      <trkpt lat="-2.577888" lon="-78.780907">
        <ele>3176.00</ele>
        <time>2018-09-08T22:31:30Z</time>
      </trkpt>
      <trkpt lat="-2.578028" lon="-78.780830">
        <ele>3176.00</ele>
        <time>2018-09-08T22:31:31Z</time>
      </trkpt>
      <trkpt lat="-2.578174" lon="-78.780754">
        <ele>3176.00</ele>
        <time>2018-09-08T22:31:32Z</time>
      </trkpt>
      <trkpt lat="-2.578320" lon="-78.780724">
        <ele>3176.00</ele>
        <time>2018-09-08T22:31:33Z</time>
      </trkpt>
      <trkpt lat="-2.578475" lon="-78.780693">
        <ele>3176.00</ele>
        <time>2018-09-08T22:31:34Z</time>
      </trkpt>
      <trkpt lat="-2.578630" lon="-78.780693">
        <ele>3176.00</ele>
        <time>2018-09-08T22:31:35Z</time>
      </trkpt>
      <trkpt lat="-2.578772" lon="-78.780693">
        <ele>3175.00</ele>
        <time>2018-09-08T22:31:36Z</time>
      </trkpt>
      <trkpt lat="-2.578894" lon="-78.780693">
        <ele>3175.00</ele>
        <time>2018-09-08T22:31:37Z</time>
      </trkpt>
      <trkpt lat="-2.578995" lon="-78.780701">
        <ele>3175.00</ele>
        <time>2018-09-08T22:31:38Z</time>
      </trkpt>
      <trkpt lat="-2.579086" lon="-78.780701">
        <ele>3175.00</ele>
        <time>2018-09-08T22:31:39Z</time>
      </trkpt>
      <trkpt lat="-2.579175" lon="-78.780693">
        <ele>3175.00</ele>
        <time>2018-09-08T22:31:40Z</time>
      </trkpt>
      <trkpt lat="-2.579268" lon="-78.780678">
        <ele>3175.00</ele>
        <time>2018-09-08T22:31:41Z</time>
      </trkpt>
      <trkpt lat="-2.579365" lon="-78.780670">
        <ele>3175.00</ele>
        <time>2018-09-08T22:31:42Z</time>
      </trkpt>
      <trkpt lat="-2.579471" lon="-78.780655">
        <ele>3175.00</ele>
        <time>2018-09-08T22:31:43Z</time>
      </trkpt>
      <trkpt lat="-2.579567" lon="-78.780678">
        <ele>3175.00</ele>
        <time>2018-09-08T22:31:44Z</time>
      </trkpt>
      <trkpt lat="-2.579652" lon="-78.780708">
        <ele>3175.00</ele>
        <time>2018-09-08T22:31:45Z</time>
      </trkpt>
      <trkpt lat="-2.579721" lon="-78.780754">
        <ele>3174.00</ele>
        <time>2018-09-08T22:31:46Z</time>
      </trkpt>
      <trkpt lat="-2.579784" lon="-78.780830">
        <ele>3174.00</ele>
        <time>2018-09-08T22:31:47Z</time>
      </trkpt>
      <trkpt lat="-2.579837" lon="-78.780899">
        <ele>3174.00</ele>
        <time>2018-09-08T22:31:48Z</time>
      </trkpt>
      <trkpt lat="-2.579888" lon="-78.781006">
        <ele>3174.00</ele>
        <time>2018-09-08T22:31:49Z</time>
      </trkpt>
      <trkpt lat="-2.579908" lon="-78.781136">
        <ele>3174.00</ele>
        <time>2018-09-08T22:31:50Z</time>
      </trkpt>
      <trkpt lat="-2.579911" lon="-78.781273">
        <ele>3174.00</ele>
        <time>2018-09-08T22:31:51Z</time>
      </trkpt>
      <trkpt lat="-2.579882" lon="-78.781403">
        <ele>3174.00</ele>
        <time>2018-09-08T22:31:52Z</time>
      </trkpt>
      <trkpt lat="-2.579861" lon="-78.781517">
        <ele>3174.00</ele>
        <time>2018-09-08T22:31:53Z</time>
      </trkpt>
      <trkpt lat="-2.579850" lon="-78.781639">
        <ele>3174.00</ele>
        <time>2018-09-08T22:31:54Z</time>
      </trkpt>
      <trkpt lat="-2.579841" lon="-78.781769">
        <ele>3174.00</ele>
        <time>2018-09-08T22:31:55Z</time>
      </trkpt>
      <trkpt lat="-2.579845" lon="-78.781921">
        <ele>3174.00</ele>
        <time>2018-09-08T22:31:56Z</time>
      </trkpt>
      <trkpt lat="-2.579854" lon="-78.782082">
        <ele>3174.00</ele>
        <time>2018-09-08T22:31:57Z</time>
      </trkpt>
      <trkpt lat="-2.579861" lon="-78.782219">
        <ele>3174.00</ele>
        <time>2018-09-08T22:31:58Z</time>
      </trkpt>
      <trkpt lat="-2.579849" lon="-78.782364">
        <ele>3174.00</ele>
        <time>2018-09-08T22:31:59Z</time>
      </trkpt>
      <trkpt lat="-2.579803" lon="-78.782501">
        <ele>3174.00</ele>
        <time>2018-09-08T22:32:00Z</time>
      </trkpt>
      <trkpt lat="-2.579743" lon="-78.782631">
        <ele>3174.00</ele>
        <time>2018-09-08T22:32:01Z</time>
      </trkpt>
      <trkpt lat="-2.579676" lon="-78.782745">
        <ele>3174.00</ele>
        <time>2018-09-08T22:32:02Z</time>
      </trkpt>
      <trkpt lat="-2.579634" lon="-78.782883">
        <ele>3174.00</ele>
        <time>2018-09-08T22:32:03Z</time>
      </trkpt>
      <trkpt lat="-2.579594" lon="-78.783005">
        <ele>3174.00</ele>
        <time>2018-09-08T22:32:04Z</time>
      </trkpt>
      <trkpt lat="-2.579564" lon="-78.783127">
        <ele>3174.00</ele>
        <time>2018-09-08T22:32:05Z</time>
      </trkpt>
      <trkpt lat="-2.579537" lon="-78.783234">
        <ele>3175.00</ele>
        <time>2018-09-08T22:32:06Z</time>
      </trkpt>
      <trkpt lat="-2.579515" lon="-78.783333">
        <ele>3175.00</ele>
        <time>2018-09-08T22:32:07Z</time>
      </trkpt>
      <trkpt lat="-2.579519" lon="-78.783432">
        <ele>3175.00</ele>
        <time>2018-09-08T22:32:08Z</time>
      </trkpt>
      <trkpt lat="-2.579539" lon="-78.783508">
        <ele>3175.00</ele>
        <time>2018-09-08T22:32:09Z</time>
      </trkpt>
      <trkpt lat="-2.579564" lon="-78.783577">
        <ele>3175.00</ele>
        <time>2018-09-08T22:32:10Z</time>
      </trkpt>
      <trkpt lat="-2.579600" lon="-78.783630">
        <ele>3175.00</ele>
        <time>2018-09-08T22:32:11Z</time>
      </trkpt>
      <trkpt lat="-2.579648" lon="-78.783684">
        <ele>3175.00</ele>
        <time>2018-09-08T22:32:12Z</time>
      </trkpt>
      <trkpt lat="-2.579706" lon="-78.783745">
        <ele>3175.00</ele>
        <time>2018-09-08T22:32:13Z</time>
      </trkpt>
      <trkpt lat="-2.579773" lon="-78.783798">
        <ele>3175.00</ele>
        <time>2018-09-08T22:32:14Z</time>
      </trkpt>
      <trkpt lat="-2.579850" lon="-78.783852">
        <ele>3175.00</ele>
        <time>2018-09-08T22:32:15Z</time>
      </trkpt>
      <trkpt lat="-2.579940" lon="-78.783905">
        <ele>3175.00</ele>
        <time>2018-09-08T22:32:16Z</time>
      </trkpt>
      <trkpt lat="-2.580049" lon="-78.783958">
        <ele>3175.00</ele>
        <time>2018-09-08T22:32:17Z</time>
      </trkpt>
      <trkpt lat="-2.580176" lon="-78.783989">
        <ele>3174.00</ele>
        <time>2018-09-08T22:32:18Z</time>
      </trkpt>
      <trkpt lat="-2.580307" lon="-78.784012">
        <ele>3174.00</ele>
        <time>2018-09-08T22:32:19Z</time>
      </trkpt>
      <trkpt lat="-2.580446" lon="-78.784012">
        <ele>3174.00</ele>
        <time>2018-09-08T22:32:20Z</time>
      </trkpt>
      <trkpt lat="-2.580571" lon="-78.784035">
        <ele>3173.00</ele>
        <time>2018-09-08T22:32:21Z</time>
      </trkpt>
      <trkpt lat="-2.580692" lon="-78.784081">
        <ele>3173.00</ele>
        <time>2018-09-08T22:32:22Z</time>
      </trkpt>
      <trkpt lat="-2.580794" lon="-78.784149">
        <ele>3173.00</ele>
        <time>2018-09-08T22:32:23Z</time>
      </trkpt>
      <trkpt lat="-2.580878" lon="-78.784233">
        <ele>3173.00</ele>
        <time>2018-09-08T22:32:24Z</time>
      </trkpt>
      <trkpt lat="-2.580943" lon="-78.784294">
        <ele>3172.00</ele>
        <time>2018-09-08T22:32:25Z</time>
      </trkpt>
      <trkpt lat="-2.581029" lon="-78.784348">
        <ele>3172.00</ele>
        <time>2018-09-08T22:32:26Z</time>
      </trkpt>
      <trkpt lat="-2.581128" lon="-78.784393">
        <ele>3172.00</ele>
        <time>2018-09-08T22:32:27Z</time>
      </trkpt>
      <trkpt lat="-2.581245" lon="-78.784439">
        <ele>3172.00</ele>
        <time>2018-09-08T22:32:28Z</time>
      </trkpt>
      <trkpt lat="-2.581362" lon="-78.784508">
        <ele>3171.00</ele>
        <time>2018-09-08T22:32:29Z</time>
      </trkpt>
      <trkpt lat="-2.581475" lon="-78.784599">
        <ele>3171.00</ele>
        <time>2018-09-08T22:32:30Z</time>
      </trkpt>
      <trkpt lat="-2.581569" lon="-78.784691">
        <ele>3171.00</ele>
        <time>2018-09-08T22:32:31Z</time>
      </trkpt>
      <trkpt lat="-2.581644" lon="-78.784821">
        <ele>3171.00</ele>
        <time>2018-09-08T22:32:32Z</time>
      </trkpt>
      <trkpt lat="-2.581696" lon="-78.784943">
        <ele>3171.00</ele>
        <time>2018-09-08T22:32:33Z</time>
      </trkpt>
      <trkpt lat="-2.581718" lon="-78.785072">
        <ele>3171.00</ele>
        <time>2018-09-08T22:32:34Z</time>
      </trkpt>
      <trkpt lat="-2.581744" lon="-78.785202">
        <ele>3170.00</ele>
        <time>2018-09-08T22:32:35Z</time>
      </trkpt>
      <trkpt lat="-2.581781" lon="-78.785309">
        <ele>3170.00</ele>
        <time>2018-09-08T22:32:36Z</time>
      </trkpt>
      <trkpt lat="-2.581815" lon="-78.785385">
        <ele>3170.00</ele>
        <time>2018-09-08T22:32:37Z</time>
      </trkpt>
      <trkpt lat="-2.581871" lon="-78.785461">
        <ele>3170.00</ele>
        <time>2018-09-08T22:32:38Z</time>
      </trkpt>
      <trkpt lat="-2.581937" lon="-78.785515">
        <ele>3170.00</ele>
        <time>2018-09-08T22:32:39Z</time>
      </trkpt>
      <trkpt lat="-2.582006" lon="-78.785576">
        <ele>3170.00</ele>
        <time>2018-09-08T22:32:40Z</time>
      </trkpt>
      <trkpt lat="-2.582047" lon="-78.785606">
        <ele>3170.00</ele>
        <time>2018-09-08T22:32:41Z</time>
      </trkpt>
      <trkpt lat="-2.582047" lon="-78.785606">
        <ele>3170.00</ele>
        <time>2018-09-08T22:32:42Z</time>
      </trkpt>
      <trkpt lat="-2.582047" lon="-78.785606">
        <ele>3170.00</ele>
        <time>2018-09-08T22:32:43Z</time>
      </trkpt>
      <trkpt lat="-2.582047" lon="-78.785606">
        <ele>3170.00</ele>
        <time>2018-09-08T22:32:44Z</time>
      </trkpt>
      <trkpt lat="-2.582047" lon="-78.785606">
        <ele>3170.00</ele>
        <time>2018-09-08T22:32:45Z</time>
      </trkpt>
      <trkpt lat="-2.582047" lon="-78.785606">
        <ele>3170.00</ele>
        <time>2018-09-08T22:32:46Z</time>
      </trkpt>
      <trkpt lat="-2.582097" lon="-78.785606">
        <ele>3170.00</ele>
        <time>2018-09-08T22:32:47Z</time>
      </trkpt>
      <trkpt lat="-2.582147" lon="-78.785629">
        <ele>3169.00</ele>
        <time>2018-09-08T22:32:48Z</time>
      </trkpt>
      <trkpt lat="-2.582212" lon="-78.785637">
        <ele>3169.00</ele>
        <time>2018-09-08T22:32:49Z</time>
      </trkpt>
      <trkpt lat="-2.582276" lon="-78.785645">
        <ele>3169.00</ele>
        <time>2018-09-08T22:32:50Z</time>
      </trkpt>
      <trkpt lat="-2.582330" lon="-78.785645">
        <ele>3169.00</ele>
        <time>2018-09-08T22:32:51Z</time>
      </trkpt>
      <trkpt lat="-2.582373" lon="-78.785645">
        <ele>3169.00</ele>
        <time>2018-09-08T22:32:52Z</time>
      </trkpt>
      <trkpt lat="-2.582373" lon="-78.785645">
        <ele>3169.00</ele>
        <time>2018-09-08T22:32:53Z</time>
      </trkpt>
      <trkpt lat="-2.582419" lon="-78.785637">
        <ele>3169.00</ele>
        <time>2018-09-08T22:32:54Z</time>
      </trkpt>
      <trkpt lat="-2.582444" lon="-78.785629">
        <ele>3169.00</ele>
        <time>2018-09-08T22:32:55Z</time>
      </trkpt>
      <trkpt lat="-2.582481" lon="-78.785614">
        <ele>3169.00</ele>
        <time>2018-09-08T22:32:56Z</time>
      </trkpt>
      <trkpt lat="-2.582533" lon="-78.785591">
        <ele>3168.00</ele>
        <time>2018-09-08T22:32:57Z</time>
      </trkpt>
      <trkpt lat="-2.582595" lon="-78.785545">
        <ele>3168.00</ele>
        <time>2018-09-08T22:32:58Z</time>
      </trkpt>
      <trkpt lat="-2.582675" lon="-78.785484">
        <ele>3168.00</ele>
        <time>2018-09-08T22:32:59Z</time>
      </trkpt>
      <trkpt lat="-2.582777" lon="-78.785416">
        <ele>3167.00</ele>
        <time>2018-09-08T22:33:00Z</time>
      </trkpt>
      <trkpt lat="-2.582894" lon="-78.785370">
        <ele>3167.00</ele>
        <time>2018-09-08T22:33:01Z</time>
      </trkpt>
      <trkpt lat="-2.583023" lon="-78.785324">
        <ele>3167.00</ele>
        <time>2018-09-08T22:33:02Z</time>
      </trkpt>
      <trkpt lat="-2.583152" lon="-78.785278">
        <ele>3167.00</ele>
        <time>2018-09-08T22:33:03Z</time>
      </trkpt>
      <trkpt lat="-2.583280" lon="-78.785225">
        <ele>3166.00</ele>
        <time>2018-09-08T22:33:04Z</time>
      </trkpt>
      <trkpt lat="-2.583413" lon="-78.785172">
        <ele>3166.00</ele>
        <time>2018-09-08T22:33:05Z</time>
      </trkpt>
      <trkpt lat="-2.583551" lon="-78.785149">
        <ele>3166.00</ele>
        <time>2018-09-08T22:33:06Z</time>
      </trkpt>
      <trkpt lat="-2.583690" lon="-78.785141">
        <ele>3166.00</ele>
        <time>2018-09-08T22:33:07Z</time>
      </trkpt>
      <trkpt lat="-2.583814" lon="-78.785149">
        <ele>3166.00</ele>
        <time>2018-09-08T22:33:08Z</time>
      </trkpt>
      <trkpt lat="-2.583929" lon="-78.785164">
        <ele>3166.00</ele>
        <time>2018-09-08T22:33:09Z</time>
      </trkpt>
      <trkpt lat="-2.584026" lon="-78.785179">
        <ele>3166.00</ele>
        <time>2018-09-08T22:33:10Z</time>
      </trkpt>
      <trkpt lat="-2.584096" lon="-78.785202">
        <ele>3166.00</ele>
        <time>2018-09-08T22:33:11Z</time>
      </trkpt>
      <trkpt lat="-2.584163" lon="-78.785217">
        <ele>3166.00</ele>
        <time>2018-09-08T22:33:12Z</time>
      </trkpt>
      <trkpt lat="-2.584232" lon="-78.785194">
        <ele>3166.00</ele>
        <time>2018-09-08T22:33:13Z</time>
      </trkpt>
      <trkpt lat="-2.584306" lon="-78.785156">
        <ele>3166.00</ele>
        <time>2018-09-08T22:33:14Z</time>
      </trkpt>
      <trkpt lat="-2.584361" lon="-78.785095">
        <ele>3166.00</ele>
        <time>2018-09-08T22:33:15Z</time>
      </trkpt>
      <trkpt lat="-2.584394" lon="-78.785011">
        <ele>3166.00</ele>
        <time>2018-09-08T22:33:16Z</time>
      </trkpt>
      <trkpt lat="-2.584420" lon="-78.784943">
        <ele>3166.00</ele>
        <time>2018-09-08T22:33:17Z</time>
      </trkpt>
      <trkpt lat="-2.584454" lon="-78.784874">
        <ele>3167.00</ele>
        <time>2018-09-08T22:33:18Z</time>
      </trkpt>
      <trkpt lat="-2.584490" lon="-78.784798">
        <ele>3167.00</ele>
        <time>2018-09-08T22:33:19Z</time>
      </trkpt>
      <trkpt lat="-2.584537" lon="-78.784729">
        <ele>3167.00</ele>
        <time>2018-09-08T22:33:20Z</time>
      </trkpt>
      <trkpt lat="-2.584610" lon="-78.784683">
        <ele>3167.00</ele>
        <time>2018-09-08T22:33:21Z</time>
      </trkpt>
      <trkpt lat="-2.584707" lon="-78.784660">
        <ele>3167.00</ele>
        <time>2018-09-08T22:33:22Z</time>
      </trkpt>
      <trkpt lat="-2.584807" lon="-78.784622">
        <ele>3167.00</ele>
        <time>2018-09-08T22:33:23Z</time>
      </trkpt>
      <trkpt lat="-2.584901" lon="-78.784569">
        <ele>3167.00</ele>
        <time>2018-09-08T22:33:24Z</time>
      </trkpt>
      <trkpt lat="-2.584996" lon="-78.784500">
        <ele>3167.00</ele>
        <time>2018-09-08T22:33:25Z</time>
      </trkpt>
      <trkpt lat="-2.585086" lon="-78.784439">
        <ele>3167.00</ele>
        <time>2018-09-08T22:33:26Z</time>
      </trkpt>
      <trkpt lat="-2.585169" lon="-78.784401">
        <ele>3167.00</ele>
        <time>2018-09-08T22:33:27Z</time>
      </trkpt>
      <trkpt lat="-2.585260" lon="-78.784393">
        <ele>3167.00</ele>
        <time>2018-09-08T22:33:28Z</time>
      </trkpt>
      <trkpt lat="-2.585362" lon="-78.784416">
        <ele>3167.00</ele>
        <time>2018-09-08T22:33:29Z</time>
      </trkpt>
      <trkpt lat="-2.585467" lon="-78.784470">
        <ele>3168.00</ele>
        <time>2018-09-08T22:33:30Z</time>
      </trkpt>
      <trkpt lat="-2.585569" lon="-78.784508">
        <ele>3168.00</ele>
        <time>2018-09-08T22:33:31Z</time>
      </trkpt>
      <trkpt lat="-2.585670" lon="-78.784554">
        <ele>3168.00</ele>
        <time>2018-09-08T22:33:32Z</time>
      </trkpt>
      <trkpt lat="-2.585767" lon="-78.784599">
        <ele>3169.00</ele>
        <time>2018-09-08T22:33:33Z</time>
      </trkpt>
      <trkpt lat="-2.585860" lon="-78.784630">
        <ele>3169.00</ele>
        <time>2018-09-08T22:33:34Z</time>
      </trkpt>
      <trkpt lat="-2.585946" lon="-78.784668">
        <ele>3169.00</ele>
        <time>2018-09-08T22:33:35Z</time>
      </trkpt>
      <trkpt lat="-2.586029" lon="-78.784698">
        <ele>3169.00</ele>
        <time>2018-09-08T22:33:36Z</time>
      </trkpt>
      <trkpt lat="-2.586112" lon="-78.784737">
        <ele>3169.00</ele>
        <time>2018-09-08T22:33:37Z</time>
      </trkpt>
      <trkpt lat="-2.586193" lon="-78.784767">
        <ele>3169.00</ele>
        <time>2018-09-08T22:33:38Z</time>
      </trkpt>
      <trkpt lat="-2.586272" lon="-78.784798">
        <ele>3169.00</ele>
        <time>2018-09-08T22:33:39Z</time>
      </trkpt>
      <trkpt lat="-2.586346" lon="-78.784828">
        <ele>3168.00</ele>
        <time>2018-09-08T22:33:40Z</time>
      </trkpt>
      <trkpt lat="-2.586412" lon="-78.784859">
        <ele>3168.00</ele>
        <time>2018-09-08T22:33:41Z</time>
      </trkpt>
      <trkpt lat="-2.586474" lon="-78.784889">
        <ele>3168.00</ele>
        <time>2018-09-08T22:33:42Z</time>
      </trkpt>
      <trkpt lat="-2.586529" lon="-78.784904">
        <ele>3167.00</ele>
        <time>2018-09-08T22:33:43Z</time>
      </trkpt>
      <trkpt lat="-2.586580" lon="-78.784927">
        <ele>3167.00</ele>
        <time>2018-09-08T22:33:44Z</time>
      </trkpt>
      <trkpt lat="-2.586624" lon="-78.784943">
        <ele>3167.00</ele>
        <time>2018-09-08T22:33:45Z</time>
      </trkpt>
      <trkpt lat="-2.586661" lon="-78.784950">
        <ele>3167.00</ele>
        <time>2018-09-08T22:33:46Z</time>
      </trkpt>
      <trkpt lat="-2.586694" lon="-78.784958">
        <ele>3167.00</ele>
        <time>2018-09-08T22:33:47Z</time>
      </trkpt>
      <trkpt lat="-2.586721" lon="-78.784966">
        <ele>3167.00</ele>
        <time>2018-09-08T22:33:48Z</time>
      </trkpt>
      <trkpt lat="-2.586740" lon="-78.784981">
        <ele>3167.00</ele>
        <time>2018-09-08T22:33:49Z</time>
      </trkpt>
      <trkpt lat="-2.586752" lon="-78.784988">
        <ele>3167.00</ele>
        <time>2018-09-08T22:33:50Z</time>
      </trkpt>
      <trkpt lat="-2.586766" lon="-78.784996">
        <ele>3167.00</ele>
        <time>2018-09-08T22:33:51Z</time>
      </trkpt>
      <trkpt lat="-2.586777" lon="-78.784996">
        <ele>3167.00</ele>
        <time>2018-09-08T22:33:52Z</time>
      </trkpt>
      <trkpt lat="-2.586777" lon="-78.784996">
        <ele>3167.00</ele>
        <time>2018-09-08T22:33:53Z</time>
      </trkpt>
      <trkpt lat="-2.586777" lon="-78.784996">
        <ele>3167.00</ele>
        <time>2018-09-08T22:33:54Z</time>
      </trkpt>
      <trkpt lat="-2.586777" lon="-78.784996">
        <ele>3167.00</ele>
        <time>2018-09-08T22:33:55Z</time>
      </trkpt>
      <trkpt lat="-2.586777" lon="-78.784996">
        <ele>3167.00</ele>
        <time>2018-09-08T22:33:56Z</time>
      </trkpt>
      <trkpt lat="-2.586777" lon="-78.784996">
        <ele>3167.00</ele>
        <time>2018-09-08T22:33:57Z</time>
      </trkpt>
      <trkpt lat="-2.586777" lon="-78.784996">
        <ele>3167.00</ele>
        <time>2018-09-08T22:33:58Z</time>
      </trkpt>
      <trkpt lat="-2.586777" lon="-78.784996">
        <ele>3167.00</ele>
        <time>2018-09-08T22:33:59Z</time>
      </trkpt>
      <trkpt lat="-2.586777" lon="-78.784996">
        <ele>3167.00</ele>
        <time>2018-09-08T22:34:00Z</time>
      </trkpt>
      <trkpt lat="-2.586792" lon="-78.785004">
        <ele>3167.00</ele>
        <time>2018-09-08T22:34:01Z</time>
      </trkpt>
      <trkpt lat="-2.586818" lon="-78.785011">
        <ele>3167.00</ele>
        <time>2018-09-08T22:34:02Z</time>
      </trkpt>
      <trkpt lat="-2.586855" lon="-78.785034">
        <ele>3167.00</ele>
        <time>2018-09-08T22:34:03Z</time>
      </trkpt>
      <trkpt lat="-2.586898" lon="-78.785042">
        <ele>3166.00</ele>
        <time>2018-09-08T22:34:04Z</time>
      </trkpt>
      <trkpt lat="-2.586951" lon="-78.785057">
        <ele>3166.00</ele>
        <time>2018-09-08T22:34:05Z</time>
      </trkpt>
      <trkpt lat="-2.587019" lon="-78.785088">
        <ele>3166.00</ele>
        <time>2018-09-08T22:34:06Z</time>
      </trkpt>
      <trkpt lat="-2.587088" lon="-78.785110">
        <ele>3166.00</ele>
        <time>2018-09-08T22:34:07Z</time>
      </trkpt>
      <trkpt lat="-2.587152" lon="-78.785126">
        <ele>3166.00</ele>
        <time>2018-09-08T22:34:08Z</time>
      </trkpt>
      <trkpt lat="-2.587211" lon="-78.785156">
        <ele>3165.00</ele>
        <time>2018-09-08T22:34:09Z</time>
      </trkpt>
      <trkpt lat="-2.587257" lon="-78.785164">
        <ele>3165.00</ele>
        <time>2018-09-08T22:34:10Z</time>
      </trkpt>
      <trkpt lat="-2.587288" lon="-78.785172">
        <ele>3165.00</ele>
        <time>2018-09-08T22:34:11Z</time>
      </trkpt>
      <trkpt lat="-2.587302" lon="-78.785172">
        <ele>3165.00</ele>
        <time>2018-09-08T22:34:12Z</time>
      </trkpt>
      <trkpt lat="-2.587302" lon="-78.785172">
        <ele>3165.00</ele>
        <time>2018-09-08T22:34:13Z</time>
      </trkpt>
      <trkpt lat="-2.587302" lon="-78.785172">
        <ele>3165.00</ele>
        <time>2018-09-08T22:34:14Z</time>
      </trkpt>
      <trkpt lat="-2.587302" lon="-78.785172">
        <ele>3165.00</ele>
        <time>2018-09-08T22:34:15Z</time>
      </trkpt>
      <trkpt lat="-2.587302" lon="-78.785172">
        <ele>3165.00</ele>
        <time>2018-09-08T22:34:16Z</time>
      </trkpt>
      <trkpt lat="-2.587302" lon="-78.785172">
        <ele>3165.00</ele>
        <time>2018-09-08T22:34:17Z</time>
      </trkpt>
      <trkpt lat="-2.587302" lon="-78.785172">
        <ele>3165.00</ele>
        <time>2018-09-08T22:34:18Z</time>
      </trkpt>
      <trkpt lat="-2.587302" lon="-78.785172">
        <ele>3165.00</ele>
        <time>2018-09-08T22:34:19Z</time>
      </trkpt>
      <trkpt lat="-2.587302" lon="-78.785172">
        <ele>3165.00</ele>
        <time>2018-09-08T22:34:20Z</time>
      </trkpt>
      <trkpt lat="-2.587302" lon="-78.785172">
        <ele>3165.00</ele>
        <time>2018-09-08T22:34:21Z</time>
      </trkpt>
      <trkpt lat="-2.587302" lon="-78.785172">
        <ele>3165.00</ele>
        <time>2018-09-08T22:34:22Z</time>
      </trkpt>
      <trkpt lat="-2.587302" lon="-78.785172">
        <ele>3165.00</ele>
        <time>2018-09-08T22:34:23Z</time>
      </trkpt>
      <trkpt lat="-2.587302" lon="-78.785172">
        <ele>3165.00</ele>
        <time>2018-09-08T22:34:24Z</time>
      </trkpt>
      <trkpt lat="-2.587302" lon="-78.785172">
        <ele>3165.00</ele>
        <time>2018-09-08T22:34:25Z</time>
      </trkpt>
      <trkpt lat="-2.587302" lon="-78.785172">
        <ele>3165.00</ele>
        <time>2018-09-08T22:34:26Z</time>
      </trkpt>
      <trkpt lat="-2.587302" lon="-78.785172">
        <ele>3165.00</ele>
        <time>2018-09-08T22:34:27Z</time>
      </trkpt>
      <trkpt lat="-2.587302" lon="-78.785172">
        <ele>3165.00</ele>
        <time>2018-09-08T22:34:28Z</time>
      </trkpt>
      <trkpt lat="-2.587302" lon="-78.785172">
        <ele>3165.00</ele>
        <time>2018-09-08T22:34:29Z</time>
      </trkpt>
      <trkpt lat="-2.587302" lon="-78.785172">
        <ele>3165.00</ele>
        <time>2018-09-08T22:34:30Z</time>
      </trkpt>
      <trkpt lat="-2.587295" lon="-78.785172">
        <ele>3165.00</ele>
        <time>2018-09-08T22:34:31Z</time>
      </trkpt>
      <trkpt lat="-2.587349" lon="-78.785172">
        <ele>3165.00</ele>
        <time>2018-09-08T22:34:32Z</time>
      </trkpt>
      <trkpt lat="-2.587431" lon="-78.785164">
        <ele>3165.00</ele>
        <time>2018-09-08T22:34:33Z</time>
      </trkpt>
      <trkpt lat="-2.587527" lon="-78.785164">
        <ele>3164.00</ele>
        <time>2018-09-08T22:34:34Z</time>
      </trkpt>
      <trkpt lat="-2.587632" lon="-78.785179">
        <ele>3164.00</ele>
        <time>2018-09-08T22:34:35Z</time>
      </trkpt>
      <trkpt lat="-2.587733" lon="-78.785210">
        <ele>3164.00</ele>
        <time>2018-09-08T22:34:36Z</time>
      </trkpt>
      <trkpt lat="-2.587827" lon="-78.785233">
        <ele>3164.00</ele>
        <time>2018-09-08T22:34:37Z</time>
      </trkpt>
      <trkpt lat="-2.587925" lon="-78.785271">
        <ele>3164.00</ele>
        <time>2018-09-08T22:34:38Z</time>
      </trkpt>
      <trkpt lat="-2.588018" lon="-78.785309">
        <ele>3164.00</ele>
        <time>2018-09-08T22:34:39Z</time>
      </trkpt>
      <trkpt lat="-2.588108" lon="-78.785339">
        <ele>3164.00</ele>
        <time>2018-09-08T22:34:40Z</time>
      </trkpt>
      <trkpt lat="-2.588196" lon="-78.785370">
        <ele>3164.00</ele>
        <time>2018-09-08T22:34:41Z</time>
      </trkpt>
      <trkpt lat="-2.588291" lon="-78.785393">
        <ele>3164.00</ele>
        <time>2018-09-08T22:34:42Z</time>
      </trkpt>
      <trkpt lat="-2.588385" lon="-78.785431">
        <ele>3164.00</ele>
        <time>2018-09-08T22:34:43Z</time>
      </trkpt>
      <trkpt lat="-2.588475" lon="-78.785461">
        <ele>3164.00</ele>
        <time>2018-09-08T22:34:44Z</time>
      </trkpt>
      <trkpt lat="-2.588553" lon="-78.785484">
        <ele>3164.00</ele>
        <time>2018-09-08T22:34:45Z</time>
      </trkpt>
      <trkpt lat="-2.588619" lon="-78.785515">
        <ele>3164.00</ele>
        <time>2018-09-08T22:34:46Z</time>
      </trkpt>
      <trkpt lat="-2.588657" lon="-78.785553">
        <ele>3164.00</ele>
        <time>2018-09-08T22:34:47Z</time>
      </trkpt>
      <trkpt lat="-2.588672" lon="-78.785614">
        <ele>3164.00</ele>
        <time>2018-09-08T22:34:48Z</time>
      </trkpt>
      <trkpt lat="-2.588660" lon="-78.785698">
        <ele>3164.00</ele>
        <time>2018-09-08T22:34:49Z</time>
      </trkpt>
      <trkpt lat="-2.588648" lon="-78.785759">
        <ele>3164.00</ele>
        <time>2018-09-08T22:34:50Z</time>
      </trkpt>
      <trkpt lat="-2.588634" lon="-78.785797">
        <ele>3164.00</ele>
        <time>2018-09-08T22:34:51Z</time>
      </trkpt>
      <trkpt lat="-2.588649" lon="-78.785820">
        <ele>3164.00</ele>
        <time>2018-09-08T22:34:52Z</time>
      </trkpt>
      <trkpt lat="-2.588670" lon="-78.785828">
        <ele>3164.00</ele>
        <time>2018-09-08T22:34:53Z</time>
      </trkpt>
      <trkpt lat="-2.588689" lon="-78.785812">
        <ele>3164.00</ele>
        <time>2018-09-08T22:34:54Z</time>
      </trkpt>
      <trkpt lat="-2.588699" lon="-78.785774">
        <ele>3164.00</ele>
        <time>2018-09-08T22:34:55Z</time>
      </trkpt>
      <trkpt lat="-2.588700" lon="-78.785713">
        <ele>3164.00</ele>
        <time>2018-09-08T22:34:56Z</time>
      </trkpt>
      <trkpt lat="-2.588709" lon="-78.785629">
        <ele>3164.00</ele>
        <time>2018-09-08T22:34:57Z</time>
      </trkpt>
      <trkpt lat="-2.588718" lon="-78.785530">
        <ele>3164.00</ele>
        <time>2018-09-08T22:34:58Z</time>
      </trkpt>
      <trkpt lat="-2.588726" lon="-78.785423">
        <ele>3164.00</ele>
        <time>2018-09-08T22:34:59Z</time>
      </trkpt>
      <trkpt lat="-2.588736" lon="-78.785316">
        <ele>3164.00</ele>
        <time>2018-09-08T22:35:00Z</time>
      </trkpt>
      <trkpt lat="-2.588747" lon="-78.785179">
        <ele>3164.00</ele>
        <time>2018-09-08T22:35:01Z</time>
      </trkpt>
      <trkpt lat="-2.588746" lon="-78.785057">
        <ele>3164.00</ele>
        <time>2018-09-08T22:35:02Z</time>
      </trkpt>
      <trkpt lat="-2.588734" lon="-78.784943">
        <ele>3164.00</ele>
        <time>2018-09-08T22:35:03Z</time>
      </trkpt>
      <trkpt lat="-2.588728" lon="-78.784843">
        <ele>3165.00</ele>
        <time>2018-09-08T22:35:04Z</time>
      </trkpt>
      <trkpt lat="-2.588743" lon="-78.784767">
        <ele>3165.00</ele>
        <time>2018-09-08T22:35:05Z</time>
      </trkpt>
      <trkpt lat="-2.588771" lon="-78.784683">
        <ele>3165.00</ele>
        <time>2018-09-08T22:35:06Z</time>
      </trkpt>
      <trkpt lat="-2.588806" lon="-78.784622">
        <ele>3165.00</ele>
        <time>2018-09-08T22:35:07Z</time>
      </trkpt>
      <trkpt lat="-2.588849" lon="-78.784554">
        <ele>3165.00</ele>
        <time>2018-09-08T22:35:08Z</time>
      </trkpt>
      <trkpt lat="-2.588899" lon="-78.784492">
        <ele>3165.00</ele>
        <time>2018-09-08T22:35:09Z</time>
      </trkpt>
      <trkpt lat="-2.588958" lon="-78.784424">
        <ele>3165.00</ele>
        <time>2018-09-08T22:35:10Z</time>
      </trkpt>
      <trkpt lat="-2.589033" lon="-78.784355">
        <ele>3165.00</ele>
        <time>2018-09-08T22:35:11Z</time>
      </trkpt>
      <trkpt lat="-2.589121" lon="-78.784286">
        <ele>3165.00</ele>
        <time>2018-09-08T22:35:12Z</time>
      </trkpt>
      <trkpt lat="-2.589211" lon="-78.784210">
        <ele>3165.00</ele>
        <time>2018-09-08T22:35:13Z</time>
      </trkpt>
      <trkpt lat="-2.589298" lon="-78.784149">
        <ele>3165.00</ele>
        <time>2018-09-08T22:35:14Z</time>
      </trkpt>
      <trkpt lat="-2.589385" lon="-78.784088">
        <ele>3165.00</ele>
        <time>2018-09-08T22:35:15Z</time>
      </trkpt>
      <trkpt lat="-2.589488" lon="-78.784042">
        <ele>3165.00</ele>
        <time>2018-09-08T22:35:16Z</time>
      </trkpt>
      <trkpt lat="-2.589599" lon="-78.784012">
        <ele>3165.00</ele>
        <time>2018-09-08T22:35:17Z</time>
      </trkpt>
      <trkpt lat="-2.589717" lon="-78.783989">
        <ele>3165.00</ele>
        <time>2018-09-08T22:35:18Z</time>
      </trkpt>
      <trkpt lat="-2.589838" lon="-78.783989">
        <ele>3165.00</ele>
        <time>2018-09-08T22:35:19Z</time>
      </trkpt>
      <trkpt lat="-2.589957" lon="-78.783989">
        <ele>3166.00</ele>
        <time>2018-09-08T22:35:20Z</time>
      </trkpt>
      <trkpt lat="-2.590063" lon="-78.783989">
        <ele>3166.00</ele>
        <time>2018-09-08T22:35:21Z</time>
      </trkpt>
      <trkpt lat="-2.590150" lon="-78.783997">
        <ele>3166.00</ele>
        <time>2018-09-08T22:35:22Z</time>
      </trkpt>
      <trkpt lat="-2.590224" lon="-78.783966">
        <ele>3167.00</ele>
        <time>2018-09-08T22:35:23Z</time>
      </trkpt>
      <trkpt lat="-2.590282" lon="-78.783913">
        <ele>3167.00</ele>
        <time>2018-09-08T22:35:24Z</time>
      </trkpt>
      <trkpt lat="-2.590345" lon="-78.783859">
        <ele>3167.00</ele>
        <time>2018-09-08T22:35:25Z</time>
      </trkpt>
      <trkpt lat="-2.590423" lon="-78.783821">
        <ele>3167.00</ele>
        <time>2018-09-08T22:35:26Z</time>
      </trkpt>
      <trkpt lat="-2.590519" lon="-78.783813">
        <ele>3167.00</ele>
        <time>2018-09-08T22:35:27Z</time>
      </trkpt>
      <trkpt lat="-2.590620" lon="-78.783775">
        <ele>3168.00</ele>
        <time>2018-09-08T22:35:28Z</time>
      </trkpt>
      <trkpt lat="-2.590717" lon="-78.783730">
        <ele>3168.00</ele>
        <time>2018-09-08T22:35:29Z</time>
      </trkpt>
      <trkpt lat="-2.590824" lon="-78.783684">
        <ele>3168.00</ele>
        <time>2018-09-08T22:35:30Z</time>
      </trkpt>
      <trkpt lat="-2.590945" lon="-78.783646">
        <ele>3168.00</ele>
        <time>2018-09-08T22:35:31Z</time>
      </trkpt>
      <trkpt lat="-2.591081" lon="-78.783615">
        <ele>3168.00</ele>
        <time>2018-09-08T22:35:32Z</time>
      </trkpt>
      <trkpt lat="-2.591204" lon="-78.783592">
        <ele>3168.00</ele>
        <time>2018-09-08T22:35:33Z</time>
      </trkpt>
      <trkpt lat="-2.591307" lon="-78.783562">
        <ele>3169.00</ele>
        <time>2018-09-08T22:35:34Z</time>
      </trkpt>
      <trkpt lat="-2.591390" lon="-78.783546">
        <ele>3169.00</ele>
        <time>2018-09-08T22:35:35Z</time>
      </trkpt>
      <trkpt lat="-2.591467" lon="-78.783508">
        <ele>3169.00</ele>
        <time>2018-09-08T22:35:36Z</time>
      </trkpt>
      <trkpt lat="-2.591545" lon="-78.783485">
        <ele>3170.00</ele>
        <time>2018-09-08T22:35:37Z</time>
      </trkpt>
      <trkpt lat="-2.591626" lon="-78.783447">
        <ele>3170.00</ele>
        <time>2018-09-08T22:35:38Z</time>
      </trkpt>
      <trkpt lat="-2.591705" lon="-78.783417">
        <ele>3170.00</ele>
        <time>2018-09-08T22:35:39Z</time>
      </trkpt>
      <trkpt lat="-2.591785" lon="-78.783394">
        <ele>3170.00</ele>
        <time>2018-09-08T22:35:40Z</time>
      </trkpt>
      <trkpt lat="-2.591865" lon="-78.783379">
        <ele>3171.00</ele>
        <time>2018-09-08T22:35:41Z</time>
      </trkpt>
      <trkpt lat="-2.591940" lon="-78.783371">
        <ele>3171.00</ele>
        <time>2018-09-08T22:35:42Z</time>
      </trkpt>
      <trkpt lat="-2.592006" lon="-78.783348">
        <ele>3171.00</ele>
        <time>2018-09-08T22:35:43Z</time>
      </trkpt>
      <trkpt lat="-2.592055" lon="-78.783295">
        <ele>3171.00</ele>
        <time>2018-09-08T22:35:44Z</time>
      </trkpt>
      <trkpt lat="-2.592080" lon="-78.783218">
        <ele>3172.00</ele>
        <time>2018-09-08T22:35:45Z</time>
      </trkpt>
      <trkpt lat="-2.592120" lon="-78.783127">
        <ele>3172.00</ele>
        <time>2018-09-08T22:35:46Z</time>
      </trkpt>
      <trkpt lat="-2.592183" lon="-78.783051">
        <ele>3172.00</ele>
        <time>2018-09-08T22:35:47Z</time>
      </trkpt>
      <trkpt lat="-2.592272" lon="-78.782967">
        <ele>3172.00</ele>
        <time>2018-09-08T22:35:48Z</time>
      </trkpt>
      <trkpt lat="-2.592379" lon="-78.782913">
        <ele>3173.00</ele>
        <time>2018-09-08T22:35:49Z</time>
      </trkpt>
      <trkpt lat="-2.592498" lon="-78.782867">
        <ele>3173.00</ele>
        <time>2018-09-08T22:35:50Z</time>
      </trkpt>
      <trkpt lat="-2.592601" lon="-78.782814">
        <ele>3173.00</ele>
        <time>2018-09-08T22:35:51Z</time>
      </trkpt>
      <trkpt lat="-2.592695" lon="-78.782768">
        <ele>3174.00</ele>
        <time>2018-09-08T22:35:52Z</time>
      </trkpt>
      <trkpt lat="-2.592773" lon="-78.782684">
        <ele>3174.00</ele>
        <time>2018-09-08T22:35:53Z</time>
      </trkpt>
      <trkpt lat="-2.592862" lon="-78.782608">
        <ele>3174.00</ele>
        <time>2018-09-08T22:35:54Z</time>
      </trkpt>
      <trkpt lat="-2.592966" lon="-78.782539">
        <ele>3175.00</ele>
        <time>2018-09-08T22:35:55Z</time>
      </trkpt>
      <trkpt lat="-2.593069" lon="-78.782478">
        <ele>3175.00</ele>
        <time>2018-09-08T22:35:56Z</time>
      </trkpt>
      <trkpt lat="-2.593160" lon="-78.782417">
        <ele>3176.00</ele>
        <time>2018-09-08T22:35:57Z</time>
      </trkpt>
      <trkpt lat="-2.593245" lon="-78.782379">
        <ele>3176.00</ele>
        <time>2018-09-08T22:35:58Z</time>
      </trkpt>
      <trkpt lat="-2.593331" lon="-78.782364">
        <ele>3177.00</ele>
        <time>2018-09-08T22:35:59Z</time>
      </trkpt>
      <trkpt lat="-2.593412" lon="-78.782341">
        <ele>3177.00</ele>
        <time>2018-09-08T22:36:00Z</time>
      </trkpt>
      <trkpt lat="-2.593475" lon="-78.782288">
        <ele>3178.00</ele>
        <time>2018-09-08T22:36:01Z</time>
      </trkpt>
      <trkpt lat="-2.593525" lon="-78.782211">
        <ele>3178.00</ele>
        <time>2018-09-08T22:36:02Z</time>
      </trkpt>
      <trkpt lat="-2.593593" lon="-78.782150">
        <ele>3178.00</ele>
        <time>2018-09-08T22:36:03Z</time>
      </trkpt>
      <trkpt lat="-2.593680" lon="-78.782097">
        <ele>3179.00</ele>
        <time>2018-09-08T22:36:04Z</time>
      </trkpt>
      <trkpt lat="-2.593776" lon="-78.782051">
        <ele>3179.00</ele>
        <time>2018-09-08T22:36:05Z</time>
      </trkpt>
      <trkpt lat="-2.593868" lon="-78.781998">
        <ele>3179.00</ele>
        <time>2018-09-08T22:36:06Z</time>
      </trkpt>
      <trkpt lat="-2.593947" lon="-78.781944">
        <ele>3180.00</ele>
        <time>2018-09-08T22:36:07Z</time>
      </trkpt>
      <trkpt lat="-2.594041" lon="-78.781929">
        <ele>3180.00</ele>
        <time>2018-09-08T22:36:08Z</time>
      </trkpt>
      <trkpt lat="-2.594132" lon="-78.781929">
        <ele>3180.00</ele>
        <time>2018-09-08T22:36:09Z</time>
      </trkpt>
      <trkpt lat="-2.594223" lon="-78.781914">
        <ele>3181.00</ele>
        <time>2018-09-08T22:36:10Z</time>
      </trkpt>
      <trkpt lat="-2.594311" lon="-78.781876">
        <ele>3181.00</ele>
        <time>2018-09-08T22:36:11Z</time>
      </trkpt>
      <trkpt lat="-2.594403" lon="-78.781822">
        <ele>3182.00</ele>
        <time>2018-09-08T22:36:12Z</time>
      </trkpt>
      <trkpt lat="-2.594499" lon="-78.781776">
        <ele>3182.00</ele>
        <time>2018-09-08T22:36:13Z</time>
      </trkpt>
      <trkpt lat="-2.594593" lon="-78.781746">
        <ele>3183.00</ele>
        <time>2018-09-08T22:36:14Z</time>
      </trkpt>
      <trkpt lat="-2.594679" lon="-78.781715">
        <ele>3183.00</ele>
        <time>2018-09-08T22:36:15Z</time>
      </trkpt>
      <trkpt lat="-2.594752" lon="-78.781670">
        <ele>3183.00</ele>
        <time>2018-09-08T22:36:16Z</time>
      </trkpt>
      <trkpt lat="-2.594809" lon="-78.781586">
        <ele>3184.00</ele>
        <time>2018-09-08T22:36:17Z</time>
      </trkpt>
      <trkpt lat="-2.594872" lon="-78.781502">
        <ele>3184.00</ele>
        <time>2018-09-08T22:36:18Z</time>
      </trkpt>
      <trkpt lat="-2.594959" lon="-78.781441">
        <ele>3184.00</ele>
        <time>2018-09-08T22:36:19Z</time>
      </trkpt>
      <trkpt lat="-2.595050" lon="-78.781395">
        <ele>3185.00</ele>
        <time>2018-09-08T22:36:20Z</time>
      </trkpt>
      <trkpt lat="-2.595143" lon="-78.781342">
        <ele>3185.00</ele>
        <time>2018-09-08T22:36:21Z</time>
      </trkpt>
      <trkpt lat="-2.595226" lon="-78.781288">
        <ele>3186.00</ele>
        <time>2018-09-08T22:36:22Z</time>
      </trkpt>
      <trkpt lat="-2.595337" lon="-78.781265">
        <ele>3186.00</ele>
        <time>2018-09-08T22:36:23Z</time>
      </trkpt>
      <trkpt lat="-2.595448" lon="-78.781235">
        <ele>3187.00</ele>
        <time>2018-09-08T22:36:24Z</time>
      </trkpt>
      <trkpt lat="-2.595543" lon="-78.781174">
        <ele>3188.00</ele>
        <time>2018-09-08T22:36:25Z</time>
      </trkpt>
      <trkpt lat="-2.595627" lon="-78.781105">
        <ele>3189.00</ele>
        <time>2018-09-08T22:36:26Z</time>
      </trkpt>
      <trkpt lat="-2.595721" lon="-78.781059">
        <ele>3190.00</ele>
        <time>2018-09-08T22:36:27Z</time>
      </trkpt>
      <trkpt lat="-2.595812" lon="-78.781036">
        <ele>3191.00</ele>
        <time>2018-09-08T22:36:28Z</time>
      </trkpt>
      <trkpt lat="-2.595907" lon="-78.781059">
        <ele>3192.00</ele>
        <time>2018-09-08T22:36:29Z</time>
      </trkpt>
      <trkpt lat="-2.596001" lon="-78.781082">
        <ele>3193.00</ele>
        <time>2018-09-08T22:36:30Z</time>
      </trkpt>
      <trkpt lat="-2.596087" lon="-78.781075">
        <ele>3194.00</ele>
        <time>2018-09-08T22:36:31Z</time>
      </trkpt>
      <trkpt lat="-2.596161" lon="-78.781029">
        <ele>3195.00</ele>
        <time>2018-09-08T22:36:32Z</time>
      </trkpt>
      <trkpt lat="-2.596226" lon="-78.780960">
        <ele>3196.00</ele>
        <time>2018-09-08T22:36:33Z</time>
      </trkpt>
      <trkpt lat="-2.596293" lon="-78.780899">
        <ele>3197.00</ele>
        <time>2018-09-08T22:36:34Z</time>
      </trkpt>
      <trkpt lat="-2.596372" lon="-78.780838">
        <ele>3198.00</ele>
        <time>2018-09-08T22:36:35Z</time>
      </trkpt>
      <trkpt lat="-2.596456" lon="-78.780785">
        <ele>3199.00</ele>
        <time>2018-09-08T22:36:36Z</time>
      </trkpt>
      <trkpt lat="-2.596541" lon="-78.780731">
        <ele>3200.00</ele>
        <time>2018-09-08T22:36:37Z</time>
      </trkpt>
      <trkpt lat="-2.596606" lon="-78.780701">
        <ele>3200.00</ele>
        <time>2018-09-08T22:36:38Z</time>
      </trkpt>
      <trkpt lat="-2.596636" lon="-78.780655">
        <ele>3201.00</ele>
        <time>2018-09-08T22:36:39Z</time>
      </trkpt>
      <trkpt lat="-2.596598" lon="-78.780594">
        <ele>3202.00</ele>
        <time>2018-09-08T22:36:40Z</time>
      </trkpt>
      <trkpt lat="-2.596526" lon="-78.780579">
        <ele>3204.00</ele>
        <time>2018-09-08T22:36:41Z</time>
      </trkpt>
      <trkpt lat="-2.596456" lon="-78.780594">
        <ele>3207.00</ele>
        <time>2018-09-08T22:36:42Z</time>
      </trkpt>
      <trkpt lat="-2.596381" lon="-78.780617">
        <ele>3209.00</ele>
        <time>2018-09-08T22:36:43Z</time>
      </trkpt>
      <trkpt lat="-2.596298" lon="-78.780617">
        <ele>3210.00</ele>
        <time>2018-09-08T22:36:44Z</time>
      </trkpt>
      <trkpt lat="-2.596219" lon="-78.780579">
        <ele>3211.00</ele>
        <time>2018-09-08T22:36:45Z</time>
      </trkpt>
      <trkpt lat="-2.596171" lon="-78.780518">
        <ele>3212.00</ele>
        <time>2018-09-08T22:36:46Z</time>
      </trkpt>
      <trkpt lat="-2.596132" lon="-78.780457">
        <ele>3214.00</ele>
        <time>2018-09-08T22:36:47Z</time>
      </trkpt>
      <trkpt lat="-2.596118" lon="-78.780380">
        <ele>3215.00</ele>
        <time>2018-09-08T22:36:48Z</time>
      </trkpt>
      <trkpt lat="-2.596116" lon="-78.780304">
        <ele>3216.00</ele>
        <time>2018-09-08T22:36:49Z</time>
      </trkpt>
      <trkpt lat="-2.596126" lon="-78.780228">
        <ele>3217.00</ele>
        <time>2018-09-08T22:36:50Z</time>
      </trkpt>
      <trkpt lat="-2.596151" lon="-78.780167">
        <ele>3219.00</ele>
        <time>2018-09-08T22:36:51Z</time>
      </trkpt>
      <trkpt lat="-2.596206" lon="-78.780144">
        <ele>3221.00</ele>
        <time>2018-09-08T22:36:52Z</time>
      </trkpt>
      <trkpt lat="-2.596260" lon="-78.780159">
        <ele>3224.00</ele>
        <time>2018-09-08T22:36:53Z</time>
      </trkpt>
      <trkpt lat="-2.596305" lon="-78.780197">
        <ele>3225.00</ele>
        <time>2018-09-08T22:36:54Z</time>
      </trkpt>
      <trkpt lat="-2.596363" lon="-78.780212">
        <ele>3227.00</ele>
        <time>2018-09-08T22:36:55Z</time>
      </trkpt>
      <trkpt lat="-2.596425" lon="-78.780212">
        <ele>3228.00</ele>
        <time>2018-09-08T22:36:56Z</time>
      </trkpt>
      <trkpt lat="-2.596478" lon="-78.780190">
        <ele>3228.00</ele>
        <time>2018-09-08T22:36:57Z</time>
      </trkpt>
      <trkpt lat="-2.596523" lon="-78.780121">
        <ele>3229.00</ele>
        <time>2018-09-08T22:36:58Z</time>
      </trkpt>
      <trkpt lat="-2.596531" lon="-78.780060">
        <ele>3229.00</ele>
        <time>2018-09-08T22:36:59Z</time>
      </trkpt>
      <trkpt lat="-2.596495" lon="-78.779991">
        <ele>3230.00</ele>
        <time>2018-09-08T22:37:00Z</time>
      </trkpt>
      <trkpt lat="-2.596440" lon="-78.779953">
        <ele>3231.00</ele>
        <time>2018-09-08T22:37:01Z</time>
      </trkpt>
      <trkpt lat="-2.596379" lon="-78.779915">
        <ele>3231.00</ele>
        <time>2018-09-08T22:37:02Z</time>
      </trkpt>
      <trkpt lat="-2.596317" lon="-78.779869">
        <ele>3232.00</ele>
        <time>2018-09-08T22:37:03Z</time>
      </trkpt>
      <trkpt lat="-2.596259" lon="-78.779808">
        <ele>3233.00</ele>
        <time>2018-09-08T22:37:04Z</time>
      </trkpt>
      <trkpt lat="-2.596218" lon="-78.779724">
        <ele>3235.00</ele>
        <time>2018-09-08T22:37:05Z</time>
      </trkpt>
      <trkpt lat="-2.596183" lon="-78.779633">
        <ele>3236.00</ele>
        <time>2018-09-08T22:37:06Z</time>
      </trkpt>
      <trkpt lat="-2.596133" lon="-78.779556">
        <ele>3237.00</ele>
        <time>2018-09-08T22:37:07Z</time>
      </trkpt>
      <trkpt lat="-2.596068" lon="-78.779488">
        <ele>3239.00</ele>
        <time>2018-09-08T22:37:08Z</time>
      </trkpt>
      <trkpt lat="-2.596001" lon="-78.779419">
        <ele>3241.00</ele>
        <time>2018-09-08T22:37:09Z</time>
      </trkpt>
      <trkpt lat="-2.595922" lon="-78.779358">
        <ele>3243.00</ele>
        <time>2018-09-08T22:37:10Z</time>
      </trkpt>
      <trkpt lat="-2.595846" lon="-78.779289">
        <ele>3246.00</ele>
        <time>2018-09-08T22:37:11Z</time>
      </trkpt>
      <trkpt lat="-2.595800" lon="-78.779198">
        <ele>3248.00</ele>
        <time>2018-09-08T22:37:12Z</time>
      </trkpt>
      <trkpt lat="-2.595786" lon="-78.779083">
        <ele>3250.00</ele>
        <time>2018-09-08T22:37:13Z</time>
      </trkpt>
      <trkpt lat="-2.595789" lon="-78.778976">
        <ele>3252.00</ele>
        <time>2018-09-08T22:37:14Z</time>
      </trkpt>
      <trkpt lat="-2.595809" lon="-78.778877">
        <ele>3255.00</ele>
        <time>2018-09-08T22:37:15Z</time>
      </trkpt>
      <trkpt lat="-2.595852" lon="-78.778786">
        <ele>3257.00</ele>
        <time>2018-09-08T22:37:16Z</time>
      </trkpt>
      <trkpt lat="-2.595910" lon="-78.778687">
        <ele>3260.00</ele>
        <time>2018-09-08T22:37:17Z</time>
      </trkpt>
      <trkpt lat="-2.595953" lon="-78.778595">
        <ele>3262.00</ele>
        <time>2018-09-08T22:37:18Z</time>
      </trkpt>
      <trkpt lat="-2.596000" lon="-78.778519">
        <ele>3264.00</ele>
        <time>2018-09-08T22:37:19Z</time>
      </trkpt>
      <trkpt lat="-2.596073" lon="-78.778473">
        <ele>3266.00</ele>
        <time>2018-09-08T22:37:20Z</time>
      </trkpt>
      <trkpt lat="-2.596161" lon="-78.778473">
        <ele>3268.00</ele>
        <time>2018-09-08T22:37:21Z</time>
      </trkpt>
      <trkpt lat="-2.596235" lon="-78.778503">
        <ele>3269.00</ele>
        <time>2018-09-08T22:37:22Z</time>
      </trkpt>
      <trkpt lat="-2.596314" lon="-78.778519">
        <ele>3270.00</ele>
        <time>2018-09-08T22:37:23Z</time>
      </trkpt>
      <trkpt lat="-2.596394" lon="-78.778557">
        <ele>3271.00</ele>
        <time>2018-09-08T22:37:24Z</time>
      </trkpt>
      <trkpt lat="-2.596470" lon="-78.778603">
        <ele>3272.00</ele>
        <time>2018-09-08T22:37:25Z</time>
      </trkpt>
      <trkpt lat="-2.596541" lon="-78.778664">
        <ele>3273.00</ele>
        <time>2018-09-08T22:37:26Z</time>
      </trkpt>
      <trkpt lat="-2.596628" lon="-78.778702">
        <ele>3274.00</ele>
        <time>2018-09-08T22:37:27Z</time>
      </trkpt>
      <trkpt lat="-2.596720" lon="-78.778740">
        <ele>3274.00</ele>
        <time>2018-09-08T22:37:28Z</time>
      </trkpt>
      <trkpt lat="-2.596824" lon="-78.778748">
        <ele>3274.00</ele>
        <time>2018-09-08T22:37:29Z</time>
      </trkpt>
      <trkpt lat="-2.596924" lon="-78.778740">
        <ele>3275.00</ele>
        <time>2018-09-08T22:37:30Z</time>
      </trkpt>
      <trkpt lat="-2.597006" lon="-78.778732">
        <ele>3275.00</ele>
        <time>2018-09-08T22:37:31Z</time>
      </trkpt>
      <trkpt lat="-2.597059" lon="-78.778732">
        <ele>3275.00</ele>
        <time>2018-09-08T22:37:32Z</time>
      </trkpt>
      <trkpt lat="-2.597078" lon="-78.778732">
        <ele>3275.00</ele>
        <time>2018-09-08T22:37:33Z</time>
      </trkpt>
      <trkpt lat="-2.597078" lon="-78.778732">
        <ele>3275.00</ele>
        <time>2018-09-08T22:37:34Z</time>
      </trkpt>
      <trkpt lat="-2.597078" lon="-78.778732">
        <ele>3276.00</ele>
        <time>2018-09-08T22:37:35Z</time>
      </trkpt>
      <trkpt lat="-2.597078" lon="-78.778732">
        <ele>3277.00</ele>
        <time>2018-09-08T22:37:36Z</time>
      </trkpt>
      <trkpt lat="-2.597004" lon="-78.778717">
        <ele>3277.00</ele>
        <time>2018-09-08T22:37:37Z</time>
      </trkpt>
      <trkpt lat="-2.597004" lon="-78.778717">
        <ele>3277.00</ele>
        <time>2018-09-08T22:37:38Z</time>
      </trkpt>
      <trkpt lat="-2.597004" lon="-78.778717">
        <ele>3277.00</ele>
        <time>2018-09-08T22:37:39Z</time>
      </trkpt>
      <trkpt lat="-2.596873" lon="-78.778687">
        <ele>3277.00</ele>
        <time>2018-09-08T22:37:40Z</time>
      </trkpt>
      <trkpt lat="-2.596837" lon="-78.778664">
        <ele>3278.00</ele>
        <time>2018-09-08T22:37:41Z</time>
      </trkpt>
      <trkpt lat="-2.596837" lon="-78.778664">
        <ele>3278.00</ele>
        <time>2018-09-08T22:37:42Z</time>
      </trkpt>
      <trkpt lat="-2.596773" lon="-78.778572">
        <ele>3278.00</ele>
        <time>2018-09-08T22:37:43Z</time>
      </trkpt>
      <trkpt lat="-2.596742" lon="-78.778496">
        <ele>3279.00</ele>
        <time>2018-09-08T22:37:44Z</time>
      </trkpt>
      <trkpt lat="-2.596686" lon="-78.778435">
        <ele>3279.00</ele>
        <time>2018-09-08T22:37:45Z</time>
      </trkpt>
      <trkpt lat="-2.596626" lon="-78.778397">
        <ele>3279.00</ele>
        <time>2018-09-08T22:37:46Z</time>
      </trkpt>
      <trkpt lat="-2.596590" lon="-78.778389">
        <ele>3283.00</ele>
        <time>2018-09-08T22:37:47Z</time>
      </trkpt>
      <trkpt lat="-2.596355" lon="-78.778275">
        <ele>3286.00</ele>
        <time>2018-09-08T22:37:48Z</time>
      </trkpt>
      <trkpt lat="-2.596188" lon="-78.778206">
        <ele>3288.00</ele>
        <time>2018-09-08T22:37:49Z</time>
      </trkpt>
      <trkpt lat="-2.596038" lon="-78.778130">
        <ele>3290.00</ele>
        <time>2018-09-08T22:37:50Z</time>
      </trkpt>
      <trkpt lat="-2.595921" lon="-78.778061">
        <ele>3292.00</ele>
        <time>2018-09-08T22:37:51Z</time>
      </trkpt>
      <trkpt lat="-2.595777" lon="-78.777939">
        <ele>3294.00</ele>
        <time>2018-09-08T22:37:52Z</time>
      </trkpt>
      <trkpt lat="-2.595663" lon="-78.777832">
        <ele>3296.00</ele>
        <time>2018-09-08T22:37:53Z</time>
      </trkpt>
      <trkpt lat="-2.595567" lon="-78.777748">
        <ele>3298.00</ele>
        <time>2018-09-08T22:37:54Z</time>
      </trkpt>
      <trkpt lat="-2.595479" lon="-78.777664">
        <ele>3301.00</ele>
        <time>2018-09-08T22:37:55Z</time>
      </trkpt>
      <trkpt lat="-2.595411" lon="-78.777580">
        <ele>3303.00</ele>
        <time>2018-09-08T22:37:56Z</time>
      </trkpt>
      <trkpt lat="-2.595359" lon="-78.777496">
        <ele>3305.00</ele>
        <time>2018-09-08T22:37:57Z</time>
      </trkpt>
      <trkpt lat="-2.595321" lon="-78.777397">
        <ele>3307.00</ele>
        <time>2018-09-08T22:37:58Z</time>
      </trkpt>
      <trkpt lat="-2.595312" lon="-78.777321">
        <ele>3308.00</ele>
        <time>2018-09-08T22:37:59Z</time>
      </trkpt>
      <trkpt lat="-2.595352" lon="-78.777260">
        <ele>3310.00</ele>
        <time>2018-09-08T22:38:00Z</time>
      </trkpt>
      <trkpt lat="-2.595433" lon="-78.777237">
        <ele>3312.00</ele>
        <time>2018-09-08T22:38:01Z</time>
      </trkpt>
      <trkpt lat="-2.595516" lon="-78.777206">
        <ele>3315.00</ele>
        <time>2018-09-08T22:38:02Z</time>
      </trkpt>
      <trkpt lat="-2.595609" lon="-78.777176">
        <ele>3317.00</ele>
        <time>2018-09-08T22:38:03Z</time>
      </trkpt>
      <trkpt lat="-2.595706" lon="-78.777138">
        <ele>3320.00</ele>
        <time>2018-09-08T22:38:04Z</time>
      </trkpt>
      <trkpt lat="-2.595809" lon="-78.777115">
        <ele>3321.00</ele>
        <time>2018-09-08T22:38:05Z</time>
      </trkpt>
      <trkpt lat="-2.595918" lon="-78.777115">
        <ele>3323.00</ele>
        <time>2018-09-08T22:38:06Z</time>
      </trkpt>
      <trkpt lat="-2.596022" lon="-78.777145">
        <ele>3324.00</ele>
        <time>2018-09-08T22:38:07Z</time>
      </trkpt>
      <trkpt lat="-2.596122" lon="-78.777176">
        <ele>3325.00</ele>
        <time>2018-09-08T22:38:08Z</time>
      </trkpt>
      <trkpt lat="-2.596213" lon="-78.777176">
        <ele>3326.00</ele>
        <time>2018-09-08T22:38:09Z</time>
      </trkpt>
      <trkpt lat="-2.596298" lon="-78.777145">
        <ele>3327.00</ele>
        <time>2018-09-08T22:38:10Z</time>
      </trkpt>
      <trkpt lat="-2.596385" lon="-78.777115">
        <ele>3329.00</ele>
        <time>2018-09-08T22:38:11Z</time>
      </trkpt>
      <trkpt lat="-2.596450" lon="-78.777069">
        <ele>3330.00</ele>
        <time>2018-09-08T22:38:12Z</time>
      </trkpt>
      <trkpt lat="-2.596486" lon="-78.777016">
        <ele>3332.00</ele>
        <time>2018-09-08T22:38:13Z</time>
      </trkpt>
      <trkpt lat="-2.596461" lon="-78.776955">
        <ele>3333.00</ele>
        <time>2018-09-08T22:38:14Z</time>
      </trkpt>
      <trkpt lat="-2.596409" lon="-78.776917">
        <ele>3335.00</ele>
        <time>2018-09-08T22:38:15Z</time>
      </trkpt>
      <trkpt lat="-2.596330" lon="-78.776886">
        <ele>3337.00</ele>
        <time>2018-09-08T22:38:16Z</time>
      </trkpt>
      <trkpt lat="-2.596243" lon="-78.776855">
        <ele>3339.00</ele>
        <time>2018-09-08T22:38:17Z</time>
      </trkpt>
      <trkpt lat="-2.596154" lon="-78.776810">
        <ele>3341.00</ele>
        <time>2018-09-08T22:38:18Z</time>
      </trkpt>
      <trkpt lat="-2.596076" lon="-78.776749">
        <ele>3343.00</ele>
        <time>2018-09-08T22:38:19Z</time>
      </trkpt>
      <trkpt lat="-2.596009" lon="-78.776672">
        <ele>3345.00</ele>
        <time>2018-09-08T22:38:20Z</time>
      </trkpt>
      <trkpt lat="-2.595951" lon="-78.776611">
        <ele>3347.00</ele>
        <time>2018-09-08T22:38:21Z</time>
      </trkpt>
      <trkpt lat="-2.595895" lon="-78.776543">
        <ele>3349.00</ele>
        <time>2018-09-08T22:38:22Z</time>
      </trkpt>
      <trkpt lat="-2.595842" lon="-78.776459">
        <ele>3351.00</ele>
        <time>2018-09-08T22:38:23Z</time>
      </trkpt>
      <trkpt lat="-2.595798" lon="-78.776367">
        <ele>3354.00</ele>
        <time>2018-09-08T22:38:24Z</time>
      </trkpt>
      <trkpt lat="-2.595767" lon="-78.776268">
        <ele>3357.00</ele>
        <time>2018-09-08T22:38:25Z</time>
      </trkpt>
      <trkpt lat="-2.595743" lon="-78.776161">
        <ele>3360.00</ele>
        <time>2018-09-08T22:38:26Z</time>
      </trkpt>
      <trkpt lat="-2.595724" lon="-78.776039">
        <ele>3363.00</ele>
        <time>2018-09-08T22:38:27Z</time>
      </trkpt>
      <trkpt lat="-2.595711" lon="-78.775917">
        <ele>3365.00</ele>
        <time>2018-09-08T22:38:28Z</time>
      </trkpt>
      <trkpt lat="-2.595703" lon="-78.775795">
        <ele>3368.00</ele>
        <time>2018-09-08T22:38:29Z</time>
      </trkpt>
      <trkpt lat="-2.595702" lon="-78.775681">
        <ele>3370.00</ele>
        <time>2018-09-08T22:38:30Z</time>
      </trkpt>
      <trkpt lat="-2.595700" lon="-78.775566">
        <ele>3372.00</ele>
        <time>2018-09-08T22:38:31Z</time>
      </trkpt>
      <trkpt lat="-2.595698" lon="-78.775459">
        <ele>3374.00</ele>
        <time>2018-09-08T22:38:32Z</time>
      </trkpt>
      <trkpt lat="-2.595706" lon="-78.775345">
        <ele>3375.00</ele>
        <time>2018-09-08T22:38:33Z</time>
      </trkpt>
      <trkpt lat="-2.595726" lon="-78.775238">
        <ele>3377.00</ele>
        <time>2018-09-08T22:38:34Z</time>
      </trkpt>
      <trkpt lat="-2.595732" lon="-78.775124">
        <ele>3378.00</ele>
        <time>2018-09-08T22:38:35Z</time>
      </trkpt>
      <trkpt lat="-2.595742" lon="-78.775017">
        <ele>3380.00</ele>
        <time>2018-09-08T22:38:36Z</time>
      </trkpt>
      <trkpt lat="-2.595752" lon="-78.774910">
        <ele>3382.00</ele>
        <time>2018-09-08T22:38:37Z</time>
      </trkpt>
      <trkpt lat="-2.595774" lon="-78.774811">
        <ele>3384.00</ele>
        <time>2018-09-08T22:38:38Z</time>
      </trkpt>
      <trkpt lat="-2.595811" lon="-78.774704">
        <ele>3386.00</ele>
        <time>2018-09-08T22:38:39Z</time>
      </trkpt>
      <trkpt lat="-2.595855" lon="-78.774597">
        <ele>3388.00</ele>
        <time>2018-09-08T22:38:40Z</time>
      </trkpt>
      <trkpt lat="-2.595905" lon="-78.774498">
        <ele>3390.00</ele>
        <time>2018-09-08T22:38:41Z</time>
      </trkpt>
      <trkpt lat="-2.595963" lon="-78.774406">
        <ele>3392.00</ele>
        <time>2018-09-08T22:38:42Z</time>
      </trkpt>
      <trkpt lat="-2.596018" lon="-78.774323">
        <ele>3394.00</ele>
        <time>2018-09-08T22:38:43Z</time>
      </trkpt>
      <trkpt lat="-2.596071" lon="-78.774239">
        <ele>3397.00</ele>
        <time>2018-09-08T22:38:44Z</time>
      </trkpt>
      <trkpt lat="-2.596123" lon="-78.774155">
        <ele>3399.00</ele>
        <time>2018-09-08T22:38:45Z</time>
      </trkpt>
      <trkpt lat="-2.596172" lon="-78.774078">
        <ele>3401.00</ele>
        <time>2018-09-08T22:38:46Z</time>
      </trkpt>
      <trkpt lat="-2.596224" lon="-78.774010">
        <ele>3404.00</ele>
        <time>2018-09-08T22:38:47Z</time>
      </trkpt>
      <trkpt lat="-2.596284" lon="-78.773941">
        <ele>3406.00</ele>
        <time>2018-09-08T22:38:48Z</time>
      </trkpt>
      <trkpt lat="-2.596349" lon="-78.773872">
        <ele>3408.00</ele>
        <time>2018-09-08T22:38:49Z</time>
      </trkpt>
      <trkpt lat="-2.596421" lon="-78.773834">
        <ele>3410.00</ele>
        <time>2018-09-08T22:38:50Z</time>
      </trkpt>
      <trkpt lat="-2.596494" lon="-78.773788">
        <ele>3411.00</ele>
        <time>2018-09-08T22:38:51Z</time>
      </trkpt>
      <trkpt lat="-2.596570" lon="-78.773766">
        <ele>3413.00</ele>
        <time>2018-09-08T22:38:52Z</time>
      </trkpt>
      <trkpt lat="-2.596642" lon="-78.773743">
        <ele>3414.00</ele>
        <time>2018-09-08T22:38:53Z</time>
      </trkpt>
      <trkpt lat="-2.596698" lon="-78.773689">
        <ele>3415.00</ele>
        <time>2018-09-08T22:38:54Z</time>
      </trkpt>
      <trkpt lat="-2.596704" lon="-78.773621">
        <ele>3416.00</ele>
        <time>2018-09-08T22:38:55Z</time>
      </trkpt>
      <trkpt lat="-2.596692" lon="-78.773544">
        <ele>3417.00</ele>
        <time>2018-09-08T22:38:56Z</time>
      </trkpt>
      <trkpt lat="-2.596639" lon="-78.773491">
        <ele>3418.00</ele>
        <time>2018-09-08T22:38:57Z</time>
      </trkpt>
      <trkpt lat="-2.596595" lon="-78.773438">
        <ele>3419.00</ele>
        <time>2018-09-08T22:38:58Z</time>
      </trkpt>
      <trkpt lat="-2.596571" lon="-78.773369">
        <ele>3419.00</ele>
        <time>2018-09-08T22:38:59Z</time>
      </trkpt>
      <trkpt lat="-2.596566" lon="-78.773300">
        <ele>3420.00</ele>
        <time>2018-09-08T22:39:00Z</time>
      </trkpt>
      <trkpt lat="-2.596611" lon="-78.773224">
        <ele>3421.00</ele>
        <time>2018-09-08T22:39:01Z</time>
      </trkpt>
      <trkpt lat="-2.596654" lon="-78.773155">
        <ele>3421.00</ele>
        <time>2018-09-08T22:39:02Z</time>
      </trkpt>
      <trkpt lat="-2.596699" lon="-78.773087">
        <ele>3422.00</ele>
        <time>2018-09-08T22:39:03Z</time>
      </trkpt>
      <trkpt lat="-2.596744" lon="-78.773003">
        <ele>3423.00</ele>
        <time>2018-09-08T22:39:04Z</time>
      </trkpt>
      <trkpt lat="-2.596790" lon="-78.772926">
        <ele>3425.00</ele>
        <time>2018-09-08T22:39:05Z</time>
      </trkpt>
      <trkpt lat="-2.596838" lon="-78.772835">
        <ele>3427.00</ele>
        <time>2018-09-08T22:39:06Z</time>
      </trkpt>
      <trkpt lat="-2.596888" lon="-78.772743">
        <ele>3430.00</ele>
        <time>2018-09-08T22:39:07Z</time>
      </trkpt>
      <trkpt lat="-2.596935" lon="-78.772659">
        <ele>3432.00</ele>
        <time>2018-09-08T22:39:08Z</time>
      </trkpt>
      <trkpt lat="-2.596977" lon="-78.772568">
        <ele>3434.00</ele>
        <time>2018-09-08T22:39:09Z</time>
      </trkpt>
      <trkpt lat="-2.597008" lon="-78.772491">
        <ele>3436.00</ele>
        <time>2018-09-08T22:39:10Z</time>
      </trkpt>
      <trkpt lat="-2.596992" lon="-78.772385">
        <ele>3438.00</ele>
        <time>2018-09-08T22:39:11Z</time>
      </trkpt>
      <trkpt lat="-2.596955" lon="-78.772285">
        <ele>3439.00</ele>
        <time>2018-09-08T22:39:12Z</time>
      </trkpt>
      <trkpt lat="-2.596910" lon="-78.772194">
        <ele>3440.00</ele>
        <time>2018-09-08T22:39:13Z</time>
      </trkpt>
      <trkpt lat="-2.596871" lon="-78.772118">
        <ele>3441.00</ele>
        <time>2018-09-08T22:39:14Z</time>
      </trkpt>
      <trkpt lat="-2.596846" lon="-78.772072">
        <ele>3442.00</ele>
        <time>2018-09-08T22:39:15Z</time>
      </trkpt>
      <trkpt lat="-2.596852" lon="-78.772034">
        <ele>3442.00</ele>
        <time>2018-09-08T22:39:16Z</time>
      </trkpt>
      <trkpt lat="-2.596883" lon="-78.772011">
        <ele>3443.00</ele>
        <time>2018-09-08T22:39:17Z</time>
      </trkpt>
      <trkpt lat="-2.596934" lon="-78.772003">
        <ele>3444.00</ele>
        <time>2018-09-08T22:39:18Z</time>
      </trkpt>
      <trkpt lat="-2.596993" lon="-78.772011">
        <ele>3444.00</ele>
        <time>2018-09-08T22:39:19Z</time>
      </trkpt>
      <trkpt lat="-2.597050" lon="-78.772034">
        <ele>3445.00</ele>
        <time>2018-09-08T22:39:20Z</time>
      </trkpt>
      <trkpt lat="-2.597106" lon="-78.772064">
        <ele>3446.00</ele>
        <time>2018-09-08T22:39:21Z</time>
      </trkpt>
      <trkpt lat="-2.597149" lon="-78.772095">
        <ele>3447.00</ele>
        <time>2018-09-08T22:39:22Z</time>
      </trkpt>
      <trkpt lat="-2.597193" lon="-78.772141">
        <ele>3447.00</ele>
        <time>2018-09-08T22:39:23Z</time>
      </trkpt>
      <trkpt lat="-2.597239" lon="-78.772202">
        <ele>3448.00</ele>
        <time>2018-09-08T22:39:24Z</time>
      </trkpt>
      <trkpt lat="-2.597295" lon="-78.772270">
        <ele>3449.00</ele>
        <time>2018-09-08T22:39:25Z</time>
      </trkpt>
      <trkpt lat="-2.597352" lon="-78.772354">
        <ele>3449.00</ele>
        <time>2018-09-08T22:39:26Z</time>
      </trkpt>
      <trkpt lat="-2.597409" lon="-78.772453">
        <ele>3450.00</ele>
        <time>2018-09-08T22:39:27Z</time>
      </trkpt>
      <trkpt lat="-2.597469" lon="-78.772560">
        <ele>3451.00</ele>
        <time>2018-09-08T22:39:28Z</time>
      </trkpt>
      <trkpt lat="-2.597526" lon="-78.772667">
        <ele>3452.00</ele>
        <time>2018-09-08T22:39:29Z</time>
      </trkpt>
      <trkpt lat="-2.597576" lon="-78.772774">
        <ele>3452.00</ele>
        <time>2018-09-08T22:39:30Z</time>
      </trkpt>
      <trkpt lat="-2.597623" lon="-78.772873">
        <ele>3453.00</ele>
        <time>2018-09-08T22:39:31Z</time>
      </trkpt>
      <trkpt lat="-2.597672" lon="-78.772949">
        <ele>3454.00</ele>
        <time>2018-09-08T22:39:32Z</time>
      </trkpt>
      <trkpt lat="-2.597724" lon="-78.773026">
        <ele>3455.00</ele>
        <time>2018-09-08T22:39:33Z</time>
      </trkpt>
      <trkpt lat="-2.597788" lon="-78.773094">
        <ele>3456.00</ele>
        <time>2018-09-08T22:39:34Z</time>
      </trkpt>
      <trkpt lat="-2.597885" lon="-78.773148">
        <ele>3455.00</ele>
        <time>2018-09-08T22:39:35Z</time>
      </trkpt>
      <trkpt lat="-2.598004" lon="-78.773186">
        <ele>3454.00</ele>
        <time>2018-09-08T22:39:36Z</time>
      </trkpt>
      <trkpt lat="-2.598125" lon="-78.773209">
        <ele>3453.00</ele>
        <time>2018-09-08T22:39:37Z</time>
      </trkpt>
      <trkpt lat="-2.598231" lon="-78.773247">
        <ele>3453.00</ele>
        <time>2018-09-08T22:39:38Z</time>
      </trkpt>
      <trkpt lat="-2.598332" lon="-78.773277">
        <ele>3453.00</ele>
        <time>2018-09-08T22:39:39Z</time>
      </trkpt>
      <trkpt lat="-2.598437" lon="-78.773308">
        <ele>3452.00</ele>
        <time>2018-09-08T22:39:40Z</time>
      </trkpt>
      <trkpt lat="-2.598552" lon="-78.773331">
        <ele>3452.00</ele>
        <time>2018-09-08T22:39:41Z</time>
      </trkpt>
      <trkpt lat="-2.598676" lon="-78.773346">
        <ele>3452.00</ele>
        <time>2018-09-08T22:39:42Z</time>
      </trkpt>
      <trkpt lat="-2.598803" lon="-78.773361">
        <ele>3452.00</ele>
        <time>2018-09-08T22:39:43Z</time>
      </trkpt>
      <trkpt lat="-2.598924" lon="-78.773384">
        <ele>3452.00</ele>
        <time>2018-09-08T22:39:44Z</time>
      </trkpt>
      <trkpt lat="-2.599045" lon="-78.773415">
        <ele>3453.00</ele>
        <time>2018-09-08T22:39:45Z</time>
      </trkpt>
      <trkpt lat="-2.599160" lon="-78.773430">
        <ele>3453.00</ele>
        <time>2018-09-08T22:39:46Z</time>
      </trkpt>
      <trkpt lat="-2.599270" lon="-78.773430">
        <ele>3454.00</ele>
        <time>2018-09-08T22:39:47Z</time>
      </trkpt>
      <trkpt lat="-2.599377" lon="-78.773438">
        <ele>3454.00</ele>
        <time>2018-09-08T22:39:48Z</time>
      </trkpt>
      <trkpt lat="-2.599481" lon="-78.773460">
        <ele>3454.00</ele>
        <time>2018-09-08T22:39:49Z</time>
      </trkpt>
      <trkpt lat="-2.599580" lon="-78.773476">
        <ele>3455.00</ele>
        <time>2018-09-08T22:39:50Z</time>
      </trkpt>
      <trkpt lat="-2.599685" lon="-78.773514">
        <ele>3455.00</ele>
        <time>2018-09-08T22:39:51Z</time>
      </trkpt>
      <trkpt lat="-2.599786" lon="-78.773582">
        <ele>3455.00</ele>
        <time>2018-09-08T22:39:52Z</time>
      </trkpt>
      <trkpt lat="-2.599890" lon="-78.773682">
        <ele>3455.00</ele>
        <time>2018-09-08T22:39:53Z</time>
      </trkpt>
      <trkpt lat="-2.599981" lon="-78.773788">
        <ele>3455.00</ele>
        <time>2018-09-08T22:39:54Z</time>
      </trkpt>
      <trkpt lat="-2.600047" lon="-78.773903">
        <ele>3456.00</ele>
        <time>2018-09-08T22:39:55Z</time>
      </trkpt>
      <trkpt lat="-2.600097" lon="-78.774010">
        <ele>3456.00</ele>
        <time>2018-09-08T22:39:56Z</time>
      </trkpt>
      <trkpt lat="-2.600142" lon="-78.774117">
        <ele>3456.00</ele>
        <time>2018-09-08T22:39:57Z</time>
      </trkpt>
      <trkpt lat="-2.600193" lon="-78.774216">
        <ele>3457.00</ele>
        <time>2018-09-08T22:39:58Z</time>
      </trkpt>
      <trkpt lat="-2.600250" lon="-78.774323">
        <ele>3457.00</ele>
        <time>2018-09-08T22:39:59Z</time>
      </trkpt>
      <trkpt lat="-2.600310" lon="-78.774414">
        <ele>3457.00</ele>
        <time>2018-09-08T22:40:00Z</time>
      </trkpt>
      <trkpt lat="-2.600365" lon="-78.774506">
        <ele>3457.00</ele>
        <time>2018-09-08T22:40:01Z</time>
      </trkpt>
      <trkpt lat="-2.600436" lon="-78.774590">
        <ele>3458.00</ele>
        <time>2018-09-08T22:40:02Z</time>
      </trkpt>
      <trkpt lat="-2.600541" lon="-78.774666">
        <ele>3458.00</ele>
        <time>2018-09-08T22:40:03Z</time>
      </trkpt>
      <trkpt lat="-2.600654" lon="-78.774734">
        <ele>3459.00</ele>
        <time>2018-09-08T22:40:04Z</time>
      </trkpt>
      <trkpt lat="-2.600769" lon="-78.774811">
        <ele>3459.00</ele>
        <time>2018-09-08T22:40:05Z</time>
      </trkpt>
      <trkpt lat="-2.600879" lon="-78.774887">
        <ele>3460.00</ele>
        <time>2018-09-08T22:40:06Z</time>
      </trkpt>
      <trkpt lat="-2.600981" lon="-78.774971">
        <ele>3460.00</ele>
        <time>2018-09-08T22:40:07Z</time>
      </trkpt>
      <trkpt lat="-2.601099" lon="-78.775040">
        <ele>3461.00</ele>
        <time>2018-09-08T22:40:08Z</time>
      </trkpt>
      <trkpt lat="-2.601223" lon="-78.775093">
        <ele>3461.00</ele>
        <time>2018-09-08T22:40:09Z</time>
      </trkpt>
      <trkpt lat="-2.601356" lon="-78.775154">
        <ele>3462.00</ele>
        <time>2018-09-08T22:40:10Z</time>
      </trkpt>
      <trkpt lat="-2.601484" lon="-78.775215">
        <ele>3462.00</ele>
        <time>2018-09-08T22:40:11Z</time>
      </trkpt>
      <trkpt lat="-2.601598" lon="-78.775269">
        <ele>3463.00</ele>
        <time>2018-09-08T22:40:12Z</time>
      </trkpt>
      <trkpt lat="-2.601695" lon="-78.775330">
        <ele>3463.00</ele>
        <time>2018-09-08T22:40:13Z</time>
      </trkpt>
      <trkpt lat="-2.601771" lon="-78.775398">
        <ele>3463.00</ele>
        <time>2018-09-08T22:40:14Z</time>
      </trkpt>
      <trkpt lat="-2.601849" lon="-78.775467">
        <ele>3463.00</ele>
        <time>2018-09-08T22:40:15Z</time>
      </trkpt>
      <trkpt lat="-2.601932" lon="-78.775543">
        <ele>3463.00</ele>
        <time>2018-09-08T22:40:16Z</time>
      </trkpt>
      <trkpt lat="-2.602026" lon="-78.775635">
        <ele>3464.00</ele>
        <time>2018-09-08T22:40:17Z</time>
      </trkpt>
      <trkpt lat="-2.602118" lon="-78.775742">
        <ele>3464.00</ele>
        <time>2018-09-08T22:40:18Z</time>
      </trkpt>
      <trkpt lat="-2.602198" lon="-78.775856">
        <ele>3464.00</ele>
        <time>2018-09-08T22:40:19Z</time>
      </trkpt>
      <trkpt lat="-2.602269" lon="-78.775955">
        <ele>3464.00</ele>
        <time>2018-09-08T22:40:20Z</time>
      </trkpt>
      <trkpt lat="-2.602336" lon="-78.776047">
        <ele>3465.00</ele>
        <time>2018-09-08T22:40:21Z</time>
      </trkpt>
      <trkpt lat="-2.602397" lon="-78.776123">
        <ele>3465.00</ele>
        <time>2018-09-08T22:40:22Z</time>
      </trkpt>
      <trkpt lat="-2.602442" lon="-78.776199">
        <ele>3465.00</ele>
        <time>2018-09-08T22:40:23Z</time>
      </trkpt>
      <trkpt lat="-2.602476" lon="-78.776260">
        <ele>3466.00</ele>
        <time>2018-09-08T22:40:24Z</time>
      </trkpt>
      <trkpt lat="-2.602504" lon="-78.776314">
        <ele>3466.00</ele>
        <time>2018-09-08T22:40:25Z</time>
      </trkpt>
      <trkpt lat="-2.602535" lon="-78.776375">
        <ele>3466.00</ele>
        <time>2018-09-08T22:40:26Z</time>
      </trkpt>
      <trkpt lat="-2.602565" lon="-78.776428">
        <ele>3467.00</ele>
        <time>2018-09-08T22:40:27Z</time>
      </trkpt>
      <trkpt lat="-2.602590" lon="-78.776482">
        <ele>3467.00</ele>
        <time>2018-09-08T22:40:28Z</time>
      </trkpt>
      <trkpt lat="-2.602610" lon="-78.776512">
        <ele>3467.00</ele>
        <time>2018-09-08T22:40:29Z</time>
      </trkpt>
      <trkpt lat="-2.602630" lon="-78.776543">
        <ele>3467.00</ele>
        <time>2018-09-08T22:40:30Z</time>
      </trkpt>
      <trkpt lat="-2.602646" lon="-78.776566">
        <ele>3467.00</ele>
        <time>2018-09-08T22:40:31Z</time>
      </trkpt>
      <trkpt lat="-2.602658" lon="-78.776581">
        <ele>3467.00</ele>
        <time>2018-09-08T22:40:32Z</time>
      </trkpt>
      <trkpt lat="-2.602658" lon="-78.776581">
        <ele>3467.00</ele>
        <time>2018-09-08T22:40:33Z</time>
      </trkpt>
      <trkpt lat="-2.602658" lon="-78.776581">
        <ele>3467.00</ele>
        <time>2018-09-08T22:40:34Z</time>
      </trkpt>
      <trkpt lat="-2.602658" lon="-78.776581">
        <ele>3467.00</ele>
        <time>2018-09-08T22:40:35Z</time>
      </trkpt>
      <trkpt lat="-2.602658" lon="-78.776581">
        <ele>3467.00</ele>
        <time>2018-09-08T22:40:36Z</time>
      </trkpt>
      <trkpt lat="-2.602658" lon="-78.776581">
        <ele>3467.00</ele>
        <time>2018-09-08T22:40:37Z</time>
      </trkpt>
      <trkpt lat="-2.602658" lon="-78.776581">
        <ele>3467.00</ele>
        <time>2018-09-08T22:40:38Z</time>
      </trkpt>
      <trkpt lat="-2.602658" lon="-78.776581">
        <ele>3467.00</ele>
        <time>2018-09-08T22:40:39Z</time>
      </trkpt>
      <trkpt lat="-2.602658" lon="-78.776581">
        <ele>3467.00</ele>
        <time>2018-09-08T22:40:40Z</time>
      </trkpt>
      <trkpt lat="-2.602658" lon="-78.776581">
        <ele>3467.00</ele>
        <time>2018-09-08T22:40:41Z</time>
      </trkpt>
      <trkpt lat="-2.602658" lon="-78.776581">
        <ele>3467.00</ele>
        <time>2018-09-08T22:40:42Z</time>
      </trkpt>
      <trkpt lat="-2.602658" lon="-78.776581">
        <ele>3467.00</ele>
        <time>2018-09-08T22:40:43Z</time>
      </trkpt>
      <trkpt lat="-2.602658" lon="-78.776581">
        <ele>3467.00</ele>
        <time>2018-09-08T22:40:44Z</time>
      </trkpt>
      <trkpt lat="-2.602658" lon="-78.776581">
        <ele>3467.00</ele>
        <time>2018-09-08T22:40:45Z</time>
      </trkpt>
      <trkpt lat="-2.602658" lon="-78.776581">
        <ele>3467.00</ele>
        <time>2018-09-08T22:40:46Z</time>
      </trkpt>
      <trkpt lat="-2.602658" lon="-78.776581">
        <ele>3467.00</ele>
        <time>2018-09-08T22:40:47Z</time>
      </trkpt>
      <trkpt lat="-2.602658" lon="-78.776581">
        <ele>3467.00</ele>
        <time>2018-09-08T22:40:48Z</time>
      </trkpt>
      <trkpt lat="-2.602658" lon="-78.776581">
        <ele>3467.00</ele>
        <time>2018-09-08T22:40:49Z</time>
      </trkpt>
      <trkpt lat="-2.602658" lon="-78.776581">
        <ele>3467.00</ele>
        <time>2018-09-08T22:40:50Z</time>
      </trkpt>
      <trkpt lat="-2.602658" lon="-78.776581">
        <ele>3467.00</ele>
        <time>2018-09-08T22:40:51Z</time>
      </trkpt>
      <trkpt lat="-2.602658" lon="-78.776581">
        <ele>3467.00</ele>
        <time>2018-09-08T22:40:52Z</time>
      </trkpt>
      <trkpt lat="-2.602658" lon="-78.776581">
        <ele>3467.00</ele>
        <time>2018-09-08T22:40:53Z</time>
      </trkpt>
      <trkpt lat="-2.602658" lon="-78.776581">
        <ele>3467.00</ele>
        <time>2018-09-08T22:40:54Z</time>
      </trkpt>
      <trkpt lat="-2.602658" lon="-78.776581">
        <ele>3467.00</ele>
        <time>2018-09-08T22:40:55Z</time>
      </trkpt>
      <trkpt lat="-2.602658" lon="-78.776581">
        <ele>3467.00</ele>
        <time>2018-09-08T22:40:56Z</time>
      </trkpt>
      <trkpt lat="-2.602658" lon="-78.776581">
        <ele>3467.00</ele>
        <time>2018-09-08T22:40:57Z</time>
      </trkpt>
      <trkpt lat="-2.602658" lon="-78.776581">
        <ele>3467.00</ele>
        <time>2018-09-08T22:40:58Z</time>
      </trkpt>
      <trkpt lat="-2.602658" lon="-78.776581">
        <ele>3467.00</ele>
        <time>2018-09-08T22:40:59Z</time>
      </trkpt>
      <trkpt lat="-2.602658" lon="-78.776581">
        <ele>3467.00</ele>
        <time>2018-09-08T22:41:00Z</time>
      </trkpt>
      <trkpt lat="-2.602658" lon="-78.776581">
        <ele>3467.00</ele>
        <time>2018-09-08T22:41:01Z</time>
      </trkpt>
      <trkpt lat="-2.602658" lon="-78.776581">
        <ele>3467.00</ele>
        <time>2018-09-08T22:41:02Z</time>
      </trkpt>
      <trkpt lat="-2.602658" lon="-78.776581">
        <ele>3467.00</ele>
        <time>2018-09-08T22:41:03Z</time>
      </trkpt>
      <trkpt lat="-2.602658" lon="-78.776581">
        <ele>3467.00</ele>
        <time>2018-09-08T22:41:04Z</time>
      </trkpt>
      <trkpt lat="-2.602658" lon="-78.776581">
        <ele>3467.00</ele>
        <time>2018-09-08T22:41:05Z</time>
      </trkpt>
      <trkpt lat="-2.602658" lon="-78.776581">
        <ele>3467.00</ele>
        <time>2018-09-08T22:41:06Z</time>
      </trkpt>
      <trkpt lat="-2.602658" lon="-78.776581">
        <ele>3467.00</ele>
        <time>2018-09-08T22:41:07Z</time>
      </trkpt>
      <trkpt lat="-2.602658" lon="-78.776581">
        <ele>3467.00</ele>
        <time>2018-09-08T22:41:08Z</time>
      </trkpt>
      <trkpt lat="-2.602658" lon="-78.776581">
        <ele>3467.00</ele>
        <time>2018-09-08T22:41:09Z</time>
      </trkpt>
      <trkpt lat="-2.602658" lon="-78.776581">
        <ele>3467.00</ele>
        <time>2018-09-08T22:41:10Z</time>
      </trkpt>
      <trkpt lat="-2.602658" lon="-78.776581">
        <ele>3467.00</ele>
        <time>2018-09-08T22:41:11Z</time>
      </trkpt>
      <trkpt lat="-2.602658" lon="-78.776581">
        <ele>3467.00</ele>
        <time>2018-09-08T22:41:12Z</time>
      </trkpt>
      <trkpt lat="-2.602658" lon="-78.776581">
        <ele>3467.00</ele>
        <time>2018-09-08T22:41:13Z</time>
      </trkpt>
      <trkpt lat="-2.602658" lon="-78.776581">
        <ele>3467.00</ele>
        <time>2018-09-08T22:41:14Z</time>
      </trkpt>
      <trkpt lat="-2.602658" lon="-78.776581">
        <ele>3467.00</ele>
        <time>2018-09-08T22:41:15Z</time>
      </trkpt>
      <trkpt lat="-2.602658" lon="-78.776581">
        <ele>3467.00</ele>
        <time>2018-09-08T22:41:16Z</time>
      </trkpt>
      <trkpt lat="-2.602658" lon="-78.776581">
        <ele>3467.00</ele>
        <time>2018-09-08T22:41:17Z</time>
      </trkpt>
      <trkpt lat="-2.602658" lon="-78.776581">
        <ele>3467.00</ele>
        <time>2018-09-08T22:41:18Z</time>
      </trkpt>
      <trkpt lat="-2.602658" lon="-78.776581">
        <ele>3467.00</ele>
        <time>2018-09-08T22:41:19Z</time>
      </trkpt>
      <trkpt lat="-2.602658" lon="-78.776581">
        <ele>3467.00</ele>
        <time>2018-09-08T22:41:20Z</time>
      </trkpt>
      <trkpt lat="-2.602658" lon="-78.776581">
        <ele>3467.00</ele>
        <time>2018-09-08T22:41:21Z</time>
      </trkpt>
      <trkpt lat="-2.602658" lon="-78.776581">
        <ele>3467.00</ele>
        <time>2018-09-08T22:41:22Z</time>
      </trkpt>
      <trkpt lat="-2.602658" lon="-78.776581">
        <ele>3467.00</ele>
        <time>2018-09-08T22:41:23Z</time>
      </trkpt>
      <trkpt lat="-2.602658" lon="-78.776581">
        <ele>3467.00</ele>
        <time>2018-09-08T22:41:24Z</time>
      </trkpt>
      <trkpt lat="-2.602658" lon="-78.776581">
        <ele>3467.00</ele>
        <time>2018-09-08T22:41:25Z</time>
      </trkpt>
      <trkpt lat="-2.602658" lon="-78.776581">
        <ele>3467.00</ele>
        <time>2018-09-08T22:41:26Z</time>
      </trkpt>
      <trkpt lat="-2.602658" lon="-78.776581">
        <ele>3467.00</ele>
        <time>2018-09-08T22:41:27Z</time>
      </trkpt>
      <trkpt lat="-2.602658" lon="-78.776581">
        <ele>3467.00</ele>
        <time>2018-09-08T22:41:28Z</time>
      </trkpt>
      <trkpt lat="-2.602658" lon="-78.776581">
        <ele>3467.00</ele>
        <time>2018-09-08T22:41:29Z</time>
      </trkpt>
      <trkpt lat="-2.602658" lon="-78.776581">
        <ele>3467.00</ele>
        <time>2018-09-08T22:41:30Z</time>
      </trkpt>
      <trkpt lat="-2.602658" lon="-78.776581">
        <ele>3467.00</ele>
        <time>2018-09-08T22:41:31Z</time>
      </trkpt>
      <trkpt lat="-2.602658" lon="-78.776581">
        <ele>3467.00</ele>
        <time>2018-09-08T22:41:32Z</time>
      </trkpt>
      <trkpt lat="-2.602658" lon="-78.776581">
        <ele>3467.00</ele>
        <time>2018-09-08T22:41:33Z</time>
      </trkpt>
      <trkpt lat="-2.602658" lon="-78.776581">
        <ele>3467.00</ele>
        <time>2018-09-08T22:41:34Z</time>
      </trkpt>
      <trkpt lat="-2.602658" lon="-78.776581">
        <ele>3467.00</ele>
        <time>2018-09-08T22:41:35Z</time>
      </trkpt>
      <trkpt lat="-2.602658" lon="-78.776581">
        <ele>3467.00</ele>
        <time>2018-09-08T22:41:36Z</time>
      </trkpt>
      <trkpt lat="-2.602658" lon="-78.776581">
        <ele>3467.00</ele>
        <time>2018-09-08T22:41:37Z</time>
      </trkpt>
      <trkpt lat="-2.602658" lon="-78.776581">
        <ele>3467.00</ele>
        <time>2018-09-08T22:41:38Z</time>
      </trkpt>
      <trkpt lat="-2.602658" lon="-78.776581">
        <ele>3467.00</ele>
        <time>2018-09-08T22:41:39Z</time>
      </trkpt>
      <trkpt lat="-2.602658" lon="-78.776581">
        <ele>3467.00</ele>
        <time>2018-09-08T22:41:40Z</time>
      </trkpt>
      <trkpt lat="-2.602658" lon="-78.776581">
        <ele>3467.00</ele>
        <time>2018-09-08T22:41:41Z</time>
      </trkpt>
      <trkpt lat="-2.602658" lon="-78.776581">
        <ele>3467.00</ele>
        <time>2018-09-08T22:41:42Z</time>
      </trkpt>
      <trkpt lat="-2.602658" lon="-78.776581">
        <ele>3467.00</ele>
        <time>2018-09-08T22:41:43Z</time>
      </trkpt>
      <trkpt lat="-2.602658" lon="-78.776581">
        <ele>3467.00</ele>
        <time>2018-09-08T22:41:44Z</time>
      </trkpt>
      <trkpt lat="-2.602658" lon="-78.776581">
        <ele>3467.00</ele>
        <time>2018-09-08T22:41:45Z</time>
      </trkpt>
      <trkpt lat="-2.602658" lon="-78.776581">
        <ele>3467.00</ele>
        <time>2018-09-08T22:41:46Z</time>
      </trkpt>
      <trkpt lat="-2.602658" lon="-78.776581">
        <ele>3467.00</ele>
        <time>2018-09-08T22:41:47Z</time>
      </trkpt>
      <trkpt lat="-2.602658" lon="-78.776581">
        <ele>3467.00</ele>
        <time>2018-09-08T22:41:48Z</time>
      </trkpt>
      <trkpt lat="-2.602658" lon="-78.776581">
        <ele>3467.00</ele>
        <time>2018-09-08T22:41:49Z</time>
      </trkpt>
      <trkpt lat="-2.602658" lon="-78.776581">
        <ele>3467.00</ele>
        <time>2018-09-08T22:41:50Z</time>
      </trkpt>
      <trkpt lat="-2.602658" lon="-78.776581">
        <ele>3467.00</ele>
        <time>2018-09-08T22:41:51Z</time>
      </trkpt>
      <trkpt lat="-2.602658" lon="-78.776581">
        <ele>3467.00</ele>
        <time>2018-09-08T22:41:52Z</time>
      </trkpt>
      <trkpt lat="-2.602658" lon="-78.776581">
        <ele>3467.00</ele>
        <time>2018-09-08T22:41:53Z</time>
      </trkpt>
      <trkpt lat="-2.602658" lon="-78.776581">
        <ele>3467.00</ele>
        <time>2018-09-08T22:41:54Z</time>
      </trkpt>
      <trkpt lat="-2.602658" lon="-78.776581">
        <ele>3467.00</ele>
        <time>2018-09-08T22:41:55Z</time>
      </trkpt>
      <trkpt lat="-2.602658" lon="-78.776581">
        <ele>3467.00</ele>
        <time>2018-09-08T22:41:56Z</time>
      </trkpt>
      <trkpt lat="-2.602658" lon="-78.776581">
        <ele>3467.00</ele>
        <time>2018-09-08T22:41:57Z</time>
      </trkpt>
      <trkpt lat="-2.602658" lon="-78.776581">
        <ele>3467.00</ele>
        <time>2018-09-08T22:41:58Z</time>
      </trkpt>
      <trkpt lat="-2.602658" lon="-78.776581">
        <ele>3468.00</ele>
        <time>2018-09-08T22:41:59Z</time>
      </trkpt>
      <trkpt lat="-2.602658" lon="-78.776581">
        <ele>3468.00</ele>
        <time>2018-09-08T22:42:00Z</time>
      </trkpt>
      <trkpt lat="-2.602658" lon="-78.776581">
        <ele>3468.00</ele>
        <time>2018-09-08T22:42:01Z</time>
      </trkpt>
      <trkpt lat="-2.602671" lon="-78.776566">
        <ele>3468.00</ele>
        <time>2018-09-08T22:42:02Z</time>
      </trkpt>
      <trkpt lat="-2.602673" lon="-78.776566">
        <ele>3468.00</ele>
        <time>2018-09-08T22:42:03Z</time>
      </trkpt>
      <trkpt lat="-2.602675" lon="-78.776566">
        <ele>3468.00</ele>
        <time>2018-09-08T22:42:04Z</time>
      </trkpt>
      <trkpt lat="-2.602678" lon="-78.776558">
        <ele>3468.00</ele>
        <time>2018-09-08T22:42:05Z</time>
      </trkpt>
      <trkpt lat="-2.602679" lon="-78.776558">
        <ele>3469.00</ele>
        <time>2018-09-08T22:42:06Z</time>
      </trkpt>
      <trkpt lat="-2.602675" lon="-78.776550">
        <ele>3469.00</ele>
        <time>2018-09-08T22:42:07Z</time>
      </trkpt>
      <trkpt lat="-2.602662" lon="-78.776543">
        <ele>3469.00</ele>
        <time>2018-09-08T22:42:08Z</time>
      </trkpt>
      <trkpt lat="-2.602654" lon="-78.776535">
        <ele>3469.00</ele>
        <time>2018-09-08T22:42:09Z</time>
      </trkpt>
      <trkpt lat="-2.602647" lon="-78.776535">
        <ele>3469.00</ele>
        <time>2018-09-08T22:42:10Z</time>
      </trkpt>
      <trkpt lat="-2.602647" lon="-78.776535">
        <ele>3469.00</ele>
        <time>2018-09-08T22:42:11Z</time>
      </trkpt>
      <trkpt lat="-2.602646" lon="-78.776535">
        <ele>3469.00</ele>
        <time>2018-09-08T22:42:12Z</time>
      </trkpt>
      <trkpt lat="-2.602646" lon="-78.776535">
        <ele>3469.00</ele>
        <time>2018-09-08T22:42:13Z</time>
      </trkpt>
      <trkpt lat="-2.602645" lon="-78.776535">
        <ele>3469.00</ele>
        <time>2018-09-08T22:42:14Z</time>
      </trkpt>
      <trkpt lat="-2.602645" lon="-78.776535">
        <ele>3469.00</ele>
        <time>2018-09-08T22:42:15Z</time>
      </trkpt>
      <trkpt lat="-2.602644" lon="-78.776535">
        <ele>3469.00</ele>
        <time>2018-09-08T22:42:16Z</time>
      </trkpt>
      <trkpt lat="-2.602644" lon="-78.776535">
        <ele>3469.00</ele>
        <time>2018-09-08T22:42:17Z</time>
      </trkpt>
      <trkpt lat="-2.602644" lon="-78.776535">
        <ele>3469.00</ele>
        <time>2018-09-08T22:42:18Z</time>
      </trkpt>
      <trkpt lat="-2.602643" lon="-78.776535">
        <ele>3469.00</ele>
        <time>2018-09-08T22:42:19Z</time>
      </trkpt>
      <trkpt lat="-2.602642" lon="-78.776535">
        <ele>3469.00</ele>
        <time>2018-09-08T22:42:20Z</time>
      </trkpt>
      <trkpt lat="-2.602639" lon="-78.776535">
        <ele>3469.00</ele>
        <time>2018-09-08T22:42:21Z</time>
      </trkpt>
      <trkpt lat="-2.602639" lon="-78.776535">
        <ele>3469.00</ele>
        <time>2018-09-08T22:42:22Z</time>
      </trkpt>
      <trkpt lat="-2.602639" lon="-78.776535">
        <ele>3469.00</ele>
        <time>2018-09-08T22:42:23Z</time>
      </trkpt>
      <trkpt lat="-2.602638" lon="-78.776535">
        <ele>3469.00</ele>
        <time>2018-09-08T22:42:24Z</time>
      </trkpt>
      <trkpt lat="-2.602637" lon="-78.776535">
        <ele>3469.00</ele>
        <time>2018-09-08T22:42:25Z</time>
      </trkpt>
      <trkpt lat="-2.602636" lon="-78.776527">
        <ele>3470.00</ele>
        <time>2018-09-08T22:42:26Z</time>
      </trkpt>
      <trkpt lat="-2.602636" lon="-78.776527">
        <ele>3470.00</ele>
        <time>2018-09-08T22:42:27Z</time>
      </trkpt>
      <trkpt lat="-2.602632" lon="-78.776527">
        <ele>3470.00</ele>
        <time>2018-09-08T22:42:28Z</time>
      </trkpt>
      <trkpt lat="-2.602630" lon="-78.776527">
        <ele>3470.00</ele>
        <time>2018-09-08T22:42:29Z</time>
      </trkpt>
      <trkpt lat="-2.602630" lon="-78.776527">
        <ele>3470.00</ele>
        <time>2018-09-08T22:42:30Z</time>
      </trkpt>
      <trkpt lat="-2.602631" lon="-78.776527">
        <ele>3470.00</ele>
        <time>2018-09-08T22:42:31Z</time>
      </trkpt>
      <trkpt lat="-2.602631" lon="-78.776527">
        <ele>3470.00</ele>
        <time>2018-09-08T22:42:32Z</time>
      </trkpt>
      <trkpt lat="-2.602631" lon="-78.776527">
        <ele>3470.00</ele>
        <time>2018-09-08T22:42:33Z</time>
      </trkpt>
      <trkpt lat="-2.602631" lon="-78.776527">
        <ele>3470.00</ele>
        <time>2018-09-08T22:42:34Z</time>
      </trkpt>
      <trkpt lat="-2.602630" lon="-78.776527">
        <ele>3470.00</ele>
        <time>2018-09-08T22:42:35Z</time>
      </trkpt>
      <trkpt lat="-2.602630" lon="-78.776527">
        <ele>3470.00</ele>
        <time>2018-09-08T22:42:36Z</time>
      </trkpt>
      <trkpt lat="-2.602636" lon="-78.776527">
        <ele>3470.00</ele>
        <time>2018-09-08T22:42:37Z</time>
      </trkpt>
      <trkpt lat="-2.602641" lon="-78.776512">
        <ele>3470.00</ele>
        <time>2018-09-08T22:42:38Z</time>
      </trkpt>
      <trkpt lat="-2.602642" lon="-78.776512">
        <ele>3470.00</ele>
        <time>2018-09-08T22:42:39Z</time>
      </trkpt>
      <trkpt lat="-2.602650" lon="-78.776512">
        <ele>3470.00</ele>
        <time>2018-09-08T22:42:40Z</time>
      </trkpt>
      <trkpt lat="-2.602656" lon="-78.776512">
        <ele>3470.00</ele>
        <time>2018-09-08T22:42:41Z</time>
      </trkpt>
      <trkpt lat="-2.602658" lon="-78.776512">
        <ele>3470.00</ele>
        <time>2018-09-08T22:42:42Z</time>
      </trkpt>
      <trkpt lat="-2.602657" lon="-78.776512">
        <ele>3470.00</ele>
        <time>2018-09-08T22:42:43Z</time>
      </trkpt>
      <trkpt lat="-2.602658" lon="-78.776505">
        <ele>3471.00</ele>
        <time>2018-09-08T22:42:44Z</time>
      </trkpt>
      <trkpt lat="-2.602658" lon="-78.776505">
        <ele>3471.00</ele>
        <time>2018-09-08T22:42:45Z</time>
      </trkpt>
      <trkpt lat="-2.602658" lon="-78.776505">
        <ele>3471.00</ele>
        <time>2018-09-08T22:42:46Z</time>
      </trkpt>
      <trkpt lat="-2.602658" lon="-78.776505">
        <ele>3471.00</ele>
        <time>2018-09-08T22:42:47Z</time>
      </trkpt>
      <trkpt lat="-2.602658" lon="-78.776505">
        <ele>3471.00</ele>
        <time>2018-09-08T22:42:48Z</time>
      </trkpt>
      <trkpt lat="-2.602658" lon="-78.776505">
        <ele>3471.00</ele>
        <time>2018-09-08T22:42:49Z</time>
      </trkpt>
      <trkpt lat="-2.602659" lon="-78.776505">
        <ele>3471.00</ele>
        <time>2018-09-08T22:42:50Z</time>
      </trkpt>
      <trkpt lat="-2.602661" lon="-78.776505">
        <ele>3471.00</ele>
        <time>2018-09-08T22:42:51Z</time>
      </trkpt>
      <trkpt lat="-2.602659" lon="-78.776505">
        <ele>3471.00</ele>
        <time>2018-09-08T22:42:52Z</time>
      </trkpt>
      <trkpt lat="-2.602659" lon="-78.776505">
        <ele>3471.00</ele>
        <time>2018-09-08T22:42:53Z</time>
      </trkpt>
      <trkpt lat="-2.602660" lon="-78.776505">
        <ele>3471.00</ele>
        <time>2018-09-08T22:42:54Z</time>
      </trkpt>
      <trkpt lat="-2.602655" lon="-78.776505">
        <ele>3471.00</ele>
        <time>2018-09-08T22:42:55Z</time>
      </trkpt>
      <trkpt lat="-2.602656" lon="-78.776505">
        <ele>3471.00</ele>
        <time>2018-09-08T22:42:56Z</time>
      </trkpt>
      <trkpt lat="-2.602658" lon="-78.776505">
        <ele>3471.00</ele>
        <time>2018-09-08T22:42:57Z</time>
      </trkpt>
      <trkpt lat="-2.602655" lon="-78.776505">
        <ele>3471.00</ele>
        <time>2018-09-08T22:42:58Z</time>
      </trkpt>
      <trkpt lat="-2.602654" lon="-78.776505">
        <ele>3471.00</ele>
        <time>2018-09-08T22:42:59Z</time>
      </trkpt>
      <trkpt lat="-2.602650" lon="-78.776505">
        <ele>3471.00</ele>
        <time>2018-09-08T22:43:00Z</time>
      </trkpt>
      <trkpt lat="-2.602653" lon="-78.776505">
        <ele>3471.00</ele>
        <time>2018-09-08T22:43:01Z</time>
      </trkpt>
      <trkpt lat="-2.602655" lon="-78.776505">
        <ele>3472.00</ele>
        <time>2018-09-08T22:43:02Z</time>
      </trkpt>
      <trkpt lat="-2.602658" lon="-78.776512">
        <ele>3472.00</ele>
        <time>2018-09-08T22:43:03Z</time>
      </trkpt>
      <trkpt lat="-2.602659" lon="-78.776512">
        <ele>3472.00</ele>
        <time>2018-09-08T22:43:04Z</time>
      </trkpt>
      <trkpt lat="-2.602663" lon="-78.776512">
        <ele>3472.00</ele>
        <time>2018-09-08T22:43:05Z</time>
      </trkpt>
      <trkpt lat="-2.602664" lon="-78.776527">
        <ele>3472.00</ele>
        <time>2018-09-08T22:43:06Z</time>
      </trkpt>
      <trkpt lat="-2.602664" lon="-78.776527">
        <ele>3472.00</ele>
        <time>2018-09-08T22:43:07Z</time>
      </trkpt>
      <trkpt lat="-2.602664" lon="-78.776527">
        <ele>3472.00</ele>
        <time>2018-09-08T22:43:08Z</time>
      </trkpt>
      <trkpt lat="-2.602664" lon="-78.776527">
        <ele>3472.00</ele>
        <time>2018-09-08T22:43:09Z</time>
      </trkpt>
      <trkpt lat="-2.602664" lon="-78.776527">
        <ele>3472.00</ele>
        <time>2018-09-08T22:43:10Z</time>
      </trkpt>
      <trkpt lat="-2.602664" lon="-78.776527">
        <ele>3472.00</ele>
        <time>2018-09-08T22:43:11Z</time>
      </trkpt>
      <trkpt lat="-2.602664" lon="-78.776527">
        <ele>3472.00</ele>
        <time>2018-09-08T22:43:12Z</time>
      </trkpt>
      <trkpt lat="-2.602663" lon="-78.776527">
        <ele>3472.00</ele>
        <time>2018-09-08T22:43:13Z</time>
      </trkpt>
      <trkpt lat="-2.602664" lon="-78.776527">
        <ele>3472.00</ele>
        <time>2018-09-08T22:43:14Z</time>
      </trkpt>
      <trkpt lat="-2.602666" lon="-78.776527">
        <ele>3472.00</ele>
        <time>2018-09-08T22:43:15Z</time>
      </trkpt>
      <trkpt lat="-2.602666" lon="-78.776512">
        <ele>3472.00</ele>
        <time>2018-09-08T22:43:16Z</time>
      </trkpt>
      <trkpt lat="-2.602664" lon="-78.776512">
        <ele>3472.00</ele>
        <time>2018-09-08T22:43:17Z</time>
      </trkpt>
      <trkpt lat="-2.602663" lon="-78.776512">
        <ele>3472.00</ele>
        <time>2018-09-08T22:43:18Z</time>
      </trkpt>
      <trkpt lat="-2.602663" lon="-78.776512">
        <ele>3472.00</ele>
        <time>2018-09-08T22:43:19Z</time>
      </trkpt>
      <trkpt lat="-2.602663" lon="-78.776512">
        <ele>3472.00</ele>
        <time>2018-09-08T22:43:20Z</time>
      </trkpt>
      <trkpt lat="-2.602663" lon="-78.776512">
        <ele>3472.00</ele>
        <time>2018-09-08T22:43:21Z</time>
      </trkpt>
      <trkpt lat="-2.602663" lon="-78.776512">
        <ele>3472.00</ele>
        <time>2018-09-08T22:43:22Z</time>
      </trkpt>
      <trkpt lat="-2.602663" lon="-78.776512">
        <ele>3472.00</ele>
        <time>2018-09-08T22:43:23Z</time>
      </trkpt>
      <trkpt lat="-2.602663" lon="-78.776512">
        <ele>3472.00</ele>
        <time>2018-09-08T22:43:24Z</time>
      </trkpt>
      <trkpt lat="-2.602663" lon="-78.776512">
        <ele>3472.00</ele>
        <time>2018-09-08T22:43:25Z</time>
      </trkpt>
      <trkpt lat="-2.602663" lon="-78.776512">
        <ele>3472.00</ele>
        <time>2018-09-08T22:43:26Z</time>
      </trkpt>
      <trkpt lat="-2.602663" lon="-78.776512">
        <ele>3472.00</ele>
        <time>2018-09-08T22:43:27Z</time>
      </trkpt>
      <trkpt lat="-2.602663" lon="-78.776512">
        <ele>3472.00</ele>
        <time>2018-09-08T22:43:28Z</time>
      </trkpt>
      <trkpt lat="-2.602663" lon="-78.776512">
        <ele>3472.00</ele>
        <time>2018-09-08T22:43:29Z</time>
      </trkpt>
      <trkpt lat="-2.602662" lon="-78.776512">
        <ele>3472.00</ele>
        <time>2018-09-08T22:43:30Z</time>
      </trkpt>
      <trkpt lat="-2.602663" lon="-78.776512">
        <ele>3472.00</ele>
        <time>2018-09-08T22:43:31Z</time>
      </trkpt>
      <trkpt lat="-2.602663" lon="-78.776512">
        <ele>3472.00</ele>
        <time>2018-09-08T22:43:32Z</time>
      </trkpt>
      <trkpt lat="-2.602662" lon="-78.776512">
        <ele>3472.00</ele>
        <time>2018-09-08T22:43:33Z</time>
      </trkpt>
      <trkpt lat="-2.602662" lon="-78.776512">
        <ele>3472.00</ele>
        <time>2018-09-08T22:43:34Z</time>
      </trkpt>
      <trkpt lat="-2.602662" lon="-78.776512">
        <ele>3472.00</ele>
        <time>2018-09-08T22:43:35Z</time>
      </trkpt>
      <trkpt lat="-2.602662" lon="-78.776512">
        <ele>3472.00</ele>
        <time>2018-09-08T22:43:36Z</time>
      </trkpt>
      <trkpt lat="-2.602662" lon="-78.776512">
        <ele>3472.00</ele>
        <time>2018-09-08T22:43:37Z</time>
      </trkpt>
      <trkpt lat="-2.602662" lon="-78.776512">
        <ele>3472.00</ele>
        <time>2018-09-08T22:43:38Z</time>
      </trkpt>
      <trkpt lat="-2.602662" lon="-78.776512">
        <ele>3472.00</ele>
        <time>2018-09-08T22:43:39Z</time>
      </trkpt>
      <trkpt lat="-2.602662" lon="-78.776512">
        <ele>3472.00</ele>
        <time>2018-09-08T22:43:40Z</time>
      </trkpt>
      <trkpt lat="-2.602662" lon="-78.776512">
        <ele>3472.00</ele>
        <time>2018-09-08T22:43:41Z</time>
      </trkpt>
      <trkpt lat="-2.602662" lon="-78.776512">
        <ele>3472.00</ele>
        <time>2018-09-08T22:43:42Z</time>
      </trkpt>
      <trkpt lat="-2.602662" lon="-78.776512">
        <ele>3472.00</ele>
        <time>2018-09-08T22:43:43Z</time>
      </trkpt>
      <trkpt lat="-2.602662" lon="-78.776512">
        <ele>3472.00</ele>
        <time>2018-09-08T22:43:44Z</time>
      </trkpt>
      <trkpt lat="-2.602661" lon="-78.776512">
        <ele>3472.00</ele>
        <time>2018-09-08T22:43:45Z</time>
      </trkpt>
      <trkpt lat="-2.602661" lon="-78.776512">
        <ele>3472.00</ele>
        <time>2018-09-08T22:43:46Z</time>
      </trkpt>
      <trkpt lat="-2.602661" lon="-78.776512">
        <ele>3472.00</ele>
        <time>2018-09-08T22:43:47Z</time>
      </trkpt>
      <trkpt lat="-2.602661" lon="-78.776512">
        <ele>3472.00</ele>
        <time>2018-09-08T22:43:48Z</time>
      </trkpt>
      <trkpt lat="-2.602661" lon="-78.776512">
        <ele>3472.00</ele>
        <time>2018-09-08T22:43:49Z</time>
      </trkpt>
      <trkpt lat="-2.602661" lon="-78.776512">
        <ele>3472.00</ele>
        <time>2018-09-08T22:43:50Z</time>
      </trkpt>
      <trkpt lat="-2.602661" lon="-78.776512">
        <ele>3472.00</ele>
        <time>2018-09-08T22:43:51Z</time>
      </trkpt>
      <trkpt lat="-2.602661" lon="-78.776512">
        <ele>3472.00</ele>
        <time>2018-09-08T22:43:52Z</time>
      </trkpt>
      <trkpt lat="-2.602661" lon="-78.776512">
        <ele>3472.00</ele>
        <time>2018-09-08T22:43:53Z</time>
      </trkpt>
      <trkpt lat="-2.602661" lon="-78.776512">
        <ele>3472.00</ele>
        <time>2018-09-08T22:43:54Z</time>
      </trkpt>
      <trkpt lat="-2.602661" lon="-78.776512">
        <ele>3472.00</ele>
        <time>2018-09-08T22:43:55Z</time>
      </trkpt>
      <trkpt lat="-2.602660" lon="-78.776512">
        <ele>3472.00</ele>
        <time>2018-09-08T22:43:56Z</time>
      </trkpt>
      <trkpt lat="-2.602660" lon="-78.776512">
        <ele>3472.00</ele>
        <time>2018-09-08T22:43:57Z</time>
      </trkpt>
      <trkpt lat="-2.602660" lon="-78.776512">
        <ele>3472.00</ele>
        <time>2018-09-08T22:43:58Z</time>
      </trkpt>
      <trkpt lat="-2.602659" lon="-78.776512">
        <ele>3472.00</ele>
        <time>2018-09-08T22:43:59Z</time>
      </trkpt>
      <trkpt lat="-2.602659" lon="-78.776512">
        <ele>3472.00</ele>
        <time>2018-09-08T22:44:00Z</time>
      </trkpt>
      <trkpt lat="-2.602659" lon="-78.776512">
        <ele>3472.00</ele>
        <time>2018-09-08T22:44:01Z</time>
      </trkpt>
      <trkpt lat="-2.602660" lon="-78.776512">
        <ele>3472.00</ele>
        <time>2018-09-08T22:44:02Z</time>
      </trkpt>
      <trkpt lat="-2.602660" lon="-78.776512">
        <ele>3472.00</ele>
        <time>2018-09-08T22:44:03Z</time>
      </trkpt>
      <trkpt lat="-2.602660" lon="-78.776512">
        <ele>3472.00</ele>
        <time>2018-09-08T22:44:04Z</time>
      </trkpt>
      <trkpt lat="-2.602659" lon="-78.776512">
        <ele>3472.00</ele>
        <time>2018-09-08T22:44:05Z</time>
      </trkpt>
      <trkpt lat="-2.602658" lon="-78.776512">
        <ele>3472.00</ele>
        <time>2018-09-08T22:44:06Z</time>
      </trkpt>
      <trkpt lat="-2.602658" lon="-78.776512">
        <ele>3472.00</ele>
        <time>2018-09-08T22:44:07Z</time>
      </trkpt>
      <trkpt lat="-2.602658" lon="-78.776512">
        <ele>3473.00</ele>
        <time>2018-09-08T22:44:08Z</time>
      </trkpt>
      <trkpt lat="-2.602657" lon="-78.776512">
        <ele>3473.00</ele>
        <time>2018-09-08T22:44:09Z</time>
      </trkpt>
      <trkpt lat="-2.602657" lon="-78.776512">
        <ele>3473.00</ele>
        <time>2018-09-08T22:44:10Z</time>
      </trkpt>
      <trkpt lat="-2.602658" lon="-78.776512">
        <ele>3473.00</ele>
        <time>2018-09-08T22:44:11Z</time>
      </trkpt>
      <trkpt lat="-2.602658" lon="-78.776512">
        <ele>3473.00</ele>
        <time>2018-09-08T22:44:12Z</time>
      </trkpt>
      <trkpt lat="-2.602652" lon="-78.776512">
        <ele>3473.00</ele>
        <time>2018-09-08T22:44:13Z</time>
      </trkpt>
      <trkpt lat="-2.602649" lon="-78.776505">
        <ele>3473.00</ele>
        <time>2018-09-08T22:44:14Z</time>
      </trkpt>
      <trkpt lat="-2.602648" lon="-78.776505">
        <ele>3473.00</ele>
        <time>2018-09-08T22:44:15Z</time>
      </trkpt>
      <trkpt lat="-2.602647" lon="-78.776505">
        <ele>3473.00</ele>
        <time>2018-09-08T22:44:16Z</time>
      </trkpt>
      <trkpt lat="-2.602647" lon="-78.776505">
        <ele>3473.00</ele>
        <time>2018-09-08T22:44:17Z</time>
      </trkpt>
      <trkpt lat="-2.602646" lon="-78.776505">
        <ele>3473.00</ele>
        <time>2018-09-08T22:44:18Z</time>
      </trkpt>
      <trkpt lat="-2.602646" lon="-78.776505">
        <ele>3473.00</ele>
        <time>2018-09-08T22:44:19Z</time>
      </trkpt>
      <trkpt lat="-2.602646" lon="-78.776505">
        <ele>3473.00</ele>
        <time>2018-09-08T22:44:20Z</time>
      </trkpt>
      <trkpt lat="-2.602646" lon="-78.776505">
        <ele>3473.00</ele>
        <time>2018-09-08T22:44:21Z</time>
      </trkpt>
      <trkpt lat="-2.602646" lon="-78.776505">
        <ele>3473.00</ele>
        <time>2018-09-08T22:44:22Z</time>
      </trkpt>
      <trkpt lat="-2.602646" lon="-78.776505">
        <ele>3473.00</ele>
        <time>2018-09-08T22:44:23Z</time>
      </trkpt>
      <trkpt lat="-2.602646" lon="-78.776505">
        <ele>3473.00</ele>
        <time>2018-09-08T22:44:24Z</time>
      </trkpt>
      <trkpt lat="-2.602655" lon="-78.776512">
        <ele>3473.00</ele>
        <time>2018-09-08T22:44:25Z</time>
      </trkpt>
      <trkpt lat="-2.602660" lon="-78.776512">
        <ele>3473.00</ele>
        <time>2018-09-08T22:44:26Z</time>
      </trkpt>
      <trkpt lat="-2.602660" lon="-78.776512">
        <ele>3473.00</ele>
        <time>2018-09-08T22:44:27Z</time>
      </trkpt>
      <trkpt lat="-2.602661" lon="-78.776512">
        <ele>3473.00</ele>
        <time>2018-09-08T22:44:28Z</time>
      </trkpt>
      <trkpt lat="-2.602662" lon="-78.776512">
        <ele>3473.00</ele>
        <time>2018-09-08T22:44:29Z</time>
      </trkpt>
      <trkpt lat="-2.602661" lon="-78.776512">
        <ele>3473.00</ele>
        <time>2018-09-08T22:44:30Z</time>
      </trkpt>
      <trkpt lat="-2.602661" lon="-78.776512">
        <ele>3473.00</ele>
        <time>2018-09-08T22:44:31Z</time>
      </trkpt>
      <trkpt lat="-2.602661" lon="-78.776512">
        <ele>3473.00</ele>
        <time>2018-09-08T22:44:32Z</time>
      </trkpt>
      <trkpt lat="-2.602660" lon="-78.776512">
        <ele>3473.00</ele>
        <time>2018-09-08T22:44:33Z</time>
      </trkpt>
      <trkpt lat="-2.602660" lon="-78.776512">
        <ele>3473.00</ele>
        <time>2018-09-08T22:44:34Z</time>
      </trkpt>
      <trkpt lat="-2.602660" lon="-78.776512">
        <ele>3473.00</ele>
        <time>2018-09-08T22:44:35Z</time>
      </trkpt>
      <trkpt lat="-2.602660" lon="-78.776512">
        <ele>3473.00</ele>
        <time>2018-09-08T22:44:36Z</time>
      </trkpt>
      <trkpt lat="-2.602659" lon="-78.776512">
        <ele>3473.00</ele>
        <time>2018-09-08T22:44:37Z</time>
      </trkpt>
      <trkpt lat="-2.602658" lon="-78.776512">
        <ele>3473.00</ele>
        <time>2018-09-08T22:44:38Z</time>
      </trkpt>
      <trkpt lat="-2.602657" lon="-78.776512">
        <ele>3473.00</ele>
        <time>2018-09-08T22:44:39Z</time>
      </trkpt>
      <trkpt lat="-2.602655" lon="-78.776512">
        <ele>3473.00</ele>
        <time>2018-09-08T22:44:40Z</time>
      </trkpt>
      <trkpt lat="-2.602654" lon="-78.776512">
        <ele>3473.00</ele>
        <time>2018-09-08T22:44:41Z</time>
      </trkpt>
      <trkpt lat="-2.602654" lon="-78.776512">
        <ele>3473.00</ele>
        <time>2018-09-08T22:44:42Z</time>
      </trkpt>
      <trkpt lat="-2.602653" lon="-78.776512">
        <ele>3473.00</ele>
        <time>2018-09-08T22:44:43Z</time>
      </trkpt>
      <trkpt lat="-2.602652" lon="-78.776512">
        <ele>3473.00</ele>
        <time>2018-09-08T22:44:44Z</time>
      </trkpt>
      <trkpt lat="-2.602652" lon="-78.776512">
        <ele>3473.00</ele>
        <time>2018-09-08T22:44:45Z</time>
      </trkpt>
      <trkpt lat="-2.602651" lon="-78.776512">
        <ele>3473.00</ele>
        <time>2018-09-08T22:44:46Z</time>
      </trkpt>
      <trkpt lat="-2.602650" lon="-78.776512">
        <ele>3473.00</ele>
        <time>2018-09-08T22:44:47Z</time>
      </trkpt>
      <trkpt lat="-2.602649" lon="-78.776512">
        <ele>3473.00</ele>
        <time>2018-09-08T22:44:48Z</time>
      </trkpt>
      <trkpt lat="-2.602648" lon="-78.776512">
        <ele>3473.00</ele>
        <time>2018-09-08T22:44:49Z</time>
      </trkpt>
      <trkpt lat="-2.602648" lon="-78.776512">
        <ele>3473.00</ele>
        <time>2018-09-08T22:44:50Z</time>
      </trkpt>
      <trkpt lat="-2.602647" lon="-78.776512">
        <ele>3473.00</ele>
        <time>2018-09-08T22:44:51Z</time>
      </trkpt>
      <trkpt lat="-2.602647" lon="-78.776512">
        <ele>3473.00</ele>
        <time>2018-09-08T22:44:52Z</time>
      </trkpt>
      <trkpt lat="-2.602646" lon="-78.776512">
        <ele>3473.00</ele>
        <time>2018-09-08T22:44:53Z</time>
      </trkpt>
      <trkpt lat="-2.602646" lon="-78.776512">
        <ele>3473.00</ele>
        <time>2018-09-08T22:44:54Z</time>
      </trkpt>
      <trkpt lat="-2.602646" lon="-78.776512">
        <ele>3473.00</ele>
        <time>2018-09-08T22:44:55Z</time>
      </trkpt>
      <trkpt lat="-2.602645" lon="-78.776512">
        <ele>3473.00</ele>
        <time>2018-09-08T22:44:56Z</time>
      </trkpt>
      <trkpt lat="-2.602644" lon="-78.776512">
        <ele>3473.00</ele>
        <time>2018-09-08T22:44:57Z</time>
      </trkpt>
      <trkpt lat="-2.602644" lon="-78.776512">
        <ele>3473.00</ele>
        <time>2018-09-08T22:44:58Z</time>
      </trkpt>
      <trkpt lat="-2.602644" lon="-78.776512">
        <ele>3473.00</ele>
        <time>2018-09-08T22:44:59Z</time>
      </trkpt>
      <trkpt lat="-2.602643" lon="-78.776512">
        <ele>3473.00</ele>
        <time>2018-09-08T22:45:00Z</time>
      </trkpt>
      <trkpt lat="-2.602643" lon="-78.776512">
        <ele>3473.00</ele>
        <time>2018-09-08T22:45:01Z</time>
      </trkpt>
      <trkpt lat="-2.602641" lon="-78.776512">
        <ele>3473.00</ele>
        <time>2018-09-08T22:45:02Z</time>
      </trkpt>
      <trkpt lat="-2.602641" lon="-78.776512">
        <ele>3473.00</ele>
        <time>2018-09-08T22:45:03Z</time>
      </trkpt>
      <trkpt lat="-2.602640" lon="-78.776512">
        <ele>3473.00</ele>
        <time>2018-09-08T22:45:04Z</time>
      </trkpt>
      <trkpt lat="-2.602640" lon="-78.776512">
        <ele>3473.00</ele>
        <time>2018-09-08T22:45:05Z</time>
      </trkpt>
      <trkpt lat="-2.602639" lon="-78.776512">
        <ele>3473.00</ele>
        <time>2018-09-08T22:45:06Z</time>
      </trkpt>
      <trkpt lat="-2.602638" lon="-78.776512">
        <ele>3473.00</ele>
        <time>2018-09-08T22:45:07Z</time>
      </trkpt>
      <trkpt lat="-2.602637" lon="-78.776512">
        <ele>3474.00</ele>
        <time>2018-09-08T22:45:08Z</time>
      </trkpt>
      <trkpt lat="-2.602638" lon="-78.776512">
        <ele>3474.00</ele>
        <time>2018-09-08T22:45:09Z</time>
      </trkpt>
      <trkpt lat="-2.602637" lon="-78.776512">
        <ele>3474.00</ele>
        <time>2018-09-08T22:45:10Z</time>
      </trkpt>
      <trkpt lat="-2.602637" lon="-78.776512">
        <ele>3474.00</ele>
        <time>2018-09-08T22:45:11Z</time>
      </trkpt>
      <trkpt lat="-2.602637" lon="-78.776512">
        <ele>3474.00</ele>
        <time>2018-09-08T22:45:12Z</time>
      </trkpt>
      <trkpt lat="-2.602637" lon="-78.776512">
        <ele>3474.00</ele>
        <time>2018-09-08T22:45:13Z</time>
      </trkpt>
      <trkpt lat="-2.602636" lon="-78.776512">
        <ele>3474.00</ele>
        <time>2018-09-08T22:45:14Z</time>
      </trkpt>
      <trkpt lat="-2.602638" lon="-78.776512">
        <ele>3474.00</ele>
        <time>2018-09-08T22:45:15Z</time>
      </trkpt>
      <trkpt lat="-2.602637" lon="-78.776512">
        <ele>3474.00</ele>
        <time>2018-09-08T22:45:16Z</time>
      </trkpt>
      <trkpt lat="-2.602636" lon="-78.776512">
        <ele>3474.00</ele>
        <time>2018-09-08T22:45:17Z</time>
      </trkpt>
      <trkpt lat="-2.602635" lon="-78.776512">
        <ele>3474.00</ele>
        <time>2018-09-08T22:45:18Z</time>
      </trkpt>
      <trkpt lat="-2.602634" lon="-78.776512">
        <ele>3474.00</ele>
        <time>2018-09-08T22:45:19Z</time>
      </trkpt>
      <trkpt lat="-2.602634" lon="-78.776512">
        <ele>3474.00</ele>
        <time>2018-09-08T22:45:20Z</time>
      </trkpt>
      <trkpt lat="-2.602634" lon="-78.776512">
        <ele>3474.00</ele>
        <time>2018-09-08T22:45:21Z</time>
      </trkpt>
      <trkpt lat="-2.602634" lon="-78.776512">
        <ele>3474.00</ele>
        <time>2018-09-08T22:45:22Z</time>
      </trkpt>
      <trkpt lat="-2.602634" lon="-78.776512">
        <ele>3474.00</ele>
        <time>2018-09-08T22:45:23Z</time>
      </trkpt>
      <trkpt lat="-2.602634" lon="-78.776512">
        <ele>3474.00</ele>
        <time>2018-09-08T22:45:24Z</time>
      </trkpt>
      <trkpt lat="-2.602634" lon="-78.776512">
        <ele>3474.00</ele>
        <time>2018-09-08T22:45:25Z</time>
      </trkpt>
      <trkpt lat="-2.602633" lon="-78.776512">
        <ele>3474.00</ele>
        <time>2018-09-08T22:45:26Z</time>
      </trkpt>
      <trkpt lat="-2.602633" lon="-78.776512">
        <ele>3474.00</ele>
        <time>2018-09-08T22:45:27Z</time>
      </trkpt>
      <trkpt lat="-2.602634" lon="-78.776512">
        <ele>3474.00</ele>
        <time>2018-09-08T22:45:28Z</time>
      </trkpt>
      <trkpt lat="-2.602634" lon="-78.776512">
        <ele>3474.00</ele>
        <time>2018-09-08T22:45:29Z</time>
      </trkpt>
      <trkpt lat="-2.602634" lon="-78.776512">
        <ele>3474.00</ele>
        <time>2018-09-08T22:45:30Z</time>
      </trkpt>
      <trkpt lat="-2.602634" lon="-78.776512">
        <ele>3474.00</ele>
        <time>2018-09-08T22:45:31Z</time>
      </trkpt>
      <trkpt lat="-2.602633" lon="-78.776512">
        <ele>3474.00</ele>
        <time>2018-09-08T22:45:32Z</time>
      </trkpt>
      <trkpt lat="-2.602634" lon="-78.776512">
        <ele>3474.00</ele>
        <time>2018-09-08T22:45:33Z</time>
      </trkpt>
      <trkpt lat="-2.602634" lon="-78.776512">
        <ele>3474.00</ele>
        <time>2018-09-08T22:45:34Z</time>
      </trkpt>
      <trkpt lat="-2.602634" lon="-78.776512">
        <ele>3474.00</ele>
        <time>2018-09-08T22:45:35Z</time>
      </trkpt>
      <trkpt lat="-2.602634" lon="-78.776512">
        <ele>3474.00</ele>
        <time>2018-09-08T22:45:36Z</time>
      </trkpt>
      <trkpt lat="-2.602633" lon="-78.776512">
        <ele>3474.00</ele>
        <time>2018-09-08T22:45:37Z</time>
      </trkpt>
      <trkpt lat="-2.602633" lon="-78.776512">
        <ele>3474.00</ele>
        <time>2018-09-08T22:45:38Z</time>
      </trkpt>
      <trkpt lat="-2.602633" lon="-78.776512">
        <ele>3474.00</ele>
        <time>2018-09-08T22:45:39Z</time>
      </trkpt>
      <trkpt lat="-2.602633" lon="-78.776512">
        <ele>3474.00</ele>
        <time>2018-09-08T22:45:40Z</time>
      </trkpt>
      <trkpt lat="-2.602633" lon="-78.776512">
        <ele>3474.00</ele>
        <time>2018-09-08T22:45:41Z</time>
      </trkpt>
      <trkpt lat="-2.602633" lon="-78.776512">
        <ele>3474.00</ele>
        <time>2018-09-08T22:45:42Z</time>
      </trkpt>
      <trkpt lat="-2.602633" lon="-78.776512">
        <ele>3474.00</ele>
        <time>2018-09-08T22:45:43Z</time>
      </trkpt>
      <trkpt lat="-2.602633" lon="-78.776512">
        <ele>3474.00</ele>
        <time>2018-09-08T22:45:44Z</time>
      </trkpt>
      <trkpt lat="-2.602634" lon="-78.776512">
        <ele>3474.00</ele>
        <time>2018-09-08T22:45:45Z</time>
      </trkpt>
      <trkpt lat="-2.602634" lon="-78.776512">
        <ele>3474.00</ele>
        <time>2018-09-08T22:45:46Z</time>
      </trkpt>
      <trkpt lat="-2.602635" lon="-78.776512">
        <ele>3474.00</ele>
        <time>2018-09-08T22:45:47Z</time>
      </trkpt>
      <trkpt lat="-2.602635" lon="-78.776512">
        <ele>3474.00</ele>
        <time>2018-09-08T22:45:48Z</time>
      </trkpt>
      <trkpt lat="-2.602635" lon="-78.776512">
        <ele>3474.00</ele>
        <time>2018-09-08T22:45:49Z</time>
      </trkpt>
      <trkpt lat="-2.602635" lon="-78.776512">
        <ele>3474.00</ele>
        <time>2018-09-08T22:45:50Z</time>
      </trkpt>
      <trkpt lat="-2.602635" lon="-78.776512">
        <ele>3474.00</ele>
        <time>2018-09-08T22:45:51Z</time>
      </trkpt>
      <trkpt lat="-2.602636" lon="-78.776512">
        <ele>3474.00</ele>
        <time>2018-09-08T22:45:52Z</time>
      </trkpt>
      <trkpt lat="-2.602636" lon="-78.776512">
        <ele>3474.00</ele>
        <time>2018-09-08T22:45:53Z</time>
      </trkpt>
      <trkpt lat="-2.602637" lon="-78.776512">
        <ele>3474.00</ele>
        <time>2018-09-08T22:45:54Z</time>
      </trkpt>
      <trkpt lat="-2.602637" lon="-78.776512">
        <ele>3474.00</ele>
        <time>2018-09-08T22:45:55Z</time>
      </trkpt>
      <trkpt lat="-2.602637" lon="-78.776512">
        <ele>3474.00</ele>
        <time>2018-09-08T22:45:56Z</time>
      </trkpt>
      <trkpt lat="-2.602636" lon="-78.776512">
        <ele>3474.00</ele>
        <time>2018-09-08T22:45:57Z</time>
      </trkpt>
      <trkpt lat="-2.602637" lon="-78.776512">
        <ele>3474.00</ele>
        <time>2018-09-08T22:45:58Z</time>
      </trkpt>
      <trkpt lat="-2.602637" lon="-78.776512">
        <ele>3474.00</ele>
        <time>2018-09-08T22:45:59Z</time>
      </trkpt>
      <trkpt lat="-2.602638" lon="-78.776512">
        <ele>3474.00</ele>
        <time>2018-09-08T22:46:00Z</time>
      </trkpt>
      <trkpt lat="-2.602638" lon="-78.776512">
        <ele>3474.00</ele>
        <time>2018-09-08T22:46:01Z</time>
      </trkpt>
      <trkpt lat="-2.602638" lon="-78.776512">
        <ele>3474.00</ele>
        <time>2018-09-08T22:46:02Z</time>
      </trkpt>
      <trkpt lat="-2.602638" lon="-78.776512">
        <ele>3474.00</ele>
        <time>2018-09-08T22:46:03Z</time>
      </trkpt>
      <trkpt lat="-2.602639" lon="-78.776512">
        <ele>3475.00</ele>
        <time>2018-09-08T22:46:04Z</time>
      </trkpt>
      <trkpt lat="-2.602638" lon="-78.776512">
        <ele>3475.00</ele>
        <time>2018-09-08T22:46:05Z</time>
      </trkpt>
      <trkpt lat="-2.602632" lon="-78.776505">
        <ele>3475.00</ele>
        <time>2018-09-08T22:46:06Z</time>
      </trkpt>
      <trkpt lat="-2.602627" lon="-78.776497">
        <ele>3475.00</ele>
        <time>2018-09-08T22:46:07Z</time>
      </trkpt>
      <trkpt lat="-2.602625" lon="-78.776497">
        <ele>3475.00</ele>
        <time>2018-09-08T22:46:08Z</time>
      </trkpt>
      <trkpt lat="-2.602625" lon="-78.776497">
        <ele>3475.00</ele>
        <time>2018-09-08T22:46:09Z</time>
      </trkpt>
      <trkpt lat="-2.602626" lon="-78.776497">
        <ele>3475.00</ele>
        <time>2018-09-08T22:46:10Z</time>
      </trkpt>
      <trkpt lat="-2.602627" lon="-78.776497">
        <ele>3475.00</ele>
        <time>2018-09-08T22:46:11Z</time>
      </trkpt>
      <trkpt lat="-2.602627" lon="-78.776497">
        <ele>3475.00</ele>
        <time>2018-09-08T22:46:12Z</time>
      </trkpt>
      <trkpt lat="-2.602627" lon="-78.776497">
        <ele>3475.00</ele>
        <time>2018-09-08T22:46:13Z</time>
      </trkpt>
      <trkpt lat="-2.602627" lon="-78.776497">
        <ele>3475.00</ele>
        <time>2018-09-08T22:46:14Z</time>
      </trkpt>
      <trkpt lat="-2.602628" lon="-78.776497">
        <ele>3475.00</ele>
        <time>2018-09-08T22:46:15Z</time>
      </trkpt>
      <trkpt lat="-2.602629" lon="-78.776497">
        <ele>3475.00</ele>
        <time>2018-09-08T22:46:16Z</time>
      </trkpt>
      <trkpt lat="-2.602629" lon="-78.776497">
        <ele>3475.00</ele>
        <time>2018-09-08T22:46:17Z</time>
      </trkpt>
      <trkpt lat="-2.602630" lon="-78.776497">
        <ele>3475.00</ele>
        <time>2018-09-08T22:46:18Z</time>
      </trkpt>
      <trkpt lat="-2.602631" lon="-78.776497">
        <ele>3475.00</ele>
        <time>2018-09-08T22:46:19Z</time>
      </trkpt>
      <trkpt lat="-2.602632" lon="-78.776497">
        <ele>3475.00</ele>
        <time>2018-09-08T22:46:20Z</time>
      </trkpt>
      <trkpt lat="-2.602633" lon="-78.776497">
        <ele>3475.00</ele>
        <time>2018-09-08T22:46:21Z</time>
      </trkpt>
      <trkpt lat="-2.602634" lon="-78.776497">
        <ele>3475.00</ele>
        <time>2018-09-08T22:46:22Z</time>
      </trkpt>
      <trkpt lat="-2.602636" lon="-78.776505">
        <ele>3475.00</ele>
        <time>2018-09-08T22:46:23Z</time>
      </trkpt>
      <trkpt lat="-2.602633" lon="-78.776505">
        <ele>3475.00</ele>
        <time>2018-09-08T22:46:24Z</time>
      </trkpt>
      <trkpt lat="-2.602629" lon="-78.776505">
        <ele>3475.00</ele>
        <time>2018-09-08T22:46:25Z</time>
      </trkpt>
      <trkpt lat="-2.602629" lon="-78.776505">
        <ele>3475.00</ele>
        <time>2018-09-08T22:46:26Z</time>
      </trkpt>
      <trkpt lat="-2.602629" lon="-78.776505">
        <ele>3475.00</ele>
        <time>2018-09-08T22:46:27Z</time>
      </trkpt>
      <trkpt lat="-2.602629" lon="-78.776505">
        <ele>3475.00</ele>
        <time>2018-09-08T22:46:28Z</time>
      </trkpt>
      <trkpt lat="-2.602629" lon="-78.776505">
        <ele>3475.00</ele>
        <time>2018-09-08T22:46:29Z</time>
      </trkpt>
      <trkpt lat="-2.602629" lon="-78.776505">
        <ele>3475.00</ele>
        <time>2018-09-08T22:46:30Z</time>
      </trkpt>
      <trkpt lat="-2.602629" lon="-78.776512">
        <ele>3475.00</ele>
        <time>2018-09-08T22:46:31Z</time>
      </trkpt>
      <trkpt lat="-2.602629" lon="-78.776512">
        <ele>3475.00</ele>
        <time>2018-09-08T22:46:32Z</time>
      </trkpt>
      <trkpt lat="-2.602628" lon="-78.776512">
        <ele>3475.00</ele>
        <time>2018-09-08T22:46:33Z</time>
      </trkpt>
      <trkpt lat="-2.602627" lon="-78.776512">
        <ele>3475.00</ele>
        <time>2018-09-08T22:46:34Z</time>
      </trkpt>
      <trkpt lat="-2.602626" lon="-78.776512">
        <ele>3475.00</ele>
        <time>2018-09-08T22:46:35Z</time>
      </trkpt>
      <trkpt lat="-2.602624" lon="-78.776512">
        <ele>3475.00</ele>
        <time>2018-09-08T22:46:36Z</time>
      </trkpt>
      <trkpt lat="-2.602622" lon="-78.776512">
        <ele>3475.00</ele>
        <time>2018-09-08T22:46:37Z</time>
      </trkpt>
      <trkpt lat="-2.602621" lon="-78.776512">
        <ele>3475.00</ele>
        <time>2018-09-08T22:46:38Z</time>
      </trkpt>
      <trkpt lat="-2.602621" lon="-78.776512">
        <ele>3475.00</ele>
        <time>2018-09-08T22:46:39Z</time>
      </trkpt>
      <trkpt lat="-2.602621" lon="-78.776512">
        <ele>3475.00</ele>
        <time>2018-09-08T22:46:40Z</time>
      </trkpt>
      <trkpt lat="-2.602622" lon="-78.776512">
        <ele>3475.00</ele>
        <time>2018-09-08T22:46:41Z</time>
      </trkpt>
      <trkpt lat="-2.602623" lon="-78.776512">
        <ele>3475.00</ele>
        <time>2018-09-08T22:46:42Z</time>
      </trkpt>
      <trkpt lat="-2.602622" lon="-78.776527">
        <ele>3475.00</ele>
        <time>2018-09-08T22:46:43Z</time>
      </trkpt>
      <trkpt lat="-2.602621" lon="-78.776527">
        <ele>3475.00</ele>
        <time>2018-09-08T22:46:44Z</time>
      </trkpt>
      <trkpt lat="-2.602621" lon="-78.776527">
        <ele>3475.00</ele>
        <time>2018-09-08T22:46:45Z</time>
      </trkpt>
      <trkpt lat="-2.602622" lon="-78.776527">
        <ele>3475.00</ele>
        <time>2018-09-08T22:46:46Z</time>
      </trkpt>
      <trkpt lat="-2.602622" lon="-78.776527">
        <ele>3475.00</ele>
        <time>2018-09-08T22:46:47Z</time>
      </trkpt>
      <trkpt lat="-2.602622" lon="-78.776527">
        <ele>3475.00</ele>
        <time>2018-09-08T22:46:48Z</time>
      </trkpt>
      <trkpt lat="-2.602623" lon="-78.776527">
        <ele>3475.00</ele>
        <time>2018-09-08T22:46:49Z</time>
      </trkpt>
      <trkpt lat="-2.602623" lon="-78.776527">
        <ele>3475.00</ele>
        <time>2018-09-08T22:46:50Z</time>
      </trkpt>
      <trkpt lat="-2.602623" lon="-78.776527">
        <ele>3475.00</ele>
        <time>2018-09-08T22:46:51Z</time>
      </trkpt>
      <trkpt lat="-2.602623" lon="-78.776527">
        <ele>3475.00</ele>
        <time>2018-09-08T22:46:52Z</time>
      </trkpt>
      <trkpt lat="-2.602623" lon="-78.776527">
        <ele>3475.00</ele>
        <time>2018-09-08T22:46:53Z</time>
      </trkpt>
      <trkpt lat="-2.602623" lon="-78.776527">
        <ele>3475.00</ele>
        <time>2018-09-08T22:46:54Z</time>
      </trkpt>
      <trkpt lat="-2.602623" lon="-78.776527">
        <ele>3476.00</ele>
        <time>2018-09-08T22:46:55Z</time>
      </trkpt>
      <trkpt lat="-2.602623" lon="-78.776535">
        <ele>3476.00</ele>
        <time>2018-09-08T22:46:56Z</time>
      </trkpt>
      <trkpt lat="-2.602624" lon="-78.776535">
        <ele>3476.00</ele>
        <time>2018-09-08T22:46:57Z</time>
      </trkpt>
      <trkpt lat="-2.602623" lon="-78.776535">
        <ele>3476.00</ele>
        <time>2018-09-08T22:46:58Z</time>
      </trkpt>
      <trkpt lat="-2.602623" lon="-78.776535">
        <ele>3476.00</ele>
        <time>2018-09-08T22:46:59Z</time>
      </trkpt>
      <trkpt lat="-2.602623" lon="-78.776535">
        <ele>3476.00</ele>
        <time>2018-09-08T22:47:00Z</time>
      </trkpt>
      <trkpt lat="-2.602621" lon="-78.776535">
        <ele>3476.00</ele>
        <time>2018-09-08T22:47:01Z</time>
      </trkpt>
      <trkpt lat="-2.602621" lon="-78.776535">
        <ele>3476.00</ele>
        <time>2018-09-08T22:47:02Z</time>
      </trkpt>
      <trkpt lat="-2.602620" lon="-78.776535">
        <ele>3476.00</ele>
        <time>2018-09-08T22:47:03Z</time>
      </trkpt>
      <trkpt lat="-2.602620" lon="-78.776535">
        <ele>3476.00</ele>
        <time>2018-09-08T22:47:04Z</time>
      </trkpt>
      <trkpt lat="-2.602620" lon="-78.776535">
        <ele>3476.00</ele>
        <time>2018-09-08T22:47:05Z</time>
      </trkpt>
      <trkpt lat="-2.602620" lon="-78.776535">
        <ele>3476.00</ele>
        <time>2018-09-08T22:47:06Z</time>
      </trkpt>
      <trkpt lat="-2.602620" lon="-78.776535">
        <ele>3476.00</ele>
        <time>2018-09-08T22:47:07Z</time>
      </trkpt>
      <trkpt lat="-2.602620" lon="-78.776535">
        <ele>3476.00</ele>
        <time>2018-09-08T22:47:08Z</time>
      </trkpt>
      <trkpt lat="-2.602619" lon="-78.776535">
        <ele>3476.00</ele>
        <time>2018-09-08T22:47:09Z</time>
      </trkpt>
      <trkpt lat="-2.602619" lon="-78.776535">
        <ele>3476.00</ele>
        <time>2018-09-08T22:47:10Z</time>
      </trkpt>
      <trkpt lat="-2.602619" lon="-78.776535">
        <ele>3476.00</ele>
        <time>2018-09-08T22:47:11Z</time>
      </trkpt>
      <trkpt lat="-2.602618" lon="-78.776535">
        <ele>3476.00</ele>
        <time>2018-09-08T22:47:12Z</time>
      </trkpt>
      <trkpt lat="-2.602614" lon="-78.776543">
        <ele>3476.00</ele>
        <time>2018-09-08T22:47:13Z</time>
      </trkpt>
      <trkpt lat="-2.602616" lon="-78.776535">
        <ele>3476.00</ele>
        <time>2018-09-08T22:47:14Z</time>
      </trkpt>
      <trkpt lat="-2.602616" lon="-78.776535">
        <ele>3476.00</ele>
        <time>2018-09-08T22:47:15Z</time>
      </trkpt>
      <trkpt lat="-2.602616" lon="-78.776535">
        <ele>3476.00</ele>
        <time>2018-09-08T22:47:16Z</time>
      </trkpt>
      <trkpt lat="-2.602616" lon="-78.776535">
        <ele>3476.00</ele>
        <time>2018-09-08T22:47:17Z</time>
      </trkpt>
      <trkpt lat="-2.602616" lon="-78.776535">
        <ele>3476.00</ele>
        <time>2018-09-08T22:47:18Z</time>
      </trkpt>
      <trkpt lat="-2.602618" lon="-78.776527">
        <ele>3476.00</ele>
        <time>2018-09-08T22:47:19Z</time>
      </trkpt>
      <trkpt lat="-2.602619" lon="-78.776527">
        <ele>3476.00</ele>
        <time>2018-09-08T22:47:20Z</time>
      </trkpt>
      <trkpt lat="-2.602619" lon="-78.776535">
        <ele>3476.00</ele>
        <time>2018-09-08T22:47:21Z</time>
      </trkpt>
      <trkpt lat="-2.602620" lon="-78.776535">
        <ele>3476.00</ele>
        <time>2018-09-08T22:47:22Z</time>
      </trkpt>
      <trkpt lat="-2.602621" lon="-78.776535">
        <ele>3476.00</ele>
        <time>2018-09-08T22:47:23Z</time>
      </trkpt>
      <trkpt lat="-2.602621" lon="-78.776527">
        <ele>3476.00</ele>
        <time>2018-09-08T22:47:24Z</time>
      </trkpt>
      <trkpt lat="-2.602622" lon="-78.776527">
        <ele>3476.00</ele>
        <time>2018-09-08T22:47:25Z</time>
      </trkpt>
      <trkpt lat="-2.602623" lon="-78.776527">
        <ele>3476.00</ele>
        <time>2018-09-08T22:47:26Z</time>
      </trkpt>
      <trkpt lat="-2.602626" lon="-78.776527">
        <ele>3476.00</ele>
        <time>2018-09-08T22:47:27Z</time>
      </trkpt>
      <trkpt lat="-2.602628" lon="-78.776535">
        <ele>3476.00</ele>
        <time>2018-09-08T22:47:28Z</time>
      </trkpt>
      <trkpt lat="-2.602628" lon="-78.776535">
        <ele>3476.00</ele>
        <time>2018-09-08T22:47:29Z</time>
      </trkpt>
      <trkpt lat="-2.602628" lon="-78.776535">
        <ele>3476.00</ele>
        <time>2018-09-08T22:47:30Z</time>
      </trkpt>
      <trkpt lat="-2.602628" lon="-78.776535">
        <ele>3476.00</ele>
        <time>2018-09-08T22:47:31Z</time>
      </trkpt>
      <trkpt lat="-2.602628" lon="-78.776535">
        <ele>3476.00</ele>
        <time>2018-09-08T22:47:32Z</time>
      </trkpt>
      <trkpt lat="-2.602628" lon="-78.776535">
        <ele>3476.00</ele>
        <time>2018-09-08T22:47:33Z</time>
      </trkpt>
      <trkpt lat="-2.602628" lon="-78.776535">
        <ele>3476.00</ele>
        <time>2018-09-08T22:47:34Z</time>
      </trkpt>
      <trkpt lat="-2.602628" lon="-78.776535">
        <ele>3476.00</ele>
        <time>2018-09-08T22:47:35Z</time>
      </trkpt>
      <trkpt lat="-2.602628" lon="-78.776535">
        <ele>3476.00</ele>
        <time>2018-09-08T22:47:36Z</time>
      </trkpt>
      <trkpt lat="-2.602628" lon="-78.776535">
        <ele>3476.00</ele>
        <time>2018-09-08T22:47:37Z</time>
      </trkpt>
      <trkpt lat="-2.602628" lon="-78.776535">
        <ele>3476.00</ele>
        <time>2018-09-08T22:47:38Z</time>
      </trkpt>
      <trkpt lat="-2.602629" lon="-78.776535">
        <ele>3476.00</ele>
        <time>2018-09-08T22:47:39Z</time>
      </trkpt>
      <trkpt lat="-2.602629" lon="-78.776535">
        <ele>3476.00</ele>
        <time>2018-09-08T22:47:40Z</time>
      </trkpt>
      <trkpt lat="-2.602629" lon="-78.776535">
        <ele>3476.00</ele>
        <time>2018-09-08T22:47:41Z</time>
      </trkpt>
      <trkpt lat="-2.602629" lon="-78.776535">
        <ele>3476.00</ele>
        <time>2018-09-08T22:47:42Z</time>
      </trkpt>
      <trkpt lat="-2.602629" lon="-78.776535">
        <ele>3476.00</ele>
        <time>2018-09-08T22:47:43Z</time>
      </trkpt>
      <trkpt lat="-2.602628" lon="-78.776543">
        <ele>3476.00</ele>
        <time>2018-09-08T22:47:44Z</time>
      </trkpt>
      <trkpt lat="-2.602628" lon="-78.776543">
        <ele>3476.00</ele>
        <time>2018-09-08T22:47:45Z</time>
      </trkpt>
      <trkpt lat="-2.602627" lon="-78.776543">
        <ele>3476.00</ele>
        <time>2018-09-08T22:47:46Z</time>
      </trkpt>
      <trkpt lat="-2.602626" lon="-78.776543">
        <ele>3476.00</ele>
        <time>2018-09-08T22:47:47Z</time>
      </trkpt>
      <trkpt lat="-2.602626" lon="-78.776543">
        <ele>3476.00</ele>
        <time>2018-09-08T22:47:48Z</time>
      </trkpt>
      <trkpt lat="-2.602626" lon="-78.776543">
        <ele>3476.00</ele>
        <time>2018-09-08T22:47:49Z</time>
      </trkpt>
      <trkpt lat="-2.602627" lon="-78.776543">
        <ele>3476.00</ele>
        <time>2018-09-08T22:47:50Z</time>
      </trkpt>
      <trkpt lat="-2.602628" lon="-78.776543">
        <ele>3476.00</ele>
        <time>2018-09-08T22:47:51Z</time>
      </trkpt>
      <trkpt lat="-2.602628" lon="-78.776543">
        <ele>3476.00</ele>
        <time>2018-09-08T22:47:52Z</time>
      </trkpt>
      <trkpt lat="-2.602628" lon="-78.776543">
        <ele>3476.00</ele>
        <time>2018-09-08T22:47:53Z</time>
      </trkpt>
      <trkpt lat="-2.602632" lon="-78.776543">
        <ele>3476.00</ele>
        <time>2018-09-08T22:47:54Z</time>
      </trkpt>
      <trkpt lat="-2.602633" lon="-78.776543">
        <ele>3476.00</ele>
        <time>2018-09-08T22:47:55Z</time>
      </trkpt>
      <trkpt lat="-2.602634" lon="-78.776550">
        <ele>3477.00</ele>
        <time>2018-09-08T22:47:56Z</time>
      </trkpt>
      <trkpt lat="-2.602634" lon="-78.776550">
        <ele>3477.00</ele>
        <time>2018-09-08T22:47:57Z</time>
      </trkpt>
      <trkpt lat="-2.602634" lon="-78.776550">
        <ele>3477.00</ele>
        <time>2018-09-08T22:47:58Z</time>
      </trkpt>
      <trkpt lat="-2.602634" lon="-78.776550">
        <ele>3477.00</ele>
        <time>2018-09-08T22:47:59Z</time>
      </trkpt>
      <trkpt lat="-2.602634" lon="-78.776550">
        <ele>3477.00</ele>
        <time>2018-09-08T22:48:00Z</time>
      </trkpt>
      <trkpt lat="-2.602635" lon="-78.776550">
        <ele>3477.00</ele>
        <time>2018-09-08T22:48:01Z</time>
      </trkpt>
      <trkpt lat="-2.602636" lon="-78.776550">
        <ele>3477.00</ele>
        <time>2018-09-08T22:48:02Z</time>
      </trkpt>
      <trkpt lat="-2.602637" lon="-78.776550">
        <ele>3477.00</ele>
        <time>2018-09-08T22:48:03Z</time>
      </trkpt>
      <trkpt lat="-2.602637" lon="-78.776550">
        <ele>3477.00</ele>
        <time>2018-09-08T22:48:04Z</time>
      </trkpt>
      <trkpt lat="-2.602637" lon="-78.776550">
        <ele>3477.00</ele>
        <time>2018-09-08T22:48:05Z</time>
      </trkpt>
      <trkpt lat="-2.602637" lon="-78.776550">
        <ele>3477.00</ele>
        <time>2018-09-08T22:48:06Z</time>
      </trkpt>
      <trkpt lat="-2.602637" lon="-78.776543">
        <ele>3477.00</ele>
        <time>2018-09-08T22:48:07Z</time>
      </trkpt>
      <trkpt lat="-2.602638" lon="-78.776543">
        <ele>3477.00</ele>
        <time>2018-09-08T22:48:08Z</time>
      </trkpt>
      <trkpt lat="-2.602638" lon="-78.776543">
        <ele>3477.00</ele>
        <time>2018-09-08T22:48:09Z</time>
      </trkpt>
      <trkpt lat="-2.602638" lon="-78.776543">
        <ele>3477.00</ele>
        <time>2018-09-08T22:48:10Z</time>
      </trkpt>
      <trkpt lat="-2.602638" lon="-78.776543">
        <ele>3477.00</ele>
        <time>2018-09-08T22:48:11Z</time>
      </trkpt>
      <trkpt lat="-2.602638" lon="-78.776543">
        <ele>3477.00</ele>
        <time>2018-09-08T22:48:12Z</time>
      </trkpt>
      <trkpt lat="-2.602638" lon="-78.776543">
        <ele>3477.00</ele>
        <time>2018-09-08T22:48:13Z</time>
      </trkpt>
      <trkpt lat="-2.602638" lon="-78.776543">
        <ele>3477.00</ele>
        <time>2018-09-08T22:48:14Z</time>
      </trkpt>
      <trkpt lat="-2.602638" lon="-78.776543">
        <ele>3477.00</ele>
        <time>2018-09-08T22:48:15Z</time>
      </trkpt>
      <trkpt lat="-2.602639" lon="-78.776543">
        <ele>3477.00</ele>
        <time>2018-09-08T22:48:16Z</time>
      </trkpt>
      <trkpt lat="-2.602639" lon="-78.776543">
        <ele>3477.00</ele>
        <time>2018-09-08T22:48:17Z</time>
      </trkpt>
      <trkpt lat="-2.602639" lon="-78.776543">
        <ele>3477.00</ele>
        <time>2018-09-08T22:48:18Z</time>
      </trkpt>
      <trkpt lat="-2.602639" lon="-78.776543">
        <ele>3477.00</ele>
        <time>2018-09-08T22:48:19Z</time>
      </trkpt>
      <trkpt lat="-2.602639" lon="-78.776543">
        <ele>3477.00</ele>
        <time>2018-09-08T22:48:20Z</time>
      </trkpt>
      <trkpt lat="-2.602639" lon="-78.776550">
        <ele>3477.00</ele>
        <time>2018-09-08T22:48:21Z</time>
      </trkpt>
      <trkpt lat="-2.602639" lon="-78.776550">
        <ele>3477.00</ele>
        <time>2018-09-08T22:48:22Z</time>
      </trkpt>
      <trkpt lat="-2.602639" lon="-78.776550">
        <ele>3477.00</ele>
        <time>2018-09-08T22:48:23Z</time>
      </trkpt>
      <trkpt lat="-2.602639" lon="-78.776550">
        <ele>3477.00</ele>
        <time>2018-09-08T22:48:24Z</time>
      </trkpt>
      <trkpt lat="-2.602639" lon="-78.776550">
        <ele>3477.00</ele>
        <time>2018-09-08T22:48:25Z</time>
      </trkpt>
      <trkpt lat="-2.602639" lon="-78.776550">
        <ele>3477.00</ele>
        <time>2018-09-08T22:48:26Z</time>
      </trkpt>
      <trkpt lat="-2.602639" lon="-78.776550">
        <ele>3477.00</ele>
        <time>2018-09-08T22:48:27Z</time>
      </trkpt>
      <trkpt lat="-2.602639" lon="-78.776550">
        <ele>3477.00</ele>
        <time>2018-09-08T22:48:28Z</time>
      </trkpt>
      <trkpt lat="-2.602638" lon="-78.776550">
        <ele>3477.00</ele>
        <time>2018-09-08T22:48:29Z</time>
      </trkpt>
      <trkpt lat="-2.602638" lon="-78.776550">
        <ele>3477.00</ele>
        <time>2018-09-08T22:48:30Z</time>
      </trkpt>
      <trkpt lat="-2.602638" lon="-78.776550">
        <ele>3477.00</ele>
        <time>2018-09-08T22:48:31Z</time>
      </trkpt>
      <trkpt lat="-2.602639" lon="-78.776550">
        <ele>3477.00</ele>
        <time>2018-09-08T22:48:32Z</time>
      </trkpt>
      <trkpt lat="-2.602639" lon="-78.776550">
        <ele>3477.00</ele>
        <time>2018-09-08T22:48:33Z</time>
      </trkpt>
      <trkpt lat="-2.602640" lon="-78.776550">
        <ele>3477.00</ele>
        <time>2018-09-08T22:48:34Z</time>
      </trkpt>
      <trkpt lat="-2.602639" lon="-78.776550">
        <ele>3477.00</ele>
        <time>2018-09-08T22:48:35Z</time>
      </trkpt>
      <trkpt lat="-2.602639" lon="-78.776550">
        <ele>3477.00</ele>
        <time>2018-09-08T22:48:36Z</time>
      </trkpt>
      <trkpt lat="-2.602638" lon="-78.776550">
        <ele>3477.00</ele>
        <time>2018-09-08T22:48:37Z</time>
      </trkpt>
      <trkpt lat="-2.602637" lon="-78.776550">
        <ele>3477.00</ele>
        <time>2018-09-08T22:48:38Z</time>
      </trkpt>
      <trkpt lat="-2.602637" lon="-78.776550">
        <ele>3477.00</ele>
        <time>2018-09-08T22:48:39Z</time>
      </trkpt>
      <trkpt lat="-2.602637" lon="-78.776550">
        <ele>3477.00</ele>
        <time>2018-09-08T22:48:40Z</time>
      </trkpt>
      <trkpt lat="-2.602636" lon="-78.776550">
        <ele>3477.00</ele>
        <time>2018-09-08T22:48:41Z</time>
      </trkpt>
      <trkpt lat="-2.602636" lon="-78.776550">
        <ele>3477.00</ele>
        <time>2018-09-08T22:48:42Z</time>
      </trkpt>
      <trkpt lat="-2.602636" lon="-78.776550">
        <ele>3477.00</ele>
        <time>2018-09-08T22:48:43Z</time>
      </trkpt>
      <trkpt lat="-2.602636" lon="-78.776550">
        <ele>3477.00</ele>
        <time>2018-09-08T22:48:44Z</time>
      </trkpt>
      <trkpt lat="-2.602636" lon="-78.776550">
        <ele>3477.00</ele>
        <time>2018-09-08T22:48:45Z</time>
      </trkpt>
      <trkpt lat="-2.602636" lon="-78.776550">
        <ele>3477.00</ele>
        <time>2018-09-08T22:48:46Z</time>
      </trkpt>
      <trkpt lat="-2.602637" lon="-78.776550">
        <ele>3477.00</ele>
        <time>2018-09-08T22:48:47Z</time>
      </trkpt>
      <trkpt lat="-2.602636" lon="-78.776550">
        <ele>3477.00</ele>
        <time>2018-09-08T22:48:48Z</time>
      </trkpt>
      <trkpt lat="-2.602634" lon="-78.776550">
        <ele>3477.00</ele>
        <time>2018-09-08T22:48:49Z</time>
      </trkpt>
      <trkpt lat="-2.602639" lon="-78.776550">
        <ele>3477.00</ele>
        <time>2018-09-08T22:48:50Z</time>
      </trkpt>
      <trkpt lat="-2.602637" lon="-78.776550">
        <ele>3477.00</ele>
        <time>2018-09-08T22:48:51Z</time>
      </trkpt>
      <trkpt lat="-2.602630" lon="-78.776550">
        <ele>3477.00</ele>
        <time>2018-09-08T22:48:52Z</time>
      </trkpt>
      <trkpt lat="-2.602625" lon="-78.776550">
        <ele>3477.00</ele>
        <time>2018-09-08T22:48:53Z</time>
      </trkpt>
      <trkpt lat="-2.602625" lon="-78.776550">
        <ele>3477.00</ele>
        <time>2018-09-08T22:48:54Z</time>
      </trkpt>
      <trkpt lat="-2.602625" lon="-78.776550">
        <ele>3477.00</ele>
        <time>2018-09-08T22:48:55Z</time>
      </trkpt>
      <trkpt lat="-2.602625" lon="-78.776550">
        <ele>3477.00</ele>
        <time>2018-09-08T22:48:56Z</time>
      </trkpt>
      <trkpt lat="-2.602625" lon="-78.776550">
        <ele>3477.00</ele>
        <time>2018-09-08T22:48:57Z</time>
      </trkpt>
      <trkpt lat="-2.602624" lon="-78.776550">
        <ele>3477.00</ele>
        <time>2018-09-08T22:48:58Z</time>
      </trkpt>
      <trkpt lat="-2.602624" lon="-78.776550">
        <ele>3477.00</ele>
        <time>2018-09-08T22:48:59Z</time>
      </trkpt>
      <trkpt lat="-2.602624" lon="-78.776550">
        <ele>3477.00</ele>
        <time>2018-09-08T22:49:00Z</time>
      </trkpt>
      <trkpt lat="-2.602624" lon="-78.776550">
        <ele>3477.00</ele>
        <time>2018-09-08T22:49:01Z</time>
      </trkpt>
      <trkpt lat="-2.602624" lon="-78.776550">
        <ele>3477.00</ele>
        <time>2018-09-08T22:49:02Z</time>
      </trkpt>
      <trkpt lat="-2.602625" lon="-78.776550">
        <ele>3477.00</ele>
        <time>2018-09-08T22:49:03Z</time>
      </trkpt>
      <trkpt lat="-2.602625" lon="-78.776550">
        <ele>3477.00</ele>
        <time>2018-09-08T22:49:04Z</time>
      </trkpt>
      <trkpt lat="-2.602624" lon="-78.776550">
        <ele>3477.00</ele>
        <time>2018-09-08T22:49:05Z</time>
      </trkpt>
      <trkpt lat="-2.602624" lon="-78.776550">
        <ele>3477.00</ele>
        <time>2018-09-08T22:49:06Z</time>
      </trkpt>
      <trkpt lat="-2.602623" lon="-78.776550">
        <ele>3477.00</ele>
        <time>2018-09-08T22:49:07Z</time>
      </trkpt>
      <trkpt lat="-2.602622" lon="-78.776550">
        <ele>3477.00</ele>
        <time>2018-09-08T22:49:08Z</time>
      </trkpt>
      <trkpt lat="-2.602620" lon="-78.776550">
        <ele>3477.00</ele>
        <time>2018-09-08T22:49:09Z</time>
      </trkpt>
      <trkpt lat="-2.602620" lon="-78.776550">
        <ele>3477.00</ele>
        <time>2018-09-08T22:49:10Z</time>
      </trkpt>
      <trkpt lat="-2.602621" lon="-78.776558">
        <ele>3477.00</ele>
        <time>2018-09-08T22:49:11Z</time>
      </trkpt>
      <trkpt lat="-2.602621" lon="-78.776558">
        <ele>3477.00</ele>
        <time>2018-09-08T22:49:12Z</time>
      </trkpt>
      <trkpt lat="-2.602621" lon="-78.776558">
        <ele>3477.00</ele>
        <time>2018-09-08T22:49:13Z</time>
      </trkpt>
      <trkpt lat="-2.602621" lon="-78.776558">
        <ele>3477.00</ele>
        <time>2018-09-08T22:49:14Z</time>
      </trkpt>
      <trkpt lat="-2.602621" lon="-78.776558">
        <ele>3477.00</ele>
        <time>2018-09-08T22:49:15Z</time>
      </trkpt>
      <trkpt lat="-2.602622" lon="-78.776558">
        <ele>3477.00</ele>
        <time>2018-09-08T22:49:16Z</time>
      </trkpt>
      <trkpt lat="-2.602621" lon="-78.776558">
        <ele>3477.00</ele>
        <time>2018-09-08T22:49:17Z</time>
      </trkpt>
      <trkpt lat="-2.602621" lon="-78.776558">
        <ele>3477.00</ele>
        <time>2018-09-08T22:49:18Z</time>
      </trkpt>
      <trkpt lat="-2.602621" lon="-78.776558">
        <ele>3477.00</ele>
        <time>2018-09-08T22:49:19Z</time>
      </trkpt>
      <trkpt lat="-2.602621" lon="-78.776558">
        <ele>3477.00</ele>
        <time>2018-09-08T22:49:20Z</time>
      </trkpt>
      <trkpt lat="-2.602622" lon="-78.776558">
        <ele>3477.00</ele>
        <time>2018-09-08T22:49:21Z</time>
      </trkpt>
      <trkpt lat="-2.602623" lon="-78.776558">
        <ele>3477.00</ele>
        <time>2018-09-08T22:49:22Z</time>
      </trkpt>
      <trkpt lat="-2.602623" lon="-78.776558">
        <ele>3477.00</ele>
        <time>2018-09-08T22:49:23Z</time>
      </trkpt>
      <trkpt lat="-2.602624" lon="-78.776558">
        <ele>3477.00</ele>
        <time>2018-09-08T22:49:24Z</time>
      </trkpt>
      <trkpt lat="-2.602624" lon="-78.776558">
        <ele>3477.00</ele>
        <time>2018-09-08T22:49:25Z</time>
      </trkpt>
      <trkpt lat="-2.602624" lon="-78.776558">
        <ele>3477.00</ele>
        <time>2018-09-08T22:49:26Z</time>
      </trkpt>
      <trkpt lat="-2.602625" lon="-78.776558">
        <ele>3477.00</ele>
        <time>2018-09-08T22:49:27Z</time>
      </trkpt>
      <trkpt lat="-2.602625" lon="-78.776558">
        <ele>3477.00</ele>
        <time>2018-09-08T22:49:28Z</time>
      </trkpt>
      <trkpt lat="-2.602625" lon="-78.776558">
        <ele>3477.00</ele>
        <time>2018-09-08T22:49:29Z</time>
      </trkpt>
      <trkpt lat="-2.602625" lon="-78.776558">
        <ele>3477.00</ele>
        <time>2018-09-08T22:49:30Z</time>
      </trkpt>
      <trkpt lat="-2.602625" lon="-78.776558">
        <ele>3477.00</ele>
        <time>2018-09-08T22:49:31Z</time>
      </trkpt>
      <trkpt lat="-2.602625" lon="-78.776558">
        <ele>3477.00</ele>
        <time>2018-09-08T22:49:32Z</time>
      </trkpt>
      <trkpt lat="-2.602626" lon="-78.776558">
        <ele>3477.00</ele>
        <time>2018-09-08T22:49:33Z</time>
      </trkpt>
      <trkpt lat="-2.602627" lon="-78.776550">
        <ele>3477.00</ele>
        <time>2018-09-08T22:49:34Z</time>
      </trkpt>
      <trkpt lat="-2.602628" lon="-78.776550">
        <ele>3477.00</ele>
        <time>2018-09-08T22:49:35Z</time>
      </trkpt>
      <trkpt lat="-2.602628" lon="-78.776550">
        <ele>3477.00</ele>
        <time>2018-09-08T22:49:36Z</time>
      </trkpt>
      <trkpt lat="-2.602628" lon="-78.776550">
        <ele>3477.00</ele>
        <time>2018-09-08T22:49:37Z</time>
      </trkpt>
      <trkpt lat="-2.602628" lon="-78.776550">
        <ele>3477.00</ele>
        <time>2018-09-08T22:49:38Z</time>
      </trkpt>
      <trkpt lat="-2.602629" lon="-78.776550">
        <ele>3477.00</ele>
        <time>2018-09-08T22:49:39Z</time>
      </trkpt>
      <trkpt lat="-2.602629" lon="-78.776550">
        <ele>3477.00</ele>
        <time>2018-09-08T22:49:40Z</time>
      </trkpt>
      <trkpt lat="-2.602629" lon="-78.776550">
        <ele>3477.00</ele>
        <time>2018-09-08T22:49:41Z</time>
      </trkpt>
      <trkpt lat="-2.602629" lon="-78.776550">
        <ele>3477.00</ele>
        <time>2018-09-08T22:49:42Z</time>
      </trkpt>
      <trkpt lat="-2.602629" lon="-78.776550">
        <ele>3477.00</ele>
        <time>2018-09-08T22:49:43Z</time>
      </trkpt>
      <trkpt lat="-2.602629" lon="-78.776550">
        <ele>3477.00</ele>
        <time>2018-09-08T22:49:44Z</time>
      </trkpt>
      <trkpt lat="-2.602629" lon="-78.776550">
        <ele>3477.00</ele>
        <time>2018-09-08T22:49:45Z</time>
      </trkpt>
      <trkpt lat="-2.602629" lon="-78.776550">
        <ele>3477.00</ele>
        <time>2018-09-08T22:49:46Z</time>
      </trkpt>
      <trkpt lat="-2.602629" lon="-78.776550">
        <ele>3477.00</ele>
        <time>2018-09-08T22:49:47Z</time>
      </trkpt>
      <trkpt lat="-2.602629" lon="-78.776550">
        <ele>3477.00</ele>
        <time>2018-09-08T22:49:48Z</time>
      </trkpt>
      <trkpt lat="-2.602629" lon="-78.776550">
        <ele>3477.00</ele>
        <time>2018-09-08T22:49:49Z</time>
      </trkpt>
      <trkpt lat="-2.602629" lon="-78.776550">
        <ele>3477.00</ele>
        <time>2018-09-08T22:49:50Z</time>
      </trkpt>
      <trkpt lat="-2.602629" lon="-78.776550">
        <ele>3477.00</ele>
        <time>2018-09-08T22:49:51Z</time>
      </trkpt>
      <trkpt lat="-2.602629" lon="-78.776550">
        <ele>3477.00</ele>
        <time>2018-09-08T22:49:52Z</time>
      </trkpt>
      <trkpt lat="-2.602629" lon="-78.776550">
        <ele>3477.00</ele>
        <time>2018-09-08T22:49:53Z</time>
      </trkpt>
      <trkpt lat="-2.602629" lon="-78.776550">
        <ele>3477.00</ele>
        <time>2018-09-08T22:49:54Z</time>
      </trkpt>
      <trkpt lat="-2.602629" lon="-78.776550">
        <ele>3477.00</ele>
        <time>2018-09-08T22:49:55Z</time>
      </trkpt>
      <trkpt lat="-2.602629" lon="-78.776550">
        <ele>3477.00</ele>
        <time>2018-09-08T22:49:56Z</time>
      </trkpt>
      <trkpt lat="-2.602630" lon="-78.776550">
        <ele>3477.00</ele>
        <time>2018-09-08T22:49:57Z</time>
      </trkpt>
      <trkpt lat="-2.602630" lon="-78.776550">
        <ele>3477.00</ele>
        <time>2018-09-08T22:49:58Z</time>
      </trkpt>
      <trkpt lat="-2.602630" lon="-78.776550">
        <ele>3477.00</ele>
        <time>2018-09-08T22:49:59Z</time>
      </trkpt>
      <trkpt lat="-2.602629" lon="-78.776558">
        <ele>3477.00</ele>
        <time>2018-09-08T22:50:00Z</time>
      </trkpt>
      <trkpt lat="-2.602629" lon="-78.776558">
        <ele>3477.00</ele>
        <time>2018-09-08T22:50:01Z</time>
      </trkpt>
      <trkpt lat="-2.602629" lon="-78.776558">
        <ele>3477.00</ele>
        <time>2018-09-08T22:50:02Z</time>
      </trkpt>
      <trkpt lat="-2.602629" lon="-78.776558">
        <ele>3477.00</ele>
        <time>2018-09-08T22:50:03Z</time>
      </trkpt>
      <trkpt lat="-2.602628" lon="-78.776558">
        <ele>3477.00</ele>
        <time>2018-09-08T22:50:04Z</time>
      </trkpt>
      <trkpt lat="-2.602628" lon="-78.776558">
        <ele>3477.00</ele>
        <time>2018-09-08T22:50:05Z</time>
      </trkpt>
      <trkpt lat="-2.602628" lon="-78.776558">
        <ele>3477.00</ele>
        <time>2018-09-08T22:50:06Z</time>
      </trkpt>
      <trkpt lat="-2.602628" lon="-78.776558">
        <ele>3477.00</ele>
        <time>2018-09-08T22:50:07Z</time>
      </trkpt>
      <trkpt lat="-2.602628" lon="-78.776558">
        <ele>3477.00</ele>
        <time>2018-09-08T22:50:08Z</time>
      </trkpt>
      <trkpt lat="-2.602628" lon="-78.776558">
        <ele>3477.00</ele>
        <time>2018-09-08T22:50:09Z</time>
      </trkpt>
      <trkpt lat="-2.602629" lon="-78.776558">
        <ele>3477.00</ele>
        <time>2018-09-08T22:50:10Z</time>
      </trkpt>
      <trkpt lat="-2.602629" lon="-78.776558">
        <ele>3477.00</ele>
        <time>2018-09-08T22:50:11Z</time>
      </trkpt>
      <trkpt lat="-2.602629" lon="-78.776558">
        <ele>3477.00</ele>
        <time>2018-09-08T22:50:12Z</time>
      </trkpt>
      <trkpt lat="-2.602629" lon="-78.776558">
        <ele>3477.00</ele>
        <time>2018-09-08T22:50:13Z</time>
      </trkpt>
      <trkpt lat="-2.602629" lon="-78.776558">
        <ele>3477.00</ele>
        <time>2018-09-08T22:50:14Z</time>
      </trkpt>
      <trkpt lat="-2.602629" lon="-78.776558">
        <ele>3477.00</ele>
        <time>2018-09-08T22:50:15Z</time>
      </trkpt>
      <trkpt lat="-2.602629" lon="-78.776558">
        <ele>3477.00</ele>
        <time>2018-09-08T22:50:16Z</time>
      </trkpt>
      <trkpt lat="-2.602629" lon="-78.776558">
        <ele>3477.00</ele>
        <time>2018-09-08T22:50:17Z</time>
      </trkpt>
      <trkpt lat="-2.602630" lon="-78.776566">
        <ele>3477.00</ele>
        <time>2018-09-08T22:50:18Z</time>
      </trkpt>
      <trkpt lat="-2.602630" lon="-78.776566">
        <ele>3477.00</ele>
        <time>2018-09-08T22:50:19Z</time>
      </trkpt>
      <trkpt lat="-2.602630" lon="-78.776566">
        <ele>3478.00</ele>
        <time>2018-09-08T22:50:20Z</time>
      </trkpt>
      <trkpt lat="-2.602631" lon="-78.776566">
        <ele>3478.00</ele>
        <time>2018-09-08T22:50:21Z</time>
      </trkpt>
      <trkpt lat="-2.602631" lon="-78.776566">
        <ele>3478.00</ele>
        <time>2018-09-08T22:50:22Z</time>
      </trkpt>
      <trkpt lat="-2.602631" lon="-78.776566">
        <ele>3478.00</ele>
        <time>2018-09-08T22:50:23Z</time>
      </trkpt>
      <trkpt lat="-2.602632" lon="-78.776566">
        <ele>3478.00</ele>
        <time>2018-09-08T22:50:24Z</time>
      </trkpt>
      <trkpt lat="-2.602632" lon="-78.776566">
        <ele>3478.00</ele>
        <time>2018-09-08T22:50:25Z</time>
      </trkpt>
      <trkpt lat="-2.602633" lon="-78.776566">
        <ele>3478.00</ele>
        <time>2018-09-08T22:50:26Z</time>
      </trkpt>
      <trkpt lat="-2.602634" lon="-78.776566">
        <ele>3478.00</ele>
        <time>2018-09-08T22:50:27Z</time>
      </trkpt>
      <trkpt lat="-2.602634" lon="-78.776566">
        <ele>3478.00</ele>
        <time>2018-09-08T22:50:28Z</time>
      </trkpt>
      <trkpt lat="-2.602634" lon="-78.776566">
        <ele>3478.00</ele>
        <time>2018-09-08T22:50:29Z</time>
      </trkpt>
      <trkpt lat="-2.602635" lon="-78.776566">
        <ele>3478.00</ele>
        <time>2018-09-08T22:50:30Z</time>
      </trkpt>
      <trkpt lat="-2.602636" lon="-78.776566">
        <ele>3478.00</ele>
        <time>2018-09-08T22:50:31Z</time>
      </trkpt>
      <trkpt lat="-2.602636" lon="-78.776566">
        <ele>3478.00</ele>
        <time>2018-09-08T22:50:32Z</time>
      </trkpt>
      <trkpt lat="-2.602636" lon="-78.776566">
        <ele>3478.00</ele>
        <time>2018-09-08T22:50:33Z</time>
      </trkpt>
      <trkpt lat="-2.602636" lon="-78.776558">
        <ele>3478.00</ele>
        <time>2018-09-08T22:50:34Z</time>
      </trkpt>
      <trkpt lat="-2.602636" lon="-78.776558">
        <ele>3478.00</ele>
        <time>2018-09-08T22:50:35Z</time>
      </trkpt>
      <trkpt lat="-2.602637" lon="-78.776558">
        <ele>3478.00</ele>
        <time>2018-09-08T22:50:36Z</time>
      </trkpt>
      <trkpt lat="-2.602637" lon="-78.776558">
        <ele>3478.00</ele>
        <time>2018-09-08T22:50:37Z</time>
      </trkpt>
      <trkpt lat="-2.602637" lon="-78.776558">
        <ele>3478.00</ele>
        <time>2018-09-08T22:50:38Z</time>
      </trkpt>
      <trkpt lat="-2.602636" lon="-78.776558">
        <ele>3478.00</ele>
        <time>2018-09-08T22:50:39Z</time>
      </trkpt>
      <trkpt lat="-2.602636" lon="-78.776558">
        <ele>3478.00</ele>
        <time>2018-09-08T22:50:40Z</time>
      </trkpt>
      <trkpt lat="-2.602636" lon="-78.776558">
        <ele>3478.00</ele>
        <time>2018-09-08T22:50:41Z</time>
      </trkpt>
      <trkpt lat="-2.602635" lon="-78.776558">
        <ele>3478.00</ele>
        <time>2018-09-08T22:50:42Z</time>
      </trkpt>
      <trkpt lat="-2.602636" lon="-78.776566">
        <ele>3478.00</ele>
        <time>2018-09-08T22:50:43Z</time>
      </trkpt>
      <trkpt lat="-2.602636" lon="-78.776566">
        <ele>3478.00</ele>
        <time>2018-09-08T22:50:44Z</time>
      </trkpt>
      <trkpt lat="-2.602636" lon="-78.776566">
        <ele>3478.00</ele>
        <time>2018-09-08T22:50:45Z</time>
      </trkpt>
      <trkpt lat="-2.602636" lon="-78.776566">
        <ele>3478.00</ele>
        <time>2018-09-08T22:50:46Z</time>
      </trkpt>
      <trkpt lat="-2.602636" lon="-78.776566">
        <ele>3478.00</ele>
        <time>2018-09-08T22:50:47Z</time>
      </trkpt>
      <trkpt lat="-2.602636" lon="-78.776566">
        <ele>3478.00</ele>
        <time>2018-09-08T22:50:48Z</time>
      </trkpt>
      <trkpt lat="-2.602635" lon="-78.776566">
        <ele>3478.00</ele>
        <time>2018-09-08T22:50:49Z</time>
      </trkpt>
      <trkpt lat="-2.602635" lon="-78.776566">
        <ele>3478.00</ele>
        <time>2018-09-08T22:50:50Z</time>
      </trkpt>
      <trkpt lat="-2.602635" lon="-78.776566">
        <ele>3478.00</ele>
        <time>2018-09-08T22:50:51Z</time>
      </trkpt>
      <trkpt lat="-2.602635" lon="-78.776566">
        <ele>3478.00</ele>
        <time>2018-09-08T22:50:52Z</time>
      </trkpt>
      <trkpt lat="-2.602636" lon="-78.776566">
        <ele>3478.00</ele>
        <time>2018-09-08T22:50:53Z</time>
      </trkpt>
      <trkpt lat="-2.602636" lon="-78.776566">
        <ele>3478.00</ele>
        <time>2018-09-08T22:50:54Z</time>
      </trkpt>
      <trkpt lat="-2.602636" lon="-78.776566">
        <ele>3478.00</ele>
        <time>2018-09-08T22:50:55Z</time>
      </trkpt>
      <trkpt lat="-2.602636" lon="-78.776566">
        <ele>3478.00</ele>
        <time>2018-09-08T22:50:56Z</time>
      </trkpt>
      <trkpt lat="-2.602636" lon="-78.776566">
        <ele>3478.00</ele>
        <time>2018-09-08T22:50:57Z</time>
      </trkpt>
      <trkpt lat="-2.602636" lon="-78.776566">
        <ele>3478.00</ele>
        <time>2018-09-08T22:50:58Z</time>
      </trkpt>
      <trkpt lat="-2.602636" lon="-78.776566">
        <ele>3478.00</ele>
        <time>2018-09-08T22:50:59Z</time>
      </trkpt>
      <trkpt lat="-2.602637" lon="-78.776558">
        <ele>3478.00</ele>
        <time>2018-09-08T22:51:00Z</time>
      </trkpt>
      <trkpt lat="-2.602637" lon="-78.776558">
        <ele>3478.00</ele>
        <time>2018-09-08T22:51:01Z</time>
      </trkpt>
      <trkpt lat="-2.602638" lon="-78.776558">
        <ele>3478.00</ele>
        <time>2018-09-08T22:51:02Z</time>
      </trkpt>
      <trkpt lat="-2.602638" lon="-78.776558">
        <ele>3478.00</ele>
        <time>2018-09-08T22:51:03Z</time>
      </trkpt>
      <trkpt lat="-2.602638" lon="-78.776558">
        <ele>3478.00</ele>
        <time>2018-09-08T22:51:04Z</time>
      </trkpt>
      <trkpt lat="-2.602638" lon="-78.776558">
        <ele>3478.00</ele>
        <time>2018-09-08T22:51:05Z</time>
      </trkpt>
      <trkpt lat="-2.602638" lon="-78.776558">
        <ele>3478.00</ele>
        <time>2018-09-08T22:51:06Z</time>
      </trkpt>
      <trkpt lat="-2.602638" lon="-78.776558">
        <ele>3478.00</ele>
        <time>2018-09-08T22:51:07Z</time>
      </trkpt>
      <trkpt lat="-2.602638" lon="-78.776558">
        <ele>3478.00</ele>
        <time>2018-09-08T22:51:08Z</time>
      </trkpt>
      <trkpt lat="-2.602638" lon="-78.776558">
        <ele>3478.00</ele>
        <time>2018-09-08T22:51:09Z</time>
      </trkpt>
      <trkpt lat="-2.602638" lon="-78.776558">
        <ele>3478.00</ele>
        <time>2018-09-08T22:51:10Z</time>
      </trkpt>
      <trkpt lat="-2.602638" lon="-78.776558">
        <ele>3478.00</ele>
        <time>2018-09-08T22:51:11Z</time>
      </trkpt>
      <trkpt lat="-2.602637" lon="-78.776558">
        <ele>3478.00</ele>
        <time>2018-09-08T22:51:12Z</time>
      </trkpt>
      <trkpt lat="-2.602638" lon="-78.776558">
        <ele>3478.00</ele>
        <time>2018-09-08T22:51:13Z</time>
      </trkpt>
      <trkpt lat="-2.602638" lon="-78.776558">
        <ele>3478.00</ele>
        <time>2018-09-08T22:51:14Z</time>
      </trkpt>
      <trkpt lat="-2.602638" lon="-78.776558">
        <ele>3478.00</ele>
        <time>2018-09-08T22:51:15Z</time>
      </trkpt>
      <trkpt lat="-2.602638" lon="-78.776558">
        <ele>3478.00</ele>
        <time>2018-09-08T22:51:16Z</time>
      </trkpt>
      <trkpt lat="-2.602639" lon="-78.776558">
        <ele>3478.00</ele>
        <time>2018-09-08T22:51:17Z</time>
      </trkpt>
      <trkpt lat="-2.602639" lon="-78.776558">
        <ele>3478.00</ele>
        <time>2018-09-08T22:51:18Z</time>
      </trkpt>
      <trkpt lat="-2.602639" lon="-78.776558">
        <ele>3478.00</ele>
        <time>2018-09-08T22:51:19Z</time>
      </trkpt>
      <trkpt lat="-2.602639" lon="-78.776558">
        <ele>3478.00</ele>
        <time>2018-09-08T22:51:20Z</time>
      </trkpt>
      <trkpt lat="-2.602638" lon="-78.776558">
        <ele>3478.00</ele>
        <time>2018-09-08T22:51:21Z</time>
      </trkpt>
      <trkpt lat="-2.602638" lon="-78.776558">
        <ele>3478.00</ele>
        <time>2018-09-08T22:51:22Z</time>
      </trkpt>
      <trkpt lat="-2.602638" lon="-78.776558">
        <ele>3478.00</ele>
        <time>2018-09-08T22:51:23Z</time>
      </trkpt>
      <trkpt lat="-2.602638" lon="-78.776558">
        <ele>3478.00</ele>
        <time>2018-09-08T22:51:24Z</time>
      </trkpt>
      <trkpt lat="-2.602637" lon="-78.776558">
        <ele>3478.00</ele>
        <time>2018-09-08T22:51:25Z</time>
      </trkpt>
      <trkpt lat="-2.602637" lon="-78.776558">
        <ele>3478.00</ele>
        <time>2018-09-08T22:51:26Z</time>
      </trkpt>
      <trkpt lat="-2.602637" lon="-78.776558">
        <ele>3478.00</ele>
        <time>2018-09-08T22:51:27Z</time>
      </trkpt>
      <trkpt lat="-2.602636" lon="-78.776558">
        <ele>3478.00</ele>
        <time>2018-09-08T22:51:28Z</time>
      </trkpt>
      <trkpt lat="-2.602635" lon="-78.776558">
        <ele>3478.00</ele>
        <time>2018-09-08T22:51:29Z</time>
      </trkpt>
      <trkpt lat="-2.602634" lon="-78.776558">
        <ele>3478.00</ele>
        <time>2018-09-08T22:51:30Z</time>
      </trkpt>
      <trkpt lat="-2.602634" lon="-78.776558">
        <ele>3478.00</ele>
        <time>2018-09-08T22:51:31Z</time>
      </trkpt>
      <trkpt lat="-2.602634" lon="-78.776558">
        <ele>3478.00</ele>
        <time>2018-09-08T22:51:32Z</time>
      </trkpt>
      <trkpt lat="-2.602633" lon="-78.776558">
        <ele>3478.00</ele>
        <time>2018-09-08T22:51:33Z</time>
      </trkpt>
      <trkpt lat="-2.602633" lon="-78.776558">
        <ele>3478.00</ele>
        <time>2018-09-08T22:51:34Z</time>
      </trkpt>
      <trkpt lat="-2.602632" lon="-78.776558">
        <ele>3478.00</ele>
        <time>2018-09-08T22:51:35Z</time>
      </trkpt>
      <trkpt lat="-2.602632" lon="-78.776558">
        <ele>3478.00</ele>
        <time>2018-09-08T22:51:36Z</time>
      </trkpt>
      <trkpt lat="-2.602632" lon="-78.776558">
        <ele>3478.00</ele>
        <time>2018-09-08T22:51:37Z</time>
      </trkpt>
      <trkpt lat="-2.602632" lon="-78.776558">
        <ele>3478.00</ele>
        <time>2018-09-08T22:51:38Z</time>
      </trkpt>
      <trkpt lat="-2.602632" lon="-78.776558">
        <ele>3478.00</ele>
        <time>2018-09-08T22:51:39Z</time>
      </trkpt>
      <trkpt lat="-2.602632" lon="-78.776558">
        <ele>3478.00</ele>
        <time>2018-09-08T22:51:40Z</time>
      </trkpt>
      <trkpt lat="-2.602632" lon="-78.776558">
        <ele>3478.00</ele>
        <time>2018-09-08T22:51:41Z</time>
      </trkpt>
      <trkpt lat="-2.602632" lon="-78.776558">
        <ele>3478.00</ele>
        <time>2018-09-08T22:51:42Z</time>
      </trkpt>
      <trkpt lat="-2.602632" lon="-78.776558">
        <ele>3478.00</ele>
        <time>2018-09-08T22:51:43Z</time>
      </trkpt>
      <trkpt lat="-2.602632" lon="-78.776558">
        <ele>3478.00</ele>
        <time>2018-09-08T22:51:44Z</time>
      </trkpt>
      <trkpt lat="-2.602632" lon="-78.776558">
        <ele>3478.00</ele>
        <time>2018-09-08T22:51:45Z</time>
      </trkpt>
      <trkpt lat="-2.602632" lon="-78.776558">
        <ele>3478.00</ele>
        <time>2018-09-08T22:51:46Z</time>
      </trkpt>
      <trkpt lat="-2.602633" lon="-78.776558">
        <ele>3478.00</ele>
        <time>2018-09-08T22:51:47Z</time>
      </trkpt>
      <trkpt lat="-2.602633" lon="-78.776558">
        <ele>3478.00</ele>
        <time>2018-09-08T22:51:48Z</time>
      </trkpt>
      <trkpt lat="-2.602633" lon="-78.776558">
        <ele>3478.00</ele>
        <time>2018-09-08T22:51:49Z</time>
      </trkpt>
      <trkpt lat="-2.602633" lon="-78.776558">
        <ele>3478.00</ele>
        <time>2018-09-08T22:51:50Z</time>
      </trkpt>
      <trkpt lat="-2.602633" lon="-78.776558">
        <ele>3478.00</ele>
        <time>2018-09-08T22:51:51Z</time>
      </trkpt>
      <trkpt lat="-2.602633" lon="-78.776558">
        <ele>3478.00</ele>
        <time>2018-09-08T22:51:52Z</time>
      </trkpt>
      <trkpt lat="-2.602633" lon="-78.776558">
        <ele>3478.00</ele>
        <time>2018-09-08T22:51:53Z</time>
      </trkpt>
      <trkpt lat="-2.602632" lon="-78.776558">
        <ele>3478.00</ele>
        <time>2018-09-08T22:51:54Z</time>
      </trkpt>
      <trkpt lat="-2.602631" lon="-78.776558">
        <ele>3478.00</ele>
        <time>2018-09-08T22:51:55Z</time>
      </trkpt>
      <trkpt lat="-2.602630" lon="-78.776558">
        <ele>3478.00</ele>
        <time>2018-09-08T22:51:56Z</time>
      </trkpt>
      <trkpt lat="-2.602630" lon="-78.776558">
        <ele>3478.00</ele>
        <time>2018-09-08T22:51:57Z</time>
      </trkpt>
      <trkpt lat="-2.602630" lon="-78.776558">
        <ele>3478.00</ele>
        <time>2018-09-08T22:51:58Z</time>
      </trkpt>
      <trkpt lat="-2.602630" lon="-78.776558">
        <ele>3478.00</ele>
        <time>2018-09-08T22:51:59Z</time>
      </trkpt>
      <trkpt lat="-2.602630" lon="-78.776558">
        <ele>3478.00</ele>
        <time>2018-09-08T22:52:00Z</time>
      </trkpt>
      <trkpt lat="-2.602630" lon="-78.776558">
        <ele>3478.00</ele>
        <time>2018-09-08T22:52:01Z</time>
      </trkpt>
      <trkpt lat="-2.602629" lon="-78.776558">
        <ele>3478.00</ele>
        <time>2018-09-08T22:52:02Z</time>
      </trkpt>
      <trkpt lat="-2.602629" lon="-78.776558">
        <ele>3478.00</ele>
        <time>2018-09-08T22:52:03Z</time>
      </trkpt>
      <trkpt lat="-2.602629" lon="-78.776558">
        <ele>3478.00</ele>
        <time>2018-09-08T22:52:04Z</time>
      </trkpt>
      <trkpt lat="-2.602629" lon="-78.776558">
        <ele>3478.00</ele>
        <time>2018-09-08T22:52:05Z</time>
      </trkpt>
      <trkpt lat="-2.602628" lon="-78.776558">
        <ele>3478.00</ele>
        <time>2018-09-08T22:52:06Z</time>
      </trkpt>
      <trkpt lat="-2.602628" lon="-78.776558">
        <ele>3478.00</ele>
        <time>2018-09-08T22:52:07Z</time>
      </trkpt>
      <trkpt lat="-2.602628" lon="-78.776558">
        <ele>3478.00</ele>
        <time>2018-09-08T22:52:08Z</time>
      </trkpt>
      <trkpt lat="-2.602628" lon="-78.776558">
        <ele>3478.00</ele>
        <time>2018-09-08T22:52:09Z</time>
      </trkpt>
      <trkpt lat="-2.602628" lon="-78.776558">
        <ele>3478.00</ele>
        <time>2018-09-08T22:52:10Z</time>
      </trkpt>
      <trkpt lat="-2.602628" lon="-78.776558">
        <ele>3478.00</ele>
        <time>2018-09-08T22:52:11Z</time>
      </trkpt>
      <trkpt lat="-2.602629" lon="-78.776558">
        <ele>3478.00</ele>
        <time>2018-09-08T22:52:12Z</time>
      </trkpt>
      <trkpt lat="-2.602628" lon="-78.776558">
        <ele>3478.00</ele>
        <time>2018-09-08T22:52:13Z</time>
      </trkpt>
      <trkpt lat="-2.602628" lon="-78.776558">
        <ele>3478.00</ele>
        <time>2018-09-08T22:52:14Z</time>
      </trkpt>
      <trkpt lat="-2.602628" lon="-78.776558">
        <ele>3478.00</ele>
        <time>2018-09-08T22:52:15Z</time>
      </trkpt>
      <trkpt lat="-2.602627" lon="-78.776558">
        <ele>3478.00</ele>
        <time>2018-09-08T22:52:16Z</time>
      </trkpt>
      <trkpt lat="-2.602628" lon="-78.776558">
        <ele>3478.00</ele>
        <time>2018-09-08T22:52:17Z</time>
      </trkpt>
      <trkpt lat="-2.602628" lon="-78.776558">
        <ele>3478.00</ele>
        <time>2018-09-08T22:52:18Z</time>
      </trkpt>
      <trkpt lat="-2.602628" lon="-78.776558">
        <ele>3478.00</ele>
        <time>2018-09-08T22:52:19Z</time>
      </trkpt>
      <trkpt lat="-2.602628" lon="-78.776558">
        <ele>3478.00</ele>
        <time>2018-09-08T22:52:20Z</time>
      </trkpt>
      <trkpt lat="-2.602628" lon="-78.776558">
        <ele>3478.00</ele>
        <time>2018-09-08T22:52:21Z</time>
      </trkpt>
      <trkpt lat="-2.602629" lon="-78.776558">
        <ele>3478.00</ele>
        <time>2018-09-08T22:52:22Z</time>
      </trkpt>
      <trkpt lat="-2.602629" lon="-78.776558">
        <ele>3478.00</ele>
        <time>2018-09-08T22:52:23Z</time>
      </trkpt>
      <trkpt lat="-2.602629" lon="-78.776558">
        <ele>3478.00</ele>
        <time>2018-09-08T22:52:24Z</time>
      </trkpt>
      <trkpt lat="-2.602629" lon="-78.776558">
        <ele>3478.00</ele>
        <time>2018-09-08T22:52:25Z</time>
      </trkpt>
      <trkpt lat="-2.602629" lon="-78.776558">
        <ele>3478.00</ele>
        <time>2018-09-08T22:52:26Z</time>
      </trkpt>
      <trkpt lat="-2.602629" lon="-78.776558">
        <ele>3478.00</ele>
        <time>2018-09-08T22:52:27Z</time>
      </trkpt>
      <trkpt lat="-2.602629" lon="-78.776558">
        <ele>3478.00</ele>
        <time>2018-09-08T22:52:28Z</time>
      </trkpt>
      <trkpt lat="-2.602629" lon="-78.776558">
        <ele>3478.00</ele>
        <time>2018-09-08T22:52:29Z</time>
      </trkpt>
      <trkpt lat="-2.602629" lon="-78.776558">
        <ele>3478.00</ele>
        <time>2018-09-08T22:52:30Z</time>
      </trkpt>
      <trkpt lat="-2.602629" lon="-78.776558">
        <ele>3478.00</ele>
        <time>2018-09-08T22:52:31Z</time>
      </trkpt>
      <trkpt lat="-2.602629" lon="-78.776558">
        <ele>3478.00</ele>
        <time>2018-09-08T22:52:32Z</time>
      </trkpt>
      <trkpt lat="-2.602629" lon="-78.776558">
        <ele>3478.00</ele>
        <time>2018-09-08T22:52:33Z</time>
      </trkpt>
      <trkpt lat="-2.602629" lon="-78.776558">
        <ele>3478.00</ele>
        <time>2018-09-08T22:52:34Z</time>
      </trkpt>
      <trkpt lat="-2.602629" lon="-78.776558">
        <ele>3478.00</ele>
        <time>2018-09-08T22:52:35Z</time>
      </trkpt>
      <trkpt lat="-2.602629" lon="-78.776558">
        <ele>3478.00</ele>
        <time>2018-09-08T22:52:36Z</time>
      </trkpt>
      <trkpt lat="-2.602629" lon="-78.776558">
        <ele>3478.00</ele>
        <time>2018-09-08T22:52:37Z</time>
      </trkpt>
      <trkpt lat="-2.602629" lon="-78.776558">
        <ele>3478.00</ele>
        <time>2018-09-08T22:52:38Z</time>
      </trkpt>
      <trkpt lat="-2.602629" lon="-78.776558">
        <ele>3478.00</ele>
        <time>2018-09-08T22:52:39Z</time>
      </trkpt>
      <trkpt lat="-2.602629" lon="-78.776558">
        <ele>3478.00</ele>
        <time>2018-09-08T22:52:40Z</time>
      </trkpt>
      <trkpt lat="-2.602628" lon="-78.776558">
        <ele>3478.00</ele>
        <time>2018-09-08T22:52:41Z</time>
      </trkpt>
      <trkpt lat="-2.602629" lon="-78.776558">
        <ele>3478.00</ele>
        <time>2018-09-08T22:52:42Z</time>
      </trkpt>
      <trkpt lat="-2.602628" lon="-78.776558">
        <ele>3478.00</ele>
        <time>2018-09-08T22:52:43Z</time>
      </trkpt>
      <trkpt lat="-2.602628" lon="-78.776558">
        <ele>3478.00</ele>
        <time>2018-09-08T22:52:44Z</time>
      </trkpt>
      <trkpt lat="-2.602629" lon="-78.776558">
        <ele>3478.00</ele>
        <time>2018-09-08T22:52:45Z</time>
      </trkpt>
      <trkpt lat="-2.602629" lon="-78.776558">
        <ele>3478.00</ele>
        <time>2018-09-08T22:52:46Z</time>
      </trkpt>
      <trkpt lat="-2.602628" lon="-78.776558">
        <ele>3478.00</ele>
        <time>2018-09-08T22:52:47Z</time>
      </trkpt>
      <trkpt lat="-2.602629" lon="-78.776558">
        <ele>3478.00</ele>
        <time>2018-09-08T22:52:48Z</time>
      </trkpt>
      <trkpt lat="-2.602628" lon="-78.776558">
        <ele>3478.00</ele>
        <time>2018-09-08T22:52:49Z</time>
      </trkpt>
      <trkpt lat="-2.602628" lon="-78.776558">
        <ele>3478.00</ele>
        <time>2018-09-08T22:52:50Z</time>
      </trkpt>
      <trkpt lat="-2.602628" lon="-78.776558">
        <ele>3478.00</ele>
        <time>2018-09-08T22:52:51Z</time>
      </trkpt>
      <trkpt lat="-2.602628" lon="-78.776558">
        <ele>3478.00</ele>
        <time>2018-09-08T22:52:52Z</time>
      </trkpt>
      <trkpt lat="-2.602628" lon="-78.776558">
        <ele>3478.00</ele>
        <time>2018-09-08T22:52:53Z</time>
      </trkpt>
      <trkpt lat="-2.602628" lon="-78.776558">
        <ele>3478.00</ele>
        <time>2018-09-08T22:52:54Z</time>
      </trkpt>
      <trkpt lat="-2.602633" lon="-78.776566">
        <ele>3478.00</ele>
        <time>2018-09-08T22:52:55Z</time>
      </trkpt>
      <trkpt lat="-2.602653" lon="-78.776581">
        <ele>3478.00</ele>
        <time>2018-09-08T22:52:56Z</time>
      </trkpt>
      <trkpt lat="-2.602678" lon="-78.776581">
        <ele>3478.00</ele>
        <time>2018-09-08T22:52:57Z</time>
      </trkpt>
      <trkpt lat="-2.602704" lon="-78.776596">
        <ele>3478.00</ele>
        <time>2018-09-08T22:52:58Z</time>
      </trkpt>
      <trkpt lat="-2.602741" lon="-78.776649">
        <ele>3478.00</ele>
        <time>2018-09-08T22:52:59Z</time>
      </trkpt>
      <trkpt lat="-2.602775" lon="-78.776711">
        <ele>3479.00</ele>
        <time>2018-09-08T22:53:00Z</time>
      </trkpt>
      <trkpt lat="-2.602810" lon="-78.776772">
        <ele>3479.00</ele>
        <time>2018-09-08T22:53:01Z</time>
      </trkpt>
      <trkpt lat="-2.602848" lon="-78.776855">
        <ele>3479.00</ele>
        <time>2018-09-08T22:53:02Z</time>
      </trkpt>
      <trkpt lat="-2.602884" lon="-78.776939">
        <ele>3479.00</ele>
        <time>2018-09-08T22:53:03Z</time>
      </trkpt>
      <trkpt lat="-2.602925" lon="-78.777031">
        <ele>3479.00</ele>
        <time>2018-09-08T22:53:04Z</time>
      </trkpt>
      <trkpt lat="-2.602972" lon="-78.777138">
        <ele>3479.00</ele>
        <time>2018-09-08T22:53:05Z</time>
      </trkpt>
      <trkpt lat="-2.603034" lon="-78.777229">
        <ele>3479.00</ele>
        <time>2018-09-08T22:53:06Z</time>
      </trkpt>
      <trkpt lat="-2.603102" lon="-78.777321">
        <ele>3479.00</ele>
        <time>2018-09-08T22:53:07Z</time>
      </trkpt>
      <trkpt lat="-2.603173" lon="-78.777412">
        <ele>3479.00</ele>
        <time>2018-09-08T22:53:08Z</time>
      </trkpt>
      <trkpt lat="-2.603248" lon="-78.777504">
        <ele>3479.00</ele>
        <time>2018-09-08T22:53:09Z</time>
      </trkpt>
      <trkpt lat="-2.603332" lon="-78.777588">
        <ele>3479.00</ele>
        <time>2018-09-08T22:53:10Z</time>
      </trkpt>
      <trkpt lat="-2.603424" lon="-78.777679">
        <ele>3479.00</ele>
        <time>2018-09-08T22:53:11Z</time>
      </trkpt>
      <trkpt lat="-2.603518" lon="-78.777779">
        <ele>3479.00</ele>
        <time>2018-09-08T22:53:12Z</time>
      </trkpt>
      <trkpt lat="-2.603604" lon="-78.777878">
        <ele>3479.00</ele>
        <time>2018-09-08T22:53:13Z</time>
      </trkpt>
      <trkpt lat="-2.603678" lon="-78.777977">
        <ele>3479.00</ele>
        <time>2018-09-08T22:53:14Z</time>
      </trkpt>
      <trkpt lat="-2.603740" lon="-78.778046">
        <ele>3479.00</ele>
        <time>2018-09-08T22:53:15Z</time>
      </trkpt>
      <trkpt lat="-2.603797" lon="-78.778099">
        <ele>3479.00</ele>
        <time>2018-09-08T22:53:16Z</time>
      </trkpt>
      <trkpt lat="-2.603853" lon="-78.778145">
        <ele>3479.00</ele>
        <time>2018-09-08T22:53:17Z</time>
      </trkpt>
      <trkpt lat="-2.603897" lon="-78.778175">
        <ele>3479.00</ele>
        <time>2018-09-08T22:53:18Z</time>
      </trkpt>
      <trkpt lat="-2.603938" lon="-78.778206">
        <ele>3479.00</ele>
        <time>2018-09-08T22:53:19Z</time>
      </trkpt>
      <trkpt lat="-2.603992" lon="-78.778229">
        <ele>3479.00</ele>
        <time>2018-09-08T22:53:20Z</time>
      </trkpt>
      <trkpt lat="-2.604066" lon="-78.778252">
        <ele>3479.00</ele>
        <time>2018-09-08T22:53:21Z</time>
      </trkpt>
      <trkpt lat="-2.604159" lon="-78.778275">
        <ele>3479.00</ele>
        <time>2018-09-08T22:53:22Z</time>
      </trkpt>
      <trkpt lat="-2.604266" lon="-78.778313">
        <ele>3479.00</ele>
        <time>2018-09-08T22:53:23Z</time>
      </trkpt>
      <trkpt lat="-2.604375" lon="-78.778320">
        <ele>3479.00</ele>
        <time>2018-09-08T22:53:24Z</time>
      </trkpt>
      <trkpt lat="-2.604481" lon="-78.778320">
        <ele>3479.00</ele>
        <time>2018-09-08T22:53:25Z</time>
      </trkpt>
      <trkpt lat="-2.604592" lon="-78.778336">
        <ele>3479.00</ele>
        <time>2018-09-08T22:53:26Z</time>
      </trkpt>
      <trkpt lat="-2.604710" lon="-78.778366">
        <ele>3479.00</ele>
        <time>2018-09-08T22:53:27Z</time>
      </trkpt>
      <trkpt lat="-2.604827" lon="-78.778366">
        <ele>3479.00</ele>
        <time>2018-09-08T22:53:28Z</time>
      </trkpt>
      <trkpt lat="-2.604928" lon="-78.778381">
        <ele>3480.00</ele>
        <time>2018-09-08T22:53:29Z</time>
      </trkpt>
      <trkpt lat="-2.605013" lon="-78.778412">
        <ele>3480.00</ele>
        <time>2018-09-08T22:53:30Z</time>
      </trkpt>
      <trkpt lat="-2.605085" lon="-78.778435">
        <ele>3480.00</ele>
        <time>2018-09-08T22:53:31Z</time>
      </trkpt>
      <trkpt lat="-2.605136" lon="-78.778496">
        <ele>3480.00</ele>
        <time>2018-09-08T22:53:32Z</time>
      </trkpt>
      <trkpt lat="-2.605173" lon="-78.778595">
        <ele>3480.00</ele>
        <time>2018-09-08T22:53:33Z</time>
      </trkpt>
      <trkpt lat="-2.605217" lon="-78.778702">
        <ele>3480.00</ele>
        <time>2018-09-08T22:53:34Z</time>
      </trkpt>
      <trkpt lat="-2.605271" lon="-78.778801">
        <ele>3480.00</ele>
        <time>2018-09-08T22:53:35Z</time>
      </trkpt>
      <trkpt lat="-2.605326" lon="-78.778900">
        <ele>3480.00</ele>
        <time>2018-09-08T22:53:36Z</time>
      </trkpt>
      <trkpt lat="-2.605385" lon="-78.778976">
        <ele>3480.00</ele>
        <time>2018-09-08T22:53:37Z</time>
      </trkpt>
      <trkpt lat="-2.605451" lon="-78.779045">
        <ele>3480.00</ele>
        <time>2018-09-08T22:53:38Z</time>
      </trkpt>
      <trkpt lat="-2.605528" lon="-78.779099">
        <ele>3480.00</ele>
        <time>2018-09-08T22:53:39Z</time>
      </trkpt>
      <trkpt lat="-2.605604" lon="-78.779144">
        <ele>3480.00</ele>
        <time>2018-09-08T22:53:40Z</time>
      </trkpt>
      <trkpt lat="-2.605685" lon="-78.779152">
        <ele>3480.00</ele>
        <time>2018-09-08T22:53:41Z</time>
      </trkpt>
      <trkpt lat="-2.605778" lon="-78.779152">
        <ele>3480.00</ele>
        <time>2018-09-08T22:53:42Z</time>
      </trkpt>
      <trkpt lat="-2.605862" lon="-78.779152">
        <ele>3479.00</ele>
        <time>2018-09-08T22:53:43Z</time>
      </trkpt>
      <trkpt lat="-2.605939" lon="-78.779152">
        <ele>3479.00</ele>
        <time>2018-09-08T22:53:44Z</time>
      </trkpt>
      <trkpt lat="-2.606000" lon="-78.779167">
        <ele>3479.00</ele>
        <time>2018-09-08T22:53:45Z</time>
      </trkpt>
      <trkpt lat="-2.606042" lon="-78.779190">
        <ele>3479.00</ele>
        <time>2018-09-08T22:53:46Z</time>
      </trkpt>
      <trkpt lat="-2.606089" lon="-78.779228">
        <ele>3479.00</ele>
        <time>2018-09-08T22:53:47Z</time>
      </trkpt>
      <trkpt lat="-2.606156" lon="-78.779259">
        <ele>3479.00</ele>
        <time>2018-09-08T22:53:48Z</time>
      </trkpt>
      <trkpt lat="-2.606225" lon="-78.779312">
        <ele>3479.00</ele>
        <time>2018-09-08T22:53:49Z</time>
      </trkpt>
      <trkpt lat="-2.606288" lon="-78.779396">
        <ele>3479.00</ele>
        <time>2018-09-08T22:53:50Z</time>
      </trkpt>
      <trkpt lat="-2.606350" lon="-78.779488">
        <ele>3479.00</ele>
        <time>2018-09-08T22:53:51Z</time>
      </trkpt>
      <trkpt lat="-2.606408" lon="-78.779564">
        <ele>3479.00</ele>
        <time>2018-09-08T22:53:52Z</time>
      </trkpt>
      <trkpt lat="-2.606459" lon="-78.779633">
        <ele>3479.00</ele>
        <time>2018-09-08T22:53:53Z</time>
      </trkpt>
      <trkpt lat="-2.606505" lon="-78.779709">
        <ele>3479.00</ele>
        <time>2018-09-08T22:53:54Z</time>
      </trkpt>
      <trkpt lat="-2.606566" lon="-78.779770">
        <ele>3479.00</ele>
        <time>2018-09-08T22:53:55Z</time>
      </trkpt>
      <trkpt lat="-2.606633" lon="-78.779839">
        <ele>3479.00</ele>
        <time>2018-09-08T22:53:56Z</time>
      </trkpt>
      <trkpt lat="-2.606714" lon="-78.779915">
        <ele>3479.00</ele>
        <time>2018-09-08T22:53:57Z</time>
      </trkpt>
      <trkpt lat="-2.606789" lon="-78.779976">
        <ele>3479.00</ele>
        <time>2018-09-08T22:53:58Z</time>
      </trkpt>
      <trkpt lat="-2.606837" lon="-78.780037">
        <ele>3479.00</ele>
        <time>2018-09-08T22:53:59Z</time>
      </trkpt>
      <trkpt lat="-2.606861" lon="-78.780067">
        <ele>3479.00</ele>
        <time>2018-09-08T22:54:00Z</time>
      </trkpt>
      <trkpt lat="-2.606880" lon="-78.780090">
        <ele>3479.00</ele>
        <time>2018-09-08T22:54:01Z</time>
      </trkpt>
      <trkpt lat="-2.606910" lon="-78.780113">
        <ele>3479.00</ele>
        <time>2018-09-08T22:54:02Z</time>
      </trkpt>
      <trkpt lat="-2.606950" lon="-78.780151">
        <ele>3479.00</ele>
        <time>2018-09-08T22:54:03Z</time>
      </trkpt>
      <trkpt lat="-2.606996" lon="-78.780190">
        <ele>3479.00</ele>
        <time>2018-09-08T22:54:04Z</time>
      </trkpt>
      <trkpt lat="-2.607036" lon="-78.780243">
        <ele>3479.00</ele>
        <time>2018-09-08T22:54:05Z</time>
      </trkpt>
      <trkpt lat="-2.607083" lon="-78.780273">
        <ele>3479.00</ele>
        <time>2018-09-08T22:54:06Z</time>
      </trkpt>
      <trkpt lat="-2.607150" lon="-78.780312">
        <ele>3479.00</ele>
        <time>2018-09-08T22:54:07Z</time>
      </trkpt>
      <trkpt lat="-2.607233" lon="-78.780319">
        <ele>3479.00</ele>
        <time>2018-09-08T22:54:08Z</time>
      </trkpt>
      <trkpt lat="-2.607316" lon="-78.780319">
        <ele>3478.00</ele>
        <time>2018-09-08T22:54:09Z</time>
      </trkpt>
      <trkpt lat="-2.607393" lon="-78.780327">
        <ele>3478.00</ele>
        <time>2018-09-08T22:54:10Z</time>
      </trkpt>
      <trkpt lat="-2.607462" lon="-78.780327">
        <ele>3478.00</ele>
        <time>2018-09-08T22:54:11Z</time>
      </trkpt>
      <trkpt lat="-2.607526" lon="-78.780319">
        <ele>3478.00</ele>
        <time>2018-09-08T22:54:12Z</time>
      </trkpt>
      <trkpt lat="-2.607573" lon="-78.780319">
        <ele>3478.00</ele>
        <time>2018-09-08T22:54:13Z</time>
      </trkpt>
      <trkpt lat="-2.607599" lon="-78.780334">
        <ele>3478.00</ele>
        <time>2018-09-08T22:54:14Z</time>
      </trkpt>
      <trkpt lat="-2.607619" lon="-78.780350">
        <ele>3478.00</ele>
        <time>2018-09-08T22:54:15Z</time>
      </trkpt>
      <trkpt lat="-2.607639" lon="-78.780365">
        <ele>3478.00</ele>
        <time>2018-09-08T22:54:16Z</time>
      </trkpt>
      <trkpt lat="-2.607667" lon="-78.780380">
        <ele>3478.00</ele>
        <time>2018-09-08T22:54:17Z</time>
      </trkpt>
      <trkpt lat="-2.607697" lon="-78.780418">
        <ele>3477.00</ele>
        <time>2018-09-08T22:54:18Z</time>
      </trkpt>
      <trkpt lat="-2.607733" lon="-78.780441">
        <ele>3477.00</ele>
        <time>2018-09-08T22:54:19Z</time>
      </trkpt>
      <trkpt lat="-2.607778" lon="-78.780487">
        <ele>3477.00</ele>
        <time>2018-09-08T22:54:20Z</time>
      </trkpt>
      <trkpt lat="-2.607846" lon="-78.780533">
        <ele>3477.00</ele>
        <time>2018-09-08T22:54:21Z</time>
      </trkpt>
      <trkpt lat="-2.607936" lon="-78.780586">
        <ele>3477.00</ele>
        <time>2018-09-08T22:54:22Z</time>
      </trkpt>
      <trkpt lat="-2.608033" lon="-78.780632">
        <ele>3477.00</ele>
        <time>2018-09-08T22:54:23Z</time>
      </trkpt>
      <trkpt lat="-2.608140" lon="-78.780678">
        <ele>3477.00</ele>
        <time>2018-09-08T22:54:24Z</time>
      </trkpt>
      <trkpt lat="-2.608257" lon="-78.780724">
        <ele>3477.00</ele>
        <time>2018-09-08T22:54:25Z</time>
      </trkpt>
      <trkpt lat="-2.608386" lon="-78.780777">
        <ele>3477.00</ele>
        <time>2018-09-08T22:54:26Z</time>
      </trkpt>
      <trkpt lat="-2.608526" lon="-78.780815">
        <ele>3477.00</ele>
        <time>2018-09-08T22:54:27Z</time>
      </trkpt>
      <trkpt lat="-2.608663" lon="-78.780853">
        <ele>3476.00</ele>
        <time>2018-09-08T22:54:28Z</time>
      </trkpt>
      <trkpt lat="-2.608782" lon="-78.780884">
        <ele>3476.00</ele>
        <time>2018-09-08T22:54:29Z</time>
      </trkpt>
      <trkpt lat="-2.608885" lon="-78.780899">
        <ele>3476.00</ele>
        <time>2018-09-08T22:54:30Z</time>
      </trkpt>
      <trkpt lat="-2.608992" lon="-78.780914">
        <ele>3476.00</ele>
        <time>2018-09-08T22:54:31Z</time>
      </trkpt>
      <trkpt lat="-2.609095" lon="-78.780930">
        <ele>3476.00</ele>
        <time>2018-09-08T22:54:32Z</time>
      </trkpt>
      <trkpt lat="-2.609183" lon="-78.780945">
        <ele>3476.00</ele>
        <time>2018-09-08T22:54:33Z</time>
      </trkpt>
      <trkpt lat="-2.609260" lon="-78.780952">
        <ele>3476.00</ele>
        <time>2018-09-08T22:54:34Z</time>
      </trkpt>
      <trkpt lat="-2.609334" lon="-78.780960">
        <ele>3475.00</ele>
        <time>2018-09-08T22:54:35Z</time>
      </trkpt>
      <trkpt lat="-2.609426" lon="-78.780975">
        <ele>3474.00</ele>
        <time>2018-09-08T22:54:36Z</time>
      </trkpt>
      <trkpt lat="-2.609515" lon="-78.780983">
        <ele>3473.00</ele>
        <time>2018-09-08T22:54:37Z</time>
      </trkpt>
      <trkpt lat="-2.609602" lon="-78.780983">
        <ele>3473.00</ele>
        <time>2018-09-08T22:54:38Z</time>
      </trkpt>
      <trkpt lat="-2.609688" lon="-78.781006">
        <ele>3472.00</ele>
        <time>2018-09-08T22:54:39Z</time>
      </trkpt>
      <trkpt lat="-2.609779" lon="-78.781021">
        <ele>3471.00</ele>
        <time>2018-09-08T22:54:40Z</time>
      </trkpt>
      <trkpt lat="-2.609865" lon="-78.781036">
        <ele>3471.00</ele>
        <time>2018-09-08T22:54:41Z</time>
      </trkpt>
      <trkpt lat="-2.609942" lon="-78.781067">
        <ele>3470.00</ele>
        <time>2018-09-08T22:54:42Z</time>
      </trkpt>
      <trkpt lat="-2.610010" lon="-78.781082">
        <ele>3470.00</ele>
        <time>2018-09-08T22:54:43Z</time>
      </trkpt>
      <trkpt lat="-2.610081" lon="-78.781105">
        <ele>3469.00</ele>
        <time>2018-09-08T22:54:44Z</time>
      </trkpt>
      <trkpt lat="-2.610163" lon="-78.781128">
        <ele>3469.00</ele>
        <time>2018-09-08T22:54:45Z</time>
      </trkpt>
      <trkpt lat="-2.610255" lon="-78.781174">
        <ele>3469.00</ele>
        <time>2018-09-08T22:54:46Z</time>
      </trkpt>
      <trkpt lat="-2.610354" lon="-78.781219">
        <ele>3469.00</ele>
        <time>2018-09-08T22:54:47Z</time>
      </trkpt>
      <trkpt lat="-2.610459" lon="-78.781250">
        <ele>3469.00</ele>
        <time>2018-09-08T22:54:48Z</time>
      </trkpt>
      <trkpt lat="-2.610558" lon="-78.781281">
        <ele>3469.00</ele>
        <time>2018-09-08T22:54:49Z</time>
      </trkpt>
      <trkpt lat="-2.610646" lon="-78.781296">
        <ele>3469.00</ele>
        <time>2018-09-08T22:54:50Z</time>
      </trkpt>
      <trkpt lat="-2.610736" lon="-78.781319">
        <ele>3468.00</ele>
        <time>2018-09-08T22:54:51Z</time>
      </trkpt>
      <trkpt lat="-2.610848" lon="-78.781326">
        <ele>3468.00</ele>
        <time>2018-09-08T22:54:52Z</time>
      </trkpt>
      <trkpt lat="-2.610979" lon="-78.781349">
        <ele>3468.00</ele>
        <time>2018-09-08T22:54:53Z</time>
      </trkpt>
      <trkpt lat="-2.611127" lon="-78.781380">
        <ele>3468.00</ele>
        <time>2018-09-08T22:54:54Z</time>
      </trkpt>
      <trkpt lat="-2.611286" lon="-78.781425">
        <ele>3468.00</ele>
        <time>2018-09-08T22:54:55Z</time>
      </trkpt>
      <trkpt lat="-2.611446" lon="-78.781456">
        <ele>3468.00</ele>
        <time>2018-09-08T22:54:56Z</time>
      </trkpt>
      <trkpt lat="-2.611606" lon="-78.781502">
        <ele>3468.00</ele>
        <time>2018-09-08T22:54:57Z</time>
      </trkpt>
      <trkpt lat="-2.611761" lon="-78.781548">
        <ele>3468.00</ele>
        <time>2018-09-08T22:54:58Z</time>
      </trkpt>
      <trkpt lat="-2.611906" lon="-78.781570">
        <ele>3468.00</ele>
        <time>2018-09-08T22:54:59Z</time>
      </trkpt>
      <trkpt lat="-2.612043" lon="-78.781601">
        <ele>3468.00</ele>
        <time>2018-09-08T22:55:00Z</time>
      </trkpt>
      <trkpt lat="-2.612184" lon="-78.781624">
        <ele>3468.00</ele>
        <time>2018-09-08T22:55:01Z</time>
      </trkpt>
      <trkpt lat="-2.612328" lon="-78.781677">
        <ele>3468.00</ele>
        <time>2018-09-08T22:55:02Z</time>
      </trkpt>
      <trkpt lat="-2.612466" lon="-78.781746">
        <ele>3468.00</ele>
        <time>2018-09-08T22:55:03Z</time>
      </trkpt>
      <trkpt lat="-2.612600" lon="-78.781807">
        <ele>3468.00</ele>
        <time>2018-09-08T22:55:04Z</time>
      </trkpt>
      <trkpt lat="-2.612731" lon="-78.781883">
        <ele>3469.00</ele>
        <time>2018-09-08T22:55:05Z</time>
      </trkpt>
      <trkpt lat="-2.612871" lon="-78.781967">
        <ele>3469.00</ele>
        <time>2018-09-08T22:55:06Z</time>
      </trkpt>
      <trkpt lat="-2.613017" lon="-78.782043">
        <ele>3469.00</ele>
        <time>2018-09-08T22:55:07Z</time>
      </trkpt>
      <trkpt lat="-2.613163" lon="-78.782127">
        <ele>3469.00</ele>
        <time>2018-09-08T22:55:08Z</time>
      </trkpt>
      <trkpt lat="-2.613315" lon="-78.782188">
        <ele>3470.00</ele>
        <time>2018-09-08T22:55:09Z</time>
      </trkpt>
      <trkpt lat="-2.613463" lon="-78.782249">
        <ele>3470.00</ele>
        <time>2018-09-08T22:55:10Z</time>
      </trkpt>
      <trkpt lat="-2.613613" lon="-78.782288">
        <ele>3470.00</ele>
        <time>2018-09-08T22:55:11Z</time>
      </trkpt>
      <trkpt lat="-2.613770" lon="-78.782310">
        <ele>3471.00</ele>
        <time>2018-09-08T22:55:12Z</time>
      </trkpt>
      <trkpt lat="-2.613923" lon="-78.782318">
        <ele>3471.00</ele>
        <time>2018-09-08T22:55:13Z</time>
      </trkpt>
      <trkpt lat="-2.614048" lon="-78.782318">
        <ele>3472.00</ele>
        <time>2018-09-08T22:55:14Z</time>
      </trkpt>
      <trkpt lat="-2.614146" lon="-78.782326">
        <ele>3472.00</ele>
        <time>2018-09-08T22:55:15Z</time>
      </trkpt>
      <trkpt lat="-2.614243" lon="-78.782349">
        <ele>3472.00</ele>
        <time>2018-09-08T22:55:16Z</time>
      </trkpt>
      <trkpt lat="-2.614342" lon="-78.782394">
        <ele>3473.00</ele>
        <time>2018-09-08T22:55:17Z</time>
      </trkpt>
      <trkpt lat="-2.614447" lon="-78.782433">
        <ele>3473.00</ele>
        <time>2018-09-08T22:55:18Z</time>
      </trkpt>
      <trkpt lat="-2.614566" lon="-78.782478">
        <ele>3473.00</ele>
        <time>2018-09-08T22:55:19Z</time>
      </trkpt>
      <trkpt lat="-2.614698" lon="-78.782509">
        <ele>3473.00</ele>
        <time>2018-09-08T22:55:20Z</time>
      </trkpt>
      <trkpt lat="-2.614832" lon="-78.782509">
        <ele>3473.00</ele>
        <time>2018-09-08T22:55:21Z</time>
      </trkpt>
      <trkpt lat="-2.614959" lon="-78.782509">
        <ele>3473.00</ele>
        <time>2018-09-08T22:55:22Z</time>
      </trkpt>
      <trkpt lat="-2.615072" lon="-78.782516">
        <ele>3473.00</ele>
        <time>2018-09-08T22:55:23Z</time>
      </trkpt>
      <trkpt lat="-2.615191" lon="-78.782539">
        <ele>3474.00</ele>
        <time>2018-09-08T22:55:24Z</time>
      </trkpt>
      <trkpt lat="-2.615305" lon="-78.782585">
        <ele>3474.00</ele>
        <time>2018-09-08T22:55:25Z</time>
      </trkpt>
      <trkpt lat="-2.615409" lon="-78.782639">
        <ele>3474.00</ele>
        <time>2018-09-08T22:55:26Z</time>
      </trkpt>
      <trkpt lat="-2.615500" lon="-78.782684">
        <ele>3474.00</ele>
        <time>2018-09-08T22:55:27Z</time>
      </trkpt>
      <trkpt lat="-2.615583" lon="-78.782730">
        <ele>3474.00</ele>
        <time>2018-09-08T22:55:28Z</time>
      </trkpt>
      <trkpt lat="-2.615666" lon="-78.782791">
        <ele>3475.00</ele>
        <time>2018-09-08T22:55:29Z</time>
      </trkpt>
      <trkpt lat="-2.615754" lon="-78.782845">
        <ele>3475.00</ele>
        <time>2018-09-08T22:55:30Z</time>
      </trkpt>
      <trkpt lat="-2.615855" lon="-78.782890">
        <ele>3475.00</ele>
        <time>2018-09-08T22:55:31Z</time>
      </trkpt>
      <trkpt lat="-2.615968" lon="-78.782883">
        <ele>3476.00</ele>
        <time>2018-09-08T22:55:32Z</time>
      </trkpt>
      <trkpt lat="-2.616081" lon="-78.782898">
        <ele>3476.00</ele>
        <time>2018-09-08T22:55:33Z</time>
      </trkpt>
      <trkpt lat="-2.616201" lon="-78.782944">
        <ele>3476.00</ele>
        <time>2018-09-08T22:55:34Z</time>
      </trkpt>
      <trkpt lat="-2.616316" lon="-78.782990">
        <ele>3477.00</ele>
        <time>2018-09-08T22:55:35Z</time>
      </trkpt>
      <trkpt lat="-2.616424" lon="-78.783043">
        <ele>3477.00</ele>
        <time>2018-09-08T22:55:36Z</time>
      </trkpt>
      <trkpt lat="-2.616528" lon="-78.783081">
        <ele>3477.00</ele>
        <time>2018-09-08T22:55:37Z</time>
      </trkpt>
      <trkpt lat="-2.616625" lon="-78.783127">
        <ele>3477.00</ele>
        <time>2018-09-08T22:55:38Z</time>
      </trkpt>
      <trkpt lat="-2.616708" lon="-78.783203">
        <ele>3477.00</ele>
        <time>2018-09-08T22:55:39Z</time>
      </trkpt>
      <trkpt lat="-2.616772" lon="-78.783287">
        <ele>3477.00</ele>
        <time>2018-09-08T22:55:40Z</time>
      </trkpt>
      <trkpt lat="-2.616821" lon="-78.783379">
        <ele>3477.00</ele>
        <time>2018-09-08T22:55:41Z</time>
      </trkpt>
      <trkpt lat="-2.616862" lon="-78.783455">
        <ele>3477.00</ele>
        <time>2018-09-08T22:55:42Z</time>
      </trkpt>
      <trkpt lat="-2.616913" lon="-78.783501">
        <ele>3477.00</ele>
        <time>2018-09-08T22:55:43Z</time>
      </trkpt>
      <trkpt lat="-2.616984" lon="-78.783539">
        <ele>3477.00</ele>
        <time>2018-09-08T22:55:44Z</time>
      </trkpt>
      <trkpt lat="-2.617064" lon="-78.783501">
        <ele>3477.00</ele>
        <time>2018-09-08T22:55:45Z</time>
      </trkpt>
      <trkpt lat="-2.617147" lon="-78.783447">
        <ele>3477.00</ele>
        <time>2018-09-08T22:55:46Z</time>
      </trkpt>
      <trkpt lat="-2.617236" lon="-78.783394">
        <ele>3477.00</ele>
        <time>2018-09-08T22:55:47Z</time>
      </trkpt>
      <trkpt lat="-2.617337" lon="-78.783340">
        <ele>3477.00</ele>
        <time>2018-09-08T22:55:48Z</time>
      </trkpt>
      <trkpt lat="-2.617436" lon="-78.783287">
        <ele>3477.00</ele>
        <time>2018-09-08T22:55:49Z</time>
      </trkpt>
      <trkpt lat="-2.617521" lon="-78.783234">
        <ele>3477.00</ele>
        <time>2018-09-08T22:55:50Z</time>
      </trkpt>
      <trkpt lat="-2.617611" lon="-78.783188">
        <ele>3477.00</ele>
        <time>2018-09-08T22:55:51Z</time>
      </trkpt>
      <trkpt lat="-2.617705" lon="-78.783180">
        <ele>3477.00</ele>
        <time>2018-09-08T22:55:52Z</time>
      </trkpt>
      <trkpt lat="-2.617804" lon="-78.783180">
        <ele>3477.00</ele>
        <time>2018-09-08T22:55:53Z</time>
      </trkpt>
      <trkpt lat="-2.617895" lon="-78.783218">
        <ele>3477.00</ele>
        <time>2018-09-08T22:55:54Z</time>
      </trkpt>
      <trkpt lat="-2.617960" lon="-78.783257">
        <ele>3477.00</ele>
        <time>2018-09-08T22:55:55Z</time>
      </trkpt>
      <trkpt lat="-2.618023" lon="-78.783272">
        <ele>3477.00</ele>
        <time>2018-09-08T22:55:56Z</time>
      </trkpt>
      <trkpt lat="-2.618078" lon="-78.783241">
        <ele>3477.00</ele>
        <time>2018-09-08T22:55:57Z</time>
      </trkpt>
      <trkpt lat="-2.618124" lon="-78.783165">
        <ele>3477.00</ele>
        <time>2018-09-08T22:55:58Z</time>
      </trkpt>
      <trkpt lat="-2.618176" lon="-78.783081">
        <ele>3477.00</ele>
        <time>2018-09-08T22:55:59Z</time>
      </trkpt>
      <trkpt lat="-2.618230" lon="-78.783005">
        <ele>3478.00</ele>
        <time>2018-09-08T22:56:00Z</time>
      </trkpt>
      <trkpt lat="-2.618288" lon="-78.782951">
        <ele>3477.00</ele>
        <time>2018-09-08T22:56:01Z</time>
      </trkpt>
      <trkpt lat="-2.618365" lon="-78.782936">
        <ele>3477.00</ele>
        <time>2018-09-08T22:56:02Z</time>
      </trkpt>
      <trkpt lat="-2.618451" lon="-78.782959">
        <ele>3477.00</ele>
        <time>2018-09-08T22:56:03Z</time>
      </trkpt>
      <trkpt lat="-2.618541" lon="-78.782997">
        <ele>3477.00</ele>
        <time>2018-09-08T22:56:04Z</time>
      </trkpt>
      <trkpt lat="-2.618613" lon="-78.783073">
        <ele>3478.00</ele>
        <time>2018-09-08T22:56:05Z</time>
      </trkpt>
      <trkpt lat="-2.618665" lon="-78.783157">
        <ele>3478.00</ele>
        <time>2018-09-08T22:56:06Z</time>
      </trkpt>
      <trkpt lat="-2.618719" lon="-78.783226">
        <ele>3478.00</ele>
        <time>2018-09-08T22:56:07Z</time>
      </trkpt>
      <trkpt lat="-2.618784" lon="-78.783264">
        <ele>3478.00</ele>
        <time>2018-09-08T22:56:08Z</time>
      </trkpt>
      <trkpt lat="-2.618841" lon="-78.783279">
        <ele>3478.00</ele>
        <time>2018-09-08T22:56:09Z</time>
      </trkpt>
      <trkpt lat="-2.618902" lon="-78.783257">
        <ele>3478.00</ele>
        <time>2018-09-08T22:56:10Z</time>
      </trkpt>
      <trkpt lat="-2.618969" lon="-78.783211">
        <ele>3478.00</ele>
        <time>2018-09-08T22:56:11Z</time>
      </trkpt>
      <trkpt lat="-2.619050" lon="-78.783165">
        <ele>3479.00</ele>
        <time>2018-09-08T22:56:12Z</time>
      </trkpt>
      <trkpt lat="-2.619150" lon="-78.783134">
        <ele>3479.00</ele>
        <time>2018-09-08T22:56:13Z</time>
      </trkpt>
      <trkpt lat="-2.619250" lon="-78.783134">
        <ele>3479.00</ele>
        <time>2018-09-08T22:56:14Z</time>
      </trkpt>
      <trkpt lat="-2.619353" lon="-78.783165">
        <ele>3479.00</ele>
        <time>2018-09-08T22:56:15Z</time>
      </trkpt>
      <trkpt lat="-2.619461" lon="-78.783218">
        <ele>3479.00</ele>
        <time>2018-09-08T22:56:16Z</time>
      </trkpt>
      <trkpt lat="-2.619575" lon="-78.783279">
        <ele>3480.00</ele>
        <time>2018-09-08T22:56:17Z</time>
      </trkpt>
      <trkpt lat="-2.619691" lon="-78.783333">
        <ele>3480.00</ele>
        <time>2018-09-08T22:56:18Z</time>
      </trkpt>
      <trkpt lat="-2.619801" lon="-78.783386">
        <ele>3480.00</ele>
        <time>2018-09-08T22:56:19Z</time>
      </trkpt>
      <trkpt lat="-2.619910" lon="-78.783424">
        <ele>3480.00</ele>
        <time>2018-09-08T22:56:20Z</time>
      </trkpt>
      <trkpt lat="-2.620028" lon="-78.783424">
        <ele>3480.00</ele>
        <time>2018-09-08T22:56:21Z</time>
      </trkpt>
      <trkpt lat="-2.620146" lon="-78.783386">
        <ele>3480.00</ele>
        <time>2018-09-08T22:56:22Z</time>
      </trkpt>
      <trkpt lat="-2.620263" lon="-78.783363">
        <ele>3480.00</ele>
        <time>2018-09-08T22:56:23Z</time>
      </trkpt>
      <trkpt lat="-2.620374" lon="-78.783340">
        <ele>3480.00</ele>
        <time>2018-09-08T22:56:24Z</time>
      </trkpt>
      <trkpt lat="-2.620472" lon="-78.783318">
        <ele>3480.00</ele>
        <time>2018-09-08T22:56:25Z</time>
      </trkpt>
      <trkpt lat="-2.620561" lon="-78.783279">
        <ele>3480.00</ele>
        <time>2018-09-08T22:56:26Z</time>
      </trkpt>
      <trkpt lat="-2.620618" lon="-78.783203">
        <ele>3480.00</ele>
        <time>2018-09-08T22:56:27Z</time>
      </trkpt>
      <trkpt lat="-2.620653" lon="-78.783096">
        <ele>3481.00</ele>
        <time>2018-09-08T22:56:28Z</time>
      </trkpt>
      <trkpt lat="-2.620665" lon="-78.782967">
        <ele>3481.00</ele>
        <time>2018-09-08T22:56:29Z</time>
      </trkpt>
      <trkpt lat="-2.620661" lon="-78.782852">
        <ele>3481.00</ele>
        <time>2018-09-08T22:56:30Z</time>
      </trkpt>
      <trkpt lat="-2.620650" lon="-78.782738">
        <ele>3481.00</ele>
        <time>2018-09-08T22:56:31Z</time>
      </trkpt>
      <trkpt lat="-2.620635" lon="-78.782661">
        <ele>3482.00</ele>
        <time>2018-09-08T22:56:32Z</time>
      </trkpt>
      <trkpt lat="-2.620624" lon="-78.782585">
        <ele>3482.00</ele>
        <time>2018-09-08T22:56:33Z</time>
      </trkpt>
      <trkpt lat="-2.620615" lon="-78.782524">
        <ele>3482.00</ele>
        <time>2018-09-08T22:56:34Z</time>
      </trkpt>
      <trkpt lat="-2.620608" lon="-78.782478">
        <ele>3482.00</ele>
        <time>2018-09-08T22:56:35Z</time>
      </trkpt>
      <trkpt lat="-2.620602" lon="-78.782448">
        <ele>3482.00</ele>
        <time>2018-09-08T22:56:36Z</time>
      </trkpt>
      <trkpt lat="-2.620597" lon="-78.782417">
        <ele>3482.00</ele>
        <time>2018-09-08T22:56:37Z</time>
      </trkpt>
      <trkpt lat="-2.620592" lon="-78.782379">
        <ele>3482.00</ele>
        <time>2018-09-08T22:56:38Z</time>
      </trkpt>
      <trkpt lat="-2.620583" lon="-78.782326">
        <ele>3483.00</ele>
        <time>2018-09-08T22:56:39Z</time>
      </trkpt>
      <trkpt lat="-2.620572" lon="-78.782272">
        <ele>3483.00</ele>
        <time>2018-09-08T22:56:40Z</time>
      </trkpt>
      <trkpt lat="-2.620569" lon="-78.782234">
        <ele>3483.00</ele>
        <time>2018-09-08T22:56:41Z</time>
      </trkpt>
      <trkpt lat="-2.620569" lon="-78.782234">
        <ele>3483.00</ele>
        <time>2018-09-08T22:56:42Z</time>
      </trkpt>
      <trkpt lat="-2.620574" lon="-78.782196">
        <ele>3483.00</ele>
        <time>2018-09-08T22:56:43Z</time>
      </trkpt>
      <trkpt lat="-2.620589" lon="-78.782166">
        <ele>3484.00</ele>
        <time>2018-09-08T22:56:44Z</time>
      </trkpt>
      <trkpt lat="-2.620618" lon="-78.782143">
        <ele>3484.00</ele>
        <time>2018-09-08T22:56:45Z</time>
      </trkpt>
      <trkpt lat="-2.620672" lon="-78.782127">
        <ele>3484.00</ele>
        <time>2018-09-08T22:56:46Z</time>
      </trkpt>
      <trkpt lat="-2.620741" lon="-78.782135">
        <ele>3485.00</ele>
        <time>2018-09-08T22:56:47Z</time>
      </trkpt>
      <trkpt lat="-2.620822" lon="-78.782158">
        <ele>3485.00</ele>
        <time>2018-09-08T22:56:48Z</time>
      </trkpt>
      <trkpt lat="-2.620894" lon="-78.782234">
        <ele>3485.00</ele>
        <time>2018-09-08T22:56:49Z</time>
      </trkpt>
      <trkpt lat="-2.620968" lon="-78.782303">
        <ele>3485.00</ele>
        <time>2018-09-08T22:56:50Z</time>
      </trkpt>
      <trkpt lat="-2.621043" lon="-78.782364">
        <ele>3485.00</ele>
        <time>2018-09-08T22:56:51Z</time>
      </trkpt>
      <trkpt lat="-2.621113" lon="-78.782455">
        <ele>3485.00</ele>
        <time>2018-09-08T22:56:52Z</time>
      </trkpt>
      <trkpt lat="-2.621189" lon="-78.782539">
        <ele>3485.00</ele>
        <time>2018-09-08T22:56:53Z</time>
      </trkpt>
      <trkpt lat="-2.621281" lon="-78.782616">
        <ele>3485.00</ele>
        <time>2018-09-08T22:56:54Z</time>
      </trkpt>
      <trkpt lat="-2.621392" lon="-78.782677">
        <ele>3486.00</ele>
        <time>2018-09-08T22:56:55Z</time>
      </trkpt>
      <trkpt lat="-2.621501" lon="-78.782722">
        <ele>3486.00</ele>
        <time>2018-09-08T22:56:56Z</time>
      </trkpt>
      <trkpt lat="-2.621613" lon="-78.782745">
        <ele>3486.00</ele>
        <time>2018-09-08T22:56:57Z</time>
      </trkpt>
      <trkpt lat="-2.621732" lon="-78.782753">
        <ele>3487.00</ele>
        <time>2018-09-08T22:56:58Z</time>
      </trkpt>
      <trkpt lat="-2.621860" lon="-78.782738">
        <ele>3487.00</ele>
        <time>2018-09-08T22:56:59Z</time>
      </trkpt>
      <trkpt lat="-2.621991" lon="-78.782738">
        <ele>3488.00</ele>
        <time>2018-09-08T22:57:00Z</time>
      </trkpt>
      <trkpt lat="-2.622119" lon="-78.782730">
        <ele>3490.00</ele>
        <time>2018-09-08T22:57:01Z</time>
      </trkpt>
      <trkpt lat="-2.622233" lon="-78.782738">
        <ele>3491.00</ele>
        <time>2018-09-08T22:57:02Z</time>
      </trkpt>
      <trkpt lat="-2.622331" lon="-78.782745">
        <ele>3493.00</ele>
        <time>2018-09-08T22:57:03Z</time>
      </trkpt>
      <trkpt lat="-2.622419" lon="-78.782730">
        <ele>3494.00</ele>
        <time>2018-09-08T22:57:04Z</time>
      </trkpt>
      <trkpt lat="-2.622525" lon="-78.782631">
        <ele>3496.00</ele>
        <time>2018-09-08T22:57:05Z</time>
      </trkpt>
      <trkpt lat="-2.622508" lon="-78.782539">
        <ele>3496.00</ele>
        <time>2018-09-08T22:57:06Z</time>
      </trkpt>
      <trkpt lat="-2.622495" lon="-78.782448">
        <ele>3497.00</ele>
        <time>2018-09-08T22:57:07Z</time>
      </trkpt>
      <trkpt lat="-2.622482" lon="-78.782341">
        <ele>3497.00</ele>
        <time>2018-09-08T22:57:08Z</time>
      </trkpt>
      <trkpt lat="-2.622487" lon="-78.782219">
        <ele>3498.00</ele>
        <time>2018-09-08T22:57:09Z</time>
      </trkpt>
      <trkpt lat="-2.622511" lon="-78.782104">
        <ele>3498.00</ele>
        <time>2018-09-08T22:57:10Z</time>
      </trkpt>
      <trkpt lat="-2.622530" lon="-78.781982">
        <ele>3499.00</ele>
        <time>2018-09-08T22:57:11Z</time>
      </trkpt>
      <trkpt lat="-2.622532" lon="-78.781868">
        <ele>3499.00</ele>
        <time>2018-09-08T22:57:12Z</time>
      </trkpt>
      <trkpt lat="-2.622528" lon="-78.781731">
        <ele>3500.00</ele>
        <time>2018-09-08T22:57:13Z</time>
      </trkpt>
      <trkpt lat="-2.622501" lon="-78.781601">
        <ele>3500.00</ele>
        <time>2018-09-08T22:57:14Z</time>
      </trkpt>
      <trkpt lat="-2.622450" lon="-78.781464">
        <ele>3501.00</ele>
        <time>2018-09-08T22:57:15Z</time>
      </trkpt>
      <trkpt lat="-2.622392" lon="-78.781342">
        <ele>3501.00</ele>
        <time>2018-09-08T22:57:16Z</time>
      </trkpt>
      <trkpt lat="-2.622341" lon="-78.781219">
        <ele>3502.00</ele>
        <time>2018-09-08T22:57:17Z</time>
      </trkpt>
      <trkpt lat="-2.622298" lon="-78.781105">
        <ele>3502.00</ele>
        <time>2018-09-08T22:57:18Z</time>
      </trkpt>
      <trkpt lat="-2.622273" lon="-78.780983">
        <ele>3502.00</ele>
        <time>2018-09-08T22:57:19Z</time>
      </trkpt>
      <trkpt lat="-2.622262" lon="-78.780869">
        <ele>3502.00</ele>
        <time>2018-09-08T22:57:20Z</time>
      </trkpt>
      <trkpt lat="-2.622263" lon="-78.780785">
        <ele>3503.00</ele>
        <time>2018-09-08T22:57:21Z</time>
      </trkpt>
      <trkpt lat="-2.622299" lon="-78.780708">
        <ele>3503.00</ele>
        <time>2018-09-08T22:57:22Z</time>
      </trkpt>
      <trkpt lat="-2.622329" lon="-78.780655">
        <ele>3503.00</ele>
        <time>2018-09-08T22:57:23Z</time>
      </trkpt>
      <trkpt lat="-2.622394" lon="-78.780655">
        <ele>3504.00</ele>
        <time>2018-09-08T22:57:24Z</time>
      </trkpt>
      <trkpt lat="-2.622482" lon="-78.780670">
        <ele>3504.00</ele>
        <time>2018-09-08T22:57:25Z</time>
      </trkpt>
      <trkpt lat="-2.622583" lon="-78.780640">
        <ele>3505.00</ele>
        <time>2018-09-08T22:57:26Z</time>
      </trkpt>
      <trkpt lat="-2.622663" lon="-78.780579">
        <ele>3505.00</ele>
        <time>2018-09-08T22:57:27Z</time>
      </trkpt>
      <trkpt lat="-2.622717" lon="-78.780495">
        <ele>3505.00</ele>
        <time>2018-09-08T22:57:28Z</time>
      </trkpt>
      <trkpt lat="-2.622747" lon="-78.780411">
        <ele>3506.00</ele>
        <time>2018-09-08T22:57:29Z</time>
      </trkpt>
      <trkpt lat="-2.622728" lon="-78.780312">
        <ele>3506.00</ele>
        <time>2018-09-08T22:57:30Z</time>
      </trkpt>
      <trkpt lat="-2.622686" lon="-78.780220">
        <ele>3506.00</ele>
        <time>2018-09-08T22:57:31Z</time>
      </trkpt>
      <trkpt lat="-2.622619" lon="-78.780144">
        <ele>3507.00</ele>
        <time>2018-09-08T22:57:32Z</time>
      </trkpt>
      <trkpt lat="-2.622562" lon="-78.780045">
        <ele>3509.00</ele>
        <time>2018-09-08T22:57:33Z</time>
      </trkpt>
      <trkpt lat="-2.622524" lon="-78.779945">
        <ele>3511.00</ele>
        <time>2018-09-08T22:57:34Z</time>
      </trkpt>
      <trkpt lat="-2.622494" lon="-78.779839">
        <ele>3514.00</ele>
        <time>2018-09-08T22:57:35Z</time>
      </trkpt>
      <trkpt lat="-2.622479" lon="-78.779724">
        <ele>3516.00</ele>
        <time>2018-09-08T22:57:36Z</time>
      </trkpt>
      <trkpt lat="-2.622468" lon="-78.779617">
        <ele>3517.00</ele>
        <time>2018-09-08T22:57:37Z</time>
      </trkpt>
      <trkpt lat="-2.622460" lon="-78.779518">
        <ele>3519.00</ele>
        <time>2018-09-08T22:57:38Z</time>
      </trkpt>
      <trkpt lat="-2.622456" lon="-78.779434">
        <ele>3521.00</ele>
        <time>2018-09-08T22:57:39Z</time>
      </trkpt>
      <trkpt lat="-2.622465" lon="-78.779350">
        <ele>3522.00</ele>
        <time>2018-09-08T22:57:40Z</time>
      </trkpt>
      <trkpt lat="-2.622502" lon="-78.779282">
        <ele>3524.00</ele>
        <time>2018-09-08T22:57:41Z</time>
      </trkpt>
      <trkpt lat="-2.622561" lon="-78.779243">
        <ele>3525.00</ele>
        <time>2018-09-08T22:57:42Z</time>
      </trkpt>
      <trkpt lat="-2.622631" lon="-78.779236">
        <ele>3526.00</ele>
        <time>2018-09-08T22:57:43Z</time>
      </trkpt>
      <trkpt lat="-2.622693" lon="-78.779274">
        <ele>3527.00</ele>
        <time>2018-09-08T22:57:44Z</time>
      </trkpt>
      <trkpt lat="-2.622781" lon="-78.779327">
        <ele>3529.00</ele>
        <time>2018-09-08T22:57:45Z</time>
      </trkpt>
      <trkpt lat="-2.622881" lon="-78.779366">
        <ele>3530.00</ele>
        <time>2018-09-08T22:57:46Z</time>
      </trkpt>
      <trkpt lat="-2.622986" lon="-78.779396">
        <ele>3530.00</ele>
        <time>2018-09-08T22:57:47Z</time>
      </trkpt>
      <trkpt lat="-2.623085" lon="-78.779411">
        <ele>3531.00</ele>
        <time>2018-09-08T22:57:48Z</time>
      </trkpt>
      <trkpt lat="-2.623198" lon="-78.779442">
        <ele>3532.00</ele>
        <time>2018-09-08T22:57:49Z</time>
      </trkpt>
      <trkpt lat="-2.623319" lon="-78.779472">
        <ele>3533.00</ele>
        <time>2018-09-08T22:57:50Z</time>
      </trkpt>
      <trkpt lat="-2.623445" lon="-78.779526">
        <ele>3534.00</ele>
        <time>2018-09-08T22:57:51Z</time>
      </trkpt>
      <trkpt lat="-2.623572" lon="-78.779594">
        <ele>3536.00</ele>
        <time>2018-09-08T22:57:52Z</time>
      </trkpt>
      <trkpt lat="-2.623704" lon="-78.779655">
        <ele>3538.00</ele>
        <time>2018-09-08T22:57:53Z</time>
      </trkpt>
      <trkpt lat="-2.623834" lon="-78.779716">
        <ele>3540.00</ele>
        <time>2018-09-08T22:57:54Z</time>
      </trkpt>
      <trkpt lat="-2.623964" lon="-78.779778">
        <ele>3542.00</ele>
        <time>2018-09-08T22:57:55Z</time>
      </trkpt>
      <trkpt lat="-2.624086" lon="-78.779831">
        <ele>3543.00</ele>
        <time>2018-09-08T22:57:56Z</time>
      </trkpt>
      <trkpt lat="-2.624193" lon="-78.779884">
        <ele>3545.00</ele>
        <time>2018-09-08T22:57:57Z</time>
      </trkpt>
      <trkpt lat="-2.624303" lon="-78.779938">
        <ele>3546.00</ele>
        <time>2018-09-08T22:57:58Z</time>
      </trkpt>
      <trkpt lat="-2.624425" lon="-78.779953">
        <ele>3547.00</ele>
        <time>2018-09-08T22:57:59Z</time>
      </trkpt>
      <trkpt lat="-2.624548" lon="-78.779961">
        <ele>3548.00</ele>
        <time>2018-09-08T22:58:00Z</time>
      </trkpt>
      <trkpt lat="-2.624660" lon="-78.779976">
        <ele>3549.00</ele>
        <time>2018-09-08T22:58:01Z</time>
      </trkpt>
      <trkpt lat="-2.624755" lon="-78.779999">
        <ele>3550.00</ele>
        <time>2018-09-08T22:58:02Z</time>
      </trkpt>
      <trkpt lat="-2.624846" lon="-78.780037">
        <ele>3550.00</ele>
        <time>2018-09-08T22:58:03Z</time>
      </trkpt>
      <trkpt lat="-2.624935" lon="-78.780090">
        <ele>3551.00</ele>
        <time>2018-09-08T22:58:04Z</time>
      </trkpt>
      <trkpt lat="-2.625035" lon="-78.780159">
        <ele>3552.00</ele>
        <time>2018-09-08T22:58:05Z</time>
      </trkpt>
      <trkpt lat="-2.625149" lon="-78.780228">
        <ele>3553.00</ele>
        <time>2018-09-08T22:58:06Z</time>
      </trkpt>
      <trkpt lat="-2.625282" lon="-78.780266">
        <ele>3554.00</ele>
        <time>2018-09-08T22:58:07Z</time>
      </trkpt>
      <trkpt lat="-2.625419" lon="-78.780304">
        <ele>3555.00</ele>
        <time>2018-09-08T22:58:08Z</time>
      </trkpt>
      <trkpt lat="-2.625561" lon="-78.780319">
        <ele>3556.00</ele>
        <time>2018-09-08T22:58:09Z</time>
      </trkpt>
      <trkpt lat="-2.625700" lon="-78.780350">
        <ele>3557.00</ele>
        <time>2018-09-08T22:58:10Z</time>
      </trkpt>
      <trkpt lat="-2.625843" lon="-78.780373">
        <ele>3558.00</ele>
        <time>2018-09-08T22:58:11Z</time>
      </trkpt>
      <trkpt lat="-2.625989" lon="-78.780380">
        <ele>3558.00</ele>
        <time>2018-09-08T22:58:12Z</time>
      </trkpt>
      <trkpt lat="-2.626133" lon="-78.780380">
        <ele>3560.00</ele>
        <time>2018-09-08T22:58:13Z</time>
      </trkpt>
      <trkpt lat="-2.626274" lon="-78.780403">
        <ele>3561.00</ele>
        <time>2018-09-08T22:58:14Z</time>
      </trkpt>
      <trkpt lat="-2.626410" lon="-78.780418">
        <ele>3562.00</ele>
        <time>2018-09-08T22:58:15Z</time>
      </trkpt>
      <trkpt lat="-2.626536" lon="-78.780434">
        <ele>3563.00</ele>
        <time>2018-09-08T22:58:16Z</time>
      </trkpt>
      <trkpt lat="-2.626656" lon="-78.780434">
        <ele>3565.00</ele>
        <time>2018-09-08T22:58:17Z</time>
      </trkpt>
      <trkpt lat="-2.626776" lon="-78.780411">
        <ele>3566.00</ele>
        <time>2018-09-08T22:58:18Z</time>
      </trkpt>
      <trkpt lat="-2.626906" lon="-78.780365">
        <ele>3568.00</ele>
        <time>2018-09-08T22:58:19Z</time>
      </trkpt>
      <trkpt lat="-2.627046" lon="-78.780319">
        <ele>3569.00</ele>
        <time>2018-09-08T22:58:20Z</time>
      </trkpt>
      <trkpt lat="-2.627185" lon="-78.780273">
        <ele>3570.00</ele>
        <time>2018-09-08T22:58:21Z</time>
      </trkpt>
      <trkpt lat="-2.627313" lon="-78.780251">
        <ele>3570.00</ele>
        <time>2018-09-08T22:58:22Z</time>
      </trkpt>
      <trkpt lat="-2.627432" lon="-78.780228">
        <ele>3571.00</ele>
        <time>2018-09-08T22:58:23Z</time>
      </trkpt>
      <trkpt lat="-2.627540" lon="-78.780228">
        <ele>3572.00</ele>
        <time>2018-09-08T22:58:24Z</time>
      </trkpt>
      <trkpt lat="-2.627638" lon="-78.780228">
        <ele>3572.00</ele>
        <time>2018-09-08T22:58:25Z</time>
      </trkpt>
      <trkpt lat="-2.627721" lon="-78.780281">
        <ele>3573.00</ele>
        <time>2018-09-08T22:58:26Z</time>
      </trkpt>
      <trkpt lat="-2.627785" lon="-78.780380">
        <ele>3573.00</ele>
        <time>2018-09-08T22:58:27Z</time>
      </trkpt>
      <trkpt lat="-2.627826" lon="-78.780487">
        <ele>3573.00</ele>
        <time>2018-09-08T22:58:28Z</time>
      </trkpt>
      <trkpt lat="-2.627876" lon="-78.780579">
        <ele>3574.00</ele>
        <time>2018-09-08T22:58:29Z</time>
      </trkpt>
      <trkpt lat="-2.627960" lon="-78.780647">
        <ele>3574.00</ele>
        <time>2018-09-08T22:58:30Z</time>
      </trkpt>
      <trkpt lat="-2.628067" lon="-78.780693">
        <ele>3574.00</ele>
        <time>2018-09-08T22:58:31Z</time>
      </trkpt>
      <trkpt lat="-2.628193" lon="-78.780731">
        <ele>3574.00</ele>
        <time>2018-09-08T22:58:32Z</time>
      </trkpt>
      <trkpt lat="-2.628325" lon="-78.780746">
        <ele>3574.00</ele>
        <time>2018-09-08T22:58:33Z</time>
      </trkpt>
      <trkpt lat="-2.628457" lon="-78.780762">
        <ele>3575.00</ele>
        <time>2018-09-08T22:58:34Z</time>
      </trkpt>
      <trkpt lat="-2.628585" lon="-78.780785">
        <ele>3575.00</ele>
        <time>2018-09-08T22:58:35Z</time>
      </trkpt>
      <trkpt lat="-2.628710" lon="-78.780762">
        <ele>3575.00</ele>
        <time>2018-09-08T22:58:36Z</time>
      </trkpt>
      <trkpt lat="-2.628818" lon="-78.780739">
        <ele>3575.00</ele>
        <time>2018-09-08T22:58:37Z</time>
      </trkpt>
      <trkpt lat="-2.628912" lon="-78.780693">
        <ele>3575.00</ele>
        <time>2018-09-08T22:58:38Z</time>
      </trkpt>
      <trkpt lat="-2.628998" lon="-78.780617">
        <ele>3576.00</ele>
        <time>2018-09-08T22:58:39Z</time>
      </trkpt>
      <trkpt lat="-2.629063" lon="-78.780548">
        <ele>3576.00</ele>
        <time>2018-09-08T22:58:40Z</time>
      </trkpt>
      <trkpt lat="-2.629119" lon="-78.780495">
        <ele>3576.00</ele>
        <time>2018-09-08T22:58:41Z</time>
      </trkpt>
      <trkpt lat="-2.629189" lon="-78.780479">
        <ele>3576.00</ele>
        <time>2018-09-08T22:58:42Z</time>
      </trkpt>
      <trkpt lat="-2.629269" lon="-78.780487">
        <ele>3576.00</ele>
        <time>2018-09-08T22:58:43Z</time>
      </trkpt>
      <trkpt lat="-2.629337" lon="-78.780548">
        <ele>3577.00</ele>
        <time>2018-09-08T22:58:44Z</time>
      </trkpt>
      <trkpt lat="-2.629414" lon="-78.780632">
        <ele>3577.00</ele>
        <time>2018-09-08T22:58:45Z</time>
      </trkpt>
      <trkpt lat="-2.629491" lon="-78.780724">
        <ele>3577.00</ele>
        <time>2018-09-08T22:58:46Z</time>
      </trkpt>
      <trkpt lat="-2.629576" lon="-78.780800">
        <ele>3577.00</ele>
        <time>2018-09-08T22:58:47Z</time>
      </trkpt>
      <trkpt lat="-2.629674" lon="-78.780861">
        <ele>3577.00</ele>
        <time>2018-09-08T22:58:48Z</time>
      </trkpt>
      <trkpt lat="-2.629761" lon="-78.780884">
        <ele>3578.00</ele>
        <time>2018-09-08T22:58:49Z</time>
      </trkpt>
      <trkpt lat="-2.629856" lon="-78.780869">
        <ele>3578.00</ele>
        <time>2018-09-08T22:58:50Z</time>
      </trkpt>
      <trkpt lat="-2.629962" lon="-78.780838">
        <ele>3578.00</ele>
        <time>2018-09-08T22:58:51Z</time>
      </trkpt>
      <trkpt lat="-2.630067" lon="-78.780792">
        <ele>3578.00</ele>
        <time>2018-09-08T22:58:52Z</time>
      </trkpt>
      <trkpt lat="-2.630162" lon="-78.780724">
        <ele>3578.00</ele>
        <time>2018-09-08T22:58:53Z</time>
      </trkpt>
      <trkpt lat="-2.630232" lon="-78.780647">
        <ele>3578.00</ele>
        <time>2018-09-08T22:58:54Z</time>
      </trkpt>
      <trkpt lat="-2.630267" lon="-78.780579">
        <ele>3577.00</ele>
        <time>2018-09-08T22:58:55Z</time>
      </trkpt>
      <trkpt lat="-2.630325" lon="-78.780540">
        <ele>3576.00</ele>
        <time>2018-09-08T22:58:56Z</time>
      </trkpt>
      <trkpt lat="-2.630378" lon="-78.780518">
        <ele>3576.00</ele>
        <time>2018-09-08T22:58:57Z</time>
      </trkpt>
      <trkpt lat="-2.630424" lon="-78.780487">
        <ele>3575.00</ele>
        <time>2018-09-08T22:58:58Z</time>
      </trkpt>
      <trkpt lat="-2.631211" lon="-78.780746">
        <ele>3574.00</ele>
        <time>2018-09-08T22:59:03Z</time>
      </trkpt>
      <trkpt lat="-2.631215" lon="-78.780861">
        <ele>3572.00</ele>
        <time>2018-09-08T22:59:04Z</time>
      </trkpt>
      <trkpt lat="-2.631239" lon="-78.780983">
        <ele>3571.00</ele>
        <time>2018-09-08T22:59:05Z</time>
      </trkpt>
      <trkpt lat="-2.631435" lon="-78.781067">
        <ele>3570.00</ele>
        <time>2018-09-08T22:59:06Z</time>
      </trkpt>
      <trkpt lat="-2.631480" lon="-78.781166">
        <ele>3569.00</ele>
        <time>2018-09-08T22:59:07Z</time>
      </trkpt>
      <trkpt lat="-2.631559" lon="-78.781212">
        <ele>3568.00</ele>
        <time>2018-09-08T22:59:08Z</time>
      </trkpt>
      <trkpt lat="-2.631665" lon="-78.781265">
        <ele>3567.00</ele>
        <time>2018-09-08T22:59:09Z</time>
      </trkpt>
      <trkpt lat="-2.631456" lon="-78.781067">
        <ele>3566.00</ele>
        <time>2018-09-08T22:59:10Z</time>
      </trkpt>
      <trkpt lat="-2.631369" lon="-78.780899">
        <ele>3565.00</ele>
        <time>2018-09-08T22:59:11Z</time>
      </trkpt>
      <trkpt lat="-2.631408" lon="-78.780884">
        <ele>3563.00</ele>
        <time>2018-09-08T22:59:12Z</time>
      </trkpt>
      <trkpt lat="-2.631428" lon="-78.780861">
        <ele>3562.00</ele>
        <time>2018-09-08T22:59:13Z</time>
      </trkpt>
      <trkpt lat="-2.631382" lon="-78.780800">
        <ele>3560.00</ele>
        <time>2018-09-08T22:59:14Z</time>
      </trkpt>
      <trkpt lat="-2.631452" lon="-78.780869">
        <ele>3557.00</ele>
        <time>2018-09-08T22:59:15Z</time>
      </trkpt>
      <trkpt lat="-2.631541" lon="-78.781075">
        <ele>3553.00</ele>
        <time>2018-09-08T22:59:16Z</time>
      </trkpt>
      <trkpt lat="-2.631638" lon="-78.781158">
        <ele>3549.00</ele>
        <time>2018-09-08T22:59:17Z</time>
      </trkpt>
      <trkpt lat="-2.631739" lon="-78.781189">
        <ele>3546.00</ele>
        <time>2018-09-08T22:59:18Z</time>
      </trkpt>
      <trkpt lat="-2.631876" lon="-78.781174">
        <ele>3544.00</ele>
        <time>2018-09-08T22:59:19Z</time>
      </trkpt>
      <trkpt lat="-2.632000" lon="-78.781242">
        <ele>3543.00</ele>
        <time>2018-09-08T22:59:20Z</time>
      </trkpt>
      <trkpt lat="-2.632093" lon="-78.781395">
        <ele>3541.00</ele>
        <time>2018-09-08T22:59:21Z</time>
      </trkpt>
      <trkpt lat="-2.632221" lon="-78.781517">
        <ele>3541.00</ele>
        <time>2018-09-08T22:59:22Z</time>
      </trkpt>
      <trkpt lat="-2.632354" lon="-78.781670">
        <ele>3540.00</ele>
        <time>2018-09-08T22:59:23Z</time>
      </trkpt>
      <trkpt lat="-2.632494" lon="-78.781799">
        <ele>3540.00</ele>
        <time>2018-09-08T22:59:24Z</time>
      </trkpt>
      <trkpt lat="-2.632622" lon="-78.781921">
        <ele>3540.00</ele>
        <time>2018-09-08T22:59:25Z</time>
      </trkpt>
      <trkpt lat="-2.632720" lon="-78.782005">
        <ele>3540.00</ele>
        <time>2018-09-08T22:59:26Z</time>
      </trkpt>
      <trkpt lat="-2.632833" lon="-78.782104">
        <ele>3540.00</ele>
        <time>2018-09-08T22:59:27Z</time>
      </trkpt>
      <trkpt lat="-2.632955" lon="-78.782181">
        <ele>3540.00</ele>
        <time>2018-09-08T22:59:28Z</time>
      </trkpt>
      <trkpt lat="-2.633087" lon="-78.782219">
        <ele>3541.00</ele>
        <time>2018-09-08T22:59:29Z</time>
      </trkpt>
      <trkpt lat="-2.633214" lon="-78.782242">
        <ele>3543.00</ele>
        <time>2018-09-08T22:59:30Z</time>
      </trkpt>
      <trkpt lat="-2.633345" lon="-78.782249">
        <ele>3544.00</ele>
        <time>2018-09-08T22:59:31Z</time>
      </trkpt>
      <trkpt lat="-2.633469" lon="-78.782257">
        <ele>3546.00</ele>
        <time>2018-09-08T22:59:32Z</time>
      </trkpt>
      <trkpt lat="-2.633591" lon="-78.782242">
        <ele>3547.00</ele>
        <time>2018-09-08T22:59:33Z</time>
      </trkpt>
      <trkpt lat="-2.633718" lon="-78.782211">
        <ele>3549.00</ele>
        <time>2018-09-08T22:59:34Z</time>
      </trkpt>
      <trkpt lat="-2.633846" lon="-78.782188">
        <ele>3551.00</ele>
        <time>2018-09-08T22:59:35Z</time>
      </trkpt>
      <trkpt lat="-2.633976" lon="-78.782188">
        <ele>3553.00</ele>
        <time>2018-09-08T22:59:36Z</time>
      </trkpt>
      <trkpt lat="-2.634096" lon="-78.782204">
        <ele>3555.00</ele>
        <time>2018-09-08T22:59:37Z</time>
      </trkpt>
      <trkpt lat="-2.634218" lon="-78.782196">
        <ele>3557.00</ele>
        <time>2018-09-08T22:59:38Z</time>
      </trkpt>
      <trkpt lat="-2.634339" lon="-78.782166">
        <ele>3559.00</ele>
        <time>2018-09-08T22:59:39Z</time>
      </trkpt>
      <trkpt lat="-2.634440" lon="-78.782112">
        <ele>3561.00</ele>
        <time>2018-09-08T22:59:40Z</time>
      </trkpt>
      <trkpt lat="-2.634534" lon="-78.782082">
        <ele>3562.00</ele>
        <time>2018-09-08T22:59:41Z</time>
      </trkpt>
      <trkpt lat="-2.634624" lon="-78.782036">
        <ele>3563.00</ele>
        <time>2018-09-08T22:59:42Z</time>
      </trkpt>
      <trkpt lat="-2.634676" lon="-78.781952">
        <ele>3564.00</ele>
        <time>2018-09-08T22:59:43Z</time>
      </trkpt>
      <trkpt lat="-2.634728" lon="-78.781860">
        <ele>3566.00</ele>
        <time>2018-09-08T22:59:44Z</time>
      </trkpt>
      <trkpt lat="-2.634787" lon="-78.781746">
        <ele>3567.00</ele>
        <time>2018-09-08T22:59:45Z</time>
      </trkpt>
      <trkpt lat="-2.634842" lon="-78.781639">
        <ele>3569.00</ele>
        <time>2018-09-08T22:59:46Z</time>
      </trkpt>
      <trkpt lat="-2.634888" lon="-78.781517">
        <ele>3571.00</ele>
        <time>2018-09-08T22:59:47Z</time>
      </trkpt>
      <trkpt lat="-2.634913" lon="-78.781395">
        <ele>3572.00</ele>
        <time>2018-09-08T22:59:48Z</time>
      </trkpt>
      <trkpt lat="-2.634922" lon="-78.781265">
        <ele>3574.00</ele>
        <time>2018-09-08T22:59:49Z</time>
      </trkpt>
      <trkpt lat="-2.634936" lon="-78.781143">
        <ele>3576.00</ele>
        <time>2018-09-08T22:59:50Z</time>
      </trkpt>
      <trkpt lat="-2.634963" lon="-78.781029">
        <ele>3577.00</ele>
        <time>2018-09-08T22:59:51Z</time>
      </trkpt>
      <trkpt lat="-2.634997" lon="-78.780930">
        <ele>3579.00</ele>
        <time>2018-09-08T22:59:52Z</time>
      </trkpt>
      <trkpt lat="-2.635051" lon="-78.780846">
        <ele>3580.00</ele>
        <time>2018-09-08T22:59:53Z</time>
      </trkpt>
      <trkpt lat="-2.635127" lon="-78.780777">
        <ele>3582.00</ele>
        <time>2018-09-08T22:59:54Z</time>
      </trkpt>
      <trkpt lat="-2.635232" lon="-78.780746">
        <ele>3584.00</ele>
        <time>2018-09-08T22:59:55Z</time>
      </trkpt>
      <trkpt lat="-2.635329" lon="-78.780724">
        <ele>3586.00</ele>
        <time>2018-09-08T22:59:56Z</time>
      </trkpt>
      <trkpt lat="-2.635416" lon="-78.780701">
        <ele>3587.00</ele>
        <time>2018-09-08T22:59:57Z</time>
      </trkpt>
      <trkpt lat="-2.635503" lon="-78.780701">
        <ele>3588.00</ele>
        <time>2018-09-08T22:59:58Z</time>
      </trkpt>
      <trkpt lat="-2.635595" lon="-78.780739">
        <ele>3588.00</ele>
        <time>2018-09-08T22:59:59Z</time>
      </trkpt>
      <trkpt lat="-2.635697" lon="-78.780800">
        <ele>3589.00</ele>
        <time>2018-09-08T23:00:00Z</time>
      </trkpt>
      <trkpt lat="-2.635787" lon="-78.780861">
        <ele>3590.00</ele>
        <time>2018-09-08T23:00:01Z</time>
      </trkpt>
      <trkpt lat="-2.635856" lon="-78.780960">
        <ele>3592.00</ele>
        <time>2018-09-08T23:00:02Z</time>
      </trkpt>
      <trkpt lat="-2.635941" lon="-78.781029">
        <ele>3594.00</ele>
        <time>2018-09-08T23:00:03Z</time>
      </trkpt>
      <trkpt lat="-2.636037" lon="-78.781082">
        <ele>3595.00</ele>
        <time>2018-09-08T23:00:04Z</time>
      </trkpt>
      <trkpt lat="-2.636136" lon="-78.781143">
        <ele>3597.00</ele>
        <time>2018-09-08T23:00:05Z</time>
      </trkpt>
      <trkpt lat="-2.636226" lon="-78.781212">
        <ele>3598.00</ele>
        <time>2018-09-08T23:00:06Z</time>
      </trkpt>
      <trkpt lat="-2.636338" lon="-78.781288">
        <ele>3599.00</ele>
        <time>2018-09-08T23:00:07Z</time>
      </trkpt>
      <trkpt lat="-2.636427" lon="-78.781334">
        <ele>3599.00</ele>
        <time>2018-09-08T23:00:08Z</time>
      </trkpt>
      <trkpt lat="-2.636534" lon="-78.781349">
        <ele>3600.00</ele>
        <time>2018-09-08T23:00:09Z</time>
      </trkpt>
      <trkpt lat="-2.636647" lon="-78.781357">
        <ele>3600.00</ele>
        <time>2018-09-08T23:00:10Z</time>
      </trkpt>
      <trkpt lat="-2.636755" lon="-78.781372">
        <ele>3601.00</ele>
        <time>2018-09-08T23:00:11Z</time>
      </trkpt>
      <trkpt lat="-2.636846" lon="-78.781387">
        <ele>3601.00</ele>
        <time>2018-09-08T23:00:12Z</time>
      </trkpt>
      <trkpt lat="-2.636930" lon="-78.781372">
        <ele>3602.00</ele>
        <time>2018-09-08T23:00:13Z</time>
      </trkpt>
      <trkpt lat="-2.637023" lon="-78.781357">
        <ele>3602.00</ele>
        <time>2018-09-08T23:00:14Z</time>
      </trkpt>
      <trkpt lat="-2.637113" lon="-78.781303">
        <ele>3602.00</ele>
        <time>2018-09-08T23:00:15Z</time>
      </trkpt>
      <trkpt lat="-2.637211" lon="-78.781265">
        <ele>3603.00</ele>
        <time>2018-09-08T23:00:16Z</time>
      </trkpt>
      <trkpt lat="-2.637311" lon="-78.781219">
        <ele>3604.00</ele>
        <time>2018-09-08T23:00:17Z</time>
      </trkpt>
      <trkpt lat="-2.637409" lon="-78.781166">
        <ele>3605.00</ele>
        <time>2018-09-08T23:00:18Z</time>
      </trkpt>
      <trkpt lat="-2.637512" lon="-78.781120">
        <ele>3606.00</ele>
        <time>2018-09-08T23:00:19Z</time>
      </trkpt>
      <trkpt lat="-2.637616" lon="-78.781067">
        <ele>3608.00</ele>
        <time>2018-09-08T23:00:20Z</time>
      </trkpt>
      <trkpt lat="-2.637714" lon="-78.781029">
        <ele>3609.00</ele>
        <time>2018-09-08T23:00:21Z</time>
      </trkpt>
      <trkpt lat="-2.637801" lon="-78.780998">
        <ele>3610.00</ele>
        <time>2018-09-08T23:00:22Z</time>
      </trkpt>
      <trkpt lat="-2.637872" lon="-78.780930">
        <ele>3611.00</ele>
        <time>2018-09-08T23:00:23Z</time>
      </trkpt>
      <trkpt lat="-2.637924" lon="-78.780846">
        <ele>3611.00</ele>
        <time>2018-09-08T23:00:24Z</time>
      </trkpt>
      <trkpt lat="-2.637974" lon="-78.780754">
        <ele>3612.00</ele>
        <time>2018-09-08T23:00:25Z</time>
      </trkpt>
      <trkpt lat="-2.638022" lon="-78.780655">
        <ele>3612.00</ele>
        <time>2018-09-08T23:00:26Z</time>
      </trkpt>
      <trkpt lat="-2.638074" lon="-78.780571">
        <ele>3614.00</ele>
        <time>2018-09-08T23:00:27Z</time>
      </trkpt>
      <trkpt lat="-2.638129" lon="-78.780487">
        <ele>3616.00</ele>
        <time>2018-09-08T23:00:28Z</time>
      </trkpt>
      <trkpt lat="-2.638165" lon="-78.780411">
        <ele>3618.00</ele>
        <time>2018-09-08T23:00:29Z</time>
      </trkpt>
      <trkpt lat="-2.638189" lon="-78.780312">
        <ele>3621.00</ele>
        <time>2018-09-08T23:00:30Z</time>
      </trkpt>
      <trkpt lat="-2.638173" lon="-78.780205">
        <ele>3623.00</ele>
        <time>2018-09-08T23:00:31Z</time>
      </trkpt>
      <trkpt lat="-2.638153" lon="-78.780098">
        <ele>3625.00</ele>
        <time>2018-09-08T23:00:32Z</time>
      </trkpt>
      <trkpt lat="-2.638138" lon="-78.779991">
        <ele>3627.00</ele>
        <time>2018-09-08T23:00:33Z</time>
      </trkpt>
      <trkpt lat="-2.638139" lon="-78.779892">
        <ele>3629.00</ele>
        <time>2018-09-08T23:00:34Z</time>
      </trkpt>
      <trkpt lat="-2.638155" lon="-78.779808">
        <ele>3631.00</ele>
        <time>2018-09-08T23:00:35Z</time>
      </trkpt>
      <trkpt lat="-2.638208" lon="-78.779724">
        <ele>3632.00</ele>
        <time>2018-09-08T23:00:36Z</time>
      </trkpt>
      <trkpt lat="-2.638286" lon="-78.779655">
        <ele>3633.00</ele>
        <time>2018-09-08T23:00:37Z</time>
      </trkpt>
      <trkpt lat="-2.638399" lon="-78.779625">
        <ele>3634.00</ele>
        <time>2018-09-08T23:00:38Z</time>
      </trkpt>
      <trkpt lat="-2.638509" lon="-78.779602">
        <ele>3635.00</ele>
        <time>2018-09-08T23:00:39Z</time>
      </trkpt>
      <trkpt lat="-2.638597" lon="-78.779564">
        <ele>3635.00</ele>
        <time>2018-09-08T23:00:40Z</time>
      </trkpt>
      <trkpt lat="-2.638679" lon="-78.779510">
        <ele>3636.00</ele>
        <time>2018-09-08T23:00:41Z</time>
      </trkpt>
      <trkpt lat="-2.638771" lon="-78.779457">
        <ele>3637.00</ele>
        <time>2018-09-08T23:00:42Z</time>
      </trkpt>
      <trkpt lat="-2.638876" lon="-78.779411">
        <ele>3637.00</ele>
        <time>2018-09-08T23:00:43Z</time>
      </trkpt>
      <trkpt lat="-2.638976" lon="-78.779388">
        <ele>3638.00</ele>
        <time>2018-09-08T23:00:44Z</time>
      </trkpt>
      <trkpt lat="-2.639065" lon="-78.779366">
        <ele>3638.00</ele>
        <time>2018-09-08T23:00:45Z</time>
      </trkpt>
      <trkpt lat="-2.639134" lon="-78.779381">
        <ele>3638.00</ele>
        <time>2018-09-08T23:00:46Z</time>
      </trkpt>
      <trkpt lat="-2.639203" lon="-78.779358">
        <ele>3639.00</ele>
        <time>2018-09-08T23:00:47Z</time>
      </trkpt>
      <trkpt lat="-2.639276" lon="-78.779343">
        <ele>3640.00</ele>
        <time>2018-09-08T23:00:48Z</time>
      </trkpt>
      <trkpt lat="-2.639336" lon="-78.779282">
        <ele>3640.00</ele>
        <time>2018-09-08T23:00:49Z</time>
      </trkpt>
      <trkpt lat="-2.639404" lon="-78.779221">
        <ele>3641.00</ele>
        <time>2018-09-08T23:00:50Z</time>
      </trkpt>
      <trkpt lat="-2.639500" lon="-78.779190">
        <ele>3641.00</ele>
        <time>2018-09-08T23:00:51Z</time>
      </trkpt>
      <trkpt lat="-2.639605" lon="-78.779190">
        <ele>3642.00</ele>
        <time>2018-09-08T23:00:52Z</time>
      </trkpt>
      <trkpt lat="-2.639706" lon="-78.779182">
        <ele>3642.00</ele>
        <time>2018-09-08T23:00:53Z</time>
      </trkpt>
      <trkpt lat="-2.639810" lon="-78.779205">
        <ele>3642.00</ele>
        <time>2018-09-08T23:00:54Z</time>
      </trkpt>
      <trkpt lat="-2.639904" lon="-78.779274">
        <ele>3643.00</ele>
        <time>2018-09-08T23:00:55Z</time>
      </trkpt>
      <trkpt lat="-2.639966" lon="-78.779358">
        <ele>3643.00</ele>
        <time>2018-09-08T23:00:56Z</time>
      </trkpt>
      <trkpt lat="-2.639992" lon="-78.779465">
        <ele>3643.00</ele>
        <time>2018-09-08T23:00:57Z</time>
      </trkpt>
      <trkpt lat="-2.640024" lon="-78.779579">
        <ele>3643.00</ele>
        <time>2018-09-08T23:00:58Z</time>
      </trkpt>
      <trkpt lat="-2.640068" lon="-78.779709">
        <ele>3643.00</ele>
        <time>2018-09-08T23:00:59Z</time>
      </trkpt>
      <trkpt lat="-2.640119" lon="-78.779846">
        <ele>3644.00</ele>
        <time>2018-09-08T23:01:00Z</time>
      </trkpt>
      <trkpt lat="-2.640171" lon="-78.779984">
        <ele>3644.00</ele>
        <time>2018-09-08T23:01:01Z</time>
      </trkpt>
      <trkpt lat="-2.640231" lon="-78.780106">
        <ele>3643.00</ele>
        <time>2018-09-08T23:01:02Z</time>
      </trkpt>
      <trkpt lat="-2.640310" lon="-78.780220">
        <ele>3643.00</ele>
        <time>2018-09-08T23:01:03Z</time>
      </trkpt>
      <trkpt lat="-2.640407" lon="-78.780334">
        <ele>3643.00</ele>
        <time>2018-09-08T23:01:04Z</time>
      </trkpt>
      <trkpt lat="-2.640506" lon="-78.780434">
        <ele>3643.00</ele>
        <time>2018-09-08T23:01:05Z</time>
      </trkpt>
      <trkpt lat="-2.640604" lon="-78.780540">
        <ele>3643.00</ele>
        <time>2018-09-08T23:01:06Z</time>
      </trkpt>
      <trkpt lat="-2.640691" lon="-78.780632">
        <ele>3642.00</ele>
        <time>2018-09-08T23:01:07Z</time>
      </trkpt>
      <trkpt lat="-2.640769" lon="-78.780701">
        <ele>3642.00</ele>
        <time>2018-09-08T23:01:08Z</time>
      </trkpt>
      <trkpt lat="-2.640844" lon="-78.780754">
        <ele>3642.00</ele>
        <time>2018-09-08T23:01:09Z</time>
      </trkpt>
      <trkpt lat="-2.640936" lon="-78.780762">
        <ele>3641.00</ele>
        <time>2018-09-08T23:01:10Z</time>
      </trkpt>
      <trkpt lat="-2.641045" lon="-78.780746">
        <ele>3641.00</ele>
        <time>2018-09-08T23:01:11Z</time>
      </trkpt>
      <trkpt lat="-2.641161" lon="-78.780685">
        <ele>3641.00</ele>
        <time>2018-09-08T23:01:12Z</time>
      </trkpt>
      <trkpt lat="-2.641280" lon="-78.780602">
        <ele>3641.00</ele>
        <time>2018-09-08T23:01:13Z</time>
      </trkpt>
      <trkpt lat="-2.641399" lon="-78.780510">
        <ele>3640.00</ele>
        <time>2018-09-08T23:01:14Z</time>
      </trkpt>
      <trkpt lat="-2.641530" lon="-78.780418">
        <ele>3639.00</ele>
        <time>2018-09-08T23:01:15Z</time>
      </trkpt>
      <trkpt lat="-2.641681" lon="-78.780319">
        <ele>3639.00</ele>
        <time>2018-09-08T23:01:16Z</time>
      </trkpt>
      <trkpt lat="-2.641845" lon="-78.780258">
        <ele>3638.00</ele>
        <time>2018-09-08T23:01:17Z</time>
      </trkpt>
      <trkpt lat="-2.642012" lon="-78.780205">
        <ele>3638.00</ele>
        <time>2018-09-08T23:01:18Z</time>
      </trkpt>
      <trkpt lat="-2.642173" lon="-78.780151">
        <ele>3637.00</ele>
        <time>2018-09-08T23:01:19Z</time>
      </trkpt>
      <trkpt lat="-2.642327" lon="-78.780098">
        <ele>3637.00</ele>
        <time>2018-09-08T23:01:20Z</time>
      </trkpt>
      <trkpt lat="-2.642482" lon="-78.780045">
        <ele>3637.00</ele>
        <time>2018-09-08T23:01:21Z</time>
      </trkpt>
      <trkpt lat="-2.642619" lon="-78.779991">
        <ele>3637.00</ele>
        <time>2018-09-08T23:01:22Z</time>
      </trkpt>
      <trkpt lat="-2.642737" lon="-78.779961">
        <ele>3637.00</ele>
        <time>2018-09-08T23:01:23Z</time>
      </trkpt>
      <trkpt lat="-2.642827" lon="-78.779915">
        <ele>3637.00</ele>
        <time>2018-09-08T23:01:24Z</time>
      </trkpt>
      <trkpt lat="-2.642920" lon="-78.779861">
        <ele>3637.00</ele>
        <time>2018-09-08T23:01:25Z</time>
      </trkpt>
      <trkpt lat="-2.643010" lon="-78.779770">
        <ele>3637.00</ele>
        <time>2018-09-08T23:01:26Z</time>
      </trkpt>
      <trkpt lat="-2.643105" lon="-78.779686">
        <ele>3637.00</ele>
        <time>2018-09-08T23:01:27Z</time>
      </trkpt>
      <trkpt lat="-2.643197" lon="-78.779633">
        <ele>3637.00</ele>
        <time>2018-09-08T23:01:28Z</time>
      </trkpt>
      <trkpt lat="-2.643293" lon="-78.779602">
        <ele>3637.00</ele>
        <time>2018-09-08T23:01:29Z</time>
      </trkpt>
      <trkpt lat="-2.643392" lon="-78.779610">
        <ele>3637.00</ele>
        <time>2018-09-08T23:01:30Z</time>
      </trkpt>
      <trkpt lat="-2.643472" lon="-78.779671">
        <ele>3637.00</ele>
        <time>2018-09-08T23:01:31Z</time>
      </trkpt>
      <trkpt lat="-2.643554" lon="-78.779724">
        <ele>3637.00</ele>
        <time>2018-09-08T23:01:32Z</time>
      </trkpt>
      <trkpt lat="-2.643647" lon="-78.779762">
        <ele>3637.00</ele>
        <time>2018-09-08T23:01:33Z</time>
      </trkpt>
      <trkpt lat="-2.643745" lon="-78.779732">
        <ele>3637.00</ele>
        <time>2018-09-08T23:01:34Z</time>
      </trkpt>
      <trkpt lat="-2.643844" lon="-78.779671">
        <ele>3637.00</ele>
        <time>2018-09-08T23:01:35Z</time>
      </trkpt>
      <trkpt lat="-2.643926" lon="-78.779602">
        <ele>3637.00</ele>
        <time>2018-09-08T23:01:36Z</time>
      </trkpt>
      <trkpt lat="-2.644001" lon="-78.779518">
        <ele>3637.00</ele>
        <time>2018-09-08T23:01:37Z</time>
      </trkpt>
      <trkpt lat="-2.644064" lon="-78.779419">
        <ele>3637.00</ele>
        <time>2018-09-08T23:01:38Z</time>
      </trkpt>
      <trkpt lat="-2.644108" lon="-78.779327">
        <ele>3636.00</ele>
        <time>2018-09-08T23:01:39Z</time>
      </trkpt>
      <trkpt lat="-2.644136" lon="-78.779236">
        <ele>3636.00</ele>
        <time>2018-09-08T23:01:40Z</time>
      </trkpt>
      <trkpt lat="-2.644163" lon="-78.779167">
        <ele>3636.00</ele>
        <time>2018-09-08T23:01:41Z</time>
      </trkpt>
      <trkpt lat="-2.644227" lon="-78.779121">
        <ele>3636.00</ele>
        <time>2018-09-08T23:01:42Z</time>
      </trkpt>
      <trkpt lat="-2.644325" lon="-78.779099">
        <ele>3636.00</ele>
        <time>2018-09-08T23:01:43Z</time>
      </trkpt>
      <trkpt lat="-2.644443" lon="-78.779114">
        <ele>3636.00</ele>
        <time>2018-09-08T23:01:44Z</time>
      </trkpt>
      <trkpt lat="-2.644567" lon="-78.779137">
        <ele>3636.00</ele>
        <time>2018-09-08T23:01:45Z</time>
      </trkpt>
      <trkpt lat="-2.644697" lon="-78.779198">
        <ele>3636.00</ele>
        <time>2018-09-08T23:01:46Z</time>
      </trkpt>
      <trkpt lat="-2.644818" lon="-78.779274">
        <ele>3635.00</ele>
        <time>2018-09-08T23:01:47Z</time>
      </trkpt>
      <trkpt lat="-2.644925" lon="-78.779343">
        <ele>3635.00</ele>
        <time>2018-09-08T23:01:48Z</time>
      </trkpt>
      <trkpt lat="-2.645036" lon="-78.779404">
        <ele>3634.00</ele>
        <time>2018-09-08T23:01:49Z</time>
      </trkpt>
      <trkpt lat="-2.645155" lon="-78.779457">
        <ele>3634.00</ele>
        <time>2018-09-08T23:01:50Z</time>
      </trkpt>
      <trkpt lat="-2.645286" lon="-78.779488">
        <ele>3633.00</ele>
        <time>2018-09-08T23:01:51Z</time>
      </trkpt>
      <trkpt lat="-2.645413" lon="-78.779510">
        <ele>3633.00</ele>
        <time>2018-09-08T23:01:52Z</time>
      </trkpt>
      <trkpt lat="-2.645520" lon="-78.779526">
        <ele>3632.00</ele>
        <time>2018-09-08T23:01:53Z</time>
      </trkpt>
      <trkpt lat="-2.645615" lon="-78.779556">
        <ele>3631.00</ele>
        <time>2018-09-08T23:01:54Z</time>
      </trkpt>
      <trkpt lat="-2.645711" lon="-78.779564">
        <ele>3630.00</ele>
        <time>2018-09-08T23:01:55Z</time>
      </trkpt>
      <trkpt lat="-2.645822" lon="-78.779556">
        <ele>3629.00</ele>
        <time>2018-09-08T23:01:56Z</time>
      </trkpt>
      <trkpt lat="-2.645935" lon="-78.779518">
        <ele>3628.00</ele>
        <time>2018-09-08T23:01:57Z</time>
      </trkpt>
      <trkpt lat="-2.646037" lon="-78.779457">
        <ele>3627.00</ele>
        <time>2018-09-08T23:01:58Z</time>
      </trkpt>
      <trkpt lat="-2.646132" lon="-78.779381">
        <ele>3626.00</ele>
        <time>2018-09-08T23:01:59Z</time>
      </trkpt>
      <trkpt lat="-2.646232" lon="-78.779282">
        <ele>3624.00</ele>
        <time>2018-09-08T23:02:00Z</time>
      </trkpt>
      <trkpt lat="-2.646317" lon="-78.779182">
        <ele>3623.00</ele>
        <time>2018-09-08T23:02:01Z</time>
      </trkpt>
      <trkpt lat="-2.646384" lon="-78.779083">
        <ele>3623.00</ele>
        <time>2018-09-08T23:02:02Z</time>
      </trkpt>
      <trkpt lat="-2.646450" lon="-78.778976">
        <ele>3622.00</ele>
        <time>2018-09-08T23:02:03Z</time>
      </trkpt>
      <trkpt lat="-2.646504" lon="-78.778862">
        <ele>3621.00</ele>
        <time>2018-09-08T23:02:04Z</time>
      </trkpt>
      <trkpt lat="-2.646541" lon="-78.778748">
        <ele>3621.00</ele>
        <time>2018-09-08T23:02:05Z</time>
      </trkpt>
      <trkpt lat="-2.646561" lon="-78.778610">
        <ele>3620.00</ele>
        <time>2018-09-08T23:02:06Z</time>
      </trkpt>
      <trkpt lat="-2.646575" lon="-78.778481">
        <ele>3620.00</ele>
        <time>2018-09-08T23:02:07Z</time>
      </trkpt>
      <trkpt lat="-2.646601" lon="-78.778343">
        <ele>3619.00</ele>
        <time>2018-09-08T23:02:08Z</time>
      </trkpt>
      <trkpt lat="-2.646624" lon="-78.778221">
        <ele>3619.00</ele>
        <time>2018-09-08T23:02:09Z</time>
      </trkpt>
      <trkpt lat="-2.646637" lon="-78.778114">
        <ele>3619.00</ele>
        <time>2018-09-08T23:02:10Z</time>
      </trkpt>
      <trkpt lat="-2.646628" lon="-78.778000">
        <ele>3619.00</ele>
        <time>2018-09-08T23:02:11Z</time>
      </trkpt>
      <trkpt lat="-2.646625" lon="-78.777885">
        <ele>3619.00</ele>
        <time>2018-09-08T23:02:12Z</time>
      </trkpt>
      <trkpt lat="-2.646620" lon="-78.777771">
        <ele>3618.00</ele>
        <time>2018-09-08T23:02:13Z</time>
      </trkpt>
      <trkpt lat="-2.646575" lon="-78.777641">
        <ele>3618.00</ele>
        <time>2018-09-08T23:02:14Z</time>
      </trkpt>
      <trkpt lat="-2.646514" lon="-78.777534">
        <ele>3618.00</ele>
        <time>2018-09-08T23:02:15Z</time>
      </trkpt>
      <trkpt lat="-2.646455" lon="-78.777420">
        <ele>3618.00</ele>
        <time>2018-09-08T23:02:16Z</time>
      </trkpt>
      <trkpt lat="-2.646410" lon="-78.777336">
        <ele>3618.00</ele>
        <time>2018-09-08T23:02:17Z</time>
      </trkpt>
      <trkpt lat="-2.646373" lon="-78.777260">
        <ele>3619.00</ele>
        <time>2018-09-08T23:02:18Z</time>
      </trkpt>
      <trkpt lat="-2.646364" lon="-78.777199">
        <ele>3619.00</ele>
        <time>2018-09-08T23:02:19Z</time>
      </trkpt>
      <trkpt lat="-2.646402" lon="-78.777138">
        <ele>3619.00</ele>
        <time>2018-09-08T23:02:20Z</time>
      </trkpt>
      <trkpt lat="-2.646497" lon="-78.777122">
        <ele>3619.00</ele>
        <time>2018-09-08T23:02:21Z</time>
      </trkpt>
      <trkpt lat="-2.646598" lon="-78.777100">
        <ele>3619.00</ele>
        <time>2018-09-08T23:02:22Z</time>
      </trkpt>
      <trkpt lat="-2.646709" lon="-78.777092">
        <ele>3618.00</ele>
        <time>2018-09-08T23:02:23Z</time>
      </trkpt>
      <trkpt lat="-2.646821" lon="-78.777046">
        <ele>3618.00</ele>
        <time>2018-09-08T23:02:24Z</time>
      </trkpt>
      <trkpt lat="-2.646935" lon="-78.777008">
        <ele>3618.00</ele>
        <time>2018-09-08T23:02:25Z</time>
      </trkpt>
      <trkpt lat="-2.647026" lon="-78.776962">
        <ele>3618.00</ele>
        <time>2018-09-08T23:02:26Z</time>
      </trkpt>
      <trkpt lat="-2.647083" lon="-78.776871">
        <ele>3618.00</ele>
        <time>2018-09-08T23:02:27Z</time>
      </trkpt>
      <trkpt lat="-2.647115" lon="-78.776764">
        <ele>3618.00</ele>
        <time>2018-09-08T23:02:28Z</time>
      </trkpt>
      <trkpt lat="-2.647137" lon="-78.776642">
        <ele>3617.00</ele>
        <time>2018-09-08T23:02:29Z</time>
      </trkpt>
      <trkpt lat="-2.647151" lon="-78.776505">
        <ele>3617.00</ele>
        <time>2018-09-08T23:02:30Z</time>
      </trkpt>
      <trkpt lat="-2.647173" lon="-78.776382">
        <ele>3617.00</ele>
        <time>2018-09-08T23:02:31Z</time>
      </trkpt>
      <trkpt lat="-2.647209" lon="-78.776237">
        <ele>3617.00</ele>
        <time>2018-09-08T23:02:32Z</time>
      </trkpt>
      <trkpt lat="-2.647245" lon="-78.776115">
        <ele>3616.00</ele>
        <time>2018-09-08T23:02:33Z</time>
      </trkpt>
      <trkpt lat="-2.647274" lon="-78.776016">
        <ele>3616.00</ele>
        <time>2018-09-08T23:02:34Z</time>
      </trkpt>
      <trkpt lat="-2.647305" lon="-78.775932">
        <ele>3616.00</ele>
        <time>2018-09-08T23:02:35Z</time>
      </trkpt>
      <trkpt lat="-2.647356" lon="-78.775856">
        <ele>3616.00</ele>
        <time>2018-09-08T23:02:36Z</time>
      </trkpt>
      <trkpt lat="-2.647438" lon="-78.775810">
        <ele>3615.00</ele>
        <time>2018-09-08T23:02:37Z</time>
      </trkpt>
      <trkpt lat="-2.647546" lon="-78.775810">
        <ele>3615.00</ele>
        <time>2018-09-08T23:02:38Z</time>
      </trkpt>
      <trkpt lat="-2.647655" lon="-78.775841">
        <ele>3615.00</ele>
        <time>2018-09-08T23:02:39Z</time>
      </trkpt>
      <trkpt lat="-2.647775" lon="-78.775848">
        <ele>3615.00</ele>
        <time>2018-09-08T23:02:40Z</time>
      </trkpt>
      <trkpt lat="-2.647894" lon="-78.775848">
        <ele>3615.00</ele>
        <time>2018-09-08T23:02:41Z</time>
      </trkpt>
      <trkpt lat="-2.648005" lon="-78.775833">
        <ele>3615.00</ele>
        <time>2018-09-08T23:02:42Z</time>
      </trkpt>
      <trkpt lat="-2.648118" lon="-78.775787">
        <ele>3615.00</ele>
        <time>2018-09-08T23:02:43Z</time>
      </trkpt>
      <trkpt lat="-2.648224" lon="-78.775696">
        <ele>3615.00</ele>
        <time>2018-09-08T23:02:44Z</time>
      </trkpt>
      <trkpt lat="-2.648336" lon="-78.775612">
        <ele>3615.00</ele>
        <time>2018-09-08T23:02:45Z</time>
      </trkpt>
      <trkpt lat="-2.648455" lon="-78.775520">
        <ele>3615.00</ele>
        <time>2018-09-08T23:02:46Z</time>
      </trkpt>
      <trkpt lat="-2.648564" lon="-78.775459">
        <ele>3615.00</ele>
        <time>2018-09-08T23:02:47Z</time>
      </trkpt>
      <trkpt lat="-2.648660" lon="-78.775383">
        <ele>3615.00</ele>
        <time>2018-09-08T23:02:48Z</time>
      </trkpt>
      <trkpt lat="-2.648752" lon="-78.775322">
        <ele>3615.00</ele>
        <time>2018-09-08T23:02:49Z</time>
      </trkpt>
      <trkpt lat="-2.648830" lon="-78.775246">
        <ele>3615.00</ele>
        <time>2018-09-08T23:02:50Z</time>
      </trkpt>
      <trkpt lat="-2.648905" lon="-78.775139">
        <ele>3615.00</ele>
        <time>2018-09-08T23:02:51Z</time>
      </trkpt>
      <trkpt lat="-2.648984" lon="-78.775055">
        <ele>3615.00</ele>
        <time>2018-09-08T23:02:52Z</time>
      </trkpt>
      <trkpt lat="-2.649081" lon="-78.774971">
        <ele>3614.00</ele>
        <time>2018-09-08T23:02:53Z</time>
      </trkpt>
      <trkpt lat="-2.649180" lon="-78.774918">
        <ele>3614.00</ele>
        <time>2018-09-08T23:02:54Z</time>
      </trkpt>
      <trkpt lat="-2.649266" lon="-78.774834">
        <ele>3614.00</ele>
        <time>2018-09-08T23:02:55Z</time>
      </trkpt>
      <trkpt lat="-2.649340" lon="-78.774727">
        <ele>3614.00</ele>
        <time>2018-09-08T23:02:56Z</time>
      </trkpt>
      <trkpt lat="-2.649403" lon="-78.774597">
        <ele>3614.00</ele>
        <time>2018-09-08T23:02:57Z</time>
      </trkpt>
      <trkpt lat="-2.649459" lon="-78.774467">
        <ele>3613.00</ele>
        <time>2018-09-08T23:02:58Z</time>
      </trkpt>
      <trkpt lat="-2.649511" lon="-78.774353">
        <ele>3613.00</ele>
        <time>2018-09-08T23:02:59Z</time>
      </trkpt>
      <trkpt lat="-2.649571" lon="-78.774246">
        <ele>3612.00</ele>
        <time>2018-09-08T23:03:00Z</time>
      </trkpt>
      <trkpt lat="-2.649651" lon="-78.774132">
        <ele>3612.00</ele>
        <time>2018-09-08T23:03:01Z</time>
      </trkpt>
      <trkpt lat="-2.649751" lon="-78.774017">
        <ele>3611.00</ele>
        <time>2018-09-08T23:03:02Z</time>
      </trkpt>
      <trkpt lat="-2.649852" lon="-78.773888">
        <ele>3610.00</ele>
        <time>2018-09-08T23:03:03Z</time>
      </trkpt>
      <trkpt lat="-2.649958" lon="-78.773788">
        <ele>3610.00</ele>
        <time>2018-09-08T23:03:04Z</time>
      </trkpt>
      <trkpt lat="-2.650054" lon="-78.773682">
        <ele>3609.00</ele>
        <time>2018-09-08T23:03:05Z</time>
      </trkpt>
      <trkpt lat="-2.650135" lon="-78.773567">
        <ele>3609.00</ele>
        <time>2018-09-08T23:03:06Z</time>
      </trkpt>
      <trkpt lat="-2.650203" lon="-78.773445">
        <ele>3608.00</ele>
        <time>2018-09-08T23:03:07Z</time>
      </trkpt>
      <trkpt lat="-2.650255" lon="-78.773331">
        <ele>3608.00</ele>
        <time>2018-09-08T23:03:08Z</time>
      </trkpt>
      <trkpt lat="-2.650300" lon="-78.773209">
        <ele>3607.00</ele>
        <time>2018-09-08T23:03:09Z</time>
      </trkpt>
      <trkpt lat="-2.650344" lon="-78.773079">
        <ele>3607.00</ele>
        <time>2018-09-08T23:03:10Z</time>
      </trkpt>
      <trkpt lat="-2.650384" lon="-78.772957">
        <ele>3606.00</ele>
        <time>2018-09-08T23:03:11Z</time>
      </trkpt>
      <trkpt lat="-2.650428" lon="-78.772865">
        <ele>3605.00</ele>
        <time>2018-09-08T23:03:12Z</time>
      </trkpt>
      <trkpt lat="-2.650485" lon="-78.772774">
        <ele>3604.00</ele>
        <time>2018-09-08T23:03:13Z</time>
      </trkpt>
      <trkpt lat="-2.650548" lon="-78.772690">
        <ele>3603.00</ele>
        <time>2018-09-08T23:03:14Z</time>
      </trkpt>
      <trkpt lat="-2.650605" lon="-78.772629">
        <ele>3603.00</ele>
        <time>2018-09-08T23:03:15Z</time>
      </trkpt>
      <trkpt lat="-2.650661" lon="-78.772598">
        <ele>3602.00</ele>
        <time>2018-09-08T23:03:16Z</time>
      </trkpt>
      <trkpt lat="-2.650740" lon="-78.772614">
        <ele>3602.00</ele>
        <time>2018-09-08T23:03:17Z</time>
      </trkpt>
      <trkpt lat="-2.650833" lon="-78.772652">
        <ele>3602.00</ele>
        <time>2018-09-08T23:03:18Z</time>
      </trkpt>
      <trkpt lat="-2.650957" lon="-78.772690">
        <ele>3604.00</ele>
        <time>2018-09-08T23:03:19Z</time>
      </trkpt>
      <trkpt lat="-2.651085" lon="-78.772758">
        <ele>3605.00</ele>
        <time>2018-09-08T23:03:20Z</time>
      </trkpt>
      <trkpt lat="-2.651215" lon="-78.772812">
        <ele>3606.00</ele>
        <time>2018-09-08T23:03:21Z</time>
      </trkpt>
      <trkpt lat="-2.651329" lon="-78.772865">
        <ele>3605.00</ele>
        <time>2018-09-08T23:03:22Z</time>
      </trkpt>
      <trkpt lat="-2.651426" lon="-78.772903">
        <ele>3604.00</ele>
        <time>2018-09-08T23:03:23Z</time>
      </trkpt>
      <trkpt lat="-2.651555" lon="-78.772919">
        <ele>3604.00</ele>
        <time>2018-09-08T23:03:24Z</time>
      </trkpt>
      <trkpt lat="-2.651687" lon="-78.772926">
        <ele>3602.00</ele>
        <time>2018-09-08T23:03:25Z</time>
      </trkpt>
      <trkpt lat="-2.651829" lon="-78.772934">
        <ele>3602.00</ele>
        <time>2018-09-08T23:03:26Z</time>
      </trkpt>
      <trkpt lat="-2.651955" lon="-78.772949">
        <ele>3602.00</ele>
        <time>2018-09-08T23:03:27Z</time>
      </trkpt>
      <trkpt lat="-2.652074" lon="-78.772980">
        <ele>3601.00</ele>
        <time>2018-09-08T23:03:28Z</time>
      </trkpt>
      <trkpt lat="-2.652196" lon="-78.772987">
        <ele>3600.00</ele>
        <time>2018-09-08T23:03:29Z</time>
      </trkpt>
      <trkpt lat="-2.652345" lon="-78.772980">
        <ele>3599.00</ele>
        <time>2018-09-08T23:03:30Z</time>
      </trkpt>
      <trkpt lat="-2.652500" lon="-78.772957">
        <ele>3599.00</ele>
        <time>2018-09-08T23:03:31Z</time>
      </trkpt>
      <trkpt lat="-2.652631" lon="-78.772942">
        <ele>3598.00</ele>
        <time>2018-09-08T23:03:32Z</time>
      </trkpt>
      <trkpt lat="-2.652766" lon="-78.772903">
        <ele>3597.00</ele>
        <time>2018-09-08T23:03:33Z</time>
      </trkpt>
      <trkpt lat="-2.652904" lon="-78.772850">
        <ele>3596.00</ele>
        <time>2018-09-08T23:03:34Z</time>
      </trkpt>
      <trkpt lat="-2.653049" lon="-78.772789">
        <ele>3595.00</ele>
        <time>2018-09-08T23:03:35Z</time>
      </trkpt>
      <trkpt lat="-2.653198" lon="-78.772720">
        <ele>3594.00</ele>
        <time>2018-09-08T23:03:36Z</time>
      </trkpt>
      <trkpt lat="-2.653347" lon="-78.772659">
        <ele>3593.00</ele>
        <time>2018-09-08T23:03:37Z</time>
      </trkpt>
      <trkpt lat="-2.653508" lon="-78.772614">
        <ele>3592.00</ele>
        <time>2018-09-08T23:03:38Z</time>
      </trkpt>
      <trkpt lat="-2.653682" lon="-78.772560">
        <ele>3591.00</ele>
        <time>2018-09-08T23:03:39Z</time>
      </trkpt>
      <trkpt lat="-2.653856" lon="-78.772514">
        <ele>3591.00</ele>
        <time>2018-09-08T23:03:40Z</time>
      </trkpt>
      <trkpt lat="-2.654020" lon="-78.772476">
        <ele>3590.00</ele>
        <time>2018-09-08T23:03:41Z</time>
      </trkpt>
      <trkpt lat="-2.654172" lon="-78.772438">
        <ele>3588.00</ele>
        <time>2018-09-08T23:03:42Z</time>
      </trkpt>
      <trkpt lat="-2.654305" lon="-78.772400">
        <ele>3587.00</ele>
        <time>2018-09-08T23:03:43Z</time>
      </trkpt>
      <trkpt lat="-2.654432" lon="-78.772385">
        <ele>3584.00</ele>
        <time>2018-09-08T23:03:44Z</time>
      </trkpt>
      <trkpt lat="-2.654536" lon="-78.772354">
        <ele>3580.00</ele>
        <time>2018-09-08T23:03:45Z</time>
      </trkpt>
      <trkpt lat="-2.654633" lon="-78.772346">
        <ele>3577.00</ele>
        <time>2018-09-08T23:03:46Z</time>
      </trkpt>
      <trkpt lat="-2.654742" lon="-78.772362">
        <ele>3574.00</ele>
        <time>2018-09-08T23:03:47Z</time>
      </trkpt>
      <trkpt lat="-2.654849" lon="-78.772430">
        <ele>3571.00</ele>
        <time>2018-09-08T23:03:48Z</time>
      </trkpt>
      <trkpt lat="-2.654958" lon="-78.772476">
        <ele>3569.00</ele>
        <time>2018-09-08T23:03:49Z</time>
      </trkpt>
      <trkpt lat="-2.655076" lon="-78.772522">
        <ele>3567.00</ele>
        <time>2018-09-08T23:03:50Z</time>
      </trkpt>
      <trkpt lat="-2.655209" lon="-78.772552">
        <ele>3565.00</ele>
        <time>2018-09-08T23:03:51Z</time>
      </trkpt>
      <trkpt lat="-2.655334" lon="-78.772583">
        <ele>3564.00</ele>
        <time>2018-09-08T23:03:52Z</time>
      </trkpt>
      <trkpt lat="-2.655468" lon="-78.772614">
        <ele>3563.00</ele>
        <time>2018-09-08T23:03:53Z</time>
      </trkpt>
      <trkpt lat="-2.655599" lon="-78.772636">
        <ele>3562.00</ele>
        <time>2018-09-08T23:03:54Z</time>
      </trkpt>
      <trkpt lat="-2.655725" lon="-78.772667">
        <ele>3561.00</ele>
        <time>2018-09-08T23:03:55Z</time>
      </trkpt>
      <trkpt lat="-2.655858" lon="-78.772705">
        <ele>3560.00</ele>
        <time>2018-09-08T23:03:56Z</time>
      </trkpt>
      <trkpt lat="-2.655998" lon="-78.772743">
        <ele>3560.00</ele>
        <time>2018-09-08T23:03:57Z</time>
      </trkpt>
      <trkpt lat="-2.656145" lon="-78.772797">
        <ele>3559.00</ele>
        <time>2018-09-08T23:03:58Z</time>
      </trkpt>
      <trkpt lat="-2.656294" lon="-78.772850">
        <ele>3559.00</ele>
        <time>2018-09-08T23:03:59Z</time>
      </trkpt>
      <trkpt lat="-2.656442" lon="-78.772919">
        <ele>3558.00</ele>
        <time>2018-09-08T23:04:00Z</time>
      </trkpt>
      <trkpt lat="-2.656583" lon="-78.772980">
        <ele>3557.00</ele>
        <time>2018-09-08T23:04:01Z</time>
      </trkpt>
      <trkpt lat="-2.656708" lon="-78.773041">
        <ele>3555.00</ele>
        <time>2018-09-08T23:04:02Z</time>
      </trkpt>
      <trkpt lat="-2.656832" lon="-78.773079">
        <ele>3554.00</ele>
        <time>2018-09-08T23:04:03Z</time>
      </trkpt>
      <trkpt lat="-2.656956" lon="-78.773102">
        <ele>3553.00</ele>
        <time>2018-09-08T23:04:04Z</time>
      </trkpt>
      <trkpt lat="-2.657090" lon="-78.773117">
        <ele>3551.00</ele>
        <time>2018-09-08T23:04:05Z</time>
      </trkpt>
      <trkpt lat="-2.657221" lon="-78.773140">
        <ele>3550.00</ele>
        <time>2018-09-08T23:04:06Z</time>
      </trkpt>
      <trkpt lat="-2.657356" lon="-78.773140">
        <ele>3549.00</ele>
        <time>2018-09-08T23:04:07Z</time>
      </trkpt>
      <trkpt lat="-2.657503" lon="-78.773140">
        <ele>3547.00</ele>
        <time>2018-09-08T23:04:08Z</time>
      </trkpt>
      <trkpt lat="-2.657655" lon="-78.773132">
        <ele>3546.00</ele>
        <time>2018-09-08T23:04:09Z</time>
      </trkpt>
      <trkpt lat="-2.657799" lon="-78.773117">
        <ele>3545.00</ele>
        <time>2018-09-08T23:04:10Z</time>
      </trkpt>
      <trkpt lat="-2.657927" lon="-78.773087">
        <ele>3543.00</ele>
        <time>2018-09-08T23:04:11Z</time>
      </trkpt>
      <trkpt lat="-2.658059" lon="-78.773079">
        <ele>3542.00</ele>
        <time>2018-09-08T23:04:12Z</time>
      </trkpt>
      <trkpt lat="-2.658193" lon="-78.773087">
        <ele>3541.00</ele>
        <time>2018-09-08T23:04:13Z</time>
      </trkpt>
      <trkpt lat="-2.658329" lon="-78.773094">
        <ele>3540.00</ele>
        <time>2018-09-08T23:04:14Z</time>
      </trkpt>
      <trkpt lat="-2.658466" lon="-78.773064">
        <ele>3539.00</ele>
        <time>2018-09-08T23:04:15Z</time>
      </trkpt>
      <trkpt lat="-2.658603" lon="-78.773048">
        <ele>3539.00</ele>
        <time>2018-09-08T23:04:16Z</time>
      </trkpt>
      <trkpt lat="-2.658735" lon="-78.773026">
        <ele>3539.00</ele>
        <time>2018-09-08T23:04:17Z</time>
      </trkpt>
      <trkpt lat="-2.658862" lon="-78.773003">
        <ele>3538.00</ele>
        <time>2018-09-08T23:04:18Z</time>
      </trkpt>
      <trkpt lat="-2.658995" lon="-78.772987">
        <ele>3537.00</ele>
        <time>2018-09-08T23:04:19Z</time>
      </trkpt>
      <trkpt lat="-2.659101" lon="-78.772942">
        <ele>3536.00</ele>
        <time>2018-09-08T23:04:20Z</time>
      </trkpt>
      <trkpt lat="-2.659201" lon="-78.772896">
        <ele>3535.00</ele>
        <time>2018-09-08T23:04:21Z</time>
      </trkpt>
      <trkpt lat="-2.659301" lon="-78.772835">
        <ele>3534.00</ele>
        <time>2018-09-08T23:04:22Z</time>
      </trkpt>
      <trkpt lat="-2.659405" lon="-78.772774">
        <ele>3533.00</ele>
        <time>2018-09-08T23:04:23Z</time>
      </trkpt>
      <trkpt lat="-2.659502" lon="-78.772713">
        <ele>3532.00</ele>
        <time>2018-09-08T23:04:24Z</time>
      </trkpt>
      <trkpt lat="-2.659612" lon="-78.772636">
        <ele>3528.00</ele>
        <time>2018-09-08T23:04:25Z</time>
      </trkpt>
      <trkpt lat="-2.659707" lon="-78.772606">
        <ele>3523.00</ele>
        <time>2018-09-08T23:04:26Z</time>
      </trkpt>
      <trkpt lat="-2.659821" lon="-78.772583">
        <ele>3519.00</ele>
        <time>2018-09-08T23:04:27Z</time>
      </trkpt>
      <trkpt lat="-2.659945" lon="-78.772568">
        <ele>3516.00</ele>
        <time>2018-09-08T23:04:28Z</time>
      </trkpt>
      <trkpt lat="-2.660070" lon="-78.772530">
        <ele>3512.00</ele>
        <time>2018-09-08T23:04:29Z</time>
      </trkpt>
      <trkpt lat="-2.660196" lon="-78.772499">
        <ele>3509.00</ele>
        <time>2018-09-08T23:04:30Z</time>
      </trkpt>
      <trkpt lat="-2.660325" lon="-78.772461">
        <ele>3507.00</ele>
        <time>2018-09-08T23:04:31Z</time>
      </trkpt>
      <trkpt lat="-2.660446" lon="-78.772430">
        <ele>3504.00</ele>
        <time>2018-09-08T23:04:32Z</time>
      </trkpt>
      <trkpt lat="-2.660554" lon="-78.772400">
        <ele>3502.00</ele>
        <time>2018-09-08T23:04:33Z</time>
      </trkpt>
      <trkpt lat="-2.660652" lon="-78.772354">
        <ele>3501.00</ele>
        <time>2018-09-08T23:04:34Z</time>
      </trkpt>
      <trkpt lat="-2.660764" lon="-78.772293">
        <ele>3499.00</ele>
        <time>2018-09-08T23:04:35Z</time>
      </trkpt>
      <trkpt lat="-2.660867" lon="-78.772217">
        <ele>3498.00</ele>
        <time>2018-09-08T23:04:36Z</time>
      </trkpt>
      <trkpt lat="-2.660976" lon="-78.772141">
        <ele>3497.00</ele>
        <time>2018-09-08T23:04:37Z</time>
      </trkpt>
      <trkpt lat="-2.661093" lon="-78.772079">
        <ele>3496.00</ele>
        <time>2018-09-08T23:04:38Z</time>
      </trkpt>
      <trkpt lat="-2.661216" lon="-78.772018">
        <ele>3496.00</ele>
        <time>2018-09-08T23:04:39Z</time>
      </trkpt>
      <trkpt lat="-2.661337" lon="-78.771957">
        <ele>3496.00</ele>
        <time>2018-09-08T23:04:40Z</time>
      </trkpt>
      <trkpt lat="-2.661455" lon="-78.771866">
        <ele>3495.00</ele>
        <time>2018-09-08T23:04:41Z</time>
      </trkpt>
      <trkpt lat="-2.661572" lon="-78.771790">
        <ele>3495.00</ele>
        <time>2018-09-08T23:04:42Z</time>
      </trkpt>
      <trkpt lat="-2.661702" lon="-78.771706">
        <ele>3496.00</ele>
        <time>2018-09-08T23:04:43Z</time>
      </trkpt>
      <trkpt lat="-2.661843" lon="-78.771652">
        <ele>3496.00</ele>
        <time>2018-09-08T23:04:44Z</time>
      </trkpt>
      <trkpt lat="-2.661978" lon="-78.771591">
        <ele>3496.00</ele>
        <time>2018-09-08T23:04:45Z</time>
      </trkpt>
      <trkpt lat="-2.662090" lon="-78.771538">
        <ele>3497.00</ele>
        <time>2018-09-08T23:04:46Z</time>
      </trkpt>
      <trkpt lat="-2.662198" lon="-78.771484">
        <ele>3497.00</ele>
        <time>2018-09-08T23:04:47Z</time>
      </trkpt>
      <trkpt lat="-2.662305" lon="-78.771439">
        <ele>3497.00</ele>
        <time>2018-09-08T23:04:48Z</time>
      </trkpt>
      <trkpt lat="-2.662414" lon="-78.771393">
        <ele>3498.00</ele>
        <time>2018-09-08T23:04:49Z</time>
      </trkpt>
      <trkpt lat="-2.662548" lon="-78.771370">
        <ele>3498.00</ele>
        <time>2018-09-08T23:04:50Z</time>
      </trkpt>
      <trkpt lat="-2.662693" lon="-78.771355">
        <ele>3499.00</ele>
        <time>2018-09-08T23:04:51Z</time>
      </trkpt>
      <trkpt lat="-2.662842" lon="-78.771332">
        <ele>3499.00</ele>
        <time>2018-09-08T23:04:52Z</time>
      </trkpt>
      <trkpt lat="-2.662978" lon="-78.771324">
        <ele>3499.00</ele>
        <time>2018-09-08T23:04:53Z</time>
      </trkpt>
      <trkpt lat="-2.663112" lon="-78.771324">
        <ele>3500.00</ele>
        <time>2018-09-08T23:04:54Z</time>
      </trkpt>
      <trkpt lat="-2.663253" lon="-78.771324">
        <ele>3500.00</ele>
        <time>2018-09-08T23:04:55Z</time>
      </trkpt>
      <trkpt lat="-2.663396" lon="-78.771324">
        <ele>3500.00</ele>
        <time>2018-09-08T23:04:56Z</time>
      </trkpt>
      <trkpt lat="-2.663550" lon="-78.771324">
        <ele>3501.00</ele>
        <time>2018-09-08T23:04:57Z</time>
      </trkpt>
      <trkpt lat="-2.663710" lon="-78.771301">
        <ele>3501.00</ele>
        <time>2018-09-08T23:04:58Z</time>
      </trkpt>
      <trkpt lat="-2.663875" lon="-78.771271">
        <ele>3501.00</ele>
        <time>2018-09-08T23:04:59Z</time>
      </trkpt>
      <trkpt lat="-2.664041" lon="-78.771225">
        <ele>3501.00</ele>
        <time>2018-09-08T23:05:00Z</time>
      </trkpt>
      <trkpt lat="-2.664209" lon="-78.771202">
        <ele>3501.00</ele>
        <time>2018-09-08T23:05:01Z</time>
      </trkpt>
      <trkpt lat="-2.664365" lon="-78.771164">
        <ele>3501.00</ele>
        <time>2018-09-08T23:05:02Z</time>
      </trkpt>
      <trkpt lat="-2.664510" lon="-78.771141">
        <ele>3500.00</ele>
        <time>2018-09-08T23:05:03Z</time>
      </trkpt>
      <trkpt lat="-2.664654" lon="-78.771111">
        <ele>3500.00</ele>
        <time>2018-09-08T23:05:04Z</time>
      </trkpt>
      <trkpt lat="-2.664806" lon="-78.771065">
        <ele>3500.00</ele>
        <time>2018-09-08T23:05:05Z</time>
      </trkpt>
      <trkpt lat="-2.664955" lon="-78.771011">
        <ele>3500.00</ele>
        <time>2018-09-08T23:05:06Z</time>
      </trkpt>
      <trkpt lat="-2.665106" lon="-78.770958">
        <ele>3499.00</ele>
        <time>2018-09-08T23:05:07Z</time>
      </trkpt>
      <trkpt lat="-2.665264" lon="-78.770905">
        <ele>3499.00</ele>
        <time>2018-09-08T23:05:08Z</time>
      </trkpt>
      <trkpt lat="-2.665424" lon="-78.770851">
        <ele>3499.00</ele>
        <time>2018-09-08T23:05:09Z</time>
      </trkpt>
      <trkpt lat="-2.665579" lon="-78.770805">
        <ele>3499.00</ele>
        <time>2018-09-08T23:05:10Z</time>
      </trkpt>
      <trkpt lat="-2.665718" lon="-78.770782">
        <ele>3499.00</ele>
        <time>2018-09-08T23:05:11Z</time>
      </trkpt>
      <trkpt lat="-2.665842" lon="-78.770752">
        <ele>3499.00</ele>
        <time>2018-09-08T23:05:12Z</time>
      </trkpt>
      <trkpt lat="-2.665964" lon="-78.770729">
        <ele>3498.00</ele>
        <time>2018-09-08T23:05:13Z</time>
      </trkpt>
      <trkpt lat="-2.666078" lon="-78.770676">
        <ele>3498.00</ele>
        <time>2018-09-08T23:05:14Z</time>
      </trkpt>
      <trkpt lat="-2.666184" lon="-78.770615">
        <ele>3498.00</ele>
        <time>2018-09-08T23:05:15Z</time>
      </trkpt>
      <trkpt lat="-2.666292" lon="-78.770554">
        <ele>3498.00</ele>
        <time>2018-09-08T23:05:16Z</time>
      </trkpt>
      <trkpt lat="-2.666409" lon="-78.770462">
        <ele>3498.00</ele>
        <time>2018-09-08T23:05:17Z</time>
      </trkpt>
      <trkpt lat="-2.666537" lon="-78.770386">
        <ele>3498.00</ele>
        <time>2018-09-08T23:05:18Z</time>
      </trkpt>
      <trkpt lat="-2.666651" lon="-78.770309">
        <ele>3498.00</ele>
        <time>2018-09-08T23:05:19Z</time>
      </trkpt>
      <trkpt lat="-2.666757" lon="-78.770241">
        <ele>3498.00</ele>
        <time>2018-09-08T23:05:20Z</time>
      </trkpt>
      <trkpt lat="-2.666861" lon="-78.770172">
        <ele>3497.00</ele>
        <time>2018-09-08T23:05:21Z</time>
      </trkpt>
      <trkpt lat="-2.666965" lon="-78.770088">
        <ele>3498.00</ele>
        <time>2018-09-08T23:05:22Z</time>
      </trkpt>
      <trkpt lat="-2.667078" lon="-78.770020">
        <ele>3499.00</ele>
        <time>2018-09-08T23:05:23Z</time>
      </trkpt>
      <trkpt lat="-2.667195" lon="-78.769943">
        <ele>3499.00</ele>
        <time>2018-09-08T23:05:24Z</time>
      </trkpt>
      <trkpt lat="-2.667324" lon="-78.769875">
        <ele>3499.00</ele>
        <time>2018-09-08T23:05:25Z</time>
      </trkpt>
      <trkpt lat="-2.667460" lon="-78.769798">
        <ele>3499.00</ele>
        <time>2018-09-08T23:05:26Z</time>
      </trkpt>
      <trkpt lat="-2.667593" lon="-78.769714">
        <ele>3499.00</ele>
        <time>2018-09-08T23:05:27Z</time>
      </trkpt>
      <trkpt lat="-2.667719" lon="-78.769646">
        <ele>3499.00</ele>
        <time>2018-09-08T23:05:28Z</time>
      </trkpt>
      <trkpt lat="-2.667843" lon="-78.769577">
        <ele>3500.00</ele>
        <time>2018-09-08T23:05:29Z</time>
      </trkpt>
      <trkpt lat="-2.667969" lon="-78.769501">
        <ele>3500.00</ele>
        <time>2018-09-08T23:05:30Z</time>
      </trkpt>
      <trkpt lat="-2.668110" lon="-78.769432">
        <ele>3499.00</ele>
        <time>2018-09-08T23:05:31Z</time>
      </trkpt>
      <trkpt lat="-2.668260" lon="-78.769363">
        <ele>3499.00</ele>
        <time>2018-09-08T23:05:32Z</time>
      </trkpt>
      <trkpt lat="-2.668401" lon="-78.769287">
        <ele>3499.00</ele>
        <time>2018-09-08T23:05:33Z</time>
      </trkpt>
      <trkpt lat="-2.668534" lon="-78.769218">
        <ele>3499.00</ele>
        <time>2018-09-08T23:05:34Z</time>
      </trkpt>
      <trkpt lat="-2.668658" lon="-78.769150">
        <ele>3499.00</ele>
        <time>2018-09-08T23:05:35Z</time>
      </trkpt>
      <trkpt lat="-2.668781" lon="-78.769096">
        <ele>3499.00</ele>
        <time>2018-09-08T23:05:36Z</time>
      </trkpt>
      <trkpt lat="-2.668893" lon="-78.769043">
        <ele>3499.00</ele>
        <time>2018-09-08T23:05:37Z</time>
      </trkpt>
      <trkpt lat="-2.668985" lon="-78.768990">
        <ele>3499.00</ele>
        <time>2018-09-08T23:05:38Z</time>
      </trkpt>
      <trkpt lat="-2.669067" lon="-78.768913">
        <ele>3498.00</ele>
        <time>2018-09-08T23:05:39Z</time>
      </trkpt>
      <trkpt lat="-2.669143" lon="-78.768852">
        <ele>3498.00</ele>
        <time>2018-09-08T23:05:40Z</time>
      </trkpt>
      <trkpt lat="-2.669223" lon="-78.768791">
        <ele>3498.00</ele>
        <time>2018-09-08T23:05:41Z</time>
      </trkpt>
      <trkpt lat="-2.669302" lon="-78.768723">
        <ele>3497.00</ele>
        <time>2018-09-08T23:05:42Z</time>
      </trkpt>
      <trkpt lat="-2.669381" lon="-78.768669">
        <ele>3497.00</ele>
        <time>2018-09-08T23:05:43Z</time>
      </trkpt>
      <trkpt lat="-2.669452" lon="-78.768593">
        <ele>3497.00</ele>
        <time>2018-09-08T23:05:44Z</time>
      </trkpt>
      <trkpt lat="-2.669509" lon="-78.768524">
        <ele>3496.00</ele>
        <time>2018-09-08T23:05:45Z</time>
      </trkpt>
      <trkpt lat="-2.669562" lon="-78.768456">
        <ele>3496.00</ele>
        <time>2018-09-08T23:05:46Z</time>
      </trkpt>
      <trkpt lat="-2.669575" lon="-78.768364">
        <ele>3495.00</ele>
        <time>2018-09-08T23:05:47Z</time>
      </trkpt>
      <trkpt lat="-2.669610" lon="-78.768272">
        <ele>3495.00</ele>
        <time>2018-09-08T23:05:48Z</time>
      </trkpt>
      <trkpt lat="-2.669666" lon="-78.768211">
        <ele>3494.00</ele>
        <time>2018-09-08T23:05:49Z</time>
      </trkpt>
      <trkpt lat="-2.669729" lon="-78.768181">
        <ele>3494.00</ele>
        <time>2018-09-08T23:05:50Z</time>
      </trkpt>
      <trkpt lat="-2.669808" lon="-78.768181">
        <ele>3493.00</ele>
        <time>2018-09-08T23:05:51Z</time>
      </trkpt>
      <trkpt lat="-2.669898" lon="-78.768219">
        <ele>3493.00</ele>
        <time>2018-09-08T23:05:52Z</time>
      </trkpt>
      <trkpt lat="-2.670004" lon="-78.768265">
        <ele>3492.00</ele>
        <time>2018-09-08T23:05:53Z</time>
      </trkpt>
      <trkpt lat="-2.670101" lon="-78.768341">
        <ele>3491.00</ele>
        <time>2018-09-08T23:05:54Z</time>
      </trkpt>
      <trkpt lat="-2.670166" lon="-78.768394">
        <ele>3491.00</ele>
        <time>2018-09-08T23:05:55Z</time>
      </trkpt>
      <trkpt lat="-2.670203" lon="-78.768425">
        <ele>3490.00</ele>
        <time>2018-09-08T23:05:56Z</time>
      </trkpt>
      <trkpt lat="-2.670225" lon="-78.768456">
        <ele>3490.00</ele>
        <time>2018-09-08T23:05:57Z</time>
      </trkpt>
      <trkpt lat="-2.670238" lon="-78.768463">
        <ele>3490.00</ele>
        <time>2018-09-08T23:05:58Z</time>
      </trkpt>
      <trkpt lat="-2.670248" lon="-78.768478">
        <ele>3490.00</ele>
        <time>2018-09-08T23:05:59Z</time>
      </trkpt>
      <trkpt lat="-2.670268" lon="-78.768501">
        <ele>3489.00</ele>
        <time>2018-09-08T23:06:00Z</time>
      </trkpt>
      <trkpt lat="-2.670321" lon="-78.768509">
        <ele>3488.00</ele>
        <time>2018-09-08T23:06:01Z</time>
      </trkpt>
      <trkpt lat="-2.670381" lon="-78.768509">
        <ele>3488.00</ele>
        <time>2018-09-08T23:06:02Z</time>
      </trkpt>
      <trkpt lat="-2.670420" lon="-78.768456">
        <ele>3487.00</ele>
        <time>2018-09-08T23:06:03Z</time>
      </trkpt>
      <trkpt lat="-2.670423" lon="-78.768372">
        <ele>3487.00</ele>
        <time>2018-09-08T23:06:04Z</time>
      </trkpt>
      <trkpt lat="-2.670399" lon="-78.768265">
        <ele>3486.00</ele>
        <time>2018-09-08T23:06:05Z</time>
      </trkpt>
      <trkpt lat="-2.670331" lon="-78.768143">
        <ele>3486.00</ele>
        <time>2018-09-08T23:06:06Z</time>
      </trkpt>
      <trkpt lat="-2.670269" lon="-78.767998">
        <ele>3486.00</ele>
        <time>2018-09-08T23:06:07Z</time>
      </trkpt>
      <trkpt lat="-2.670215" lon="-78.767876">
        <ele>3485.00</ele>
        <time>2018-09-08T23:06:08Z</time>
      </trkpt>
      <trkpt lat="-2.670164" lon="-78.767761">
        <ele>3485.00</ele>
        <time>2018-09-08T23:06:09Z</time>
      </trkpt>
      <trkpt lat="-2.670128" lon="-78.767654">
        <ele>3485.00</ele>
        <time>2018-09-08T23:06:10Z</time>
      </trkpt>
      <trkpt lat="-2.670120" lon="-78.767532">
        <ele>3484.00</ele>
        <time>2018-09-08T23:06:11Z</time>
      </trkpt>
      <trkpt lat="-2.670140" lon="-78.767395">
        <ele>3484.00</ele>
        <time>2018-09-08T23:06:12Z</time>
      </trkpt>
      <trkpt lat="-2.670137" lon="-78.767265">
        <ele>3484.00</ele>
        <time>2018-09-08T23:06:13Z</time>
      </trkpt>
      <trkpt lat="-2.670103" lon="-78.767128">
        <ele>3483.00</ele>
        <time>2018-09-08T23:06:14Z</time>
      </trkpt>
      <trkpt lat="-2.670051" lon="-78.766983">
        <ele>3482.00</ele>
        <time>2018-09-08T23:06:15Z</time>
      </trkpt>
      <trkpt lat="-2.669992" lon="-78.766861">
        <ele>3482.00</ele>
        <time>2018-09-08T23:06:16Z</time>
      </trkpt>
      <trkpt lat="-2.669929" lon="-78.766739">
        <ele>3481.00</ele>
        <time>2018-09-08T23:06:17Z</time>
      </trkpt>
      <trkpt lat="-2.669861" lon="-78.766632">
        <ele>3480.00</ele>
        <time>2018-09-08T23:06:18Z</time>
      </trkpt>
      <trkpt lat="-2.669808" lon="-78.766525">
        <ele>3479.00</ele>
        <time>2018-09-08T23:06:19Z</time>
      </trkpt>
      <trkpt lat="-2.669769" lon="-78.766426">
        <ele>3479.00</ele>
        <time>2018-09-08T23:06:20Z</time>
      </trkpt>
      <trkpt lat="-2.669745" lon="-78.766350">
        <ele>3478.00</ele>
        <time>2018-09-08T23:06:21Z</time>
      </trkpt>
      <trkpt lat="-2.669743" lon="-78.766281">
        <ele>3477.00</ele>
        <time>2018-09-08T23:06:22Z</time>
      </trkpt>
      <trkpt lat="-2.669745" lon="-78.766228">
        <ele>3476.00</ele>
        <time>2018-09-08T23:06:23Z</time>
      </trkpt>
      <trkpt lat="-2.669750" lon="-78.766205">
        <ele>3476.00</ele>
        <time>2018-09-08T23:06:24Z</time>
      </trkpt>
      <trkpt lat="-2.669755" lon="-78.766174">
        <ele>3476.00</ele>
        <time>2018-09-08T23:06:25Z</time>
      </trkpt>
      <trkpt lat="-2.669762" lon="-78.766159">
        <ele>3476.00</ele>
        <time>2018-09-08T23:06:26Z</time>
      </trkpt>
      <trkpt lat="-2.669772" lon="-78.766121">
        <ele>3475.00</ele>
        <time>2018-09-08T23:06:27Z</time>
      </trkpt>
      <trkpt lat="-2.669805" lon="-78.766045">
        <ele>3475.00</ele>
        <time>2018-09-08T23:06:28Z</time>
      </trkpt>
      <trkpt lat="-2.669852" lon="-78.765945">
        <ele>3474.00</ele>
        <time>2018-09-08T23:06:29Z</time>
      </trkpt>
      <trkpt lat="-2.669884" lon="-78.765839">
        <ele>3473.00</ele>
        <time>2018-09-08T23:06:30Z</time>
      </trkpt>
      <trkpt lat="-2.669893" lon="-78.765701">
        <ele>3473.00</ele>
        <time>2018-09-08T23:06:31Z</time>
      </trkpt>
      <trkpt lat="-2.669881" lon="-78.765549">
        <ele>3472.00</ele>
        <time>2018-09-08T23:06:32Z</time>
      </trkpt>
      <trkpt lat="-2.669871" lon="-78.765404">
        <ele>3472.00</ele>
        <time>2018-09-08T23:06:33Z</time>
      </trkpt>
      <trkpt lat="-2.669866" lon="-78.765251">
        <ele>3472.00</ele>
        <time>2018-09-08T23:06:34Z</time>
      </trkpt>
      <trkpt lat="-2.669872" lon="-78.765091">
        <ele>3471.00</ele>
        <time>2018-09-08T23:06:35Z</time>
      </trkpt>
      <trkpt lat="-2.669897" lon="-78.764954">
        <ele>3470.00</ele>
        <time>2018-09-08T23:06:36Z</time>
      </trkpt>
      <trkpt lat="-2.669923" lon="-78.764816">
        <ele>3470.00</ele>
        <time>2018-09-08T23:06:37Z</time>
      </trkpt>
      <trkpt lat="-2.669928" lon="-78.764679">
        <ele>3469.00</ele>
        <time>2018-09-08T23:06:38Z</time>
      </trkpt>
      <trkpt lat="-2.669928" lon="-78.764549">
        <ele>3469.00</ele>
        <time>2018-09-08T23:06:39Z</time>
      </trkpt>
      <trkpt lat="-2.669932" lon="-78.764450">
        <ele>3468.00</ele>
        <time>2018-09-08T23:06:40Z</time>
      </trkpt>
      <trkpt lat="-2.669938" lon="-78.764381">
        <ele>3468.00</ele>
        <time>2018-09-08T23:06:41Z</time>
      </trkpt>
      <trkpt lat="-2.669998" lon="-78.764320">
        <ele>3467.00</ele>
        <time>2018-09-08T23:06:42Z</time>
      </trkpt>
      <trkpt lat="-2.670084" lon="-78.764282">
        <ele>3467.00</ele>
        <time>2018-09-08T23:06:43Z</time>
      </trkpt>
      <trkpt lat="-2.670179" lon="-78.764267">
        <ele>3466.00</ele>
        <time>2018-09-08T23:06:44Z</time>
      </trkpt>
      <trkpt lat="-2.670284" lon="-78.764259">
        <ele>3466.00</ele>
        <time>2018-09-08T23:06:45Z</time>
      </trkpt>
      <trkpt lat="-2.670389" lon="-78.764259">
        <ele>3466.00</ele>
        <time>2018-09-08T23:06:46Z</time>
      </trkpt>
      <trkpt lat="-2.670477" lon="-78.764275">
        <ele>3465.00</ele>
        <time>2018-09-08T23:06:47Z</time>
      </trkpt>
      <trkpt lat="-2.670553" lon="-78.764305">
        <ele>3463.00</ele>
        <time>2018-09-08T23:06:48Z</time>
      </trkpt>
      <trkpt lat="-2.670602" lon="-78.764374">
        <ele>3462.00</ele>
        <time>2018-09-08T23:06:49Z</time>
      </trkpt>
      <trkpt lat="-2.670634" lon="-78.764442">
        <ele>3460.00</ele>
        <time>2018-09-08T23:06:50Z</time>
      </trkpt>
      <trkpt lat="-2.670657" lon="-78.764488">
        <ele>3460.00</ele>
        <time>2018-09-08T23:06:51Z</time>
      </trkpt>
      <trkpt lat="-2.670657" lon="-78.764488">
        <ele>3460.00</ele>
        <time>2018-09-08T23:06:52Z</time>
      </trkpt>
      <trkpt lat="-2.670657" lon="-78.764488">
        <ele>3459.00</ele>
        <time>2018-09-08T23:06:53Z</time>
      </trkpt>
      <trkpt lat="-2.670657" lon="-78.764488">
        <ele>3459.00</ele>
        <time>2018-09-08T23:06:54Z</time>
      </trkpt>
      <trkpt lat="-2.670686" lon="-78.764557">
        <ele>3459.00</ele>
        <time>2018-09-08T23:06:55Z</time>
      </trkpt>
      <trkpt lat="-2.670701" lon="-78.764595">
        <ele>3458.00</ele>
        <time>2018-09-08T23:06:56Z</time>
      </trkpt>
      <trkpt lat="-2.670719" lon="-78.764641">
        <ele>3454.00</ele>
        <time>2018-09-08T23:06:57Z</time>
      </trkpt>
      <trkpt lat="-2.670725" lon="-78.764702">
        <ele>3451.00</ele>
        <time>2018-09-08T23:06:58Z</time>
      </trkpt>
      <trkpt lat="-2.670734" lon="-78.764801">
        <ele>3449.00</ele>
        <time>2018-09-08T23:06:59Z</time>
      </trkpt>
      <trkpt lat="-2.670745" lon="-78.764915">
        <ele>3446.00</ele>
        <time>2018-09-08T23:07:00Z</time>
      </trkpt>
      <trkpt lat="-2.670757" lon="-78.765038">
        <ele>3445.00</ele>
        <time>2018-09-08T23:07:01Z</time>
      </trkpt>
      <trkpt lat="-2.670764" lon="-78.765175">
        <ele>3443.00</ele>
        <time>2018-09-08T23:07:02Z</time>
      </trkpt>
      <trkpt lat="-2.670762" lon="-78.765312">
        <ele>3442.00</ele>
        <time>2018-09-08T23:07:03Z</time>
      </trkpt>
      <trkpt lat="-2.670745" lon="-78.765457">
        <ele>3441.00</ele>
        <time>2018-09-08T23:07:04Z</time>
      </trkpt>
      <trkpt lat="-2.670712" lon="-78.765602">
        <ele>3440.00</ele>
        <time>2018-09-08T23:07:05Z</time>
      </trkpt>
      <trkpt lat="-2.670667" lon="-78.765739">
        <ele>3439.00</ele>
        <time>2018-09-08T23:07:06Z</time>
      </trkpt>
      <trkpt lat="-2.670621" lon="-78.765884">
        <ele>3438.00</ele>
        <time>2018-09-08T23:07:07Z</time>
      </trkpt>
      <trkpt lat="-2.670583" lon="-78.766006">
        <ele>3437.00</ele>
        <time>2018-09-08T23:07:08Z</time>
      </trkpt>
      <trkpt lat="-2.670553" lon="-78.766121">
        <ele>3437.00</ele>
        <time>2018-09-08T23:07:09Z</time>
      </trkpt>
      <trkpt lat="-2.670541" lon="-78.766228">
        <ele>3436.00</ele>
        <time>2018-09-08T23:07:10Z</time>
      </trkpt>
      <trkpt lat="-2.670555" lon="-78.766327">
        <ele>3436.00</ele>
        <time>2018-09-08T23:07:11Z</time>
      </trkpt>
      <trkpt lat="-2.670603" lon="-78.766426">
        <ele>3435.00</ele>
        <time>2018-09-08T23:07:12Z</time>
      </trkpt>
      <trkpt lat="-2.670688" lon="-78.766525">
        <ele>3434.00</ele>
        <time>2018-09-08T23:07:13Z</time>
      </trkpt>
      <trkpt lat="-2.670791" lon="-78.766624">
        <ele>3433.00</ele>
        <time>2018-09-08T23:07:14Z</time>
      </trkpt>
      <trkpt lat="-2.670897" lon="-78.766731">
        <ele>3432.00</ele>
        <time>2018-09-08T23:07:15Z</time>
      </trkpt>
      <trkpt lat="-2.671007" lon="-78.766846">
        <ele>3431.00</ele>
        <time>2018-09-08T23:07:16Z</time>
      </trkpt>
      <trkpt lat="-2.671120" lon="-78.766968">
        <ele>3430.00</ele>
        <time>2018-09-08T23:07:17Z</time>
      </trkpt>
      <trkpt lat="-2.671235" lon="-78.767090">
        <ele>3429.00</ele>
        <time>2018-09-08T23:07:18Z</time>
      </trkpt>
      <trkpt lat="-2.671354" lon="-78.767220">
        <ele>3428.00</ele>
        <time>2018-09-08T23:07:19Z</time>
      </trkpt>
      <trkpt lat="-2.671471" lon="-78.767349">
        <ele>3427.00</ele>
        <time>2018-09-08T23:07:20Z</time>
      </trkpt>
      <trkpt lat="-2.671589" lon="-78.767479">
        <ele>3426.00</ele>
        <time>2018-09-08T23:07:21Z</time>
      </trkpt>
      <trkpt lat="-2.671701" lon="-78.767601">
        <ele>3426.00</ele>
        <time>2018-09-08T23:07:22Z</time>
      </trkpt>
      <trkpt lat="-2.671812" lon="-78.767708">
        <ele>3425.00</ele>
        <time>2018-09-08T23:07:23Z</time>
      </trkpt>
      <trkpt lat="-2.671940" lon="-78.767792">
        <ele>3425.00</ele>
        <time>2018-09-08T23:07:24Z</time>
      </trkpt>
      <trkpt lat="-2.672073" lon="-78.767845">
        <ele>3425.00</ele>
        <time>2018-09-08T23:07:25Z</time>
      </trkpt>
      <trkpt lat="-2.672189" lon="-78.767891">
        <ele>3424.00</ele>
        <time>2018-09-08T23:07:26Z</time>
      </trkpt>
      <trkpt lat="-2.672289" lon="-78.767929">
        <ele>3424.00</ele>
        <time>2018-09-08T23:07:27Z</time>
      </trkpt>
      <trkpt lat="-2.672368" lon="-78.767982">
        <ele>3424.00</ele>
        <time>2018-09-08T23:07:28Z</time>
      </trkpt>
      <trkpt lat="-2.672418" lon="-78.768051">
        <ele>3424.00</ele>
        <time>2018-09-08T23:07:29Z</time>
      </trkpt>
      <trkpt lat="-2.672422" lon="-78.768166">
        <ele>3423.00</ele>
        <time>2018-09-08T23:07:30Z</time>
      </trkpt>
      <trkpt lat="-2.672401" lon="-78.768303">
        <ele>3423.00</ele>
        <time>2018-09-08T23:07:31Z</time>
      </trkpt>
      <trkpt lat="-2.672385" lon="-78.768433">
        <ele>3423.00</ele>
        <time>2018-09-08T23:07:32Z</time>
      </trkpt>
      <trkpt lat="-2.672404" lon="-78.768570">
        <ele>3422.00</ele>
        <time>2018-09-08T23:07:33Z</time>
      </trkpt>
      <trkpt lat="-2.672457" lon="-78.768700">
        <ele>3422.00</ele>
        <time>2018-09-08T23:07:34Z</time>
      </trkpt>
      <trkpt lat="-2.672511" lon="-78.768829">
        <ele>3422.00</ele>
        <time>2018-09-08T23:07:35Z</time>
      </trkpt>
      <trkpt lat="-2.672541" lon="-78.768944">
        <ele>3421.00</ele>
        <time>2018-09-08T23:07:36Z</time>
      </trkpt>
      <trkpt lat="-2.672518" lon="-78.769073">
        <ele>3421.00</ele>
        <time>2018-09-08T23:07:37Z</time>
      </trkpt>
      <trkpt lat="-2.672450" lon="-78.769226">
        <ele>3420.00</ele>
        <time>2018-09-08T23:07:38Z</time>
      </trkpt>
      <trkpt lat="-2.672367" lon="-78.769371">
        <ele>3420.00</ele>
        <time>2018-09-08T23:07:39Z</time>
      </trkpt>
      <trkpt lat="-2.672287" lon="-78.769508">
        <ele>3419.00</ele>
        <time>2018-09-08T23:07:40Z</time>
      </trkpt>
      <trkpt lat="-2.672220" lon="-78.769646">
        <ele>3419.00</ele>
        <time>2018-09-08T23:07:41Z</time>
      </trkpt>
      <trkpt lat="-2.672166" lon="-78.769768">
        <ele>3419.00</ele>
        <time>2018-09-08T23:07:42Z</time>
      </trkpt>
      <trkpt lat="-2.672120" lon="-78.769890">
        <ele>3418.00</ele>
        <time>2018-09-08T23:07:43Z</time>
      </trkpt>
      <trkpt lat="-2.672093" lon="-78.770035">
        <ele>3418.00</ele>
        <time>2018-09-08T23:07:44Z</time>
      </trkpt>
      <trkpt lat="-2.672102" lon="-78.770180">
        <ele>3418.00</ele>
        <time>2018-09-08T23:07:45Z</time>
      </trkpt>
      <trkpt lat="-2.672149" lon="-78.770340">
        <ele>3417.00</ele>
        <time>2018-09-08T23:07:46Z</time>
      </trkpt>
      <trkpt lat="-2.672231" lon="-78.770477">
        <ele>3417.00</ele>
        <time>2018-09-08T23:07:47Z</time>
      </trkpt>
      <trkpt lat="-2.672301" lon="-78.770638">
        <ele>3416.00</ele>
        <time>2018-09-08T23:07:48Z</time>
      </trkpt>
      <trkpt lat="-2.672371" lon="-78.770805">
        <ele>3416.00</ele>
        <time>2018-09-08T23:07:49Z</time>
      </trkpt>
      <trkpt lat="-2.672460" lon="-78.770966">
        <ele>3415.00</ele>
        <time>2018-09-08T23:07:50Z</time>
      </trkpt>
      <trkpt lat="-2.672577" lon="-78.771103">
        <ele>3415.00</ele>
        <time>2018-09-08T23:07:51Z</time>
      </trkpt>
      <trkpt lat="-2.672713" lon="-78.771233">
        <ele>3414.00</ele>
        <time>2018-09-08T23:07:52Z</time>
      </trkpt>
      <trkpt lat="-2.672869" lon="-78.771339">
        <ele>3414.00</ele>
        <time>2018-09-08T23:07:53Z</time>
      </trkpt>
      <trkpt lat="-2.673027" lon="-78.771461">
        <ele>3413.00</ele>
        <time>2018-09-08T23:07:54Z</time>
      </trkpt>
      <trkpt lat="-2.673180" lon="-78.771561">
        <ele>3412.00</ele>
        <time>2018-09-08T23:07:55Z</time>
      </trkpt>
      <trkpt lat="-2.673331" lon="-78.771660">
        <ele>3412.00</ele>
        <time>2018-09-08T23:07:56Z</time>
      </trkpt>
      <trkpt lat="-2.673462" lon="-78.771744">
        <ele>3411.00</ele>
        <time>2018-09-08T23:07:57Z</time>
      </trkpt>
      <trkpt lat="-2.673570" lon="-78.771851">
        <ele>3410.00</ele>
        <time>2018-09-08T23:07:58Z</time>
      </trkpt>
      <trkpt lat="-2.673657" lon="-78.771965">
        <ele>3408.00</ele>
        <time>2018-09-08T23:07:59Z</time>
      </trkpt>
      <trkpt lat="-2.673725" lon="-78.772110">
        <ele>3407.00</ele>
        <time>2018-09-08T23:08:00Z</time>
      </trkpt>
      <trkpt lat="-2.673779" lon="-78.772255">
        <ele>3405.00</ele>
        <time>2018-09-08T23:08:01Z</time>
      </trkpt>
      <trkpt lat="-2.673843" lon="-78.772408">
        <ele>3403.00</ele>
        <time>2018-09-08T23:08:02Z</time>
      </trkpt>
      <trkpt lat="-2.673927" lon="-78.772545">
        <ele>3400.00</ele>
        <time>2018-09-08T23:08:03Z</time>
      </trkpt>
      <trkpt lat="-2.674029" lon="-78.772675">
        <ele>3398.00</ele>
        <time>2018-09-08T23:08:04Z</time>
      </trkpt>
      <trkpt lat="-2.674146" lon="-78.772812">
        <ele>3396.00</ele>
        <time>2018-09-08T23:08:05Z</time>
      </trkpt>
      <trkpt lat="-2.674276" lon="-78.772942">
        <ele>3394.00</ele>
        <time>2018-09-08T23:08:06Z</time>
      </trkpt>
      <trkpt lat="-2.674402" lon="-78.773079">
        <ele>3393.00</ele>
        <time>2018-09-08T23:08:07Z</time>
      </trkpt>
      <trkpt lat="-2.674520" lon="-78.773201">
        <ele>3392.00</ele>
        <time>2018-09-08T23:08:08Z</time>
      </trkpt>
      <trkpt lat="-2.674629" lon="-78.773354">
        <ele>3391.00</ele>
        <time>2018-09-08T23:08:09Z</time>
      </trkpt>
      <trkpt lat="-2.674716" lon="-78.773514">
        <ele>3390.00</ele>
        <time>2018-09-08T23:08:10Z</time>
      </trkpt>
      <trkpt lat="-2.674790" lon="-78.773689">
        <ele>3389.00</ele>
        <time>2018-09-08T23:08:11Z</time>
      </trkpt>
      <trkpt lat="-2.674871" lon="-78.773888">
        <ele>3388.00</ele>
        <time>2018-09-08T23:08:12Z</time>
      </trkpt>
      <trkpt lat="-2.674968" lon="-78.774071">
        <ele>3387.00</ele>
        <time>2018-09-08T23:08:13Z</time>
      </trkpt>
      <trkpt lat="-2.675073" lon="-78.774269">
        <ele>3386.00</ele>
        <time>2018-09-08T23:08:14Z</time>
      </trkpt>
      <trkpt lat="-2.675215" lon="-78.774445">
        <ele>3385.00</ele>
        <time>2018-09-08T23:08:15Z</time>
      </trkpt>
      <trkpt lat="-2.675373" lon="-78.774612">
        <ele>3384.00</ele>
        <time>2018-09-08T23:08:16Z</time>
      </trkpt>
      <trkpt lat="-2.675542" lon="-78.774773">
        <ele>3384.00</ele>
        <time>2018-09-08T23:08:17Z</time>
      </trkpt>
      <trkpt lat="-2.675707" lon="-78.774925">
        <ele>3384.00</ele>
        <time>2018-09-08T23:08:18Z</time>
      </trkpt>
      <trkpt lat="-2.675873" lon="-78.775078">
        <ele>3384.00</ele>
        <time>2018-09-08T23:08:19Z</time>
      </trkpt>
      <trkpt lat="-2.676031" lon="-78.775215">
        <ele>3383.00</ele>
        <time>2018-09-08T23:08:20Z</time>
      </trkpt>
      <trkpt lat="-2.676173" lon="-78.775345">
        <ele>3383.00</ele>
        <time>2018-09-08T23:08:21Z</time>
      </trkpt>
      <trkpt lat="-2.676292" lon="-78.775459">
        <ele>3383.00</ele>
        <time>2018-09-08T23:08:22Z</time>
      </trkpt>
      <trkpt lat="-2.676403" lon="-78.775543">
        <ele>3383.00</ele>
        <time>2018-09-08T23:08:23Z</time>
      </trkpt>
      <trkpt lat="-2.676518" lon="-78.775627">
        <ele>3383.00</ele>
        <time>2018-09-08T23:08:24Z</time>
      </trkpt>
      <trkpt lat="-2.676660" lon="-78.775688">
        <ele>3382.00</ele>
        <time>2018-09-08T23:08:25Z</time>
      </trkpt>
      <trkpt lat="-2.676814" lon="-78.775703">
        <ele>3382.00</ele>
        <time>2018-09-08T23:08:26Z</time>
      </trkpt>
      <trkpt lat="-2.676975" lon="-78.775726">
        <ele>3382.00</ele>
        <time>2018-09-08T23:08:27Z</time>
      </trkpt>
      <trkpt lat="-2.677143" lon="-78.775749">
        <ele>3382.00</ele>
        <time>2018-09-08T23:08:28Z</time>
      </trkpt>
      <trkpt lat="-2.677320" lon="-78.775780">
        <ele>3381.00</ele>
        <time>2018-09-08T23:08:29Z</time>
      </trkpt>
      <trkpt lat="-2.677505" lon="-78.775803">
        <ele>3381.00</ele>
        <time>2018-09-08T23:08:30Z</time>
      </trkpt>
      <trkpt lat="-2.677699" lon="-78.775833">
        <ele>3380.00</ele>
        <time>2018-09-08T23:08:31Z</time>
      </trkpt>
      <trkpt lat="-2.677898" lon="-78.775856">
        <ele>3379.00</ele>
        <time>2018-09-08T23:08:32Z</time>
      </trkpt>
      <trkpt lat="-2.678092" lon="-78.775879">
        <ele>3379.00</ele>
        <time>2018-09-08T23:08:33Z</time>
      </trkpt>
      <trkpt lat="-2.678276" lon="-78.775894">
        <ele>3378.00</ele>
        <time>2018-09-08T23:08:34Z</time>
      </trkpt>
      <trkpt lat="-2.678443" lon="-78.775909">
        <ele>3377.00</ele>
        <time>2018-09-08T23:08:35Z</time>
      </trkpt>
      <trkpt lat="-2.678605" lon="-78.775948">
        <ele>3376.00</ele>
        <time>2018-09-08T23:08:36Z</time>
      </trkpt>
      <trkpt lat="-2.678769" lon="-78.775993">
        <ele>3375.00</ele>
        <time>2018-09-08T23:08:37Z</time>
      </trkpt>
      <trkpt lat="-2.678931" lon="-78.776062">
        <ele>3375.00</ele>
        <time>2018-09-08T23:08:38Z</time>
      </trkpt>
      <trkpt lat="-2.679089" lon="-78.776169">
        <ele>3374.00</ele>
        <time>2018-09-08T23:08:39Z</time>
      </trkpt>
      <trkpt lat="-2.679243" lon="-78.776291">
        <ele>3373.00</ele>
        <time>2018-09-08T23:08:40Z</time>
      </trkpt>
      <trkpt lat="-2.679403" lon="-78.776421">
        <ele>3373.00</ele>
        <time>2018-09-08T23:08:41Z</time>
      </trkpt>
      <trkpt lat="-2.679559" lon="-78.776543">
        <ele>3372.00</ele>
        <time>2018-09-08T23:08:42Z</time>
      </trkpt>
      <trkpt lat="-2.679708" lon="-78.776657">
        <ele>3372.00</ele>
        <time>2018-09-08T23:08:43Z</time>
      </trkpt>
      <trkpt lat="-2.679841" lon="-78.776756">
        <ele>3371.00</ele>
        <time>2018-09-08T23:08:44Z</time>
      </trkpt>
      <trkpt lat="-2.679944" lon="-78.776848">
        <ele>3371.00</ele>
        <time>2018-09-08T23:08:45Z</time>
      </trkpt>
      <trkpt lat="-2.680051" lon="-78.776909">
        <ele>3370.00</ele>
        <time>2018-09-08T23:08:46Z</time>
      </trkpt>
      <trkpt lat="-2.680175" lon="-78.776939">
        <ele>3369.00</ele>
        <time>2018-09-08T23:08:47Z</time>
      </trkpt>
      <trkpt lat="-2.680321" lon="-78.776962">
        <ele>3369.00</ele>
        <time>2018-09-08T23:08:48Z</time>
      </trkpt>
      <trkpt lat="-2.680486" lon="-78.776917">
        <ele>3368.00</ele>
        <time>2018-09-08T23:08:49Z</time>
      </trkpt>
      <trkpt lat="-2.680647" lon="-78.776863">
        <ele>3367.00</ele>
        <time>2018-09-08T23:08:50Z</time>
      </trkpt>
      <trkpt lat="-2.680812" lon="-78.776810">
        <ele>3367.00</ele>
        <time>2018-09-08T23:08:51Z</time>
      </trkpt>
      <trkpt lat="-2.680970" lon="-78.776764">
        <ele>3367.00</ele>
        <time>2018-09-08T23:08:52Z</time>
      </trkpt>
      <trkpt lat="-2.681119" lon="-78.776741">
        <ele>3366.00</ele>
        <time>2018-09-08T23:08:53Z</time>
      </trkpt>
      <trkpt lat="-2.681268" lon="-78.776749">
        <ele>3366.00</ele>
        <time>2018-09-08T23:08:54Z</time>
      </trkpt>
      <trkpt lat="-2.681420" lon="-78.776772">
        <ele>3366.00</ele>
        <time>2018-09-08T23:08:55Z</time>
      </trkpt>
      <trkpt lat="-2.681578" lon="-78.776817">
        <ele>3366.00</ele>
        <time>2018-09-08T23:08:56Z</time>
      </trkpt>
      <trkpt lat="-2.681737" lon="-78.776863">
        <ele>3366.00</ele>
        <time>2018-09-08T23:08:57Z</time>
      </trkpt>
      <trkpt lat="-2.681889" lon="-78.776917">
        <ele>3365.00</ele>
        <time>2018-09-08T23:08:58Z</time>
      </trkpt>
      <trkpt lat="-2.682025" lon="-78.776962">
        <ele>3365.00</ele>
        <time>2018-09-08T23:08:59Z</time>
      </trkpt>
      <trkpt lat="-2.682150" lon="-78.777031">
        <ele>3365.00</ele>
        <time>2018-09-08T23:09:00Z</time>
      </trkpt>
      <trkpt lat="-2.682261" lon="-78.777130">
        <ele>3365.00</ele>
        <time>2018-09-08T23:09:01Z</time>
      </trkpt>
      <trkpt lat="-2.682363" lon="-78.777245">
        <ele>3365.00</ele>
        <time>2018-09-08T23:09:02Z</time>
      </trkpt>
      <trkpt lat="-2.682467" lon="-78.777359">
        <ele>3365.00</ele>
        <time>2018-09-08T23:09:03Z</time>
      </trkpt>
      <trkpt lat="-2.682570" lon="-78.777466">
        <ele>3365.00</ele>
        <time>2018-09-08T23:09:04Z</time>
      </trkpt>
      <trkpt lat="-2.682701" lon="-78.777534">
        <ele>3365.00</ele>
        <time>2018-09-08T23:09:05Z</time>
      </trkpt>
      <trkpt lat="-2.682854" lon="-78.777580">
        <ele>3365.00</ele>
        <time>2018-09-08T23:09:06Z</time>
      </trkpt>
      <trkpt lat="-2.683014" lon="-78.777618">
        <ele>3365.00</ele>
        <time>2018-09-08T23:09:07Z</time>
      </trkpt>
      <trkpt lat="-2.683184" lon="-78.777641">
        <ele>3365.00</ele>
        <time>2018-09-08T23:09:08Z</time>
      </trkpt>
      <trkpt lat="-2.683359" lon="-78.777679">
        <ele>3365.00</ele>
        <time>2018-09-08T23:09:09Z</time>
      </trkpt>
      <trkpt lat="-2.683532" lon="-78.777725">
        <ele>3365.00</ele>
        <time>2018-09-08T23:09:10Z</time>
      </trkpt>
      <trkpt lat="-2.683702" lon="-78.777779">
        <ele>3365.00</ele>
        <time>2018-09-08T23:09:11Z</time>
      </trkpt>
      <trkpt lat="-2.683858" lon="-78.777878">
        <ele>3365.00</ele>
        <time>2018-09-08T23:09:12Z</time>
      </trkpt>
      <trkpt lat="-2.684004" lon="-78.777977">
        <ele>3364.00</ele>
        <time>2018-09-08T23:09:13Z</time>
      </trkpt>
      <trkpt lat="-2.684144" lon="-78.778069">
        <ele>3364.00</ele>
        <time>2018-09-08T23:09:14Z</time>
      </trkpt>
      <trkpt lat="-2.684295" lon="-78.778145">
        <ele>3364.00</ele>
        <time>2018-09-08T23:09:15Z</time>
      </trkpt>
      <trkpt lat="-2.684463" lon="-78.778175">
        <ele>3363.00</ele>
        <time>2018-09-08T23:09:16Z</time>
      </trkpt>
      <trkpt lat="-2.684642" lon="-78.778206">
        <ele>3363.00</ele>
        <time>2018-09-08T23:09:17Z</time>
      </trkpt>
      <trkpt lat="-2.684816" lon="-78.778221">
        <ele>3363.00</ele>
        <time>2018-09-08T23:09:18Z</time>
      </trkpt>
      <trkpt lat="-2.684977" lon="-78.778236">
        <ele>3362.00</ele>
        <time>2018-09-08T23:09:19Z</time>
      </trkpt>
      <trkpt lat="-2.685123" lon="-78.778267">
        <ele>3362.00</ele>
        <time>2018-09-08T23:09:20Z</time>
      </trkpt>
      <trkpt lat="-2.685258" lon="-78.778305">
        <ele>3362.00</ele>
        <time>2018-09-08T23:09:21Z</time>
      </trkpt>
      <trkpt lat="-2.685387" lon="-78.778366">
        <ele>3362.00</ele>
        <time>2018-09-08T23:09:22Z</time>
      </trkpt>
      <trkpt lat="-2.685500" lon="-78.778473">
        <ele>3362.00</ele>
        <time>2018-09-08T23:09:23Z</time>
      </trkpt>
      <trkpt lat="-2.685602" lon="-78.778587">
        <ele>3361.00</ele>
        <time>2018-09-08T23:09:24Z</time>
      </trkpt>
      <trkpt lat="-2.685702" lon="-78.778732">
        <ele>3361.00</ele>
        <time>2018-09-08T23:09:25Z</time>
      </trkpt>
      <trkpt lat="-2.685797" lon="-78.778877">
        <ele>3361.00</ele>
        <time>2018-09-08T23:09:26Z</time>
      </trkpt>
      <trkpt lat="-2.685893" lon="-78.779030">
        <ele>3361.00</ele>
        <time>2018-09-08T23:09:27Z</time>
      </trkpt>
      <trkpt lat="-2.685986" lon="-78.779182">
        <ele>3360.00</ele>
        <time>2018-09-08T23:09:28Z</time>
      </trkpt>
      <trkpt lat="-2.686069" lon="-78.779327">
        <ele>3360.00</ele>
        <time>2018-09-08T23:09:29Z</time>
      </trkpt>
      <trkpt lat="-2.686136" lon="-78.779488">
        <ele>3360.00</ele>
        <time>2018-09-08T23:09:30Z</time>
      </trkpt>
      <trkpt lat="-2.686179" lon="-78.779648">
        <ele>3359.00</ele>
        <time>2018-09-08T23:09:31Z</time>
      </trkpt>
      <trkpt lat="-2.686204" lon="-78.779831">
        <ele>3359.00</ele>
        <time>2018-09-08T23:09:32Z</time>
      </trkpt>
      <trkpt lat="-2.686209" lon="-78.780029">
        <ele>3358.00</ele>
        <time>2018-09-08T23:09:33Z</time>
      </trkpt>
      <trkpt lat="-2.686193" lon="-78.780228">
        <ele>3357.00</ele>
        <time>2018-09-08T23:09:34Z</time>
      </trkpt>
      <trkpt lat="-2.686176" lon="-78.780426">
        <ele>3355.00</ele>
        <time>2018-09-08T23:09:35Z</time>
      </trkpt>
      <trkpt lat="-2.686161" lon="-78.780632">
        <ele>3354.00</ele>
        <time>2018-09-08T23:09:36Z</time>
      </trkpt>
      <trkpt lat="-2.686144" lon="-78.780830">
        <ele>3353.00</ele>
        <time>2018-09-08T23:09:37Z</time>
      </trkpt>
      <trkpt lat="-2.686127" lon="-78.781021">
        <ele>3352.00</ele>
        <time>2018-09-08T23:09:38Z</time>
      </trkpt>
      <trkpt lat="-2.686116" lon="-78.781197">
        <ele>3350.00</ele>
        <time>2018-09-08T23:09:39Z</time>
      </trkpt>
      <trkpt lat="-2.686125" lon="-78.781380">
        <ele>3349.00</ele>
        <time>2018-09-08T23:09:40Z</time>
      </trkpt>
      <trkpt lat="-2.686164" lon="-78.781548">
        <ele>3348.00</ele>
        <time>2018-09-08T23:09:41Z</time>
      </trkpt>
      <trkpt lat="-2.686222" lon="-78.781723">
        <ele>3347.00</ele>
        <time>2018-09-08T23:09:42Z</time>
      </trkpt>
      <trkpt lat="-2.686291" lon="-78.781898">
        <ele>3346.00</ele>
        <time>2018-09-08T23:09:43Z</time>
      </trkpt>
      <trkpt lat="-2.686360" lon="-78.782074">
        <ele>3345.00</ele>
        <time>2018-09-08T23:09:44Z</time>
      </trkpt>
      <trkpt lat="-2.686420" lon="-78.782242">
        <ele>3344.00</ele>
        <time>2018-09-08T23:09:45Z</time>
      </trkpt>
      <trkpt lat="-2.686471" lon="-78.782417">
        <ele>3343.00</ele>
        <time>2018-09-08T23:09:46Z</time>
      </trkpt>
      <trkpt lat="-2.686519" lon="-78.782585">
        <ele>3342.00</ele>
        <time>2018-09-08T23:09:47Z</time>
      </trkpt>
      <trkpt lat="-2.686571" lon="-78.782745">
        <ele>3341.00</ele>
        <time>2018-09-08T23:09:48Z</time>
      </trkpt>
      <trkpt lat="-2.686630" lon="-78.782906">
        <ele>3340.00</ele>
        <time>2018-09-08T23:09:49Z</time>
      </trkpt>
      <trkpt lat="-2.686706" lon="-78.783043">
        <ele>3339.00</ele>
        <time>2018-09-08T23:09:50Z</time>
      </trkpt>
      <trkpt lat="-2.686792" lon="-78.783150">
        <ele>3338.00</ele>
        <time>2018-09-08T23:09:51Z</time>
      </trkpt>
      <trkpt lat="-2.686897" lon="-78.783234">
        <ele>3337.00</ele>
        <time>2018-09-08T23:09:52Z</time>
      </trkpt>
      <trkpt lat="-2.687020" lon="-78.783295">
        <ele>3337.00</ele>
        <time>2018-09-08T23:09:53Z</time>
      </trkpt>
      <trkpt lat="-2.687159" lon="-78.783333">
        <ele>3336.00</ele>
        <time>2018-09-08T23:09:54Z</time>
      </trkpt>
      <trkpt lat="-2.687314" lon="-78.783348">
        <ele>3336.00</ele>
        <time>2018-09-08T23:09:55Z</time>
      </trkpt>
      <trkpt lat="-2.687504" lon="-78.783348">
        <ele>3336.00</ele>
        <time>2018-09-08T23:09:56Z</time>
      </trkpt>
      <trkpt lat="-2.687706" lon="-78.783363">
        <ele>3336.00</ele>
        <time>2018-09-08T23:09:57Z</time>
      </trkpt>
      <trkpt lat="-2.687902" lon="-78.783363">
        <ele>3335.00</ele>
        <time>2018-09-08T23:09:58Z</time>
      </trkpt>
      <trkpt lat="-2.688093" lon="-78.783363">
        <ele>3335.00</ele>
        <time>2018-09-08T23:09:59Z</time>
      </trkpt>
      <trkpt lat="-2.688275" lon="-78.783363">
        <ele>3334.00</ele>
        <time>2018-09-08T23:10:00Z</time>
      </trkpt>
      <trkpt lat="-2.688450" lon="-78.783379">
        <ele>3334.00</ele>
        <time>2018-09-08T23:10:01Z</time>
      </trkpt>
      <trkpt lat="-2.688623" lon="-78.783401">
        <ele>3334.00</ele>
        <time>2018-09-08T23:10:02Z</time>
      </trkpt>
      <trkpt lat="-2.688787" lon="-78.783470">
        <ele>3333.00</ele>
        <time>2018-09-08T23:10:03Z</time>
      </trkpt>
      <trkpt lat="-2.688929" lon="-78.783562">
        <ele>3333.00</ele>
        <time>2018-09-08T23:10:04Z</time>
      </trkpt>
      <trkpt lat="-2.689065" lon="-78.783661">
        <ele>3332.00</ele>
        <time>2018-09-08T23:10:05Z</time>
      </trkpt>
      <trkpt lat="-2.689196" lon="-78.783760">
        <ele>3332.00</ele>
        <time>2018-09-08T23:10:06Z</time>
      </trkpt>
      <trkpt lat="-2.689332" lon="-78.783875">
        <ele>3332.00</ele>
        <time>2018-09-08T23:10:07Z</time>
      </trkpt>
      <trkpt lat="-2.689472" lon="-78.783981">
        <ele>3332.00</ele>
        <time>2018-09-08T23:10:08Z</time>
      </trkpt>
      <trkpt lat="-2.689619" lon="-78.784081">
        <ele>3332.00</ele>
        <time>2018-09-08T23:10:09Z</time>
      </trkpt>
      <trkpt lat="-2.689764" lon="-78.784180">
        <ele>3332.00</ele>
        <time>2018-09-08T23:10:10Z</time>
      </trkpt>
      <trkpt lat="-2.689908" lon="-78.784279">
        <ele>3332.00</ele>
        <time>2018-09-08T23:10:11Z</time>
      </trkpt>
      <trkpt lat="-2.690050" lon="-78.784370">
        <ele>3331.00</ele>
        <time>2018-09-08T23:10:12Z</time>
      </trkpt>
      <trkpt lat="-2.690193" lon="-78.784470">
        <ele>3332.00</ele>
        <time>2018-09-08T23:10:13Z</time>
      </trkpt>
      <trkpt lat="-2.690334" lon="-78.784569">
        <ele>3331.00</ele>
        <time>2018-09-08T23:10:14Z</time>
      </trkpt>
      <trkpt lat="-2.690473" lon="-78.784660">
        <ele>3331.00</ele>
        <time>2018-09-08T23:10:15Z</time>
      </trkpt>
      <trkpt lat="-2.690612" lon="-78.784744">
        <ele>3331.00</ele>
        <time>2018-09-08T23:10:16Z</time>
      </trkpt>
      <trkpt lat="-2.690753" lon="-78.784843">
        <ele>3331.00</ele>
        <time>2018-09-08T23:10:17Z</time>
      </trkpt>
      <trkpt lat="-2.690891" lon="-78.784935">
        <ele>3330.00</ele>
        <time>2018-09-08T23:10:18Z</time>
      </trkpt>
      <trkpt lat="-2.691016" lon="-78.785019">
        <ele>3329.00</ele>
        <time>2018-09-08T23:10:19Z</time>
      </trkpt>
      <trkpt lat="-2.691134" lon="-78.785118">
        <ele>3328.00</ele>
        <time>2018-09-08T23:10:20Z</time>
      </trkpt>
      <trkpt lat="-2.691232" lon="-78.785225">
        <ele>3327.00</ele>
        <time>2018-09-08T23:10:21Z</time>
      </trkpt>
      <trkpt lat="-2.691313" lon="-78.785362">
        <ele>3326.00</ele>
        <time>2018-09-08T23:10:22Z</time>
      </trkpt>
      <trkpt lat="-2.691391" lon="-78.785500">
        <ele>3323.00</ele>
        <time>2018-09-08T23:10:23Z</time>
      </trkpt>
      <trkpt lat="-2.691466" lon="-78.785645">
        <ele>3321.00</ele>
        <time>2018-09-08T23:10:24Z</time>
      </trkpt>
      <trkpt lat="-2.691555" lon="-78.785767">
        <ele>3319.00</ele>
        <time>2018-09-08T23:10:25Z</time>
      </trkpt>
      <trkpt lat="-2.691674" lon="-78.785881">
        <ele>3316.00</ele>
        <time>2018-09-08T23:10:26Z</time>
      </trkpt>
      <trkpt lat="-2.691797" lon="-78.785988">
        <ele>3312.00</ele>
        <time>2018-09-08T23:10:27Z</time>
      </trkpt>
      <trkpt lat="-2.691897" lon="-78.786072">
        <ele>3310.00</ele>
        <time>2018-09-08T23:10:28Z</time>
      </trkpt>
      <trkpt lat="-2.691987" lon="-78.786140">
        <ele>3308.00</ele>
        <time>2018-09-08T23:10:29Z</time>
      </trkpt>
      <trkpt lat="-2.692096" lon="-78.786179">
        <ele>3306.00</ele>
        <time>2018-09-08T23:10:30Z</time>
      </trkpt>
      <trkpt lat="-2.692223" lon="-78.786179">
        <ele>3304.00</ele>
        <time>2018-09-08T23:10:31Z</time>
      </trkpt>
      <trkpt lat="-2.692362" lon="-78.786163">
        <ele>3303.00</ele>
        <time>2018-09-08T23:10:32Z</time>
      </trkpt>
      <trkpt lat="-2.692506" lon="-78.786125">
        <ele>3302.00</ele>
        <time>2018-09-08T23:10:33Z</time>
      </trkpt>
      <trkpt lat="-2.692651" lon="-78.786087">
        <ele>3301.00</ele>
        <time>2018-09-08T23:10:34Z</time>
      </trkpt>
      <trkpt lat="-2.692799" lon="-78.786034">
        <ele>3300.00</ele>
        <time>2018-09-08T23:10:35Z</time>
      </trkpt>
      <trkpt lat="-2.692958" lon="-78.785973">
        <ele>3299.00</ele>
        <time>2018-09-08T23:10:36Z</time>
      </trkpt>
      <trkpt lat="-2.693112" lon="-78.785873">
        <ele>3298.00</ele>
        <time>2018-09-08T23:10:37Z</time>
      </trkpt>
      <trkpt lat="-2.693272" lon="-78.785767">
        <ele>3297.00</ele>
        <time>2018-09-08T23:10:38Z</time>
      </trkpt>
      <trkpt lat="-2.693433" lon="-78.785660">
        <ele>3295.00</ele>
        <time>2018-09-08T23:10:39Z</time>
      </trkpt>
      <trkpt lat="-2.693582" lon="-78.785568">
        <ele>3294.00</ele>
        <time>2018-09-08T23:10:40Z</time>
      </trkpt>
      <trkpt lat="-2.693726" lon="-78.785484">
        <ele>3293.00</ele>
        <time>2018-09-08T23:10:41Z</time>
      </trkpt>
      <trkpt lat="-2.693879" lon="-78.785431">
        <ele>3291.00</ele>
        <time>2018-09-08T23:10:42Z</time>
      </trkpt>
      <trkpt lat="-2.694036" lon="-78.785393">
        <ele>3290.00</ele>
        <time>2018-09-08T23:10:43Z</time>
      </trkpt>
      <trkpt lat="-2.694196" lon="-78.785393">
        <ele>3289.00</ele>
        <time>2018-09-08T23:10:44Z</time>
      </trkpt>
      <trkpt lat="-2.694344" lon="-78.785416">
        <ele>3289.00</ele>
        <time>2018-09-08T23:10:45Z</time>
      </trkpt>
      <trkpt lat="-2.694510" lon="-78.785439">
        <ele>3287.00</ele>
        <time>2018-09-08T23:10:46Z</time>
      </trkpt>
      <trkpt lat="-2.694670" lon="-78.785446">
        <ele>3284.00</ele>
        <time>2018-09-08T23:10:47Z</time>
      </trkpt>
      <trkpt lat="-2.694830" lon="-78.785423">
        <ele>3282.00</ele>
        <time>2018-09-08T23:10:48Z</time>
      </trkpt>
      <trkpt lat="-2.694998" lon="-78.785378">
        <ele>3280.00</ele>
        <time>2018-09-08T23:10:49Z</time>
      </trkpt>
      <trkpt lat="-2.695155" lon="-78.785316">
        <ele>3278.00</ele>
        <time>2018-09-08T23:10:50Z</time>
      </trkpt>
      <trkpt lat="-2.695290" lon="-78.785225">
        <ele>3277.00</ele>
        <time>2018-09-08T23:10:51Z</time>
      </trkpt>
      <trkpt lat="-2.695402" lon="-78.785126">
        <ele>3275.00</ele>
        <time>2018-09-08T23:10:52Z</time>
      </trkpt>
      <trkpt lat="-2.695498" lon="-78.785042">
        <ele>3274.00</ele>
        <time>2018-09-08T23:10:53Z</time>
      </trkpt>
      <trkpt lat="-2.695584" lon="-78.784966">
        <ele>3273.00</ele>
        <time>2018-09-08T23:10:54Z</time>
      </trkpt>
      <trkpt lat="-2.695680" lon="-78.784935">
        <ele>3273.00</ele>
        <time>2018-09-08T23:10:55Z</time>
      </trkpt>
      <trkpt lat="-2.695789" lon="-78.784950">
        <ele>3272.00</ele>
        <time>2018-09-08T23:10:56Z</time>
      </trkpt>
      <trkpt lat="-2.695896" lon="-78.784981">
        <ele>3271.00</ele>
        <time>2018-09-08T23:10:57Z</time>
      </trkpt>
      <trkpt lat="-2.695990" lon="-78.785057">
        <ele>3271.00</ele>
        <time>2018-09-08T23:10:58Z</time>
      </trkpt>
      <trkpt lat="-2.696076" lon="-78.785172">
        <ele>3270.00</ele>
        <time>2018-09-08T23:10:59Z</time>
      </trkpt>
      <trkpt lat="-2.696176" lon="-78.785278">
        <ele>3269.00</ele>
        <time>2018-09-08T23:11:00Z</time>
      </trkpt>
      <trkpt lat="-2.696274" lon="-78.785408">
        <ele>3269.00</ele>
        <time>2018-09-08T23:11:01Z</time>
      </trkpt>
      <trkpt lat="-2.696349" lon="-78.785545">
        <ele>3268.00</ele>
        <time>2018-09-08T23:11:02Z</time>
      </trkpt>
      <trkpt lat="-2.696381" lon="-78.785706">
        <ele>3267.00</ele>
        <time>2018-09-08T23:11:03Z</time>
      </trkpt>
      <trkpt lat="-2.696388" lon="-78.785866">
        <ele>3267.00</ele>
        <time>2018-09-08T23:11:04Z</time>
      </trkpt>
      <trkpt lat="-2.696365" lon="-78.786057">
        <ele>3266.00</ele>
        <time>2018-09-08T23:11:05Z</time>
      </trkpt>
      <trkpt lat="-2.696346" lon="-78.786247">
        <ele>3266.00</ele>
        <time>2018-09-08T23:11:06Z</time>
      </trkpt>
      <trkpt lat="-2.696329" lon="-78.786438">
        <ele>3266.00</ele>
        <time>2018-09-08T23:11:07Z</time>
      </trkpt>
      <trkpt lat="-2.696315" lon="-78.786613">
        <ele>3265.00</ele>
        <time>2018-09-08T23:11:08Z</time>
      </trkpt>
      <trkpt lat="-2.696301" lon="-78.786774">
        <ele>3265.00</ele>
        <time>2018-09-08T23:11:09Z</time>
      </trkpt>
      <trkpt lat="-2.696282" lon="-78.786903">
        <ele>3265.00</ele>
        <time>2018-09-08T23:11:10Z</time>
      </trkpt>
      <trkpt lat="-2.696272" lon="-78.787041">
        <ele>3264.00</ele>
        <time>2018-09-08T23:11:11Z</time>
      </trkpt>
      <trkpt lat="-2.696305" lon="-78.787155">
        <ele>3264.00</ele>
        <time>2018-09-08T23:11:12Z</time>
      </trkpt>
      <trkpt lat="-2.696375" lon="-78.787247">
        <ele>3264.00</ele>
        <time>2018-09-08T23:11:13Z</time>
      </trkpt>
      <trkpt lat="-2.696468" lon="-78.787323">
        <ele>3263.00</ele>
        <time>2018-09-08T23:11:14Z</time>
      </trkpt>
      <trkpt lat="-2.696573" lon="-78.787407">
        <ele>3263.00</ele>
        <time>2018-09-08T23:11:15Z</time>
      </trkpt>
      <trkpt lat="-2.696689" lon="-78.787483">
        <ele>3263.00</ele>
        <time>2018-09-08T23:11:16Z</time>
      </trkpt>
      <trkpt lat="-2.696810" lon="-78.787552">
        <ele>3262.00</ele>
        <time>2018-09-08T23:11:17Z</time>
      </trkpt>
      <trkpt lat="-2.696935" lon="-78.787598">
        <ele>3262.00</ele>
        <time>2018-09-08T23:11:18Z</time>
      </trkpt>
      <trkpt lat="-2.697075" lon="-78.787605">
        <ele>3262.00</ele>
        <time>2018-09-08T23:11:19Z</time>
      </trkpt>
      <trkpt lat="-2.697236" lon="-78.787567">
        <ele>3262.00</ele>
        <time>2018-09-08T23:11:20Z</time>
      </trkpt>
      <trkpt lat="-2.697401" lon="-78.787498">
        <ele>3261.00</ele>
        <time>2018-09-08T23:11:21Z</time>
      </trkpt>
      <trkpt lat="-2.697562" lon="-78.787415">
        <ele>3261.00</ele>
        <time>2018-09-08T23:11:22Z</time>
      </trkpt>
      <trkpt lat="-2.697731" lon="-78.787323">
        <ele>3260.00</ele>
        <time>2018-09-08T23:11:23Z</time>
      </trkpt>
      <trkpt lat="-2.697901" lon="-78.787239">
        <ele>3260.00</ele>
        <time>2018-09-08T23:11:24Z</time>
      </trkpt>
      <trkpt lat="-2.698077" lon="-78.787148">
        <ele>3259.00</ele>
        <time>2018-09-08T23:11:25Z</time>
      </trkpt>
      <trkpt lat="-2.698254" lon="-78.787056">
        <ele>3258.00</ele>
        <time>2018-09-08T23:11:26Z</time>
      </trkpt>
      <trkpt lat="-2.698436" lon="-78.786972">
        <ele>3258.00</ele>
        <time>2018-09-08T23:11:27Z</time>
      </trkpt>
      <trkpt lat="-2.698622" lon="-78.786873">
        <ele>3257.00</ele>
        <time>2018-09-08T23:11:28Z</time>
      </trkpt>
      <trkpt lat="-2.698805" lon="-78.786781">
        <ele>3256.00</ele>
        <time>2018-09-08T23:11:29Z</time>
      </trkpt>
      <trkpt lat="-2.698968" lon="-78.786690">
        <ele>3256.00</ele>
        <time>2018-09-08T23:11:30Z</time>
      </trkpt>
      <trkpt lat="-2.699105" lon="-78.786621">
        <ele>3255.00</ele>
        <time>2018-09-08T23:11:31Z</time>
      </trkpt>
      <trkpt lat="-2.699219" lon="-78.786568">
        <ele>3255.00</ele>
        <time>2018-09-08T23:11:32Z</time>
      </trkpt>
      <trkpt lat="-2.699317" lon="-78.786522">
        <ele>3255.00</ele>
        <time>2018-09-08T23:11:33Z</time>
      </trkpt>
      <trkpt lat="-2.699417" lon="-78.786507">
        <ele>3254.00</ele>
        <time>2018-09-08T23:11:34Z</time>
      </trkpt>
      <trkpt lat="-2.699515" lon="-78.786552">
        <ele>3254.00</ele>
        <time>2018-09-08T23:11:35Z</time>
      </trkpt>
      <trkpt lat="-2.699605" lon="-78.786629">
        <ele>3255.00</ele>
        <time>2018-09-08T23:11:36Z</time>
      </trkpt>
      <trkpt lat="-2.699674" lon="-78.786713">
        <ele>3255.00</ele>
        <time>2018-09-08T23:11:37Z</time>
      </trkpt>
      <trkpt lat="-2.699728" lon="-78.786827">
        <ele>3255.00</ele>
        <time>2018-09-08T23:11:38Z</time>
      </trkpt>
      <trkpt lat="-2.699768" lon="-78.786957">
        <ele>3255.00</ele>
        <time>2018-09-08T23:11:39Z</time>
      </trkpt>
      <trkpt lat="-2.699836" lon="-78.787079">
        <ele>3255.00</ele>
        <time>2018-09-08T23:11:40Z</time>
      </trkpt>
      <trkpt lat="-2.699865" lon="-78.787209">
        <ele>3255.00</ele>
        <time>2018-09-08T23:11:41Z</time>
      </trkpt>
      <trkpt lat="-2.699927" lon="-78.787346">
        <ele>3255.00</ele>
        <time>2018-09-08T23:11:42Z</time>
      </trkpt>
      <trkpt lat="-2.700011" lon="-78.787468">
        <ele>3254.00</ele>
        <time>2018-09-08T23:11:43Z</time>
      </trkpt>
      <trkpt lat="-2.700109" lon="-78.787590">
        <ele>3254.00</ele>
        <time>2018-09-08T23:11:44Z</time>
      </trkpt>
      <trkpt lat="-2.700238" lon="-78.787697">
        <ele>3254.00</ele>
        <time>2018-09-08T23:11:45Z</time>
      </trkpt>
      <trkpt lat="-2.700359" lon="-78.787834">
        <ele>3254.00</ele>
        <time>2018-09-08T23:11:46Z</time>
      </trkpt>
      <trkpt lat="-2.700465" lon="-78.787956">
        <ele>3253.00</ele>
        <time>2018-09-08T23:11:47Z</time>
      </trkpt>
      <trkpt lat="-2.700543" lon="-78.788086">
        <ele>3253.00</ele>
        <time>2018-09-08T23:11:48Z</time>
      </trkpt>
      <trkpt lat="-2.700587" lon="-78.788223">
        <ele>3253.00</ele>
        <time>2018-09-08T23:11:49Z</time>
      </trkpt>
      <trkpt lat="-2.700618" lon="-78.788391">
        <ele>3253.00</ele>
        <time>2018-09-08T23:11:50Z</time>
      </trkpt>
      <trkpt lat="-2.700645" lon="-78.788536">
        <ele>3252.00</ele>
        <time>2018-09-08T23:11:51Z</time>
      </trkpt>
      <trkpt lat="-2.700665" lon="-78.788696">
        <ele>3252.00</ele>
        <time>2018-09-08T23:11:52Z</time>
      </trkpt>
      <trkpt lat="-2.700679" lon="-78.788857">
        <ele>3252.00</ele>
        <time>2018-09-08T23:11:53Z</time>
      </trkpt>
      <trkpt lat="-2.700689" lon="-78.788979">
        <ele>3251.00</ele>
        <time>2018-09-08T23:11:54Z</time>
      </trkpt>
      <trkpt lat="-2.700702" lon="-78.789108">
        <ele>3251.00</ele>
        <time>2018-09-08T23:11:55Z</time>
      </trkpt>
      <trkpt lat="-2.700730" lon="-78.789238">
        <ele>3250.00</ele>
        <time>2018-09-08T23:11:56Z</time>
      </trkpt>
      <trkpt lat="-2.700783" lon="-78.789330">
        <ele>3250.00</ele>
        <time>2018-09-08T23:11:57Z</time>
      </trkpt>
      <trkpt lat="-2.700838" lon="-78.789406">
        <ele>3249.00</ele>
        <time>2018-09-08T23:11:58Z</time>
      </trkpt>
      <trkpt lat="-2.700936" lon="-78.789482">
        <ele>3248.00</ele>
        <time>2018-09-08T23:11:59Z</time>
      </trkpt>
      <trkpt lat="-2.701040" lon="-78.789566">
        <ele>3247.00</ele>
        <time>2018-09-08T23:12:00Z</time>
      </trkpt>
      <trkpt lat="-2.701156" lon="-78.789650">
        <ele>3247.00</ele>
        <time>2018-09-08T23:12:01Z</time>
      </trkpt>
      <trkpt lat="-2.701254" lon="-78.789749">
        <ele>3246.00</ele>
        <time>2018-09-08T23:12:02Z</time>
      </trkpt>
      <trkpt lat="-2.701287" lon="-78.789879">
        <ele>3245.00</ele>
        <time>2018-09-08T23:12:03Z</time>
      </trkpt>
      <trkpt lat="-2.701300" lon="-78.790024">
        <ele>3247.00</ele>
        <time>2018-09-08T23:12:04Z</time>
      </trkpt>
      <trkpt lat="-2.701293" lon="-78.790176">
        <ele>3250.00</ele>
        <time>2018-09-08T23:12:05Z</time>
      </trkpt>
      <trkpt lat="-2.701303" lon="-78.790321">
        <ele>3252.00</ele>
        <time>2018-09-08T23:12:06Z</time>
      </trkpt>
      <trkpt lat="-2.701343" lon="-78.790459">
        <ele>3254.00</ele>
        <time>2018-09-08T23:12:07Z</time>
      </trkpt>
      <trkpt lat="-2.701428" lon="-78.790596">
        <ele>3254.00</ele>
        <time>2018-09-08T23:12:08Z</time>
      </trkpt>
      <trkpt lat="-2.701549" lon="-78.790695">
        <ele>3255.00</ele>
        <time>2018-09-08T23:12:09Z</time>
      </trkpt>
      <trkpt lat="-2.701673" lon="-78.790802">
        <ele>3255.00</ele>
        <time>2018-09-08T23:12:10Z</time>
      </trkpt>
      <trkpt lat="-2.701800" lon="-78.790916">
        <ele>3255.00</ele>
        <time>2018-09-08T23:12:11Z</time>
      </trkpt>
      <trkpt lat="-2.701926" lon="-78.791023">
        <ele>3255.00</ele>
        <time>2018-09-08T23:12:12Z</time>
      </trkpt>
      <trkpt lat="-2.702041" lon="-78.791130">
        <ele>3254.00</ele>
        <time>2018-09-08T23:12:13Z</time>
      </trkpt>
      <trkpt lat="-2.702141" lon="-78.791206">
        <ele>3253.00</ele>
        <time>2018-09-08T23:12:14Z</time>
      </trkpt>
      <trkpt lat="-2.702216" lon="-78.791267">
        <ele>3252.00</ele>
        <time>2018-09-08T23:12:15Z</time>
      </trkpt>
      <trkpt lat="-2.702272" lon="-78.791321">
        <ele>3251.00</ele>
        <time>2018-09-08T23:12:16Z</time>
      </trkpt>
      <trkpt lat="-2.702307" lon="-78.791367">
        <ele>3250.00</ele>
        <time>2018-09-08T23:12:17Z</time>
      </trkpt>
      <trkpt lat="-2.702326" lon="-78.791397">
        <ele>3250.00</ele>
        <time>2018-09-08T23:12:18Z</time>
      </trkpt>
      <trkpt lat="-2.702330" lon="-78.791412">
        <ele>3250.00</ele>
        <time>2018-09-08T23:12:19Z</time>
      </trkpt>
      <trkpt lat="-2.702336" lon="-78.791443">
        <ele>3250.00</ele>
        <time>2018-09-08T23:12:20Z</time>
      </trkpt>
      <trkpt lat="-2.702336" lon="-78.791443">
        <ele>3249.00</ele>
        <time>2018-09-08T23:12:21Z</time>
      </trkpt>
      <trkpt lat="-2.702336" lon="-78.791443">
        <ele>3249.00</ele>
        <time>2018-09-08T23:12:22Z</time>
      </trkpt>
      <trkpt lat="-2.702336" lon="-78.791443">
        <ele>3249.00</ele>
        <time>2018-09-08T23:12:23Z</time>
      </trkpt>
      <trkpt lat="-2.702336" lon="-78.791443">
        <ele>3248.00</ele>
        <time>2018-09-08T23:12:24Z</time>
      </trkpt>
      <trkpt lat="-2.702335" lon="-78.791451">
        <ele>3248.00</ele>
        <time>2018-09-08T23:12:25Z</time>
      </trkpt>
      <trkpt lat="-2.702349" lon="-78.791496">
        <ele>3242.00</ele>
        <time>2018-09-08T23:12:26Z</time>
      </trkpt>
      <trkpt lat="-2.702390" lon="-78.791565">
        <ele>3237.00</ele>
        <time>2018-09-08T23:12:27Z</time>
      </trkpt>
      <trkpt lat="-2.702450" lon="-78.791672">
        <ele>3233.00</ele>
        <time>2018-09-08T23:12:28Z</time>
      </trkpt>
      <trkpt lat="-2.702514" lon="-78.791786">
        <ele>3230.00</ele>
        <time>2018-09-08T23:12:29Z</time>
      </trkpt>
      <trkpt lat="-2.702577" lon="-78.791931">
        <ele>3227.00</ele>
        <time>2018-09-08T23:12:30Z</time>
      </trkpt>
      <trkpt lat="-2.702631" lon="-78.792068">
        <ele>3225.00</ele>
        <time>2018-09-08T23:12:31Z</time>
      </trkpt>
      <trkpt lat="-2.702685" lon="-78.792221">
        <ele>3223.00</ele>
        <time>2018-09-08T23:12:32Z</time>
      </trkpt>
      <trkpt lat="-2.702750" lon="-78.792374">
        <ele>3221.00</ele>
        <time>2018-09-08T23:12:33Z</time>
      </trkpt>
      <trkpt lat="-2.702817" lon="-78.792526">
        <ele>3220.00</ele>
        <time>2018-09-08T23:12:34Z</time>
      </trkpt>
      <trkpt lat="-2.702881" lon="-78.792679">
        <ele>3219.00</ele>
        <time>2018-09-08T23:12:35Z</time>
      </trkpt>
      <trkpt lat="-2.702939" lon="-78.792847">
        <ele>3217.00</ele>
        <time>2018-09-08T23:12:36Z</time>
      </trkpt>
      <trkpt lat="-2.702976" lon="-78.793037">
        <ele>3216.00</ele>
        <time>2018-09-08T23:12:37Z</time>
      </trkpt>
      <trkpt lat="-2.703012" lon="-78.793243">
        <ele>3215.00</ele>
        <time>2018-09-08T23:12:38Z</time>
      </trkpt>
      <trkpt lat="-2.703046" lon="-78.793434">
        <ele>3213.00</ele>
        <time>2018-09-08T23:12:39Z</time>
      </trkpt>
      <trkpt lat="-2.703087" lon="-78.793594">
        <ele>3212.00</ele>
        <time>2018-09-08T23:12:40Z</time>
      </trkpt>
      <trkpt lat="-2.703130" lon="-78.793732">
        <ele>3211.00</ele>
        <time>2018-09-08T23:12:41Z</time>
      </trkpt>
      <trkpt lat="-2.703133" lon="-78.793884">
        <ele>3209.00</ele>
        <time>2018-09-08T23:12:42Z</time>
      </trkpt>
      <trkpt lat="-2.703136" lon="-78.794052">
        <ele>3208.00</ele>
        <time>2018-09-08T23:12:43Z</time>
      </trkpt>
      <trkpt lat="-2.703137" lon="-78.794228">
        <ele>3207.00</ele>
        <time>2018-09-08T23:12:44Z</time>
      </trkpt>
      <trkpt lat="-2.703137" lon="-78.794411">
        <ele>3205.00</ele>
        <time>2018-09-08T23:12:45Z</time>
      </trkpt>
      <trkpt lat="-2.703155" lon="-78.794579">
        <ele>3204.00</ele>
        <time>2018-09-08T23:12:46Z</time>
      </trkpt>
      <trkpt lat="-2.703172" lon="-78.794739">
        <ele>3203.00</ele>
        <time>2018-09-08T23:12:47Z</time>
      </trkpt>
      <trkpt lat="-2.703178" lon="-78.794891">
        <ele>3201.00</ele>
        <time>2018-09-08T23:12:48Z</time>
      </trkpt>
      <trkpt lat="-2.703164" lon="-78.795029">
        <ele>3200.00</ele>
        <time>2018-09-08T23:12:49Z</time>
      </trkpt>
      <trkpt lat="-2.703145" lon="-78.795166">
        <ele>3199.00</ele>
        <time>2018-09-08T23:12:50Z</time>
      </trkpt>
      <trkpt lat="-2.703134" lon="-78.795296">
        <ele>3198.00</ele>
        <time>2018-09-08T23:12:51Z</time>
      </trkpt>
      <trkpt lat="-2.703139" lon="-78.795441">
        <ele>3197.00</ele>
        <time>2018-09-08T23:12:52Z</time>
      </trkpt>
      <trkpt lat="-2.703138" lon="-78.795593">
        <ele>3196.00</ele>
        <time>2018-09-08T23:12:53Z</time>
      </trkpt>
      <trkpt lat="-2.703126" lon="-78.795753">
        <ele>3195.00</ele>
        <time>2018-09-08T23:12:54Z</time>
      </trkpt>
      <trkpt lat="-2.703103" lon="-78.795891">
        <ele>3194.00</ele>
        <time>2018-09-08T23:12:55Z</time>
      </trkpt>
      <trkpt lat="-2.703059" lon="-78.796036">
        <ele>3194.00</ele>
        <time>2018-09-08T23:12:56Z</time>
      </trkpt>
      <trkpt lat="-2.703007" lon="-78.796165">
        <ele>3193.00</ele>
        <time>2018-09-08T23:12:57Z</time>
      </trkpt>
      <trkpt lat="-2.702938" lon="-78.796295">
        <ele>3192.00</ele>
        <time>2018-09-08T23:12:58Z</time>
      </trkpt>
      <trkpt lat="-2.702853" lon="-78.796417">
        <ele>3191.00</ele>
        <time>2018-09-08T23:12:59Z</time>
      </trkpt>
      <trkpt lat="-2.702765" lon="-78.796555">
        <ele>3189.00</ele>
        <time>2018-09-08T23:13:00Z</time>
      </trkpt>
      <trkpt lat="-2.702669" lon="-78.796661">
        <ele>3188.00</ele>
        <time>2018-09-08T23:13:01Z</time>
      </trkpt>
      <trkpt lat="-2.702569" lon="-78.796776">
        <ele>3187.00</ele>
        <time>2018-09-08T23:13:02Z</time>
      </trkpt>
      <trkpt lat="-2.702461" lon="-78.796860">
        <ele>3186.00</ele>
        <time>2018-09-08T23:13:03Z</time>
      </trkpt>
      <trkpt lat="-2.702339" lon="-78.796944">
        <ele>3185.00</ele>
        <time>2018-09-08T23:13:04Z</time>
      </trkpt>
      <trkpt lat="-2.702201" lon="-78.797005">
        <ele>3184.00</ele>
        <time>2018-09-08T23:13:05Z</time>
      </trkpt>
      <trkpt lat="-2.702068" lon="-78.797066">
        <ele>3183.00</ele>
        <time>2018-09-08T23:13:06Z</time>
      </trkpt>
      <trkpt lat="-2.701944" lon="-78.797112">
        <ele>3182.00</ele>
        <time>2018-09-08T23:13:07Z</time>
      </trkpt>
      <trkpt lat="-2.701828" lon="-78.797127">
        <ele>3181.00</ele>
        <time>2018-09-08T23:13:08Z</time>
      </trkpt>
      <trkpt lat="-2.701736" lon="-78.797127">
        <ele>3181.00</ele>
        <time>2018-09-08T23:13:09Z</time>
      </trkpt>
      <trkpt lat="-2.701666" lon="-78.797134">
        <ele>3180.00</ele>
        <time>2018-09-08T23:13:10Z</time>
      </trkpt>
      <trkpt lat="-2.701606" lon="-78.797180">
        <ele>3179.00</ele>
        <time>2018-09-08T23:13:11Z</time>
      </trkpt>
      <trkpt lat="-2.701567" lon="-78.797272">
        <ele>3179.00</ele>
        <time>2018-09-08T23:13:12Z</time>
      </trkpt>
      <trkpt lat="-2.701545" lon="-78.797394">
        <ele>3178.00</ele>
        <time>2018-09-08T23:13:13Z</time>
      </trkpt>
      <trkpt lat="-2.701512" lon="-78.797523">
        <ele>3177.00</ele>
        <time>2018-09-08T23:13:14Z</time>
      </trkpt>
      <trkpt lat="-2.701465" lon="-78.797653">
        <ele>3176.00</ele>
        <time>2018-09-08T23:13:15Z</time>
      </trkpt>
      <trkpt lat="-2.701404" lon="-78.797783">
        <ele>3175.00</ele>
        <time>2018-09-08T23:13:16Z</time>
      </trkpt>
      <trkpt lat="-2.701329" lon="-78.797935">
        <ele>3174.00</ele>
        <time>2018-09-08T23:13:17Z</time>
      </trkpt>
      <trkpt lat="-2.701248" lon="-78.798080">
        <ele>3173.00</ele>
        <time>2018-09-08T23:13:18Z</time>
      </trkpt>
      <trkpt lat="-2.701157" lon="-78.798210">
        <ele>3172.00</ele>
        <time>2018-09-08T23:13:19Z</time>
      </trkpt>
      <trkpt lat="-2.701075" lon="-78.798332">
        <ele>3171.00</ele>
        <time>2018-09-08T23:13:20Z</time>
      </trkpt>
      <trkpt lat="-2.701005" lon="-78.798454">
        <ele>3170.00</ele>
        <time>2018-09-08T23:13:21Z</time>
      </trkpt>
      <trkpt lat="-2.700955" lon="-78.798599">
        <ele>3169.00</ele>
        <time>2018-09-08T23:13:22Z</time>
      </trkpt>
      <trkpt lat="-2.700918" lon="-78.798744">
        <ele>3167.00</ele>
        <time>2018-09-08T23:13:23Z</time>
      </trkpt>
      <trkpt lat="-2.700876" lon="-78.798897">
        <ele>3166.00</ele>
        <time>2018-09-08T23:13:24Z</time>
      </trkpt>
      <trkpt lat="-2.700836" lon="-78.799065">
        <ele>3164.00</ele>
        <time>2018-09-08T23:13:25Z</time>
      </trkpt>
      <trkpt lat="-2.700809" lon="-78.799248">
        <ele>3162.00</ele>
        <time>2018-09-08T23:13:26Z</time>
      </trkpt>
      <trkpt lat="-2.700806" lon="-78.799416">
        <ele>3161.00</ele>
        <time>2018-09-08T23:13:27Z</time>
      </trkpt>
      <trkpt lat="-2.700810" lon="-78.799576">
        <ele>3159.00</ele>
        <time>2018-09-08T23:13:28Z</time>
      </trkpt>
      <trkpt lat="-2.700814" lon="-78.799721">
        <ele>3158.00</ele>
        <time>2018-09-08T23:13:29Z</time>
      </trkpt>
      <trkpt lat="-2.700811" lon="-78.799866">
        <ele>3157.00</ele>
        <time>2018-09-08T23:13:30Z</time>
      </trkpt>
      <trkpt lat="-2.700820" lon="-78.800018">
        <ele>3155.00</ele>
        <time>2018-09-08T23:13:31Z</time>
      </trkpt>
      <trkpt lat="-2.700845" lon="-78.800179">
        <ele>3154.00</ele>
        <time>2018-09-08T23:13:32Z</time>
      </trkpt>
      <trkpt lat="-2.700897" lon="-78.800331">
        <ele>3153.00</ele>
        <time>2018-09-08T23:13:33Z</time>
      </trkpt>
      <trkpt lat="-2.700971" lon="-78.800491">
        <ele>3152.00</ele>
        <time>2018-09-08T23:13:34Z</time>
      </trkpt>
      <trkpt lat="-2.701046" lon="-78.800636">
        <ele>3151.00</ele>
        <time>2018-09-08T23:13:35Z</time>
      </trkpt>
      <trkpt lat="-2.701126" lon="-78.800766">
        <ele>3150.00</ele>
        <time>2018-09-08T23:13:36Z</time>
      </trkpt>
      <trkpt lat="-2.701238" lon="-78.800896">
        <ele>3150.00</ele>
        <time>2018-09-08T23:13:37Z</time>
      </trkpt>
      <trkpt lat="-2.701349" lon="-78.801010">
        <ele>3149.00</ele>
        <time>2018-09-08T23:13:38Z</time>
      </trkpt>
      <trkpt lat="-2.701469" lon="-78.801109">
        <ele>3149.00</ele>
        <time>2018-09-08T23:13:39Z</time>
      </trkpt>
      <trkpt lat="-2.701593" lon="-78.801201">
        <ele>3149.00</ele>
        <time>2018-09-08T23:13:40Z</time>
      </trkpt>
      <trkpt lat="-2.701713" lon="-78.801270">
        <ele>3149.00</ele>
        <time>2018-09-08T23:13:41Z</time>
      </trkpt>
      <trkpt lat="-2.701816" lon="-78.801346">
        <ele>3149.00</ele>
        <time>2018-09-08T23:13:42Z</time>
      </trkpt>
      <trkpt lat="-2.701903" lon="-78.801430">
        <ele>3149.00</ele>
        <time>2018-09-08T23:13:43Z</time>
      </trkpt>
      <trkpt lat="-2.701958" lon="-78.801537">
        <ele>3149.00</ele>
        <time>2018-09-08T23:13:44Z</time>
      </trkpt>
      <trkpt lat="-2.701963" lon="-78.801651">
        <ele>3149.00</ele>
        <time>2018-09-08T23:13:45Z</time>
      </trkpt>
      <trkpt lat="-2.701942" lon="-78.801788">
        <ele>3149.00</ele>
        <time>2018-09-08T23:13:46Z</time>
      </trkpt>
      <trkpt lat="-2.701920" lon="-78.801926">
        <ele>3149.00</ele>
        <time>2018-09-08T23:13:47Z</time>
      </trkpt>
      <trkpt lat="-2.701905" lon="-78.802078">
        <ele>3148.00</ele>
        <time>2018-09-08T23:13:48Z</time>
      </trkpt>
      <trkpt lat="-2.701897" lon="-78.802238">
        <ele>3148.00</ele>
        <time>2018-09-08T23:13:49Z</time>
      </trkpt>
      <trkpt lat="-2.701887" lon="-78.802383">
        <ele>3148.00</ele>
        <time>2018-09-08T23:13:50Z</time>
      </trkpt>
      <trkpt lat="-2.701870" lon="-78.802536">
        <ele>3148.00</ele>
        <time>2018-09-08T23:13:51Z</time>
      </trkpt>
      <trkpt lat="-2.701843" lon="-78.802673">
        <ele>3147.00</ele>
        <time>2018-09-08T23:13:52Z</time>
      </trkpt>
      <trkpt lat="-2.701814" lon="-78.802834">
        <ele>3147.00</ele>
        <time>2018-09-08T23:13:53Z</time>
      </trkpt>
      <trkpt lat="-2.701783" lon="-78.802994">
        <ele>3147.00</ele>
        <time>2018-09-08T23:13:54Z</time>
      </trkpt>
      <trkpt lat="-2.701757" lon="-78.803131">
        <ele>3147.00</ele>
        <time>2018-09-08T23:13:55Z</time>
      </trkpt>
      <trkpt lat="-2.701708" lon="-78.803238">
        <ele>3147.00</ele>
        <time>2018-09-08T23:13:56Z</time>
      </trkpt>
      <trkpt lat="-2.701640" lon="-78.803322">
        <ele>3147.00</ele>
        <time>2018-09-08T23:13:57Z</time>
      </trkpt>
      <trkpt lat="-2.701540" lon="-78.803398">
        <ele>3146.00</ele>
        <time>2018-09-08T23:13:58Z</time>
      </trkpt>
      <trkpt lat="-2.701459" lon="-78.803467">
        <ele>3146.00</ele>
        <time>2018-09-08T23:13:59Z</time>
      </trkpt>
      <trkpt lat="-2.701399" lon="-78.803535">
        <ele>3146.00</ele>
        <time>2018-09-08T23:14:00Z</time>
      </trkpt>
      <trkpt lat="-2.701378" lon="-78.803627">
        <ele>3146.00</ele>
        <time>2018-09-08T23:14:01Z</time>
      </trkpt>
      <trkpt lat="-2.701355" lon="-78.803726">
        <ele>3145.00</ele>
        <time>2018-09-08T23:14:02Z</time>
      </trkpt>
      <trkpt lat="-2.701337" lon="-78.803825">
        <ele>3145.00</ele>
        <time>2018-09-08T23:14:03Z</time>
      </trkpt>
      <trkpt lat="-2.701408" lon="-78.803932">
        <ele>3145.00</ele>
        <time>2018-09-08T23:14:04Z</time>
      </trkpt>
      <trkpt lat="-2.701456" lon="-78.804054">
        <ele>3145.00</ele>
        <time>2018-09-08T23:14:05Z</time>
      </trkpt>
      <trkpt lat="-2.701498" lon="-78.804176">
        <ele>3145.00</ele>
        <time>2018-09-08T23:14:06Z</time>
      </trkpt>
      <trkpt lat="-2.701519" lon="-78.804306">
        <ele>3144.00</ele>
        <time>2018-09-08T23:14:07Z</time>
      </trkpt>
      <trkpt lat="-2.701507" lon="-78.804420">
        <ele>3144.00</ele>
        <time>2018-09-08T23:14:08Z</time>
      </trkpt>
      <trkpt lat="-2.701478" lon="-78.804527">
        <ele>3144.00</ele>
        <time>2018-09-08T23:14:09Z</time>
      </trkpt>
      <trkpt lat="-2.701441" lon="-78.804634">
        <ele>3144.00</ele>
        <time>2018-09-08T23:14:10Z</time>
      </trkpt>
      <trkpt lat="-2.701429" lon="-78.804756">
        <ele>3144.00</ele>
        <time>2018-09-08T23:14:11Z</time>
      </trkpt>
      <trkpt lat="-2.701407" lon="-78.804878">
        <ele>3143.00</ele>
        <time>2018-09-08T23:14:12Z</time>
      </trkpt>
      <trkpt lat="-2.701379" lon="-78.804985">
        <ele>3143.00</ele>
        <time>2018-09-08T23:14:13Z</time>
      </trkpt>
      <trkpt lat="-2.701356" lon="-78.805099">
        <ele>3143.00</ele>
        <time>2018-09-08T23:14:14Z</time>
      </trkpt>
      <trkpt lat="-2.701357" lon="-78.805222">
        <ele>3142.00</ele>
        <time>2018-09-08T23:14:15Z</time>
      </trkpt>
      <trkpt lat="-2.701385" lon="-78.805321">
        <ele>3144.00</ele>
        <time>2018-09-08T23:14:16Z</time>
      </trkpt>
      <trkpt lat="-2.701449" lon="-78.805412">
        <ele>3145.00</ele>
        <time>2018-09-08T23:14:17Z</time>
      </trkpt>
      <trkpt lat="-2.701545" lon="-78.805496">
        <ele>3146.00</ele>
        <time>2018-09-08T23:14:18Z</time>
      </trkpt>
      <trkpt lat="-2.701663" lon="-78.805550">
        <ele>3146.00</ele>
        <time>2018-09-08T23:14:19Z</time>
      </trkpt>
      <trkpt lat="-2.701793" lon="-78.805580">
        <ele>3147.00</ele>
        <time>2018-09-08T23:14:20Z</time>
      </trkpt>
      <trkpt lat="-2.701930" lon="-78.805611">
        <ele>3147.00</ele>
        <time>2018-09-08T23:14:21Z</time>
      </trkpt>
      <trkpt lat="-2.702073" lon="-78.805626">
        <ele>3147.00</ele>
        <time>2018-09-08T23:14:22Z</time>
      </trkpt>
      <trkpt lat="-2.702213" lon="-78.805641">
        <ele>3147.00</ele>
        <time>2018-09-08T23:14:23Z</time>
      </trkpt>
      <trkpt lat="-2.702334" lon="-78.805664">
        <ele>3147.00</ele>
        <time>2018-09-08T23:14:24Z</time>
      </trkpt>
      <trkpt lat="-2.702439" lon="-78.805695">
        <ele>3147.00</ele>
        <time>2018-09-08T23:14:25Z</time>
      </trkpt>
      <trkpt lat="-2.702517" lon="-78.805771">
        <ele>3147.00</ele>
        <time>2018-09-08T23:14:26Z</time>
      </trkpt>
      <trkpt lat="-2.702574" lon="-78.805855">
        <ele>3146.00</ele>
        <time>2018-09-08T23:14:27Z</time>
      </trkpt>
      <trkpt lat="-2.702566" lon="-78.805977">
        <ele>3146.00</ele>
        <time>2018-09-08T23:14:28Z</time>
      </trkpt>
      <trkpt lat="-2.702529" lon="-78.806091">
        <ele>3146.00</ele>
        <time>2018-09-08T23:14:29Z</time>
      </trkpt>
      <trkpt lat="-2.702479" lon="-78.806213">
        <ele>3146.00</ele>
        <time>2018-09-08T23:14:30Z</time>
      </trkpt>
      <trkpt lat="-2.702431" lon="-78.806343">
        <ele>3146.00</ele>
        <time>2018-09-08T23:14:31Z</time>
      </trkpt>
      <trkpt lat="-2.702414" lon="-78.806480">
        <ele>3146.00</ele>
        <time>2018-09-08T23:14:32Z</time>
      </trkpt>
      <trkpt lat="-2.702440" lon="-78.806595">
        <ele>3146.00</ele>
        <time>2018-09-08T23:14:33Z</time>
      </trkpt>
      <trkpt lat="-2.702497" lon="-78.806702">
        <ele>3146.00</ele>
        <time>2018-09-08T23:14:34Z</time>
      </trkpt>
      <trkpt lat="-2.702570" lon="-78.806801">
        <ele>3146.00</ele>
        <time>2018-09-08T23:14:35Z</time>
      </trkpt>
      <trkpt lat="-2.702662" lon="-78.806908">
        <ele>3145.00</ele>
        <time>2018-09-08T23:14:36Z</time>
      </trkpt>
      <trkpt lat="-2.702764" lon="-78.807014">
        <ele>3145.00</ele>
        <time>2018-09-08T23:14:37Z</time>
      </trkpt>
      <trkpt lat="-2.702856" lon="-78.807114">
        <ele>3145.00</ele>
        <time>2018-09-08T23:14:38Z</time>
      </trkpt>
      <trkpt lat="-2.702940" lon="-78.807220">
        <ele>3145.00</ele>
        <time>2018-09-08T23:14:39Z</time>
      </trkpt>
      <trkpt lat="-2.703012" lon="-78.807312">
        <ele>3145.00</ele>
        <time>2018-09-08T23:14:40Z</time>
      </trkpt>
      <trkpt lat="-2.703073" lon="-78.807419">
        <ele>3145.00</ele>
        <time>2018-09-08T23:14:41Z</time>
      </trkpt>
      <trkpt lat="-2.703111" lon="-78.807526">
        <ele>3145.00</ele>
        <time>2018-09-08T23:14:42Z</time>
      </trkpt>
      <trkpt lat="-2.703115" lon="-78.807663">
        <ele>3145.00</ele>
        <time>2018-09-08T23:14:43Z</time>
      </trkpt>
      <trkpt lat="-2.703058" lon="-78.807770">
        <ele>3145.00</ele>
        <time>2018-09-08T23:14:44Z</time>
      </trkpt>
      <trkpt lat="-2.702971" lon="-78.807884">
        <ele>3145.00</ele>
        <time>2018-09-08T23:14:45Z</time>
      </trkpt>
      <trkpt lat="-2.702880" lon="-78.807999">
        <ele>3145.00</ele>
        <time>2018-09-08T23:14:46Z</time>
      </trkpt>
      <trkpt lat="-2.702791" lon="-78.808136">
        <ele>3145.00</ele>
        <time>2018-09-08T23:14:47Z</time>
      </trkpt>
      <trkpt lat="-2.702707" lon="-78.808273">
        <ele>3145.00</ele>
        <time>2018-09-08T23:14:48Z</time>
      </trkpt>
      <trkpt lat="-2.702626" lon="-78.808434">
        <ele>3144.00</ele>
        <time>2018-09-08T23:14:49Z</time>
      </trkpt>
      <trkpt lat="-2.702546" lon="-78.808586">
        <ele>3144.00</ele>
        <time>2018-09-08T23:14:50Z</time>
      </trkpt>
      <trkpt lat="-2.702468" lon="-78.808739">
        <ele>3144.00</ele>
        <time>2018-09-08T23:14:51Z</time>
      </trkpt>
      <trkpt lat="-2.702396" lon="-78.808891">
        <ele>3144.00</ele>
        <time>2018-09-08T23:14:52Z</time>
      </trkpt>
      <trkpt lat="-2.702331" lon="-78.809029">
        <ele>3143.00</ele>
        <time>2018-09-08T23:14:53Z</time>
      </trkpt>
      <trkpt lat="-2.702262" lon="-78.809189">
        <ele>3143.00</ele>
        <time>2018-09-08T23:14:54Z</time>
      </trkpt>
      <trkpt lat="-2.702189" lon="-78.809357">
        <ele>3142.00</ele>
        <time>2018-09-08T23:14:55Z</time>
      </trkpt>
      <trkpt lat="-2.702120" lon="-78.809532">
        <ele>3142.00</ele>
        <time>2018-09-08T23:14:56Z</time>
      </trkpt>
      <trkpt lat="-2.702053" lon="-78.809700">
        <ele>3141.00</ele>
        <time>2018-09-08T23:14:57Z</time>
      </trkpt>
      <trkpt lat="-2.701992" lon="-78.809853">
        <ele>3140.00</ele>
        <time>2018-09-08T23:14:58Z</time>
      </trkpt>
      <trkpt lat="-2.701937" lon="-78.810005">
        <ele>3140.00</ele>
        <time>2018-09-08T23:14:59Z</time>
      </trkpt>
      <trkpt lat="-2.701886" lon="-78.810165">
        <ele>3139.00</ele>
        <time>2018-09-08T23:15:00Z</time>
      </trkpt>
      <trkpt lat="-2.701834" lon="-78.810310">
        <ele>3139.00</ele>
        <time>2018-09-08T23:15:01Z</time>
      </trkpt>
      <trkpt lat="-2.701779" lon="-78.810455">
        <ele>3138.00</ele>
        <time>2018-09-08T23:15:02Z</time>
      </trkpt>
      <trkpt lat="-2.701738" lon="-78.810593">
        <ele>3137.00</ele>
        <time>2018-09-08T23:15:03Z</time>
      </trkpt>
      <trkpt lat="-2.701722" lon="-78.810753">
        <ele>3137.00</ele>
        <time>2018-09-08T23:15:04Z</time>
      </trkpt>
      <trkpt lat="-2.701729" lon="-78.810921">
        <ele>3137.00</ele>
        <time>2018-09-08T23:15:05Z</time>
      </trkpt>
      <trkpt lat="-2.701721" lon="-78.811073">
        <ele>3138.00</ele>
        <time>2018-09-08T23:15:06Z</time>
      </trkpt>
      <trkpt lat="-2.701712" lon="-78.811226">
        <ele>3138.00</ele>
        <time>2018-09-08T23:15:07Z</time>
      </trkpt>
      <trkpt lat="-2.701720" lon="-78.811378">
        <ele>3138.00</ele>
        <time>2018-09-08T23:15:08Z</time>
      </trkpt>
      <trkpt lat="-2.701740" lon="-78.811531">
        <ele>3138.00</ele>
        <time>2018-09-08T23:15:09Z</time>
      </trkpt>
      <trkpt lat="-2.701766" lon="-78.811684">
        <ele>3139.00</ele>
        <time>2018-09-08T23:15:10Z</time>
      </trkpt>
      <trkpt lat="-2.701801" lon="-78.811821">
        <ele>3139.00</ele>
        <time>2018-09-08T23:15:11Z</time>
      </trkpt>
      <trkpt lat="-2.701857" lon="-78.811966">
        <ele>3139.00</ele>
        <time>2018-09-08T23:15:12Z</time>
      </trkpt>
      <trkpt lat="-2.701918" lon="-78.812096">
        <ele>3139.00</ele>
        <time>2018-09-08T23:15:13Z</time>
      </trkpt>
      <trkpt lat="-2.701994" lon="-78.812225">
        <ele>3139.00</ele>
        <time>2018-09-08T23:15:14Z</time>
      </trkpt>
      <trkpt lat="-2.702080" lon="-78.812340">
        <ele>3139.00</ele>
        <time>2018-09-08T23:15:15Z</time>
      </trkpt>
      <trkpt lat="-2.702138" lon="-78.812454">
        <ele>3140.00</ele>
        <time>2018-09-08T23:15:16Z</time>
      </trkpt>
      <trkpt lat="-2.702186" lon="-78.812569">
        <ele>3140.00</ele>
        <time>2018-09-08T23:15:17Z</time>
      </trkpt>
      <trkpt lat="-2.702212" lon="-78.812714">
        <ele>3140.00</ele>
        <time>2018-09-08T23:15:18Z</time>
      </trkpt>
      <trkpt lat="-2.702235" lon="-78.812851">
        <ele>3140.00</ele>
        <time>2018-09-08T23:15:19Z</time>
      </trkpt>
      <trkpt lat="-2.702260" lon="-78.813004">
        <ele>3141.00</ele>
        <time>2018-09-08T23:15:20Z</time>
      </trkpt>
      <trkpt lat="-2.702286" lon="-78.813164">
        <ele>3141.00</ele>
        <time>2018-09-08T23:15:21Z</time>
      </trkpt>
      <trkpt lat="-2.702326" lon="-78.813316">
        <ele>3142.00</ele>
        <time>2018-09-08T23:15:22Z</time>
      </trkpt>
      <trkpt lat="-2.702377" lon="-78.813469">
        <ele>3142.00</ele>
        <time>2018-09-08T23:15:23Z</time>
      </trkpt>
      <trkpt lat="-2.702423" lon="-78.813629">
        <ele>3143.00</ele>
        <time>2018-09-08T23:15:24Z</time>
      </trkpt>
      <trkpt lat="-2.702470" lon="-78.813797">
        <ele>3143.00</ele>
        <time>2018-09-08T23:15:25Z</time>
      </trkpt>
      <trkpt lat="-2.702517" lon="-78.813972">
        <ele>3144.00</ele>
        <time>2018-09-08T23:15:26Z</time>
      </trkpt>
      <trkpt lat="-2.702554" lon="-78.814140">
        <ele>3144.00</ele>
        <time>2018-09-08T23:15:27Z</time>
      </trkpt>
      <trkpt lat="-2.702584" lon="-78.814308">
        <ele>3145.00</ele>
        <time>2018-09-08T23:15:28Z</time>
      </trkpt>
      <trkpt lat="-2.702609" lon="-78.814484">
        <ele>3145.00</ele>
        <time>2018-09-08T23:15:29Z</time>
      </trkpt>
      <trkpt lat="-2.702635" lon="-78.814636">
        <ele>3146.00</ele>
        <time>2018-09-08T23:15:30Z</time>
      </trkpt>
      <trkpt lat="-2.702661" lon="-78.814812">
        <ele>3146.00</ele>
        <time>2018-09-08T23:15:31Z</time>
      </trkpt>
      <trkpt lat="-2.702687" lon="-78.814972">
        <ele>3146.00</ele>
        <time>2018-09-08T23:15:32Z</time>
      </trkpt>
      <trkpt lat="-2.702712" lon="-78.815117">
        <ele>3146.00</ele>
        <time>2018-09-08T23:15:33Z</time>
      </trkpt>
      <trkpt lat="-2.702727" lon="-78.815269">
        <ele>3147.00</ele>
        <time>2018-09-08T23:15:34Z</time>
      </trkpt>
      <trkpt lat="-2.702738" lon="-78.815414">
        <ele>3147.00</ele>
        <time>2018-09-08T23:15:35Z</time>
      </trkpt>
      <trkpt lat="-2.702737" lon="-78.815536">
        <ele>3147.00</ele>
        <time>2018-09-08T23:15:36Z</time>
      </trkpt>
      <trkpt lat="-2.702707" lon="-78.815659">
        <ele>3147.00</ele>
        <time>2018-09-08T23:15:37Z</time>
      </trkpt>
      <trkpt lat="-2.702660" lon="-78.815781">
        <ele>3147.00</ele>
        <time>2018-09-08T23:15:38Z</time>
      </trkpt>
      <trkpt lat="-2.702625" lon="-78.815887">
        <ele>3147.00</ele>
        <time>2018-09-08T23:15:39Z</time>
      </trkpt>
      <trkpt lat="-2.702609" lon="-78.815979">
        <ele>3147.00</ele>
        <time>2018-09-08T23:15:40Z</time>
      </trkpt>
      <trkpt lat="-2.702622" lon="-78.816086">
        <ele>3148.00</ele>
        <time>2018-09-08T23:15:41Z</time>
      </trkpt>
      <trkpt lat="-2.702658" lon="-78.816216">
        <ele>3148.00</ele>
        <time>2018-09-08T23:15:42Z</time>
      </trkpt>
      <trkpt lat="-2.702713" lon="-78.816338">
        <ele>3148.00</ele>
        <time>2018-09-08T23:15:43Z</time>
      </trkpt>
      <trkpt lat="-2.702777" lon="-78.816483">
        <ele>3148.00</ele>
        <time>2018-09-08T23:15:44Z</time>
      </trkpt>
      <trkpt lat="-2.702833" lon="-78.816643">
        <ele>3148.00</ele>
        <time>2018-09-08T23:15:45Z</time>
      </trkpt>
      <trkpt lat="-2.702886" lon="-78.816818">
        <ele>3148.00</ele>
        <time>2018-09-08T23:15:46Z</time>
      </trkpt>
      <trkpt lat="-2.702952" lon="-78.817017">
        <ele>3147.00</ele>
        <time>2018-09-08T23:15:47Z</time>
      </trkpt>
      <trkpt lat="-2.703026" lon="-78.817207">
        <ele>3147.00</ele>
        <time>2018-09-08T23:15:48Z</time>
      </trkpt>
      <trkpt lat="-2.703111" lon="-78.817406">
        <ele>3147.00</ele>
        <time>2018-09-08T23:15:49Z</time>
      </trkpt>
      <trkpt lat="-2.703197" lon="-78.817589">
        <ele>3146.00</ele>
        <time>2018-09-08T23:15:50Z</time>
      </trkpt>
      <trkpt lat="-2.703283" lon="-78.817780">
        <ele>3146.00</ele>
        <time>2018-09-08T23:15:51Z</time>
      </trkpt>
      <trkpt lat="-2.703365" lon="-78.817970">
        <ele>3145.00</ele>
        <time>2018-09-08T23:15:52Z</time>
      </trkpt>
      <trkpt lat="-2.703444" lon="-78.818161">
        <ele>3144.00</ele>
        <time>2018-09-08T23:15:53Z</time>
      </trkpt>
      <trkpt lat="-2.703512" lon="-78.818344">
        <ele>3143.00</ele>
        <time>2018-09-08T23:15:54Z</time>
      </trkpt>
      <trkpt lat="-2.703578" lon="-78.818527">
        <ele>3142.00</ele>
        <time>2018-09-08T23:15:55Z</time>
      </trkpt>
      <trkpt lat="-2.703638" lon="-78.818695">
        <ele>3141.00</ele>
        <time>2018-09-08T23:15:56Z</time>
      </trkpt>
      <trkpt lat="-2.703682" lon="-78.818848">
        <ele>3141.00</ele>
        <time>2018-09-08T23:15:57Z</time>
      </trkpt>
      <trkpt lat="-2.703724" lon="-78.818985">
        <ele>3140.00</ele>
        <time>2018-09-08T23:15:58Z</time>
      </trkpt>
      <trkpt lat="-2.703775" lon="-78.819130">
        <ele>3139.00</ele>
        <time>2018-09-08T23:15:59Z</time>
      </trkpt>
      <trkpt lat="-2.703845" lon="-78.819275">
        <ele>3138.00</ele>
        <time>2018-09-08T23:16:00Z</time>
      </trkpt>
      <trkpt lat="-2.703932" lon="-78.819397">
        <ele>3138.00</ele>
        <time>2018-09-08T23:16:01Z</time>
      </trkpt>
      <trkpt lat="-2.704027" lon="-78.819527">
        <ele>3137.00</ele>
        <time>2018-09-08T23:16:02Z</time>
      </trkpt>
      <trkpt lat="-2.704127" lon="-78.819656">
        <ele>3136.00</ele>
        <time>2018-09-08T23:16:03Z</time>
      </trkpt>
      <trkpt lat="-2.704224" lon="-78.819771">
        <ele>3136.00</ele>
        <time>2018-09-08T23:16:04Z</time>
      </trkpt>
      <trkpt lat="-2.704299" lon="-78.819878">
        <ele>3136.00</ele>
        <time>2018-09-08T23:16:05Z</time>
      </trkpt>
      <trkpt lat="-2.704366" lon="-78.819992">
        <ele>3136.00</ele>
        <time>2018-09-08T23:16:06Z</time>
      </trkpt>
      <trkpt lat="-2.704419" lon="-78.820122">
        <ele>3136.00</ele>
        <time>2018-09-08T23:16:07Z</time>
      </trkpt>
      <trkpt lat="-2.704471" lon="-78.820251">
        <ele>3136.00</ele>
        <time>2018-09-08T23:16:08Z</time>
      </trkpt>
      <trkpt lat="-2.704516" lon="-78.820374">
        <ele>3136.00</ele>
        <time>2018-09-08T23:16:09Z</time>
      </trkpt>
      <trkpt lat="-2.704560" lon="-78.820488">
        <ele>3136.00</ele>
        <time>2018-09-08T23:16:10Z</time>
      </trkpt>
      <trkpt lat="-2.704610" lon="-78.820602">
        <ele>3136.00</ele>
        <time>2018-09-08T23:16:11Z</time>
      </trkpt>
      <trkpt lat="-2.704680" lon="-78.820717">
        <ele>3135.00</ele>
        <time>2018-09-08T23:16:12Z</time>
      </trkpt>
      <trkpt lat="-2.704767" lon="-78.820839">
        <ele>3135.00</ele>
        <time>2018-09-08T23:16:13Z</time>
      </trkpt>
      <trkpt lat="-2.704869" lon="-78.820930">
        <ele>3135.00</ele>
        <time>2018-09-08T23:16:14Z</time>
      </trkpt>
      <trkpt lat="-2.704996" lon="-78.821014">
        <ele>3135.00</ele>
        <time>2018-09-08T23:16:15Z</time>
      </trkpt>
      <trkpt lat="-2.705143" lon="-78.821068">
        <ele>3134.00</ele>
        <time>2018-09-08T23:16:16Z</time>
      </trkpt>
      <trkpt lat="-2.705311" lon="-78.821075">
        <ele>3134.00</ele>
        <time>2018-09-08T23:16:17Z</time>
      </trkpt>
      <trkpt lat="-2.705468" lon="-78.821083">
        <ele>3134.00</ele>
        <time>2018-09-08T23:16:18Z</time>
      </trkpt>
      <trkpt lat="-2.705613" lon="-78.821091">
        <ele>3133.00</ele>
        <time>2018-09-08T23:16:19Z</time>
      </trkpt>
      <trkpt lat="-2.705735" lon="-78.821121">
        <ele>3132.00</ele>
        <time>2018-09-08T23:16:20Z</time>
      </trkpt>
      <trkpt lat="-2.705837" lon="-78.821136">
        <ele>3132.00</ele>
        <time>2018-09-08T23:16:21Z</time>
      </trkpt>
      <trkpt lat="-2.705917" lon="-78.821190">
        <ele>3131.00</ele>
        <time>2018-09-08T23:16:22Z</time>
      </trkpt>
      <trkpt lat="-2.705997" lon="-78.821259">
        <ele>3131.00</ele>
        <time>2018-09-08T23:16:23Z</time>
      </trkpt>
      <trkpt lat="-2.706079" lon="-78.821342">
        <ele>3130.00</ele>
        <time>2018-09-08T23:16:24Z</time>
      </trkpt>
      <trkpt lat="-2.706174" lon="-78.821404">
        <ele>3130.00</ele>
        <time>2018-09-08T23:16:25Z</time>
      </trkpt>
      <trkpt lat="-2.706264" lon="-78.821434">
        <ele>3129.00</ele>
        <time>2018-09-08T23:16:26Z</time>
      </trkpt>
      <trkpt lat="-2.706374" lon="-78.821419">
        <ele>3129.00</ele>
        <time>2018-09-08T23:16:27Z</time>
      </trkpt>
      <trkpt lat="-2.706489" lon="-78.821388">
        <ele>3129.00</ele>
        <time>2018-09-08T23:16:28Z</time>
      </trkpt>
      <trkpt lat="-2.706598" lon="-78.821304">
        <ele>3128.00</ele>
        <time>2018-09-08T23:16:29Z</time>
      </trkpt>
      <trkpt lat="-2.706699" lon="-78.821205">
        <ele>3128.00</ele>
        <time>2018-09-08T23:16:30Z</time>
      </trkpt>
      <trkpt lat="-2.706795" lon="-78.821091">
        <ele>3127.00</ele>
        <time>2018-09-08T23:16:31Z</time>
      </trkpt>
      <trkpt lat="-2.706893" lon="-78.820984">
        <ele>3127.00</ele>
        <time>2018-09-08T23:16:32Z</time>
      </trkpt>
      <trkpt lat="-2.707000" lon="-78.820908">
        <ele>3126.00</ele>
        <time>2018-09-08T23:16:33Z</time>
      </trkpt>
      <trkpt lat="-2.707102" lon="-78.820839">
        <ele>3126.00</ele>
        <time>2018-09-08T23:16:34Z</time>
      </trkpt>
      <trkpt lat="-2.707196" lon="-78.820770">
        <ele>3125.00</ele>
        <time>2018-09-08T23:16:35Z</time>
      </trkpt>
      <trkpt lat="-2.707280" lon="-78.820709">
        <ele>3125.00</ele>
        <time>2018-09-08T23:16:36Z</time>
      </trkpt>
      <trkpt lat="-2.707358" lon="-78.820656">
        <ele>3125.00</ele>
        <time>2018-09-08T23:16:37Z</time>
      </trkpt>
      <trkpt lat="-2.707433" lon="-78.820610">
        <ele>3124.00</ele>
        <time>2018-09-08T23:16:38Z</time>
      </trkpt>
      <trkpt lat="-2.707501" lon="-78.820580">
        <ele>3124.00</ele>
        <time>2018-09-08T23:16:39Z</time>
      </trkpt>
      <trkpt lat="-2.707573" lon="-78.820572">
        <ele>3124.00</ele>
        <time>2018-09-08T23:16:40Z</time>
      </trkpt>
      <trkpt lat="-2.707641" lon="-78.820595">
        <ele>3123.00</ele>
        <time>2018-09-08T23:16:41Z</time>
      </trkpt>
      <trkpt lat="-2.707670" lon="-78.820656">
        <ele>3123.00</ele>
        <time>2018-09-08T23:16:42Z</time>
      </trkpt>
      <trkpt lat="-2.707688" lon="-78.820763">
        <ele>3123.00</ele>
        <time>2018-09-08T23:16:43Z</time>
      </trkpt>
      <trkpt lat="-2.707690" lon="-78.820900">
        <ele>3123.00</ele>
        <time>2018-09-08T23:16:44Z</time>
      </trkpt>
      <trkpt lat="-2.707716" lon="-78.821037">
        <ele>3122.00</ele>
        <time>2018-09-08T23:16:45Z</time>
      </trkpt>
      <trkpt lat="-2.707747" lon="-78.821198">
        <ele>3122.00</ele>
        <time>2018-09-08T23:16:46Z</time>
      </trkpt>
      <trkpt lat="-2.707767" lon="-78.821342">
        <ele>3122.00</ele>
        <time>2018-09-08T23:16:47Z</time>
      </trkpt>
      <trkpt lat="-2.707769" lon="-78.821457">
        <ele>3122.00</ele>
        <time>2018-09-08T23:16:48Z</time>
      </trkpt>
      <trkpt lat="-2.707743" lon="-78.821571">
        <ele>3121.00</ele>
        <time>2018-09-08T23:16:49Z</time>
      </trkpt>
      <trkpt lat="-2.707693" lon="-78.821663">
        <ele>3121.00</ele>
        <time>2018-09-08T23:16:50Z</time>
      </trkpt>
      <trkpt lat="-2.707599" lon="-78.821739">
        <ele>3121.00</ele>
        <time>2018-09-08T23:16:51Z</time>
      </trkpt>
      <trkpt lat="-2.707506" lon="-78.821815">
        <ele>3120.00</ele>
        <time>2018-09-08T23:16:52Z</time>
      </trkpt>
      <trkpt lat="-2.707439" lon="-78.821899">
        <ele>3120.00</ele>
        <time>2018-09-08T23:16:53Z</time>
      </trkpt>
      <trkpt lat="-2.707402" lon="-78.821999">
        <ele>3119.00</ele>
        <time>2018-09-08T23:16:54Z</time>
      </trkpt>
      <trkpt lat="-2.707393" lon="-78.822098">
        <ele>3119.00</ele>
        <time>2018-09-08T23:16:55Z</time>
      </trkpt>
      <trkpt lat="-2.707422" lon="-78.822197">
        <ele>3118.00</ele>
        <time>2018-09-08T23:16:56Z</time>
      </trkpt>
      <trkpt lat="-2.707500" lon="-78.822266">
        <ele>3117.00</ele>
        <time>2018-09-08T23:16:57Z</time>
      </trkpt>
      <trkpt lat="-2.707617" lon="-78.822296">
        <ele>3116.00</ele>
        <time>2018-09-08T23:16:58Z</time>
      </trkpt>
      <trkpt lat="-2.707753" lon="-78.822273">
        <ele>3115.00</ele>
        <time>2018-09-08T23:16:59Z</time>
      </trkpt>
      <trkpt lat="-2.707891" lon="-78.822227">
        <ele>3115.00</ele>
        <time>2018-09-08T23:17:00Z</time>
      </trkpt>
      <trkpt lat="-2.708041" lon="-78.822166">
        <ele>3114.00</ele>
        <time>2018-09-08T23:17:01Z</time>
      </trkpt>
      <trkpt lat="-2.708189" lon="-78.822105">
        <ele>3114.00</ele>
        <time>2018-09-08T23:17:02Z</time>
      </trkpt>
      <trkpt lat="-2.708336" lon="-78.822060">
        <ele>3113.00</ele>
        <time>2018-09-08T23:17:03Z</time>
      </trkpt>
      <trkpt lat="-2.708466" lon="-78.822021">
        <ele>3113.00</ele>
        <time>2018-09-08T23:17:04Z</time>
      </trkpt>
      <trkpt lat="-2.708573" lon="-78.821983">
        <ele>3113.00</ele>
        <time>2018-09-08T23:17:05Z</time>
      </trkpt>
      <trkpt lat="-2.708664" lon="-78.821938">
        <ele>3112.00</ele>
        <time>2018-09-08T23:17:06Z</time>
      </trkpt>
      <trkpt lat="-2.708735" lon="-78.821869">
        <ele>3112.00</ele>
        <time>2018-09-08T23:17:07Z</time>
      </trkpt>
      <trkpt lat="-2.708781" lon="-78.821770">
        <ele>3111.00</ele>
        <time>2018-09-08T23:17:08Z</time>
      </trkpt>
      <trkpt lat="-2.708831" lon="-78.821663">
        <ele>3111.00</ele>
        <time>2018-09-08T23:17:09Z</time>
      </trkpt>
      <trkpt lat="-2.708882" lon="-78.821564">
        <ele>3110.00</ele>
        <time>2018-09-08T23:17:10Z</time>
      </trkpt>
      <trkpt lat="-2.708940" lon="-78.821472">
        <ele>3110.00</ele>
        <time>2018-09-08T23:17:11Z</time>
      </trkpt>
      <trkpt lat="-2.709011" lon="-78.821404">
        <ele>3110.00</ele>
        <time>2018-09-08T23:17:12Z</time>
      </trkpt>
      <trkpt lat="-2.709117" lon="-78.821388">
        <ele>3109.00</ele>
        <time>2018-09-08T23:17:13Z</time>
      </trkpt>
      <trkpt lat="-2.709240" lon="-78.821411">
        <ele>3109.00</ele>
        <time>2018-09-08T23:17:14Z</time>
      </trkpt>
      <trkpt lat="-2.709375" lon="-78.821442">
        <ele>3109.00</ele>
        <time>2018-09-08T23:17:15Z</time>
      </trkpt>
      <trkpt lat="-2.709525" lon="-78.821465">
        <ele>3108.00</ele>
        <time>2018-09-08T23:17:16Z</time>
      </trkpt>
      <trkpt lat="-2.709676" lon="-78.821495">
        <ele>3108.00</ele>
        <time>2018-09-08T23:17:17Z</time>
      </trkpt>
      <trkpt lat="-2.709808" lon="-78.821510">
        <ele>3107.00</ele>
        <time>2018-09-08T23:17:18Z</time>
      </trkpt>
      <trkpt lat="-2.709914" lon="-78.821526">
        <ele>3107.00</ele>
        <time>2018-09-08T23:17:19Z</time>
      </trkpt>
      <trkpt lat="-2.710012" lon="-78.821548">
        <ele>3106.00</ele>
        <time>2018-09-08T23:17:20Z</time>
      </trkpt>
      <trkpt lat="-2.710103" lon="-78.821602">
        <ele>3105.00</ele>
        <time>2018-09-08T23:17:21Z</time>
      </trkpt>
      <trkpt lat="-2.710183" lon="-78.821671">
        <ele>3105.00</ele>
        <time>2018-09-08T23:17:22Z</time>
      </trkpt>
      <trkpt lat="-2.710255" lon="-78.821770">
        <ele>3104.00</ele>
        <time>2018-09-08T23:17:23Z</time>
      </trkpt>
      <trkpt lat="-2.710320" lon="-78.821892">
        <ele>3103.00</ele>
        <time>2018-09-08T23:17:24Z</time>
      </trkpt>
      <trkpt lat="-2.710396" lon="-78.822029">
        <ele>3102.00</ele>
        <time>2018-09-08T23:17:25Z</time>
      </trkpt>
      <trkpt lat="-2.710458" lon="-78.822159">
        <ele>3101.00</ele>
        <time>2018-09-08T23:17:26Z</time>
      </trkpt>
      <trkpt lat="-2.710514" lon="-78.822281">
        <ele>3100.00</ele>
        <time>2018-09-08T23:17:27Z</time>
      </trkpt>
      <trkpt lat="-2.710567" lon="-78.822380">
        <ele>3099.00</ele>
        <time>2018-09-08T23:17:28Z</time>
      </trkpt>
      <trkpt lat="-2.710607" lon="-78.822472">
        <ele>3097.00</ele>
        <time>2018-09-08T23:17:29Z</time>
      </trkpt>
      <trkpt lat="-2.710693" lon="-78.822517">
        <ele>3095.00</ele>
        <time>2018-09-08T23:17:30Z</time>
      </trkpt>
      <trkpt lat="-2.710794" lon="-78.822517">
        <ele>3093.00</ele>
        <time>2018-09-08T23:17:31Z</time>
      </trkpt>
      <trkpt lat="-2.710904" lon="-78.822472">
        <ele>3091.00</ele>
        <time>2018-09-08T23:17:32Z</time>
      </trkpt>
      <trkpt lat="-2.711013" lon="-78.822388">
        <ele>3089.00</ele>
        <time>2018-09-08T23:17:33Z</time>
      </trkpt>
      <trkpt lat="-2.711139" lon="-78.822311">
        <ele>3087.00</ele>
        <time>2018-09-08T23:17:34Z</time>
      </trkpt>
      <trkpt lat="-2.711265" lon="-78.822243">
        <ele>3085.00</ele>
        <time>2018-09-08T23:17:35Z</time>
      </trkpt>
      <trkpt lat="-2.711388" lon="-78.822166">
        <ele>3083.00</ele>
        <time>2018-09-08T23:17:36Z</time>
      </trkpt>
      <trkpt lat="-2.711496" lon="-78.822113">
        <ele>3081.00</ele>
        <time>2018-09-08T23:17:37Z</time>
      </trkpt>
      <trkpt lat="-2.711596" lon="-78.822090">
        <ele>3080.00</ele>
        <time>2018-09-08T23:17:38Z</time>
      </trkpt>
      <trkpt lat="-2.711692" lon="-78.822060">
        <ele>3078.00</ele>
        <time>2018-09-08T23:17:39Z</time>
      </trkpt>
      <trkpt lat="-2.711782" lon="-78.822037">
        <ele>3077.00</ele>
        <time>2018-09-08T23:17:40Z</time>
      </trkpt>
      <trkpt lat="-2.711850" lon="-78.821945">
        <ele>3076.00</ele>
        <time>2018-09-08T23:17:41Z</time>
      </trkpt>
      <trkpt lat="-2.711895" lon="-78.821861">
        <ele>3075.00</ele>
        <time>2018-09-08T23:17:42Z</time>
      </trkpt>
      <trkpt lat="-2.711917" lon="-78.821777">
        <ele>3074.00</ele>
        <time>2018-09-08T23:17:43Z</time>
      </trkpt>
      <trkpt lat="-2.711948" lon="-78.821716">
        <ele>3073.00</ele>
        <time>2018-09-08T23:17:44Z</time>
      </trkpt>
      <trkpt lat="-2.712005" lon="-78.821678">
        <ele>3073.00</ele>
        <time>2018-09-08T23:17:45Z</time>
      </trkpt>
      <trkpt lat="-2.712110" lon="-78.821678">
        <ele>3072.00</ele>
        <time>2018-09-08T23:17:46Z</time>
      </trkpt>
      <trkpt lat="-2.712221" lon="-78.821709">
        <ele>3072.00</ele>
        <time>2018-09-08T23:17:47Z</time>
      </trkpt>
      <trkpt lat="-2.712334" lon="-78.821732">
        <ele>3072.00</ele>
        <time>2018-09-08T23:17:48Z</time>
      </trkpt>
      <trkpt lat="-2.712440" lon="-78.821732">
        <ele>3071.00</ele>
        <time>2018-09-08T23:17:49Z</time>
      </trkpt>
      <trkpt lat="-2.712538" lon="-78.821732">
        <ele>3071.00</ele>
        <time>2018-09-08T23:17:50Z</time>
      </trkpt>
      <trkpt lat="-2.712635" lon="-78.821724">
        <ele>3071.00</ele>
        <time>2018-09-08T23:17:51Z</time>
      </trkpt>
      <trkpt lat="-2.712753" lon="-78.821770">
        <ele>3070.00</ele>
        <time>2018-09-08T23:17:52Z</time>
      </trkpt>
      <trkpt lat="-2.712867" lon="-78.821831">
        <ele>3070.00</ele>
        <time>2018-09-08T23:17:53Z</time>
      </trkpt>
      <trkpt lat="-2.712987" lon="-78.821877">
        <ele>3069.00</ele>
        <time>2018-09-08T23:17:54Z</time>
      </trkpt>
      <trkpt lat="-2.713089" lon="-78.821899">
        <ele>3069.00</ele>
        <time>2018-09-08T23:17:55Z</time>
      </trkpt>
      <trkpt lat="-2.713180" lon="-78.821922">
        <ele>3068.00</ele>
        <time>2018-09-08T23:17:56Z</time>
      </trkpt>
      <trkpt lat="-2.713256" lon="-78.821930">
        <ele>3067.00</ele>
        <time>2018-09-08T23:17:57Z</time>
      </trkpt>
      <trkpt lat="-2.713331" lon="-78.821991">
        <ele>3066.00</ele>
        <time>2018-09-08T23:17:58Z</time>
      </trkpt>
      <trkpt lat="-2.713412" lon="-78.822090">
        <ele>3065.00</ele>
        <time>2018-09-08T23:17:59Z</time>
      </trkpt>
      <trkpt lat="-2.713490" lon="-78.822227">
        <ele>3064.00</ele>
        <time>2018-09-08T23:18:00Z</time>
      </trkpt>
      <trkpt lat="-2.713585" lon="-78.822350">
        <ele>3063.00</ele>
        <time>2018-09-08T23:18:01Z</time>
      </trkpt>
      <trkpt lat="-2.713678" lon="-78.822472">
        <ele>3062.00</ele>
        <time>2018-09-08T23:18:02Z</time>
      </trkpt>
      <trkpt lat="-2.713766" lon="-78.822586">
        <ele>3060.00</ele>
        <time>2018-09-08T23:18:03Z</time>
      </trkpt>
      <trkpt lat="-2.713850" lon="-78.822693">
        <ele>3057.00</ele>
        <time>2018-09-08T23:18:04Z</time>
      </trkpt>
      <trkpt lat="-2.713920" lon="-78.822792">
        <ele>3053.00</ele>
        <time>2018-09-08T23:18:05Z</time>
      </trkpt>
      <trkpt lat="-2.713985" lon="-78.822868">
        <ele>3050.00</ele>
        <time>2018-09-08T23:18:06Z</time>
      </trkpt>
      <trkpt lat="-2.714070" lon="-78.822937">
        <ele>3046.00</ele>
        <time>2018-09-08T23:18:07Z</time>
      </trkpt>
      <trkpt lat="-2.714190" lon="-78.822990">
        <ele>3043.00</ele>
        <time>2018-09-08T23:18:08Z</time>
      </trkpt>
      <trkpt lat="-2.714335" lon="-78.823021">
        <ele>3039.00</ele>
        <time>2018-09-08T23:18:09Z</time>
      </trkpt>
      <trkpt lat="-2.714498" lon="-78.823059">
        <ele>3036.00</ele>
        <time>2018-09-08T23:18:10Z</time>
      </trkpt>
      <trkpt lat="-2.714660" lon="-78.823105">
        <ele>3033.00</ele>
        <time>2018-09-08T23:18:11Z</time>
      </trkpt>
      <trkpt lat="-2.714812" lon="-78.823143">
        <ele>3030.00</ele>
        <time>2018-09-08T23:18:12Z</time>
      </trkpt>
      <trkpt lat="-2.714962" lon="-78.823189">
        <ele>3028.00</ele>
        <time>2018-09-08T23:18:13Z</time>
      </trkpt>
      <trkpt lat="-2.715116" lon="-78.823235">
        <ele>3026.00</ele>
        <time>2018-09-08T23:18:14Z</time>
      </trkpt>
      <trkpt lat="-2.715250" lon="-78.823273">
        <ele>3024.00</ele>
        <time>2018-09-08T23:18:15Z</time>
      </trkpt>
      <trkpt lat="-2.715380" lon="-78.823318">
        <ele>3022.00</ele>
        <time>2018-09-08T23:18:16Z</time>
      </trkpt>
      <trkpt lat="-2.715516" lon="-78.823341">
        <ele>3021.00</ele>
        <time>2018-09-08T23:18:17Z</time>
      </trkpt>
      <trkpt lat="-2.715650" lon="-78.823357">
        <ele>3019.00</ele>
        <time>2018-09-08T23:18:18Z</time>
      </trkpt>
      <trkpt lat="-2.715779" lon="-78.823349">
        <ele>3018.00</ele>
        <time>2018-09-08T23:18:19Z</time>
      </trkpt>
      <trkpt lat="-2.715883" lon="-78.823341">
        <ele>3015.00</ele>
        <time>2018-09-08T23:18:20Z</time>
      </trkpt>
      <trkpt lat="-2.715973" lon="-78.823334">
        <ele>3013.00</ele>
        <time>2018-09-08T23:18:21Z</time>
      </trkpt>
      <trkpt lat="-2.716076" lon="-78.823372">
        <ele>3010.00</ele>
        <time>2018-09-08T23:18:22Z</time>
      </trkpt>
      <trkpt lat="-2.716173" lon="-78.823441">
        <ele>3007.00</ele>
        <time>2018-09-08T23:18:23Z</time>
      </trkpt>
      <trkpt lat="-2.716280" lon="-78.823463">
        <ele>3005.00</ele>
        <time>2018-09-08T23:18:24Z</time>
      </trkpt>
      <trkpt lat="-2.716392" lon="-78.823479">
        <ele>3002.00</ele>
        <time>2018-09-08T23:18:25Z</time>
      </trkpt>
      <trkpt lat="-2.716513" lon="-78.823441">
        <ele>3000.00</ele>
        <time>2018-09-08T23:18:26Z</time>
      </trkpt>
      <trkpt lat="-2.716640" lon="-78.823372">
        <ele>2998.00</ele>
        <time>2018-09-08T23:18:27Z</time>
      </trkpt>
      <trkpt lat="-2.716765" lon="-78.823303">
        <ele>2995.00</ele>
        <time>2018-09-08T23:18:28Z</time>
      </trkpt>
      <trkpt lat="-2.716894" lon="-78.823265">
        <ele>2994.00</ele>
        <time>2018-09-08T23:18:29Z</time>
      </trkpt>
      <trkpt lat="-2.717005" lon="-78.823212">
        <ele>2992.00</ele>
        <time>2018-09-08T23:18:30Z</time>
      </trkpt>
      <trkpt lat="-2.717100" lon="-78.823143">
        <ele>2991.00</ele>
        <time>2018-09-08T23:18:31Z</time>
      </trkpt>
      <trkpt lat="-2.717209" lon="-78.823112">
        <ele>2990.00</ele>
        <time>2018-09-08T23:18:32Z</time>
      </trkpt>
      <trkpt lat="-2.717325" lon="-78.823105">
        <ele>2989.00</ele>
        <time>2018-09-08T23:18:33Z</time>
      </trkpt>
      <trkpt lat="-2.717434" lon="-78.823090">
        <ele>2988.00</ele>
        <time>2018-09-08T23:18:34Z</time>
      </trkpt>
      <trkpt lat="-2.717543" lon="-78.823112">
        <ele>2987.00</ele>
        <time>2018-09-08T23:18:35Z</time>
      </trkpt>
      <trkpt lat="-2.717649" lon="-78.823120">
        <ele>2986.00</ele>
        <time>2018-09-08T23:18:36Z</time>
      </trkpt>
      <trkpt lat="-2.717757" lon="-78.823082">
        <ele>2986.00</ele>
        <time>2018-09-08T23:18:37Z</time>
      </trkpt>
      <trkpt lat="-2.717854" lon="-78.823029">
        <ele>2985.00</ele>
        <time>2018-09-08T23:18:38Z</time>
      </trkpt>
      <trkpt lat="-2.717946" lon="-78.822968">
        <ele>2985.00</ele>
        <time>2018-09-08T23:18:39Z</time>
      </trkpt>
      <trkpt lat="-2.718039" lon="-78.822914">
        <ele>2984.00</ele>
        <time>2018-09-08T23:18:40Z</time>
      </trkpt>
      <trkpt lat="-2.718153" lon="-78.822899">
        <ele>2984.00</ele>
        <time>2018-09-08T23:18:41Z</time>
      </trkpt>
      <trkpt lat="-2.718265" lon="-78.822868">
        <ele>2984.00</ele>
        <time>2018-09-08T23:18:42Z</time>
      </trkpt>
      <trkpt lat="-2.718373" lon="-78.822853">
        <ele>2984.00</ele>
        <time>2018-09-08T23:18:43Z</time>
      </trkpt>
      <trkpt lat="-2.718477" lon="-78.822845">
        <ele>2984.00</ele>
        <time>2018-09-08T23:18:44Z</time>
      </trkpt>
      <trkpt lat="-2.718588" lon="-78.822838">
        <ele>2984.00</ele>
        <time>2018-09-08T23:18:45Z</time>
      </trkpt>
      <trkpt lat="-2.718697" lon="-78.822807">
        <ele>2985.00</ele>
        <time>2018-09-08T23:18:46Z</time>
      </trkpt>
      <trkpt lat="-2.718807" lon="-78.822754">
        <ele>2985.00</ele>
        <time>2018-09-08T23:18:47Z</time>
      </trkpt>
      <trkpt lat="-2.718914" lon="-78.822708">
        <ele>2985.00</ele>
        <time>2018-09-08T23:18:48Z</time>
      </trkpt>
      <trkpt lat="-2.719024" lon="-78.822678">
        <ele>2985.00</ele>
        <time>2018-09-08T23:18:49Z</time>
      </trkpt>
      <trkpt lat="-2.719136" lon="-78.822670">
        <ele>2985.00</ele>
        <time>2018-09-08T23:18:50Z</time>
      </trkpt>
      <trkpt lat="-2.719250" lon="-78.822693">
        <ele>2985.00</ele>
        <time>2018-09-08T23:18:51Z</time>
      </trkpt>
      <trkpt lat="-2.719353" lon="-78.822731">
        <ele>2985.00</ele>
        <time>2018-09-08T23:18:52Z</time>
      </trkpt>
      <trkpt lat="-2.719461" lon="-78.822746">
        <ele>2984.00</ele>
        <time>2018-09-08T23:18:53Z</time>
      </trkpt>
      <trkpt lat="-2.719580" lon="-78.822739">
        <ele>2984.00</ele>
        <time>2018-09-08T23:18:54Z</time>
      </trkpt>
      <trkpt lat="-2.719691" lon="-78.822723">
        <ele>2983.00</ele>
        <time>2018-09-08T23:18:55Z</time>
      </trkpt>
      <trkpt lat="-2.719774" lon="-78.822693">
        <ele>2983.00</ele>
        <time>2018-09-08T23:18:56Z</time>
      </trkpt>
      <trkpt lat="-2.719836" lon="-78.822678">
        <ele>2982.00</ele>
        <time>2018-09-08T23:18:57Z</time>
      </trkpt>
      <trkpt lat="-2.719893" lon="-78.822685">
        <ele>2981.00</ele>
        <time>2018-09-08T23:18:58Z</time>
      </trkpt>
      <trkpt lat="-2.719937" lon="-78.822746">
        <ele>2981.00</ele>
        <time>2018-09-08T23:18:59Z</time>
      </trkpt>
      <trkpt lat="-2.719958" lon="-78.822838">
        <ele>2980.00</ele>
        <time>2018-09-08T23:19:00Z</time>
      </trkpt>
      <trkpt lat="-2.719940" lon="-78.822937">
        <ele>2979.00</ele>
        <time>2018-09-08T23:19:01Z</time>
      </trkpt>
      <trkpt lat="-2.719940" lon="-78.823029">
        <ele>2978.00</ele>
        <time>2018-09-08T23:19:02Z</time>
      </trkpt>
      <trkpt lat="-2.719957" lon="-78.823128">
        <ele>2978.00</ele>
        <time>2018-09-08T23:19:03Z</time>
      </trkpt>
      <trkpt lat="-2.720016" lon="-78.823235">
        <ele>2977.00</ele>
        <time>2018-09-08T23:19:04Z</time>
      </trkpt>
      <trkpt lat="-2.720096" lon="-78.823318">
        <ele>2975.00</ele>
        <time>2018-09-08T23:19:05Z</time>
      </trkpt>
      <trkpt lat="-2.720185" lon="-78.823357">
        <ele>2974.00</ele>
        <time>2018-09-08T23:19:06Z</time>
      </trkpt>
      <trkpt lat="-2.720297" lon="-78.823380">
        <ele>2972.00</ele>
        <time>2018-09-08T23:19:07Z</time>
      </trkpt>
      <trkpt lat="-2.720428" lon="-78.823387">
        <ele>2971.00</ele>
        <time>2018-09-08T23:19:08Z</time>
      </trkpt>
      <trkpt lat="-2.720576" lon="-78.823410">
        <ele>2970.00</ele>
        <time>2018-09-08T23:19:09Z</time>
      </trkpt>
      <trkpt lat="-2.720742" lon="-78.823441">
        <ele>2968.00</ele>
        <time>2018-09-08T23:19:10Z</time>
      </trkpt>
      <trkpt lat="-2.720891" lon="-78.823463">
        <ele>2967.00</ele>
        <time>2018-09-08T23:19:11Z</time>
      </trkpt>
      <trkpt lat="-2.721020" lon="-78.823494">
        <ele>2965.00</ele>
        <time>2018-09-08T23:19:12Z</time>
      </trkpt>
      <trkpt lat="-2.721118" lon="-78.823532">
        <ele>2962.00</ele>
        <time>2018-09-08T23:19:13Z</time>
      </trkpt>
      <trkpt lat="-2.721199" lon="-78.823570">
        <ele>2959.00</ele>
        <time>2018-09-08T23:19:14Z</time>
      </trkpt>
      <trkpt lat="-2.721273" lon="-78.823647">
        <ele>2956.00</ele>
        <time>2018-09-08T23:19:15Z</time>
      </trkpt>
      <trkpt lat="-2.721336" lon="-78.823723">
        <ele>2953.00</ele>
        <time>2018-09-08T23:19:16Z</time>
      </trkpt>
      <trkpt lat="-2.721395" lon="-78.823814">
        <ele>2950.00</ele>
        <time>2018-09-08T23:19:17Z</time>
      </trkpt>
      <trkpt lat="-2.721479" lon="-78.823891">
        <ele>2948.00</ele>
        <time>2018-09-08T23:19:18Z</time>
      </trkpt>
      <trkpt lat="-2.721570" lon="-78.823967">
        <ele>2946.00</ele>
        <time>2018-09-08T23:19:19Z</time>
      </trkpt>
      <trkpt lat="-2.721654" lon="-78.824028">
        <ele>2944.00</ele>
        <time>2018-09-08T23:19:20Z</time>
      </trkpt>
      <trkpt lat="-2.721749" lon="-78.824104">
        <ele>2941.00</ele>
        <time>2018-09-08T23:19:21Z</time>
      </trkpt>
      <trkpt lat="-2.721853" lon="-78.824203">
        <ele>2939.00</ele>
        <time>2018-09-08T23:19:22Z</time>
      </trkpt>
      <trkpt lat="-2.721994" lon="-78.824303">
        <ele>2937.00</ele>
        <time>2018-09-08T23:19:23Z</time>
      </trkpt>
      <trkpt lat="-2.722153" lon="-78.824371">
        <ele>2935.00</ele>
        <time>2018-09-08T23:19:24Z</time>
      </trkpt>
      <trkpt lat="-2.722316" lon="-78.824455">
        <ele>2932.00</ele>
        <time>2018-09-08T23:19:25Z</time>
      </trkpt>
      <trkpt lat="-2.722476" lon="-78.824524">
        <ele>2929.00</ele>
        <time>2018-09-08T23:19:26Z</time>
      </trkpt>
      <trkpt lat="-2.722621" lon="-78.824593">
        <ele>2926.00</ele>
        <time>2018-09-08T23:19:27Z</time>
      </trkpt>
      <trkpt lat="-2.722759" lon="-78.824677">
        <ele>2923.00</ele>
        <time>2018-09-08T23:19:28Z</time>
      </trkpt>
      <trkpt lat="-2.722878" lon="-78.824753">
        <ele>2919.00</ele>
        <time>2018-09-08T23:19:29Z</time>
      </trkpt>
      <trkpt lat="-2.723007" lon="-78.824837">
        <ele>2916.00</ele>
        <time>2018-09-08T23:19:30Z</time>
      </trkpt>
      <trkpt lat="-2.723149" lon="-78.824905">
        <ele>2913.00</ele>
        <time>2018-09-08T23:19:31Z</time>
      </trkpt>
      <trkpt lat="-2.723310" lon="-78.824966">
        <ele>2909.00</ele>
        <time>2018-09-08T23:19:32Z</time>
      </trkpt>
      <trkpt lat="-2.723456" lon="-78.825027">
        <ele>2906.00</ele>
        <time>2018-09-08T23:19:33Z</time>
      </trkpt>
      <trkpt lat="-2.723584" lon="-78.825096">
        <ele>2903.00</ele>
        <time>2018-09-08T23:19:34Z</time>
      </trkpt>
      <trkpt lat="-2.723705" lon="-78.825157">
        <ele>2900.00</ele>
        <time>2018-09-08T23:19:35Z</time>
      </trkpt>
      <trkpt lat="-2.723825" lon="-78.825211">
        <ele>2897.00</ele>
        <time>2018-09-08T23:19:36Z</time>
      </trkpt>
      <trkpt lat="-2.723934" lon="-78.825287">
        <ele>2895.00</ele>
        <time>2018-09-08T23:19:37Z</time>
      </trkpt>
      <trkpt lat="-2.724031" lon="-78.825386">
        <ele>2893.00</ele>
        <time>2018-09-08T23:19:38Z</time>
      </trkpt>
      <trkpt lat="-2.724115" lon="-78.825470">
        <ele>2892.00</ele>
        <time>2018-09-08T23:19:39Z</time>
      </trkpt>
      <trkpt lat="-2.724194" lon="-78.825539">
        <ele>2891.00</ele>
        <time>2018-09-08T23:19:40Z</time>
      </trkpt>
      <trkpt lat="-2.724303" lon="-78.825584">
        <ele>2890.00</ele>
        <time>2018-09-08T23:19:41Z</time>
      </trkpt>
      <trkpt lat="-2.724420" lon="-78.825615">
        <ele>2889.00</ele>
        <time>2018-09-08T23:19:42Z</time>
      </trkpt>
      <trkpt lat="-2.724528" lon="-78.825645">
        <ele>2888.00</ele>
        <time>2018-09-08T23:19:43Z</time>
      </trkpt>
      <trkpt lat="-2.724617" lon="-78.825691">
        <ele>2887.00</ele>
        <time>2018-09-08T23:19:44Z</time>
      </trkpt>
      <trkpt lat="-2.724688" lon="-78.825760">
        <ele>2886.00</ele>
        <time>2018-09-08T23:19:45Z</time>
      </trkpt>
      <trkpt lat="-2.724764" lon="-78.825829">
        <ele>2885.00</ele>
        <time>2018-09-08T23:19:46Z</time>
      </trkpt>
      <trkpt lat="-2.724841" lon="-78.825905">
        <ele>2884.00</ele>
        <time>2018-09-08T23:19:47Z</time>
      </trkpt>
      <trkpt lat="-2.724912" lon="-78.825966">
        <ele>2883.00</ele>
        <time>2018-09-08T23:19:48Z</time>
      </trkpt>
      <trkpt lat="-2.724989" lon="-78.826035">
        <ele>2882.00</ele>
        <time>2018-09-08T23:19:49Z</time>
      </trkpt>
      <trkpt lat="-2.725067" lon="-78.826126">
        <ele>2880.00</ele>
        <time>2018-09-08T23:19:50Z</time>
      </trkpt>
      <trkpt lat="-2.725145" lon="-78.826225">
        <ele>2878.00</ele>
        <time>2018-09-08T23:19:51Z</time>
      </trkpt>
      <trkpt lat="-2.725225" lon="-78.826340">
        <ele>2875.00</ele>
        <time>2018-09-08T23:19:52Z</time>
      </trkpt>
      <trkpt lat="-2.725297" lon="-78.826447">
        <ele>2873.00</ele>
        <time>2018-09-08T23:19:53Z</time>
      </trkpt>
      <trkpt lat="-2.725364" lon="-78.826561">
        <ele>2872.00</ele>
        <time>2018-09-08T23:19:54Z</time>
      </trkpt>
      <trkpt lat="-2.725428" lon="-78.826668">
        <ele>2870.00</ele>
        <time>2018-09-08T23:19:55Z</time>
      </trkpt>
      <trkpt lat="-2.725487" lon="-78.826782">
        <ele>2869.00</ele>
        <time>2018-09-08T23:19:56Z</time>
      </trkpt>
      <trkpt lat="-2.725542" lon="-78.826897">
        <ele>2868.00</ele>
        <time>2018-09-08T23:19:57Z</time>
      </trkpt>
      <trkpt lat="-2.725603" lon="-78.827019">
        <ele>2867.00</ele>
        <time>2018-09-08T23:19:58Z</time>
      </trkpt>
      <trkpt lat="-2.725680" lon="-78.827148">
        <ele>2865.00</ele>
        <time>2018-09-08T23:19:59Z</time>
      </trkpt>
      <trkpt lat="-2.725760" lon="-78.827271">
        <ele>2864.00</ele>
        <time>2018-09-08T23:20:00Z</time>
      </trkpt>
      <trkpt lat="-2.725834" lon="-78.827385">
        <ele>2862.00</ele>
        <time>2018-09-08T23:20:01Z</time>
      </trkpt>
      <trkpt lat="-2.725908" lon="-78.827492">
        <ele>2860.00</ele>
        <time>2018-09-08T23:20:02Z</time>
      </trkpt>
      <trkpt lat="-2.725993" lon="-78.827599">
        <ele>2858.00</ele>
        <time>2018-09-08T23:20:03Z</time>
      </trkpt>
      <trkpt lat="-2.726093" lon="-78.827705">
        <ele>2856.00</ele>
        <time>2018-09-08T23:20:04Z</time>
      </trkpt>
      <trkpt lat="-2.726198" lon="-78.827812">
        <ele>2854.00</ele>
        <time>2018-09-08T23:20:05Z</time>
      </trkpt>
      <trkpt lat="-2.726295" lon="-78.827911">
        <ele>2851.00</ele>
        <time>2018-09-08T23:20:06Z</time>
      </trkpt>
      <trkpt lat="-2.726392" lon="-78.828003">
        <ele>2849.00</ele>
        <time>2018-09-08T23:20:07Z</time>
      </trkpt>
      <trkpt lat="-2.726487" lon="-78.828079">
        <ele>2847.00</ele>
        <time>2018-09-08T23:20:08Z</time>
      </trkpt>
      <trkpt lat="-2.726587" lon="-78.828148">
        <ele>2846.00</ele>
        <time>2018-09-08T23:20:09Z</time>
      </trkpt>
      <trkpt lat="-2.726692" lon="-78.828224">
        <ele>2844.00</ele>
        <time>2018-09-08T23:20:10Z</time>
      </trkpt>
      <trkpt lat="-2.726803" lon="-78.828278">
        <ele>2843.00</ele>
        <time>2018-09-08T23:20:11Z</time>
      </trkpt>
      <trkpt lat="-2.726911" lon="-78.828331">
        <ele>2842.00</ele>
        <time>2018-09-08T23:20:12Z</time>
      </trkpt>
      <trkpt lat="-2.727015" lon="-78.828362">
        <ele>2841.00</ele>
        <time>2018-09-08T23:20:13Z</time>
      </trkpt>
      <trkpt lat="-2.727122" lon="-78.828400">
        <ele>2840.00</ele>
        <time>2018-09-08T23:20:14Z</time>
      </trkpt>
      <trkpt lat="-2.727222" lon="-78.828430">
        <ele>2839.00</ele>
        <time>2018-09-08T23:20:15Z</time>
      </trkpt>
      <trkpt lat="-2.727314" lon="-78.828453">
        <ele>2838.00</ele>
        <time>2018-09-08T23:20:16Z</time>
      </trkpt>
      <trkpt lat="-2.727411" lon="-78.828491">
        <ele>2837.00</ele>
        <time>2018-09-08T23:20:17Z</time>
      </trkpt>
      <trkpt lat="-2.727498" lon="-78.828506">
        <ele>2837.00</ele>
        <time>2018-09-08T23:20:18Z</time>
      </trkpt>
      <trkpt lat="-2.727584" lon="-78.828514">
        <ele>2836.00</ele>
        <time>2018-09-08T23:20:19Z</time>
      </trkpt>
      <trkpt lat="-2.727675" lon="-78.828537">
        <ele>2835.00</ele>
        <time>2018-09-08T23:20:20Z</time>
      </trkpt>
      <trkpt lat="-2.727764" lon="-78.828598">
        <ele>2835.00</ele>
        <time>2018-09-08T23:20:21Z</time>
      </trkpt>
      <trkpt lat="-2.727857" lon="-78.828667">
        <ele>2834.00</ele>
        <time>2018-09-08T23:20:22Z</time>
      </trkpt>
      <trkpt lat="-2.727928" lon="-78.828773">
        <ele>2833.00</ele>
        <time>2018-09-08T23:20:23Z</time>
      </trkpt>
      <trkpt lat="-2.727987" lon="-78.828880">
        <ele>2832.00</ele>
        <time>2018-09-08T23:20:24Z</time>
      </trkpt>
      <trkpt lat="-2.728035" lon="-78.828995">
        <ele>2831.00</ele>
        <time>2018-09-08T23:20:25Z</time>
      </trkpt>
      <trkpt lat="-2.728083" lon="-78.829109">
        <ele>2831.00</ele>
        <time>2018-09-08T23:20:26Z</time>
      </trkpt>
      <trkpt lat="-2.728129" lon="-78.829224">
        <ele>2830.00</ele>
        <time>2018-09-08T23:20:27Z</time>
      </trkpt>
      <trkpt lat="-2.728196" lon="-78.829315">
        <ele>2829.00</ele>
        <time>2018-09-08T23:20:28Z</time>
      </trkpt>
      <trkpt lat="-2.728286" lon="-78.829414">
        <ele>2827.00</ele>
        <time>2018-09-08T23:20:29Z</time>
      </trkpt>
      <trkpt lat="-2.728371" lon="-78.829506">
        <ele>2823.00</ele>
        <time>2018-09-08T23:20:30Z</time>
      </trkpt>
      <trkpt lat="-2.728461" lon="-78.829582">
        <ele>2819.00</ele>
        <time>2018-09-08T23:20:31Z</time>
      </trkpt>
      <trkpt lat="-2.728563" lon="-78.829659">
        <ele>2816.00</ele>
        <time>2018-09-08T23:20:32Z</time>
      </trkpt>
      <trkpt lat="-2.728666" lon="-78.829742">
        <ele>2813.00</ele>
        <time>2018-09-08T23:20:33Z</time>
      </trkpt>
      <trkpt lat="-2.728772" lon="-78.829819">
        <ele>2810.00</ele>
        <time>2018-09-08T23:20:34Z</time>
      </trkpt>
      <trkpt lat="-2.728880" lon="-78.829895">
        <ele>2809.00</ele>
        <time>2018-09-08T23:20:35Z</time>
      </trkpt>
      <trkpt lat="-2.728966" lon="-78.829941">
        <ele>2807.00</ele>
        <time>2018-09-08T23:20:36Z</time>
      </trkpt>
      <trkpt lat="-2.729034" lon="-78.829994">
        <ele>2806.00</ele>
        <time>2018-09-08T23:20:37Z</time>
      </trkpt>
      <trkpt lat="-2.729073" lon="-78.830017">
        <ele>2804.00</ele>
        <time>2018-09-08T23:20:38Z</time>
      </trkpt>
      <trkpt lat="-2.729119" lon="-78.830017">
        <ele>2803.00</ele>
        <time>2018-09-08T23:20:39Z</time>
      </trkpt>
      <trkpt lat="-2.729151" lon="-78.829994">
        <ele>2802.00</ele>
        <time>2018-09-08T23:20:40Z</time>
      </trkpt>
      <trkpt lat="-2.729194" lon="-78.829948">
        <ele>2801.00</ele>
        <time>2018-09-08T23:20:41Z</time>
      </trkpt>
      <trkpt lat="-2.729234" lon="-78.829872">
        <ele>2801.00</ele>
        <time>2018-09-08T23:20:42Z</time>
      </trkpt>
      <trkpt lat="-2.729243" lon="-78.829781">
        <ele>2800.00</ele>
        <time>2018-09-08T23:20:43Z</time>
      </trkpt>
      <trkpt lat="-2.729241" lon="-78.829681">
        <ele>2799.00</ele>
        <time>2018-09-08T23:20:44Z</time>
      </trkpt>
      <trkpt lat="-2.729206" lon="-78.829567">
        <ele>2798.00</ele>
        <time>2018-09-08T23:20:45Z</time>
      </trkpt>
      <trkpt lat="-2.729150" lon="-78.829453">
        <ele>2798.00</ele>
        <time>2018-09-08T23:20:46Z</time>
      </trkpt>
      <trkpt lat="-2.729092" lon="-78.829330">
        <ele>2797.00</ele>
        <time>2018-09-08T23:20:47Z</time>
      </trkpt>
      <trkpt lat="-2.729028" lon="-78.829208">
        <ele>2796.00</ele>
        <time>2018-09-08T23:20:48Z</time>
      </trkpt>
      <trkpt lat="-2.728959" lon="-78.829094">
        <ele>2795.00</ele>
        <time>2018-09-08T23:20:49Z</time>
      </trkpt>
      <trkpt lat="-2.728884" lon="-78.828987">
        <ele>2795.00</ele>
        <time>2018-09-08T23:20:50Z</time>
      </trkpt>
      <trkpt lat="-2.728812" lon="-78.828896">
        <ele>2794.00</ele>
        <time>2018-09-08T23:20:51Z</time>
      </trkpt>
      <trkpt lat="-2.728756" lon="-78.828827">
        <ele>2794.00</ele>
        <time>2018-09-08T23:20:52Z</time>
      </trkpt>
      <trkpt lat="-2.728714" lon="-78.828766">
        <ele>2794.00</ele>
        <time>2018-09-08T23:20:53Z</time>
      </trkpt>
      <trkpt lat="-2.728707" lon="-78.828690">
        <ele>2793.00</ele>
        <time>2018-09-08T23:20:54Z</time>
      </trkpt>
      <trkpt lat="-2.728736" lon="-78.828621">
        <ele>2793.00</ele>
        <time>2018-09-08T23:20:55Z</time>
      </trkpt>
      <trkpt lat="-2.728782" lon="-78.828560">
        <ele>2793.00</ele>
        <time>2018-09-08T23:20:56Z</time>
      </trkpt>
      <trkpt lat="-2.728787" lon="-78.828491">
        <ele>2792.00</ele>
        <time>2018-09-08T23:20:57Z</time>
      </trkpt>
      <trkpt lat="-2.728765" lon="-78.828407">
        <ele>2792.00</ele>
        <time>2018-09-08T23:20:58Z</time>
      </trkpt>
      <trkpt lat="-2.728727" lon="-78.828323">
        <ele>2792.00</ele>
        <time>2018-09-08T23:20:59Z</time>
      </trkpt>
      <trkpt lat="-2.728669" lon="-78.828232">
        <ele>2791.00</ele>
        <time>2018-09-08T23:21:00Z</time>
      </trkpt>
      <trkpt lat="-2.728585" lon="-78.828148">
        <ele>2791.00</ele>
        <time>2018-09-08T23:21:01Z</time>
      </trkpt>
      <trkpt lat="-2.728492" lon="-78.828072">
        <ele>2791.00</ele>
        <time>2018-09-08T23:21:02Z</time>
      </trkpt>
      <trkpt lat="-2.728423" lon="-78.827980">
        <ele>2791.00</ele>
        <time>2018-09-08T23:21:03Z</time>
      </trkpt>
      <trkpt lat="-2.728359" lon="-78.827919">
        <ele>2791.00</ele>
        <time>2018-09-08T23:21:04Z</time>
      </trkpt>
      <trkpt lat="-2.728307" lon="-78.827866">
        <ele>2791.00</ele>
        <time>2018-09-08T23:21:05Z</time>
      </trkpt>
      <trkpt lat="-2.728277" lon="-78.827812">
        <ele>2791.00</ele>
        <time>2018-09-08T23:21:06Z</time>
      </trkpt>
      <trkpt lat="-2.728271" lon="-78.827751">
        <ele>2791.00</ele>
        <time>2018-09-08T23:21:07Z</time>
      </trkpt>
      <trkpt lat="-2.728317" lon="-78.827690">
        <ele>2791.00</ele>
        <time>2018-09-08T23:21:08Z</time>
      </trkpt>
      <trkpt lat="-2.728385" lon="-78.827652">
        <ele>2791.00</ele>
        <time>2018-09-08T23:21:09Z</time>
      </trkpt>
      <trkpt lat="-2.728445" lon="-78.827629">
        <ele>2791.00</ele>
        <time>2018-09-08T23:21:10Z</time>
      </trkpt>
      <trkpt lat="-2.728502" lon="-78.827621">
        <ele>2791.00</ele>
        <time>2018-09-08T23:21:11Z</time>
      </trkpt>
      <trkpt lat="-2.728549" lon="-78.827599">
        <ele>2791.00</ele>
        <time>2018-09-08T23:21:12Z</time>
      </trkpt>
      <trkpt lat="-2.728576" lon="-78.827599">
        <ele>2791.00</ele>
        <time>2018-09-08T23:21:13Z</time>
      </trkpt>
      <trkpt lat="-2.728603" lon="-78.827583">
        <ele>2791.00</ele>
        <time>2018-09-08T23:21:14Z</time>
      </trkpt>
      <trkpt lat="-2.728647" lon="-78.827576">
        <ele>2791.00</ele>
        <time>2018-09-08T23:21:15Z</time>
      </trkpt>
      <trkpt lat="-2.728718" lon="-78.827568">
        <ele>2791.00</ele>
        <time>2018-09-08T23:21:16Z</time>
      </trkpt>
      <trkpt lat="-2.728825" lon="-78.827591">
        <ele>2791.00</ele>
        <time>2018-09-08T23:21:17Z</time>
      </trkpt>
      <trkpt lat="-2.728944" lon="-78.827660">
        <ele>2791.00</ele>
        <time>2018-09-08T23:21:18Z</time>
      </trkpt>
      <trkpt lat="-2.729058" lon="-78.827751">
        <ele>2791.00</ele>
        <time>2018-09-08T23:21:19Z</time>
      </trkpt>
      <trkpt lat="-2.729181" lon="-78.827827">
        <ele>2791.00</ele>
        <time>2018-09-08T23:21:20Z</time>
      </trkpt>
      <trkpt lat="-2.729312" lon="-78.827919">
        <ele>2791.00</ele>
        <time>2018-09-08T23:21:21Z</time>
      </trkpt>
      <trkpt lat="-2.729444" lon="-78.828011">
        <ele>2791.00</ele>
        <time>2018-09-08T23:21:22Z</time>
      </trkpt>
      <trkpt lat="-2.729561" lon="-78.828087">
        <ele>2791.00</ele>
        <time>2018-09-08T23:21:23Z</time>
      </trkpt>
      <trkpt lat="-2.729666" lon="-78.828163">
        <ele>2791.00</ele>
        <time>2018-09-08T23:21:24Z</time>
      </trkpt>
      <trkpt lat="-2.729761" lon="-78.828224">
        <ele>2791.00</ele>
        <time>2018-09-08T23:21:25Z</time>
      </trkpt>
      <trkpt lat="-2.729834" lon="-78.828270">
        <ele>2791.00</ele>
        <time>2018-09-08T23:21:26Z</time>
      </trkpt>
      <trkpt lat="-2.729886" lon="-78.828308">
        <ele>2792.00</ele>
        <time>2018-09-08T23:21:27Z</time>
      </trkpt>
      <trkpt lat="-2.729928" lon="-78.828331">
        <ele>2792.00</ele>
        <time>2018-09-08T23:21:28Z</time>
      </trkpt>
      <trkpt lat="-2.729968" lon="-78.828339">
        <ele>2791.00</ele>
        <time>2018-09-08T23:21:29Z</time>
      </trkpt>
      <trkpt lat="-2.730005" lon="-78.828339">
        <ele>2791.00</ele>
        <time>2018-09-08T23:21:30Z</time>
      </trkpt>
      <trkpt lat="-2.730005" lon="-78.828339">
        <ele>2791.00</ele>
        <time>2018-09-08T23:21:31Z</time>
      </trkpt>
      <trkpt lat="-2.730005" lon="-78.828339">
        <ele>2795.00</ele>
        <time>2018-09-08T23:21:32Z</time>
      </trkpt>
      <trkpt lat="-2.730005" lon="-78.828339">
        <ele>2798.00</ele>
        <time>2018-09-08T23:21:33Z</time>
      </trkpt>
      <trkpt lat="-2.730005" lon="-78.828339">
        <ele>2801.00</ele>
        <time>2018-09-08T23:21:34Z</time>
      </trkpt>
      <trkpt lat="-2.730005" lon="-78.828339">
        <ele>2802.00</ele>
        <time>2018-09-08T23:21:35Z</time>
      </trkpt>
      <trkpt lat="-2.730005" lon="-78.828339">
        <ele>2805.00</ele>
        <time>2018-09-08T23:21:36Z</time>
      </trkpt>
      <trkpt lat="-2.729860" lon="-78.828201">
        <ele>2805.00</ele>
        <time>2018-09-08T23:21:37Z</time>
      </trkpt>
      <trkpt lat="-2.729702" lon="-78.827988">
        <ele>2805.00</ele>
        <time>2018-09-08T23:21:38Z</time>
      </trkpt>
      <trkpt lat="-2.729469" lon="-78.827553">
        <ele>2804.00</ele>
        <time>2018-09-08T23:21:39Z</time>
      </trkpt>
      <trkpt lat="-2.729371" lon="-78.827324">
        <ele>2803.00</ele>
        <time>2018-09-08T23:21:40Z</time>
      </trkpt>
      <trkpt lat="-2.729359" lon="-78.827217">
        <ele>2801.00</ele>
        <time>2018-09-08T23:21:41Z</time>
      </trkpt>
      <trkpt lat="-2.729402" lon="-78.827148">
        <ele>2800.00</ele>
        <time>2018-09-08T23:21:42Z</time>
      </trkpt>
      <trkpt lat="-2.729465" lon="-78.827065">
        <ele>2798.00</ele>
        <time>2018-09-08T23:21:43Z</time>
      </trkpt>
      <trkpt lat="-2.729550" lon="-78.827003">
        <ele>2797.00</ele>
        <time>2018-09-08T23:21:44Z</time>
      </trkpt>
      <trkpt lat="-2.729649" lon="-78.826981">
        <ele>2796.00</ele>
        <time>2018-09-08T23:21:45Z</time>
      </trkpt>
      <trkpt lat="-2.729726" lon="-78.826958">
        <ele>2794.00</ele>
        <time>2018-09-08T23:21:46Z</time>
      </trkpt>
      <trkpt lat="-2.729786" lon="-78.826935">
        <ele>2793.00</ele>
        <time>2018-09-08T23:21:47Z</time>
      </trkpt>
      <trkpt lat="-2.729825" lon="-78.826881">
        <ele>2791.00</ele>
        <time>2018-09-08T23:21:48Z</time>
      </trkpt>
      <trkpt lat="-2.729859" lon="-78.826836">
        <ele>2790.00</ele>
        <time>2018-09-08T23:21:49Z</time>
      </trkpt>
      <trkpt lat="-2.729890" lon="-78.826790">
        <ele>2788.00</ele>
        <time>2018-09-08T23:21:50Z</time>
      </trkpt>
      <trkpt lat="-2.729909" lon="-78.826775">
        <ele>2788.00</ele>
        <time>2018-09-08T23:21:51Z</time>
      </trkpt>
      <trkpt lat="-2.729909" lon="-78.826775">
        <ele>2788.00</ele>
        <time>2018-09-08T23:21:52Z</time>
      </trkpt>
      <trkpt lat="-2.729909" lon="-78.826775">
        <ele>2788.00</ele>
        <time>2018-09-08T23:21:53Z</time>
      </trkpt>
      <trkpt lat="-2.729909" lon="-78.826775">
        <ele>2788.00</ele>
        <time>2018-09-08T23:21:54Z</time>
      </trkpt>
      <trkpt lat="-2.729909" lon="-78.826775">
        <ele>2787.00</ele>
        <time>2018-09-08T23:21:55Z</time>
      </trkpt>
      <trkpt lat="-2.729909" lon="-78.826775">
        <ele>2787.00</ele>
        <time>2018-09-08T23:21:56Z</time>
      </trkpt>
      <trkpt lat="-2.729909" lon="-78.826775">
        <ele>2787.00</ele>
        <time>2018-09-08T23:21:57Z</time>
      </trkpt>
      <trkpt lat="-2.729909" lon="-78.826775">
        <ele>2787.00</ele>
        <time>2018-09-08T23:21:58Z</time>
      </trkpt>
      <trkpt lat="-2.729909" lon="-78.826775">
        <ele>2787.00</ele>
        <time>2018-09-08T23:21:59Z</time>
      </trkpt>
      <trkpt lat="-2.729909" lon="-78.826775">
        <ele>2787.00</ele>
        <time>2018-09-08T23:22:00Z</time>
      </trkpt>
      <trkpt lat="-2.729909" lon="-78.826775">
        <ele>2787.00</ele>
        <time>2018-09-08T23:22:01Z</time>
      </trkpt>
      <trkpt lat="-2.729909" lon="-78.826775">
        <ele>2787.00</ele>
        <time>2018-09-08T23:22:02Z</time>
      </trkpt>
      <trkpt lat="-2.729909" lon="-78.826775">
        <ele>2787.00</ele>
        <time>2018-09-08T23:22:03Z</time>
      </trkpt>
      <trkpt lat="-2.729909" lon="-78.826775">
        <ele>2787.00</ele>
        <time>2018-09-08T23:22:04Z</time>
      </trkpt>
      <trkpt lat="-2.729909" lon="-78.826775">
        <ele>2787.00</ele>
        <time>2018-09-08T23:22:05Z</time>
      </trkpt>
      <trkpt lat="-2.729909" lon="-78.826775">
        <ele>2787.00</ele>
        <time>2018-09-08T23:22:06Z</time>
      </trkpt>
      <trkpt lat="-2.729909" lon="-78.826775">
        <ele>2787.00</ele>
        <time>2018-09-08T23:22:07Z</time>
      </trkpt>
      <trkpt lat="-2.729909" lon="-78.826775">
        <ele>2787.00</ele>
        <time>2018-09-08T23:22:08Z</time>
      </trkpt>
      <trkpt lat="-2.729909" lon="-78.826775">
        <ele>2787.00</ele>
        <time>2018-09-08T23:22:09Z</time>
      </trkpt>
      <trkpt lat="-2.729909" lon="-78.826775">
        <ele>2787.00</ele>
        <time>2018-09-08T23:22:10Z</time>
      </trkpt>
      <trkpt lat="-2.729909" lon="-78.826775">
        <ele>2787.00</ele>
        <time>2018-09-08T23:22:11Z</time>
      </trkpt>
      <trkpt lat="-2.729909" lon="-78.826775">
        <ele>2787.00</ele>
        <time>2018-09-08T23:22:12Z</time>
      </trkpt>
      <trkpt lat="-2.729909" lon="-78.826775">
        <ele>2787.00</ele>
        <time>2018-09-08T23:22:13Z</time>
      </trkpt>
      <trkpt lat="-2.729909" lon="-78.826775">
        <ele>2787.00</ele>
        <time>2018-09-08T23:22:14Z</time>
      </trkpt>
      <trkpt lat="-2.729909" lon="-78.826775">
        <ele>2787.00</ele>
        <time>2018-09-08T23:22:15Z</time>
      </trkpt>
      <trkpt lat="-2.729909" lon="-78.826775">
        <ele>2787.00</ele>
        <time>2018-09-08T23:22:16Z</time>
      </trkpt>
      <trkpt lat="-2.729909" lon="-78.826775">
        <ele>2787.00</ele>
        <time>2018-09-08T23:22:17Z</time>
      </trkpt>
      <trkpt lat="-2.729909" lon="-78.826775">
        <ele>2787.00</ele>
        <time>2018-09-08T23:22:18Z</time>
      </trkpt>
      <trkpt lat="-2.729909" lon="-78.826775">
        <ele>2787.00</ele>
        <time>2018-09-08T23:22:19Z</time>
      </trkpt>
      <trkpt lat="-2.729909" lon="-78.826775">
        <ele>2787.00</ele>
        <time>2018-09-08T23:22:20Z</time>
      </trkpt>
      <trkpt lat="-2.729909" lon="-78.826775">
        <ele>2787.00</ele>
        <time>2018-09-08T23:22:21Z</time>
      </trkpt>
      <trkpt lat="-2.729909" lon="-78.826775">
        <ele>2787.00</ele>
        <time>2018-09-08T23:22:22Z</time>
      </trkpt>
      <trkpt lat="-2.729909" lon="-78.826775">
        <ele>2787.00</ele>
        <time>2018-09-08T23:22:23Z</time>
      </trkpt>
      <trkpt lat="-2.729909" lon="-78.826775">
        <ele>2786.00</ele>
        <time>2018-09-08T23:22:24Z</time>
      </trkpt>
      <trkpt lat="-2.729909" lon="-78.826775">
        <ele>2786.00</ele>
        <time>2018-09-08T23:22:25Z</time>
      </trkpt>
      <trkpt lat="-2.729909" lon="-78.826775">
        <ele>2786.00</ele>
        <time>2018-09-08T23:22:26Z</time>
      </trkpt>
      <trkpt lat="-2.729909" lon="-78.826775">
        <ele>2785.00</ele>
        <time>2018-09-08T23:22:27Z</time>
      </trkpt>
      <trkpt lat="-2.729909" lon="-78.826775">
        <ele>2785.00</ele>
        <time>2018-09-08T23:22:28Z</time>
      </trkpt>
      <trkpt lat="-2.729909" lon="-78.826775">
        <ele>2785.00</ele>
        <time>2018-09-08T23:22:29Z</time>
      </trkpt>
      <trkpt lat="-2.729884" lon="-78.826721">
        <ele>2784.00</ele>
        <time>2018-09-08T23:22:30Z</time>
      </trkpt>
      <trkpt lat="-2.729884" lon="-78.826721">
        <ele>2784.00</ele>
        <time>2018-09-08T23:22:31Z</time>
      </trkpt>
      <trkpt lat="-2.729884" lon="-78.826721">
        <ele>2783.00</ele>
        <time>2018-09-08T23:22:32Z</time>
      </trkpt>
      <trkpt lat="-2.729884" lon="-78.826721">
        <ele>2783.00</ele>
        <time>2018-09-08T23:22:33Z</time>
      </trkpt>
      <trkpt lat="-2.729884" lon="-78.826721">
        <ele>2783.00</ele>
        <time>2018-09-08T23:22:34Z</time>
      </trkpt>
      <trkpt lat="-2.729884" lon="-78.826721">
        <ele>2782.00</ele>
        <time>2018-09-08T23:22:35Z</time>
      </trkpt>
      <trkpt lat="-2.729848" lon="-78.826683">
        <ele>2782.00</ele>
        <time>2018-09-08T23:22:36Z</time>
      </trkpt>
      <trkpt lat="-2.729813" lon="-78.826668">
        <ele>2778.00</ele>
        <time>2018-09-08T23:22:37Z</time>
      </trkpt>
      <trkpt lat="-2.729776" lon="-78.826630">
        <ele>2778.00</ele>
        <time>2018-09-08T23:22:38Z</time>
      </trkpt>
      <trkpt lat="-2.729776" lon="-78.826630">
        <ele>2777.00</ele>
        <time>2018-09-08T23:22:39Z</time>
      </trkpt>
      <trkpt lat="-2.729776" lon="-78.826630">
        <ele>2777.00</ele>
        <time>2018-09-08T23:22:40Z</time>
      </trkpt>
      <trkpt lat="-2.729776" lon="-78.826630">
        <ele>2777.00</ele>
        <time>2018-09-08T23:22:41Z</time>
      </trkpt>
      <trkpt lat="-2.729776" lon="-78.826630">
        <ele>2777.00</ele>
        <time>2018-09-08T23:22:42Z</time>
      </trkpt>
      <trkpt lat="-2.729776" lon="-78.826630">
        <ele>2777.00</ele>
        <time>2018-09-08T23:22:43Z</time>
      </trkpt>
      <trkpt lat="-2.729776" lon="-78.826630">
        <ele>2777.00</ele>
        <time>2018-09-08T23:22:44Z</time>
      </trkpt>
      <trkpt lat="-2.729776" lon="-78.826630">
        <ele>2777.00</ele>
        <time>2018-09-08T23:22:45Z</time>
      </trkpt>
      <trkpt lat="-2.729776" lon="-78.826630">
        <ele>2777.00</ele>
        <time>2018-09-08T23:22:46Z</time>
      </trkpt>
      <trkpt lat="-2.729776" lon="-78.826630">
        <ele>2777.00</ele>
        <time>2018-09-08T23:22:47Z</time>
      </trkpt>
      <trkpt lat="-2.729776" lon="-78.826630">
        <ele>2777.00</ele>
        <time>2018-09-08T23:22:48Z</time>
      </trkpt>
      <trkpt lat="-2.729776" lon="-78.826630">
        <ele>2777.00</ele>
        <time>2018-09-08T23:22:49Z</time>
      </trkpt>
      <trkpt lat="-2.729776" lon="-78.826630">
        <ele>2777.00</ele>
        <time>2018-09-08T23:22:50Z</time>
      </trkpt>
      <trkpt lat="-2.729776" lon="-78.826630">
        <ele>2777.00</ele>
        <time>2018-09-08T23:22:51Z</time>
      </trkpt>
      <trkpt lat="-2.729776" lon="-78.826630">
        <ele>2777.00</ele>
        <time>2018-09-08T23:22:52Z</time>
      </trkpt>
      <trkpt lat="-2.729776" lon="-78.826630">
        <ele>2777.00</ele>
        <time>2018-09-08T23:22:53Z</time>
      </trkpt>
      <trkpt lat="-2.729776" lon="-78.826630">
        <ele>2777.00</ele>
        <time>2018-09-08T23:22:54Z</time>
      </trkpt>
      <trkpt lat="-2.729776" lon="-78.826630">
        <ele>2777.00</ele>
        <time>2018-09-08T23:22:55Z</time>
      </trkpt>
      <trkpt lat="-2.729776" lon="-78.826630">
        <ele>2777.00</ele>
        <time>2018-09-08T23:22:56Z</time>
      </trkpt>
      <trkpt lat="-2.729776" lon="-78.826630">
        <ele>2777.00</ele>
        <time>2018-09-08T23:22:57Z</time>
      </trkpt>
      <trkpt lat="-2.729776" lon="-78.826630">
        <ele>2777.00</ele>
        <time>2018-09-08T23:22:58Z</time>
      </trkpt>
      <trkpt lat="-2.729776" lon="-78.826630">
        <ele>2777.00</ele>
        <time>2018-09-08T23:22:59Z</time>
      </trkpt>
      <trkpt lat="-2.729776" lon="-78.826630">
        <ele>2777.00</ele>
        <time>2018-09-08T23:23:00Z</time>
      </trkpt>
      <trkpt lat="-2.729776" lon="-78.826630">
        <ele>2777.00</ele>
        <time>2018-09-08T23:23:01Z</time>
      </trkpt>
      <trkpt lat="-2.729776" lon="-78.826630">
        <ele>2777.00</ele>
        <time>2018-09-08T23:23:02Z</time>
      </trkpt>
      <trkpt lat="-2.729776" lon="-78.826630">
        <ele>2777.00</ele>
        <time>2018-09-08T23:23:03Z</time>
      </trkpt>
      <trkpt lat="-2.729776" lon="-78.826630">
        <ele>2777.00</ele>
        <time>2018-09-08T23:23:04Z</time>
      </trkpt>
      <trkpt lat="-2.729776" lon="-78.826630">
        <ele>2777.00</ele>
        <time>2018-09-08T23:23:05Z</time>
      </trkpt>
      <trkpt lat="-2.729776" lon="-78.826630">
        <ele>2777.00</ele>
        <time>2018-09-08T23:23:06Z</time>
      </trkpt>
      <trkpt lat="-2.729776" lon="-78.826630">
        <ele>2776.00</ele>
        <time>2018-09-08T23:23:07Z</time>
      </trkpt>
      <trkpt lat="-2.729776" lon="-78.826630">
        <ele>2776.00</ele>
        <time>2018-09-08T23:23:08Z</time>
      </trkpt>
      <trkpt lat="-2.729776" lon="-78.826630">
        <ele>2776.00</ele>
        <time>2018-09-08T23:23:09Z</time>
      </trkpt>
      <trkpt lat="-2.729776" lon="-78.826630">
        <ele>2776.00</ele>
        <time>2018-09-08T23:23:10Z</time>
      </trkpt>
      <trkpt lat="-2.729776" lon="-78.826630">
        <ele>2776.00</ele>
        <time>2018-09-08T23:23:11Z</time>
      </trkpt>
      <trkpt lat="-2.729776" lon="-78.826630">
        <ele>2776.00</ele>
        <time>2018-09-08T23:23:12Z</time>
      </trkpt>
      <trkpt lat="-2.729776" lon="-78.826630">
        <ele>2776.00</ele>
        <time>2018-09-08T23:23:13Z</time>
      </trkpt>
      <trkpt lat="-2.729776" lon="-78.826630">
        <ele>2776.00</ele>
        <time>2018-09-08T23:23:14Z</time>
      </trkpt>
      <trkpt lat="-2.729776" lon="-78.826630">
        <ele>2776.00</ele>
        <time>2018-09-08T23:23:15Z</time>
      </trkpt>
      <trkpt lat="-2.729776" lon="-78.826630">
        <ele>2776.00</ele>
        <time>2018-09-08T23:23:16Z</time>
      </trkpt>
      <trkpt lat="-2.729776" lon="-78.826630">
        <ele>2776.00</ele>
        <time>2018-09-08T23:23:17Z</time>
      </trkpt>
      <trkpt lat="-2.729776" lon="-78.826630">
        <ele>2776.00</ele>
        <time>2018-09-08T23:23:18Z</time>
      </trkpt>
      <trkpt lat="-2.729776" lon="-78.826630">
        <ele>2776.00</ele>
        <time>2018-09-08T23:23:19Z</time>
      </trkpt>
      <trkpt lat="-2.729776" lon="-78.826630">
        <ele>2776.00</ele>
        <time>2018-09-08T23:23:20Z</time>
      </trkpt>
      <trkpt lat="-2.729776" lon="-78.826630">
        <ele>2776.00</ele>
        <time>2018-09-08T23:23:21Z</time>
      </trkpt>
      <trkpt lat="-2.729776" lon="-78.826630">
        <ele>2776.00</ele>
        <time>2018-09-08T23:23:22Z</time>
      </trkpt>
      <trkpt lat="-2.729776" lon="-78.826630">
        <ele>2776.00</ele>
        <time>2018-09-08T23:23:23Z</time>
      </trkpt>
      <trkpt lat="-2.729776" lon="-78.826630">
        <ele>2776.00</ele>
        <time>2018-09-08T23:23:24Z</time>
      </trkpt>
      <trkpt lat="-2.729776" lon="-78.826630">
        <ele>2776.00</ele>
        <time>2018-09-08T23:23:25Z</time>
      </trkpt>
      <trkpt lat="-2.729776" lon="-78.826630">
        <ele>2776.00</ele>
        <time>2018-09-08T23:23:26Z</time>
      </trkpt>
      <trkpt lat="-2.729776" lon="-78.826630">
        <ele>2776.00</ele>
        <time>2018-09-08T23:23:27Z</time>
      </trkpt>
      <trkpt lat="-2.729776" lon="-78.826630">
        <ele>2776.00</ele>
        <time>2018-09-08T23:23:28Z</time>
      </trkpt>
      <trkpt lat="-2.729776" lon="-78.826630">
        <ele>2776.00</ele>
        <time>2018-09-08T23:23:29Z</time>
      </trkpt>
      <trkpt lat="-2.729776" lon="-78.826630">
        <ele>2776.00</ele>
        <time>2018-09-08T23:23:30Z</time>
      </trkpt>
      <trkpt lat="-2.729776" lon="-78.826630">
        <ele>2775.00</ele>
        <time>2018-09-08T23:23:31Z</time>
      </trkpt>
      <trkpt lat="-2.729776" lon="-78.826630">
        <ele>2775.00</ele>
        <time>2018-09-08T23:23:32Z</time>
      </trkpt>
      <trkpt lat="-2.729776" lon="-78.826630">
        <ele>2775.00</ele>
        <time>2018-09-08T23:23:33Z</time>
      </trkpt>
      <trkpt lat="-2.729776" lon="-78.826630">
        <ele>2775.00</ele>
        <time>2018-09-08T23:23:34Z</time>
      </trkpt>
      <trkpt lat="-2.729776" lon="-78.826630">
        <ele>2775.00</ele>
        <time>2018-09-08T23:23:35Z</time>
      </trkpt>
      <trkpt lat="-2.729776" lon="-78.826630">
        <ele>2775.00</ele>
        <time>2018-09-08T23:23:36Z</time>
      </trkpt>
      <trkpt lat="-2.729776" lon="-78.826630">
        <ele>2775.00</ele>
        <time>2018-09-08T23:23:37Z</time>
      </trkpt>
      <trkpt lat="-2.729776" lon="-78.826630">
        <ele>2775.00</ele>
        <time>2018-09-08T23:23:38Z</time>
      </trkpt>
      <trkpt lat="-2.729776" lon="-78.826630">
        <ele>2775.00</ele>
        <time>2018-09-08T23:23:39Z</time>
      </trkpt>
      <trkpt lat="-2.729776" lon="-78.826630">
        <ele>2775.00</ele>
        <time>2018-09-08T23:23:40Z</time>
      </trkpt>
      <trkpt lat="-2.729776" lon="-78.826630">
        <ele>2775.00</ele>
        <time>2018-09-08T23:23:41Z</time>
      </trkpt>
      <trkpt lat="-2.729776" lon="-78.826630">
        <ele>2775.00</ele>
        <time>2018-09-08T23:23:42Z</time>
      </trkpt>
      <trkpt lat="-2.729776" lon="-78.826630">
        <ele>2775.00</ele>
        <time>2018-09-08T23:23:43Z</time>
      </trkpt>
      <trkpt lat="-2.729776" lon="-78.826630">
        <ele>2774.00</ele>
        <time>2018-09-08T23:23:44Z</time>
      </trkpt>
      <trkpt lat="-2.729776" lon="-78.826630">
        <ele>2774.00</ele>
        <time>2018-09-08T23:23:45Z</time>
      </trkpt>
      <trkpt lat="-2.729776" lon="-78.826630">
        <ele>2774.00</ele>
        <time>2018-09-08T23:23:46Z</time>
      </trkpt>
      <trkpt lat="-2.729776" lon="-78.826630">
        <ele>2774.00</ele>
        <time>2018-09-08T23:23:47Z</time>
      </trkpt>
      <trkpt lat="-2.729776" lon="-78.826630">
        <ele>2774.00</ele>
        <time>2018-09-08T23:23:48Z</time>
      </trkpt>
      <trkpt lat="-2.729776" lon="-78.826630">
        <ele>2774.00</ele>
        <time>2018-09-08T23:23:49Z</time>
      </trkpt>
      <trkpt lat="-2.729776" lon="-78.826630">
        <ele>2774.00</ele>
        <time>2018-09-08T23:23:50Z</time>
      </trkpt>
      <trkpt lat="-2.729776" lon="-78.826630">
        <ele>2774.00</ele>
        <time>2018-09-08T23:23:51Z</time>
      </trkpt>
      <trkpt lat="-2.729776" lon="-78.826630">
        <ele>2774.00</ele>
        <time>2018-09-08T23:23:52Z</time>
      </trkpt>
      <trkpt lat="-2.729776" lon="-78.826630">
        <ele>2774.00</ele>
        <time>2018-09-08T23:23:53Z</time>
      </trkpt>
      <trkpt lat="-2.729776" lon="-78.826630">
        <ele>2774.00</ele>
        <time>2018-09-08T23:23:54Z</time>
      </trkpt>
      <trkpt lat="-2.729776" lon="-78.826630">
        <ele>2774.00</ele>
        <time>2018-09-08T23:23:55Z</time>
      </trkpt>
      <trkpt lat="-2.729776" lon="-78.826630">
        <ele>2774.00</ele>
        <time>2018-09-08T23:23:56Z</time>
      </trkpt>
      <trkpt lat="-2.729776" lon="-78.826630">
        <ele>2774.00</ele>
        <time>2018-09-08T23:23:57Z</time>
      </trkpt>
      <trkpt lat="-2.729776" lon="-78.826630">
        <ele>2774.00</ele>
        <time>2018-09-08T23:23:58Z</time>
      </trkpt>
      <trkpt lat="-2.729776" lon="-78.826630">
        <ele>2774.00</ele>
        <time>2018-09-08T23:23:59Z</time>
      </trkpt>
      <trkpt lat="-2.729776" lon="-78.826630">
        <ele>2774.00</ele>
        <time>2018-09-08T23:24:00Z</time>
      </trkpt>
      <trkpt lat="-2.729776" lon="-78.826630">
        <ele>2774.00</ele>
        <time>2018-09-08T23:24:01Z</time>
      </trkpt>
      <trkpt lat="-2.729746" lon="-78.826637">
        <ele>2773.00</ele>
        <time>2018-09-08T23:24:02Z</time>
      </trkpt>
      <trkpt lat="-2.729745" lon="-78.826637">
        <ele>2773.00</ele>
        <time>2018-09-08T23:24:03Z</time>
      </trkpt>
      <trkpt lat="-2.729741" lon="-78.826630">
        <ele>2773.00</ele>
        <time>2018-09-08T23:24:04Z</time>
      </trkpt>
      <trkpt lat="-2.729739" lon="-78.826630">
        <ele>2772.00</ele>
        <time>2018-09-08T23:24:05Z</time>
      </trkpt>
      <trkpt lat="-2.729737" lon="-78.826630">
        <ele>2772.00</ele>
        <time>2018-09-08T23:24:06Z</time>
      </trkpt>
      <trkpt lat="-2.729733" lon="-78.826630">
        <ele>2772.00</ele>
        <time>2018-09-08T23:24:07Z</time>
      </trkpt>
      <trkpt lat="-2.729733" lon="-78.826630">
        <ele>2772.00</ele>
        <time>2018-09-08T23:24:08Z</time>
      </trkpt>
      <trkpt lat="-2.729732" lon="-78.826630">
        <ele>2772.00</ele>
        <time>2018-09-08T23:24:09Z</time>
      </trkpt>
      <trkpt lat="-2.729732" lon="-78.826630">
        <ele>2772.00</ele>
        <time>2018-09-08T23:24:10Z</time>
      </trkpt>
      <trkpt lat="-2.729728" lon="-78.826630">
        <ele>2772.00</ele>
        <time>2018-09-08T23:24:11Z</time>
      </trkpt>
      <trkpt lat="-2.729727" lon="-78.826630">
        <ele>2772.00</ele>
        <time>2018-09-08T23:24:12Z</time>
      </trkpt>
      <trkpt lat="-2.729725" lon="-78.826630">
        <ele>2772.00</ele>
        <time>2018-09-08T23:24:13Z</time>
      </trkpt>
      <trkpt lat="-2.729725" lon="-78.826630">
        <ele>2772.00</ele>
        <time>2018-09-08T23:24:14Z</time>
      </trkpt>
      <trkpt lat="-2.729725" lon="-78.826630">
        <ele>2772.00</ele>
        <time>2018-09-08T23:24:15Z</time>
      </trkpt>
      <trkpt lat="-2.729726" lon="-78.826630">
        <ele>2772.00</ele>
        <time>2018-09-08T23:24:16Z</time>
      </trkpt>
      <trkpt lat="-2.729727" lon="-78.826630">
        <ele>2772.00</ele>
        <time>2018-09-08T23:24:17Z</time>
      </trkpt>
      <trkpt lat="-2.729728" lon="-78.826630">
        <ele>2771.00</ele>
        <time>2018-09-08T23:24:18Z</time>
      </trkpt>
      <trkpt lat="-2.729728" lon="-78.826630">
        <ele>2771.00</ele>
        <time>2018-09-08T23:24:19Z</time>
      </trkpt>
      <trkpt lat="-2.729729" lon="-78.826630">
        <ele>2771.00</ele>
        <time>2018-09-08T23:24:20Z</time>
      </trkpt>
      <trkpt lat="-2.729730" lon="-78.826630">
        <ele>2771.00</ele>
        <time>2018-09-08T23:24:21Z</time>
      </trkpt>
      <trkpt lat="-2.729731" lon="-78.826630">
        <ele>2771.00</ele>
        <time>2018-09-08T23:24:22Z</time>
      </trkpt>
      <trkpt lat="-2.729731" lon="-78.826630">
        <ele>2771.00</ele>
        <time>2018-09-08T23:24:23Z</time>
      </trkpt>
      <trkpt lat="-2.729731" lon="-78.826630">
        <ele>2771.00</ele>
        <time>2018-09-08T23:24:24Z</time>
      </trkpt>
      <trkpt lat="-2.729732" lon="-78.826630">
        <ele>2771.00</ele>
        <time>2018-09-08T23:24:25Z</time>
      </trkpt>
    </trkseg>
  </trk>
</gpx>
